<?xml version='1.0' encoding='UTF-8'?><gpx version="1.1" creator="JPX - https://github.com/jenetics/jpx" xmlns="http://www.topografix.com/GPX/1/1"><trk><trkseg><trkpt lat="38.076589803068366" lon="14.973007407175604"><ele>245.0</ele><time>2026-04-29T07:11:00.999Z</time></trkpt><trkpt lat="38.07649631436281" lon="14.973017808534916"><ele>245.0</ele><time>2026-04-29T07:11:01.999Z</time></trkpt><trkpt lat="38.076387552175625" lon="14.973025929783681"><ele>245.0</ele><time>2026-04-29T07:11:02.999Z</time></trkpt><trkpt lat="38.07626839329284" lon="14.973034026415785"><ele>245.0</ele><time>2026-04-29T07:11:03.999Z</time></trkpt><trkpt lat="38.076113434502645" lon="14.973043629509199"><ele>245.0</ele><time>2026-04-29T07:11:04.999Z</time></trkpt><trkpt lat="38.07595041996811" lon="14.973031793851986"><ele>245.0</ele><time>2026-04-29T07:11:05.999Z</time></trkpt><trkpt lat="38.075798344155835" lon="14.973044256724494"><ele>245.0</ele><time>2026-04-29T07:11:06.999Z</time></trkpt><trkpt lat="38.07567693600978" lon="14.973047811687966"><ele>245.0</ele><time>2026-04-29T07:11:07.999Z</time></trkpt><trkpt lat="38.07559502758116" lon="14.973033786332824"><ele>246.8</ele><time>2026-04-29T07:11:08.999Z</time></trkpt><trkpt lat="38.07553177683859" lon="14.972998736719129"><ele>248.6</ele><time>2026-04-29T07:11:09.999Z</time></trkpt><trkpt lat="38.0754592708966" lon="14.972948234662347"><ele>250.39999999999998</ele><time>2026-04-29T07:11:10.999Z</time></trkpt><trkpt lat="38.075375512123706" lon="14.972878524880615"><ele>252.2</ele><time>2026-04-29T07:11:11.999Z</time></trkpt><trkpt lat="38.075289454910475" lon="14.972796374703469"><ele>254.0</ele><time>2026-04-29T07:11:12.999Z</time></trkpt><trkpt lat="38.07519003563072" lon="14.97269792682962"><ele>254.0</ele><time>2026-04-29T07:11:13.999Z</time></trkpt><trkpt lat="38.07508350406608" lon="14.972584791846204"><ele>254.0</ele><time>2026-04-29T07:11:14.999Z</time></trkpt><trkpt lat="38.07499446171325" lon="14.972489288319931"><ele>254.0</ele><time>2026-04-29T07:11:15.999Z</time></trkpt><trkpt lat="38.07489731693934" lon="14.97241249680001"><ele>254.0</ele><time>2026-04-29T07:11:16.999Z</time></trkpt><trkpt lat="38.07481653263615" lon="14.972328199611342"><ele>256.59999999999997</ele><time>2026-04-29T07:11:17.999Z</time></trkpt><trkpt lat="38.07474704274059" lon="14.972265755684644"><ele>259.2</ele><time>2026-04-29T07:11:18.999Z</time></trkpt><trkpt lat="38.07467944560397" lon="14.972176686417729"><ele>261.79999999999995</ele><time>2026-04-29T07:11:19.999Z</time></trkpt><trkpt lat="38.07459732641612" lon="14.972098103920331"><ele>264.4</ele><time>2026-04-29T07:11:20.999Z</time></trkpt><trkpt lat="38.074511451593615" lon="14.972019569157327"><ele>267.0</ele><time>2026-04-29T07:11:21.999Z</time></trkpt><trkpt lat="38.07442950812373" lon="14.971954164005897"><ele>267.0</ele><time>2026-04-29T07:11:22.999Z</time></trkpt><trkpt lat="38.07433891529654" lon="14.97188755325184"><ele>267.0</ele><time>2026-04-29T07:11:23.999Z</time></trkpt><trkpt lat="38.074248927241236" lon="14.971825540155834"><ele>267.0</ele><time>2026-04-29T07:11:24.999Z</time></trkpt><trkpt lat="38.07416754314413" lon="14.971771382306244"><ele>267.0</ele><time>2026-04-29T07:11:25.999Z</time></trkpt><trkpt lat="38.074082350631606" lon="14.971733204713109"><ele>267.0</ele><time>2026-04-29T07:11:26.999Z</time></trkpt><trkpt lat="38.07399333385663" lon="14.971675240772962"><ele>265.8</ele><time>2026-04-29T07:11:27.999Z</time></trkpt><trkpt lat="38.073906594840146" lon="14.971630962676661"><ele>264.6</ele><time>2026-04-29T07:11:28.999Z</time></trkpt><trkpt lat="38.073838136310435" lon="14.971575683260982"><ele>263.40000000000003</ele><time>2026-04-29T07:11:29.999Z</time></trkpt><trkpt lat="38.07374951964133" lon="14.971533365899951"><ele>262.2</ele><time>2026-04-29T07:11:30.999Z</time></trkpt><trkpt lat="38.073659049049525" lon="14.971492502649648"><ele>261.0</ele><time>2026-04-29T07:11:31.999Z</time></trkpt><trkpt lat="38.07357104548007" lon="14.971455722123812"><ele>261.0</ele><time>2026-04-29T07:11:32.999Z</time></trkpt><trkpt lat="38.073483682620626" lon="14.971424297038302"><ele>261.0</ele><time>2026-04-29T07:11:33.999Z</time></trkpt><trkpt lat="38.0734137905173" lon="14.971404151757369"><ele>261.0</ele><time>2026-04-29T07:11:34.999Z</time></trkpt><trkpt lat="38.07331189370995" lon="14.971404116191986"><ele>261.0</ele><time>2026-04-29T07:11:36.999Z</time></trkpt><trkpt lat="38.07325056424768" lon="14.971454149093454"><ele>261.0</ele><time>2026-04-29T07:11:37.999Z</time></trkpt><trkpt lat="38.073225577404855" lon="14.971568487413112"><ele>261.0</ele><time>2026-04-29T07:11:38.999Z</time></trkpt><trkpt lat="38.073193341976236" lon="14.971642146037189"><ele>262.3333333333333</ele><time>2026-04-29T07:11:39.999Z</time></trkpt><trkpt lat="38.07317157175955" lon="14.971741445602373"><ele>263.6666666666667</ele><time>2026-04-29T07:11:40.999Z</time></trkpt><trkpt lat="38.07317362184809" lon="14.971840720639923"><ele>265.0</ele><time>2026-04-29T07:11:41.999Z</time></trkpt><trkpt lat="38.07316077747987" lon="14.971935579919183"><ele>266.33333333333337</ele><time>2026-04-29T07:11:42.999Z</time></trkpt><trkpt lat="38.07312150633426" lon="14.972009183452085"><ele>267.6666666666667</ele><time>2026-04-29T07:11:43.999Z</time></trkpt><trkpt lat="38.073071967131355" lon="14.972082475198485"><ele>269.0</ele><time>2026-04-29T07:11:45.999Z</time></trkpt><trkpt lat="38.07299365518697" lon="14.972078549078772"><ele>269.0</ele><time>2026-04-29T07:11:47.999Z</time></trkpt><trkpt lat="38.07296001402704" lon="14.972000504519084"><ele>269.0</ele><time>2026-04-29T07:11:48.999Z</time></trkpt><trkpt lat="38.07295083628027" lon="14.971919217552259"><ele>269.0</ele><time>2026-04-29T07:11:49.999Z</time></trkpt><trkpt lat="38.07292711857689" lon="14.971819967847559"><ele>269.0</ele><time>2026-04-29T07:11:50.999Z</time></trkpt><trkpt lat="38.072902049842064" lon="14.971683984918343"><ele>269.0</ele><time>2026-04-29T07:11:51.999Z</time></trkpt><trkpt lat="38.07288545718142" lon="14.97155275672708"><ele>269.0</ele><time>2026-04-29T07:11:52.999Z</time></trkpt><trkpt lat="38.07286971293815" lon="14.97142732062731"><ele>267.4</ele><time>2026-04-29T07:11:53.999Z</time></trkpt><trkpt lat="38.072833755310754" lon="14.9713014312357"><ele>265.79999999999995</ele><time>2026-04-29T07:11:54.999Z</time></trkpt><trkpt lat="38.07282342864589" lon="14.97120074103649"><ele>264.20000000000005</ele><time>2026-04-29T07:11:55.999Z</time></trkpt><trkpt lat="38.07278934677596" lon="14.971116824017143"><ele>262.6</ele><time>2026-04-29T07:11:56.999Z</time></trkpt><trkpt lat="38.07272378169762" lon="14.971044836403273"><ele>261.0</ele><time>2026-04-29T07:11:57.999Z</time></trkpt><trkpt lat="38.07262001056208" lon="14.97095456123268"><ele>261.0</ele><time>2026-04-29T07:11:58.999Z</time></trkpt><trkpt lat="38.07252838039109" lon="14.970866450881726"><ele>261.0</ele><time>2026-04-29T07:11:59.999Z</time></trkpt><trkpt lat="38.072451188700015" lon="14.970815299194147"><ele>261.0</ele><time>2026-04-29T07:12:00.999Z</time></trkpt><trkpt lat="38.072346435439655" lon="14.970764711918983"><ele>261.0</ele><time>2026-04-29T07:12:01.999Z</time></trkpt><trkpt lat="38.07226595488059" lon="14.970727987726107"><ele>261.0</ele><time>2026-04-29T07:12:02.999Z</time></trkpt><trkpt lat="38.072187782984834" lon="14.970717348044388"><ele>260.8</ele><time>2026-04-29T07:12:03.999Z</time></trkpt><trkpt lat="38.072084870963856" lon="14.970753041772454"><ele>260.6</ele><time>2026-04-29T07:12:04.999Z</time></trkpt><trkpt lat="38.07198272873961" lon="14.970771980110335"><ele>260.4</ele><time>2026-04-29T07:12:05.999Z</time></trkpt><trkpt lat="38.07189637232622" lon="14.970782980021855"><ele>260.2</ele><time>2026-04-29T07:12:06.999Z</time></trkpt><trkpt lat="38.07180473110568" lon="14.97079655232003"><ele>260.0</ele><time>2026-04-29T07:12:07.999Z</time></trkpt><trkpt lat="38.07170440832826" lon="14.970807632289445"><ele>260.0</ele><time>2026-04-29T07:12:08.999Z</time></trkpt><trkpt lat="38.07153372756919" lon="14.97079272943515"><ele>260.0</ele><time>2026-04-29T07:12:09.999Z</time></trkpt><trkpt lat="38.07141224409725" lon="14.97075132889865"><ele>260.0</ele><time>2026-04-29T07:12:11.999Z</time></trkpt><trkpt lat="38.07134580824709" lon="14.970728765435185"><ele>260.0</ele><time>2026-04-29T07:12:12.999Z</time></trkpt><trkpt lat="38.07136583543727" lon="14.970500546700464"><ele>260.0</ele><time>2026-04-29T07:12:15.999Z</time></trkpt><trkpt lat="38.071436837733366" lon="14.970456416458106"><ele>260.0</ele><time>2026-04-29T07:12:19.999Z</time></trkpt><trkpt lat="38.07146706589639" lon="14.970384080955313"><ele>260.0</ele><time>2026-04-29T07:12:33.999Z</time></trkpt><trkpt lat="38.07153433981509" lon="14.97031433434769"><ele>260.0</ele><time>2026-04-29T07:12:35.999Z</time></trkpt><trkpt lat="38.071613103685195" lon="14.970222227701575"><ele>260.0</ele><time>2026-04-29T07:12:38.999Z</time></trkpt><trkpt lat="38.071696838998164" lon="14.970119879997851"><ele>260.0</ele><time>2026-04-29T07:12:40.999Z</time></trkpt><trkpt lat="38.07175623909331" lon="14.970050785304347"><ele>260.0</ele><time>2026-04-29T07:12:41.999Z</time></trkpt><trkpt lat="38.071812037654176" lon="14.969984738328526"><ele>260.0</ele><time>2026-04-29T07:12:42.999Z</time></trkpt><trkpt lat="38.071905195812626" lon="14.96993207614419"><ele>260.0</ele><time>2026-04-29T07:12:44.999Z</time></trkpt><trkpt lat="38.07197855727648" lon="14.969896517943326"><ele>260.0</ele><time>2026-04-29T07:12:49.999Z</time></trkpt><trkpt lat="38.072108470047645" lon="14.969839967316437"><ele>258.6666666666667</ele><time>2026-04-29T07:12:51.999Z</time></trkpt><trkpt lat="38.072201535048556" lon="14.969802217769692"><ele>257.33333333333337</ele><time>2026-04-29T07:12:52.999Z</time></trkpt><trkpt lat="38.0722834935464" lon="14.969723421992525"><ele>256.0</ele><time>2026-04-29T07:12:53.999Z</time></trkpt><trkpt lat="38.0723566836249" lon="14.969672929456543"><ele>254.66666666666669</ele><time>2026-04-29T07:12:54.999Z</time></trkpt><trkpt lat="38.07240745194838" lon="14.969602362736207"><ele>253.33333333333334</ele><time>2026-04-29T07:12:55.999Z</time></trkpt><trkpt lat="38.072457766250565" lon="14.969512448510878"><ele>252.0</ele><time>2026-04-29T07:12:56.999Z</time></trkpt><trkpt lat="38.0724910788217" lon="14.969423982721453"><ele>252.0</ele><time>2026-04-29T07:12:58.999Z</time></trkpt><trkpt lat="38.07242688692953" lon="14.969336968625873"><ele>252.0</ele><time>2026-04-29T07:13:00.999Z</time></trkpt><trkpt lat="38.072365785449705" lon="14.969289179754869"><ele>252.0</ele><time>2026-04-29T07:13:13.999Z</time></trkpt><trkpt lat="38.07228904652391" lon="14.96921690095525"><ele>252.0</ele><time>2026-04-29T07:13:15.999Z</time></trkpt><trkpt lat="38.072226802284774" lon="14.969150195006227"><ele>252.0</ele><time>2026-04-29T07:13:16.999Z</time></trkpt><trkpt lat="38.07217540229708" lon="14.96906296526294"><ele>252.0</ele><time>2026-04-29T07:13:17.998Z</time></trkpt><trkpt lat="38.07216778120514" lon="14.968961815464482"><ele>254.66666666666666</ele><time>2026-04-29T07:13:18.998Z</time></trkpt><trkpt lat="38.07212478614235" lon="14.96889487399594"><ele>257.3333333333333</ele><time>2026-04-29T07:13:19.998Z</time></trkpt><trkpt lat="38.07208082827995" lon="14.968825100477483"><ele>260.0</ele><time>2026-04-29T07:13:20.998Z</time></trkpt><trkpt lat="38.07203474172504" lon="14.968746124553858"><ele>262.66666666666663</ele><time>2026-04-29T07:13:21.998Z</time></trkpt><trkpt lat="38.071979992514876" lon="14.968652657918446"><ele>265.3333333333333</ele><time>2026-04-29T07:13:22.998Z</time></trkpt><trkpt lat="38.07193971038918" lon="14.968575991122076"><ele>268.0</ele><time>2026-04-29T07:13:23.998Z</time></trkpt><trkpt lat="38.07189947786036" lon="14.968499269417347"><ele>268.0</ele><time>2026-04-29T07:13:24.998Z</time></trkpt><trkpt lat="38.07186956542203" lon="14.968418621334719"><ele>268.0</ele><time>2026-04-29T07:13:25.998Z</time></trkpt><trkpt lat="38.07184255704369" lon="14.96831351545312"><ele>268.0</ele><time>2026-04-29T07:13:26.998Z</time></trkpt><trkpt lat="38.07181806713412" lon="14.968200957315865"><ele>268.0</ele><time>2026-04-29T07:13:27.998Z</time></trkpt><trkpt lat="38.07179344460247" lon="14.968074994103425"><ele>268.0</ele><time>2026-04-29T07:13:28.998Z</time></trkpt><trkpt lat="38.071751678057154" lon="14.967935509655874"><ele>270.2</ele><time>2026-04-29T07:13:29.998Z</time></trkpt><trkpt lat="38.07170657640131" lon="14.967810564791263"><ele>272.4</ele><time>2026-04-29T07:13:30.998Z</time></trkpt><trkpt lat="38.07166132502404" lon="14.967694755551202"><ele>274.59999999999997</ele><time>2026-04-29T07:13:31.998Z</time></trkpt><trkpt lat="38.071620844678414" lon="14.967600465293625"><ele>276.8</ele><time>2026-04-29T07:13:32.998Z</time></trkpt><trkpt lat="38.07155701015364" lon="14.967530764587789"><ele>279.0</ele><time>2026-04-29T07:13:34.998Z</time></trkpt><trkpt lat="38.07146373931413" lon="14.967575115187831"><ele>281.4</ele><time>2026-04-29T07:13:35.998Z</time></trkpt><trkpt lat="38.07138536152614" lon="14.96764078742758"><ele>283.79999999999995</ele><time>2026-04-29T07:13:36.998Z</time></trkpt><trkpt lat="38.07132467627246" lon="14.96771715596266"><ele>286.20000000000005</ele><time>2026-04-29T07:13:37.999Z</time></trkpt><trkpt lat="38.07122559228474" lon="14.967846889096093"><ele>288.6</ele><time>2026-04-29T07:13:39.999Z</time></trkpt><trkpt lat="38.071151921810404" lon="14.967896010866394"><ele>291.0</ele><time>2026-04-29T07:13:40.999Z</time></trkpt><trkpt lat="38.071071955162004" lon="14.967959416713398"><ele>291.0</ele><time>2026-04-29T07:13:41.999Z</time></trkpt><trkpt lat="38.071007338923664" lon="14.968005177706877"><ele>291.0</ele><time>2026-04-29T07:13:42.999Z</time></trkpt><trkpt lat="38.07088124603446" lon="14.968066605782989"><ele>291.0</ele><time>2026-04-29T07:13:44.999Z</time></trkpt><trkpt lat="38.07077007636406" lon="14.968045205147574"><ele>291.0</ele><time>2026-04-29T07:13:46.999Z</time></trkpt><trkpt lat="38.07070973748748" lon="14.967992861721903"><ele>291.0</ele><time>2026-04-29T07:13:47.999Z</time></trkpt><trkpt lat="38.070658555970525" lon="14.96792857118729"><ele>289.25</ele><time>2026-04-29T07:13:48.999Z</time></trkpt><trkpt lat="38.070571037529994" lon="14.967844132299303"><ele>287.5</ele><time>2026-04-29T07:13:49.999Z</time></trkpt><trkpt lat="38.07046224078129" lon="14.967732498969273"><ele>285.75</ele><time>2026-04-29T07:13:50.999Z</time></trkpt><trkpt lat="38.070379496376866" lon="14.967642760742729"><ele>284.0</ele><time>2026-04-29T07:13:51.999Z</time></trkpt><trkpt lat="38.07031180043497" lon="14.967553512099776"><ele>287.59999999999997</ele><time>2026-04-29T07:13:52.999Z</time></trkpt><trkpt lat="38.07028340528652" lon="14.967422405133448"><ele>291.2</ele><time>2026-04-29T07:13:53.999Z</time></trkpt><trkpt lat="38.07023425076633" lon="14.967303991911155"><ele>294.79999999999995</ele><time>2026-04-29T07:13:54.999Z</time></trkpt><trkpt lat="38.070201710070315" lon="14.967183837330701"><ele>298.4</ele><time>2026-04-29T07:13:55.999Z</time></trkpt><trkpt lat="38.070152223274135" lon="14.967102942928985"><ele>302.0</ele><time>2026-04-29T07:13:56.999Z</time></trkpt><trkpt lat="38.070096185371476" lon="14.967029868219013"><ele>302.0</ele><time>2026-04-29T07:13:58.999Z</time></trkpt><trkpt lat="38.07017791319855" lon="14.966992215225122"><ele>302.0</ele><time>2026-04-29T07:14:01.999Z</time></trkpt><trkpt lat="38.07040683698678" lon="14.967065471272923"><ele>302.0</ele><time>2026-04-29T07:14:04.999Z</time></trkpt><trkpt lat="38.070515453374625" lon="14.967050418251018"><ele>302.0</ele><time>2026-04-29T07:14:05.999Z</time></trkpt><trkpt lat="38.07060358122265" lon="14.967065116127326"><ele>302.0</ele><time>2026-04-29T07:14:06.999Z</time></trkpt><trkpt lat="38.07066731082406" lon="14.967034283689218"><ele>302.0</ele><time>2026-04-29T07:14:07.999Z</time></trkpt><trkpt lat="38.070722928694" lon="14.9669905028014"><ele>302.0</ele><time>2026-04-29T07:14:08.999Z</time></trkpt><trkpt lat="38.07083156678214" lon="14.966909937154888"><ele>302.0</ele><time>2026-04-29T07:14:09.999Z</time></trkpt><trkpt lat="38.07095274214709" lon="14.96679593141963"><ele>302.0</ele><time>2026-04-29T07:14:10.999Z</time></trkpt><trkpt lat="38.071052885595726" lon="14.966679903436638"><ele>309.0</ele><time>2026-04-29T07:14:11.999Z</time></trkpt><trkpt lat="38.071167361599734" lon="14.966571631707154"><ele>316.0</ele><time>2026-04-29T07:14:12.999Z</time></trkpt><trkpt lat="38.07126377305918" lon="14.966487233248165"><ele>323.0</ele><time>2026-04-29T07:14:13.999Z</time></trkpt><trkpt lat="38.071347447914626" lon="14.966420710186345"><ele>330.0</ele><time>2026-04-29T07:14:14.999Z</time></trkpt><trkpt lat="38.07144619424694" lon="14.96634662426993"><ele>330.0</ele><time>2026-04-29T07:14:15.999Z</time></trkpt><trkpt lat="38.07153651621023" lon="14.966284682723552"><ele>330.0</ele><time>2026-04-29T07:14:16.999Z</time></trkpt><trkpt lat="38.07160951111851" lon="14.966252232675789"><ele>330.0</ele><time>2026-04-29T07:14:17.999Z</time></trkpt><trkpt lat="38.071732028780424" lon="14.966246163811054"><ele>330.0</ele><time>2026-04-29T07:14:19.999Z</time></trkpt><trkpt lat="38.071815888893916" lon="14.966266949659087"><ele>330.0</ele><time>2026-04-29T07:14:20.999Z</time></trkpt><trkpt lat="38.07190399393437" lon="14.966274533880721"><ele>328.8</ele><time>2026-04-29T07:14:21.999Z</time></trkpt><trkpt lat="38.07200682681467" lon="14.966273235209892"><ele>327.6</ele><time>2026-04-29T07:14:22.999Z</time></trkpt><trkpt lat="38.07210764317467" lon="14.966224370022093"><ele>326.4</ele><time>2026-04-29T07:14:23.999Z</time></trkpt><trkpt lat="38.07219310704588" lon="14.966122652565335"><ele>325.2</ele><time>2026-04-29T07:14:24.999Z</time></trkpt><trkpt lat="38.072237818453125" lon="14.96606626225708"><ele>324.0</ele><time>2026-04-29T07:14:26.999Z</time></trkpt><trkpt lat="38.072145996008416" lon="14.96602906087798"><ele>324.0</ele><time>2026-04-29T07:14:27.999Z</time></trkpt><trkpt lat="38.072094742670664" lon="14.965976740959155"><ele>324.0</ele><time>2026-04-29T07:14:47.999Z</time></trkpt><trkpt lat="38.07205490726012" lon="14.965896665111172"><ele>324.0</ele><time>2026-04-29T07:14:52.999Z</time></trkpt><trkpt lat="38.071953968005474" lon="14.96577159186475"><ele>324.0</ele><time>2026-04-29T07:14:54.999Z</time></trkpt><trkpt lat="38.07188960676252" lon="14.96572141306328"><ele>324.0</ele><time>2026-04-29T07:14:55.999Z</time></trkpt><trkpt lat="38.07181845112181" lon="14.965683302899965"><ele>324.0</ele><time>2026-04-29T07:14:56.999Z</time></trkpt><trkpt lat="38.071743456758576" lon="14.965651155426134"><ele>329.0</ele><time>2026-04-29T07:14:57.999Z</time></trkpt><trkpt lat="38.07167308853618" lon="14.965621987974977"><ele>334.0</ele><time>2026-04-29T07:14:58.999Z</time></trkpt><trkpt lat="38.07155142234222" lon="14.965603163949172"><ele>339.0</ele><time>2026-04-29T07:15:00.999Z</time></trkpt><trkpt lat="38.07147022038028" lon="14.965623438385736"><ele>344.0</ele><time>2026-04-29T07:15:01.999Z</time></trkpt><trkpt lat="38.07138249364707" lon="14.965656964779699"><ele>349.0</ele><time>2026-04-29T07:15:02.999Z</time></trkpt><trkpt lat="38.07128672525489" lon="14.965678865829831"><ele>350.8333333333333</ele><time>2026-04-29T07:15:03.999Z</time></trkpt><trkpt lat="38.07118468083534" lon="14.96568383183593"><ele>352.66666666666663</ele><time>2026-04-29T07:15:04.999Z</time></trkpt><trkpt lat="38.071086704279665" lon="14.965696268572124"><ele>354.5</ele><time>2026-04-29T07:15:05.999Z</time></trkpt><trkpt lat="38.07100895799597" lon="14.965718012446805"><ele>356.3333333333333</ele><time>2026-04-29T07:15:06.999Z</time></trkpt><trkpt lat="38.07094027385321" lon="14.96574131518208"><ele>358.1666666666667</ele><time>2026-04-29T07:15:07.999Z</time></trkpt><trkpt lat="38.07087118450038" lon="14.965712905607838"><ele>360.0</ele><time>2026-04-29T07:15:10.999Z</time></trkpt><trkpt lat="38.07090622639982" lon="14.965612366810506"><ele>360.0</ele><time>2026-04-29T07:15:12.999Z</time></trkpt><trkpt lat="38.0709811375458" lon="14.965579203245545"><ele>360.0</ele><time>2026-04-29T07:15:13.999Z</time></trkpt><trkpt lat="38.0710630109211" lon="14.965546275810992"><ele>360.0</ele><time>2026-04-29T07:15:14.999Z</time></trkpt><trkpt lat="38.07115836766916" lon="14.965479393059598"><ele>360.0</ele><time>2026-04-29T07:15:15.999Z</time></trkpt><trkpt lat="38.071256852035795" lon="14.96540702505168"><ele>360.0</ele><time>2026-04-29T07:15:16.999Z</time></trkpt><trkpt lat="38.07136738592736" lon="14.965351809445368"><ele>360.0</ele><time>2026-04-29T07:15:17.999Z</time></trkpt><trkpt lat="38.07147073171397" lon="14.965293073541948"><ele>360.0</ele><time>2026-04-29T07:15:18.999Z</time></trkpt><trkpt lat="38.07155965081632" lon="14.965225299319005"><ele>360.0</ele><time>2026-04-29T07:15:19.999Z</time></trkpt><trkpt lat="38.07163480820295" lon="14.965175353413088"><ele>360.0</ele><time>2026-04-29T07:15:20.999Z</time></trkpt><trkpt lat="38.07169749595328" lon="14.965127319327866"><ele>360.0</ele><time>2026-04-29T07:15:22.999Z</time></trkpt><trkpt lat="38.07160681478668" lon="14.96507898690954"><ele>360.0</ele><time>2026-04-29T07:15:26.999Z</time></trkpt><trkpt lat="38.0715128262046" lon="14.965078884166488"><ele>360.0</ele><time>2026-04-29T07:15:27.999Z</time></trkpt><trkpt lat="38.071394035629545" lon="14.965055084823376"><ele>360.0</ele><time>2026-04-29T07:15:28.999Z</time></trkpt><trkpt lat="38.07129707924142" lon="14.965055718222462"><ele>360.0</ele><time>2026-04-29T07:15:29.999Z</time></trkpt><trkpt lat="38.0712336362039" lon="14.965059240446394"><ele>360.0</ele><time>2026-04-29T07:15:30.999Z</time></trkpt><trkpt lat="38.07116733451457" lon="14.965083507137955"><ele>360.0</ele><time>2026-04-29T07:15:32.999Z</time></trkpt><trkpt lat="38.071023689520274" lon="14.965177677996667"><ele>360.0</ele><time>2026-04-29T07:15:34.999Z</time></trkpt><trkpt lat="38.07095882719507" lon="14.96522360054981"><ele>360.0</ele><time>2026-04-29T07:15:35.999Z</time></trkpt><trkpt lat="38.07088523157373" lon="14.965238156948521"><ele>360.0</ele><time>2026-04-29T07:15:36.998Z</time></trkpt><trkpt lat="38.070813561700824" lon="14.965228142380042"><ele>360.0</ele><time>2026-04-29T07:15:37.998Z</time></trkpt><trkpt lat="38.07074815743861" lon="14.965249112641189"><ele>360.0</ele><time>2026-04-29T07:15:38.998Z</time></trkpt><trkpt lat="38.07067372078128" lon="14.965279781024545"><ele>360.0</ele><time>2026-04-29T07:15:39.998Z</time></trkpt><trkpt lat="38.07058784898931" lon="14.965300865723796"><ele>359.2</ele><time>2026-04-29T07:15:40.998Z</time></trkpt><trkpt lat="38.07050146605039" lon="14.96528077937393"><ele>358.4</ele><time>2026-04-29T07:15:41.998Z</time></trkpt><trkpt lat="38.07040752515811" lon="14.965258459730471"><ele>357.6</ele><time>2026-04-29T07:15:42.999Z</time></trkpt><trkpt lat="38.07029537942664" lon="14.96523011335449"><ele>356.8</ele><time>2026-04-29T07:15:43.999Z</time></trkpt><trkpt lat="38.07019887256221" lon="14.96520377135824"><ele>356.0</ele><time>2026-04-29T07:15:44.999Z</time></trkpt><trkpt lat="38.070110205811126" lon="14.96515976978875"><ele>356.0</ele><time>2026-04-29T07:15:45.999Z</time></trkpt><trkpt lat="38.0700188036119" lon="14.965108624306437"><ele>356.0</ele><time>2026-04-29T07:15:46.999Z</time></trkpt><trkpt lat="38.06993375711172" lon="14.96502369758985"><ele>356.0</ele><time>2026-04-29T07:15:47.999Z</time></trkpt><trkpt lat="38.06985843965717" lon="14.964946914383095"><ele>356.0</ele><time>2026-04-29T07:15:48.999Z</time></trkpt><trkpt lat="38.06976909908937" lon="14.964848724208252"><ele>356.0</ele><time>2026-04-29T07:15:49.999Z</time></trkpt><trkpt lat="38.06969314827362" lon="14.96476937051902"><ele>359.83333333333337</ele><time>2026-04-29T07:15:50.999Z</time></trkpt><trkpt lat="38.069621931364594" lon="14.964708378367751"><ele>363.6666666666667</ele><time>2026-04-29T07:15:51.999Z</time></trkpt><trkpt lat="38.06954877449642" lon="14.96465809570694"><ele>367.5</ele><time>2026-04-29T07:15:52.999Z</time></trkpt><trkpt lat="38.06946406238381" lon="14.96461768875106"><ele>371.3333333333333</ele><time>2026-04-29T07:15:53.999Z</time></trkpt><trkpt lat="38.069384267869985" lon="14.96458772416102"><ele>375.16666666666663</ele><time>2026-04-29T07:15:54.999Z</time></trkpt><trkpt lat="38.069322335558105" lon="14.964557376018016"><ele>379.0</ele><time>2026-04-29T07:16:03.999Z</time></trkpt><trkpt lat="38.06936948498246" lon="14.964454910005587"><ele>379.0</ele><time>2026-04-29T07:16:06.999Z</time></trkpt><trkpt lat="38.069486671847436" lon="14.96441742505451"><ele>379.0</ele><time>2026-04-29T07:16:07.999Z</time></trkpt><trkpt lat="38.06957527808259" lon="14.964386439842313"><ele>379.0</ele><time>2026-04-29T07:16:08.999Z</time></trkpt><trkpt lat="38.06967681582782" lon="14.964346592697275"><ele>379.0</ele><time>2026-04-29T07:16:09.999Z</time></trkpt><trkpt lat="38.06979005568639" lon="14.964296606194761"><ele>379.0</ele><time>2026-04-29T07:16:10.999Z</time></trkpt><trkpt lat="38.06989338800963" lon="14.964248302814722"><ele>380.0</ele><time>2026-04-29T07:16:11.999Z</time></trkpt><trkpt lat="38.069987654921945" lon="14.964212759685452"><ele>381.0</ele><time>2026-04-29T07:16:12.999Z</time></trkpt><trkpt lat="38.07008242932508" lon="14.964189247372586"><ele>382.0</ele><time>2026-04-29T07:16:13.999Z</time></trkpt><trkpt lat="38.07016192843003" lon="14.964176610788352"><ele>383.0</ele><time>2026-04-29T07:16:14.999Z</time></trkpt><trkpt lat="38.070236731391645" lon="14.964153372417812"><ele>384.00000000000006</ele><time>2026-04-29T07:16:16.999Z</time></trkpt><trkpt lat="38.07026119298144" lon="14.96407762929231"><ele>385.0</ele><time>2026-04-29T07:16:18.999Z</time></trkpt><trkpt lat="38.07022322788115" lon="14.963990630150967"><ele>390.4</ele><time>2026-04-29T07:16:20.999Z</time></trkpt><trkpt lat="38.07012863040989" lon="14.96392078762962"><ele>395.8</ele><time>2026-04-29T07:16:22.999Z</time></trkpt><trkpt lat="38.070057757558715" lon="14.963887029889142"><ele>401.20000000000005</ele><time>2026-04-29T07:16:23.999Z</time></trkpt><trkpt lat="38.06997364860876" lon="14.96385879885997"><ele>406.6</ele><time>2026-04-29T07:16:24.999Z</time></trkpt><trkpt lat="38.06986319475366" lon="14.963833568197504"><ele>412.0</ele><time>2026-04-29T07:16:25.999Z</time></trkpt><trkpt lat="38.06975091850212" lon="14.963809486680416"><ele>412.0</ele><time>2026-04-29T07:16:26.999Z</time></trkpt><trkpt lat="38.06965712118314" lon="14.963791816162253"><ele>412.0</ele><time>2026-04-29T07:16:27.999Z</time></trkpt><trkpt lat="38.0695641918436" lon="14.96378182637492"><ele>412.0</ele><time>2026-04-29T07:16:28.999Z</time></trkpt><trkpt lat="38.069471801769836" lon="14.963784318149173"><ele>412.0</ele><time>2026-04-29T07:16:29.999Z</time></trkpt><trkpt lat="38.06938524706286" lon="14.963785061569668"><ele>412.0</ele><time>2026-04-29T07:16:30.999Z</time></trkpt><trkpt lat="38.0692929801748" lon="14.963797421280793"><ele>412.00000000000006</ele><time>2026-04-29T07:16:31.999Z</time></trkpt><trkpt lat="38.06920832827557" lon="14.963825594766629"><ele>412.0</ele><time>2026-04-29T07:16:32.999Z</time></trkpt><trkpt lat="38.069144688783354" lon="14.963833821022083"><ele>412.0</ele><time>2026-04-29T07:16:33.999Z</time></trkpt><trkpt lat="38.06904238800613" lon="14.963819937665733"><ele>412.0</ele><time>2026-04-29T07:16:35.999Z</time></trkpt><trkpt lat="38.06898945407531" lon="14.963756205811126"><ele>412.00000000000006</ele><time>2026-04-29T07:16:36.999Z</time></trkpt><trkpt lat="38.06895568703726" lon="14.963627682832431"><ele>412.0</ele><time>2026-04-29T07:16:37.999Z</time></trkpt><trkpt lat="38.06888168199968" lon="14.96352890581535"><ele>412.0</ele><time>2026-04-29T07:16:38.999Z</time></trkpt><trkpt lat="38.06879019582528" lon="14.963433724076756"><ele>412.0</ele><time>2026-04-29T07:16:39.999Z</time></trkpt><trkpt lat="38.06872391131217" lon="14.963327154757748"><ele>412.0</ele><time>2026-04-29T07:16:40.999Z</time></trkpt><trkpt lat="38.068647600000475" lon="14.96326023192619"><ele>412.0</ele><time>2026-04-29T07:16:41.999Z</time></trkpt><trkpt lat="38.06860175217218" lon="14.963173259200472"><ele>412.0</ele><time>2026-04-29T07:16:42.999Z</time></trkpt><trkpt lat="38.06857475551231" lon="14.963067645462774"><ele>412.00000000000006</ele><time>2026-04-29T07:16:43.999Z</time></trkpt><trkpt lat="38.06854297147328" lon="14.962964163395057"><ele>412.0</ele><time>2026-04-29T07:16:44.999Z</time></trkpt><trkpt lat="38.06853211156934" lon="14.96284963991386"><ele>412.0</ele><time>2026-04-29T07:16:45.999Z</time></trkpt><trkpt lat="38.06850556281797" lon="14.962754242040623"><ele>412.0</ele><time>2026-04-29T07:16:46.999Z</time></trkpt><trkpt lat="38.06846282306708" lon="14.962656628874603"><ele>412.00000000000006</ele><time>2026-04-29T07:16:47.999Z</time></trkpt><trkpt lat="38.0684205057638" lon="14.962559712301129"><ele>412.0</ele><time>2026-04-29T07:16:48.999Z</time></trkpt><trkpt lat="38.06834364657075" lon="14.962446403162446"><ele>409.40000000000003</ele><time>2026-04-29T07:16:49.999Z</time></trkpt><trkpt lat="38.068268788210844" lon="14.962347140271364"><ele>406.8</ele><time>2026-04-29T07:16:50.999Z</time></trkpt><trkpt lat="38.06821611147331" lon="14.962257925132631"><ele>404.2</ele><time>2026-04-29T07:16:51.999Z</time></trkpt><trkpt lat="38.06815293221538" lon="14.962188719027154"><ele>401.6</ele><time>2026-04-29T07:16:52.999Z</time></trkpt><trkpt lat="38.068067813945355" lon="14.962149563664722"><ele>399.0</ele><time>2026-04-29T07:16:53.999Z</time></trkpt><trkpt lat="38.06797983966157" lon="14.962113154237311"><ele>399.0</ele><time>2026-04-29T07:16:54.999Z</time></trkpt><trkpt lat="38.06788225470766" lon="14.962079145877512"><ele>399.0</ele><time>2026-04-29T07:16:55.999Z</time></trkpt><trkpt lat="38.0678292202483" lon="14.96202946691626"><ele>399.0</ele><time>2026-04-29T07:16:56.999Z</time></trkpt><trkpt lat="38.06776241458865" lon="14.96191958961196"><ele>399.0</ele><time>2026-04-29T07:16:58.999Z</time></trkpt><trkpt lat="38.067717193603585" lon="14.961808385843243"><ele>399.0</ele><time>2026-04-29T07:16:59.999Z</time></trkpt><trkpt lat="38.06766518231067" lon="14.961685086922722"><ele>402.5</ele><time>2026-04-29T07:17:00.999Z</time></trkpt><trkpt lat="38.067617815669635" lon="14.961572876557836"><ele>406.0</ele><time>2026-04-29T07:17:01.999Z</time></trkpt><trkpt lat="38.06758019032066" lon="14.961483817058973"><ele>409.5</ele><time>2026-04-29T07:17:02.999Z</time></trkpt><trkpt lat="38.06754813446126" lon="14.96139644520135"><ele>413.0</ele><time>2026-04-29T07:17:03.999Z</time></trkpt><trkpt lat="38.067510480761435" lon="14.961312760850248"><ele>416.5</ele><time>2026-04-29T07:17:04.999Z</time></trkpt><trkpt lat="38.067507803618945" lon="14.961207487240536"><ele>420.0</ele><time>2026-04-29T07:17:05.999Z</time></trkpt><trkpt lat="38.067495229752964" lon="14.961128447324768"><ele>413.0</ele><time>2026-04-29T07:17:06.999Z</time></trkpt><trkpt lat="38.06738811845724" lon="14.961028353978872"><ele>406.0</ele><time>2026-04-29T07:17:08.999Z</time></trkpt><trkpt lat="38.06730235389756" lon="14.96098607569473"><ele>399.0</ele><time>2026-04-29T07:17:09.999Z</time></trkpt><trkpt lat="38.06718843312028" lon="14.960934059719891"><ele>392.0</ele><time>2026-04-29T07:17:10.999Z</time></trkpt><trkpt lat="38.067073163428574" lon="14.960900998248652"><ele>396.49999999999994</ele><time>2026-04-29T07:17:11.999Z</time></trkpt><trkpt lat="38.066992630716854" lon="14.960865782001651"><ele>401.0</ele><time>2026-04-29T07:17:12.999Z</time></trkpt><trkpt lat="38.06690659166336" lon="14.960819174057338"><ele>405.5</ele><time>2026-04-29T07:17:13.999Z</time></trkpt><trkpt lat="38.066829054533564" lon="14.960767505210724"><ele>410.0</ele><time>2026-04-29T07:17:14.999Z</time></trkpt><trkpt lat="38.0667778748351" lon="14.960706264682875"><ele>414.49999999999994</ele><time>2026-04-29T07:17:16.999Z</time></trkpt><trkpt lat="38.0668244898225" lon="14.960644312850258"><ele>419.0</ele><time>2026-04-29T07:17:18.999Z</time></trkpt><trkpt lat="38.06687933127742" lon="14.960699163915546"><ele>418.99999999999994</ele><time>2026-04-29T07:17:19.999Z</time></trkpt><trkpt lat="38.06695670816996" lon="14.960752799610727"><ele>419.0</ele><time>2026-04-29T07:17:20.999Z</time></trkpt><trkpt lat="38.067054083220285" lon="14.960754222833422"><ele>419.0</ele><time>2026-04-29T07:17:21.999Z</time></trkpt><trkpt lat="38.067130787994444" lon="14.960756212628459"><ele>419.0</ele><time>2026-04-29T07:17:22.999Z</time></trkpt><trkpt lat="38.06719268807237" lon="14.960729884068094"><ele>418.99999999999994</ele><time>2026-04-29T07:17:23.999Z</time></trkpt><trkpt lat="38.06725823454682" lon="14.960690246680707"><ele>419.0</ele><time>2026-04-29T07:17:24.999Z</time></trkpt><trkpt lat="38.06732378287906" lon="14.960662595703727"><ele>419.0</ele><time>2026-04-29T07:17:25.999Z</time></trkpt><trkpt lat="38.0673806384666" lon="14.960715651736209"><ele>419.0</ele><time>2026-04-29T07:17:26.999Z</time></trkpt><trkpt lat="38.067475036035766" lon="14.960727393962324"><ele>419.0</ele><time>2026-04-29T07:17:28.999Z</time></trkpt><trkpt lat="38.06754957442615" lon="14.96073660454743"><ele>419.0</ele><time>2026-04-29T07:17:30.999Z</time></trkpt><trkpt lat="38.067607235233545" lon="14.960621980768527"><ele>419.0</ele><time>2026-04-29T07:17:32.999Z</time></trkpt><trkpt lat="38.067479766078705" lon="14.9605283183578"><ele>419.0</ele><time>2026-04-29T07:17:34.999Z</time></trkpt><trkpt lat="38.06739558233787" lon="14.960478095401283"><ele>419.0</ele><time>2026-04-29T07:17:35.999Z</time></trkpt><trkpt lat="38.06730719335453" lon="14.960465698172102"><ele>419.0</ele><time>2026-04-29T07:17:36.999Z</time></trkpt><trkpt lat="38.067210520734065" lon="14.960439504458263"><ele>419.0</ele><time>2026-04-29T07:17:37.999Z</time></trkpt><trkpt lat="38.06713133693112" lon="14.960454147749319"><ele>419.0</ele><time>2026-04-29T07:17:38.999Z</time></trkpt><trkpt lat="38.067035627524675" lon="14.960433545442186"><ele>419.0</ele><time>2026-04-29T07:17:40.999Z</time></trkpt><trkpt lat="38.067088218886" lon="14.960228627054532"><ele>419.0</ele><time>2026-04-29T07:17:43.999Z</time></trkpt><trkpt lat="38.06713683244547" lon="14.960131100281906"><ele>419.0</ele><time>2026-04-29T07:17:44.999Z</time></trkpt><trkpt lat="38.06711636629179" lon="14.960006861568852"><ele>419.0</ele><time>2026-04-29T07:17:45.999Z</time></trkpt><trkpt lat="38.067143922895056" lon="14.959926091948523"><ele>419.0</ele><time>2026-04-29T07:17:46.999Z</time></trkpt><trkpt lat="38.06714816578404" lon="14.959797773931795"><ele>422.16666666666663</ele><time>2026-04-29T07:17:49Z</time></trkpt><trkpt lat="38.06706583239778" lon="14.959747287492023"><ele>425.3333333333333</ele><time>2026-04-29T07:17:50Z</time></trkpt><trkpt lat="38.06696678240364" lon="14.959681222349886"><ele>428.5</ele><time>2026-04-29T07:17:52Z</time></trkpt><trkpt lat="38.06691578881557" lon="14.959612401515164"><ele>431.66666666666663</ele><time>2026-04-29T07:17:53Z</time></trkpt><trkpt lat="38.06685696158461" lon="14.959566701265473"><ele>434.8333333333333</ele><time>2026-04-29T07:17:54Z</time></trkpt><trkpt lat="38.06681080316691" lon="14.959479934343655"><ele>438.0</ele><time>2026-04-29T07:17:55Z</time></trkpt><trkpt lat="38.066763339650684" lon="14.959376596495353"><ele>438.0</ele><time>2026-04-29T07:17:56Z</time></trkpt><trkpt lat="38.06672746891202" lon="14.959265837667232"><ele>437.99999999999994</ele><time>2026-04-29T07:17:57Z</time></trkpt><trkpt lat="38.0666894824744" lon="14.959169524046398"><ele>437.99999999999994</ele><time>2026-04-29T07:17:58Z</time></trkpt><trkpt lat="38.0665951198123" lon="14.959037719615619"><ele>438.0</ele><time>2026-04-29T07:18:00Z</time></trkpt><trkpt lat="38.0665532915088" lon="14.958977101924074"><ele>438.0</ele><time>2026-04-29T07:18:01Z</time></trkpt><trkpt lat="38.06647879706462" lon="14.958883578520451"><ele>438.2</ele><time>2026-04-29T07:18:02Z</time></trkpt><trkpt lat="38.066435925118526" lon="14.958777020899438"><ele>438.4</ele><time>2026-04-29T07:18:03Z</time></trkpt><trkpt lat="38.06640042283885" lon="14.958625131917934"><ele>438.59999999999997</ele><time>2026-04-29T07:18:05Z</time></trkpt><trkpt lat="38.06638292499435" lon="14.958509914392744"><ele>438.79999999999995</ele><time>2026-04-29T07:18:06Z</time></trkpt><trkpt lat="38.06637328306675" lon="14.958394605510675"><ele>439.0</ele><time>2026-04-29T07:18:07Z</time></trkpt><trkpt lat="38.06632229930194" lon="14.958197900586665"><ele>439.0</ele><time>2026-04-29T07:18:09Z</time></trkpt><trkpt lat="38.06630401934111" lon="14.958090493966875"><ele>439.0</ele><time>2026-04-29T07:18:10Z</time></trkpt><trkpt lat="38.06628737496946" lon="14.957992700960915"><ele>439.0</ele><time>2026-04-29T07:18:11Z</time></trkpt><trkpt lat="38.06623810579331" lon="14.957888861276096"><ele>439.0</ele><time>2026-04-29T07:18:12.999Z</time></trkpt><trkpt lat="38.066158923439204" lon="14.957908238481366"><ele>439.0</ele><time>2026-04-29T07:18:15.999Z</time></trkpt><trkpt lat="38.06598782901446" lon="14.957824155539104"><ele>439.0</ele><time>2026-04-29T07:18:17.999Z</time></trkpt><trkpt lat="38.06591117276033" lon="14.95775199285931"><ele>439.0</ele><time>2026-04-29T07:18:18.999Z</time></trkpt><trkpt lat="38.065772661964964" lon="14.957561877567601"><ele>439.0</ele><time>2026-04-29T07:18:19.999Z</time></trkpt><trkpt lat="38.06572233035521" lon="14.957454444198497"><ele>439.0</ele><time>2026-04-29T07:18:20.999Z</time></trkpt><trkpt lat="38.06567969953962" lon="14.957362437731256"><ele>437.0</ele><time>2026-04-29T07:18:21.999Z</time></trkpt><trkpt lat="38.065608079492165" lon="14.957236579665363"><ele>435.0</ele><time>2026-04-29T07:18:23.999Z</time></trkpt><trkpt lat="38.06559325942833" lon="14.957150381783828"><ele>433.0</ele><time>2026-04-29T07:18:24.999Z</time></trkpt><trkpt lat="38.06556114347117" lon="14.956995795019647"><ele>431.0</ele><time>2026-04-29T07:18:26.999Z</time></trkpt><trkpt lat="38.0655383439613" lon="14.95691202901282"><ele>429.0</ele><time>2026-04-29T07:18:27.999Z</time></trkpt><trkpt lat="38.06597794036258" lon="14.956262010983197"><ele>439.1666666666667</ele><time>2026-04-29T07:18:29.999Z</time></trkpt><trkpt lat="38.06596342525004" lon="14.95614461262167"><ele>449.33333333333337</ele><time>2026-04-29T07:18:30.999Z</time></trkpt><trkpt lat="38.06593929289857" lon="14.95601477180387"><ele>459.5</ele><time>2026-04-29T07:18:31.999Z</time></trkpt><trkpt lat="38.06591926290344" lon="14.95590793594961"><ele>469.6666666666667</ele><time>2026-04-29T07:18:32.999Z</time></trkpt><trkpt lat="38.06588921662499" lon="14.95580763820117"><ele>479.83333333333337</ele><time>2026-04-29T07:18:33.999Z</time></trkpt><trkpt lat="38.06586556147346" lon="14.95572352481275"><ele>490.0</ele><time>2026-04-29T07:18:34.999Z</time></trkpt><trkpt lat="38.065831176344716" lon="14.95556626896033"><ele>492.00000000000006</ele><time>2026-04-29T07:18:36.999Z</time></trkpt><trkpt lat="38.0658371357559" lon="14.955464802715195"><ele>494.0</ele><time>2026-04-29T07:18:37.999Z</time></trkpt><trkpt lat="38.06583665525631" lon="14.95535334602228"><ele>496.0</ele><time>2026-04-29T07:18:38.999Z</time></trkpt><trkpt lat="38.06582962276956" lon="14.955233061213564"><ele>498.0</ele><time>2026-04-29T07:18:39.999Z</time></trkpt><trkpt lat="38.065822248832795" lon="14.955125136147977"><ele>500.00000000000006</ele><time>2026-04-29T07:18:40.999Z</time></trkpt><trkpt lat="38.065821135286825" lon="14.955002886539535"><ele>502.0</ele><time>2026-04-29T07:18:41.999Z</time></trkpt><trkpt lat="38.06582541059304" lon="14.954871826763155"><ele>504.40000000000003</ele><time>2026-04-29T07:18:42.999Z</time></trkpt><trkpt lat="38.06584473911065" lon="14.95473690959219"><ele>506.80000000000007</ele><time>2026-04-29T07:18:43.999Z</time></trkpt><trkpt lat="38.06585786398981" lon="14.954603176605708"><ele>509.2</ele><time>2026-04-29T07:18:44.999Z</time></trkpt><trkpt lat="38.0658573590054" lon="14.954476725421813"><ele>511.6</ele><time>2026-04-29T07:18:45.999Z</time></trkpt><trkpt lat="38.06584391590559" lon="14.954363722861887"><ele>514.0</ele><time>2026-04-29T07:18:46.999Z</time></trkpt><trkpt lat="38.06583647476476" lon="14.95426126425815"><ele>514.6666666666667</ele><time>2026-04-29T07:18:47.999Z</time></trkpt><trkpt lat="38.065831147408105" lon="14.954179273289848"><ele>515.3333333333334</ele><time>2026-04-29T07:18:48.999Z</time></trkpt><trkpt lat="38.06582154609115" lon="14.954018574521186"><ele>516.0</ele><time>2026-04-29T07:18:50.999Z</time></trkpt><trkpt lat="38.06582444290311" lon="14.953929445598066"><ele>516.6666666666666</ele><time>2026-04-29T07:18:51.999Z</time></trkpt><trkpt lat="38.06583541103766" lon="14.953824475799335"><ele>517.3333333333333</ele><time>2026-04-29T07:18:52.999Z</time></trkpt><trkpt lat="38.06585341446482" lon="14.953704909632151"><ele>518.0</ele><time>2026-04-29T07:18:53.999Z</time></trkpt><trkpt lat="38.06587813510815" lon="14.953595299809097"><ele>518.0</ele><time>2026-04-29T07:18:54.999Z</time></trkpt><trkpt lat="38.06591587438051" lon="14.953479969958506"><ele>518.0</ele><time>2026-04-29T07:18:55.999Z</time></trkpt><trkpt lat="38.06596003037791" lon="14.953377896527817"><ele>518.0</ele><time>2026-04-29T07:18:56.999Z</time></trkpt><trkpt lat="38.06600398135527" lon="14.953282421067307"><ele>518.0</ele><time>2026-04-29T07:18:57.999Z</time></trkpt><trkpt lat="38.06605162984383" lon="14.953166946097712"><ele>518.0</ele><time>2026-04-29T07:18:58.999Z</time></trkpt><trkpt lat="38.06609360845715" lon="14.953050021948888"><ele>516.25</ele><time>2026-04-29T07:18:59.999Z</time></trkpt><trkpt lat="38.06631833911406" lon="14.953032223873986"><ele>514.5</ele><time>2026-04-29T07:19:00.999Z</time></trkpt><trkpt lat="38.0663475557463" lon="14.95292232605365"><ele>512.75</ele><time>2026-04-29T07:19:01.999Z</time></trkpt><trkpt lat="38.06636469873107" lon="14.95279612758013"><ele>511.0</ele><time>2026-04-29T07:19:02.999Z</time></trkpt><trkpt lat="38.06623741936133" lon="14.952557150106522"><ele>510.8</ele><time>2026-04-29T07:19:03.999Z</time></trkpt><trkpt lat="38.066167856576584" lon="14.952425096244696"><ele>510.6</ele><time>2026-04-29T07:19:04.999Z</time></trkpt><trkpt lat="38.066111544110186" lon="14.95231467571192"><ele>510.4</ele><time>2026-04-29T07:19:05.999Z</time></trkpt><trkpt lat="38.06606912775634" lon="14.952229604849895"><ele>510.2</ele><time>2026-04-29T07:19:06.999Z</time></trkpt><trkpt lat="38.06603341812098" lon="14.952153749611654"><ele>510.0</ele><time>2026-04-29T07:19:07.999Z</time></trkpt><trkpt lat="38.06594585071359" lon="14.951999073924878"><ele>510.0</ele><time>2026-04-29T07:19:09.999Z</time></trkpt><trkpt lat="38.06587211030813" lon="14.951899426738839"><ele>510.0</ele><time>2026-04-29T07:19:10.999Z</time></trkpt><trkpt lat="38.0657902652378" lon="14.951817637588178"><ele>510.0</ele><time>2026-04-29T07:19:11.999Z</time></trkpt><trkpt lat="38.065687814594" lon="14.951772268632732"><ele>510.0</ele><time>2026-04-29T07:19:12.999Z</time></trkpt><trkpt lat="38.065573095665926" lon="14.951759928293567"><ele>510.0</ele><time>2026-04-29T07:19:13.999Z</time></trkpt><trkpt lat="38.065461518161364" lon="14.951755943193612"><ele>508.75</ele><time>2026-04-29T07:19:14.999Z</time></trkpt><trkpt lat="38.06535023946992" lon="14.951722784422824"><ele>507.5</ele><time>2026-04-29T07:19:15.999Z</time></trkpt><trkpt lat="38.06525180267793" lon="14.95167267928567"><ele>506.25</ele><time>2026-04-29T07:19:16.999Z</time></trkpt><trkpt lat="38.065138877635555" lon="14.951598032713344"><ele>505.0</ele><time>2026-04-29T07:19:17.999Z</time></trkpt><trkpt lat="38.06502900697151" lon="14.951529906639593"><ele>505.0</ele><time>2026-04-29T07:19:18.999Z</time></trkpt><trkpt lat="38.06494828200046" lon="14.951476618967488"><ele>505.0</ele><time>2026-04-29T07:19:19.999Z</time></trkpt><trkpt lat="38.06489566066735" lon="14.951427038994453"><ele>505.0</ele><time>2026-04-29T07:19:20.999Z</time></trkpt><trkpt lat="38.064813688843216" lon="14.951280351257012"><ele>505.0</ele><time>2026-04-29T07:19:22.999Z</time></trkpt><trkpt lat="38.06481426534761" lon="14.951119510864155"><ele>505.0</ele><time>2026-04-29T07:19:23.999Z</time></trkpt><trkpt lat="38.0647763916107" lon="14.950981831542762"><ele>501.8</ele><time>2026-04-29T07:19:24.999Z</time></trkpt><trkpt lat="38.06473111130202" lon="14.950865115780953"><ele>498.6</ele><time>2026-04-29T07:19:25.999Z</time></trkpt><trkpt lat="38.06470296651091" lon="14.950769211675436"><ele>495.4</ele><time>2026-04-29T07:19:26.999Z</time></trkpt><trkpt lat="38.064648860074634" lon="14.950638720503239"><ele>492.2</ele><time>2026-04-29T07:19:28.999Z</time></trkpt><trkpt lat="38.06457189679936" lon="14.950602005406628"><ele>489.0</ele><time>2026-04-29T07:19:29.999Z</time></trkpt><trkpt lat="38.064480018935015" lon="14.950580919813051"><ele>489.0</ele><time>2026-04-29T07:19:30.999Z</time></trkpt><trkpt lat="38.06438347395997" lon="14.950596788112009"><ele>489.0</ele><time>2026-04-29T07:19:31.999Z</time></trkpt><trkpt lat="38.064306561052184" lon="14.950597876883714"><ele>489.0</ele><time>2026-04-29T07:19:32.999Z</time></trkpt><trkpt lat="38.06423968359731" lon="14.950576942844853"><ele>489.0</ele><time>2026-04-29T07:19:33.999Z</time></trkpt><trkpt lat="38.064190239824214" lon="14.950518666490694"><ele>489.0</ele><time>2026-04-29T07:19:34.999Z</time></trkpt><trkpt lat="38.06413868787408" lon="14.950442335482595"><ele>489.0</ele><time>2026-04-29T07:19:35.999Z</time></trkpt><trkpt lat="38.06410817180542" lon="14.950315036310995"><ele>483.25</ele><time>2026-04-29T07:19:36.999Z</time></trkpt><trkpt lat="38.06408356804731" lon="14.950165879381172"><ele>477.5</ele><time>2026-04-29T07:19:37.999Z</time></trkpt><trkpt lat="38.06406367540215" lon="14.95000773179172"><ele>471.75</ele><time>2026-04-29T07:19:38.999Z</time></trkpt><trkpt lat="38.06404224525472" lon="14.949855682444515"><ele>466.0</ele><time>2026-04-29T07:19:39.999Z</time></trkpt><trkpt lat="38.06401865571789" lon="14.949710097597052"><ele>466.0</ele><time>2026-04-29T07:19:40.999Z</time></trkpt><trkpt lat="38.06400167788068" lon="14.949563157440267"><ele>466.0</ele><time>2026-04-29T07:19:41.999Z</time></trkpt><trkpt lat="38.06402206111963" lon="14.949412015805231"><ele>466.0</ele><time>2026-04-29T07:19:42.999Z</time></trkpt><trkpt lat="38.0640342802437" lon="14.949248020394357"><ele>466.0</ele><time>2026-04-29T07:19:43.999Z</time></trkpt><trkpt lat="38.06402644426184" lon="14.949074728410324"><ele>466.0</ele><time>2026-04-29T07:19:44.999Z</time></trkpt><trkpt lat="38.06403116102496" lon="14.948910267107275"><ele>466.0</ele><time>2026-04-29T07:19:45.999Z</time></trkpt><trkpt lat="38.06402567447554" lon="14.948760902839615"><ele>466.0</ele><time>2026-04-29T07:19:46.999Z</time></trkpt><trkpt lat="38.064015176592115" lon="14.948619372635617"><ele>466.0</ele><time>2026-04-29T07:19:47.999Z</time></trkpt><trkpt lat="38.0640119813656" lon="14.948494179439345"><ele>466.0</ele><time>2026-04-29T07:19:48.999Z</time></trkpt><trkpt lat="38.06402042121906" lon="14.948383266129333"><ele>466.0</ele><time>2026-04-29T07:19:49.999Z</time></trkpt><trkpt lat="38.06404390071054" lon="14.948294763374461"><ele>466.0</ele><time>2026-04-29T07:19:50.999Z</time></trkpt><trkpt lat="38.06409518154856" lon="14.948217666725368"><ele>466.0</ele><time>2026-04-29T07:19:51.999Z</time></trkpt><trkpt lat="38.06417945970481" lon="14.94813734446595"><ele>466.0</ele><time>2026-04-29T07:19:52.999Z</time></trkpt><trkpt lat="38.06427714175966" lon="14.948063504640965"><ele>473.25</ele><time>2026-04-29T07:19:54Z</time></trkpt><trkpt lat="38.06437972763942" lon="14.947998153597627"><ele>480.5</ele><time>2026-04-29T07:19:55Z</time></trkpt><trkpt lat="38.06447646627263" lon="14.947917870281318"><ele>487.75</ele><time>2026-04-29T07:19:56Z</time></trkpt><trkpt lat="38.064567393194615" lon="14.947806723113489"><ele>495.0</ele><time>2026-04-29T07:19:57Z</time></trkpt><trkpt lat="38.06464086045983" lon="14.947667011047699"><ele>494.2</ele><time>2026-04-29T07:19:58Z</time></trkpt><trkpt lat="38.064707253931275" lon="14.947537442469779"><ele>493.4</ele><time>2026-04-29T07:19:59Z</time></trkpt><trkpt lat="38.06477192806783" lon="14.94742802372613"><ele>492.6</ele><time>2026-04-29T07:20:00Z</time></trkpt><trkpt lat="38.06481438548021" lon="14.947336807794061"><ele>491.8</ele><time>2026-04-29T07:20:01Z</time></trkpt><trkpt lat="38.06483808567194" lon="14.94719291419913"><ele>491.0</ele><time>2026-04-29T07:20:03Z</time></trkpt><trkpt lat="38.06480386017058" lon="14.947115974850007"><ele>491.0</ele><time>2026-04-29T07:20:04Z</time></trkpt><trkpt lat="38.06473657212408" lon="14.947069757134196"><ele>491.0</ele><time>2026-04-29T07:20:05Z</time></trkpt><trkpt lat="38.06462920799922" lon="14.947152070273846"><ele>491.0</ele><time>2026-04-29T07:20:06Z</time></trkpt><trkpt lat="38.06454250217923" lon="14.947211280422055"><ele>491.0</ele><time>2026-04-29T07:20:07Z</time></trkpt><trkpt lat="38.06443184534485" lon="14.947234203529954"><ele>491.0</ele><time>2026-04-29T07:20:08Z</time></trkpt><trkpt lat="38.064300153426316" lon="14.947265450463044"><ele>491.0</ele><time>2026-04-29T07:20:09Z</time></trkpt><trkpt lat="38.064174395728095" lon="14.94729582481807"><ele>491.0</ele><time>2026-04-29T07:20:10Z</time></trkpt><trkpt lat="38.06407097242844" lon="14.947318175627048"><ele>491.0</ele><time>2026-04-29T07:20:11Z</time></trkpt><trkpt lat="38.063981304216476" lon="14.947340785735042"><ele>491.0</ele><time>2026-04-29T07:20:12Z</time></trkpt><trkpt lat="38.06388850077438" lon="14.947267602154186"><ele>491.0</ele><time>2026-04-29T07:20:13Z</time></trkpt><trkpt lat="38.063770306461954" lon="14.947196484500965"><ele>487.5</ele><time>2026-04-29T07:20:14Z</time></trkpt><trkpt lat="38.063633024507155" lon="14.9471364073901"><ele>484.0</ele><time>2026-04-29T07:20:15Z</time></trkpt><trkpt lat="38.063496690016656" lon="14.947115467883958"><ele>480.5</ele><time>2026-04-29T07:20:16Z</time></trkpt><trkpt lat="38.06338607893991" lon="14.94710162126491"><ele>477.0</ele><time>2026-04-29T07:20:17Z</time></trkpt><trkpt lat="38.06329841395277" lon="14.947086759164344"><ele>477.0</ele><time>2026-04-29T07:20:18Z</time></trkpt><trkpt lat="38.063228885361774" lon="14.947044835744846"><ele>477.00000000000006</ele><time>2026-04-29T07:20:19Z</time></trkpt><trkpt lat="38.063159594600634" lon="14.946983472727021"><ele>477.00000000000006</ele><time>2026-04-29T07:20:20Z</time></trkpt><trkpt lat="38.06309901956185" lon="14.946872332451717"><ele>477.0</ele><time>2026-04-29T07:20:21Z</time></trkpt><trkpt lat="38.06306377581263" lon="14.946720344043351"><ele>477.0</ele><time>2026-04-29T07:20:21.999Z</time></trkpt><trkpt lat="38.06299490810845" lon="14.946586924721013"><ele>477.0</ele><time>2026-04-29T07:20:22.999Z</time></trkpt><trkpt lat="38.06293663757143" lon="14.946454465064253"><ele>477.0</ele><time>2026-04-29T07:20:23.999Z</time></trkpt><trkpt lat="38.0628889917398" lon="14.946322337915552"><ele>477.0</ele><time>2026-04-29T07:20:24.999Z</time></trkpt><trkpt lat="38.062821047413806" lon="14.946187624217302"><ele>477.0</ele><time>2026-04-29T07:20:25.999Z</time></trkpt><trkpt lat="38.06274450442452" lon="14.946072242052159"><ele>477.0</ele><time>2026-04-29T07:20:26.999Z</time></trkpt><trkpt lat="38.06268033324349" lon="14.945948468008355"><ele>477.0</ele><time>2026-04-29T07:20:27.999Z</time></trkpt><trkpt lat="38.062617283243966" lon="14.945824761589353"><ele>477.0</ele><time>2026-04-29T07:20:28.999Z</time></trkpt><trkpt lat="38.062549386180834" lon="14.945707856517776"><ele>477.0</ele><time>2026-04-29T07:20:29.999Z</time></trkpt><trkpt lat="38.062482472147" lon="14.945592923112931"><ele>483.8</ele><time>2026-04-29T07:20:30.999Z</time></trkpt><trkpt lat="38.062409257488845" lon="14.945488613084358"><ele>490.6</ele><time>2026-04-29T07:20:31.999Z</time></trkpt><trkpt lat="38.06234736261292" lon="14.94541709963868"><ele>497.40000000000003</ele><time>2026-04-29T07:20:32.999Z</time></trkpt><trkpt lat="38.062259110208466" lon="14.945335426533381"><ele>504.20000000000005</ele><time>2026-04-29T07:20:34.999Z</time></trkpt><trkpt lat="38.06218339433479" lon="14.945353888738198"><ele>511.0</ele><time>2026-04-29T07:20:35.999Z</time></trkpt><trkpt lat="38.062128576563" lon="14.945409782011836"><ele>511.0</ele><time>2026-04-29T07:20:36.999Z</time></trkpt><trkpt lat="38.06209456910762" lon="14.94550392407527"><ele>511.0</ele><time>2026-04-29T07:20:37.999Z</time></trkpt><trkpt lat="38.062096622017116" lon="14.945628174307489"><ele>511.0</ele><time>2026-04-29T07:20:38.999Z</time></trkpt><trkpt lat="38.062098040843615" lon="14.945766836199326"><ele>511.0</ele><time>2026-04-29T07:20:39.999Z</time></trkpt><trkpt lat="38.062078752252646" lon="14.945968270673639"><ele>511.0</ele><time>2026-04-29T07:20:40.999Z</time></trkpt><trkpt lat="38.06207290404452" lon="14.946157178310079"><ele>510.5</ele><time>2026-04-29T07:20:41.999Z</time></trkpt><trkpt lat="38.06206709319373" lon="14.946344879267464"><ele>510.0</ele><time>2026-04-29T07:20:42.999Z</time></trkpt><trkpt lat="38.06206061695532" lon="14.946523334136353"><ele>509.5</ele><time>2026-04-29T07:20:43.999Z</time></trkpt><trkpt lat="38.06205277738415" lon="14.94668668082505"><ele>509.0</ele><time>2026-04-29T07:20:44.999Z</time></trkpt><trkpt lat="38.062025971083436" lon="14.946840565264035"><ele>508.0</ele><time>2026-04-29T07:20:45.999Z</time></trkpt><trkpt lat="38.06195850534253" lon="14.946985236134807"><ele>507.0</ele><time>2026-04-29T07:20:46.999Z</time></trkpt><trkpt lat="38.06190106097087" lon="14.947151310623667"><ele>506.0</ele><time>2026-04-29T07:20:47.999Z</time></trkpt><trkpt lat="38.06187265266185" lon="14.947340732672387"><ele>505.0</ele><time>2026-04-29T07:20:48.999Z</time></trkpt><trkpt lat="38.06190178122166" lon="14.947549171465429"><ele>503.25</ele><time>2026-04-29T07:20:49.999Z</time></trkpt><trkpt lat="38.061887674807565" lon="14.947741149190797"><ele>501.5</ele><time>2026-04-29T07:20:50.999Z</time></trkpt><trkpt lat="38.06188336424793" lon="14.94790437324559"><ele>499.75</ele><time>2026-04-29T07:20:51.999Z</time></trkpt><trkpt lat="38.06185888884844" lon="14.948027221678867"><ele>498.0</ele><time>2026-04-29T07:20:52.999Z</time></trkpt><trkpt lat="38.061792077286746" lon="14.94814058694265"><ele>498.0</ele><time>2026-04-29T07:20:53.999Z</time></trkpt><trkpt lat="38.061701919676935" lon="14.948279491941614"><ele>498.0</ele><time>2026-04-29T07:20:54.999Z</time></trkpt><trkpt lat="38.06161471799669" lon="14.948424766471177"><ele>498.0</ele><time>2026-04-29T07:20:55.999Z</time></trkpt><trkpt lat="38.061533337582844" lon="14.948543618556162"><ele>498.0</ele><time>2026-04-29T07:20:56.999Z</time></trkpt><trkpt lat="38.06143699849896" lon="14.948668037871"><ele>504.66666666666663</ele><time>2026-04-29T07:20:57.999Z</time></trkpt><trkpt lat="38.06132199280651" lon="14.948781353947508"><ele>511.3333333333333</ele><time>2026-04-29T07:20:58.999Z</time></trkpt><trkpt lat="38.061192477676485" lon="14.948899926149807"><ele>518.0</ele><time>2026-04-29T07:20:59.999Z</time></trkpt><trkpt lat="38.061076723129126" lon="14.949053830687781"><ele>513.6666666666666</ele><time>2026-04-29T07:21:00.999Z</time></trkpt><trkpt lat="38.06097715039837" lon="14.94922492379375"><ele>509.33333333333337</ele><time>2026-04-29T07:21:01.999Z</time></trkpt><trkpt lat="38.060878374759895" lon="14.949384484464126"><ele>505.0</ele><time>2026-04-29T07:21:02.999Z</time></trkpt><trkpt lat="38.06077700568159" lon="14.949532335400756"><ele>517.6666666666667</ele><time>2026-04-29T07:21:03.999Z</time></trkpt><trkpt lat="38.06066793935781" lon="14.949687065216931"><ele>530.3333333333334</ele><time>2026-04-29T07:21:04.999Z</time></trkpt><trkpt lat="38.0605590411237" lon="14.949834574133334"><ele>543.0</ele><time>2026-04-29T07:21:05.999Z</time></trkpt><trkpt lat="38.06044971879322" lon="14.949980053734505"><ele>539.6666666666666</ele><time>2026-04-29T07:21:06.999Z</time></trkpt><trkpt lat="38.06033828766616" lon="14.950128339575617"><ele>536.3333333333333</ele><time>2026-04-29T07:21:07.999Z</time></trkpt><trkpt lat="38.06023212856781" lon="14.950271976694928"><ele>533.0</ele><time>2026-04-29T07:21:08.999Z</time></trkpt><trkpt lat="38.060144575869295" lon="14.950424618654788"><ele>533.0</ele><time>2026-04-29T07:21:09.999Z</time></trkpt><trkpt lat="38.06007520356409" lon="14.95058124751719"><ele>533.0</ele><time>2026-04-29T07:21:10.999Z</time></trkpt><trkpt lat="38.060019239643616" lon="14.950726351331976"><ele>533.0</ele><time>2026-04-29T07:21:11.999Z</time></trkpt><trkpt lat="38.05997361255661" lon="14.95084435102294"><ele>533.0</ele><time>2026-04-29T07:21:12.999Z</time></trkpt><trkpt lat="38.059931845619616" lon="14.950942741093616"><ele>531.5</ele><time>2026-04-29T07:21:13.999Z</time></trkpt><trkpt lat="38.059889371548245" lon="14.951021480934587"><ele>530.0</ele><time>2026-04-29T07:21:14.999Z</time></trkpt><trkpt lat="38.059846953811" lon="14.951083312527832"><ele>528.5</ele><time>2026-04-29T07:21:15.999Z</time></trkpt><trkpt lat="38.05983272636153" lon="14.951230954239556"><ele>527.0</ele><time>2026-04-29T07:21:18.999Z</time></trkpt><trkpt lat="38.05986031381182" lon="14.951309873872738"><ele>525.5</ele><time>2026-04-29T07:21:19.999Z</time></trkpt><trkpt lat="38.0598890815703" lon="14.951392170395104"><ele>524.0</ele><time>2026-04-29T07:21:20.999Z</time></trkpt><trkpt lat="38.059922203326586" lon="14.951477695878339"><ele>523.7142857142858</ele><time>2026-04-29T07:21:21.999Z</time></trkpt><trkpt lat="38.059958404633605" lon="14.951572243171787"><ele>523.4285714285714</ele><time>2026-04-29T07:21:22.999Z</time></trkpt><trkpt lat="38.05998956958586" lon="14.951667996425568"><ele>523.1428571428571</ele><time>2026-04-29T07:21:23.999Z</time></trkpt><trkpt lat="38.06001498956194" lon="14.951755133776041"><ele>522.8571428571429</ele><time>2026-04-29T07:21:24.999Z</time></trkpt><trkpt lat="38.06003398592586" lon="14.951835648862975"><ele>522.5714285714286</ele><time>2026-04-29T07:21:25.999Z</time></trkpt><trkpt lat="38.06004719893047" lon="14.95191834273154"><ele>522.2857142857143</ele><time>2026-04-29T07:21:26.999Z</time></trkpt><trkpt lat="38.06006971292174" lon="14.951994372432297"><ele>522.0</ele><time>2026-04-29T07:21:27.999Z</time></trkpt><trkpt lat="38.060075131564716" lon="14.95209125879696"><ele>522.0</ele><time>2026-04-29T07:21:28.999Z</time></trkpt><trkpt lat="38.0600747791583" lon="14.952199174742793"><ele>522.0</ele><time>2026-04-29T07:21:29.999Z</time></trkpt><trkpt lat="38.06003550559986" lon="14.952300472716779"><ele>522.0</ele><time>2026-04-29T07:21:30.999Z</time></trkpt><trkpt lat="38.06001750613827" lon="14.952418139800395"><ele>522.0</ele><time>2026-04-29T07:21:31.999Z</time></trkpt><trkpt lat="38.0600129039384" lon="14.952530419120492"><ele>522.0</ele><time>2026-04-29T07:21:32.999Z</time></trkpt><trkpt lat="38.06001420514909" lon="14.952648849505124"><ele>521.0</ele><time>2026-04-29T07:21:33.999Z</time></trkpt><trkpt lat="38.06001648186111" lon="14.952766379780718"><ele>520.0</ele><time>2026-04-29T07:21:34.999Z</time></trkpt><trkpt lat="38.06001862074852" lon="14.952876794644391"><ele>519.0</ele><time>2026-04-29T07:21:35.999Z</time></trkpt><trkpt lat="38.06001883283186" lon="14.952985479798052"><ele>518.0</ele><time>2026-04-29T07:21:36.999Z</time></trkpt><trkpt lat="38.060017472157455" lon="14.953105598772549"><ele>517.0</ele><time>2026-04-29T07:21:37.999Z</time></trkpt><trkpt lat="38.06001618313558" lon="14.953219392414127"><ele>516.0</ele><time>2026-04-29T07:21:38.999Z</time></trkpt><trkpt lat="38.060016357560876" lon="14.953330561711132"><ele>514.8333333333334</ele><time>2026-04-29T07:21:39.999Z</time></trkpt><trkpt lat="38.06002720195162" lon="14.953435397541027"><ele>513.6666666666666</ele><time>2026-04-29T07:21:40.999Z</time></trkpt><trkpt lat="38.06005460964615" lon="14.953536311257306"><ele>512.5</ele><time>2026-04-29T07:21:41.999Z</time></trkpt><trkpt lat="38.06008690978262" lon="14.9536373995643"><ele>511.3333333333333</ele><time>2026-04-29T07:21:42.999Z</time></trkpt><trkpt lat="38.06013691480628" lon="14.953728291977773"><ele>510.16666666666663</ele><time>2026-04-29T07:21:43.999Z</time></trkpt><trkpt lat="38.06017045925763" lon="14.953825122069809"><ele>509.0</ele><time>2026-04-29T07:21:44.999Z</time></trkpt><trkpt lat="38.060213673630656" lon="14.953919017499338"><ele>509.0</ele><time>2026-04-29T07:21:45.999Z</time></trkpt><trkpt lat="38.06024301929473" lon="14.954031027789853"><ele>509.0</ele><time>2026-04-29T07:21:46.999Z</time></trkpt><trkpt lat="38.06028528573991" lon="14.954132279855598"><ele>509.0</ele><time>2026-04-29T07:21:47.999Z</time></trkpt><trkpt lat="38.06031881651018" lon="14.954212605575426"><ele>509.0</ele><time>2026-04-29T07:21:48.999Z</time></trkpt><trkpt lat="38.06036023469" lon="14.954340235672149"><ele>509.0</ele><time>2026-04-29T07:21:50.999Z</time></trkpt><trkpt lat="38.06037394655384" lon="14.95446869249748"><ele>506.8333333333333</ele><time>2026-04-29T07:21:52.999Z</time></trkpt><trkpt lat="38.0603541487657" lon="14.954547753723883"><ele>504.66666666666663</ele><time>2026-04-29T07:21:54.999Z</time></trkpt><trkpt lat="38.06023283237011" lon="14.954532600983578"><ele>502.5</ele><time>2026-04-29T07:21:56.999Z</time></trkpt><trkpt lat="38.060169158084435" lon="14.954555951927206"><ele>500.33333333333337</ele><time>2026-04-29T07:21:57.999Z</time></trkpt><trkpt lat="38.06009938613385" lon="14.954554340117905"><ele>498.1666666666667</ele><time>2026-04-29T07:21:59Z</time></trkpt><trkpt lat="38.060035281228494" lon="14.95456951619446"><ele>496.0</ele><time>2026-04-29T07:22:00Z</time></trkpt><trkpt lat="38.05994324831032" lon="14.954615948416144"><ele>491.4</ele><time>2026-04-29T07:22:02Z</time></trkpt><trkpt lat="38.05986301392357" lon="14.954666992634463"><ele>486.8</ele><time>2026-04-29T07:22:05Z</time></trkpt><trkpt lat="38.05978159818817" lon="14.954668480069877"><ele>482.19999999999993</ele><time>2026-04-29T07:22:08Z</time></trkpt><trkpt lat="38.05969255939341" lon="14.954748374403785"><ele>477.59999999999997</ele><time>2026-04-29T07:22:10Z</time></trkpt><trkpt lat="38.05960721338911" lon="14.954808599051443"><ele>473.0</ele><time>2026-04-29T07:22:12Z</time></trkpt><trkpt lat="38.059525736206055" lon="14.954854574771575"><ele>473.0</ele><time>2026-04-29T07:22:14Z</time></trkpt><trkpt lat="38.05946292717441" lon="14.954882945746801"><ele>473.0</ele><time>2026-04-29T07:22:16Z</time></trkpt><trkpt lat="38.05940661097129" lon="14.954920740230662"><ele>473.0</ele><time>2026-04-29T07:22:18Z</time></trkpt><trkpt lat="38.059360110155104" lon="14.954846179305786"><ele>473.0</ele><time>2026-04-29T07:22:20Z</time></trkpt><trkpt lat="38.05931095935782" lon="14.954735935886411"><ele>473.0</ele><time>2026-04-29T07:22:22Z</time></trkpt><trkpt lat="38.05925507466878" lon="14.954693195835215"><ele>473.0</ele><time>2026-04-29T07:22:23Z</time></trkpt><trkpt lat="38.05920682691503" lon="14.95462645240333"><ele>473.0</ele><time>2026-04-29T07:22:24Z</time></trkpt><trkpt lat="38.05913464518767" lon="14.954569790053913"><ele>469.16666666666663</ele><time>2026-04-29T07:22:24.999Z</time></trkpt><trkpt lat="38.05905687550257" lon="14.954511453647159"><ele>465.3333333333333</ele><time>2026-04-29T07:22:25.999Z</time></trkpt><trkpt lat="38.05898618455087" lon="14.954458834268904"><ele>461.5</ele><time>2026-04-29T07:22:26.999Z</time></trkpt><trkpt lat="38.05892352264025" lon="14.95441219135365"><ele>457.66666666666663</ele><time>2026-04-29T07:22:27.999Z</time></trkpt><trkpt lat="38.05885518522675" lon="14.954361323858038"><ele>453.8333333333333</ele><time>2026-04-29T07:22:28.999Z</time></trkpt><trkpt lat="38.05878383788874" lon="14.95430473241581"><ele>450.0</ele><time>2026-04-29T07:22:29.999Z</time></trkpt><trkpt lat="38.058710103443914" lon="14.954245762929185"><ele>450.0</ele><time>2026-04-29T07:22:30.999Z</time></trkpt><trkpt lat="38.05864598229169" lon="14.95419837150369"><ele>450.0</ele><time>2026-04-29T07:22:31.999Z</time></trkpt><trkpt lat="38.058586724910796" lon="14.954161185948465"><ele>450.0</ele><time>2026-04-29T07:22:32.999Z</time></trkpt><trkpt lat="38.05850645014992" lon="14.95412183881443"><ele>450.0</ele><time>2026-04-29T07:22:34.999Z</time></trkpt><trkpt lat="38.058428883104554" lon="14.954112639368288"><ele>450.0</ele><time>2026-04-29T07:22:37.999Z</time></trkpt><trkpt lat="38.05837076279503" lon="14.954161344840463"><ele>450.0</ele><time>2026-04-29T07:22:39.999Z</time></trkpt><trkpt lat="38.05835689447893" lon="14.954321806759548"><ele>450.0</ele><time>2026-04-29T07:22:41.999Z</time></trkpt><trkpt lat="38.05835760443674" lon="14.954402291315649"><ele>450.0</ele><time>2026-04-29T07:22:42.999Z</time></trkpt><trkpt lat="38.05832867911718" lon="14.954538753643751"><ele>450.0</ele><time>2026-04-29T07:22:44.999Z</time></trkpt><trkpt lat="38.05830759413099" lon="14.954615142887778"><ele>450.0</ele><time>2026-04-29T07:22:45.999Z</time></trkpt><trkpt lat="38.05828508310884" lon="14.954693146137432"><ele>450.0</ele><time>2026-04-29T07:22:46.999Z</time></trkpt><trkpt lat="38.05824042962682" lon="14.95482158267782"><ele>450.0</ele><time>2026-04-29T07:22:48.999Z</time></trkpt><trkpt lat="38.0581840458414" lon="14.954945893163888"><ele>451.3333333333333</ele><time>2026-04-29T07:22:50.999Z</time></trkpt><trkpt lat="38.0581458775247" lon="14.955015735584697"><ele>452.66666666666663</ele><time>2026-04-29T07:22:51.999Z</time></trkpt><trkpt lat="38.05805794890104" lon="14.955119988700305"><ele>454.0</ele><time>2026-04-29T07:22:53.999Z</time></trkpt><trkpt lat="38.05800101568022" lon="14.955164086561357"><ele>455.3333333333333</ele><time>2026-04-29T07:22:54.999Z</time></trkpt><trkpt lat="38.05793197072703" lon="14.955180474363058"><ele>456.66666666666663</ele><time>2026-04-29T07:22:55.999Z</time></trkpt><trkpt lat="38.057857931570425" lon="14.955186644117484"><ele>458.0</ele><time>2026-04-29T07:22:56.999Z</time></trkpt><trkpt lat="38.05773928939112" lon="14.955225010793477"><ele>453.59999999999997</ele><time>2026-04-29T07:22:57.999Z</time></trkpt><trkpt lat="38.057662590959644" lon="14.95527741928215"><ele>449.19999999999993</ele><time>2026-04-29T07:22:58.999Z</time></trkpt><trkpt lat="38.05758603429576" lon="14.955329730851899"><ele>444.8</ele><time>2026-04-29T07:22:59.999Z</time></trkpt><trkpt lat="38.05750701104981" lon="14.955383728675034"><ele>440.4</ele><time>2026-04-29T07:23:00.999Z</time></trkpt><trkpt lat="38.057492586829" lon="14.955586549717797"><ele>436.0</ele><time>2026-04-29T07:23:01.999Z</time></trkpt><trkpt lat="38.05742399453928" lon="14.955626920176583"><ele>436.00000000000006</ele><time>2026-04-29T07:23:02.999Z</time></trkpt><trkpt lat="38.05735164235401" lon="14.955678914809099"><ele>436.0</ele><time>2026-04-29T07:23:03.999Z</time></trkpt><trkpt lat="38.05729095299238" lon="14.955739816316381"><ele>436.0</ele><time>2026-04-29T07:23:04.999Z</time></trkpt><trkpt lat="38.057208619019875" lon="14.95575865463632"><ele>436.0</ele><time>2026-04-29T07:23:05.999Z</time></trkpt><trkpt lat="38.0571508536275" lon="14.955813624931091"><ele>436.00000000000006</ele><time>2026-04-29T07:23:06.999Z</time></trkpt><trkpt lat="38.05709821780207" lon="14.955867258894612"><ele>436.0</ele><time>2026-04-29T07:23:07.999Z</time></trkpt><trkpt lat="38.05700809301406" lon="14.955979426759075"><ele>430.0</ele><time>2026-04-29T07:23:09.999Z</time></trkpt><trkpt lat="38.05692751187251" lon="14.956077102108011"><ele>424.0</ele><time>2026-04-29T07:23:11.999Z</time></trkpt><trkpt lat="38.05678261982307" lon="14.956124415898541"><ele>418.0</ele><time>2026-04-29T07:23:13.999Z</time></trkpt><trkpt lat="38.05667967785786" lon="14.95614740177333"><ele>412.0</ele><time>2026-04-29T07:23:14.999Z</time></trkpt><trkpt lat="38.056591949394445" lon="14.956184849492976"><ele>412.0</ele><time>2026-04-29T07:23:15.999Z</time></trkpt><trkpt lat="38.05650830362094" lon="14.956223273700443"><ele>412.0</ele><time>2026-04-29T07:23:16.999Z</time></trkpt><trkpt lat="38.05643637092376" lon="14.956256317337203"><ele>412.0</ele><time>2026-04-29T07:23:17.999Z</time></trkpt><trkpt lat="38.05633114045502" lon="14.956303791390956"><ele>412.0</ele><time>2026-04-29T07:23:19.999Z</time></trkpt><trkpt lat="38.056222453771944" lon="14.95634401871862"><ele>412.0</ele><time>2026-04-29T07:23:21.999Z</time></trkpt><trkpt lat="38.05615885279414" lon="14.956374396974514"><ele>412.00000000000006</ele><time>2026-04-29T07:23:22.999Z</time></trkpt><trkpt lat="38.056099403556495" lon="14.956411207351213"><ele>412.0</ele><time>2026-04-29T07:23:23.999Z</time></trkpt><trkpt lat="38.05600996502171" lon="14.956473849687988"><ele>412.0</ele><time>2026-04-29T07:23:25.999Z</time></trkpt><trkpt lat="38.055931500596664" lon="14.956536042729493"><ele>412.0</ele><time>2026-04-29T07:23:27.999Z</time></trkpt><trkpt lat="38.05581502345426" lon="14.956578776858295"><ele>412.00000000000006</ele><time>2026-04-29T07:23:29.999Z</time></trkpt><trkpt lat="38.05575096767514" lon="14.956587118919364"><ele>412.0</ele><time>2026-04-29T07:23:30.999Z</time></trkpt><trkpt lat="38.05568745734047" lon="14.956596678654307"><ele>412.1428571428571</ele><time>2026-04-29T07:23:31.999Z</time></trkpt><trkpt lat="38.055619103407054" lon="14.956608505881894"><ele>412.2857142857143</ele><time>2026-04-29T07:23:32.999Z</time></trkpt><trkpt lat="38.05554421552251" lon="14.956621463661266"><ele>412.42857142857144</ele><time>2026-04-29T07:23:33.999Z</time></trkpt><trkpt lat="38.05548109044415" lon="14.956633145256818"><ele>412.57142857142856</ele><time>2026-04-29T07:23:34.999Z</time></trkpt><trkpt lat="38.055392009092664" lon="14.956651973066203"><ele>412.7142857142857</ele><time>2026-04-29T07:23:36.999Z</time></trkpt><trkpt lat="38.05531368937674" lon="14.956680654180865"><ele>412.85714285714283</ele><time>2026-04-29T07:23:39.999Z</time></trkpt><trkpt lat="38.05527800807697" lon="14.956750411758453"><ele>413.0</ele><time>2026-04-29T07:23:41.999Z</time></trkpt><trkpt lat="38.055356618284335" lon="14.95681937124526"><ele>408.3333333333333</ele><time>2026-04-29T07:23:43.999Z</time></trkpt><trkpt lat="38.055426591333344" lon="14.956783446172746"><ele>403.66666666666663</ele><time>2026-04-29T07:23:44.999Z</time></trkpt><trkpt lat="38.055510963948876" lon="14.956785788741985"><ele>399.0</ele><time>2026-04-29T07:23:45.999Z</time></trkpt><trkpt lat="38.055597926603326" lon="14.95681647209417"><ele>394.33333333333337</ele><time>2026-04-29T07:23:46.999Z</time></trkpt><trkpt lat="38.05567648167598" lon="14.956843063516544"><ele>389.6666666666667</ele><time>2026-04-29T07:23:47.999Z</time></trkpt><trkpt lat="38.05576342894222" lon="14.956878989817563"><ele>385.0</ele><time>2026-04-29T07:23:48.999Z</time></trkpt><trkpt lat="38.055849264347074" lon="14.956917459909759"><ele>385.00000000000006</ele><time>2026-04-29T07:23:49.999Z</time></trkpt><trkpt lat="38.055934142836435" lon="14.956955501237957"><ele>385.0</ele><time>2026-04-29T07:23:50.999Z</time></trkpt><trkpt lat="38.05601336978821" lon="14.956971207899434"><ele>385.0</ele><time>2026-04-29T07:23:51.999Z</time></trkpt><trkpt lat="38.056094574907505" lon="14.95700595446386"><ele>385.0</ele><time>2026-04-29T07:23:52.999Z</time></trkpt><trkpt lat="38.05617546930259" lon="14.957062041738215"><ele>385.00000000000006</ele><time>2026-04-29T07:23:53.999Z</time></trkpt><trkpt lat="38.056254847230335" lon="14.95709141519509"><ele>385.0</ele><time>2026-04-29T07:23:54.999Z</time></trkpt><trkpt lat="38.05635014463423" lon="14.957064852004452"><ele>385.00000000000006</ele><time>2026-04-29T07:23:55.999Z</time></trkpt><trkpt lat="38.05644432646533" lon="14.957049965371397"><ele>385.0</ele><time>2026-04-29T07:23:56.999Z</time></trkpt><trkpt lat="38.05653661554908" lon="14.957040315040064"><ele>385.0</ele><time>2026-04-29T07:23:57.999Z</time></trkpt><trkpt lat="38.05662097231932" lon="14.957014669076871"><ele>385.0</ele><time>2026-04-29T07:23:58.999Z</time></trkpt><trkpt lat="38.056693568259256" lon="14.9569994032098"><ele>385.00000000000006</ele><time>2026-04-29T07:23:59.999Z</time></trkpt><trkpt lat="38.05675679848089" lon="14.956994582751364"><ele>385.0</ele><time>2026-04-29T07:24:00.999Z</time></trkpt><trkpt lat="38.056888135960996" lon="14.956980636685236"><ele>385.1666666666667</ele><time>2026-04-29T07:24:02.999Z</time></trkpt><trkpt lat="38.05696720386597" lon="14.956985422952455"><ele>385.33333333333337</ele><time>2026-04-29T07:24:03.999Z</time></trkpt><trkpt lat="38.057042113674804" lon="14.956985376313165"><ele>385.5</ele><time>2026-04-29T07:24:05Z</time></trkpt><trkpt lat="38.057111007255884" lon="14.956996740824641"><ele>385.66666666666663</ele><time>2026-04-29T07:24:06Z</time></trkpt><trkpt lat="38.057172364184304" lon="14.956955623397622"><ele>385.8333333333333</ele><time>2026-04-29T07:24:07Z</time></trkpt><trkpt lat="38.05723893966039" lon="14.956913259983668"><ele>386.0</ele><time>2026-04-29T07:24:08Z</time></trkpt><trkpt lat="38.05731721730532" lon="14.956873716295082"><ele>385.99999999999994</ele><time>2026-04-29T07:24:09Z</time></trkpt><trkpt lat="38.05738767889451" lon="14.956837129182002"><ele>386.0</ele><time>2026-04-29T07:24:10Z</time></trkpt><trkpt lat="38.05749044667042" lon="14.956826477751521"><ele>386.0</ele><time>2026-04-29T07:24:12Z</time></trkpt><trkpt lat="38.057549653909" lon="14.956888877643166"><ele>386.0</ele><time>2026-04-29T07:24:14Z</time></trkpt><trkpt lat="38.05757371636569" lon="14.956978946073688"><ele>385.99999999999994</ele><time>2026-04-29T07:24:16Z</time></trkpt><trkpt lat="38.05751495266215" lon="14.957066460188988"><ele>386.0</ele><time>2026-04-29T07:24:17Z</time></trkpt><trkpt lat="38.05749233083748" lon="14.95720243080106"><ele>389.5</ele><time>2026-04-29T07:24:18Z</time></trkpt><trkpt lat="38.057462296571146" lon="14.957378517731254"><ele>393.0</ele><time>2026-04-29T07:24:19Z</time></trkpt><trkpt lat="38.05742834202304" lon="14.957548751048376"><ele>396.5</ele><time>2026-04-29T07:24:20Z</time></trkpt><trkpt lat="38.05741113077713" lon="14.957693692366629"><ele>400.0</ele><time>2026-04-29T07:24:21Z</time></trkpt><trkpt lat="38.0573931183444" lon="14.957850414388899"><ele>392.25</ele><time>2026-04-29T07:24:22Z</time></trkpt><trkpt lat="38.05738908523826" lon="14.958004394649478"><ele>384.5</ele><time>2026-04-29T07:24:23Z</time></trkpt><trkpt lat="38.05736958267685" lon="14.958142424919728"><ele>376.75</ele><time>2026-04-29T07:24:24Z</time></trkpt><trkpt lat="38.05736805604033" lon="14.95828048915128"><ele>369.0</ele><time>2026-04-29T07:24:25Z</time></trkpt><trkpt lat="38.05738516960131" lon="14.958429045223978"><ele>367.0</ele><time>2026-04-29T07:24:26Z</time></trkpt><trkpt lat="38.05742203809396" lon="14.95858642066489"><ele>365.0</ele><time>2026-04-29T07:24:27Z</time></trkpt><trkpt lat="38.05746516094268" lon="14.958729530030508"><ele>363.0</ele><time>2026-04-29T07:24:28Z</time></trkpt><trkpt lat="38.05751085341879" lon="14.958858773425176"><ele>361.0</ele><time>2026-04-29T07:24:29Z</time></trkpt><trkpt lat="38.05756448967617" lon="14.958979372749738"><ele>363.20000000000005</ele><time>2026-04-29T07:24:30Z</time></trkpt><trkpt lat="38.05762547931483" lon="14.959090682154994"><ele>365.40000000000003</ele><time>2026-04-29T07:24:31Z</time></trkpt><trkpt lat="38.057715786226304" lon="14.959207074797755"><ele>367.6</ele><time>2026-04-29T07:24:32Z</time></trkpt><trkpt lat="38.05778780285934" lon="14.95932950982645"><ele>369.8</ele><time>2026-04-29T07:24:33Z</time></trkpt><trkpt lat="38.05783901862844" lon="14.959421140286906"><ele>372.0</ele><time>2026-04-29T07:24:34Z</time></trkpt><trkpt lat="38.05784292206892" lon="14.959582537341113"><ele>372.0</ele><time>2026-04-29T07:24:35.999Z</time></trkpt><trkpt lat="38.05785000882158" lon="14.959712077385527"><ele>372.0</ele><time>2026-04-29T07:24:36.999Z</time></trkpt><trkpt lat="38.05787405094906" lon="14.959813289937399"><ele>372.0</ele><time>2026-04-29T07:24:37.999Z</time></trkpt><trkpt lat="38.05791134334968" lon="14.959890113973882"><ele>372.0</ele><time>2026-04-29T07:24:38.999Z</time></trkpt><trkpt lat="38.057962078018036" lon="14.959967479635225"><ele>372.0</ele><time>2026-04-29T07:24:39.999Z</time></trkpt><trkpt lat="38.058029014492114" lon="14.960021608569596"><ele>372.0</ele><time>2026-04-29T07:24:40.999Z</time></trkpt><trkpt lat="38.05806135026434" lon="14.960090362856034"><ele>371.3333333333333</ele><time>2026-04-29T07:24:41.999Z</time></trkpt><trkpt lat="38.058060397698306" lon="14.960182333252629"><ele>370.6666666666667</ele><time>2026-04-29T07:24:43.999Z</time></trkpt><trkpt lat="38.05800881764526" lon="14.96023999681561"><ele>370.0</ele><time>2026-04-29T07:24:44.999Z</time></trkpt><trkpt lat="38.0579678023095" lon="14.960370779950821"><ele>369.33333333333337</ele><time>2026-04-29T07:24:45.999Z</time></trkpt><trkpt lat="38.057930948616175" lon="14.960490516768948"><ele>368.6666666666667</ele><time>2026-04-29T07:24:46.999Z</time></trkpt><trkpt lat="38.05791298067622" lon="14.960574234239898"><ele>368.0</ele><time>2026-04-29T07:24:47.999Z</time></trkpt><trkpt lat="38.05795872154767" lon="14.960717953073079"><ele>368.0</ele><time>2026-04-29T07:24:49.999Z</time></trkpt><trkpt lat="38.05805625090399" lon="14.960761473591772"><ele>368.0</ele><time>2026-04-29T07:24:50.999Z</time></trkpt><trkpt lat="38.058156697572585" lon="14.960826573292994"><ele>368.0</ele><time>2026-04-29T07:24:51.999Z</time></trkpt><trkpt lat="38.058216789774136" lon="14.96092116746844"><ele>368.0</ele><time>2026-04-29T07:24:52.999Z</time></trkpt><trkpt lat="38.05824184721854" lon="14.96099904446345"><ele>368.0</ele><time>2026-04-29T07:24:53.999Z</time></trkpt><trkpt lat="38.05824066848768" lon="14.961094267308752"><ele>366.2</ele><time>2026-04-29T07:24:54.999Z</time></trkpt><trkpt lat="38.058250243514074" lon="14.961239253874528"><ele>364.4</ele><time>2026-04-29T07:24:55.999Z</time></trkpt><trkpt lat="38.05824705266313" lon="14.961376725636738"><ele>362.59999999999997</ele><time>2026-04-29T07:24:56.999Z</time></trkpt><trkpt lat="38.058243685226195" lon="14.96150652303276"><ele>360.79999999999995</ele><time>2026-04-29T07:24:57.999Z</time></trkpt><trkpt lat="38.058248593637785" lon="14.961637865262462"><ele>359.0</ele><time>2026-04-29T07:24:58.999Z</time></trkpt><trkpt lat="38.05828180831802" lon="14.961779134072783"><ele>362.0</ele><time>2026-04-29T07:24:59.999Z</time></trkpt><trkpt lat="38.05831862964454" lon="14.961919335728204"><ele>365.0</ele><time>2026-04-29T07:25:00.999Z</time></trkpt><trkpt lat="38.058347977797006" lon="14.962051507201647"><ele>368.0</ele><time>2026-04-29T07:25:01.999Z</time></trkpt><trkpt lat="38.058375457023544" lon="14.962175879005857"><ele>371.0</ele><time>2026-04-29T07:25:02.999Z</time></trkpt><trkpt lat="38.058394995322125" lon="14.96229523132656"><ele>374.0</ele><time>2026-04-29T07:25:03.999Z</time></trkpt><trkpt lat="38.058403577889834" lon="14.962378741849179"><ele>374.0</ele><time>2026-04-29T07:25:04.999Z</time></trkpt><trkpt lat="38.05839505608644" lon="14.962481747254792"><ele>374.0</ele><time>2026-04-29T07:25:07.999Z</time></trkpt><trkpt lat="38.058335200226445" lon="14.962447656115087"><ele>374.0</ele><time>2026-04-29T07:25:08.999Z</time></trkpt><trkpt lat="38.05824948752501" lon="14.96240483266442"><ele>374.0</ele><time>2026-04-29T07:25:09.999Z</time></trkpt><trkpt lat="38.05811716476302" lon="14.962370576160122"><ele>374.0</ele><time>2026-04-29T07:25:10.999Z</time></trkpt><trkpt lat="38.05800402801294" lon="14.962328320999477"><ele>369.83333333333337</ele><time>2026-04-29T07:25:11.999Z</time></trkpt><trkpt lat="38.05792856401586" lon="14.962289792335076"><ele>365.6666666666667</ele><time>2026-04-29T07:25:12.999Z</time></trkpt><trkpt lat="38.05784014845657" lon="14.962188300848517"><ele>361.5</ele><time>2026-04-29T07:25:14.999Z</time></trkpt><trkpt lat="38.05782728196724" lon="14.962087437140976"><ele>357.3333333333333</ele><time>2026-04-29T07:25:15.999Z</time></trkpt><trkpt lat="38.05776460212984" lon="14.962005669681329"><ele>353.16666666666663</ele><time>2026-04-29T07:25:16.999Z</time></trkpt><trkpt lat="38.05771476328715" lon="14.961937656808384"><ele>349.0</ele><time>2026-04-29T07:25:18.999Z</time></trkpt><trkpt lat="38.05767481542309" lon="14.961850511948022"><ele>349.0</ele><time>2026-04-29T07:25:21.999Z</time></trkpt><trkpt lat="38.057629500405504" lon="14.961792113195058"><ele>349.0</ele><time>2026-04-29T07:25:24.999Z</time></trkpt><trkpt lat="38.05759718530442" lon="14.961722434567214"><ele>349.0</ele><time>2026-04-29T07:25:26.999Z</time></trkpt><trkpt lat="38.05755515175912" lon="14.961644374079135"><ele>349.0</ele><time>2026-04-29T07:25:28.999Z</time></trkpt><trkpt lat="38.05747241787855" lon="14.961532303560768"><ele>349.0</ele><time>2026-04-29T07:25:30.999Z</time></trkpt><trkpt lat="38.05736997887223" lon="14.961452966944565"><ele>349.0</ele><time>2026-04-29T07:25:32.999Z</time></trkpt><trkpt lat="38.057283468673006" lon="14.961347067065141"><ele>347.5</ele><time>2026-04-29T07:25:34.999Z</time></trkpt><trkpt lat="38.05723800246682" lon="14.961199641211945"><ele>346.0</ele><time>2026-04-29T07:25:36.999Z</time></trkpt><trkpt lat="38.05722804336191" lon="14.961118278869296"><ele>344.5</ele><time>2026-04-29T07:25:37.999Z</time></trkpt><trkpt lat="38.057227416728104" lon="14.961019521812466"><ele>343.0</ele><time>2026-04-29T07:25:38.999Z</time></trkpt><trkpt lat="38.05721916847163" lon="14.960933805340234"><ele>341.5</ele><time>2026-04-29T07:25:39.999Z</time></trkpt><trkpt lat="38.05721397315332" lon="14.960839414951328"><ele>340.0</ele><time>2026-04-29T07:25:40.999Z</time></trkpt><trkpt lat="38.05720984799502" lon="14.960748974052505"><ele>340.0</ele><time>2026-04-29T07:25:41.999Z</time></trkpt><trkpt lat="38.05721031851937" lon="14.960648796893185"><ele>340.0</ele><time>2026-04-29T07:25:42.999Z</time></trkpt><trkpt lat="38.057191101386465" lon="14.96055711545125"><ele>340.0</ele><time>2026-04-29T07:25:43.999Z</time></trkpt><trkpt lat="38.0571631296551" lon="14.96047114059556"><ele>340.0</ele><time>2026-04-29T07:25:44.999Z</time></trkpt><trkpt lat="38.057126992851956" lon="14.960397939355099"><ele>340.0</ele><time>2026-04-29T07:25:45.999Z</time></trkpt><trkpt lat="38.05710664993454" lon="14.960306494412839"><ele>340.0</ele><time>2026-04-29T07:25:46.999Z</time></trkpt><trkpt lat="38.05707203654201" lon="14.960234905606805"><ele>340.0</ele><time>2026-04-29T07:25:47.999Z</time></trkpt><trkpt lat="38.0570037607607" lon="14.96012480696497"><ele>341.8</ele><time>2026-04-29T07:25:49.999Z</time></trkpt><trkpt lat="38.05698048584302" lon="14.960008497415016"><ele>343.6</ele><time>2026-04-29T07:25:51.999Z</time></trkpt><trkpt lat="38.05704264943154" lon="14.959863952982793"><ele>345.4</ele><time>2026-04-29T07:25:53.999Z</time></trkpt><trkpt lat="38.05705538965532" lon="14.959767849820226"><ele>347.2</ele><time>2026-04-29T07:25:54.999Z</time></trkpt><trkpt lat="38.05704318982988" lon="14.959670616076684"><ele>349.0</ele><time>2026-04-29T07:25:55.999Z</time></trkpt><trkpt lat="38.05699682951507" lon="14.959569425184224"><ele>349.0</ele><time>2026-04-29T07:25:56.999Z</time></trkpt><trkpt lat="38.05695992532309" lon="14.959447318717132"><ele>349.0</ele><time>2026-04-29T07:25:57.999Z</time></trkpt><trkpt lat="38.056913680126925" lon="14.95935540719503"><ele>349.0</ele><time>2026-04-29T07:25:58.999Z</time></trkpt><trkpt lat="38.05685984363676" lon="14.959267550442853"><ele>349.0</ele><time>2026-04-29T07:25:59.999Z</time></trkpt><trkpt lat="38.05680584399407" lon="14.959200948875463"><ele>349.0</ele><time>2026-04-29T07:26:00.999Z</time></trkpt><trkpt lat="38.05673058899871" lon="14.959156775618172"><ele>349.0</ele><time>2026-04-29T07:26:01.999Z</time></trkpt><trkpt lat="38.05667122244462" lon="14.959072870161775"><ele>348.8333333333333</ele><time>2026-04-29T07:26:02.999Z</time></trkpt><trkpt lat="38.05661071115914" lon="14.959006247856134"><ele>348.66666666666663</ele><time>2026-04-29T07:26:03.999Z</time></trkpt><trkpt lat="38.05654907442997" lon="14.958934286849786"><ele>348.5</ele><time>2026-04-29T07:26:04.999Z</time></trkpt><trkpt lat="38.05649165647004" lon="14.958860407086911"><ele>348.3333333333333</ele><time>2026-04-29T07:26:05.999Z</time></trkpt><trkpt lat="38.056443042293346" lon="14.95878601476098"><ele>348.1666666666667</ele><time>2026-04-29T07:26:06.999Z</time></trkpt><trkpt lat="38.056397036566224" lon="14.958706822909592"><ele>348.0</ele><time>2026-04-29T07:26:07.999Z</time></trkpt><trkpt lat="38.05634242688326" lon="14.95863367013757"><ele>348.0</ele><time>2026-04-29T07:26:08.999Z</time></trkpt><trkpt lat="38.05630628368877" lon="14.95854945951208"><ele>348.0</ele><time>2026-04-29T07:26:10Z</time></trkpt><trkpt lat="38.05628888017321" lon="14.958469805538392"><ele>348.0</ele><time>2026-04-29T07:26:11Z</time></trkpt><trkpt lat="38.05617249005419" lon="14.958396301381704"><ele>348.0</ele><time>2026-04-29T07:26:13Z</time></trkpt><trkpt lat="38.056094168661325" lon="14.958399893209654"><ele>348.0</ele><time>2026-04-29T07:26:14Z</time></trkpt><trkpt lat="38.0560134556067" lon="14.95839138520291"><ele>348.0</ele><time>2026-04-29T07:26:15Z</time></trkpt><trkpt lat="38.055927530857794" lon="14.958368381112393"><ele>350.0</ele><time>2026-04-29T07:26:16Z</time></trkpt><trkpt lat="38.055833922374084" lon="14.958346966202559"><ele>352.0</ele><time>2026-04-29T07:26:17Z</time></trkpt><trkpt lat="38.05573702658217" lon="14.958300402517308"><ele>354.0</ele><time>2026-04-29T07:26:18Z</time></trkpt><trkpt lat="38.05564652841584" lon="14.958229940146314"><ele>356.0</ele><time>2026-04-29T07:26:19Z</time></trkpt><trkpt lat="38.05555550103321" lon="14.958178694657102"><ele>358.0</ele><time>2026-04-29T07:26:20Z</time></trkpt><trkpt lat="38.05547104820092" lon="14.958131150439119"><ele>358.0</ele><time>2026-04-29T07:26:21Z</time></trkpt><trkpt lat="38.05538177720798" lon="14.958080159782899"><ele>358.0</ele><time>2026-04-29T07:26:22Z</time></trkpt><trkpt lat="38.05529168337747" lon="14.958027778203766"><ele>358.0</ele><time>2026-04-29T07:26:23Z</time></trkpt><trkpt lat="38.05519520896752" lon="14.957987120479249"><ele>358.0</ele><time>2026-04-29T07:26:24Z</time></trkpt><trkpt lat="38.055082168481825" lon="14.957957053087663"><ele>358.0</ele><time>2026-04-29T07:26:25Z</time></trkpt><trkpt lat="38.05497298480436" lon="14.957935923093093"><ele>356.79999999999995</ele><time>2026-04-29T07:26:26Z</time></trkpt><trkpt lat="38.054866028743575" lon="14.957915243154789"><ele>355.6</ele><time>2026-04-29T07:26:27Z</time></trkpt><trkpt lat="38.05476549486571" lon="14.957897315253259"><ele>354.4</ele><time>2026-04-29T07:26:28Z</time></trkpt><trkpt lat="38.05467738771004" lon="14.957881603405784"><ele>353.20000000000005</ele><time>2026-04-29T07:26:29Z</time></trkpt><trkpt lat="38.054590209954966" lon="14.957864246083812"><ele>352.0</ele><time>2026-04-29T07:26:30Z</time></trkpt><trkpt lat="38.05449356114102" lon="14.957828989729785"><ele>352.0</ele><time>2026-04-29T07:26:31Z</time></trkpt><trkpt lat="38.05440326579165" lon="14.957772368220391"><ele>352.0</ele><time>2026-04-29T07:26:32Z</time></trkpt><trkpt lat="38.05431072890395" lon="14.95770902056017"><ele>352.0</ele><time>2026-04-29T07:26:33Z</time></trkpt><trkpt lat="38.054231719489536" lon="14.957655943928014"><ele>352.0</ele><time>2026-04-29T07:26:34Z</time></trkpt><trkpt lat="38.05413892401956" lon="14.957608157598042"><ele>352.0</ele><time>2026-04-29T07:26:36Z</time></trkpt><trkpt lat="38.05403223062882" lon="14.957719432613626"><ele>352.3333333333333</ele><time>2026-04-29T07:26:38Z</time></trkpt><trkpt lat="38.05404245570488" lon="14.957871645339862"><ele>352.66666666666663</ele><time>2026-04-29T07:26:39Z</time></trkpt><trkpt lat="38.05402423597701" lon="14.957995753927403"><ele>353.0</ele><time>2026-04-29T07:26:39.999Z</time></trkpt><trkpt lat="38.05401084955161" lon="14.958082093419915"><ele>353.3333333333333</ele><time>2026-04-29T07:26:40.999Z</time></trkpt><trkpt lat="38.053950957258486" lon="14.958139823508107"><ele>353.6666666666667</ele><time>2026-04-29T07:26:41.999Z</time></trkpt><trkpt lat="38.05388833937439" lon="14.958207688336318"><ele>354.0</ele><time>2026-04-29T07:26:42.999Z</time></trkpt><trkpt lat="38.05382656223603" lon="14.95827353552343"><ele>354.0</ele><time>2026-04-29T07:26:43.999Z</time></trkpt><trkpt lat="38.053710401754756" lon="14.95834496066701"><ele>354.0</ele><time>2026-04-29T07:26:45.999Z</time></trkpt><trkpt lat="38.05360981624929" lon="14.958382580313813"><ele>354.0</ele><time>2026-04-29T07:26:47.999Z</time></trkpt><trkpt lat="38.053563339408896" lon="14.958446797338564"><ele>354.0</ele><time>2026-04-29T07:26:48.999Z</time></trkpt><trkpt lat="38.05345469346021" lon="14.958442378556299"><ele>354.0</ele><time>2026-04-29T07:26:49.999Z</time></trkpt><trkpt lat="38.053378562604216" lon="14.95848711364452"><ele>354.0</ele><time>2026-04-29T07:26:50.999Z</time></trkpt><trkpt lat="38.05334824364593" lon="14.958585942954143"><ele>354.0</ele><time>2026-04-29T07:26:51.999Z</time></trkpt><trkpt lat="38.05325940205635" lon="14.958642206144981"><ele>354.0</ele><time>2026-04-29T07:26:53.999Z</time></trkpt><trkpt lat="38.053118321494644" lon="14.958620650813565"><ele>354.0</ele><time>2026-04-29T07:26:55.999Z</time></trkpt><trkpt lat="38.05303455923988" lon="14.958610042418309"><ele>354.0</ele><time>2026-04-29T07:26:56.999Z</time></trkpt><trkpt lat="38.05295862811011" lon="14.958584259430163"><ele>354.0</ele><time>2026-04-29T07:26:57.999Z</time></trkpt><trkpt lat="38.05288849575335" lon="14.958561356762624"><ele>354.0</ele><time>2026-04-29T07:26:58.999Z</time></trkpt><trkpt lat="38.05278015711834" lon="14.958542968329155"><ele>354.0</ele><time>2026-04-29T07:27:00.999Z</time></trkpt><trkpt lat="38.05269650204027" lon="14.958652555439095"><ele>354.0</ele><time>2026-04-29T07:27:02.999Z</time></trkpt><trkpt lat="38.05269488106181" lon="14.95877583857984"><ele>354.0</ele><time>2026-04-29T07:27:03.999Z</time></trkpt><trkpt lat="38.05266570168021" lon="14.9589010704109"><ele>354.0</ele><time>2026-04-29T07:27:04.999Z</time></trkpt><trkpt lat="38.05262852303028" lon="14.959029955969955"><ele>354.0</ele><time>2026-04-29T07:27:05.999Z</time></trkpt><trkpt lat="38.052577823466756" lon="14.959164555989902"><ele>354.0</ele><time>2026-04-29T07:27:06.999Z</time></trkpt><trkpt lat="38.05249797075601" lon="14.959272446178174"><ele>354.0</ele><time>2026-04-29T07:27:07.999Z</time></trkpt><trkpt lat="38.05243601015859" lon="14.959332763159244"><ele>354.0</ele><time>2026-04-29T07:27:08.999Z</time></trkpt><trkpt lat="38.052340811514426" lon="14.959441097316748"><ele>354.6</ele><time>2026-04-29T07:27:10.999Z</time></trkpt><trkpt lat="38.05228414661673" lon="14.959525292787536"><ele>355.2</ele><time>2026-04-29T07:27:11.999Z</time></trkpt><trkpt lat="38.0522239137197" lon="14.95961148853908"><ele>355.8</ele><time>2026-04-29T07:27:12.999Z</time></trkpt><trkpt lat="38.052167711538004" lon="14.95971450474189"><ele>356.40000000000003</ele><time>2026-04-29T07:27:13.999Z</time></trkpt><trkpt lat="38.05213317013456" lon="14.959830765577447"><ele>357.0</ele><time>2026-04-29T07:27:14.999Z</time></trkpt><trkpt lat="38.0521141326269" lon="14.95995195590474"><ele>359.20000000000005</ele><time>2026-04-29T07:27:15.999Z</time></trkpt><trkpt lat="38.052105570172714" lon="14.960084659073594"><ele>361.4</ele><time>2026-04-29T07:27:16.999Z</time></trkpt><trkpt lat="38.05209542593185" lon="14.96022840236701"><ele>363.6</ele><time>2026-04-29T07:27:17.999Z</time></trkpt><trkpt lat="38.052093432706144" lon="14.960350668481961"><ele>365.79999999999995</ele><time>2026-04-29T07:27:18.999Z</time></trkpt><trkpt lat="38.05210366239979" lon="14.960481948742656"><ele>368.0</ele><time>2026-04-29T07:27:19.999Z</time></trkpt><trkpt lat="38.052139644480036" lon="14.960600894874617"><ele>368.0</ele><time>2026-04-29T07:27:20.999Z</time></trkpt><trkpt lat="38.052152466710275" lon="14.960732029927726"><ele>368.0</ele><time>2026-04-29T07:27:21.999Z</time></trkpt><trkpt lat="38.052184186282396" lon="14.960837529136148"><ele>368.0</ele><time>2026-04-29T07:27:22.999Z</time></trkpt><trkpt lat="38.05220691297814" lon="14.960934588942859"><ele>368.0</ele><time>2026-04-29T07:27:23.999Z</time></trkpt><trkpt lat="38.05217781955656" lon="14.961039211881623"><ele>368.0</ele><time>2026-04-29T07:27:24.999Z</time></trkpt><trkpt lat="38.05216616009097" lon="14.96117942613028"><ele>370.59999999999997</ele><time>2026-04-29T07:27:25.999Z</time></trkpt><trkpt lat="38.05217337521" lon="14.961292790992587"><ele>373.2</ele><time>2026-04-29T07:27:26.999Z</time></trkpt><trkpt lat="38.052188036862226" lon="14.961402556182895"><ele>375.8</ele><time>2026-04-29T07:27:27.999Z</time></trkpt><trkpt lat="38.05222260476082" lon="14.961530544350765"><ele>378.4</ele><time>2026-04-29T07:27:28.999Z</time></trkpt><trkpt lat="38.05223824354618" lon="14.961657916533236"><ele>381.0</ele><time>2026-04-29T07:27:29.999Z</time></trkpt><trkpt lat="38.05226762895475" lon="14.961769133663447"><ele>383.8</ele><time>2026-04-29T07:27:30.999Z</time></trkpt><trkpt lat="38.05231208410341" lon="14.961889764460718"><ele>386.6</ele><time>2026-04-29T07:27:31.999Z</time></trkpt><trkpt lat="38.0523862953283" lon="14.9619723191997"><ele>389.4</ele><time>2026-04-29T07:27:32.999Z</time></trkpt><trkpt lat="38.05243007753922" lon="14.96205021336677"><ele>392.2</ele><time>2026-04-29T07:27:33.999Z</time></trkpt><trkpt lat="38.05245911832746" lon="14.96217678626352"><ele>395.0</ele><time>2026-04-29T07:27:35.999Z</time></trkpt><trkpt lat="38.05245737100273" lon="14.962263685476469"><ele>395.0</ele><time>2026-04-29T07:27:36.999Z</time></trkpt><trkpt lat="38.05241682933436" lon="14.962376686814512"><ele>395.0</ele><time>2026-04-29T07:27:37.999Z</time></trkpt><trkpt lat="38.052395659816796" lon="14.962507735199981"><ele>395.0</ele><time>2026-04-29T07:27:38.999Z</time></trkpt><trkpt lat="38.052376708603475" lon="14.96263953600873"><ele>395.0</ele><time>2026-04-29T07:27:39.999Z</time></trkpt><trkpt lat="38.05235777097877" lon="14.962773159996752"><ele>395.0</ele><time>2026-04-29T07:27:40.999Z</time></trkpt><trkpt lat="38.05233328938203" lon="14.962894710527177"><ele>397.8</ele><time>2026-04-29T07:27:41.999Z</time></trkpt><trkpt lat="38.0523053414154" lon="14.963011695933364"><ele>400.6</ele><time>2026-04-29T07:27:42.999Z</time></trkpt><trkpt lat="38.05227714066186" lon="14.963124799130703"><ele>403.4</ele><time>2026-04-29T07:27:43.999Z</time></trkpt><trkpt lat="38.05226319894818" lon="14.963245983587456"><ele>406.2</ele><time>2026-04-29T07:27:44.999Z</time></trkpt><trkpt lat="38.052218177893025" lon="14.963358034445013"><ele>409.0</ele><time>2026-04-29T07:27:45.999Z</time></trkpt><trkpt lat="38.05218255964795" lon="14.963468162412541"><ele>411.6666666666667</ele><time>2026-04-29T07:27:46.999Z</time></trkpt><trkpt lat="38.052147507899186" lon="14.963576048191433"><ele>414.33333333333337</ele><time>2026-04-29T07:27:47.999Z</time></trkpt><trkpt lat="38.052109993547205" lon="14.963693472120559"><ele>417.0</ele><time>2026-04-29T07:27:48.999Z</time></trkpt><trkpt lat="38.052078161751886" lon="14.963793109211226"><ele>419.66666666666663</ele><time>2026-04-29T07:27:49.999Z</time></trkpt><trkpt lat="38.05204987270996" lon="14.963885972895035"><ele>422.3333333333333</ele><time>2026-04-29T07:27:50.999Z</time></trkpt><trkpt lat="38.05204161510919" lon="14.963973920683708"><ele>425.0</ele><time>2026-04-29T07:27:51.999Z</time></trkpt><trkpt lat="38.052014367531555" lon="14.964053237246054"><ele>424.99999999999994</ele><time>2026-04-29T07:27:52.999Z</time></trkpt><trkpt lat="38.051978251363906" lon="14.964139001105679"><ele>425.0</ele><time>2026-04-29T07:27:53.999Z</time></trkpt><trkpt lat="38.05191570405835" lon="14.964191398593016"><ele>425.0</ele><time>2026-04-29T07:27:54.999Z</time></trkpt><trkpt lat="38.0518829292869" lon="14.964265171799344"><ele>425.0</ele><time>2026-04-29T07:27:55.999Z</time></trkpt><trkpt lat="38.0518340813687" lon="14.964378305618368"><ele>424.99999999999994</ele><time>2026-04-29T07:27:57.999Z</time></trkpt><trkpt lat="38.05180743387062" lon="14.964453150406115"><ele>425.0</ele><time>2026-04-29T07:27:58.999Z</time></trkpt><trkpt lat="38.051787174492354" lon="14.96454101851675"><ele>427.49999999999994</ele><time>2026-04-29T07:27:59.999Z</time></trkpt><trkpt lat="38.05181961392769" lon="14.964630660108599"><ele>430.0</ele><time>2026-04-29T07:28:00.999Z</time></trkpt><trkpt lat="38.0518844465458" lon="14.964721685209676"><ele>432.5</ele><time>2026-04-29T07:28:02.999Z</time></trkpt><trkpt lat="38.05196892939968" lon="14.964737872069877"><ele>435.0</ele><time>2026-04-29T07:28:04.999Z</time></trkpt><trkpt lat="38.05202844378761" lon="14.964801014155695"><ele>437.49999999999994</ele><time>2026-04-29T07:28:08.999Z</time></trkpt><trkpt lat="38.05204696238157" lon="14.964905595335278"><ele>440.0</ele><time>2026-04-29T07:28:09.999Z</time></trkpt><trkpt lat="38.05203205348617" lon="14.964985532072067"><ele>443.8</ele><time>2026-04-29T07:28:10.999Z</time></trkpt><trkpt lat="38.05205905452898" lon="14.965114188557122"><ele>447.6</ele><time>2026-04-29T07:28:12.999Z</time></trkpt><trkpt lat="38.05207667460225" lon="14.965229534534927"><ele>451.4</ele><time>2026-04-29T07:28:14.999Z</time></trkpt><trkpt lat="38.05208265259752" lon="14.965336914945382"><ele>455.2</ele><time>2026-04-29T07:28:17Z</time></trkpt><trkpt lat="38.05205187211229" lon="14.965463947685718"><ele>459.0</ele><time>2026-04-29T07:28:19Z</time></trkpt><trkpt lat="38.0520126812899" lon="14.965585046074732"><ele>459.0</ele><time>2026-04-29T07:28:21Z</time></trkpt><trkpt lat="38.05195051747267" lon="14.965669842032844"><ele>459.0</ele><time>2026-04-29T07:28:23Z</time></trkpt><trkpt lat="38.05190293079779" lon="14.965743275631725"><ele>459.0</ele><time>2026-04-29T07:28:27Z</time></trkpt><trkpt lat="38.051936681137484" lon="14.965813264314342"><ele>459.0</ele><time>2026-04-29T07:28:44.999Z</time></trkpt><trkpt lat="38.05195145447501" lon="14.965706353003101"><ele>459.0</ele><time>2026-04-29T07:29:01.999Z</time></trkpt><trkpt lat="38.052000411142245" lon="14.965642400250477"><ele>459.0</ele><time>2026-04-29T07:29:02.999Z</time></trkpt><trkpt lat="38.05206315290591" lon="14.96552678144241"><ele>459.0</ele><time>2026-04-29T07:29:04.999Z</time></trkpt><trkpt lat="38.05209085270278" lon="14.965442390289825"><ele>459.0</ele><time>2026-04-29T07:29:06.999Z</time></trkpt><trkpt lat="38.05211069013701" lon="14.965325169502599"><ele>459.0</ele><time>2026-04-29T07:29:08.999Z</time></trkpt><trkpt lat="38.052116486784705" lon="14.965163187546091"><ele>459.0</ele><time>2026-04-29T07:29:10.999Z</time></trkpt><trkpt lat="38.05211072465568" lon="14.965012453993184"><ele>459.0</ele><time>2026-04-29T07:29:12.999Z</time></trkpt><trkpt lat="38.052080496436545" lon="14.96488587801518"><ele>455.8333333333333</ele><time>2026-04-29T07:29:14.999Z</time></trkpt><trkpt lat="38.05204152898238" lon="14.964780645605742"><ele>452.66666666666663</ele><time>2026-04-29T07:29:16.999Z</time></trkpt><trkpt lat="38.052076805541816" lon="14.964707584517727"><ele>449.5</ele><time>2026-04-29T07:29:17.999Z</time></trkpt><trkpt lat="38.05206464764728" lon="14.964566738557732"><ele>446.3333333333333</ele><time>2026-04-29T07:29:19.999Z</time></trkpt><trkpt lat="38.0520666332867" lon="14.964486483155422"><ele>443.16666666666663</ele><time>2026-04-29T07:29:20.999Z</time></trkpt><trkpt lat="38.05206784971078" lon="14.964371999232146"><ele>440.0</ele><time>2026-04-29T07:29:22.999Z</time></trkpt><trkpt lat="38.05205633899712" lon="14.96428548560245"><ele>440.0</ele><time>2026-04-29T07:29:27.999Z</time></trkpt><trkpt lat="38.05201451000927" lon="14.964201895028106"><ele>440.0</ele><time>2026-04-29T07:29:30.999Z</time></trkpt><trkpt lat="38.05201327190005" lon="14.964101983740534"><ele>440.0</ele><time>2026-04-29T07:29:35.999Z</time></trkpt><trkpt lat="38.052052552300694" lon="14.963957103097002"><ele>440.0</ele><time>2026-04-29T07:29:36.999Z</time></trkpt><trkpt lat="38.05216213957009" lon="14.963860292942524"><ele>440.0</ele><time>2026-04-29T07:29:37.999Z</time></trkpt><trkpt lat="38.052229113790595" lon="14.963771832004511"><ele>441.3333333333333</ele><time>2026-04-29T07:29:38.999Z</time></trkpt><trkpt lat="38.05230005832271" lon="14.963687333222849"><ele>442.66666666666663</ele><time>2026-04-29T07:29:39.999Z</time></trkpt><trkpt lat="38.05236898859145" lon="14.963610051960256"><ele>444.0</ele><time>2026-04-29T07:29:40.999Z</time></trkpt><trkpt lat="38.05243889413883" lon="14.963602869740075"><ele>445.33333333333337</ele><time>2026-04-29T07:29:41.999Z</time></trkpt><trkpt lat="38.05248992763492" lon="14.963548580566135"><ele>446.6666666666667</ele><time>2026-04-29T07:29:42.999Z</time></trkpt><trkpt lat="38.05256012056271" lon="14.963469662983618"><ele>448.0</ele><time>2026-04-29T07:29:44.999Z</time></trkpt><trkpt lat="38.05263790769808" lon="14.963376401995658"><ele>442.79999999999995</ele><time>2026-04-29T07:29:46.999Z</time></trkpt><trkpt lat="38.05270531359938" lon="14.963320668574362"><ele>437.59999999999997</ele><time>2026-04-29T07:29:48.999Z</time></trkpt><trkpt lat="38.0527823322753" lon="14.963255073240036"><ele>432.4</ele><time>2026-04-29T07:29:51.999Z</time></trkpt><trkpt lat="38.05287417375503" lon="14.963178499122693"><ele>427.20000000000005</ele><time>2026-04-29T07:29:53.999Z</time></trkpt><trkpt lat="38.05294171088181" lon="14.963124801960651"><ele>422.0</ele><time>2026-04-29T07:29:54.999Z</time></trkpt><trkpt lat="38.05301774003747" lon="14.963070479242099"><ele>421.99999999999994</ele><time>2026-04-29T07:29:55.999Z</time></trkpt><trkpt lat="38.05308092483266" lon="14.963027928715324"><ele>422.0</ele><time>2026-04-29T07:29:56.999Z</time></trkpt><trkpt lat="38.0531454997819" lon="14.962989528426176"><ele>422.0</ele><time>2026-04-29T07:29:57.999Z</time></trkpt><trkpt lat="38.053208396159086" lon="14.962962503774753"><ele>422.0</ele><time>2026-04-29T07:29:58.999Z</time></trkpt><trkpt lat="38.05333197544273" lon="14.962921853829052"><ele>421.99999999999994</ele><time>2026-04-29T07:30:00.999Z</time></trkpt><trkpt lat="38.05339927220823" lon="14.962939936849194"><ele>422.0</ele><time>2026-04-29T07:30:01.999Z</time></trkpt><trkpt lat="38.05347974560447" lon="14.962962629821329"><ele>426.0</ele><time>2026-04-29T07:30:02.999Z</time></trkpt><trkpt lat="38.0535483067676" lon="14.963014831460638"><ele>430.0</ele><time>2026-04-29T07:30:03.999Z</time></trkpt><trkpt lat="38.05361175308701" lon="14.963084884067023"><ele>434.00000000000006</ele><time>2026-04-29T07:30:04.999Z</time></trkpt><trkpt lat="38.0536566338262" lon="14.963189230996836"><ele>438.0</ele><time>2026-04-29T07:30:05.999Z</time></trkpt><trkpt lat="38.053692942051455" lon="14.963302155192526"><ele>442.0</ele><time>2026-04-29T07:30:06.999Z</time></trkpt><trkpt lat="38.053732401368826" lon="14.963443027157988"><ele>448.5</ele><time>2026-04-29T07:30:07.999Z</time></trkpt><trkpt lat="38.053773951896375" lon="14.963580699081698"><ele>455.0</ele><time>2026-04-29T07:30:08.999Z</time></trkpt><trkpt lat="38.05381839392613" lon="14.963717297244335"><ele>461.5</ele><time>2026-04-29T07:30:09.999Z</time></trkpt><trkpt lat="38.05394931658131" lon="14.96390000089188"><ele>468.0</ele><time>2026-04-29T07:30:10.999Z</time></trkpt><trkpt lat="38.05401355479096" lon="14.964048069773067"><ele>468.0</ele><time>2026-04-29T07:30:11.999Z</time></trkpt><trkpt lat="38.054071303475645" lon="14.964195485506469"><ele>468.0</ele><time>2026-04-29T07:30:12.999Z</time></trkpt><trkpt lat="38.05412688025715" lon="14.964338667173271"><ele>468.0</ele><time>2026-04-29T07:30:13.999Z</time></trkpt><trkpt lat="38.05417554224761" lon="14.964474839827743"><ele>468.0</ele><time>2026-04-29T07:30:14.999Z</time></trkpt><trkpt lat="38.05421087736866" lon="14.964612820935288"><ele>461.0</ele><time>2026-04-29T07:30:15.999Z</time></trkpt><trkpt lat="38.05423209685328" lon="14.964749764264207"><ele>453.99999999999994</ele><time>2026-04-29T07:30:16.999Z</time></trkpt><trkpt lat="38.0542437244919" lon="14.964889488974524"><ele>446.99999999999994</ele><time>2026-04-29T07:30:17.999Z</time></trkpt><trkpt lat="38.054244734075844" lon="14.965035693255317"><ele>440.0</ele><time>2026-04-29T07:30:18.999Z</time></trkpt><trkpt lat="38.05423585748531" lon="14.96517983569219"><ele>433.0</ele><time>2026-04-29T07:30:19.999Z</time></trkpt><trkpt lat="38.05422603240797" lon="14.96532234165515"><ele>431.59999999999997</ele><time>2026-04-29T07:30:20.999Z</time></trkpt><trkpt lat="38.05421446466035" lon="14.96546248620772"><ele>430.19999999999993</ele><time>2026-04-29T07:30:22Z</time></trkpt><trkpt lat="38.05420167297997" lon="14.96560015670268"><ele>428.8</ele><time>2026-04-29T07:30:23Z</time></trkpt><trkpt lat="38.054186229524596" lon="14.965732859705927"><ele>427.4</ele><time>2026-04-29T07:30:24Z</time></trkpt><trkpt lat="38.05416846124568" lon="14.965860664646103"><ele>426.0</ele><time>2026-04-29T07:30:25Z</time></trkpt><trkpt lat="38.0541360989591" lon="14.965976614857434"><ele>427.8</ele><time>2026-04-29T07:30:26Z</time></trkpt><trkpt lat="38.05408653807783" lon="14.966084373254382"><ele>429.6</ele><time>2026-04-29T07:30:27Z</time></trkpt><trkpt lat="38.0539941991482" lon="14.966110644910586"><ele>431.4</ele><time>2026-04-29T07:30:28Z</time></trkpt><trkpt lat="38.05390133548599" lon="14.966162667880376"><ele>433.2</ele><time>2026-04-29T07:30:29Z</time></trkpt><trkpt lat="38.053798012513504" lon="14.966206535062149"><ele>435.0</ele><time>2026-04-29T07:30:30Z</time></trkpt><trkpt lat="38.05368810892138" lon="14.966244785896649"><ele>435.0</ele><time>2026-04-29T07:30:31Z</time></trkpt><trkpt lat="38.05358504181147" lon="14.966287965564778"><ele>435.0</ele><time>2026-04-29T07:30:32Z</time></trkpt><trkpt lat="38.05348879634219" lon="14.966317531812383"><ele>435.0</ele><time>2026-04-29T07:30:33Z</time></trkpt><trkpt lat="38.05341138531344" lon="14.966344567002206"><ele>435.0</ele><time>2026-04-29T07:30:34Z</time></trkpt><trkpt lat="38.053344201681575" lon="14.966383196688957"><ele>435.0</ele><time>2026-04-29T07:30:36Z</time></trkpt><trkpt lat="38.05328511797174" lon="14.966474089371394"><ele>437.2</ele><time>2026-04-29T07:30:39Z</time></trkpt><trkpt lat="38.05321304970445" lon="14.966526531199126"><ele>439.4</ele><time>2026-04-29T07:30:40Z</time></trkpt><trkpt lat="38.05315054583197" lon="14.966620936770148"><ele>441.6</ele><time>2026-04-29T07:30:41Z</time></trkpt><trkpt lat="38.05309520198827" lon="14.966725488195275"><ele>443.8</ele><time>2026-04-29T07:30:42Z</time></trkpt><trkpt lat="38.05304229921265" lon="14.966828841359582"><ele>446.0</ele><time>2026-04-29T07:30:43Z</time></trkpt><trkpt lat="38.052984334053015" lon="14.966942084459625"><ele>446.0</ele><time>2026-04-29T07:30:43.999Z</time></trkpt><trkpt lat="38.05292734394454" lon="14.96705156826681"><ele>446.0</ele><time>2026-04-29T07:30:44.999Z</time></trkpt><trkpt lat="38.052872273828044" lon="14.967156462124011"><ele>446.0</ele><time>2026-04-29T07:30:45.999Z</time></trkpt><trkpt lat="38.05282115929927" lon="14.9672538217002"><ele>446.0</ele><time>2026-04-29T07:30:46.999Z</time></trkpt><trkpt lat="38.05277704587318" lon="14.967340244822639"><ele>446.0</ele><time>2026-04-29T07:30:47.999Z</time></trkpt><trkpt lat="38.052731417483166" lon="14.967432874557243"><ele>445.3333333333333</ele><time>2026-04-29T07:30:48.999Z</time></trkpt><trkpt lat="38.05268450844028" lon="14.967528103819312"><ele>444.66666666666663</ele><time>2026-04-29T07:30:49.999Z</time></trkpt><trkpt lat="38.052643123252615" lon="14.96759711332296"><ele>444.0</ele><time>2026-04-29T07:30:50.999Z</time></trkpt><trkpt lat="38.052597639422665" lon="14.967652885849509"><ele>443.33333333333337</ele><time>2026-04-29T07:30:51.999Z</time></trkpt><trkpt lat="38.05255080726706" lon="14.967746916192505"><ele>442.6666666666667</ele><time>2026-04-29T07:30:53.999Z</time></trkpt><trkpt lat="38.052540750310335" lon="14.967836616052107"><ele>442.0</ele><time>2026-04-29T07:30:55.999Z</time></trkpt><trkpt lat="38.05250888588497" lon="14.96793776413957"><ele>443.50000000000006</ele><time>2026-04-29T07:30:57.999Z</time></trkpt><trkpt lat="38.05243482033579" lon="14.967915363088727"><ele>445.0</ele><time>2026-04-29T07:30:58.999Z</time></trkpt><trkpt lat="38.05235932611685" lon="14.967976558796556"><ele>446.5</ele><time>2026-04-29T07:30:59.999Z</time></trkpt><trkpt lat="38.05229233008154" lon="14.968042848196301"><ele>448.0</ele><time>2026-04-29T07:31:00.999Z</time></trkpt><trkpt lat="38.05223065217892" lon="14.968155133125409"><ele>449.50000000000006</ele><time>2026-04-29T07:31:01.999Z</time></trkpt><trkpt lat="38.0521854384126" lon="14.968225412039304"><ele>451.0</ele><time>2026-04-29T07:31:02.999Z</time></trkpt><trkpt lat="38.05209185066232" lon="14.968262748761507"><ele>451.0</ele><time>2026-04-29T07:31:04.999Z</time></trkpt><trkpt lat="38.05201825954109" lon="14.96825425599983"><ele>451.0</ele><time>2026-04-29T07:31:05.999Z</time></trkpt><trkpt lat="38.0519546929054" lon="14.968252790056269"><ele>451.0</ele><time>2026-04-29T07:31:06.999Z</time></trkpt><trkpt lat="38.0518845646688" lon="14.968250198717623"><ele>451.0</ele><time>2026-04-29T07:31:08.999Z</time></trkpt><trkpt lat="38.051818855031875" lon="14.968298317369324"><ele>451.0</ele><time>2026-04-29T07:31:15.999Z</time></trkpt><trkpt lat="38.051760043851424" lon="14.968327660400112"><ele>451.0</ele><time>2026-04-29T07:31:18.999Z</time></trkpt><trkpt lat="38.051771709569074" lon="14.968437148318978"><ele>451.0</ele><time>2026-04-29T07:31:20.999Z</time></trkpt><trkpt lat="38.0517687574649" lon="14.968525543672422"><ele>451.0</ele><time>2026-04-29T07:31:21.999Z</time></trkpt><trkpt lat="38.05177079366381" lon="14.96860948867738"><ele>451.0</ele><time>2026-04-29T07:31:22.999Z</time></trkpt><trkpt lat="38.051716816316244" lon="14.968692820051682"><ele>451.0</ele><time>2026-04-29T07:31:24.999Z</time></trkpt><trkpt lat="38.05156821371803" lon="14.968652444749717"><ele>451.0</ele><time>2026-04-29T07:31:26.999Z</time></trkpt><trkpt lat="38.051470469523586" lon="14.968653012634269"><ele>451.0</ele><time>2026-04-29T07:31:27.999Z</time></trkpt><trkpt lat="38.051392396384074" lon="14.968648483851545"><ele>451.0</ele><time>2026-04-29T07:31:28.999Z</time></trkpt><trkpt lat="38.05132459091225" lon="14.968647980654815"><ele>451.0</ele><time>2026-04-29T07:31:29.999Z</time></trkpt><trkpt lat="38.05120601274146" lon="14.968640840178834"><ele>451.0</ele><time>2026-04-29T07:31:31.999Z</time></trkpt><trkpt lat="38.05108401312038" lon="14.968637460010171"><ele>451.0</ele><time>2026-04-29T07:31:33.999Z</time></trkpt><trkpt lat="38.050998486166094" lon="14.96863693306494"><ele>451.0</ele><time>2026-04-29T07:31:35.999Z</time></trkpt><trkpt lat="38.0509250471545" lon="14.968625376638098"><ele>451.00000000000006</ele><time>2026-04-29T07:32:54.999Z</time></trkpt><trkpt lat="38.05089247938824" lon="14.968701227925225"><ele>451.0</ele><time>2026-04-29T07:33:00.999Z</time></trkpt><trkpt lat="38.050927449354774" lon="14.968834967012807"><ele>451.0</ele><time>2026-04-29T07:33:02.999Z</time></trkpt><trkpt lat="38.05092730182848" lon="14.968928733764049"><ele>451.0</ele><time>2026-04-29T07:33:03.999Z</time></trkpt><trkpt lat="38.05091470398599" lon="14.969014668038925"><ele>451.00000000000006</ele><time>2026-04-29T07:33:04.999Z</time></trkpt><trkpt lat="38.05092290121571" lon="14.96911919819472"><ele>451.0</ele><time>2026-04-29T07:33:05.999Z</time></trkpt><trkpt lat="38.05093087006926" lon="14.969220816164102"><ele>451.33333333333337</ele><time>2026-04-29T07:33:06.999Z</time></trkpt><trkpt lat="38.05093912530572" lon="14.969323686465504"><ele>451.6666666666667</ele><time>2026-04-29T07:33:07.999Z</time></trkpt><trkpt lat="38.050946638458356" lon="14.969414038704771"><ele>452.0</ele><time>2026-04-29T07:33:08.999Z</time></trkpt><trkpt lat="38.0509545980374" lon="14.969503788376718"><ele>452.33333333333337</ele><time>2026-04-29T07:33:09.999Z</time></trkpt><trkpt lat="38.05096726647459" lon="14.969645580749372"><ele>452.6666666666667</ele><time>2026-04-29T07:33:11.999Z</time></trkpt><trkpt lat="38.05097840249498" lon="14.969769235816138"><ele>453.0</ele><time>2026-04-29T07:33:13.999Z</time></trkpt><trkpt lat="38.05099100654073" lon="14.969901143794479"><ele>453.0</ele><time>2026-04-29T07:33:15.999Z</time></trkpt><trkpt lat="38.05100045853595" lon="14.970000063387703"><ele>453.0</ele><time>2026-04-29T07:33:17.999Z</time></trkpt><trkpt lat="38.05100852405272" lon="14.97008553607345"><ele>453.0</ele><time>2026-04-29T07:33:21.999Z</time></trkpt><trkpt lat="38.05104645192611" lon="14.970211048076548"><ele>453.0</ele><time>2026-04-29T07:33:59.999Z</time></trkpt><trkpt lat="38.05105683972436" lon="14.970312699483012"><ele>453.0</ele><time>2026-04-29T07:34:00.999Z</time></trkpt><trkpt lat="38.05107649989937" lon="14.970420650009586"><ele>453.0</ele><time>2026-04-29T07:34:01.999Z</time></trkpt><trkpt lat="38.05105657517294" lon="14.970553228507006"><ele>453.3333333333333</ele><time>2026-04-29T07:34:02.999Z</time></trkpt><trkpt lat="38.05106608938521" lon="14.97068415108645"><ele>453.66666666666663</ele><time>2026-04-29T07:34:03.999Z</time></trkpt><trkpt lat="38.0510727555367" lon="14.970789024991044"><ele>454.0</ele><time>2026-04-29T07:34:04.999Z</time></trkpt><trkpt lat="38.051081711196545" lon="14.97090318216615"><ele>454.3333333333333</ele><time>2026-04-29T07:34:06.999Z</time></trkpt><trkpt lat="38.05101387756201" lon="14.97090171721672"><ele>454.66666666666663</ele><time>2026-04-29T07:34:10.999Z</time></trkpt><trkpt lat="38.05098772999684" lon="14.970818333099485"><ele>455.0</ele><time>2026-04-29T07:34:11.999Z</time></trkpt><trkpt lat="38.05096602524983" lon="14.970698949997884"><ele>455.0</ele><time>2026-04-29T07:34:12.999Z</time></trkpt><trkpt lat="38.05093890857532" lon="14.970569983416059"><ele>455.0</ele><time>2026-04-29T07:34:13.999Z</time></trkpt><trkpt lat="38.05090806120071" lon="14.9704517213603"><ele>455.0</ele><time>2026-04-29T07:34:14.999Z</time></trkpt><trkpt lat="38.05085651112075" lon="14.970348912147037"><ele>455.0</ele><time>2026-04-29T07:34:15.999Z</time></trkpt><trkpt lat="38.050786700753044" lon="14.970268159122748"><ele>455.0</ele><time>2026-04-29T07:34:16.999Z</time></trkpt><trkpt lat="38.05069229980579" lon="14.970225455324575"><ele>459.2</ele><time>2026-04-29T07:34:17.999Z</time></trkpt><trkpt lat="38.0506006263102" lon="14.970229412550864"><ele>463.4</ele><time>2026-04-29T07:34:18.999Z</time></trkpt><trkpt lat="38.05052580435416" lon="14.970287155893791"><ele>467.6</ele><time>2026-04-29T07:34:19.999Z</time></trkpt><trkpt lat="38.05048752422675" lon="14.970389815840484"><ele>471.8</ele><time>2026-04-29T07:34:20.999Z</time></trkpt><trkpt lat="38.05048037717066" lon="14.970512531397276"><ele>476.0</ele><time>2026-04-29T07:34:21.999Z</time></trkpt><trkpt lat="38.050523677099676" lon="14.970650210644772"><ele>476.0</ele><time>2026-04-29T07:34:22.999Z</time></trkpt><trkpt lat="38.0505647128091" lon="14.970813798347734"><ele>476.0</ele><time>2026-04-29T07:34:23.999Z</time></trkpt><trkpt lat="38.05059347737368" lon="14.970942844300586"><ele>476.0</ele><time>2026-04-29T07:34:24.999Z</time></trkpt><trkpt lat="38.05060919956742" lon="14.971048271753382"><ele>476.0</ele><time>2026-04-29T07:34:25.999Z</time></trkpt><trkpt lat="38.050566085848715" lon="14.971144050169858"><ele>476.0</ele><time>2026-04-29T07:34:26.999Z</time></trkpt><trkpt lat="38.05049861444754" lon="14.971195143858877"><ele>476.0</ele><time>2026-04-29T07:34:27.999Z</time></trkpt><trkpt lat="38.05041342408446" lon="14.971196778793185"><ele>476.0</ele><time>2026-04-29T07:34:28.999Z</time></trkpt><trkpt lat="38.050325946101616" lon="14.971145354028147"><ele>476.0</ele><time>2026-04-29T07:34:29.999Z</time></trkpt><trkpt lat="38.05024945985251" lon="14.971052518524086"><ele>476.0</ele><time>2026-04-29T07:34:30.999Z</time></trkpt><trkpt lat="38.05019833156514" lon="14.970915700768057"><ele>476.0</ele><time>2026-04-29T07:34:31.999Z</time></trkpt><trkpt lat="38.05015250418645" lon="14.970781555701594"><ele>476.0</ele><time>2026-04-29T07:34:33Z</time></trkpt><trkpt lat="38.05010008977216" lon="14.97065227972749"><ele>476.0</ele><time>2026-04-29T07:34:34Z</time></trkpt><trkpt lat="38.050038867529885" lon="14.97051725919742"><ele>476.0</ele><time>2026-04-29T07:34:35Z</time></trkpt><trkpt lat="38.049980949940064" lon="14.97035797164985"><ele>476.0</ele><time>2026-04-29T07:34:36Z</time></trkpt><trkpt lat="38.04994243420043" lon="14.970167164487986"><ele>487.25</ele><time>2026-04-29T07:34:37Z</time></trkpt><trkpt lat="38.04993198663974" lon="14.969963797247114"><ele>498.5</ele><time>2026-04-29T07:34:38Z</time></trkpt><trkpt lat="38.049928109935976" lon="14.96977424586836"><ele>509.75</ele><time>2026-04-29T07:34:39Z</time></trkpt><trkpt lat="38.049914511244985" lon="14.969620411102229"><ele>521.0</ele><time>2026-04-29T07:34:40Z</time></trkpt><trkpt lat="38.04989636548556" lon="14.969489323585062"><ele>521.0</ele><time>2026-04-29T07:34:41Z</time></trkpt><trkpt lat="38.0498767969201" lon="14.969363332413288"><ele>521.0</ele><time>2026-04-29T07:34:42Z</time></trkpt><trkpt lat="38.04985979992257" lon="14.969265243364722"><ele>521.0</ele><time>2026-04-29T07:34:43Z</time></trkpt><trkpt lat="38.049805752809355" lon="14.969163667791337"><ele>521.0</ele><time>2026-04-29T07:34:45Z</time></trkpt><trkpt lat="38.04970339670028" lon="14.969084622286465"><ele>521.0</ele><time>2026-04-29T07:34:47Z</time></trkpt><trkpt lat="38.0496862522228" lon="14.969379386933182"><ele>521.0</ele><time>2026-04-29T07:34:49Z</time></trkpt><trkpt lat="38.04970979202203" lon="14.96952540842571"><ele>521.0</ele><time>2026-04-29T07:34:50Z</time></trkpt><trkpt lat="38.04970789266387" lon="14.969678529205897"><ele>521.0</ele><time>2026-04-29T07:34:51Z</time></trkpt><trkpt lat="38.04972431819909" lon="14.96983638253166"><ele>521.0</ele><time>2026-04-29T07:34:52Z</time></trkpt><trkpt lat="38.04971565700642" lon="14.970011444816452"><ele>521.0</ele><time>2026-04-29T07:34:53Z</time></trkpt><trkpt lat="38.04971001343459" lon="14.970206450226536"><ele>521.0</ele><time>2026-04-29T07:34:54Z</time></trkpt><trkpt lat="38.04970666648525" lon="14.970420966818175"><ele>521.0</ele><time>2026-04-29T07:34:55Z</time></trkpt><trkpt lat="38.049667917845234" lon="14.970627075154523"><ele>521.0</ele><time>2026-04-29T07:34:56Z</time></trkpt><trkpt lat="38.04962207524903" lon="14.970808533377383"><ele>521.0</ele><time>2026-04-29T07:34:57Z</time></trkpt><trkpt lat="38.04956523545141" lon="14.97100178085318"><ele>521.0</ele><time>2026-04-29T07:34:57.999Z</time></trkpt><trkpt lat="38.04949890449616" lon="14.971195628497973"><ele>518.75</ele><time>2026-04-29T07:34:58.999Z</time></trkpt><trkpt lat="38.04944104886757" lon="14.971380055522753"><ele>516.5</ele><time>2026-04-29T07:34:59.999Z</time></trkpt><trkpt lat="38.04938982391161" lon="14.971547112007032"><ele>514.25</ele><time>2026-04-29T07:35:00.999Z</time></trkpt><trkpt lat="38.049347935694946" lon="14.971693906026543"><ele>512.0</ele><time>2026-04-29T07:35:01.999Z</time></trkpt><trkpt lat="38.04932227049976" lon="14.971826501839413"><ele>511.75</ele><time>2026-04-29T07:35:02.999Z</time></trkpt><trkpt lat="38.049313405883304" lon="14.971953706967481"><ele>511.5</ele><time>2026-04-29T07:35:03.999Z</time></trkpt><trkpt lat="38.049376700579785" lon="14.972063690105406"><ele>511.25</ele><time>2026-04-29T07:35:04.999Z</time></trkpt><trkpt lat="38.049475063795086" lon="14.972141863020575"><ele>511.0</ele><time>2026-04-29T07:35:05.999Z</time></trkpt><trkpt lat="38.049604115337" lon="14.972219655640794"><ele>511.0</ele><time>2026-04-29T07:35:06.999Z</time></trkpt><trkpt lat="38.04969444695565" lon="14.972317803700628"><ele>511.0</ele><time>2026-04-29T07:35:07.999Z</time></trkpt><trkpt lat="38.04975927363097" lon="14.972406943863717"><ele>511.0</ele><time>2026-04-29T07:35:08.999Z</time></trkpt><trkpt lat="38.04974153358466" lon="14.97256486881276"><ele>511.0</ele><time>2026-04-29T07:35:09.999Z</time></trkpt><trkpt lat="38.049754371072865" lon="14.972744674625558"><ele>513.75</ele><time>2026-04-29T07:35:10.999Z</time></trkpt><trkpt lat="38.04976897422791" lon="14.972949211239516"><ele>516.5</ele><time>2026-04-29T07:35:11.999Z</time></trkpt><trkpt lat="38.049780293509635" lon="14.973142566522771"><ele>519.25</ele><time>2026-04-29T07:35:12.999Z</time></trkpt><trkpt lat="38.049827139093196" lon="14.973283688307822"><ele>522.0</ele><time>2026-04-29T07:35:13.999Z</time></trkpt><trkpt lat="38.049876784061134" lon="14.973391503301952"><ele>519.5</ele><time>2026-04-29T07:35:14.999Z</time></trkpt><trkpt lat="38.04998157241003" lon="14.973457750417374"><ele>517.0</ele><time>2026-04-29T07:35:15.999Z</time></trkpt><trkpt lat="38.05011104673244" lon="14.973500902944618"><ele>514.5</ele><time>2026-04-29T07:35:16.999Z</time></trkpt><trkpt lat="38.0502360465152" lon="14.97355629221029"><ele>512.0</ele><time>2026-04-29T07:35:17.999Z</time></trkpt><trkpt lat="38.050319635908444" lon="14.973606008727861"><ele>512.0</ele><time>2026-04-29T07:35:18.999Z</time></trkpt><trkpt lat="38.05037255446337" lon="14.973664348255491"><ele>512.0</ele><time>2026-04-29T07:35:19.999Z</time></trkpt><trkpt lat="38.05037228645128" lon="14.97377313391658"><ele>512.0</ele><time>2026-04-29T07:35:20.999Z</time></trkpt><trkpt lat="38.05029368820167" lon="14.973871378166324"><ele>512.0</ele><time>2026-04-29T07:35:21.999Z</time></trkpt><trkpt lat="38.050214893941686" lon="14.973970165893393"><ele>512.0</ele><time>2026-04-29T07:35:22.999Z</time></trkpt><trkpt lat="38.05012120657716" lon="14.974109664882231"><ele>511.66666666666663</ele><time>2026-04-29T07:35:23.999Z</time></trkpt><trkpt lat="38.05001881182825" lon="14.974263444827246"><ele>511.33333333333337</ele><time>2026-04-29T07:35:24.999Z</time></trkpt><trkpt lat="38.04994278631461" lon="14.97443557594687"><ele>511.0</ele><time>2026-04-29T07:35:25.999Z</time></trkpt><trkpt lat="38.04989005132677" lon="14.974625297623414"><ele>519.0</ele><time>2026-04-29T07:35:26.999Z</time></trkpt><trkpt lat="38.049880649477736" lon="14.974855317637731"><ele>527.0</ele><time>2026-04-29T07:35:27.999Z</time></trkpt><trkpt lat="38.04986797389647" lon="14.97509102417445"><ele>535.0</ele><time>2026-04-29T07:35:28.999Z</time></trkpt><trkpt lat="38.04986504868306" lon="14.975318328027178"><ele>535.25</ele><time>2026-04-29T07:35:29.999Z</time></trkpt><trkpt lat="38.04988929076879" lon="14.975516953155992"><ele>535.5</ele><time>2026-04-29T07:35:30.999Z</time></trkpt><trkpt lat="38.04991198334244" lon="14.975681067843858"><ele>535.75</ele><time>2026-04-29T07:35:31.999Z</time></trkpt><trkpt lat="38.049977523223625" lon="14.975819715837135"><ele>536.0</ele><time>2026-04-29T07:35:32.999Z</time></trkpt><trkpt lat="38.05008723909437" lon="14.975953356813545"><ele>534.0</ele><time>2026-04-29T07:35:33.999Z</time></trkpt><trkpt lat="38.0501993849061" lon="14.976117307959086"><ele>532.0</ele><time>2026-04-29T07:35:34.999Z</time></trkpt><trkpt lat="38.05032508855973" lon="14.976272162686382"><ele>530.0</ele><time>2026-04-29T07:35:35.999Z</time></trkpt><trkpt lat="38.0504325487131" lon="14.976432694486018"><ele>530.0</ele><time>2026-04-29T07:35:36.999Z</time></trkpt><trkpt lat="38.05052651972519" lon="14.97658327196918"><ele>530.0</ele><time>2026-04-29T07:35:37.999Z</time></trkpt><trkpt lat="38.050628083691414" lon="14.976727735990952"><ele>530.0</ele><time>2026-04-29T07:35:38.999Z</time></trkpt><trkpt lat="38.05074122066375" lon="14.976874324143543"><ele>529.0</ele><time>2026-04-29T07:35:39.999Z</time></trkpt><trkpt lat="38.05087567375595" lon="14.977026287221653"><ele>528.0</ele><time>2026-04-29T07:35:40.999Z</time></trkpt><trkpt lat="38.05103004835581" lon="14.977159645731819"><ele>527.0</ele><time>2026-04-29T07:35:41.999Z</time></trkpt><trkpt lat="38.05117226945008" lon="14.977268804941483"><ele>527.0</ele><time>2026-04-29T07:35:42.999Z</time></trkpt><trkpt lat="38.051261077405044" lon="14.977390235986766"><ele>527.0</ele><time>2026-04-29T07:35:43.999Z</time></trkpt><trkpt lat="38.05132665513631" lon="14.977473419966344"><ele>527.0</ele><time>2026-04-29T07:35:44.999Z</time></trkpt><trkpt lat="38.051348051410336" lon="14.977601052010767"><ele>527.0</ele><time>2026-04-29T07:35:45.999Z</time></trkpt><trkpt lat="38.05129396446497" lon="14.977722217693305"><ele>527.0</ele><time>2026-04-29T07:35:46.999Z</time></trkpt><trkpt lat="38.05123761548355" lon="14.977821202700186"><ele>529.0</ele><time>2026-04-29T07:35:47.999Z</time></trkpt><trkpt lat="38.05114894558123" lon="14.977900284376751"><ele>531.0</ele><time>2026-04-29T07:35:48.999Z</time></trkpt><trkpt lat="38.0510016667215" lon="14.977908803274104"><ele>533.0</ele><time>2026-04-29T07:35:49.999Z</time></trkpt><trkpt lat="38.05087283535406" lon="14.977947805847728"><ele>535.0</ele><time>2026-04-29T07:35:50.999Z</time></trkpt><trkpt lat="38.05077859090918" lon="14.977972344413345"><ele>535.0</ele><time>2026-04-29T07:35:51.999Z</time></trkpt><trkpt lat="38.05069917784984" lon="14.977900593987982"><ele>535.0</ele><time>2026-04-29T07:35:52.999Z</time></trkpt><trkpt lat="38.050653667919754" lon="14.977783398072464"><ele>535.0</ele><time>2026-04-29T07:35:53.999Z</time></trkpt><trkpt lat="38.05064828113095" lon="14.977626888585196"><ele>535.0</ele><time>2026-04-29T07:35:54.999Z</time></trkpt><trkpt lat="38.05065336140715" lon="14.977463954567572"><ele>537.0</ele><time>2026-04-29T07:35:55.999Z</time></trkpt><trkpt lat="38.05064764376454" lon="14.977327299985534"><ele>539.0</ele><time>2026-04-29T07:35:56.999Z</time></trkpt><trkpt lat="38.05060952818955" lon="14.977211558389369"><ele>541.0</ele><time>2026-04-29T07:35:57.999Z</time></trkpt><trkpt lat="38.050545486176" lon="14.977119867300175"><ele>543.0</ele><time>2026-04-29T07:35:58.999Z</time></trkpt><trkpt lat="38.05045670876507" lon="14.977053064090704"><ele>545.0</ele><time>2026-04-29T07:35:59.999Z</time></trkpt><trkpt lat="38.050327552039015" lon="14.977007054151498"><ele>545.0</ele><time>2026-04-29T07:36:00.999Z</time></trkpt><trkpt lat="38.05017711343387" lon="14.976976146844317"><ele>545.0</ele><time>2026-04-29T07:36:01.999Z</time></trkpt><trkpt lat="38.0500273886107" lon="14.976977762220356"><ele>545.0</ele><time>2026-04-29T07:36:02.999Z</time></trkpt><trkpt lat="38.04989035891821" lon="14.977004316429166"><ele>545.0</ele><time>2026-04-29T07:36:03.999Z</time></trkpt><trkpt lat="38.04976303054421" lon="14.977036527743778"><ele>547.0</ele><time>2026-04-29T07:36:04.999Z</time></trkpt><trkpt lat="38.04963982841175" lon="14.977063818471057"><ele>549.0</ele><time>2026-04-29T07:36:05.999Z</time></trkpt><trkpt lat="38.04952191851556" lon="14.97708067595326"><ele>551.0</ele><time>2026-04-29T07:36:06.999Z</time></trkpt><trkpt lat="38.049412760245396" lon="14.977068324110148"><ele>553.0</ele><time>2026-04-29T07:36:07.999Z</time></trkpt><trkpt lat="38.04931259333099" lon="14.977076337227247"><ele>553.0</ele><time>2026-04-29T07:36:08.999Z</time></trkpt><trkpt lat="38.04922267232087" lon="14.977012029085442"><ele>553.0</ele><time>2026-04-29T07:36:09.999Z</time></trkpt><trkpt lat="38.04916550286181" lon="14.976879192889573"><ele>553.0</ele><time>2026-04-29T07:36:10.999Z</time></trkpt><trkpt lat="38.04909716375261" lon="14.976727857193806"><ele>553.0</ele><time>2026-04-29T07:36:11.999Z</time></trkpt><trkpt lat="38.04901039821215" lon="14.9765635359493"><ele>553.0</ele><time>2026-04-29T07:36:12.999Z</time></trkpt><trkpt lat="38.04892728670794" lon="14.97639751984623"><ele>553.0</ele><time>2026-04-29T07:36:13.999Z</time></trkpt><trkpt lat="38.0488614914743" lon="14.976225629643874"><ele>553.0</ele><time>2026-04-29T07:36:14.999Z</time></trkpt><trkpt lat="38.04878391049827" lon="14.976062628971492"><ele>553.0</ele><time>2026-04-29T07:36:15.999Z</time></trkpt><trkpt lat="38.04868897038632" lon="14.975902940491467"><ele>553.0</ele><time>2026-04-29T07:36:16.999Z</time></trkpt><trkpt lat="38.04861693816061" lon="14.97573760908983"><ele>553.0</ele><time>2026-04-29T07:36:17.999Z</time></trkpt><trkpt lat="38.048541086774385" lon="14.975577057903527"><ele>552.5</ele><time>2026-04-29T07:36:18.999Z</time></trkpt><trkpt lat="38.04846522739683" lon="14.975433802467032"><ele>552.0</ele><time>2026-04-29T07:36:19.999Z</time></trkpt><trkpt lat="38.04840096303106" lon="14.975310084819473"><ele>551.5</ele><time>2026-04-29T07:36:20.999Z</time></trkpt><trkpt lat="38.048377755611384" lon="14.975194132809936"><ele>551.0</ele><time>2026-04-29T07:36:21.999Z</time></trkpt><trkpt lat="38.04840088848327" lon="14.975051520654345"><ele>551.8</ele><time>2026-04-29T07:36:22.999Z</time></trkpt><trkpt lat="38.0484604224657" lon="14.974919920897177"><ele>552.6</ele><time>2026-04-29T07:36:23.999Z</time></trkpt><trkpt lat="38.04852569157786" lon="14.974795057888972"><ele>553.4</ele><time>2026-04-29T07:36:24.999Z</time></trkpt><trkpt lat="38.04854662322017" lon="14.974673446397484"><ele>554.2</ele><time>2026-04-29T07:36:25.999Z</time></trkpt><trkpt lat="38.04851909470424" lon="14.974561406357463"><ele>555.0</ele><time>2026-04-29T07:36:26.999Z</time></trkpt><trkpt lat="38.04846170122456" lon="14.974472353343277"><ele>555.0</ele><time>2026-04-29T07:36:27.999Z</time></trkpt><trkpt lat="38.048360157052535" lon="14.974420709084374"><ele>555.0</ele><time>2026-04-29T07:36:28.999Z</time></trkpt><trkpt lat="38.04826592315273" lon="14.974412355153026"><ele>555.0</ele><time>2026-04-29T07:36:29.999Z</time></trkpt><trkpt lat="38.04817493019857" lon="14.974506384408416"><ele>555.0</ele><time>2026-04-29T07:36:30.999Z</time></trkpt><trkpt lat="38.048099369140225" lon="14.974652960094467"><ele>559.5</ele><time>2026-04-29T07:36:31.999Z</time></trkpt><trkpt lat="38.048049610790265" lon="14.9748016429395"><ele>564.0</ele><time>2026-04-29T07:36:32.999Z</time></trkpt><trkpt lat="38.04798405874285" lon="14.974950403649649"><ele>568.5</ele><time>2026-04-29T07:36:33.999Z</time></trkpt><trkpt lat="38.0479238543902" lon="14.975117897383507"><ele>573.0</ele><time>2026-04-29T07:36:34.999Z</time></trkpt><trkpt lat="38.04786116648517" lon="14.975293891291164"><ele>573.0</ele><time>2026-04-29T07:36:35.999Z</time></trkpt><trkpt lat="38.04780126173271" lon="14.975462071407705"><ele>573.0</ele><time>2026-04-29T07:36:36.999Z</time></trkpt><trkpt lat="38.04773998324251" lon="14.975633048933929"><ele>573.0</ele><time>2026-04-29T07:36:37.999Z</time></trkpt><trkpt lat="38.0476740192198" lon="14.975816104771987"><ele>572.0</ele><time>2026-04-29T07:36:39Z</time></trkpt><trkpt lat="38.047606710511744" lon="14.976002891876174"><ele>571.0</ele><time>2026-04-29T07:36:40Z</time></trkpt><trkpt lat="38.047536463978545" lon="14.976198320027297"><ele>570.0</ele><time>2026-04-29T07:36:41Z</time></trkpt><trkpt lat="38.047467749988094" lon="14.976389576851854"><ele>576.25</ele><time>2026-04-29T07:36:42Z</time></trkpt><trkpt lat="38.04740920371274" lon="14.976556273766457"><ele>582.5</ele><time>2026-04-29T07:36:43Z</time></trkpt><trkpt lat="38.047362122393444" lon="14.976703419330622"><ele>588.75</ele><time>2026-04-29T07:36:44Z</time></trkpt><trkpt lat="38.047335016493655" lon="14.976842375431499"><ele>595.0</ele><time>2026-04-29T07:36:45Z</time></trkpt><trkpt lat="38.04736120362985" lon="14.976990484755218"><ele>595.0</ele><time>2026-04-29T07:36:46Z</time></trkpt><trkpt lat="38.047413801555784" lon="14.977143776811708"><ele>595.0</ele><time>2026-04-29T07:36:47Z</time></trkpt><trkpt lat="38.047483969975666" lon="14.977310979631367"><ele>595.0</ele><time>2026-04-29T07:36:48Z</time></trkpt><trkpt lat="38.04755997267846" lon="14.977497178335561"><ele>595.0</ele><time>2026-04-29T07:36:49Z</time></trkpt><trkpt lat="38.04761941660326" lon="14.977648466862078"><ele>594.2</ele><time>2026-04-29T07:36:50Z</time></trkpt><trkpt lat="38.04766622978314" lon="14.977782253843749"><ele>593.4</ele><time>2026-04-29T07:36:51Z</time></trkpt><trkpt lat="38.04768099034457" lon="14.977893463100418"><ele>592.6</ele><time>2026-04-29T07:36:52Z</time></trkpt><trkpt lat="38.047642612059555" lon="14.977987072537635"><ele>591.8</ele><time>2026-04-29T07:36:53Z</time></trkpt><trkpt lat="38.04755724982914" lon="14.978055019850569"><ele>591.0</ele><time>2026-04-29T07:36:54Z</time></trkpt><trkpt lat="38.04744137040914" lon="14.978086863327869"><ele>591.0</ele><time>2026-04-29T07:36:55Z</time></trkpt><trkpt lat="38.04733345397595" lon="14.978144369230316"><ele>591.0</ele><time>2026-04-29T07:36:56Z</time></trkpt><trkpt lat="38.04722079260718" lon="14.978191354701794"><ele>591.0</ele><time>2026-04-29T07:36:57Z</time></trkpt><trkpt lat="38.047122248934556" lon="14.978282214954001"><ele>591.0</ele><time>2026-04-29T07:36:58Z</time></trkpt><trkpt lat="38.047033079174724" lon="14.978421187085834"><ele>590.75</ele><time>2026-04-29T07:36:59Z</time></trkpt><trkpt lat="38.046934285884205" lon="14.978560612662186"><ele>590.5</ele><time>2026-04-29T07:37:00Z</time></trkpt><trkpt lat="38.046845690588945" lon="14.978697289325707"><ele>590.25</ele><time>2026-04-29T07:37:00.999Z</time></trkpt><trkpt lat="38.04676414797058" lon="14.978844907267392"><ele>590.0</ele><time>2026-04-29T07:37:01.999Z</time></trkpt><trkpt lat="38.046684162669045" lon="14.978955918491634"><ele>589.6</ele><time>2026-04-29T07:37:02.999Z</time></trkpt><trkpt lat="38.0466269307644" lon="14.979056509626357"><ele>589.2</ele><time>2026-04-29T07:37:03.999Z</time></trkpt><trkpt lat="38.04660337585611" lon="14.979168817882488"><ele>588.8</ele><time>2026-04-29T07:37:04.999Z</time></trkpt><trkpt lat="38.04660833448679" lon="14.979288099474408"><ele>588.4</ele><time>2026-04-29T07:37:05.999Z</time></trkpt><trkpt lat="38.046717467311225" lon="14.97940076361717"><ele>588.0</ele><time>2026-04-29T07:37:06.999Z</time></trkpt><trkpt lat="38.046785427524405" lon="14.979521858949177"><ele>588.0</ele><time>2026-04-29T07:37:08Z</time></trkpt><trkpt lat="38.04682954286077" lon="14.979630842781859"><ele>588.0</ele><time>2026-04-29T07:37:09Z</time></trkpt><trkpt lat="38.04684946560766" lon="14.979750540467151"><ele>588.0</ele><time>2026-04-29T07:37:10Z</time></trkpt><trkpt lat="38.0467640324458" lon="14.979859198661453"><ele>588.0</ele><time>2026-04-29T07:37:11Z</time></trkpt><trkpt lat="38.04667467384702" lon="14.979977479910552"><ele>588.0</ele><time>2026-04-29T07:37:12Z</time></trkpt><trkpt lat="38.046568024233395" lon="14.980128844431489"><ele>591.3333333333334</ele><time>2026-04-29T07:37:13Z</time></trkpt><trkpt lat="38.04645502085796" lon="14.980287818158763"><ele>594.6666666666667</ele><time>2026-04-29T07:37:14Z</time></trkpt><trkpt lat="38.046340714676504" lon="14.980450115327352"><ele>598.0</ele><time>2026-04-29T07:37:15Z</time></trkpt><trkpt lat="38.04624269989308" lon="14.980594069723985"><ele>598.0</ele><time>2026-04-29T07:37:16Z</time></trkpt><trkpt lat="38.04616944703007" lon="14.980726771838707"><ele>598.0</ele><time>2026-04-29T07:37:17Z</time></trkpt><trkpt lat="38.0461377906931" lon="14.980838524220564"><ele>598.0</ele><time>2026-04-29T07:37:18Z</time></trkpt><trkpt lat="38.046180028875675" lon="14.981021434575885"><ele>598.0</ele><time>2026-04-29T07:37:19Z</time></trkpt><trkpt lat="38.0462418183805" lon="14.981209021326453"><ele>601.1999999999999</ele><time>2026-04-29T07:37:20Z</time></trkpt><trkpt lat="38.04627096782803" lon="14.981357498352144"><ele>604.4</ele><time>2026-04-29T07:37:21Z</time></trkpt><trkpt lat="38.04630699346146" lon="14.981457600291318"><ele>607.5999999999999</ele><time>2026-04-29T07:37:22Z</time></trkpt><trkpt lat="38.0463766807302" lon="14.981537780518474"><ele>610.8</ele><time>2026-04-29T07:37:23Z</time></trkpt><trkpt lat="38.046475493234134" lon="14.981597641224763"><ele>614.0</ele><time>2026-04-29T07:37:24Z</time></trkpt><trkpt lat="38.0466073648429" lon="14.981648231350785"><ele>613.5</ele><time>2026-04-29T07:37:25Z</time></trkpt><trkpt lat="38.0467347986598" lon="14.981689781309255"><ele>613.0</ele><time>2026-04-29T07:37:26Z</time></trkpt><trkpt lat="38.04684476351403" lon="14.981732034630646"><ele>612.5</ele><time>2026-04-29T07:37:27Z</time></trkpt><trkpt lat="38.046938674658165" lon="14.981792291893488"><ele>612.0</ele><time>2026-04-29T07:37:28Z</time></trkpt><trkpt lat="38.04699522572385" lon="14.981901490566475"><ele>612.0</ele><time>2026-04-29T07:37:29Z</time></trkpt><trkpt lat="38.047009780925656" lon="14.982040475475557"><ele>612.0</ele><time>2026-04-29T07:37:30Z</time></trkpt><trkpt lat="38.04702812354672" lon="14.982212603772627"><ele>612.0</ele><time>2026-04-29T07:37:31Z</time></trkpt><trkpt lat="38.047044889839164" lon="14.98240999366555"><ele>612.0</ele><time>2026-04-29T07:37:32Z</time></trkpt><trkpt lat="38.047056965340715" lon="14.982612424589085"><ele>613.6666666666666</ele><time>2026-04-29T07:37:33Z</time></trkpt><trkpt lat="38.04705986540502" lon="14.982836806599698"><ele>615.3333333333333</ele><time>2026-04-29T07:37:34Z</time></trkpt><trkpt lat="38.04706078630809" lon="14.983060585503194"><ele>617.0</ele><time>2026-04-29T07:37:35Z</time></trkpt><trkpt lat="38.047072037640895" lon="14.98327733387452"><ele>617.0</ele><time>2026-04-29T07:37:36Z</time></trkpt><trkpt lat="38.04707129831415" lon="14.983469123220777"><ele>617.0</ele><time>2026-04-29T07:37:37Z</time></trkpt><trkpt lat="38.04706181263215" lon="14.983650389298116"><ele>617.0</ele><time>2026-04-29T07:37:38Z</time></trkpt><trkpt lat="38.04706146681608" lon="14.983824964332713"><ele>617.0</ele><time>2026-04-29T07:37:39Z</time></trkpt><trkpt lat="38.04705643576597" lon="14.98399762533116"><ele>617.0</ele><time>2026-04-29T07:37:40Z</time></trkpt><trkpt lat="38.04704662241783" lon="14.984165184799005"><ele>617.0</ele><time>2026-04-29T07:37:41Z</time></trkpt><trkpt lat="38.0470429664813" lon="14.984323366222013"><ele>617.0</ele><time>2026-04-29T07:37:42Z</time></trkpt><trkpt lat="38.04704326438125" lon="14.984471609315944"><ele>617.0</ele><time>2026-04-29T07:37:43Z</time></trkpt><trkpt lat="38.047090159617056" lon="14.984600251423391"><ele>620.0</ele><time>2026-04-29T07:37:44Z</time></trkpt><trkpt lat="38.047175514309515" lon="14.984705570541983"><ele>623.0</ele><time>2026-04-29T07:37:45Z</time></trkpt><trkpt lat="38.04729660533977" lon="14.98477183905281"><ele>626.0</ele><time>2026-04-29T07:37:46Z</time></trkpt><trkpt lat="38.047404269274026" lon="14.984844694798324"><ele>629.0</ele><time>2026-04-29T07:37:47Z</time></trkpt><trkpt lat="38.047495957112154" lon="14.98495327122586"><ele>625.75</ele><time>2026-04-29T07:37:48Z</time></trkpt><trkpt lat="38.047578547186546" lon="14.985097247171083"><ele>622.5</ele><time>2026-04-29T07:37:49Z</time></trkpt><trkpt lat="38.047648064876945" lon="14.985246157239537"><ele>619.25</ele><time>2026-04-29T07:37:50Z</time></trkpt><trkpt lat="38.04772141262383" lon="14.985380577545909"><ele>616.0</ele><time>2026-04-29T07:37:51Z</time></trkpt><trkpt lat="38.047804488452904" lon="14.98551639691371"><ele>616.0</ele><time>2026-04-29T07:37:52Z</time></trkpt><trkpt lat="38.047893398157704" lon="14.985654685389251"><ele>616.0</ele><time>2026-04-29T07:37:53Z</time></trkpt><trkpt lat="38.047989271279626" lon="14.985788263808216"><ele>616.0</ele><time>2026-04-29T07:37:54Z</time></trkpt><trkpt lat="38.04809210537399" lon="14.985917526173687"><ele>616.0</ele><time>2026-04-29T07:37:55Z</time></trkpt><trkpt lat="38.04819866375433" lon="14.986040265192775"><ele>615.5</ele><time>2026-04-29T07:37:56Z</time></trkpt><trkpt lat="38.04828719479029" lon="14.986188658639957"><ele>615.0</ele><time>2026-04-29T07:37:57Z</time></trkpt><trkpt lat="38.048370442619515" lon="14.9863167412832"><ele>614.5</ele><time>2026-04-29T07:37:58Z</time></trkpt><trkpt lat="38.04846692792731" lon="14.986406784520891"><ele>614.0</ele><time>2026-04-29T07:37:59Z</time></trkpt><trkpt lat="38.04857695415129" lon="14.986489396475479"><ele>614.0</ele><time>2026-04-29T07:38:00Z</time></trkpt><trkpt lat="38.04871246473499" lon="14.986540188497932"><ele>614.0</ele><time>2026-04-29T07:38:01Z</time></trkpt><trkpt lat="38.048862457299954" lon="14.986561892386984"><ele>614.0</ele><time>2026-04-29T07:38:02Z</time></trkpt><trkpt lat="38.049016263815346" lon="14.98658763381751"><ele>614.0</ele><time>2026-04-29T07:38:03Z</time></trkpt><trkpt lat="38.049163044744134" lon="14.98662094014903"><ele>613.5</ele><time>2026-04-29T07:38:04Z</time></trkpt><trkpt lat="38.04930853994025" lon="14.986657115156184"><ele>613.0</ele><time>2026-04-29T07:38:05Z</time></trkpt><trkpt lat="38.04945280367779" lon="14.986692428502282"><ele>612.5</ele><time>2026-04-29T07:38:06Z</time></trkpt><trkpt lat="38.049582845102385" lon="14.98672455698998"><ele>612.0</ele><time>2026-04-29T07:38:07Z</time></trkpt><trkpt lat="38.0497069733203" lon="14.986754744473794"><ele>614.25</ele><time>2026-04-29T07:38:08Z</time></trkpt><trkpt lat="38.04983833756872" lon="14.98678635854996"><ele>616.5</ele><time>2026-04-29T07:38:09Z</time></trkpt><trkpt lat="38.04997509518021" lon="14.986829529989324"><ele>618.75</ele><time>2026-04-29T07:38:10Z</time></trkpt><trkpt lat="38.05009328272429" lon="14.986900108252106"><ele>621.0</ele><time>2026-04-29T07:38:11Z</time></trkpt><trkpt lat="38.0501846533545" lon="14.987008723392405"><ele>621.0</ele><time>2026-04-29T07:38:12Z</time></trkpt><trkpt lat="38.050259968839306" lon="14.987150055784861"><ele>621.0</ele><time>2026-04-29T07:38:13Z</time></trkpt><trkpt lat="38.05032800387886" lon="14.987311942355234"><ele>621.0</ele><time>2026-04-29T07:38:14Z</time></trkpt><trkpt lat="38.05039655952934" lon="14.987434539303006"><ele>621.0</ele><time>2026-04-29T07:38:15Z</time></trkpt><trkpt lat="38.050478451476316" lon="14.987526576468829"><ele>622.75</ele><time>2026-04-29T07:38:16Z</time></trkpt><trkpt lat="38.050576962664614" lon="14.98757818877665"><ele>624.5</ele><time>2026-04-29T07:38:17Z</time></trkpt><trkpt lat="38.05069066122407" lon="14.987571333338348"><ele>626.25</ele><time>2026-04-29T07:38:18Z</time></trkpt><trkpt lat="38.050798280516524" lon="14.987514566915252"><ele>628.0</ele><time>2026-04-29T07:38:19Z</time></trkpt><trkpt lat="38.050890554451975" lon="14.987413259802024"><ele>628.0</ele><time>2026-04-29T07:38:20Z</time></trkpt><trkpt lat="38.0509764285836" lon="14.987279200904187"><ele>628.0</ele><time>2026-04-29T07:38:21Z</time></trkpt><trkpt lat="38.05106249323743" lon="14.987141883486943"><ele>628.0</ele><time>2026-04-29T07:38:22Z</time></trkpt><trkpt lat="38.05115492524202" lon="14.987021869630462"><ele>628.0</ele><time>2026-04-29T07:38:23Z</time></trkpt><trkpt lat="38.051243332202" lon="14.986918793029254"><ele>628.0</ele><time>2026-04-29T07:38:24Z</time></trkpt><trkpt lat="38.05132688398717" lon="14.98683251955843"><ele>628.0</ele><time>2026-04-29T07:38:25Z</time></trkpt><trkpt lat="38.0514367970279" lon="14.986786998776122"><ele>628.0</ele><time>2026-04-29T07:38:26Z</time></trkpt><trkpt lat="38.05155677693051" lon="14.986792120040421"><ele>628.0</ele><time>2026-04-29T07:38:27Z</time></trkpt><trkpt lat="38.051696683479776" lon="14.986784316912829"><ele>629.6</ele><time>2026-04-29T07:38:28Z</time></trkpt><trkpt lat="38.05181241570579" lon="14.986783683315753"><ele>631.1999999999999</ele><time>2026-04-29T07:38:29Z</time></trkpt><trkpt lat="38.05191400160409" lon="14.986785038120162"><ele>632.8</ele><time>2026-04-29T07:38:30Z</time></trkpt><trkpt lat="38.052003256110076" lon="14.986841280148381"><ele>634.4</ele><time>2026-04-29T07:38:31Z</time></trkpt><trkpt lat="38.05207718058976" lon="14.986935333671237"><ele>636.0</ele><time>2026-04-29T07:38:32Z</time></trkpt><trkpt lat="38.05214772688499" lon="14.987064947720242"><ele>636.0</ele><time>2026-04-29T07:38:33Z</time></trkpt><trkpt lat="38.05221179337263" lon="14.987213345373842"><ele>636.0</ele><time>2026-04-29T07:38:34Z</time></trkpt><trkpt lat="38.05226627884996" lon="14.987362830924779"><ele>636.0</ele><time>2026-04-29T07:38:35Z</time></trkpt><trkpt lat="38.05229659767076" lon="14.987489618849624"><ele>636.0</ele><time>2026-04-29T07:38:36Z</time></trkpt><trkpt lat="38.05230651595821" lon="14.987577876046366"><ele>636.0</ele><time>2026-04-29T07:38:37Z</time></trkpt><trkpt lat="38.05223696105863" lon="14.987689467870624"><ele>636.0</ele><time>2026-04-29T07:38:39Z</time></trkpt><trkpt lat="38.05215141576223" lon="14.987687583097259"><ele>636.0</ele><time>2026-04-29T07:38:40Z</time></trkpt><trkpt lat="38.05207618556511" lon="14.98758862534816"><ele>636.0</ele><time>2026-04-29T07:38:41Z</time></trkpt><trkpt lat="38.05198171698167" lon="14.987502243432223"><ele>636.0</ele><time>2026-04-29T07:38:42Z</time></trkpt><trkpt lat="38.051885009514955" lon="14.98741395718364"><ele>636.0</ele><time>2026-04-29T07:38:43Z</time></trkpt><trkpt lat="38.05179560330606" lon="14.987333781191602"><ele>636.0</ele><time>2026-04-29T07:38:44Z</time></trkpt><trkpt lat="38.051712596636726" lon="14.987283626868887"><ele>636.0</ele><time>2026-04-29T07:38:45.001Z</time></trkpt><trkpt lat="38.05162225225742" lon="14.987280053899612"><ele>636.0</ele><time>2026-04-29T07:38:46.001Z</time></trkpt><trkpt lat="38.05152455953675" lon="14.987344962062599"><ele>636.0</ele><time>2026-04-29T07:38:47.001Z</time></trkpt><trkpt lat="38.051444469527326" lon="14.987463497928335"><ele>636.0</ele><time>2026-04-29T07:38:48.001Z</time></trkpt><trkpt lat="38.05136849429806" lon="14.987597150816415"><ele>637.25</ele><time>2026-04-29T07:38:49.001Z</time></trkpt><trkpt lat="38.05128830113767" lon="14.987719510414797"><ele>638.5</ele><time>2026-04-29T07:38:50.001Z</time></trkpt><trkpt lat="38.051206514246" lon="14.987845978591823"><ele>639.75</ele><time>2026-04-29T07:38:51.001Z</time></trkpt><trkpt lat="38.05111874030451" lon="14.98798118880756"><ele>641.0</ele><time>2026-04-29T07:38:52.001Z</time></trkpt><trkpt lat="38.05101913680256" lon="14.988132853250926"><ele>641.0</ele><time>2026-04-29T07:38:53.001Z</time></trkpt><trkpt lat="38.05091735209186" lon="14.98828655025068"><ele>641.0</ele><time>2026-04-29T07:38:54.001Z</time></trkpt><trkpt lat="38.05081450249948" lon="14.98843946914229"><ele>641.0</ele><time>2026-04-29T07:38:55.001Z</time></trkpt><trkpt lat="38.050699670162594" lon="14.9885710192826"><ele>642.3333333333333</ele><time>2026-04-29T07:38:56.001Z</time></trkpt><trkpt lat="38.050572353358966" lon="14.988691498704508"><ele>643.6666666666666</ele><time>2026-04-29T07:38:57.001Z</time></trkpt><trkpt lat="38.05043843728777" lon="14.988812834634686"><ele>645.0</ele><time>2026-04-29T07:38:58.001Z</time></trkpt><trkpt lat="38.05031239644337" lon="14.988914678592941"><ele>645.0</ele><time>2026-04-29T07:38:59.001Z</time></trkpt><trkpt lat="38.05019090524658" lon="14.989006142576413"><ele>645.0</ele><time>2026-04-29T07:39:00.001Z</time></trkpt><trkpt lat="38.05008917835779" lon="14.989143755201763"><ele>645.0</ele><time>2026-04-29T07:39:01.001Z</time></trkpt><trkpt lat="38.049990898121145" lon="14.989287997167235"><ele>645.0</ele><time>2026-04-29T07:39:02.001Z</time></trkpt><trkpt lat="38.049886080509296" lon="14.989450092155863"><ele>647.0</ele><time>2026-04-29T07:39:03Z</time></trkpt><trkpt lat="38.04978585665798" lon="14.989621324866118"><ele>649.0</ele><time>2026-04-29T07:39:04Z</time></trkpt><trkpt lat="38.04969289594847" lon="14.989798608531391"><ele>651.0</ele><time>2026-04-29T07:39:05Z</time></trkpt><trkpt lat="38.04960133979458" lon="14.989960095107401"><ele>653.5</ele><time>2026-04-29T07:39:06Z</time></trkpt><trkpt lat="38.04951287952918" lon="14.99010418729138"><ele>656.0</ele><time>2026-04-29T07:39:07Z</time></trkpt><trkpt lat="38.049416882601264" lon="14.990204878211719"><ele>658.5</ele><time>2026-04-29T07:39:08Z</time></trkpt><trkpt lat="38.04930697023733" lon="14.990249343219338"><ele>661.0</ele><time>2026-04-29T07:39:09Z</time></trkpt><trkpt lat="38.04918596019154" lon="14.990244110918555"><ele>661.5</ele><time>2026-04-29T07:39:10Z</time></trkpt><trkpt lat="38.049050253133835" lon="14.99019670355732"><ele>662.0</ele><time>2026-04-29T07:39:11Z</time></trkpt><trkpt lat="38.0489131169321" lon="14.990146040803257"><ele>662.5</ele><time>2026-04-29T07:39:12Z</time></trkpt><trkpt lat="38.04877369746847" lon="14.990144388618141"><ele>663.0</ele><time>2026-04-29T07:39:13Z</time></trkpt><trkpt lat="38.0486341167481" lon="14.990178237216245"><ele>663.0</ele><time>2026-04-29T07:39:14Z</time></trkpt><trkpt lat="38.04849786662514" lon="14.990284558832643"><ele>663.0</ele><time>2026-04-29T07:39:15Z</time></trkpt><trkpt lat="38.04835600954345" lon="14.990364567593174"><ele>663.0</ele><time>2026-04-29T07:39:16Z</time></trkpt><trkpt lat="38.04823392505957" lon="14.990448265365957"><ele>665.0</ele><time>2026-04-29T07:39:17Z</time></trkpt><trkpt lat="38.04812405073478" lon="14.990514805403789"><ele>667.0</ele><time>2026-04-29T07:39:18Z</time></trkpt><trkpt lat="38.04801880067338" lon="14.990522634084376"><ele>669.0</ele><time>2026-04-29T07:39:19Z</time></trkpt><trkpt lat="38.047923310472974" lon="14.990475328951105"><ele>671.0</ele><time>2026-04-29T07:39:20Z</time></trkpt><trkpt lat="38.04783560825311" lon="14.990391491083836"><ele>673.0</ele><time>2026-04-29T07:39:21Z</time></trkpt><trkpt lat="38.04771958879207" lon="14.99029690505735"><ele>673.0</ele><time>2026-04-29T07:39:22Z</time></trkpt><trkpt lat="38.04761017030422" lon="14.990187545455793"><ele>673.0</ele><time>2026-04-29T07:39:23Z</time></trkpt><trkpt lat="38.04749911146989" lon="14.990120169992917"><ele>673.0</ele><time>2026-04-29T07:39:24Z</time></trkpt><trkpt lat="38.0473854955987" lon="14.990107295225043"><ele>673.0</ele><time>2026-04-29T07:39:25Z</time></trkpt><trkpt lat="38.04726390157843" lon="14.990158925809657"><ele>675.3333333333334</ele><time>2026-04-29T07:39:26Z</time></trkpt><trkpt lat="38.04714087289808" lon="14.990271257646967"><ele>677.6666666666666</ele><time>2026-04-29T07:39:27Z</time></trkpt><trkpt lat="38.04700323771073" lon="14.990360392308371"><ele>680.0</ele><time>2026-04-29T07:39:28Z</time></trkpt><trkpt lat="38.04687604353476" lon="14.990445187150009"><ele>680.0</ele><time>2026-04-29T07:39:29Z</time></trkpt><trkpt lat="38.04674290420973" lon="14.99050982424666"><ele>680.0</ele><time>2026-04-29T07:39:30Z</time></trkpt><trkpt lat="38.04660546629781" lon="14.990543790428298"><ele>680.0</ele><time>2026-04-29T07:39:31Z</time></trkpt><trkpt lat="38.04647577993058" lon="14.990535609127093"><ele>680.0</ele><time>2026-04-29T07:39:32Z</time></trkpt><trkpt lat="38.04634095101222" lon="14.990507555898002"><ele>682.0</ele><time>2026-04-29T07:39:33Z</time></trkpt><trkpt lat="38.04620467508903" lon="14.9904657541586"><ele>684.0</ele><time>2026-04-29T07:39:34Z</time></trkpt><trkpt lat="38.04608227130478" lon="14.99042585777852"><ele>686.0</ele><time>2026-04-29T07:39:35Z</time></trkpt><trkpt lat="38.045974295796135" lon="14.990386943955428"><ele>688.0</ele><time>2026-04-29T07:39:36Z</time></trkpt><trkpt lat="38.04589453264755" lon="14.990329538821012"><ele>688.0</ele><time>2026-04-29T07:39:37Z</time></trkpt><trkpt lat="38.04582393847146" lon="14.99023676055441"><ele>688.0</ele><time>2026-04-29T07:39:38Z</time></trkpt><trkpt lat="38.045776565963095" lon="14.990098388345583"><ele>688.0</ele><time>2026-04-29T07:39:39Z</time></trkpt><trkpt lat="38.045757161717475" lon="14.989944573121413"><ele>688.0</ele><time>2026-04-29T07:39:40Z</time></trkpt><trkpt lat="38.045736792099596" lon="14.989786319405722"><ele>687.8</ele><time>2026-04-29T07:39:41Z</time></trkpt><trkpt lat="38.04571786662542" lon="14.989652915618823"><ele>687.5999999999999</ele><time>2026-04-29T07:39:42Z</time></trkpt><trkpt lat="38.04572184929166" lon="14.98952280847278"><ele>687.4000000000001</ele><time>2026-04-29T07:39:43Z</time></trkpt><trkpt lat="38.045802616526224" lon="14.989426287886038"><ele>687.2</ele><time>2026-04-29T07:39:44Z</time></trkpt><trkpt lat="38.04586554436324" lon="14.989292214818466"><ele>687.0</ele><time>2026-04-29T07:39:45Z</time></trkpt><trkpt lat="38.04591497023331" lon="14.989163756492482"><ele>687.0</ele><time>2026-04-29T07:39:46Z</time></trkpt><trkpt lat="38.045929863236395" lon="14.989001910144111"><ele>687.0</ele><time>2026-04-29T07:39:47Z</time></trkpt><trkpt lat="38.04595202540393" lon="14.988835532099294"><ele>687.0</ele><time>2026-04-29T07:39:48Z</time></trkpt><trkpt lat="38.04598381835641" lon="14.988684470850355"><ele>687.0</ele><time>2026-04-29T07:39:49Z</time></trkpt><trkpt lat="38.0459953612662" lon="14.988534101852848"><ele>687.0</ele><time>2026-04-29T07:39:50Z</time></trkpt><trkpt lat="38.04595980980979" lon="14.988365324601578"><ele>687.0</ele><time>2026-04-29T07:39:51Z</time></trkpt><trkpt lat="38.04589496092706" lon="14.988187392436613"><ele>687.0</ele><time>2026-04-29T07:39:52Z</time></trkpt><trkpt lat="38.045818790575886" lon="14.98799745853938"><ele>693.6666666666666</ele><time>2026-04-29T07:39:53Z</time></trkpt><trkpt lat="38.045753788968575" lon="14.987800157803532"><ele>700.3333333333333</ele><time>2026-04-29T07:39:54Z</time></trkpt><trkpt lat="38.04568371120231" lon="14.987610547503184"><ele>707.0</ele><time>2026-04-29T07:39:55Z</time></trkpt><trkpt lat="38.045591287128424" lon="14.987421524324692"><ele>707.0</ele><time>2026-04-29T07:39:56Z</time></trkpt><trkpt lat="38.045490500792255" lon="14.987247942554191"><ele>707.0</ele><time>2026-04-29T07:39:57Z</time></trkpt><trkpt lat="38.04541985991524" lon="14.987073796008424"><ele>707.0</ele><time>2026-04-29T07:39:58Z</time></trkpt><trkpt lat="38.04536310021643" lon="14.98689138631028"><ele>707.0</ele><time>2026-04-29T07:39:59Z</time></trkpt><trkpt lat="38.045293749984054" lon="14.98671778663911"><ele>707.0</ele><time>2026-04-29T07:40:00Z</time></trkpt><trkpt lat="38.04520026725325" lon="14.986579357861077"><ele>707.0</ele><time>2026-04-29T07:40:01Z</time></trkpt><trkpt lat="38.04508994350163" lon="14.986468310828574"><ele>707.0</ele><time>2026-04-29T07:40:02Z</time></trkpt><trkpt lat="38.04495811165052" lon="14.986380582444093"><ele>709.3333333333333</ele><time>2026-04-29T07:40:03Z</time></trkpt><trkpt lat="38.04480207310018" lon="14.98631719702776"><ele>711.6666666666666</ele><time>2026-04-29T07:40:04Z</time></trkpt><trkpt lat="38.04463461508801" lon="14.986245394367032"><ele>714.0</ele><time>2026-04-29T07:40:05Z</time></trkpt><trkpt lat="38.04447876073768" lon="14.986181790253095"><ele>714.0</ele><time>2026-04-29T07:40:06Z</time></trkpt><trkpt lat="38.04433276275688" lon="14.98612220855134"><ele>714.0</ele><time>2026-04-29T07:40:07Z</time></trkpt><trkpt lat="38.04419121459844" lon="14.986060126477861"><ele>714.0</ele><time>2026-04-29T07:40:08Z</time></trkpt><trkpt lat="38.04406429858291" lon="14.985991414180528"><ele>714.0</ele><time>2026-04-29T07:40:09Z</time></trkpt><trkpt lat="38.043966822639106" lon="14.985898933488231"><ele>715.0</ele><time>2026-04-29T07:40:10Z</time></trkpt><trkpt lat="38.043899322149414" lon="14.985770145488221"><ele>716.0</ele><time>2026-04-29T07:40:11Z</time></trkpt><trkpt lat="38.04386024835827" lon="14.985625265535875"><ele>717.0</ele><time>2026-04-29T07:40:12Z</time></trkpt><trkpt lat="38.043847500019325" lon="14.985462174541931"><ele>718.0</ele><time>2026-04-29T07:40:13Z</time></trkpt><trkpt lat="38.043877704374616" lon="14.985292802912317"><ele>718.0</ele><time>2026-04-29T07:40:14Z</time></trkpt><trkpt lat="38.04390193393427" lon="14.985148376729978"><ele>718.0</ele><time>2026-04-29T07:40:15Z</time></trkpt><trkpt lat="38.04389666843349" lon="14.98502453493849"><ele>718.0</ele><time>2026-04-29T07:40:16Z</time></trkpt><trkpt lat="38.04385460855173" lon="14.984924063355061"><ele>718.0</ele><time>2026-04-29T07:40:17Z</time></trkpt><trkpt lat="38.04377558337032" lon="14.984860976232214"><ele>718.0</ele><time>2026-04-29T07:40:18Z</time></trkpt><trkpt lat="38.043678056637866" lon="14.984853988041815"><ele>718.0</ele><time>2026-04-29T07:40:19Z</time></trkpt><trkpt lat="38.04359709375727" lon="14.98486242611707"><ele>718.0</ele><time>2026-04-29T07:40:20Z</time></trkpt><trkpt lat="38.04353524227138" lon="14.984953460621677"><ele>718.0</ele><time>2026-04-29T07:40:21Z</time></trkpt><trkpt lat="38.0435163527089" lon="14.985060025926913"><ele>718.0</ele><time>2026-04-29T07:40:22Z</time></trkpt><trkpt lat="38.04352089995816" lon="14.985166082095992"><ele>718.0</ele><time>2026-04-29T07:40:23Z</time></trkpt><trkpt lat="38.04355191157808" lon="14.98529451953117"><ele>718.0</ele><time>2026-04-29T07:40:24Z</time></trkpt><trkpt lat="38.043602048224834" lon="14.985424307577222"><ele>718.0</ele><time>2026-04-29T07:40:25Z</time></trkpt><trkpt lat="38.0436501257184" lon="14.98555181106358"><ele>718.0</ele><time>2026-04-29T07:40:26Z</time></trkpt><trkpt lat="38.04368040112153" lon="14.985699931589304"><ele>718.0</ele><time>2026-04-29T07:40:27Z</time></trkpt><trkpt lat="38.04373041576413" lon="14.985864309110738"><ele>720.75</ele><time>2026-04-29T07:40:28Z</time></trkpt><trkpt lat="38.04378277209884" lon="14.986039678747582"><ele>723.5</ele><time>2026-04-29T07:40:29Z</time></trkpt><trkpt lat="38.04383737841434" lon="14.986215042114203"><ele>726.25</ele><time>2026-04-29T07:40:30Z</time></trkpt><trkpt lat="38.04389907528176" lon="14.98636313165368"><ele>729.0</ele><time>2026-04-29T07:40:31Z</time></trkpt><trkpt lat="38.04396472919405" lon="14.98649778652861"><ele>729.0</ele><time>2026-04-29T07:40:32Z</time></trkpt><trkpt lat="38.044076344629076" lon="14.986607183494582"><ele>729.0</ele><time>2026-04-29T07:40:33Z</time></trkpt><trkpt lat="38.0441982640762" lon="14.986693542510475"><ele>729.0</ele><time>2026-04-29T07:40:34Z</time></trkpt><trkpt lat="38.04432896281025" lon="14.986765562806623"><ele>729.0</ele><time>2026-04-29T07:40:35Z</time></trkpt><trkpt lat="38.04445102911646" lon="14.986841560242231"><ele>729.0</ele><time>2026-04-29T07:40:36Z</time></trkpt><trkpt lat="38.04457233176651" lon="14.986927600561904"><ele>729.0</ele><time>2026-04-29T07:40:37Z</time></trkpt><trkpt lat="38.04467589485481" lon="14.987037661598611"><ele>729.0</ele><time>2026-04-29T07:40:38Z</time></trkpt><trkpt lat="38.044759362038455" lon="14.987155594723493"><ele>729.0</ele><time>2026-04-29T07:40:39Z</time></trkpt><trkpt lat="38.04480888615587" lon="14.98728763536916"><ele>729.0</ele><time>2026-04-29T07:40:40Z</time></trkpt><trkpt lat="38.04482858015922" lon="14.987437159586582"><ele>729.0</ele><time>2026-04-29T07:40:41Z</time></trkpt><trkpt lat="38.044845933385346" lon="14.98761155859933"><ele>729.0</ele><time>2026-04-29T07:40:42Z</time></trkpt><trkpt lat="38.0448632344565" lon="14.987781917976509"><ele>729.0</ele><time>2026-04-29T07:40:43Z</time></trkpt><trkpt lat="38.044879706520064" lon="14.987947592317258"><ele>728.25</ele><time>2026-04-29T07:40:44Z</time></trkpt><trkpt lat="38.04489735362838" lon="14.988107610174112"><ele>727.5</ele><time>2026-04-29T07:40:45Z</time></trkpt><trkpt lat="38.04492860220449" lon="14.9882833038047"><ele>726.75</ele><time>2026-04-29T07:40:46Z</time></trkpt><trkpt lat="38.04500517543243" lon="14.988453296642316"><ele>726.0</ele><time>2026-04-29T07:40:46.999Z</time></trkpt><trkpt lat="38.045078959112466" lon="14.988618666621306"><ele>726.0</ele><time>2026-04-29T07:40:47.999Z</time></trkpt><trkpt lat="38.045098988145725" lon="14.988788910065546"><ele>726.0</ele><time>2026-04-29T07:40:48.999Z</time></trkpt><trkpt lat="38.0451031348446" lon="14.98895519854338"><ele>726.0</ele><time>2026-04-29T07:40:49.999Z</time></trkpt><trkpt lat="38.04509606080513" lon="14.989126296802887"><ele>726.0</ele><time>2026-04-29T07:40:51.001Z</time></trkpt><trkpt lat="38.04506894047189" lon="14.989271963620487"><ele>723.5</ele><time>2026-04-29T07:40:52.001Z</time></trkpt><trkpt lat="38.04501442049307" lon="14.989386167444957"><ele>721.0</ele><time>2026-04-29T07:40:53.001Z</time></trkpt><trkpt lat="38.04493165711479" lon="14.98948963851212"><ele>718.5</ele><time>2026-04-29T07:40:54.001Z</time></trkpt><trkpt lat="38.04483974948951" lon="14.989614301804934"><ele>716.0</ele><time>2026-04-29T07:40:55.001Z</time></trkpt><trkpt lat="38.04474452545642" lon="14.989752317172591"><ele>723.5</ele><time>2026-04-29T07:40:56.001Z</time></trkpt><trkpt lat="38.044668118180105" lon="14.98990089441054"><ele>731.0</ele><time>2026-04-29T07:40:57.001Z</time></trkpt><trkpt lat="38.04462701329063" lon="14.990061505398023"><ele>738.5</ele><time>2026-04-29T07:40:58.001Z</time></trkpt><trkpt lat="38.04462979820967" lon="14.990246449340379"><ele>746.0</ele><time>2026-04-29T07:40:59.001Z</time></trkpt><trkpt lat="38.04466833844698" lon="14.990438417618586"><ele>746.5</ele><time>2026-04-29T07:41:00.001Z</time></trkpt><trkpt lat="38.04468273486493" lon="14.990624443472912"><ele>747.0</ele><time>2026-04-29T07:41:01.001Z</time></trkpt><trkpt lat="38.04466920807368" lon="14.990792290589953"><ele>747.5</ele><time>2026-04-29T07:41:02.001Z</time></trkpt><trkpt lat="38.04464966183805" lon="14.990952950900747"><ele>748.0</ele><time>2026-04-29T07:41:03.001Z</time></trkpt><trkpt lat="38.044623694610266" lon="14.991115290317321"><ele>749.0</ele><time>2026-04-29T07:41:04.001Z</time></trkpt><trkpt lat="38.044585139334885" lon="14.99127596333956"><ele>750.0</ele><time>2026-04-29T07:41:05.001Z</time></trkpt><trkpt lat="38.04452144972171" lon="14.991433564169206"><ele>751.0</ele><time>2026-04-29T07:41:06.001Z</time></trkpt><trkpt lat="38.04444871417338" lon="14.99160047737104"><ele>752.0</ele><time>2026-04-29T07:41:07Z</time></trkpt><trkpt lat="38.04437571230378" lon="14.9917640844594"><ele>752.0</ele><time>2026-04-29T07:41:08Z</time></trkpt><trkpt lat="38.04430757298941" lon="14.99192598460625"><ele>752.0</ele><time>2026-04-29T07:41:09Z</time></trkpt><trkpt lat="38.04425746070245" lon="14.992097081549106"><ele>752.0</ele><time>2026-04-29T07:41:10Z</time></trkpt><trkpt lat="38.04424732851745" lon="14.992279252357635"><ele>752.0</ele><time>2026-04-29T07:41:11Z</time></trkpt><trkpt lat="38.04425606568834" lon="14.992478821601"><ele>751.3333333333333</ele><time>2026-04-29T07:41:12Z</time></trkpt><trkpt lat="38.04424609590806" lon="14.992708858737618"><ele>750.6666666666666</ele><time>2026-04-29T07:41:13Z</time></trkpt><trkpt lat="38.04423630368217" lon="14.99293820865571"><ele>750.0</ele><time>2026-04-29T07:41:14Z</time></trkpt><trkpt lat="38.04422347692513" lon="14.993164668718599"><ele>749.6666666666666</ele><time>2026-04-29T07:41:15Z</time></trkpt><trkpt lat="38.04421134655666" lon="14.993378834197983"><ele>749.3333333333333</ele><time>2026-04-29T07:41:16Z</time></trkpt><trkpt lat="38.04419971299894" lon="14.993584228125227"><ele>749.0</ele><time>2026-04-29T07:41:17Z</time></trkpt><trkpt lat="38.044188397468695" lon="14.993784197296629"><ele>749.0</ele><time>2026-04-29T07:41:18Z</time></trkpt><trkpt lat="38.04417979249362" lon="14.993956808528747"><ele>749.0</ele><time>2026-04-29T07:41:19Z</time></trkpt><trkpt lat="38.044168494753364" lon="14.994107724256866"><ele>749.0</ele><time>2026-04-29T07:41:20Z</time></trkpt><trkpt lat="38.04415043003393" lon="14.994223556198298"><ele>749.0</ele><time>2026-04-29T07:41:21Z</time></trkpt><trkpt lat="38.04410973437903" lon="14.994308368447689"><ele>749.0</ele><time>2026-04-29T07:41:22Z</time></trkpt><trkpt lat="38.04403719331414" lon="14.994368354072794"><ele>746.25</ele><time>2026-04-29T07:41:23Z</time></trkpt><trkpt lat="38.04393876544984" lon="14.9944080942887"><ele>743.5</ele><time>2026-04-29T07:41:24Z</time></trkpt><trkpt lat="38.04381810996508" lon="14.994398826278731"><ele>740.75</ele><time>2026-04-29T07:41:25Z</time></trkpt><trkpt lat="38.04366194782035" lon="14.994390549750669"><ele>738.0</ele><time>2026-04-29T07:41:26Z</time></trkpt><trkpt lat="38.04349871360183" lon="14.994396887147595"><ele>738.0</ele><time>2026-04-29T07:41:27Z</time></trkpt><trkpt lat="38.04331494183411" lon="14.994380913952664"><ele>738.0</ele><time>2026-04-29T07:41:28Z</time></trkpt><trkpt lat="38.04315455146351" lon="14.994336153624504"><ele>738.0</ele><time>2026-04-29T07:41:29Z</time></trkpt><trkpt lat="38.04301250231282" lon="14.994314646858871"><ele>741.0</ele><time>2026-04-29T07:41:30Z</time></trkpt><trkpt lat="38.04288130798973" lon="14.994281690873303"><ele>744.0</ele><time>2026-04-29T07:41:31Z</time></trkpt><trkpt lat="38.04277049397805" lon="14.994210595905725"><ele>747.0</ele><time>2026-04-29T07:41:32Z</time></trkpt><trkpt lat="38.0426628340375" lon="14.99410478161365"><ele>750.0</ele><time>2026-04-29T07:41:33Z</time></trkpt><trkpt lat="38.04254047206729" lon="14.993983163779795"><ele>743.0</ele><time>2026-04-29T07:41:34Z</time></trkpt><trkpt lat="38.042430173402124" lon="14.993825625024627"><ele>736.0</ele><time>2026-04-29T07:41:35Z</time></trkpt><trkpt lat="38.04232313594753" lon="14.99366129878596"><ele>729.0</ele><time>2026-04-29T07:41:36Z</time></trkpt><trkpt lat="38.04221857441049" lon="14.993488267351177"><ele>736.0</ele><time>2026-04-29T07:41:37Z</time></trkpt><trkpt lat="38.04209993494059" lon="14.993328687925025"><ele>743.0</ele><time>2026-04-29T07:41:38Z</time></trkpt><trkpt lat="38.0419667353008" lon="14.99319007805382"><ele>750.0</ele><time>2026-04-29T07:41:39Z</time></trkpt><trkpt lat="38.04184339287165" lon="14.99306897815199"><ele>750.0</ele><time>2026-04-29T07:41:40Z</time></trkpt><trkpt lat="38.04173525705204" lon="14.992955342934172"><ele>750.0</ele><time>2026-04-29T07:41:41Z</time></trkpt><trkpt lat="38.04163071523644" lon="14.992836689731458"><ele>750.0</ele><time>2026-04-29T07:41:42Z</time></trkpt><trkpt lat="38.041526919488795" lon="14.992699932647424"><ele>750.0</ele><time>2026-04-29T07:41:43Z</time></trkpt><trkpt lat="38.041448750492634" lon="14.99252600790754"><ele>750.0</ele><time>2026-04-29T07:41:44Z</time></trkpt><trkpt lat="38.04137709348998" lon="14.992338140159625"><ele>750.0</ele><time>2026-04-29T07:41:45Z</time></trkpt><trkpt lat="38.04129349877083" lon="14.992142158878613"><ele>750.0</ele><time>2026-04-29T07:41:46Z</time></trkpt><trkpt lat="38.04122462917972" lon="14.991930744093587"><ele>750.0</ele><time>2026-04-29T07:41:47Z</time></trkpt><trkpt lat="38.04115188908533" lon="14.991735278246725"><ele>750.0</ele><time>2026-04-29T07:41:48Z</time></trkpt><trkpt lat="38.04109153806559" lon="14.99154576723952"><ele>750.0</ele><time>2026-04-29T07:41:49Z</time></trkpt><trkpt lat="38.04103926053902" lon="14.991347403290648"><ele>754.3333333333334</ele><time>2026-04-29T07:41:50Z</time></trkpt><trkpt lat="38.040994192335894" lon="14.991138190897063"><ele>758.6666666666667</ele><time>2026-04-29T07:41:51Z</time></trkpt><trkpt lat="38.04094421286978" lon="14.990922249225349"><ele>763.0</ele><time>2026-04-29T07:41:52Z</time></trkpt><trkpt lat="38.04087984317683" lon="14.990707590281376"><ele>762.6666666666667</ele><time>2026-04-29T07:41:53Z</time></trkpt><trkpt lat="38.0407918278253" lon="14.990496321742175"><ele>762.3333333333334</ele><time>2026-04-29T07:41:54Z</time></trkpt><trkpt lat="38.04069616506798" lon="14.990286568050566"><ele>762.0</ele><time>2026-04-29T07:41:55Z</time></trkpt><trkpt lat="38.04060765196391" lon="14.990088517314303"><ele>765.0</ele><time>2026-04-29T07:41:56Z</time></trkpt><trkpt lat="38.04052815319372" lon="14.989900477451693"><ele>768.0</ele><time>2026-04-29T07:41:57Z</time></trkpt><trkpt lat="38.04045252197857" lon="14.98971924948733"><ele>771.0</ele><time>2026-04-29T07:41:58Z</time></trkpt><trkpt lat="38.04038272516188" lon="14.989537932228876"><ele>771.0</ele><time>2026-04-29T07:41:59Z</time></trkpt><trkpt lat="38.04029908841051" lon="14.98936284539928"><ele>771.0</ele><time>2026-04-29T07:42:00Z</time></trkpt><trkpt lat="38.040212159070634" lon="14.989211430392809"><ele>771.0</ele><time>2026-04-29T07:42:01Z</time></trkpt><trkpt lat="38.040097116383755" lon="14.98909251985291"><ele>775.3333333333333</ele><time>2026-04-29T07:42:02Z</time></trkpt><trkpt lat="38.039960986736695" lon="14.988994218653886"><ele>779.6666666666666</ele><time>2026-04-29T07:42:03Z</time></trkpt><trkpt lat="38.03981498945952" lon="14.988917717890457"><ele>784.0</ele><time>2026-04-29T07:42:04Z</time></trkpt><trkpt lat="38.039674765304966" lon="14.988862238223874"><ele>784.0</ele><time>2026-04-29T07:42:05Z</time></trkpt><trkpt lat="38.039532031416904" lon="14.988812504648001"><ele>784.0</ele><time>2026-04-29T07:42:06Z</time></trkpt><trkpt lat="38.039380479154424" lon="14.988774965890135"><ele>784.0</ele><time>2026-04-29T07:42:07Z</time></trkpt><trkpt lat="38.03922474634812" lon="14.988761564758722"><ele>785.75</ele><time>2026-04-29T07:42:08Z</time></trkpt><trkpt lat="38.03907304296931" lon="14.988773876352415"><ele>787.5</ele><time>2026-04-29T07:42:09Z</time></trkpt><trkpt lat="38.03893577612203" lon="14.988808097831164"><ele>789.25</ele><time>2026-04-29T07:42:10Z</time></trkpt><trkpt lat="38.03881992453227" lon="14.98888410962264"><ele>791.0</ele><time>2026-04-29T07:42:11Z</time></trkpt><trkpt lat="38.038722548698324" lon="14.989018058802996"><ele>793.6666666666667</ele><time>2026-04-29T07:42:12Z</time></trkpt><trkpt lat="38.038651726976795" lon="14.98919004315962"><ele>796.3333333333333</ele><time>2026-04-29T07:42:13Z</time></trkpt><trkpt lat="38.038611232034434" lon="14.989375735048995"><ele>799.0</ele><time>2026-04-29T07:42:14Z</time></trkpt><trkpt lat="38.038591566426604" lon="14.989578134163745"><ele>799.0</ele><time>2026-04-29T07:42:15Z</time></trkpt><trkpt lat="38.03859079565122" lon="14.989801496135904"><ele>799.0</ele><time>2026-04-29T07:42:16Z</time></trkpt><trkpt lat="38.03858432394305" lon="14.990024186798676"><ele>799.0</ele><time>2026-04-29T07:42:17Z</time></trkpt><trkpt lat="38.038585961822065" lon="14.990209890819507"><ele>799.2</ele><time>2026-04-29T07:42:18Z</time></trkpt><trkpt lat="38.03858282086041" lon="14.990353465130006"><ele>799.4000000000001</ele><time>2026-04-29T07:42:19Z</time></trkpt><trkpt lat="38.038556878061925" lon="14.990466230454459"><ele>799.6</ele><time>2026-04-29T07:42:20Z</time></trkpt><trkpt lat="38.03850149167538" lon="14.990559876308838"><ele>799.8</ele><time>2026-04-29T07:42:21Z</time></trkpt><trkpt lat="38.03841586040342" lon="14.990657210018759"><ele>800.0</ele><time>2026-04-29T07:42:22Z</time></trkpt><trkpt lat="38.03830633612984" lon="14.990774847642943"><ele>807.75</ele><time>2026-04-29T07:42:23Z</time></trkpt><trkpt lat="38.03823017333059" lon="14.990908897252673"><ele>815.5</ele><time>2026-04-29T07:42:24Z</time></trkpt><trkpt lat="38.03818017495667" lon="14.991038542077122"><ele>823.25</ele><time>2026-04-29T07:42:25Z</time></trkpt><trkpt lat="38.038183309972275" lon="14.99123741336623"><ele>831.0</ele><time>2026-04-29T07:42:26Z</time></trkpt><trkpt lat="38.03820742951137" lon="14.991414364388834"><ele>831.0</ele><time>2026-04-29T07:42:27Z</time></trkpt><trkpt lat="38.038174919883744" lon="14.991572100208309"><ele>831.0</ele><time>2026-04-29T07:42:28Z</time></trkpt><trkpt lat="38.03813392650919" lon="14.991676860997272"><ele>831.0</ele><time>2026-04-29T07:42:29Z</time></trkpt><trkpt lat="38.03804074874742" lon="14.991769402909624"><ele>831.0</ele><time>2026-04-29T07:42:30Z</time></trkpt><trkpt lat="38.03798132668615" lon="14.991892369989218"><ele>830.0</ele><time>2026-04-29T07:42:31Z</time></trkpt><trkpt lat="38.03800238213137" lon="14.992038384697615"><ele>829.0</ele><time>2026-04-29T07:42:32Z</time></trkpt><trkpt lat="38.03806413149415" lon="14.99219513546071"><ele>828.0</ele><time>2026-04-29T07:42:33Z</time></trkpt><trkpt lat="38.038073031175294" lon="14.992343116046445"><ele>827.0</ele><time>2026-04-29T07:42:34Z</time></trkpt><trkpt lat="38.03806029829054" lon="14.992498088093676"><ele>822.5</ele><time>2026-04-29T07:42:35Z</time></trkpt><trkpt lat="38.038029475113035" lon="14.992663716029218"><ele>818.0</ele><time>2026-04-29T07:42:36Z</time></trkpt><trkpt lat="38.03797799705262" lon="14.992801219362727"><ele>813.5</ele><time>2026-04-29T07:42:37Z</time></trkpt><trkpt lat="38.03791096546515" lon="14.99292628180565"><ele>809.0</ele><time>2026-04-29T07:42:38Z</time></trkpt><trkpt lat="38.03782584755384" lon="14.993046819462254"><ele>809.0</ele><time>2026-04-29T07:42:39Z</time></trkpt><trkpt lat="38.037736754768204" lon="14.993172586313985"><ele>809.0</ele><time>2026-04-29T07:42:40Z</time></trkpt><trkpt lat="38.0376658606348" lon="14.99328835299998"><ele>809.0</ele><time>2026-04-29T07:42:41Z</time></trkpt><trkpt lat="38.037608543683845" lon="14.993364171138298"><ele>809.0</ele><time>2026-04-29T07:42:42Z</time></trkpt><trkpt lat="38.03752961015704" lon="14.993417241205155"><ele>809.0</ele><time>2026-04-29T07:42:43Z</time></trkpt><trkpt lat="38.03744342267703" lon="14.993420712540882"><ele>807.25</ele><time>2026-04-29T07:42:44Z</time></trkpt><trkpt lat="38.037367747773104" lon="14.993322024715118"><ele>805.5</ele><time>2026-04-29T07:42:45Z</time></trkpt><trkpt lat="38.037269815722176" lon="14.993228664913874"><ele>803.75</ele><time>2026-04-29T07:42:46Z</time></trkpt><trkpt lat="38.03717446975489" lon="14.99313182952131"><ele>802.0</ele><time>2026-04-29T07:42:47Z</time></trkpt><trkpt lat="38.03705311020719" lon="14.993104215201258"><ele>802.0</ele><time>2026-04-29T07:42:48Z</time></trkpt><trkpt lat="38.03692751609106" lon="14.993139377601107"><ele>802.0</ele><time>2026-04-29T07:42:49Z</time></trkpt><trkpt lat="38.03681844713844" lon="14.99316091892618"><ele>802.0</ele><time>2026-04-29T07:42:50Z</time></trkpt><trkpt lat="38.03673033301608" lon="14.993145602545548"><ele>802.0</ele><time>2026-04-29T07:42:51Z</time></trkpt><trkpt lat="38.0366610943655" lon="14.993089260884073"><ele>802.0</ele><time>2026-04-29T07:42:51.999Z</time></trkpt><trkpt lat="38.03662089849331" lon="14.99296621662881"><ele>798.75</ele><time>2026-04-29T07:42:52.999Z</time></trkpt><trkpt lat="38.036584514892766" lon="14.992841552722389"><ele>795.5</ele><time>2026-04-29T07:42:53.999Z</time></trkpt><trkpt lat="38.03651803061394" lon="14.992728757586628"><ele>792.25</ele><time>2026-04-29T07:42:54.999Z</time></trkpt><trkpt lat="38.03640865359934" lon="14.992639452372549"><ele>789.0</ele><time>2026-04-29T07:42:55.999Z</time></trkpt><trkpt lat="38.036258945510575" lon="14.992575995097194"><ele>789.0</ele><time>2026-04-29T07:42:57Z</time></trkpt><trkpt lat="38.03610527295704" lon="14.992523261742317"><ele>789.0</ele><time>2026-04-29T07:42:58.001Z</time></trkpt><trkpt lat="38.035959435955" lon="14.992477412177529"><ele>789.0</ele><time>2026-04-29T07:42:59Z</time></trkpt><trkpt lat="38.03580554683499" lon="14.992449305119205"><ele>791.75</ele><time>2026-04-29T07:43:00Z</time></trkpt><trkpt lat="38.03565343179978" lon="14.992500224173632"><ele>794.5</ele><time>2026-04-29T07:43:01.001Z</time></trkpt><trkpt lat="38.03553260828506" lon="14.992553659357382"><ele>797.25</ele><time>2026-04-29T07:43:02Z</time></trkpt><trkpt lat="38.03543309625136" lon="14.992571953927605"><ele>800.0</ele><time>2026-04-29T07:43:03Z</time></trkpt><trkpt lat="38.03534224971685" lon="14.992522673442432"><ele>806.75</ele><time>2026-04-29T07:43:04.001Z</time></trkpt><trkpt lat="38.03524553609274" lon="14.992413788011707"><ele>813.5</ele><time>2026-04-29T07:43:05.001Z</time></trkpt><trkpt lat="38.03513665521578" lon="14.992346591045575"><ele>820.25</ele><time>2026-04-29T07:43:06.001Z</time></trkpt><trkpt lat="38.03503349267261" lon="14.992322665865167"><ele>827.0</ele><time>2026-04-29T07:43:07.001Z</time></trkpt><trkpt lat="38.03492896468595" lon="14.992319641368699"><ele>828.5</ele><time>2026-04-29T07:43:08.001Z</time></trkpt><trkpt lat="38.03482838516503" lon="14.992429870665179"><ele>830.0</ele><time>2026-04-29T07:43:09.001Z</time></trkpt><trkpt lat="38.034755256078064" lon="14.99258402481086"><ele>831.5</ele><time>2026-04-29T07:43:10.001Z</time></trkpt><trkpt lat="38.03465192457052" lon="14.992661547036931"><ele>833.0</ele><time>2026-04-29T07:43:11.001Z</time></trkpt><trkpt lat="38.03452802656054" lon="14.99272456044875"><ele>833.0</ele><time>2026-04-29T07:43:12Z</time></trkpt><trkpt lat="38.03442148247212" lon="14.992722230086514"><ele>833.0</ele><time>2026-04-29T07:43:13Z</time></trkpt><trkpt lat="38.0343091646285" lon="14.992712259468378"><ele>833.0</ele><time>2026-04-29T07:43:14Z</time></trkpt><trkpt lat="38.0342126471152" lon="14.992725352251206"><ele>833.0</ele><time>2026-04-29T07:43:15Z</time></trkpt><trkpt lat="38.03412377711837" lon="14.992821264869653"><ele>833.0</ele><time>2026-04-29T07:43:16Z</time></trkpt><trkpt lat="38.03408897945074" lon="14.992976708641296"><ele>833.0</ele><time>2026-04-29T07:43:17Z</time></trkpt><trkpt lat="38.034099035095174" lon="14.99313458324892"><ele>833.0</ele><time>2026-04-29T07:43:18Z</time></trkpt><trkpt lat="38.03418550666442" lon="14.99327297166599"><ele>833.0</ele><time>2026-04-29T07:43:19Z</time></trkpt><trkpt lat="38.03419473277432" lon="14.993409998096462"><ele>833.0</ele><time>2026-04-29T07:43:20Z</time></trkpt><trkpt lat="38.03418537395945" lon="14.993525690365992"><ele>830.25</ele><time>2026-04-29T07:43:21Z</time></trkpt><trkpt lat="38.034148234631346" lon="14.993644514788334"><ele>827.5</ele><time>2026-04-29T07:43:22Z</time></trkpt><trkpt lat="38.03407854891357" lon="14.993778034440526"><ele>824.75</ele><time>2026-04-29T07:43:23Z</time></trkpt><trkpt lat="38.034027416139665" lon="14.993921983087386"><ele>822.0</ele><time>2026-04-29T07:43:24Z</time></trkpt><trkpt lat="38.033985191473796" lon="14.994084259680827"><ele>821.2</ele><time>2026-04-29T07:43:25Z</time></trkpt><trkpt lat="38.03393376924593" lon="14.99420929118257"><ele>820.4000000000001</ele><time>2026-04-29T07:43:26Z</time></trkpt><trkpt lat="38.0338709124274" lon="14.994311784545651"><ele>819.5999999999999</ele><time>2026-04-29T07:43:27Z</time></trkpt><trkpt lat="38.033780936376786" lon="14.9943308365189"><ele>818.8</ele><time>2026-04-29T07:43:28Z</time></trkpt><trkpt lat="38.03367073801451" lon="14.994316958680338"><ele>818.0</ele><time>2026-04-29T07:43:29Z</time></trkpt><trkpt lat="38.03354576790927" lon="14.994278938568927"><ele>818.0</ele><time>2026-04-29T07:43:30Z</time></trkpt><trkpt lat="38.03340950516178" lon="14.994258263425873"><ele>818.0</ele><time>2026-04-29T07:43:31Z</time></trkpt><trkpt lat="38.033276933825114" lon="14.994257059166975"><ele>818.0</ele><time>2026-04-29T07:43:32Z</time></trkpt><trkpt lat="38.0331447570961" lon="14.994281247626999"><ele>818.0</ele><time>2026-04-29T07:43:33Z</time></trkpt><trkpt lat="38.03302600372683" lon="14.994318533058808"><ele>823.0</ele><time>2026-04-29T07:43:34Z</time></trkpt><trkpt lat="38.03290331476164" lon="14.994331709203209"><ele>828.0</ele><time>2026-04-29T07:43:35Z</time></trkpt><trkpt lat="38.03277119716652" lon="14.994338588967913"><ele>833.0</ele><time>2026-04-29T07:43:36Z</time></trkpt><trkpt lat="38.032636993175764" lon="14.99435227297538"><ele>838.0</ele><time>2026-04-29T07:43:37Z</time></trkpt><trkpt lat="38.0325074542511" lon="14.994432874981571"><ele>834.75</ele><time>2026-04-29T07:43:38Z</time></trkpt><trkpt lat="38.032378591309566" lon="14.994561869331728"><ele>831.5</ele><time>2026-04-29T07:43:39Z</time></trkpt><trkpt lat="38.03227292763341" lon="14.994717125862993"><ele>828.25</ele><time>2026-04-29T07:43:40Z</time></trkpt><trkpt lat="38.03219025585268" lon="14.994828739131869"><ele>825.0</ele><time>2026-04-29T07:43:41Z</time></trkpt><trkpt lat="38.03212045288049" lon="14.994883289978949"><ele>825.0</ele><time>2026-04-29T07:43:42Z</time></trkpt><trkpt lat="38.03205341653915" lon="14.994914587930936"><ele>825.0</ele><time>2026-04-29T07:43:43Z</time></trkpt><trkpt lat="38.03198098883971" lon="14.994834320570257"><ele>825.0</ele><time>2026-04-29T07:43:44Z</time></trkpt><trkpt lat="38.03193786460207" lon="14.994697854245494"><ele>825.0</ele><time>2026-04-29T07:43:45Z</time></trkpt><trkpt lat="38.031901878762454" lon="14.99452911719161"><ele>825.0</ele><time>2026-04-29T07:43:46Z</time></trkpt><trkpt lat="38.03184073189543" lon="14.994391799636364"><ele>825.0</ele><time>2026-04-29T07:43:47Z</time></trkpt><trkpt lat="38.0317767013236" lon="14.994270049698489"><ele>825.0</ele><time>2026-04-29T07:43:48Z</time></trkpt><trkpt lat="38.031715655549405" lon="14.994132645360475"><ele>825.0</ele><time>2026-04-29T07:43:49Z</time></trkpt><trkpt lat="38.03165642408921" lon="14.993971795951838"><ele>825.0</ele><time>2026-04-29T07:43:50Z</time></trkpt><trkpt lat="38.031601577526644" lon="14.993800947907896"><ele>831.0</ele><time>2026-04-29T07:43:51Z</time></trkpt><trkpt lat="38.031556278425214" lon="14.993653491473527"><ele>837.0</ele><time>2026-04-29T07:43:52Z</time></trkpt><trkpt lat="38.03155327344982" lon="14.993515156420454"><ele>843.0</ele><time>2026-04-29T07:43:53Z</time></trkpt><trkpt lat="38.03162773614412" lon="14.993390782083953"><ele>849.0</ele><time>2026-04-29T07:43:54Z</time></trkpt><trkpt lat="38.0317000386513" lon="14.993240601919323"><ele>849.0</ele><time>2026-04-29T07:43:55Z</time></trkpt><trkpt lat="38.03178331653681" lon="14.993088259037862"><ele>849.0</ele><time>2026-04-29T07:43:56Z</time></trkpt><trkpt lat="38.0318509444293" lon="14.992942750948918"><ele>849.0</ele><time>2026-04-29T07:43:57Z</time></trkpt><trkpt lat="38.03192594139639" lon="14.992808194806619"><ele>849.0</ele><time>2026-04-29T07:43:58Z</time></trkpt><trkpt lat="38.03201342143438" lon="14.992692438315242"><ele>849.0</ele><time>2026-04-29T07:43:59Z</time></trkpt><trkpt lat="38.03208644547323" lon="14.992593802176138"><ele>849.0</ele><time>2026-04-29T07:44:00Z</time></trkpt><trkpt lat="38.03212588404473" lon="14.992492535548946"><ele>849.0</ele><time>2026-04-29T07:44:01Z</time></trkpt><trkpt lat="38.03212537883415" lon="14.992370957602011"><ele>849.0</ele><time>2026-04-29T07:44:02Z</time></trkpt><trkpt lat="38.03208004645164" lon="14.992250329342504"><ele>849.0</ele><time>2026-04-29T07:44:03Z</time></trkpt><trkpt lat="38.032001389422994" lon="14.992154971985423"><ele>850.5</ele><time>2026-04-29T07:44:04Z</time></trkpt><trkpt lat="38.031888067144024" lon="14.992103976634276"><ele>852.0</ele><time>2026-04-29T07:44:05Z</time></trkpt><trkpt lat="38.031739868790766" lon="14.992100081445091"><ele>853.5</ele><time>2026-04-29T07:44:06Z</time></trkpt><trkpt lat="38.03159358020377" lon="14.992110826928146"><ele>855.0</ele><time>2026-04-29T07:44:07Z</time></trkpt><trkpt lat="38.03146394862685" lon="14.992113068474717"><ele>850.4</ele><time>2026-04-29T07:44:08Z</time></trkpt><trkpt lat="38.03134602004078" lon="14.992147857758976"><ele>845.8</ele><time>2026-04-29T07:44:09Z</time></trkpt><trkpt lat="38.031239762637945" lon="14.992161730094116"><ele>841.2</ele><time>2026-04-29T07:44:10Z</time></trkpt><trkpt lat="38.03114090743792" lon="14.992151798219044"><ele>836.6</ele><time>2026-04-29T07:44:11Z</time></trkpt><trkpt lat="38.03106028930142" lon="14.992080695401565"><ele>832.0</ele><time>2026-04-29T07:44:12Z</time></trkpt><trkpt lat="38.03098397115503" lon="14.991966840548475"><ele>832.0</ele><time>2026-04-29T07:44:13Z</time></trkpt><trkpt lat="38.03090660547956" lon="14.99183536448287"><ele>832.0</ele><time>2026-04-29T07:44:14Z</time></trkpt><trkpt lat="38.03086104822315" lon="14.991683438425124"><ele>832.0</ele><time>2026-04-29T07:44:15Z</time></trkpt><trkpt lat="38.03083677275949" lon="14.991506579248025"><ele>832.0</ele><time>2026-04-29T07:44:16Z</time></trkpt><trkpt lat="38.030824568528416" lon="14.991331481805862"><ele>827.5</ele><time>2026-04-29T07:44:17Z</time></trkpt><trkpt lat="38.03080255877364" lon="14.991179728056661"><ele>823.0</ele><time>2026-04-29T07:44:18Z</time></trkpt><trkpt lat="38.030814703515254" lon="14.99104209641689"><ele>818.5</ele><time>2026-04-29T07:44:19Z</time></trkpt><trkpt lat="38.030864838489364" lon="14.99089132463181"><ele>814.0</ele><time>2026-04-29T07:44:20Z</time></trkpt><trkpt lat="38.03092408609732" lon="14.99071773227071"><ele>832.3333333333333</ele><time>2026-04-29T07:44:21Z</time></trkpt><trkpt lat="38.03098669016288" lon="14.99051887852369"><ele>850.6666666666667</ele><time>2026-04-29T07:44:22Z</time></trkpt><trkpt lat="38.03104782120737" lon="14.99032005299289"><ele>869.0</ele><time>2026-04-29T07:44:23Z</time></trkpt><trkpt lat="38.031111519508485" lon="14.990119942898907"><ele>868.3333333333334</ele><time>2026-04-29T07:44:24Z</time></trkpt><trkpt lat="38.0311766043328" lon="14.989918966269563"><ele>867.6666666666667</ele><time>2026-04-29T07:44:25Z</time></trkpt><trkpt lat="38.031238361322295" lon="14.989720111058503"><ele>867.0</ele><time>2026-04-29T07:44:26Z</time></trkpt><trkpt lat="38.03130007368627" lon="14.989521686785004"><ele>867.0</ele><time>2026-04-29T07:44:27Z</time></trkpt><trkpt lat="38.0313598836474" lon="14.989317526332433"><ele>867.0</ele><time>2026-04-29T07:44:28Z</time></trkpt><trkpt lat="38.03141203812061" lon="14.989110328459658"><ele>867.0</ele><time>2026-04-29T07:44:29Z</time></trkpt><trkpt lat="38.031460882614425" lon="14.988896923175988"><ele>866.3333333333333</ele><time>2026-04-29T07:44:30Z</time></trkpt><trkpt lat="38.03151137958769" lon="14.988684233758518"><ele>865.6666666666666</ele><time>2026-04-29T07:44:31Z</time></trkpt><trkpt lat="38.031556775731154" lon="14.98847785112452"><ele>865.0</ele><time>2026-04-29T07:44:32Z</time></trkpt><trkpt lat="38.03158701233186" lon="14.98828734397541"><ele>868.0</ele><time>2026-04-29T07:44:33Z</time></trkpt><trkpt lat="38.031587599492774" lon="14.98809645017055"><ele>871.0</ele><time>2026-04-29T07:44:34Z</time></trkpt><trkpt lat="38.03155633815024" lon="14.987898235641735"><ele>874.0</ele><time>2026-04-29T07:44:35Z</time></trkpt><trkpt lat="38.03149398074731" lon="14.987710354499729"><ele>874.0</ele><time>2026-04-29T07:44:36Z</time></trkpt><trkpt lat="38.03140695194545" lon="14.987532937691597"><ele>874.0</ele><time>2026-04-29T07:44:37Z</time></trkpt><trkpt lat="38.03130738695183" lon="14.98738703485537"><ele>874.0</ele><time>2026-04-29T07:44:38Z</time></trkpt><trkpt lat="38.0312236425102" lon="14.987259061079943"><ele>874.0</ele><time>2026-04-29T07:44:39Z</time></trkpt><trkpt lat="38.03116514325981" lon="14.987131472670672"><ele>876.6</ele><time>2026-04-29T07:44:40Z</time></trkpt><trkpt lat="38.031150297665114" lon="14.986989307870548"><ele>879.2</ele><time>2026-04-29T07:44:41Z</time></trkpt><trkpt lat="38.03117543266756" lon="14.986834091031021"><ele>881.8000000000001</ele><time>2026-04-29T07:44:42Z</time></trkpt><trkpt lat="38.0312073683909" lon="14.986706418474132"><ele>884.4000000000001</ele><time>2026-04-29T07:44:43Z</time></trkpt><trkpt lat="38.03122968284945" lon="14.986597409084423"><ele>887.0</ele><time>2026-04-29T07:44:44Z</time></trkpt><trkpt lat="38.031242337076385" lon="14.98650033243599"><ele>888.3333333333334</ele><time>2026-04-29T07:44:45Z</time></trkpt><trkpt lat="38.031241305115074" lon="14.986399206101659"><ele>889.6666666666667</ele><time>2026-04-29T07:44:46Z</time></trkpt><trkpt lat="38.031220258500056" lon="14.98632087093326"><ele>891.0</ele><time>2026-04-29T07:44:47Z</time></trkpt><trkpt lat="38.031206694911496" lon="14.986233358139767"><ele>892.3333333333333</ele><time>2026-04-29T07:44:49Z</time></trkpt><trkpt lat="38.03113541891251" lon="14.986269890890133"><ele>893.6666666666666</ele><time>2026-04-29T07:45:35Z</time></trkpt><trkpt lat="38.03106983694172" lon="14.98618295731332"><ele>895.0</ele><time>2026-04-29T07:45:37Z</time></trkpt><trkpt lat="38.031035172146524" lon="14.986090314853378"><ele>894.9999999999999</ele><time>2026-04-29T07:45:38Z</time></trkpt><trkpt lat="38.0310032380924" lon="14.986012091150664"><ele>895.0</ele><time>2026-04-29T07:45:39Z</time></trkpt><trkpt lat="38.03098046145283" lon="14.985932606203482"><ele>895.0</ele><time>2026-04-29T07:45:40Z</time></trkpt><trkpt lat="38.03095516298269" lon="14.985832675548258"><ele>895.0</ele><time>2026-04-29T07:45:41Z</time></trkpt><trkpt lat="38.03092313957828" lon="14.985712991605633"><ele>894.9999999999999</ele><time>2026-04-29T07:45:42Z</time></trkpt><trkpt lat="38.030889748806764" lon="14.985596178852974"><ele>895.0</ele><time>2026-04-29T07:45:43Z</time></trkpt><trkpt lat="38.03085507061215" lon="14.98549473647425"><ele>897.8</ele><time>2026-04-29T07:45:44Z</time></trkpt><trkpt lat="38.03080558784329" lon="14.985389519745034"><ele>900.6</ele><time>2026-04-29T07:45:45Z</time></trkpt><trkpt lat="38.03074332537098" lon="14.985295893145038"><ele>903.4000000000001</ele><time>2026-04-29T07:45:46Z</time></trkpt><trkpt lat="38.03067173828919" lon="14.985208646949825"><ele>906.2</ele><time>2026-04-29T07:45:47Z</time></trkpt><trkpt lat="38.030587169926136" lon="14.98513165689468"><ele>909.0</ele><time>2026-04-29T07:45:48Z</time></trkpt><trkpt lat="38.03049625674543" lon="14.985068762740655"><ele>909.0</ele><time>2026-04-29T07:45:49Z</time></trkpt><trkpt lat="38.0304019440795" lon="14.98502527451458"><ele>909.0000000000001</ele><time>2026-04-29T07:45:50Z</time></trkpt><trkpt lat="38.0302979611503" lon="14.984993797654433"><ele>909.0000000000001</ele><time>2026-04-29T07:45:51Z</time></trkpt><trkpt lat="38.03018211837104" lon="14.98496283279241"><ele>909.0</ele><time>2026-04-29T07:45:52Z</time></trkpt><trkpt lat="38.03006551518895" lon="14.984934155660453"><ele>909.0</ele><time>2026-04-29T07:45:53Z</time></trkpt><trkpt lat="38.02995239573917" lon="14.98490502865242"><ele>913.0</ele><time>2026-04-29T07:45:54Z</time></trkpt><trkpt lat="38.029833723593825" lon="14.984872429031684"><ele>917.0</ele><time>2026-04-29T07:45:55Z</time></trkpt><trkpt lat="38.0297013540123" lon="14.984824713978751"><ele>921.0</ele><time>2026-04-29T07:45:56Z</time></trkpt><trkpt lat="38.02959306072882" lon="14.984781595073837"><ele>925.0</ele><time>2026-04-29T07:45:57Z</time></trkpt><trkpt lat="38.02948656283148" lon="14.984735100703764"><ele>925.0</ele><time>2026-04-29T07:45:58Z</time></trkpt><trkpt lat="38.02937301484985" lon="14.98467656521833"><ele>925.0</ele><time>2026-04-29T07:45:59Z</time></trkpt><trkpt lat="38.029257127015875" lon="14.984605899432703"><ele>925.0</ele><time>2026-04-29T07:46:00Z</time></trkpt><trkpt lat="38.02914273599643" lon="14.984528389862165"><ele>925.0</ele><time>2026-04-29T07:46:01Z</time></trkpt><trkpt lat="38.029027321522946" lon="14.98445453626767"><ele>929.25</ele><time>2026-04-29T07:46:02Z</time></trkpt><trkpt lat="38.02891813221459" lon="14.984387917735965"><ele>933.5</ele><time>2026-04-29T07:46:03Z</time></trkpt><trkpt lat="38.02880898447441" lon="14.98433684170586"><ele>937.75</ele><time>2026-04-29T07:46:04Z</time></trkpt><trkpt lat="38.02870553873685" lon="14.984318143114939"><ele>942.0</ele><time>2026-04-29T07:46:05Z</time></trkpt><trkpt lat="38.028596817948994" lon="14.984316417305875"><ele>942.0</ele><time>2026-04-29T07:46:06Z</time></trkpt><trkpt lat="38.028492884011854" lon="14.984332629829577"><ele>942.0</ele><time>2026-04-29T07:46:07Z</time></trkpt><trkpt lat="38.028387485381856" lon="14.984370001543427"><ele>942.0</ele><time>2026-04-29T07:46:08Z</time></trkpt><trkpt lat="38.028283626971266" lon="14.98442579378116"><ele>942.0</ele><time>2026-04-29T07:46:09Z</time></trkpt><trkpt lat="38.02818698271773" lon="14.984501315572325"><ele>942.0</ele><time>2026-04-29T07:46:10Z</time></trkpt><trkpt lat="38.028076786907874" lon="14.984579088186536"><ele>944.6</ele><time>2026-04-29T07:46:11Z</time></trkpt><trkpt lat="38.027978595271804" lon="14.984680965327538"><ele>947.2</ele><time>2026-04-29T07:46:12Z</time></trkpt><trkpt lat="38.02788813856374" lon="14.984767760286347"><ele>949.8</ele><time>2026-04-29T07:46:13Z</time></trkpt><trkpt lat="38.027801641946674" lon="14.98481384091603"><ele>952.4</ele><time>2026-04-29T07:46:14Z</time></trkpt><trkpt lat="38.02770253109955" lon="14.984834547269875"><ele>955.0</ele><time>2026-04-29T07:46:15Z</time></trkpt><trkpt lat="38.027585319078156" lon="14.984847650652952"><ele>957.0</ele><time>2026-04-29T07:46:16Z</time></trkpt><trkpt lat="38.02745414214225" lon="14.984857748682474"><ele>959.0</ele><time>2026-04-29T07:46:17Z</time></trkpt><trkpt lat="38.0273065581982" lon="14.98486663379222"><ele>961.0</ele><time>2026-04-29T07:46:18Z</time></trkpt><trkpt lat="38.0271525530933" lon="14.984887636898884"><ele>963.0</ele><time>2026-04-29T07:46:19Z</time></trkpt><trkpt lat="38.02700372947971" lon="14.984917663980228"><ele>963.0</ele><time>2026-04-29T07:46:20Z</time></trkpt><trkpt lat="38.02686502412813" lon="14.984961556358673"><ele>963.0</ele><time>2026-04-29T07:46:21Z</time></trkpt><trkpt lat="38.02672424710828" lon="14.985014500783764"><ele>963.0</ele><time>2026-04-29T07:46:22Z</time></trkpt><trkpt lat="38.0265713659865" lon="14.985083452605002"><ele>965.25</ele><time>2026-04-29T07:46:23Z</time></trkpt><trkpt lat="38.02643401674333" lon="14.985157995081874"><ele>967.5</ele><time>2026-04-29T07:46:24Z</time></trkpt><trkpt lat="38.026313056451336" lon="14.98523712725985"><ele>969.75</ele><time>2026-04-29T07:46:25Z</time></trkpt><trkpt lat="38.02619685211383" lon="14.98532595343386"><ele>972.0</ele><time>2026-04-29T07:46:26Z</time></trkpt><trkpt lat="38.02607037769061" lon="14.98541230735108"><ele>972.0</ele><time>2026-04-29T07:46:27Z</time></trkpt><trkpt lat="38.025936634303704" lon="14.985487180919314"><ele>972.0</ele><time>2026-04-29T07:46:28Z</time></trkpt><trkpt lat="38.02579830151795" lon="14.985551023986302"><ele>972.0</ele><time>2026-04-29T07:46:29Z</time></trkpt><trkpt lat="38.02564861153172" lon="14.985615872590175"><ele>971.25</ele><time>2026-04-29T07:46:30Z</time></trkpt><trkpt lat="38.025501197100944" lon="14.98568188480819"><ele>970.5</ele><time>2026-04-29T07:46:31Z</time></trkpt><trkpt lat="38.02536007090389" lon="14.985752695934606"><ele>969.75</ele><time>2026-04-29T07:46:32Z</time></trkpt><trkpt lat="38.02524324284288" lon="14.985831492188131"><ele>969.0</ele><time>2026-04-29T07:46:33Z</time></trkpt><trkpt lat="38.02512821068524" lon="14.985916301407073"><ele>969.0</ele><time>2026-04-29T07:46:34Z</time></trkpt><trkpt lat="38.025022482992135" lon="14.985993932841245"><ele>969.0</ele><time>2026-04-29T07:46:35Z</time></trkpt><trkpt lat="38.02491050391728" lon="14.986065058076935"><ele>969.0</ele><time>2026-04-29T07:46:36Z</time></trkpt><trkpt lat="38.02479046865615" lon="14.986118614488117"><ele>969.0</ele><time>2026-04-29T07:46:37Z</time></trkpt><trkpt lat="38.024662259325" lon="14.986151846221787"><ele>972.0</ele><time>2026-04-29T07:46:38Z</time></trkpt><trkpt lat="38.024526076444225" lon="14.986164630164097"><ele>975.0</ele><time>2026-04-29T07:46:39Z</time></trkpt><trkpt lat="38.024383201458" lon="14.98617413871433"><ele>978.0</ele><time>2026-04-29T07:46:40Z</time></trkpt><trkpt lat="38.02423397154662" lon="14.986177316385598"><ele>981.0</ele><time>2026-04-29T07:46:41Z</time></trkpt><trkpt lat="38.02408458887129" lon="14.986181094205918"><ele>987.6666666666667</ele><time>2026-04-29T07:46:42Z</time></trkpt><trkpt lat="38.02393761186388" lon="14.986188072166897"><ele>994.3333333333334</ele><time>2026-04-29T07:46:43Z</time></trkpt><trkpt lat="38.02379172834413" lon="14.986198026317755"><ele>1001.0</ele><time>2026-04-29T07:46:44Z</time></trkpt><trkpt lat="38.023633287761044" lon="14.986192244345595"><ele>1001.0</ele><time>2026-04-29T07:46:45Z</time></trkpt><trkpt lat="38.02347302246191" lon="14.986230459751443"><ele>1001.0</ele><time>2026-04-29T07:46:46Z</time></trkpt><trkpt lat="38.02332322299038" lon="14.986215440965578"><ele>1001.0</ele><time>2026-04-29T07:46:47Z</time></trkpt><trkpt lat="38.02319590580795" lon="14.986203822401134"><ele>1001.0</ele><time>2026-04-29T07:46:48Z</time></trkpt><trkpt lat="38.02308418868624" lon="14.986186511111834"><ele>1005.25</ele><time>2026-04-29T07:46:49Z</time></trkpt><trkpt lat="38.02295841995186" lon="14.986162471256579"><ele>1009.5</ele><time>2026-04-29T07:46:50Z</time></trkpt><trkpt lat="38.02282259075764" lon="14.986151332943667"><ele>1013.75</ele><time>2026-04-29T07:46:51Z</time></trkpt><trkpt lat="38.02270048144513" lon="14.98617513071718"><ele>1018.0</ele><time>2026-04-29T07:46:52Z</time></trkpt><trkpt lat="38.02257155723477" lon="14.986189703438239"><ele>1020.25</ele><time>2026-04-29T07:46:53Z</time></trkpt><trkpt lat="38.02243458130315" lon="14.9862111606731"><ele>1022.5</ele><time>2026-04-29T07:46:54Z</time></trkpt><trkpt lat="38.02230083118949" lon="14.986234623735516"><ele>1024.75</ele><time>2026-04-29T07:46:55Z</time></trkpt><trkpt lat="38.022191822696605" lon="14.98625599899002"><ele>1027.0</ele><time>2026-04-29T07:46:56Z</time></trkpt><trkpt lat="38.02208313237313" lon="14.986272406335091"><ele>1027.0</ele><time>2026-04-29T07:46:57Z</time></trkpt><trkpt lat="38.0219728947074" lon="14.986281603939544"><ele>1027.0</ele><time>2026-04-29T07:46:58Z</time></trkpt><trkpt lat="38.02187686559125" lon="14.986310299119987"><ele>1027.0</ele><time>2026-04-29T07:46:59Z</time></trkpt><trkpt lat="38.02176830245455" lon="14.986346575588865"><ele>1027.0</ele><time>2026-04-29T07:47:00Z</time></trkpt><trkpt lat="38.021639564096716" lon="14.986389998598622"><ele>1028.0</ele><time>2026-04-29T07:47:01Z</time></trkpt><trkpt lat="38.02148968000642" lon="14.986441698668193"><ele>1029.0</ele><time>2026-04-29T07:47:02Z</time></trkpt><trkpt lat="38.02133761375757" lon="14.986490431769552"><ele>1030.0</ele><time>2026-04-29T07:47:03Z</time></trkpt><trkpt lat="38.021203143502646" lon="14.986529638443967"><ele>1030.0</ele><time>2026-04-29T07:47:03.999Z</time></trkpt><trkpt lat="38.02107937972407" lon="14.986523820802137"><ele>1030.0</ele><time>2026-04-29T07:47:04.999Z</time></trkpt><trkpt lat="38.02095752381298" lon="14.986523612869624"><ele>1030.0</ele><time>2026-04-29T07:47:05.999Z</time></trkpt><trkpt lat="38.020827849966224" lon="14.986514278870976"><ele>1030.0</ele><time>2026-04-29T07:47:06.999Z</time></trkpt><trkpt lat="38.02068867031544" lon="14.986488204995887"><ele>1030.3333333333333</ele><time>2026-04-29T07:47:07.999Z</time></trkpt><trkpt lat="38.02053715338713" lon="14.98644231473797"><ele>1030.6666666666667</ele><time>2026-04-29T07:47:09.001Z</time></trkpt><trkpt lat="38.02038522052979" lon="14.986400659134421"><ele>1031.0</ele><time>2026-04-29T07:47:10.001Z</time></trkpt><trkpt lat="38.02024135777955" lon="14.986370478657152"><ele>1031.0</ele><time>2026-04-29T07:47:11.001Z</time></trkpt><trkpt lat="38.020101494537556" lon="14.9863752291593"><ele>1031.0</ele><time>2026-04-29T07:47:12.001Z</time></trkpt><trkpt lat="38.019973235488536" lon="14.986376737073302"><ele>1031.0</ele><time>2026-04-29T07:47:13.001Z</time></trkpt><trkpt lat="38.01985449415557" lon="14.98638641983272"><ele>1031.0</ele><time>2026-04-29T07:47:14.001Z</time></trkpt><trkpt lat="38.0197535080334" lon="14.986407864301215"><ele>1029.75</ele><time>2026-04-29T07:47:15.001Z</time></trkpt><trkpt lat="38.019650180984456" lon="14.986432118663673"><ele>1028.5</ele><time>2026-04-29T07:47:16.001Z</time></trkpt><trkpt lat="38.01952883771452" lon="14.98651257720034"><ele>1027.25</ele><time>2026-04-29T07:47:17.001Z</time></trkpt><trkpt lat="38.0194020825772" lon="14.986623934727604"><ele>1026.0</ele><time>2026-04-29T07:47:18.001Z</time></trkpt><trkpt lat="38.019265901587666" lon="14.986745154578506"><ele>1026.0</ele><time>2026-04-29T07:47:19.001Z</time></trkpt><trkpt lat="38.019148581450956" lon="14.986839481698361"><ele>1026.0</ele><time>2026-04-29T07:47:20.001Z</time></trkpt><trkpt lat="38.01905229275955" lon="14.986899940528358"><ele>1026.0</ele><time>2026-04-29T07:47:21.001Z</time></trkpt><trkpt lat="38.01895861863114" lon="14.98694036252843"><ele>1026.0</ele><time>2026-04-29T07:47:22.001Z</time></trkpt><trkpt lat="38.01885788121867" lon="14.986963173065819"><ele>1026.0</ele><time>2026-04-29T07:47:23.001Z</time></trkpt><trkpt lat="38.01873002163798" lon="14.986964264109815"><ele>1026.0</ele><time>2026-04-29T07:47:24.001Z</time></trkpt><trkpt lat="38.018599846312654" lon="14.986954747156924"><ele>1026.0</ele><time>2026-04-29T07:47:25Z</time></trkpt><trkpt lat="38.01845599757321" lon="14.986933780718148"><ele>1026.0</ele><time>2026-04-29T07:47:26Z</time></trkpt><trkpt lat="38.018288050276304" lon="14.986880648854306"><ele>1026.0</ele><time>2026-04-29T07:47:27Z</time></trkpt><trkpt lat="38.018111747809435" lon="14.98681566193498"><ele>1026.5</ele><time>2026-04-29T07:47:28Z</time></trkpt><trkpt lat="38.01795156211231" lon="14.986761071955112"><ele>1027.0</ele><time>2026-04-29T07:47:29Z</time></trkpt><trkpt lat="38.01781019796453" lon="14.98670423677151"><ele>1027.5</ele><time>2026-04-29T07:47:30Z</time></trkpt><trkpt lat="38.01768814622955" lon="14.986641694948881"><ele>1028.0</ele><time>2026-04-29T07:47:31Z</time></trkpt><trkpt lat="38.01757950008272" lon="14.986541044043454"><ele>1032.0</ele><time>2026-04-29T07:47:32Z</time></trkpt><trkpt lat="38.01744278946879" lon="14.986479157589457"><ele>1036.0</ele><time>2026-04-29T07:47:33Z</time></trkpt><trkpt lat="38.017295917694966" lon="14.986411869131484"><ele>1040.0</ele><time>2026-04-29T07:47:34Z</time></trkpt><trkpt lat="38.01714296396432" lon="14.986340877770237"><ele>1040.0</ele><time>2026-04-29T07:47:35Z</time></trkpt><trkpt lat="38.01700620273484" lon="14.986276083329667"><ele>1040.0</ele><time>2026-04-29T07:47:36Z</time></trkpt><trkpt lat="38.016875604544936" lon="14.986210541794982"><ele>1040.0</ele><time>2026-04-29T07:47:37Z</time></trkpt><trkpt lat="38.01679561245374" lon="14.986152068236539"><ele>1040.0</ele><time>2026-04-29T07:47:38Z</time></trkpt><trkpt lat="38.016659898312355" lon="14.986048244593848"><ele>1052.0</ele><time>2026-04-29T07:47:40Z</time></trkpt><trkpt lat="38.01610952904188" lon="14.986627003934393"><ele>1052.0</ele><time>2026-04-29T07:47:42Z</time></trkpt><trkpt lat="38.01601105382574" lon="14.986664689953388"><ele>1052.0</ele><time>2026-04-29T07:47:43Z</time></trkpt><trkpt lat="38.01592206722883" lon="14.986719629339996"><ele>1052.0</ele><time>2026-04-29T07:47:44Z</time></trkpt><trkpt lat="38.015838920974325" lon="14.986797101848483"><ele>1052.0</ele><time>2026-04-29T07:47:45Z</time></trkpt><trkpt lat="38.015751375587314" lon="14.98689697642336"><ele>1052.0</ele><time>2026-04-29T07:47:46Z</time></trkpt><trkpt lat="38.01565561305866" lon="14.987016355106393"><ele>1052.25</ele><time>2026-04-29T07:47:47Z</time></trkpt><trkpt lat="38.01554348198462" lon="14.987139828791875"><ele>1052.5</ele><time>2026-04-29T07:47:48Z</time></trkpt><trkpt lat="38.01543934883885" lon="14.987239999560758"><ele>1052.75</ele><time>2026-04-29T07:47:49Z</time></trkpt><trkpt lat="38.01533414725277" lon="14.987329886521437"><ele>1053.0</ele><time>2026-04-29T07:47:50Z</time></trkpt><trkpt lat="38.01521834509417" lon="14.987420492066716"><ele>1050.75</ele><time>2026-04-29T07:47:51Z</time></trkpt><trkpt lat="38.01508939322769" lon="14.987514142034616"><ele>1048.5</ele><time>2026-04-29T07:47:52Z</time></trkpt><trkpt lat="38.01496031837495" lon="14.987609140151868"><ele>1046.25</ele><time>2026-04-29T07:47:53Z</time></trkpt><trkpt lat="38.01484172822557" lon="14.98769237308764"><ele>1044.0</ele><time>2026-04-29T07:47:54Z</time></trkpt><trkpt lat="38.01473391276711" lon="14.987766776772895"><ele>1044.0</ele><time>2026-04-29T07:47:55Z</time></trkpt><trkpt lat="38.01462531909236" lon="14.987834359648545"><ele>1044.0</ele><time>2026-04-29T07:47:56Z</time></trkpt><trkpt lat="38.014507636299584" lon="14.987890402186279"><ele>1044.0</ele><time>2026-04-29T07:47:57Z</time></trkpt><trkpt lat="38.01438075204368" lon="14.987930509693813"><ele>1044.0</ele><time>2026-04-29T07:47:58Z</time></trkpt><trkpt lat="38.01425617759572" lon="14.9879557384842"><ele>1040.0</ele><time>2026-04-29T07:47:59Z</time></trkpt><trkpt lat="38.01413758884748" lon="14.987956838239002"><ele>1036.0</ele><time>2026-04-29T07:48:00Z</time></trkpt><trkpt lat="38.01401431859828" lon="14.98794161126187"><ele>1032.0</ele><time>2026-04-29T07:48:01Z</time></trkpt><trkpt lat="38.013901777588494" lon="14.98791143168449"><ele>1028.0</ele><time>2026-04-29T07:48:02Z</time></trkpt><trkpt lat="38.01379694532805" lon="14.98788175011245"><ele>1028.0</ele><time>2026-04-29T07:48:03Z</time></trkpt><trkpt lat="38.013693928218075" lon="14.987844823623956"><ele>1028.0</ele><time>2026-04-29T07:48:04Z</time></trkpt><trkpt lat="38.013601914249726" lon="14.987784543494676"><ele>1028.0</ele><time>2026-04-29T07:48:05Z</time></trkpt><trkpt lat="38.01351121122555" lon="14.987710062002016"><ele>1028.0</ele><time>2026-04-29T07:48:06Z</time></trkpt><trkpt lat="38.01342279635708" lon="14.987632020360445"><ele>1028.0</ele><time>2026-04-29T07:48:07Z</time></trkpt><trkpt lat="38.013339404687756" lon="14.987555500697798"><ele>1025.2</ele><time>2026-04-29T07:48:08Z</time></trkpt><trkpt lat="38.013252940386614" lon="14.987483504691145"><ele>1022.4</ele><time>2026-04-29T07:48:09Z</time></trkpt><trkpt lat="38.013176773338365" lon="14.987420872513901"><ele>1019.6000000000001</ele><time>2026-04-29T07:48:10Z</time></trkpt><trkpt lat="38.013105230158374" lon="14.98736279551618"><ele>1016.8000000000001</ele><time>2026-04-29T07:48:11Z</time></trkpt><trkpt lat="38.01303111479325" lon="14.987298181706013"><ele>1014.0</ele><time>2026-04-29T07:48:12Z</time></trkpt><trkpt lat="38.01297165880491" lon="14.987218664948369"><ele>1014.0</ele><time>2026-04-29T07:48:13Z</time></trkpt><trkpt lat="38.01292292948724" lon="14.987131396177347"><ele>1014.0000000000001</ele><time>2026-04-29T07:48:14Z</time></trkpt><trkpt lat="38.01288124423646" lon="14.987038487910562"><ele>1014.0000000000001</ele><time>2026-04-29T07:48:15Z</time></trkpt><trkpt lat="38.01284064184036" lon="14.986934914440768"><ele>1014.0</ele><time>2026-04-29T07:48:16Z</time></trkpt><trkpt lat="38.01280521726655" lon="14.986815825103024"><ele>1014.0</ele><time>2026-04-29T07:48:17Z</time></trkpt><trkpt lat="38.012772964490324" lon="14.98668735967502"><ele>1015.6</ele><time>2026-04-29T07:48:18Z</time></trkpt><trkpt lat="38.01275192186682" lon="14.986561974323102"><ele>1017.2</ele><time>2026-04-29T07:48:19Z</time></trkpt><trkpt lat="38.01274166583736" lon="14.986431575660413"><ele>1018.8000000000001</ele><time>2026-04-29T07:48:20Z</time></trkpt><trkpt lat="38.012735632902846" lon="14.986288402598941"><ele>1020.4000000000001</ele><time>2026-04-29T07:48:21Z</time></trkpt><trkpt lat="38.01273151543756" lon="14.986152754323633"><ele>1022.0</ele><time>2026-04-29T07:48:22Z</time></trkpt><trkpt lat="38.01272901047769" lon="14.986022979950514"><ele>1022.0000000000001</ele><time>2026-04-29T07:48:23Z</time></trkpt><trkpt lat="38.01272260548658" lon="14.985902788982335"><ele>1022.0</ele><time>2026-04-29T07:48:24Z</time></trkpt><trkpt lat="38.01271807974799" lon="14.985782685282773"><ele>1022.0</ele><time>2026-04-29T07:48:25Z</time></trkpt><trkpt lat="38.012714445814815" lon="14.985667064521433"><ele>1022.0</ele><time>2026-04-29T07:48:26Z</time></trkpt><trkpt lat="38.01271813335433" lon="14.985564766926021"><ele>1022.0000000000001</ele><time>2026-04-29T07:48:27Z</time></trkpt><trkpt lat="38.01272047583637" lon="14.985473042634693"><ele>1022.0</ele><time>2026-04-29T07:48:28Z</time></trkpt><trkpt lat="38.01279224334006" lon="14.985403570729266"><ele>1020.25</ele><time>2026-04-29T07:48:29Z</time></trkpt><trkpt lat="38.01279794144571" lon="14.985299378455757"><ele>1018.5</ele><time>2026-04-29T07:48:31Z</time></trkpt><trkpt lat="38.012759452945936" lon="14.985165575278288"><ele>1016.75</ele><time>2026-04-29T07:48:32Z</time></trkpt><trkpt lat="38.01270098431381" lon="14.985083877264396"><ele>1015.0</ele><time>2026-04-29T07:48:34Z</time></trkpt><trkpt lat="38.01252495296442" lon="14.98520829109808"><ele>1011.6666666666666</ele><time>2026-04-29T07:48:43Z</time></trkpt><trkpt lat="38.01242636283811" lon="14.985233696587777"><ele>1008.3333333333333</ele><time>2026-04-29T07:48:50Z</time></trkpt><trkpt lat="38.01235267284131" lon="14.98521945947244"><ele>1005.0</ele><time>2026-04-29T07:48:53Z</time></trkpt><trkpt lat="38.012289793752025" lon="14.985192788111961"><ele>1001.6666666666667</ele><time>2026-04-29T07:49:02Z</time></trkpt><trkpt lat="38.012205682889835" lon="14.98519483952502"><ele>998.3333333333334</ele><time>2026-04-29T07:49:04Z</time></trkpt><trkpt lat="38.012152697031176" lon="14.98527485768221"><ele>995.0</ele><time>2026-04-29T07:49:16Z</time></trkpt><trkpt lat="38.01207157352163" lon="14.985274944432183"><ele>995.0000000000001</ele><time>2026-04-29T07:49:22Z</time></trkpt><trkpt lat="38.01200852954716" lon="14.985229723147784"><ele>995.0</ele><time>2026-04-29T07:49:23Z</time></trkpt><trkpt lat="38.01193669525438" lon="14.985167404514316"><ele>995.0</ele><time>2026-04-29T07:49:24Z</time></trkpt><trkpt lat="38.01186789577802" lon="14.985094410319489"><ele>995.0</ele><time>2026-04-29T07:49:25.001Z</time></trkpt><trkpt lat="38.01179346368471" lon="14.985023773611953"><ele>995.0000000000001</ele><time>2026-04-29T07:49:26Z</time></trkpt><trkpt lat="38.011721196941544" lon="14.984971370324903"><ele>995.0</ele><time>2026-04-29T07:49:27Z</time></trkpt><trkpt lat="38.011649264455095" lon="14.984931659201875"><ele>994.8333333333334</ele><time>2026-04-29T07:49:28.001Z</time></trkpt><trkpt lat="38.01156568557649" lon="14.984857347205564"><ele>994.6666666666667</ele><time>2026-04-29T07:49:30Z</time></trkpt><trkpt lat="38.011522138645674" lon="14.984728860098286"><ele>994.5</ele><time>2026-04-29T07:49:32Z</time></trkpt><trkpt lat="38.01151255605951" lon="14.984622932967977"><ele>994.3333333333333</ele><time>2026-04-29T07:49:33Z</time></trkpt><trkpt lat="38.01152279535498" lon="14.984515647313003"><ele>994.1666666666666</ele><time>2026-04-29T07:49:34Z</time></trkpt><trkpt lat="38.01154705660983" lon="14.984436887993994"><ele>994.0</ele><time>2026-04-29T07:49:35Z</time></trkpt><trkpt lat="38.01161870987012" lon="14.984293570261238"><ele>996.4000000000001</ele><time>2026-04-29T07:49:37Z</time></trkpt><trkpt lat="38.01167177280858" lon="14.984181433923565"><ele>998.8000000000001</ele><time>2026-04-29T07:49:39Z</time></trkpt><trkpt lat="38.011668863693856" lon="14.984101176731164"><ele>1001.1999999999999</ele><time>2026-04-29T07:49:42Z</time></trkpt><trkpt lat="38.01154177831965" lon="14.984008823694444"><ele>1003.5999999999999</ele><time>2026-04-29T07:49:44Z</time></trkpt><trkpt lat="38.01142645921563" lon="14.983952283753984"><ele>1006.0</ele><time>2026-04-29T07:49:45Z</time></trkpt><trkpt lat="38.0113260859738" lon="14.983894238525062"><ele>1006.5999999999999</ele><time>2026-04-29T07:49:46Z</time></trkpt><trkpt lat="38.01123986747767" lon="14.983843288401232"><ele>1007.1999999999999</ele><time>2026-04-29T07:49:47Z</time></trkpt><trkpt lat="38.011166005132424" lon="14.98378660267821"><ele>1007.8000000000001</ele><time>2026-04-29T07:49:48Z</time></trkpt><trkpt lat="38.0111026958794" lon="14.983734695370135"><ele>1008.4000000000001</ele><time>2026-04-29T07:49:49Z</time></trkpt><trkpt lat="38.01102537998401" lon="14.983638657685795"><ele>1009.0</ele><time>2026-04-29T07:49:51Z</time></trkpt><trkpt lat="38.01091922290907" lon="14.983588437724144"><ele>1008.0</ele><time>2026-04-29T07:49:52Z</time></trkpt><trkpt lat="38.01080845853804" lon="14.983539319290553"><ele>1007.0</ele><time>2026-04-29T07:49:53Z</time></trkpt><trkpt lat="38.01068775657441" lon="14.983458602473368"><ele>1006.0</ele><time>2026-04-29T07:49:54Z</time></trkpt><trkpt lat="38.01055646766607" lon="14.983392413547094"><ele>1005.0</ele><time>2026-04-29T07:49:55Z</time></trkpt><trkpt lat="38.010440930251605" lon="14.98330849564936"><ele>1008.6</ele><time>2026-04-29T07:49:56Z</time></trkpt><trkpt lat="38.01033224985243" lon="14.983242043484873"><ele>1012.2</ele><time>2026-04-29T07:49:57Z</time></trkpt><trkpt lat="38.01023823367255" lon="14.983195465825505"><ele>1015.8</ele><time>2026-04-29T07:49:58Z</time></trkpt><trkpt lat="38.01015463749522" lon="14.983132767820338"><ele>1019.4</ele><time>2026-04-29T07:49:59Z</time></trkpt><trkpt lat="38.01007654709464" lon="14.983057609531137"><ele>1023.0</ele><time>2026-04-29T07:50:00Z</time></trkpt><trkpt lat="38.00999692630588" lon="14.982962045821276"><ele>1021.25</ele><time>2026-04-29T07:50:01Z</time></trkpt><trkpt lat="38.00992179819374" lon="14.982870988583263"><ele>1019.5</ele><time>2026-04-29T07:50:02Z</time></trkpt><trkpt lat="38.00985844056788" lon="14.982773075468193"><ele>1017.75</ele><time>2026-04-29T07:50:03Z</time></trkpt><trkpt lat="38.00979843552247" lon="14.982633535582812"><ele>1016.0</ele><time>2026-04-29T07:50:04Z</time></trkpt><trkpt lat="38.00974008017907" lon="14.982476508250972"><ele>1016.0</ele><time>2026-04-29T07:50:05Z</time></trkpt><trkpt lat="38.00968848842386" lon="14.982320609386349"><ele>1016.0</ele><time>2026-04-29T07:50:06Z</time></trkpt><trkpt lat="38.009640636731646" lon="14.982158512484785"><ele>1016.0</ele><time>2026-04-29T07:50:07Z</time></trkpt><trkpt lat="38.00958995005928" lon="14.981994183096404"><ele>1016.0</ele><time>2026-04-29T07:50:08Z</time></trkpt><trkpt lat="38.00953682544498" lon="14.981845389381789"><ele>1016.0</ele><time>2026-04-29T07:50:09Z</time></trkpt><trkpt lat="38.00948580948891" lon="14.981713312349877"><ele>1015.9999999999999</ele><time>2026-04-29T07:50:10Z</time></trkpt><trkpt lat="38.00942973940114" lon="14.98159467323949"><ele>1015.9999999999999</ele><time>2026-04-29T07:50:11Z</time></trkpt><trkpt lat="38.0093716275896" lon="14.98149116048999"><ele>1016.0</ele><time>2026-04-29T07:50:12Z</time></trkpt><trkpt lat="38.00931413256777" lon="14.981381731645861"><ele>1016.0</ele><time>2026-04-29T07:50:13Z</time></trkpt><trkpt lat="38.00925121988833" lon="14.98126571301269"><ele>1016.75</ele><time>2026-04-29T07:50:14Z</time></trkpt><trkpt lat="38.00918650585012" lon="14.981166715080063"><ele>1017.5</ele><time>2026-04-29T07:50:15Z</time></trkpt><trkpt lat="38.00910286691169" lon="14.98106064591947"><ele>1018.25</ele><time>2026-04-29T07:50:16Z</time></trkpt><trkpt lat="38.009012948237725" lon="14.9809526080655"><ele>1019.0</ele><time>2026-04-29T07:50:17Z</time></trkpt><trkpt lat="38.00892738802451" lon="14.980848456326408"><ele>1021.4000000000001</ele><time>2026-04-29T07:50:18Z</time></trkpt><trkpt lat="38.00884609720592" lon="14.980745179392375"><ele>1023.8000000000001</ele><time>2026-04-29T07:50:19Z</time></trkpt><trkpt lat="38.008768972819595" lon="14.980654457457053"><ele>1026.1999999999998</ele><time>2026-04-29T07:50:20Z</time></trkpt><trkpt lat="38.00869958460926" lon="14.980571779254623"><ele>1028.6</ele><time>2026-04-29T07:50:21Z</time></trkpt><trkpt lat="38.008638726992146" lon="14.980503413055839"><ele>1031.0</ele><time>2026-04-29T07:50:22Z</time></trkpt><trkpt lat="38.00857686250773" lon="14.980443891780295"><ele>1031.0</ele><time>2026-04-29T07:50:23Z</time></trkpt><trkpt lat="38.00851573609794" lon="14.98038583792864"><ele>1031.0</ele><time>2026-04-29T07:50:24Z</time></trkpt><trkpt lat="38.008449632957614" lon="14.98034135432847"><ele>1031.0</ele><time>2026-04-29T07:50:25Z</time></trkpt><trkpt lat="38.00838050937879" lon="14.980295011956306"><ele>1031.0</ele><time>2026-04-29T07:50:26Z</time></trkpt><trkpt lat="38.008304598339706" lon="14.980251257284422"><ele>1031.0</ele><time>2026-04-29T07:50:27Z</time></trkpt><trkpt lat="38.00821325358453" lon="14.980207445718863"><ele>1031.0</ele><time>2026-04-29T07:50:28Z</time></trkpt><trkpt lat="38.00812087560747" lon="14.980161215726469"><ele>1030.5</ele><time>2026-04-29T07:50:29Z</time></trkpt><trkpt lat="38.008024246642414" lon="14.980075588603484"><ele>1030.0</ele><time>2026-04-29T07:50:30Z</time></trkpt><trkpt lat="38.007914922838054" lon="14.97999006828965"><ele>1029.5</ele><time>2026-04-29T07:50:31Z</time></trkpt><trkpt lat="38.00780555994965" lon="14.979907437473988"><ele>1029.0</ele><time>2026-04-29T07:50:32Z</time></trkpt><trkpt lat="38.007699244516076" lon="14.979834091055148"><ele>1032.2</ele><time>2026-04-29T07:50:33Z</time></trkpt><trkpt lat="38.007597987472565" lon="14.979806244288765"><ele>1035.4</ele><time>2026-04-29T07:50:34Z</time></trkpt><trkpt lat="38.00750506689362" lon="14.979779555741265"><ele>1038.6</ele><time>2026-04-29T07:50:35Z</time></trkpt><trkpt lat="38.00741447691241" lon="14.979750821248512"><ele>1041.8</ele><time>2026-04-29T07:50:36Z</time></trkpt><trkpt lat="38.007318652122606" lon="14.979700327553216"><ele>1045.0</ele><time>2026-04-29T07:50:37Z</time></trkpt><trkpt lat="38.00721049877005" lon="14.979663319414755"><ele>1045.6</ele><time>2026-04-29T07:50:38Z</time></trkpt><trkpt lat="38.00710426894662" lon="14.9796545780077"><ele>1046.2</ele><time>2026-04-29T07:50:39Z</time></trkpt><trkpt lat="38.00700326912485" lon="14.979652452989757"><ele>1046.8</ele><time>2026-04-29T07:50:40Z</time></trkpt><trkpt lat="38.006895406936685" lon="14.979666492420625"><ele>1047.4</ele><time>2026-04-29T07:50:41Z</time></trkpt><trkpt lat="38.00676682220241" lon="14.97969422145268"><ele>1048.0</ele><time>2026-04-29T07:50:42Z</time></trkpt><trkpt lat="38.00665467384836" lon="14.979706428595078"><ele>1049.0</ele><time>2026-04-29T07:50:43Z</time></trkpt><trkpt lat="38.006560151342136" lon="14.979708606812201"><ele>1050.0</ele><time>2026-04-29T07:50:44Z</time></trkpt><trkpt lat="38.00647157700711" lon="14.979698148311115"><ele>1051.0</ele><time>2026-04-29T07:50:45Z</time></trkpt><trkpt lat="38.006366551627195" lon="14.979669873646221"><ele>1052.0</ele><time>2026-04-29T07:50:46Z</time></trkpt><trkpt lat="38.006253577871355" lon="14.979624112008368"><ele>1053.0</ele><time>2026-04-29T07:50:47Z</time></trkpt><trkpt lat="38.006126039842364" lon="14.979572237896098"><ele>1053.0</ele><time>2026-04-29T07:50:48Z</time></trkpt><trkpt lat="38.00601435066612" lon="14.979532284739534"><ele>1053.0</ele><time>2026-04-29T07:50:49Z</time></trkpt><trkpt lat="38.00591602933526" lon="14.979502146768654"><ele>1053.0</ele><time>2026-04-29T07:50:50Z</time></trkpt><trkpt lat="38.005827098293786" lon="14.97946685130332"><ele>1053.0</ele><time>2026-04-29T07:50:51Z</time></trkpt><trkpt lat="38.005733875120065" lon="14.979415926177007"><ele>1053.0</ele><time>2026-04-29T07:50:52Z</time></trkpt><trkpt lat="38.005640714248464" lon="14.979336419206001"><ele>1052.8</ele><time>2026-04-29T07:50:53Z</time></trkpt><trkpt lat="38.005575549196806" lon="14.97922431956378"><ele>1052.6</ele><time>2026-04-29T07:50:54Z</time></trkpt><trkpt lat="38.005514121643095" lon="14.979138519361834"><ele>1052.4</ele><time>2026-04-29T07:50:55Z</time></trkpt><trkpt lat="38.005444861109765" lon="14.979065423293699"><ele>1052.2</ele><time>2026-04-29T07:50:56Z</time></trkpt><trkpt lat="38.00537901617637" lon="14.978952022583602"><ele>1052.0</ele><time>2026-04-29T07:50:57Z</time></trkpt><trkpt lat="38.00529124250403" lon="14.978816336080213"><ele>1052.0</ele><time>2026-04-29T07:50:58Z</time></trkpt><trkpt lat="38.005193665086665" lon="14.978669150209482"><ele>1052.0</ele><time>2026-04-29T07:50:59Z</time></trkpt><trkpt lat="38.00514021997541" lon="14.978526250808688"><ele>1052.0</ele><time>2026-04-29T07:51:00Z</time></trkpt><trkpt lat="38.005085563546004" lon="14.97840036744414"><ele>1052.0</ele><time>2026-04-29T07:51:01Z</time></trkpt><trkpt lat="38.00501793446243" lon="14.978287601373097"><ele>1052.6</ele><time>2026-04-29T07:51:02Z</time></trkpt><trkpt lat="38.00496628749504" lon="14.978182967668584"><ele>1053.2</ele><time>2026-04-29T07:51:03Z</time></trkpt><trkpt lat="38.004904619332684" lon="14.97810362786697"><ele>1053.8</ele><time>2026-04-29T07:51:04Z</time></trkpt><trkpt lat="38.00483382726177" lon="14.978026447342428"><ele>1054.4</ele><time>2026-04-29T07:51:05Z</time></trkpt><trkpt lat="38.00477211754158" lon="14.977939718271736"><ele>1055.0</ele><time>2026-04-29T07:51:06Z</time></trkpt><trkpt lat="38.00470869089016" lon="14.977868667721333"><ele>1055.0</ele><time>2026-04-29T07:51:07Z</time></trkpt><trkpt lat="38.00464787954848" lon="14.977796414636504"><ele>1055.0</ele><time>2026-04-29T07:51:08Z</time></trkpt><trkpt lat="38.004592357645826" lon="14.97770407881452"><ele>1055.0</ele><time>2026-04-29T07:51:09Z</time></trkpt><trkpt lat="38.00453980480293" lon="14.977584100430917"><ele>1055.0</ele><time>2026-04-29T07:51:10Z</time></trkpt><trkpt lat="38.00449234071939" lon="14.977461101475791"><ele>1055.0</ele><time>2026-04-29T07:51:11Z</time></trkpt><trkpt lat="38.00444793327046" lon="14.977335659685519"><ele>1056.4</ele><time>2026-04-29T07:51:12Z</time></trkpt><trkpt lat="38.00439532077803" lon="14.977212388001774"><ele>1057.8</ele><time>2026-04-29T07:51:12.999Z</time></trkpt><trkpt lat="38.004322487397125" lon="14.97710468710762"><ele>1059.2</ele><time>2026-04-29T07:51:13.999Z</time></trkpt><trkpt lat="38.00426504061815" lon="14.977007703516904"><ele>1060.6</ele><time>2026-04-29T07:51:14.999Z</time></trkpt><trkpt lat="38.004211222302544" lon="14.976933799709567"><ele>1062.0</ele><time>2026-04-29T07:51:15.999Z</time></trkpt><trkpt lat="38.004158893155676" lon="14.976865370241459"><ele>1062.0</ele><time>2026-04-29T07:51:16.999Z</time></trkpt><trkpt lat="38.00407222812051" lon="14.976776985603182"><ele>1062.0</ele><time>2026-04-29T07:51:18.999Z</time></trkpt><trkpt lat="38.004007535386805" lon="14.976720378983561"><ele>1062.0</ele><time>2026-04-29T07:51:22Z</time></trkpt><trkpt lat="38.00394405767405" lon="14.976664307267761"><ele>1062.0</ele><time>2026-04-29T07:51:24Z</time></trkpt><trkpt lat="38.00387408852984" lon="14.976622661305264"><ele>1062.0</ele><time>2026-04-29T07:51:27Z</time></trkpt><trkpt lat="38.00380766471307" lon="14.976528883597286"><ele>1062.0</ele><time>2026-04-29T07:51:29Z</time></trkpt><trkpt lat="38.00376685876057" lon="14.976445010875782"><ele>1064.5</ele><time>2026-04-29T07:51:31Z</time></trkpt><trkpt lat="38.00370700916306" lon="14.976319058343076"><ele>1067.0</ele><time>2026-04-29T07:51:33Z</time></trkpt><trkpt lat="38.0036689373158" lon="14.97623501553077"><ele>1069.5</ele><time>2026-04-29T07:51:34Z</time></trkpt><trkpt lat="38.00364994842087" lon="14.97614062000833"><ele>1072.0</ele><time>2026-04-29T07:51:35Z</time></trkpt><trkpt lat="38.00360151096827" lon="14.976083786645074"><ele>1074.5</ele><time>2026-04-29T07:51:36Z</time></trkpt><trkpt lat="38.003549195787826" lon="14.975976812534741"><ele>1077.0</ele><time>2026-04-29T07:51:38Z</time></trkpt><trkpt lat="38.00350182045929" lon="14.975908140106986"><ele>1078.0</ele><time>2026-04-29T07:52:15Z</time></trkpt><trkpt lat="38.00343257765745" lon="14.975800100226481"><ele>1079.0</ele><time>2026-04-29T07:52:17Z</time></trkpt><trkpt lat="38.003383043422495" lon="14.975741015884076"><ele>1080.0</ele><time>2026-04-29T07:52:18Z</time></trkpt><trkpt lat="38.00332505818273" lon="14.975669241958503"><ele>1081.0</ele><time>2026-04-29T07:52:19Z</time></trkpt><trkpt lat="38.00327268068917" lon="14.975589313831318"><ele>1082.0</ele><time>2026-04-29T07:52:20Z</time></trkpt><trkpt lat="38.00323627710159" lon="14.975483708837514"><ele>1083.0</ele><time>2026-04-29T07:52:21Z</time></trkpt><trkpt lat="38.00319783348796" lon="14.975368198474301"><ele>1083.0</ele><time>2026-04-29T07:52:22Z</time></trkpt><trkpt lat="38.003148066375175" lon="14.97527959973413"><ele>1083.0</ele><time>2026-04-29T07:52:23Z</time></trkpt><trkpt lat="38.00308984310521" lon="14.975220207325975"><ele>1083.0</ele><time>2026-04-29T07:52:24Z</time></trkpt><trkpt lat="38.00304287526111" lon="14.975151230314351"><ele>1083.0</ele><time>2026-04-29T07:52:25Z</time></trkpt><trkpt lat="38.002967343938884" lon="14.97503524711172"><ele>1083.0</ele><time>2026-04-29T07:52:27Z</time></trkpt><trkpt lat="38.00292139131122" lon="14.974975620390431"><ele>1083.0</ele><time>2026-04-29T07:52:28Z</time></trkpt><trkpt lat="38.00286667937934" lon="14.974904628815215"><ele>1085.0</ele><time>2026-04-29T07:52:29Z</time></trkpt><trkpt lat="38.00281019684104" lon="14.974831338893873"><ele>1087.0</ele><time>2026-04-29T07:52:30Z</time></trkpt><trkpt lat="38.00271675606203" lon="14.974741518393383"><ele>1089.0</ele><time>2026-04-29T07:52:32Z</time></trkpt><trkpt lat="38.0026437480224" lon="14.97462189983176"><ele>1091.0</ele><time>2026-04-29T07:52:34Z</time></trkpt><trkpt lat="38.00259406513834" lon="14.974566618067753"><ele>1093.0</ele><time>2026-04-29T07:52:35Z</time></trkpt><trkpt lat="38.002537414825504" lon="14.974499789590677"><ele>1091.5</ele><time>2026-04-29T07:52:36Z</time></trkpt><trkpt lat="38.002493232115775" lon="14.9744409446067"><ele>1090.0</ele><time>2026-04-29T07:52:37Z</time></trkpt><trkpt lat="38.00245663921501" lon="14.974370728296792"><ele>1088.5</ele><time>2026-04-29T07:52:38Z</time></trkpt><trkpt lat="38.002424802386585" lon="14.974291919423907"><ele>1087.0</ele><time>2026-04-29T07:52:39Z</time></trkpt><trkpt lat="38.002394584347684" lon="14.974213249024505"><ele>1085.5</ele><time>2026-04-29T07:52:40Z</time></trkpt><trkpt lat="38.00230319306254" lon="14.974095766152828"><ele>1084.0</ele><time>2026-04-29T07:52:42Z</time></trkpt><trkpt lat="38.002248775783386" lon="14.974015848027404"><ele>1087.0</ele><time>2026-04-29T07:52:43Z</time></trkpt><trkpt lat="38.00218481424065" lon="14.973926583540317"><ele>1090.0</ele><time>2026-04-29T07:52:44Z</time></trkpt><trkpt lat="38.00214339037104" lon="14.973834709094993"><ele>1093.0</ele><time>2026-04-29T07:52:45Z</time></trkpt><trkpt lat="38.00208225060168" lon="14.97378386440617"><ele>1096.0</ele><time>2026-04-29T07:52:46Z</time></trkpt><trkpt lat="38.00205140188287" lon="14.973698363520901"><ele>1099.0</ele><time>2026-04-29T07:52:47Z</time></trkpt><trkpt lat="38.001998785564766" lon="14.973626775162584"><ele>1102.0</ele><time>2026-04-29T07:52:48Z</time></trkpt><trkpt lat="38.00194660261804" lon="14.973566120210428"><ele>1102.0</ele><time>2026-04-29T07:52:49Z</time></trkpt><trkpt lat="38.001893864229395" lon="14.973510474350894"><ele>1102.0</ele><time>2026-04-29T07:52:50Z</time></trkpt><trkpt lat="38.00184426555711" lon="14.973459565406861"><ele>1102.0</ele><time>2026-04-29T07:52:51Z</time></trkpt><trkpt lat="38.00176733716156" lon="14.973372828765873"><ele>1102.0</ele><time>2026-04-29T07:52:53Z</time></trkpt><trkpt lat="38.00169976552664" lon="14.973274746551192"><ele>1102.0</ele><time>2026-04-29T07:52:55Z</time></trkpt><trkpt lat="38.001659707851395" lon="14.973178963200612"><ele>1102.0</ele><time>2026-04-29T07:52:57Z</time></trkpt><trkpt lat="38.00165799231589" lon="14.973072979158543"><ele>1103.4285714285713</ele><time>2026-04-29T07:52:59Z</time></trkpt><trkpt lat="38.0016593117398" lon="14.972966131287048"><ele>1104.857142857143</ele><time>2026-04-29T07:53:00Z</time></trkpt><trkpt lat="38.001667704329634" lon="14.972870001476117"><ele>1106.2857142857142</ele><time>2026-04-29T07:53:01Z</time></trkpt><trkpt lat="38.001677528489644" lon="14.972782641435957"><ele>1107.7142857142858</ele><time>2026-04-29T07:53:02Z</time></trkpt><trkpt lat="38.00168816452308" lon="14.972700988408077"><ele>1109.142857142857</ele><time>2026-04-29T07:53:03Z</time></trkpt><trkpt lat="38.001692540493664" lon="14.972621229147746"><ele>1110.5714285714284</ele><time>2026-04-29T07:53:04Z</time></trkpt><trkpt lat="38.00168925008909" lon="14.972535883785051"><ele>1112.0</ele><time>2026-04-29T07:53:05Z</time></trkpt><trkpt lat="38.00167736990222" lon="14.972456811466142"><ele>1114.0</ele><time>2026-04-29T07:53:06Z</time></trkpt><trkpt lat="38.00163732235415" lon="14.972312848768718"><ele>1116.0</ele><time>2026-04-29T07:53:08Z</time></trkpt><trkpt lat="38.00162086621029" lon="14.972169021771586"><ele>1118.0</ele><time>2026-04-29T07:53:09.999Z</time></trkpt><trkpt lat="38.001627860238294" lon="14.972085458523159"><ele>1120.0</ele><time>2026-04-29T07:53:10.999Z</time></trkpt><trkpt lat="38.00163213912029" lon="14.972001647769122"><ele>1122.0</ele><time>2026-04-29T07:53:11.999Z</time></trkpt><trkpt lat="38.001677311819485" lon="14.971921035453354"><ele>1124.0</ele><time>2026-04-29T07:53:12.999Z</time></trkpt><trkpt lat="38.00167337342176" lon="14.971784174929825"><ele>1130.0</ele><time>2026-04-29T07:53:14.999Z</time></trkpt><trkpt lat="38.00166157734194" lon="14.971627393473625"><ele>1136.0</ele><time>2026-04-29T07:53:16.999Z</time></trkpt><trkpt lat="38.00165386826415" lon="14.971540093414115"><ele>1142.0</ele><time>2026-04-29T07:53:17.999Z</time></trkpt><trkpt lat="38.001642971282116" lon="14.971447425053771"><ele>1148.0</ele><time>2026-04-29T07:53:18.999Z</time></trkpt><trkpt lat="38.00162234781649" lon="14.971325784047956"><ele>1154.0</ele><time>2026-04-29T07:53:20.999Z</time></trkpt><trkpt lat="38.001593832574954" lon="14.971209998085222"><ele>1154.0</ele><time>2026-04-29T07:53:22.999Z</time></trkpt><trkpt lat="38.00153987513401" lon="14.971078167768246"><ele>1154.0</ele><time>2026-04-29T07:53:24.999Z</time></trkpt><trkpt lat="38.00150289788129" lon="14.97099934291863"><ele>1154.0</ele><time>2026-04-29T07:53:25.999Z</time></trkpt><trkpt lat="38.00145428586836" lon="14.97093792881144"><ele>1154.0</ele><time>2026-04-29T07:53:27Z</time></trkpt><trkpt lat="38.00142132699447" lon="14.970866903979449"><ele>1154.0</ele><time>2026-04-29T07:53:28Z</time></trkpt><trkpt lat="38.00138066443031" lon="14.970787276013839"><ele>1154.0</ele><time>2026-04-29T07:53:29Z</time></trkpt><trkpt lat="38.001337978152954" lon="14.97072665694344"><ele>1154.75</ele><time>2026-04-29T07:53:30Z</time></trkpt><trkpt lat="38.001270862650166" lon="14.970643246229017"><ele>1155.5</ele><time>2026-04-29T07:53:32Z</time></trkpt><trkpt lat="38.001106444017935" lon="14.970472756335452"><ele>1156.25</ele><time>2026-04-29T07:53:35Z</time></trkpt><trkpt lat="38.00103756106093" lon="14.970428564215895"><ele>1157.0</ele><time>2026-04-29T07:53:36Z</time></trkpt><trkpt lat="38.00096173697414" lon="14.970406822836026"><ele>1157.0</ele><time>2026-04-29T07:53:37Z</time></trkpt><trkpt lat="38.000877412774976" lon="14.970400066945206"><ele>1157.0</ele><time>2026-04-29T07:53:38Z</time></trkpt><trkpt lat="38.000774022577765" lon="14.970393469529537"><ele>1157.0</ele><time>2026-04-29T07:53:39Z</time></trkpt><trkpt lat="38.000696485993785" lon="14.970380020145896"><ele>1157.0</ele><time>2026-04-29T07:53:40Z</time></trkpt><trkpt lat="38.00061654184117" lon="14.970357672899585"><ele>1157.0</ele><time>2026-04-29T07:53:42Z</time></trkpt><trkpt lat="38.000497230562246" lon="14.970352528012418"><ele>1161.2</ele><time>2026-04-29T07:54:04Z</time></trkpt><trkpt lat="38.00043634815241" lon="14.970331237141842"><ele>1165.4</ele><time>2026-04-29T07:54:05Z</time></trkpt><trkpt lat="38.00031616780259" lon="14.970284292286774"><ele>1169.6</ele><time>2026-04-29T07:54:07Z</time></trkpt><trkpt lat="38.00023401948931" lon="14.970246480152648"><ele>1173.8</ele><time>2026-04-29T07:54:08Z</time></trkpt><trkpt lat="38.00013411512911" lon="14.970205459922074"><ele>1178.0</ele><time>2026-04-29T07:54:09Z</time></trkpt><trkpt lat="38.00001682983346" lon="14.970159045116493"><ele>1178.0</ele><time>2026-04-29T07:54:10Z</time></trkpt><trkpt lat="37.99988592658244" lon="14.970102370054418"><ele>1178.0</ele><time>2026-04-29T07:54:11Z</time></trkpt><trkpt lat="37.99976806793925" lon="14.970044139857619"><ele>1178.0</ele><time>2026-04-29T07:54:12Z</time></trkpt><trkpt lat="37.99965300562801" lon="14.96998516052026"><ele>1178.0</ele><time>2026-04-29T07:54:13Z</time></trkpt><trkpt lat="37.99954958749061" lon="14.969927521203534"><ele>1177.25</ele><time>2026-04-29T07:54:14Z</time></trkpt><trkpt lat="37.99944614100033" lon="14.969866129988077"><ele>1176.5</ele><time>2026-04-29T07:54:15Z</time></trkpt><trkpt lat="37.99932957355105" lon="14.969793850734899"><ele>1175.75</ele><time>2026-04-29T07:54:16Z</time></trkpt><trkpt lat="37.99922920896518" lon="14.969713809532907"><ele>1175.0</ele><time>2026-04-29T07:54:17Z</time></trkpt><trkpt lat="37.9991466165797" lon="14.969660846326795"><ele>1175.0</ele><time>2026-04-29T07:54:18Z</time></trkpt><trkpt lat="37.999074244771506" lon="14.969614163627122"><ele>1175.0</ele><time>2026-04-29T07:54:19Z</time></trkpt><trkpt lat="37.999009742893485" lon="14.969567843028631"><ele>1175.0</ele><time>2026-04-29T07:54:20Z</time></trkpt><trkpt lat="37.998938536010094" lon="14.969512232083993"><ele>1175.0</ele><time>2026-04-29T07:54:21Z</time></trkpt><trkpt lat="37.99886512004253" lon="14.969445796289328"><ele>1175.0</ele><time>2026-04-29T07:54:22Z</time></trkpt><trkpt lat="37.998781003049224" lon="14.969369107567214"><ele>1175.0</ele><time>2026-04-29T07:54:23Z</time></trkpt><trkpt lat="37.998696269103036" lon="14.969299172481792"><ele>1175.0</ele><time>2026-04-29T07:54:24Z</time></trkpt><trkpt lat="37.99862281654243" lon="14.969242063572894"><ele>1175.0</ele><time>2026-04-29T07:54:25Z</time></trkpt><trkpt lat="37.99854555227053" lon="14.96918290790653"><ele>1175.0</ele><time>2026-04-29T07:54:26Z</time></trkpt><trkpt lat="37.998456047562456" lon="14.96914041232966"><ele>1175.0</ele><time>2026-04-29T07:54:27Z</time></trkpt><trkpt lat="37.998373132032" lon="14.969070649423323"><ele>1175.0</ele><time>2026-04-29T07:54:28Z</time></trkpt><trkpt lat="37.99828131171146" lon="14.969020951087568"><ele>1176.0</ele><time>2026-04-29T07:54:29Z</time></trkpt><trkpt lat="37.998197613514456" lon="14.968975649004495"><ele>1177.0</ele><time>2026-04-29T07:54:30Z</time></trkpt><trkpt lat="37.998114900240566" lon="14.96892491985392"><ele>1178.0</ele><time>2026-04-29T07:54:31Z</time></trkpt><trkpt lat="37.99804335373124" lon="14.968867288460094"><ele>1179.0</ele><time>2026-04-29T07:54:32Z</time></trkpt><trkpt lat="37.997966119227854" lon="14.968798011911039"><ele>1180.0</ele><time>2026-04-29T07:54:33Z</time></trkpt><trkpt lat="37.99787452038737" lon="14.968712880651939"><ele>1180.0</ele><time>2026-04-29T07:54:34Z</time></trkpt><trkpt lat="37.997775018297794" lon="14.968620404224595"><ele>1180.0</ele><time>2026-04-29T07:54:35Z</time></trkpt><trkpt lat="37.99767260351729" lon="14.968525972279535"><ele>1180.0</ele><time>2026-04-29T07:54:36Z</time></trkpt><trkpt lat="37.997581482397244" lon="14.968450847726753"><ele>1180.0</ele><time>2026-04-29T07:54:37Z</time></trkpt><trkpt lat="37.99748783926468" lon="14.968400063067811"><ele>1181.5</ele><time>2026-04-29T07:54:38Z</time></trkpt><trkpt lat="37.997400241688126" lon="14.96834035529652"><ele>1183.0</ele><time>2026-04-29T07:54:39Z</time></trkpt><trkpt lat="37.997304691150724" lon="14.968285755930745"><ele>1184.5</ele><time>2026-04-29T07:54:40Z</time></trkpt><trkpt lat="37.99718246020811" lon="14.96823020397242"><ele>1186.0</ele><time>2026-04-29T07:54:41Z</time></trkpt><trkpt lat="37.99704271791538" lon="14.968160057907369"><ele>1186.0</ele><time>2026-04-29T07:54:42Z</time></trkpt><trkpt lat="37.996894399793504" lon="14.968086518454719"><ele>1186.0</ele><time>2026-04-29T07:54:43Z</time></trkpt><trkpt lat="37.9967513897622" lon="14.968009188978181"><ele>1186.0</ele><time>2026-04-29T07:54:44Z</time></trkpt><trkpt lat="37.996619512855" lon="14.967902235335076"><ele>1186.6666666666665</ele><time>2026-04-29T07:54:45Z</time></trkpt><trkpt lat="37.99647584678558" lon="14.967815676740079"><ele>1187.3333333333333</ele><time>2026-04-29T07:54:46Z</time></trkpt><trkpt lat="37.99633190692729" lon="14.967748056585368"><ele>1188.0</ele><time>2026-04-29T07:54:47Z</time></trkpt><trkpt lat="37.996218348661266" lon="14.967648858629767"><ele>1188.0</ele><time>2026-04-29T07:54:48Z</time></trkpt><trkpt lat="37.99609983799015" lon="14.967556598247809"><ele>1188.0</ele><time>2026-04-29T07:54:49Z</time></trkpt><trkpt lat="37.99599249932567" lon="14.967464266525592"><ele>1188.0</ele><time>2026-04-29T07:54:50Z</time></trkpt><trkpt lat="37.99590949648353" lon="14.967349968733176"><ele>1188.0</ele><time>2026-04-29T07:54:51Z</time></trkpt><trkpt lat="37.99580423384368" lon="14.967236445170933"><ele>1189.75</ele><time>2026-04-29T07:54:52Z</time></trkpt><trkpt lat="37.995689809855705" lon="14.967130115913378"><ele>1191.5</ele><time>2026-04-29T07:54:53Z</time></trkpt><trkpt lat="37.995570396463286" lon="14.967046888677814"><ele>1193.25</ele><time>2026-04-29T07:54:54Z</time></trkpt><trkpt lat="37.995456342026124" lon="14.966961298013732"><ele>1195.0</ele><time>2026-04-29T07:54:55Z</time></trkpt><trkpt lat="37.995324625627426" lon="14.966873256132507"><ele>1195.0</ele><time>2026-04-29T07:54:56Z</time></trkpt><trkpt lat="37.995188065433624" lon="14.966780347411708"><ele>1195.0</ele><time>2026-04-29T07:54:57Z</time></trkpt><trkpt lat="37.99504715832917" lon="14.96667717539146"><ele>1195.0</ele><time>2026-04-29T07:54:58Z</time></trkpt><trkpt lat="37.99490296760067" lon="14.966564865965806"><ele>1196.6666666666665</ele><time>2026-04-29T07:54:59Z</time></trkpt><trkpt lat="37.99477638371115" lon="14.966427957698787"><ele>1198.3333333333333</ele><time>2026-04-29T07:55:00Z</time></trkpt><trkpt lat="37.99465999437761" lon="14.966301857356529"><ele>1200.0</ele><time>2026-04-29T07:55:01Z</time></trkpt><trkpt lat="37.99455315088346" lon="14.966180196217303"><ele>1200.0</ele><time>2026-04-29T07:55:02Z</time></trkpt><trkpt lat="37.99445503705953" lon="14.966067288339787"><ele>1200.0</ele><time>2026-04-29T07:55:03Z</time></trkpt><trkpt lat="37.99436656189974" lon="14.965967790033522"><ele>1200.0</ele><time>2026-04-29T07:55:04Z</time></trkpt><trkpt lat="37.99427674660677" lon="14.965866892362701"><ele>1200.0</ele><time>2026-04-29T07:55:04.999Z</time></trkpt><trkpt lat="37.99417905340048" lon="14.96576089434503"><ele>1203.25</ele><time>2026-04-29T07:55:05.999Z</time></trkpt><trkpt lat="37.994073773227086" lon="14.965646664188029"><ele>1206.5</ele><time>2026-04-29T07:55:06.999Z</time></trkpt><trkpt lat="37.99396750027181" lon="14.965536229641215"><ele>1209.75</ele><time>2026-04-29T07:55:07.999Z</time></trkpt><trkpt lat="37.99385519308246" lon="14.965429064346983"><ele>1213.0</ele><time>2026-04-29T07:55:08.999Z</time></trkpt><trkpt lat="37.993751623651484" lon="14.965337879347594"><ele>1213.0</ele><time>2026-04-29T07:55:09.999Z</time></trkpt><trkpt lat="37.99365045162349" lon="14.965258306977262"><ele>1213.0</ele><time>2026-04-29T07:55:10.999Z</time></trkpt><trkpt lat="37.993536691479825" lon="14.965183122159926"><ele>1213.0</ele><time>2026-04-29T07:55:11.999Z</time></trkpt><trkpt lat="37.99341502332714" lon="14.96511479499678"><ele>1213.0</ele><time>2026-04-29T07:55:12.999Z</time></trkpt><trkpt lat="37.99330746097449" lon="14.965064196932232"><ele>1213.8</ele><time>2026-04-29T07:55:13.999Z</time></trkpt><trkpt lat="37.99320469925091" lon="14.965037152263621"><ele>1214.6</ele><time>2026-04-29T07:55:14.999Z</time></trkpt><trkpt lat="37.99311246489957" lon="14.964993894733935"><ele>1215.4</ele><time>2026-04-29T07:55:15.999Z</time></trkpt><trkpt lat="37.9930092598866" lon="14.964965510935123"><ele>1216.2</ele><time>2026-04-29T07:55:16.999Z</time></trkpt><trkpt lat="37.99289763411871" lon="14.96493899992334"><ele>1217.0</ele><time>2026-04-29T07:55:17.999Z</time></trkpt><trkpt lat="37.992800407281855" lon="14.96488023601527"><ele>1217.8</ele><time>2026-04-29T07:55:18.999Z</time></trkpt><trkpt lat="37.99270683171521" lon="14.964841263219842"><ele>1218.6</ele><time>2026-04-29T07:55:19.999Z</time></trkpt><trkpt lat="37.99262015628505" lon="14.96481039412562"><ele>1219.3999999999999</ele><time>2026-04-29T07:55:20.999Z</time></trkpt><trkpt lat="37.99253076922954" lon="14.964786395879873"><ele>1220.2</ele><time>2026-04-29T07:55:21.999Z</time></trkpt><trkpt lat="37.99242936165175" lon="14.964794024773427"><ele>1221.0</ele><time>2026-04-29T07:55:22.999Z</time></trkpt><trkpt lat="37.99234685361496" lon="14.964776692024607"><ele>1222.3333333333333</ele><time>2026-04-29T07:55:23.999Z</time></trkpt><trkpt lat="37.99223891176022" lon="14.964765985268073"><ele>1223.6666666666667</ele><time>2026-04-29T07:55:25.999Z</time></trkpt><trkpt lat="37.99217480545843" lon="14.964752431435262"><ele>1225.0</ele><time>2026-04-29T07:55:26.999Z</time></trkpt><trkpt lat="37.99209029485061" lon="14.964749399666056"><ele>1226.3333333333335</ele><time>2026-04-29T07:55:27.999Z</time></trkpt><trkpt lat="37.992001972724786" lon="14.964753665211664"><ele>1227.6666666666667</ele><time>2026-04-29T07:55:28.999Z</time></trkpt><trkpt lat="37.991924285636976" lon="14.964731138036331"><ele>1229.0</ele><time>2026-04-29T07:55:29.999Z</time></trkpt><trkpt lat="37.991837867866415" lon="14.964724016174968"><ele>1229.0</ele><time>2026-04-29T07:55:30.999Z</time></trkpt><trkpt lat="37.99173563543893" lon="14.964727666419067"><ele>1229.0</ele><time>2026-04-29T07:55:31.999Z</time></trkpt><trkpt lat="37.99162035967247" lon="14.964743570736628"><ele>1229.0</ele><time>2026-04-29T07:55:33Z</time></trkpt><trkpt lat="37.99150268005542" lon="14.964769910682953"><ele>1229.0</ele><time>2026-04-29T07:55:34Z</time></trkpt><trkpt lat="37.991387891167264" lon="14.964859830915724"><ele>1228.75</ele><time>2026-04-29T07:55:35Z</time></trkpt><trkpt lat="37.99127175127658" lon="14.964895172290746"><ele>1228.5</ele><time>2026-04-29T07:55:36Z</time></trkpt><trkpt lat="37.99116213124217" lon="14.964930949410322"><ele>1228.25</ele><time>2026-04-29T07:55:37Z</time></trkpt><trkpt lat="37.99104732322791" lon="14.964978314792907"><ele>1228.0</ele><time>2026-04-29T07:55:38Z</time></trkpt><trkpt lat="37.990925418901575" lon="14.965033528224314"><ele>1230.5</ele><time>2026-04-29T07:55:39Z</time></trkpt><trkpt lat="37.99080376726254" lon="14.965094374784812"><ele>1233.0</ele><time>2026-04-29T07:55:40Z</time></trkpt><trkpt lat="37.99069440266589" lon="14.965143644054073"><ele>1235.5</ele><time>2026-04-29T07:55:41Z</time></trkpt><trkpt lat="37.99059382461356" lon="14.965196385645863"><ele>1238.0</ele><time>2026-04-29T07:55:42Z</time></trkpt><trkpt lat="37.99050283413112" lon="14.965246776858127"><ele>1238.0</ele><time>2026-04-29T07:55:43Z</time></trkpt><trkpt lat="37.99041582437243" lon="14.965296933068549"><ele>1238.0</ele><time>2026-04-29T07:55:44Z</time></trkpt><trkpt lat="37.99034072939478" lon="14.965325568598015"><ele>1238.0</ele><time>2026-04-29T07:55:45Z</time></trkpt><trkpt lat="37.990261294947615" lon="14.96533077351882"><ele>1238.0</ele><time>2026-04-29T07:55:46Z</time></trkpt><trkpt lat="37.990174846812074" lon="14.965319982408632"><ele>1238.0</ele><time>2026-04-29T07:55:47Z</time></trkpt><trkpt lat="37.99007883621714" lon="14.965295488339104"><ele>1238.0</ele><time>2026-04-29T07:55:48Z</time></trkpt><trkpt lat="37.98996424075343" lon="14.96525203263297"><ele>1239.0</ele><time>2026-04-29T07:55:49Z</time></trkpt><trkpt lat="37.9898322016747" lon="14.965189097612232"><ele>1240.0</ele><time>2026-04-29T07:55:50Z</time></trkpt><trkpt lat="37.98970083687618" lon="14.96513967699295"><ele>1241.0</ele><time>2026-04-29T07:55:51Z</time></trkpt><trkpt lat="37.98957602624289" lon="14.965111242085186"><ele>1242.0</ele><time>2026-04-29T07:55:52Z</time></trkpt><trkpt lat="37.98946003619884" lon="14.96509601369812"><ele>1242.0</ele><time>2026-04-29T07:55:53Z</time></trkpt><trkpt lat="37.98934776477813" lon="14.965098482846956"><ele>1242.0</ele><time>2026-04-29T07:55:54Z</time></trkpt><trkpt lat="37.98923273894597" lon="14.965115546860515"><ele>1242.0</ele><time>2026-04-29T07:55:55Z</time></trkpt><trkpt lat="37.98912066173184" lon="14.965120139289592"><ele>1242.0</ele><time>2026-04-29T07:55:56Z</time></trkpt><trkpt lat="37.98899776867764" lon="14.965101932921574"><ele>1243.25</ele><time>2026-04-29T07:55:57Z</time></trkpt><trkpt lat="37.98885622833821" lon="14.965075767995987"><ele>1244.5</ele><time>2026-04-29T07:55:58Z</time></trkpt><trkpt lat="37.988707789094306" lon="14.965048577834507"><ele>1245.75</ele><time>2026-04-29T07:55:59Z</time></trkpt><trkpt lat="37.98856297796778" lon="14.964999615377282"><ele>1247.0</ele><time>2026-04-29T07:56:00Z</time></trkpt><trkpt lat="37.98842434133966" lon="14.964938828836852"><ele>1249.25</ele><time>2026-04-29T07:56:01Z</time></trkpt><trkpt lat="37.988284104668914" lon="14.964872508415588"><ele>1251.5</ele><time>2026-04-29T07:56:02Z</time></trkpt><trkpt lat="37.988146129204026" lon="14.96481544252736"><ele>1253.75</ele><time>2026-04-29T07:56:03Z</time></trkpt><trkpt lat="37.98801207344002" lon="14.964767557286297"><ele>1256.0</ele><time>2026-04-29T07:56:04Z</time></trkpt><trkpt lat="37.987893398190344" lon="14.96472412065027"><ele>1256.0</ele><time>2026-04-29T07:56:05Z</time></trkpt><trkpt lat="37.98781772277385" lon="14.964667754120152"><ele>1256.0</ele><time>2026-04-29T07:56:06Z</time></trkpt><trkpt lat="37.98774680907758" lon="14.964596672899392"><ele>1256.0</ele><time>2026-04-29T07:56:07Z</time></trkpt><trkpt lat="37.987670351236346" lon="14.964492905301984"><ele>1256.0</ele><time>2026-04-29T07:56:08Z</time></trkpt><trkpt lat="37.98759161071931" lon="14.964359185660138"><ele>1256.0</ele><time>2026-04-29T07:56:09Z</time></trkpt><trkpt lat="37.98750820801596" lon="14.964212049422626"><ele>1257.25</ele><time>2026-04-29T07:56:10Z</time></trkpt><trkpt lat="37.987429157196104" lon="14.964069842008476"><ele>1258.5</ele><time>2026-04-29T07:56:11Z</time></trkpt><trkpt lat="37.98734333228008" lon="14.963929421512592"><ele>1259.75</ele><time>2026-04-29T07:56:12Z</time></trkpt><trkpt lat="37.98725013641215" lon="14.963772919976087"><ele>1261.0</ele><time>2026-04-29T07:56:13Z</time></trkpt><trkpt lat="37.98716055427386" lon="14.963622849351498"><ele>1261.0</ele><time>2026-04-29T07:56:14Z</time></trkpt><trkpt lat="37.98705859912085" lon="14.963474703088982"><ele>1261.0</ele><time>2026-04-29T07:56:15Z</time></trkpt><trkpt lat="37.98695416253023" lon="14.963334540938096"><ele>1261.0</ele><time>2026-04-29T07:56:16Z</time></trkpt><trkpt lat="37.98685650079062" lon="14.96318872213077"><ele>1261.0</ele><time>2026-04-29T07:56:17Z</time></trkpt><trkpt lat="37.986765437464946" lon="14.963033813929728"><ele>1261.0</ele><time>2026-04-29T07:56:18Z</time></trkpt><trkpt lat="37.98667693569491" lon="14.962869372031289"><ele>1261.0</ele><time>2026-04-29T07:56:19Z</time></trkpt><trkpt lat="37.98658486162256" lon="14.96269713314233"><ele>1261.3333333333333</ele><time>2026-04-29T07:56:20Z</time></trkpt><trkpt lat="37.98648411767789" lon="14.962548023324226"><ele>1261.6666666666667</ele><time>2026-04-29T07:56:21Z</time></trkpt><trkpt lat="37.98638529172124" lon="14.962402913508205"><ele>1262.0</ele><time>2026-04-29T07:56:22Z</time></trkpt><trkpt lat="37.98628292197235" lon="14.962268334650785"><ele>1262.0</ele><time>2026-04-29T07:56:23Z</time></trkpt><trkpt lat="37.98618681592031" lon="14.962147235513587"><ele>1262.0</ele><time>2026-04-29T07:56:24Z</time></trkpt><trkpt lat="37.98608974760634" lon="14.962047996091972"><ele>1262.0</ele><time>2026-04-29T07:56:25Z</time></trkpt><trkpt lat="37.98599491230005" lon="14.961963067500623"><ele>1262.0</ele><time>2026-04-29T07:56:26Z</time></trkpt><trkpt lat="37.98590859568711" lon="14.961891897372347"><ele>1262.0</ele><time>2026-04-29T07:56:27Z</time></trkpt><trkpt lat="37.98583356262138" lon="14.961835579132526"><ele>1262.0</ele><time>2026-04-29T07:56:28Z</time></trkpt><trkpt lat="37.98576449371201" lon="14.96178849163168"><ele>1262.0</ele><time>2026-04-29T07:56:29Z</time></trkpt><trkpt lat="37.98570184951719" lon="14.961748115034517"><ele>1262.0</ele><time>2026-04-29T07:56:30Z</time></trkpt><trkpt lat="37.98564134078127" lon="14.961694933038249"><ele>1262.0</ele><time>2026-04-29T07:56:32Z</time></trkpt><trkpt lat="37.985587097260364" lon="14.96160377698845"><ele>1262.0</ele><time>2026-04-29T07:57:05Z</time></trkpt><trkpt lat="37.985509958269766" lon="14.961496473392707"><ele>1262.0</ele><time>2026-04-29T07:57:07Z</time></trkpt><trkpt lat="37.98542405841618" lon="14.961407548142814"><ele>1262.0</ele><time>2026-04-29T07:57:09Z</time></trkpt><trkpt lat="37.98532418745521" lon="14.96131558568015"><ele>1262.0</ele><time>2026-04-29T07:57:11Z</time></trkpt><trkpt lat="37.98526820130152" lon="14.961258897192153"><ele>1262.0</ele><time>2026-04-29T07:57:12Z</time></trkpt><trkpt lat="37.985200903805485" lon="14.961191266759625"><ele>1262.0</ele><time>2026-04-29T07:57:13Z</time></trkpt><trkpt lat="37.98511993655097" lon="14.961119333901932"><ele>1262.0</ele><time>2026-04-29T07:57:14Z</time></trkpt><trkpt lat="37.98503112721648" lon="14.9610422846963"><ele>1262.0</ele><time>2026-04-29T07:57:15Z</time></trkpt><trkpt lat="37.98495112627795" lon="14.96096342996932"><ele>1262.0</ele><time>2026-04-29T07:57:16Z</time></trkpt><trkpt lat="37.98486842777063" lon="14.960875531396706"><ele>1262.0</ele><time>2026-04-29T07:57:16.999Z</time></trkpt><trkpt lat="37.98480994006684" lon="14.960801576771296"><ele>1262.0</ele><time>2026-04-29T07:57:17.999Z</time></trkpt><trkpt lat="37.98475705993404" lon="14.960721826043159"><ele>1266.2</ele><time>2026-04-29T07:57:18.999Z</time></trkpt><trkpt lat="37.98470505946045" lon="14.960618619767054"><ele>1270.4</ele><time>2026-04-29T07:57:19.999Z</time></trkpt><trkpt lat="37.98465526023728" lon="14.960517105600005"><ele>1274.6000000000001</ele><time>2026-04-29T07:57:20.999Z</time></trkpt><trkpt lat="37.98461669823109" lon="14.960418424135291"><ele>1278.8000000000002</ele><time>2026-04-29T07:57:21.999Z</time></trkpt><trkpt lat="37.984573918310375" lon="14.960313199862616"><ele>1283.0</ele><time>2026-04-29T07:57:22.999Z</time></trkpt><trkpt lat="37.9845119423565" lon="14.96020330164452"><ele>1283.0</ele><time>2026-04-29T07:57:23.999Z</time></trkpt><trkpt lat="37.984441306576144" lon="14.960093341917974"><ele>1283.0</ele><time>2026-04-29T07:57:24.999Z</time></trkpt><trkpt lat="37.98436069985638" lon="14.959972422835282"><ele>1283.0</ele><time>2026-04-29T07:57:25.999Z</time></trkpt><trkpt lat="37.984278438159485" lon="14.959838656155219"><ele>1283.0</ele><time>2026-04-29T07:57:26.999Z</time></trkpt><trkpt lat="37.9842035020333" lon="14.959719061207657"><ele>1289.0</ele><time>2026-04-29T07:57:27.999Z</time></trkpt><trkpt lat="37.984124604050045" lon="14.959610528113394"><ele>1295.0</ele><time>2026-04-29T07:57:28.999Z</time></trkpt><trkpt lat="37.98405381346913" lon="14.959495600208536"><ele>1301.0</ele><time>2026-04-29T07:57:29.999Z</time></trkpt><trkpt lat="37.983989967235196" lon="14.959392609697735"><ele>1307.0</ele><time>2026-04-29T07:57:30.999Z</time></trkpt><trkpt lat="37.98393657363105" lon="14.95929579536165"><ele>1313.0</ele><time>2026-04-29T07:57:31.999Z</time></trkpt><trkpt lat="37.983882892558796" lon="14.959190041529064"><ele>1314.25</ele><time>2026-04-29T07:57:32.999Z</time></trkpt><trkpt lat="37.983832894362244" lon="14.95905439897419"><ele>1315.5</ele><time>2026-04-29T07:57:33.999Z</time></trkpt><trkpt lat="37.983803279454456" lon="14.958906127747834"><ele>1316.75</ele><time>2026-04-29T07:57:34.999Z</time></trkpt><trkpt lat="37.98377834297543" lon="14.958774211584881"><ele>1318.0</ele><time>2026-04-29T07:57:35.999Z</time></trkpt><trkpt lat="37.9837627710751" lon="14.958616282090325"><ele>1318.0</ele><time>2026-04-29T07:57:36.999Z</time></trkpt><trkpt lat="37.98376242773569" lon="14.95845527257312"><ele>1318.0</ele><time>2026-04-29T07:57:37.999Z</time></trkpt><trkpt lat="37.98377426645507" lon="14.958291391972816"><ele>1318.0</ele><time>2026-04-29T07:57:39Z</time></trkpt><trkpt lat="37.9837972008295" lon="14.958140709369765"><ele>1318.0</ele><time>2026-04-29T07:57:40Z</time></trkpt><trkpt lat="37.983824943953266" lon="14.957970472850473"><ele>1319.0</ele><time>2026-04-29T07:57:41Z</time></trkpt><trkpt lat="37.98385234721412" lon="14.957802194214853"><ele>1320.0</ele><time>2026-04-29T07:57:42Z</time></trkpt><trkpt lat="37.98387789414897" lon="14.957645315399146"><ele>1321.0</ele><time>2026-04-29T07:57:43Z</time></trkpt><trkpt lat="37.98388737970227" lon="14.95748644346154"><ele>1322.0</ele><time>2026-04-29T07:57:44Z</time></trkpt><trkpt lat="37.98392078351658" lon="14.95730343032415"><ele>1325.0</ele><time>2026-04-29T07:57:45Z</time></trkpt><trkpt lat="37.983946198748725" lon="14.957109198214258"><ele>1328.0</ele><time>2026-04-29T07:57:46Z</time></trkpt><trkpt lat="37.983983837273605" lon="14.956938836897102"><ele>1331.0</ele><time>2026-04-29T07:57:47Z</time></trkpt><trkpt lat="37.9839946479357" lon="14.956786063975022"><ele>1334.0</ele><time>2026-04-29T07:57:48Z</time></trkpt><trkpt lat="37.98399724764112" lon="14.956608768849687"><ele>1334.5</ele><time>2026-04-29T07:57:49Z</time></trkpt><trkpt lat="37.98399171006185" lon="14.956434523956291"><ele>1335.0</ele><time>2026-04-29T07:57:50Z</time></trkpt><trkpt lat="37.983979885536556" lon="14.956276126512504"><ele>1335.5</ele><time>2026-04-29T07:57:51Z</time></trkpt><trkpt lat="37.98395157621679" lon="14.956109427224973"><ele>1336.0</ele><time>2026-04-29T07:57:52Z</time></trkpt><trkpt lat="37.98393604908051" lon="14.955942718108863"><ele>1335.5</ele><time>2026-04-29T07:57:53Z</time></trkpt><trkpt lat="37.98392330094123" lon="14.955789682006952"><ele>1335.0</ele><time>2026-04-29T07:57:54Z</time></trkpt><trkpt lat="37.98391272304095" lon="14.955645205206574"><ele>1334.5</ele><time>2026-04-29T07:57:55Z</time></trkpt><trkpt lat="37.98390724096812" lon="14.955494459974886"><ele>1334.0</ele><time>2026-04-29T07:57:56Z</time></trkpt><trkpt lat="37.98390887422724" lon="14.955344558860958"><ele>1334.0</ele><time>2026-04-29T07:57:57Z</time></trkpt><trkpt lat="37.98391497494906" lon="14.955204906379581"><ele>1334.0</ele><time>2026-04-29T07:57:58Z</time></trkpt><trkpt lat="37.98396238133436" lon="14.955067350980729"><ele>1334.0</ele><time>2026-04-29T07:57:59Z</time></trkpt><trkpt lat="37.98401114681244" lon="14.954913409432795"><ele>1334.0</ele><time>2026-04-29T07:58:00Z</time></trkpt><trkpt lat="37.98406638221125" lon="14.954774656814383"><ele>1333.8000000000002</ele><time>2026-04-29T07:58:01Z</time></trkpt><trkpt lat="37.9841058445439" lon="14.954640774615298"><ele>1333.6000000000001</ele><time>2026-04-29T07:58:02Z</time></trkpt><trkpt lat="37.984164194781094" lon="14.95453120913769"><ele>1333.4</ele><time>2026-04-29T07:58:03Z</time></trkpt><trkpt lat="37.984237077076244" lon="14.954434207579009"><ele>1333.2</ele><time>2026-04-29T07:58:04Z</time></trkpt><trkpt lat="37.98433879705941" lon="14.954362293424383"><ele>1333.0</ele><time>2026-04-29T07:58:05Z</time></trkpt><trkpt lat="37.98444269058343" lon="14.95430405057156"><ele>1333.0</ele><time>2026-04-29T07:58:06Z</time></trkpt><trkpt lat="37.984542087001905" lon="14.954266501780829"><ele>1333.0</ele><time>2026-04-29T07:58:07Z</time></trkpt><trkpt lat="37.98465816720077" lon="14.954237744340285"><ele>1333.0</ele><time>2026-04-29T07:58:08Z</time></trkpt><trkpt lat="37.98477720473634" lon="14.954230223380465"><ele>1333.0</ele><time>2026-04-29T07:58:09Z</time></trkpt><trkpt lat="37.984894533848916" lon="14.95423231005071"><ele>1327.25</ele><time>2026-04-29T07:58:10Z</time></trkpt><trkpt lat="37.985024526403826" lon="14.954217892144218"><ele>1321.5</ele><time>2026-04-29T07:58:11Z</time></trkpt><trkpt lat="37.98516075126403" lon="14.954236291618061"><ele>1315.75</ele><time>2026-04-29T07:58:12Z</time></trkpt><trkpt lat="37.98527940119371" lon="14.954248358373965"><ele>1310.0</ele><time>2026-04-29T07:58:13Z</time></trkpt><trkpt lat="37.985376849255914" lon="14.954246403654532"><ele>1310.0</ele><time>2026-04-29T07:58:14Z</time></trkpt><trkpt lat="37.9854624652104" lon="14.954221515256254"><ele>1310.0</ele><time>2026-04-29T07:58:15Z</time></trkpt><trkpt lat="37.98555379060349" lon="14.954164892910093"><ele>1310.0</ele><time>2026-04-29T07:58:16Z</time></trkpt><trkpt lat="37.98563690131874" lon="14.954089365075129"><ele>1310.0</ele><time>2026-04-29T07:58:17Z</time></trkpt><trkpt lat="37.985702227905065" lon="14.953994312426392"><ele>1310.0</ele><time>2026-04-29T07:58:18Z</time></trkpt><trkpt lat="37.98575288403971" lon="14.953877158571542"><ele>1312.0</ele><time>2026-04-29T07:58:19Z</time></trkpt><trkpt lat="37.98578315712647" lon="14.953759967693042"><ele>1314.0</ele><time>2026-04-29T07:58:20Z</time></trkpt><trkpt lat="37.98580865722789" lon="14.95364881669625"><ele>1316.0</ele><time>2026-04-29T07:58:21Z</time></trkpt><trkpt lat="37.98581858519761" lon="14.953532973862792"><ele>1318.0</ele><time>2026-04-29T07:58:22Z</time></trkpt><trkpt lat="37.985825738218416" lon="14.95339218514474"><ele>1320.0</ele><time>2026-04-29T07:58:23Z</time></trkpt><trkpt lat="37.98584129744906" lon="14.953242144063044"><ele>1320.4</ele><time>2026-04-29T07:58:24Z</time></trkpt><trkpt lat="37.98585174478729" lon="14.953089615607512"><ele>1320.8</ele><time>2026-04-29T07:58:25Z</time></trkpt><trkpt lat="37.985864344549654" lon="14.952945483413338"><ele>1321.1999999999998</ele><time>2026-04-29T07:58:26Z</time></trkpt><trkpt lat="37.985829506107045" lon="14.952823793998713"><ele>1321.6</ele><time>2026-04-29T07:58:27Z</time></trkpt><trkpt lat="37.98580670254678" lon="14.952706777644037"><ele>1322.0</ele><time>2026-04-29T07:58:28Z</time></trkpt><trkpt lat="37.985766299782554" lon="14.952577594928597"><ele>1322.5</ele><time>2026-04-29T07:58:29Z</time></trkpt><trkpt lat="37.98571018525589" lon="14.952431069459246"><ele>1323.0</ele><time>2026-04-29T07:58:30Z</time></trkpt><trkpt lat="37.98565785819599" lon="14.952271311838642"><ele>1323.5</ele><time>2026-04-29T07:58:31Z</time></trkpt><trkpt lat="37.9856083526144" lon="14.952126795343522"><ele>1324.0</ele><time>2026-04-29T07:58:32Z</time></trkpt><trkpt lat="37.98555211486091" lon="14.952006732505035"><ele>1324.0</ele><time>2026-04-29T07:58:33Z</time></trkpt><trkpt lat="37.98547715948817" lon="14.951897550936305"><ele>1324.0</ele><time>2026-04-29T07:58:34Z</time></trkpt><trkpt lat="37.98539138837945" lon="14.951783198950706"><ele>1324.0</ele><time>2026-04-29T07:58:35Z</time></trkpt><trkpt lat="37.98532287957283" lon="14.951673007061961"><ele>1324.0</ele><time>2026-04-29T07:58:36Z</time></trkpt><trkpt lat="37.9852980253815" lon="14.951545865333786"><ele>1325.25</ele><time>2026-04-29T07:58:37Z</time></trkpt><trkpt lat="37.98526200840009" lon="14.951405425398331"><ele>1326.5</ele><time>2026-04-29T07:58:38Z</time></trkpt><trkpt lat="37.985221322596246" lon="14.951241535080907"><ele>1327.75</ele><time>2026-04-29T07:58:39Z</time></trkpt><trkpt lat="37.985196930827655" lon="14.951067511007444"><ele>1329.0</ele><time>2026-04-29T07:58:40Z</time></trkpt><trkpt lat="37.985190038484056" lon="14.950911109382536"><ele>1328.75</ele><time>2026-04-29T07:58:41Z</time></trkpt><trkpt lat="37.985174798811784" lon="14.950760759346084"><ele>1328.5</ele><time>2026-04-29T07:58:42Z</time></trkpt><trkpt lat="37.98520438708558" lon="14.95059568711341"><ele>1328.25</ele><time>2026-04-29T07:58:43Z</time></trkpt><trkpt lat="37.98527719517628" lon="14.950425623318676"><ele>1328.0</ele><time>2026-04-29T07:58:44Z</time></trkpt><trkpt lat="37.985344927552106" lon="14.950216753802769"><ele>1326.0</ele><time>2026-04-29T07:58:45Z</time></trkpt><trkpt lat="37.98540289307459" lon="14.950020204541756"><ele>1324.0</ele><time>2026-04-29T07:58:46Z</time></trkpt><trkpt lat="37.985447174435855" lon="14.949831733431111"><ele>1322.0</ele><time>2026-04-29T07:58:47Z</time></trkpt><trkpt lat="37.985482719505576" lon="14.94965115951498"><ele>1322.0</ele><time>2026-04-29T07:58:48Z</time></trkpt><trkpt lat="37.985492681470795" lon="14.949477194166672"><ele>1322.0</ele><time>2026-04-29T07:58:49Z</time></trkpt><trkpt lat="37.9855141473259" lon="14.949330417213814"><ele>1322.0</ele><time>2026-04-29T07:58:50Z</time></trkpt><trkpt lat="37.98553186456242" lon="14.949209153824652"><ele>1322.0</ele><time>2026-04-29T07:58:51Z</time></trkpt><trkpt lat="37.98556413573231" lon="14.949106488884295"><ele>1322.0</ele><time>2026-04-29T07:58:52Z</time></trkpt><trkpt lat="37.9856363767712" lon="14.949018601230527"><ele>1321.5</ele><time>2026-04-29T07:58:53Z</time></trkpt><trkpt lat="37.985717779451825" lon="14.94890046189623"><ele>1321.0</ele><time>2026-04-29T07:58:54Z</time></trkpt><trkpt lat="37.985797146056704" lon="14.948753658216601"><ele>1320.5</ele><time>2026-04-29T07:58:55Z</time></trkpt><trkpt lat="37.98587688898604" lon="14.948649325579614"><ele>1320.0</ele><time>2026-04-29T07:58:56Z</time></trkpt><trkpt lat="37.98594869832759" lon="14.948567763780854"><ele>1319.2</ele><time>2026-04-29T07:58:57Z</time></trkpt><trkpt lat="37.98601297437625" lon="14.948487511246938"><ele>1318.4</ele><time>2026-04-29T07:58:58Z</time></trkpt><trkpt lat="37.98607104550472" lon="14.948377157792054"><ele>1317.6</ele><time>2026-04-29T07:58:59Z</time></trkpt><trkpt lat="37.98612237559826" lon="14.948248863359064"><ele>1316.8</ele><time>2026-04-29T07:59:00Z</time></trkpt><trkpt lat="37.98615930890554" lon="14.948124882933085"><ele>1316.0</ele><time>2026-04-29T07:59:01Z</time></trkpt><trkpt lat="37.98621699744037" lon="14.948035223175918"><ele>1319.4</ele><time>2026-04-29T07:59:02Z</time></trkpt><trkpt lat="37.986257214223855" lon="14.947959607779644"><ele>1322.8</ele><time>2026-04-29T07:59:03Z</time></trkpt><trkpt lat="37.986322750423845" lon="14.947914377445706"><ele>1326.2</ele><time>2026-04-29T07:59:04Z</time></trkpt><trkpt lat="37.98642044646258" lon="14.947910105727031"><ele>1329.6000000000001</ele><time>2026-04-29T07:59:05Z</time></trkpt><trkpt lat="37.98651678958651" lon="14.947868265194865"><ele>1333.0</ele><time>2026-04-29T07:59:06Z</time></trkpt><trkpt lat="37.98662472123637" lon="14.947818239782833"><ele>1334.0</ele><time>2026-04-29T07:59:07Z</time></trkpt><trkpt lat="37.98673526458996" lon="14.94775500821911"><ele>1335.0</ele><time>2026-04-29T07:59:08Z</time></trkpt><trkpt lat="37.98683904681219" lon="14.947651486376335"><ele>1336.0</ele><time>2026-04-29T07:59:09Z</time></trkpt><trkpt lat="37.98694039320097" lon="14.94757419895532"><ele>1337.0</ele><time>2026-04-29T07:59:10Z</time></trkpt><trkpt lat="37.987032129372395" lon="14.947500601584668"><ele>1337.0</ele><time>2026-04-29T07:59:11Z</time></trkpt><trkpt lat="37.987120798183135" lon="14.947432793119393"><ele>1337.0</ele><time>2026-04-29T07:59:12Z</time></trkpt><trkpt lat="37.98720414329781" lon="14.947362865171375"><ele>1337.0</ele><time>2026-04-29T07:59:13Z</time></trkpt><trkpt lat="37.987277500043916" lon="14.947290162619737"><ele>1337.0</ele><time>2026-04-29T07:59:14Z</time></trkpt><trkpt lat="37.98733918806269" lon="14.947243036704974"><ele>1337.0</ele><time>2026-04-29T07:59:15Z</time></trkpt><trkpt lat="37.987352383781314" lon="14.94714487758242"><ele>1337.0</ele><time>2026-04-29T07:59:16Z</time></trkpt><trkpt lat="37.98736661596668" lon="14.947056824109724"><ele>1337.0</ele><time>2026-04-29T07:59:17Z</time></trkpt><trkpt lat="37.987362332276334" lon="14.946957314217002"><ele>1337.0</ele><time>2026-04-29T07:59:18Z</time></trkpt><trkpt lat="37.98733043992947" lon="14.946830961195515"><ele>1337.0</ele><time>2026-04-29T07:59:19Z</time></trkpt><trkpt lat="37.987295464302" lon="14.946680228771056"><ele>1337.0</ele><time>2026-04-29T07:59:20Z</time></trkpt><trkpt lat="37.98728339336055" lon="14.946533415973704"><ele>1337.0</ele><time>2026-04-29T07:59:21Z</time></trkpt><trkpt lat="37.98727524646483" lon="14.946413215155497"><ele>1337.75</ele><time>2026-04-29T07:59:22Z</time></trkpt><trkpt lat="37.987281632865034" lon="14.946289150875293"><ele>1338.5</ele><time>2026-04-29T07:59:23Z</time></trkpt><trkpt lat="37.98728598740725" lon="14.946153084304395"><ele>1339.25</ele><time>2026-04-29T07:59:24Z</time></trkpt><trkpt lat="37.98728597612454" lon="14.946005141042365"><ele>1340.0</ele><time>2026-04-29T07:59:25Z</time></trkpt><trkpt lat="37.98730178582345" lon="14.945836682733884"><ele>1341.25</ele><time>2026-04-29T07:59:26Z</time></trkpt><trkpt lat="37.9873082947746" lon="14.945662750965813"><ele>1342.5</ele><time>2026-04-29T07:59:27Z</time></trkpt><trkpt lat="37.98733832468665" lon="14.945518205693173"><ele>1343.75</ele><time>2026-04-29T07:59:28Z</time></trkpt><trkpt lat="37.98737267617214" lon="14.945390160049707"><ele>1345.0</ele><time>2026-04-29T07:59:29Z</time></trkpt><trkpt lat="37.98741081371648" lon="14.94526948611756"><ele>1345.0</ele><time>2026-04-29T07:59:30Z</time></trkpt><trkpt lat="37.98745572791765" lon="14.945144465649308"><ele>1345.0</ele><time>2026-04-29T07:59:30.999Z</time></trkpt><trkpt lat="37.987533272630955" lon="14.945041230240953"><ele>1345.0</ele><time>2026-04-29T07:59:31.999Z</time></trkpt><trkpt lat="37.987620240211044" lon="14.944953480715018"><ele>1345.0</ele><time>2026-04-29T07:59:32.999Z</time></trkpt><trkpt lat="37.9877061266423" lon="14.944885981557967"><ele>1345.0</ele><time>2026-04-29T07:59:33.999Z</time></trkpt><trkpt lat="37.987823434298065" lon="14.94486953887469"><ele>1346.6666666666665</ele><time>2026-04-29T07:59:34.999Z</time></trkpt><trkpt lat="37.98796097634925" lon="14.944803410219253"><ele>1348.3333333333333</ele><time>2026-04-29T07:59:35.999Z</time></trkpt><trkpt lat="37.98810266017973" lon="14.944702158519322"><ele>1350.0</ele><time>2026-04-29T07:59:36.999Z</time></trkpt><trkpt lat="37.98823332300264" lon="14.9445869608322"><ele>1349.6666666666667</ele><time>2026-04-29T07:59:37.999Z</time></trkpt><trkpt lat="37.98835049253029" lon="14.94445103699522"><ele>1349.3333333333335</ele><time>2026-04-29T07:59:38.999Z</time></trkpt><trkpt lat="37.988448064904375" lon="14.94430178764305"><ele>1349.0</ele><time>2026-04-29T07:59:39.999Z</time></trkpt><trkpt lat="37.98856289123983" lon="14.944163408977015"><ele>1347.75</ele><time>2026-04-29T07:59:40.999Z</time></trkpt><trkpt lat="37.98866460564749" lon="14.944039830717522"><ele>1346.5</ele><time>2026-04-29T07:59:41.999Z</time></trkpt><trkpt lat="37.988773104643634" lon="14.943929084797738"><ele>1345.25</ele><time>2026-04-29T07:59:42.999Z</time></trkpt><trkpt lat="37.988863263829245" lon="14.943772500650136"><ele>1344.0</ele><time>2026-04-29T07:59:43.999Z</time></trkpt><trkpt lat="37.98895859681455" lon="14.943622515106302"><ele>1344.0</ele><time>2026-04-29T07:59:45Z</time></trkpt><trkpt lat="37.98904463315552" lon="14.94348061118358"><ele>1344.0</ele><time>2026-04-29T07:59:46Z</time></trkpt><trkpt lat="37.98910454161972" lon="14.943311459602887"><ele>1344.0</ele><time>2026-04-29T07:59:47Z</time></trkpt><trkpt lat="37.98914221401049" lon="14.943126292582177"><ele>1344.0</ele><time>2026-04-29T07:59:48Z</time></trkpt><trkpt lat="37.98918355832129" lon="14.942949914219385"><ele>1346.5</ele><time>2026-04-29T07:59:49Z</time></trkpt><trkpt lat="37.9892180061744" lon="14.94277131071861"><ele>1349.0</ele><time>2026-04-29T07:59:50Z</time></trkpt><trkpt lat="37.9892389439338" lon="14.942587688387357"><ele>1351.5</ele><time>2026-04-29T07:59:51Z</time></trkpt><trkpt lat="37.98926523297298" lon="14.9424028226079"><ele>1354.0</ele><time>2026-04-29T07:59:52Z</time></trkpt><trkpt lat="37.98931861460329" lon="14.94224828779817"><ele>1354.0</ele><time>2026-04-29T07:59:53Z</time></trkpt><trkpt lat="37.989353060926554" lon="14.94208956545019"><ele>1354.0</ele><time>2026-04-29T07:59:54Z</time></trkpt><trkpt lat="37.989368467407836" lon="14.941917458760008"><ele>1354.0</ele><time>2026-04-29T07:59:55Z</time></trkpt><trkpt lat="37.98939438761986" lon="14.941740269553549"><ele>1354.0</ele><time>2026-04-29T07:59:56Z</time></trkpt><trkpt lat="37.98941467177295" lon="14.941564226546063"><ele>1353.5</ele><time>2026-04-29T07:59:57Z</time></trkpt><trkpt lat="37.989428261170104" lon="14.941400091667509"><ele>1353.0</ele><time>2026-04-29T07:59:58Z</time></trkpt><trkpt lat="37.98944543910909" lon="14.94123399056276"><ele>1352.5</ele><time>2026-04-29T07:59:59Z</time></trkpt><trkpt lat="37.989485532223256" lon="14.941072725191535"><ele>1352.0</ele><time>2026-04-29T08:00:00Z</time></trkpt><trkpt lat="37.9895216216684" lon="14.940905593804239"><ele>1351.5</ele><time>2026-04-29T08:00:01Z</time></trkpt><trkpt lat="37.9895676853654" lon="14.94073526957098"><ele>1351.0</ele><time>2026-04-29T08:00:02Z</time></trkpt><trkpt lat="37.98962345624917" lon="14.94056717309132"><ele>1350.5</ele><time>2026-04-29T08:00:03Z</time></trkpt><trkpt lat="37.98967825914388" lon="14.940402768022663"><ele>1350.0</ele><time>2026-04-29T08:00:04Z</time></trkpt><trkpt lat="37.98971991822822" lon="14.940247047945478"><ele>1350.0</ele><time>2026-04-29T08:00:05Z</time></trkpt><trkpt lat="37.98974060128674" lon="14.940085358279553"><ele>1350.0</ele><time>2026-04-29T08:00:06Z</time></trkpt><trkpt lat="37.98976676141373" lon="14.939934749367183"><ele>1350.0</ele><time>2026-04-29T08:00:07Z</time></trkpt><trkpt lat="37.98977265853178" lon="14.939795288031286"><ele>1350.0</ele><time>2026-04-29T08:00:08Z</time></trkpt><trkpt lat="37.98976986112504" lon="14.939658494705828"><ele>1351.25</ele><time>2026-04-29T08:00:09Z</time></trkpt><trkpt lat="37.98976300212369" lon="14.93952058217821"><ele>1352.5</ele><time>2026-04-29T08:00:10Z</time></trkpt><trkpt lat="37.98977934727509" lon="14.939378279081488"><ele>1353.75</ele><time>2026-04-29T08:00:11Z</time></trkpt><trkpt lat="37.9897935139873" lon="14.939229893421526"><ele>1355.0</ele><time>2026-04-29T08:00:12Z</time></trkpt><trkpt lat="37.98980830755328" lon="14.939072868669342"><ele>1356.25</ele><time>2026-04-29T08:00:13Z</time></trkpt><trkpt lat="37.98981751535614" lon="14.938934267037894"><ele>1357.5</ele><time>2026-04-29T08:00:14Z</time></trkpt><trkpt lat="37.989825648283464" lon="14.938794694521853"><ele>1358.75</ele><time>2026-04-29T08:00:15Z</time></trkpt><trkpt lat="37.989834157742365" lon="14.938648660116801"><ele>1360.0</ele><time>2026-04-29T08:00:16Z</time></trkpt><trkpt lat="37.98983053271414" lon="14.938492775087239"><ele>1359.25</ele><time>2026-04-29T08:00:17Z</time></trkpt><trkpt lat="37.98984041937227" lon="14.938339702034728"><ele>1358.5</ele><time>2026-04-29T08:00:18Z</time></trkpt><trkpt lat="37.989868544259934" lon="14.938194729210139"><ele>1357.75</ele><time>2026-04-29T08:00:19Z</time></trkpt><trkpt lat="37.98988491032935" lon="14.938054096832976"><ele>1357.0</ele><time>2026-04-29T08:00:20Z</time></trkpt><trkpt lat="37.98990626825804" lon="14.937910624316645"><ele>1357.0</ele><time>2026-04-29T08:00:21Z</time></trkpt><trkpt lat="37.989930022650455" lon="14.937762631547459"><ele>1357.0</ele><time>2026-04-29T08:00:22Z</time></trkpt><trkpt lat="37.989951163493366" lon="14.937611050677427"><ele>1357.0</ele><time>2026-04-29T08:00:23Z</time></trkpt><trkpt lat="37.989969299590456" lon="14.937464244864184"><ele>1357.0</ele><time>2026-04-29T08:00:24Z</time></trkpt><trkpt lat="37.98998642613325" lon="14.937336218775895"><ele>1356.1666666666665</ele><time>2026-04-29T08:00:25Z</time></trkpt><trkpt lat="37.99001175911962" lon="14.937224880819906"><ele>1355.3333333333333</ele><time>2026-04-29T08:00:26Z</time></trkpt><trkpt lat="37.99004326457685" lon="14.937127776477944"><ele>1354.5</ele><time>2026-04-29T08:00:27Z</time></trkpt><trkpt lat="37.990078092036775" lon="14.937048278473794"><ele>1353.6666666666667</ele><time>2026-04-29T08:00:28Z</time></trkpt><trkpt lat="37.990126922168706" lon="14.936982871704279"><ele>1352.8333333333335</ele><time>2026-04-29T08:00:29Z</time></trkpt><trkpt lat="37.990191006082476" lon="14.93692616498103"><ele>1352.0</ele><time>2026-04-29T08:00:30Z</time></trkpt><trkpt lat="37.99026764485086" lon="14.93687842221022"><ele>1352.0</ele><time>2026-04-29T08:00:31Z</time></trkpt><trkpt lat="37.99035747904196" lon="14.936836577530746"><ele>1352.0</ele><time>2026-04-29T08:00:32Z</time></trkpt><trkpt lat="37.990463031847206" lon="14.936800708395209"><ele>1352.0</ele><time>2026-04-29T08:00:33Z</time></trkpt><trkpt lat="37.990584917582126" lon="14.936766493802164"><ele>1352.0</ele><time>2026-04-29T08:00:34Z</time></trkpt><trkpt lat="37.99071598847763" lon="14.93672470682267"><ele>1345.0</ele><time>2026-04-29T08:00:35Z</time></trkpt><trkpt lat="37.990858384074656" lon="14.936655435315572"><ele>1338.0</ele><time>2026-04-29T08:00:36Z</time></trkpt><trkpt lat="37.99099240200012" lon="14.93657683910976"><ele>1331.0</ele><time>2026-04-29T08:00:37Z</time></trkpt><trkpt lat="37.991127139410196" lon="14.936521477114571"><ele>1324.0</ele><time>2026-04-29T08:00:38Z</time></trkpt><trkpt lat="37.99125180014573" lon="14.936467730405232"><ele>1324.0</ele><time>2026-04-29T08:00:39Z</time></trkpt><trkpt lat="37.99137584171101" lon="14.936417410774109"><ele>1324.0</ele><time>2026-04-29T08:00:40Z</time></trkpt><trkpt lat="37.991495724254946" lon="14.936376134220698"><ele>1324.0</ele><time>2026-04-29T08:00:41Z</time></trkpt><trkpt lat="37.99161309141239" lon="14.93634208671874"><ele>1324.0</ele><time>2026-04-29T08:00:42Z</time></trkpt><trkpt lat="37.99172676289244" lon="14.936306850113644"><ele>1321.8000000000002</ele><time>2026-04-29T08:00:43Z</time></trkpt><trkpt lat="37.99184111113552" lon="14.936278903058643"><ele>1319.6000000000001</ele><time>2026-04-29T08:00:44Z</time></trkpt><trkpt lat="37.99193656629623" lon="14.936188376075258"><ele>1317.4</ele><time>2026-04-29T08:00:45Z</time></trkpt><trkpt lat="37.992026411989855" lon="14.936110637408685"><ele>1315.2</ele><time>2026-04-29T08:00:46Z</time></trkpt><trkpt lat="37.99209102565825" lon="14.936042867560236"><ele>1313.0</ele><time>2026-04-29T08:00:47Z</time></trkpt><trkpt lat="37.992137390013106" lon="14.935983951375992"><ele>1313.0</ele><time>2026-04-29T08:00:48Z</time></trkpt><trkpt lat="37.992186774491415" lon="14.935929267649405"><ele>1313.0</ele><time>2026-04-29T08:00:49Z</time></trkpt><trkpt lat="37.992235095496596" lon="14.935877456762947"><ele>1313.0</ele><time>2026-04-29T08:00:50Z</time></trkpt><trkpt lat="37.99219277359713" lon="14.935715806394455"><ele>1313.0</ele><time>2026-04-29T08:00:51Z</time></trkpt><trkpt lat="37.99217315051838" lon="14.935590525244056"><ele>1313.0</ele><time>2026-04-29T08:00:52Z</time></trkpt><trkpt lat="37.992202243798694" lon="14.93542709598463"><ele>1314.0</ele><time>2026-04-29T08:00:53Z</time></trkpt><trkpt lat="37.992241820675964" lon="14.93524428272336"><ele>1315.0</ele><time>2026-04-29T08:00:54Z</time></trkpt><trkpt lat="37.99227594364273" lon="14.935032978716595"><ele>1316.0</ele><time>2026-04-29T08:00:55Z</time></trkpt><trkpt lat="37.99231727011128" lon="14.934792014117281"><ele>1316.0</ele><time>2026-04-29T08:00:56Z</time></trkpt><trkpt lat="37.992357855092486" lon="14.934552843393323"><ele>1316.0</ele><time>2026-04-29T08:00:57Z</time></trkpt><trkpt lat="37.99235253675484" lon="14.934337558976836"><ele>1316.0</ele><time>2026-04-29T08:00:58Z</time></trkpt><trkpt lat="37.992365744009334" lon="14.934153269972994"><ele>1314.5</ele><time>2026-04-29T08:00:59Z</time></trkpt><trkpt lat="37.992401834325804" lon="14.933995142207962"><ele>1313.0</ele><time>2026-04-29T08:01:00Z</time></trkpt><trkpt lat="37.99246292540327" lon="14.933835597623782"><ele>1311.5</ele><time>2026-04-29T08:01:01Z</time></trkpt><trkpt lat="37.992574962051215" lon="14.933658585764293"><ele>1310.0</ele><time>2026-04-29T08:01:02Z</time></trkpt><trkpt lat="37.99270008846486" lon="14.933444330899727"><ele>1310.3333333333335</ele><time>2026-04-29T08:01:03Z</time></trkpt><trkpt lat="37.992839627129065" lon="14.933257389677346"><ele>1310.6666666666667</ele><time>2026-04-29T08:01:04Z</time></trkpt><trkpt lat="37.99295605294137" lon="14.933067367691637"><ele>1311.0</ele><time>2026-04-29T08:01:05Z</time></trkpt><trkpt lat="37.993068507664134" lon="14.93288930404573"><ele>1311.0</ele><time>2026-04-29T08:01:06Z</time></trkpt><trkpt lat="37.99318230018789" lon="14.932699761238457"><ele>1311.0</ele><time>2026-04-29T08:01:07Z</time></trkpt><trkpt lat="37.9932899496426" lon="14.932506395757835"><ele>1311.0</ele><time>2026-04-29T08:01:08Z</time></trkpt><trkpt lat="37.99339041821963" lon="14.932324674857199"><ele>1312.3333333333333</ele><time>2026-04-29T08:01:09Z</time></trkpt><trkpt lat="37.99348846590803" lon="14.932152561820903"><ele>1313.6666666666665</ele><time>2026-04-29T08:01:10Z</time></trkpt><trkpt lat="37.99357060011072" lon="14.93198724926049"><ele>1315.0</ele><time>2026-04-29T08:01:11Z</time></trkpt><trkpt lat="37.993639602991436" lon="14.931825253037735"><ele>1312.25</ele><time>2026-04-29T08:01:12Z</time></trkpt><trkpt lat="37.99369444629297" lon="14.931666624749798"><ele>1309.5</ele><time>2026-04-29T08:01:13Z</time></trkpt><trkpt lat="37.99373506789472" lon="14.931495736008166"><ele>1306.75</ele><time>2026-04-29T08:01:14Z</time></trkpt><trkpt lat="37.993752551318586" lon="14.93130771721358"><ele>1304.0</ele><time>2026-04-29T08:01:15Z</time></trkpt><trkpt lat="37.993741621601394" lon="14.931125745249467"><ele>1304.0</ele><time>2026-04-29T08:01:16Z</time></trkpt><trkpt lat="37.99370798250082" lon="14.930953072170201"><ele>1304.0</ele><time>2026-04-29T08:01:17Z</time></trkpt><trkpt lat="37.993623583993006" lon="14.930801162437668"><ele>1304.0</ele><time>2026-04-29T08:01:18Z</time></trkpt><trkpt lat="37.99351520151832" lon="14.930748858781445"><ele>1304.0</ele><time>2026-04-29T08:01:19Z</time></trkpt><trkpt lat="37.993430832088485" lon="14.930676100459014"><ele>1301.3333333333335</ele><time>2026-04-29T08:01:20Z</time></trkpt><trkpt lat="37.99337012778186" lon="14.930650921028404"><ele>1298.6666666666667</ele><time>2026-04-29T08:01:21Z</time></trkpt><trkpt lat="37.99329945055061" lon="14.930495352827151"><ele>1296.0</ele><time>2026-04-29T08:01:22Z</time></trkpt><trkpt lat="37.993559690048315" lon="14.929950115901967"><ele>1294.25</ele><time>2026-04-29T08:01:23Z</time></trkpt><trkpt lat="37.99357882003279" lon="14.929794621284255"><ele>1292.5</ele><time>2026-04-29T08:01:24Z</time></trkpt><trkpt lat="37.99358159080688" lon="14.929644848403704"><ele>1290.75</ele><time>2026-04-29T08:01:25Z</time></trkpt><trkpt lat="37.99355936627558" lon="14.929511390219973"><ele>1289.0</ele><time>2026-04-29T08:01:26Z</time></trkpt><trkpt lat="37.99352290379682" lon="14.929374566809079"><ele>1290.5</ele><time>2026-04-29T08:01:27Z</time></trkpt><trkpt lat="37.9934657960423" lon="14.929206906671551"><ele>1292.0</ele><time>2026-04-29T08:01:28Z</time></trkpt><trkpt lat="37.99340182684404" lon="14.929031638990399"><ele>1293.5</ele><time>2026-04-29T08:01:29Z</time></trkpt><trkpt lat="37.99333258742506" lon="14.928858891050531"><ele>1295.0</ele><time>2026-04-29T08:01:30Z</time></trkpt><trkpt lat="37.9932798431407" lon="14.928688840523321"><ele>1295.0</ele><time>2026-04-29T08:01:31Z</time></trkpt><trkpt lat="37.99323199266734" lon="14.928510925978067"><ele>1295.0</ele><time>2026-04-29T08:01:32Z</time></trkpt><trkpt lat="37.99319431751495" lon="14.928332166322626"><ele>1295.0</ele><time>2026-04-29T08:01:33Z</time></trkpt><trkpt lat="37.9931371845875" lon="14.92816050853708"><ele>1295.0</ele><time>2026-04-29T08:01:34Z</time></trkpt><trkpt lat="37.99306571540688" lon="14.928010938488258"><ele>1294.2</ele><time>2026-04-29T08:01:35Z</time></trkpt><trkpt lat="37.99299704494655" lon="14.927887213573396"><ele>1293.4</ele><time>2026-04-29T08:01:36Z</time></trkpt><trkpt lat="37.992929788717284" lon="14.927773658595477"><ele>1292.6</ele><time>2026-04-29T08:01:37Z</time></trkpt><trkpt lat="37.99286814572342" lon="14.927671993734284"><ele>1291.8</ele><time>2026-04-29T08:01:38Z</time></trkpt><trkpt lat="37.992811933223415" lon="14.927581712780677"><ele>1291.0</ele><time>2026-04-29T08:01:39Z</time></trkpt><trkpt lat="37.992757833280706" lon="14.927505020362478"><ele>1289.4</ele><time>2026-04-29T08:01:40Z</time></trkpt><trkpt lat="37.99270487689154" lon="14.927441643533323"><ele>1287.8</ele><time>2026-04-29T08:01:41Z</time></trkpt><trkpt lat="37.99263053333027" lon="14.927400316387912"><ele>1286.2</ele><time>2026-04-29T08:01:42Z</time></trkpt><trkpt lat="37.99251066193495" lon="14.927396216245073"><ele>1284.6000000000001</ele><time>2026-04-29T08:01:43Z</time></trkpt><trkpt lat="37.99234695179571" lon="14.927413556267833"><ele>1283.0</ele><time>2026-04-29T08:01:44Z</time></trkpt><trkpt lat="37.992186355846734" lon="14.927408572783957"><ele>1282.8000000000002</ele><time>2026-04-29T08:01:45Z</time></trkpt><trkpt lat="37.99205549908149" lon="14.927392169644387"><ele>1282.6</ele><time>2026-04-29T08:01:46Z</time></trkpt><trkpt lat="37.99194102353305" lon="14.927373103898507"><ele>1282.4</ele><time>2026-04-29T08:01:47Z</time></trkpt><trkpt lat="37.99183481834639" lon="14.927348547029913"><ele>1282.1999999999998</ele><time>2026-04-29T08:01:48Z</time></trkpt><trkpt lat="37.99175166436657" lon="14.927326286669423"><ele>1282.0</ele><time>2026-04-29T08:01:48.999Z</time></trkpt><trkpt lat="37.991684628414475" lon="14.927298832456328"><ele>1280.25</ele><time>2026-04-29T08:01:49.999Z</time></trkpt><trkpt lat="37.99160003342948" lon="14.927218021962119"><ele>1278.5</ele><time>2026-04-29T08:01:52Z</time></trkpt><trkpt lat="37.99155093720649" lon="14.92711810007761"><ele>1276.75</ele><time>2026-04-29T08:01:53Z</time></trkpt><trkpt lat="37.99149626430792" lon="14.92695883869779"><ele>1275.0</ele><time>2026-04-29T08:01:54Z</time></trkpt><trkpt lat="37.99141684558704" lon="14.926788562172016"><ele>1276.6666666666667</ele><time>2026-04-29T08:01:55Z</time></trkpt><trkpt lat="37.99130624589106" lon="14.92662763406854"><ele>1278.3333333333335</ele><time>2026-04-29T08:01:56Z</time></trkpt><trkpt lat="37.99118848778421" lon="14.926491318359696"><ele>1280.0</ele><time>2026-04-29T08:01:57Z</time></trkpt><trkpt lat="37.99106710603889" lon="14.926359738862338"><ele>1280.0</ele><time>2026-04-29T08:01:58Z</time></trkpt><trkpt lat="37.990947332704934" lon="14.926230057276756"><ele>1280.0</ele><time>2026-04-29T08:01:59Z</time></trkpt><trkpt lat="37.990827276134816" lon="14.92610578877173"><ele>1280.0</ele><time>2026-04-29T08:02:00Z</time></trkpt><trkpt lat="37.99070227768583" lon="14.925978050134686"><ele>1279.6666666666667</ele><time>2026-04-29T08:02:01Z</time></trkpt><trkpt lat="37.99057725652492" lon="14.925835274279736"><ele>1279.3333333333333</ele><time>2026-04-29T08:02:02Z</time></trkpt><trkpt lat="37.99044712541775" lon="14.92568487896378"><ele>1279.0</ele><time>2026-04-29T08:02:03Z</time></trkpt><trkpt lat="37.9903136771129" lon="14.925533810218464"><ele>1279.0</ele><time>2026-04-29T08:02:04Z</time></trkpt><trkpt lat="37.99017666525519" lon="14.925379989422787"><ele>1279.0</ele><time>2026-04-29T08:02:05Z</time></trkpt><trkpt lat="37.99004415883195" lon="14.92523275498616"><ele>1279.0</ele><time>2026-04-29T08:02:06Z</time></trkpt><trkpt lat="37.98992421972858" lon="14.925096764328954"><ele>1279.3333333333333</ele><time>2026-04-29T08:02:07Z</time></trkpt><trkpt lat="37.989809600224405" lon="14.924947072030283"><ele>1279.6666666666667</ele><time>2026-04-29T08:02:08Z</time></trkpt><trkpt lat="37.98971057487755" lon="14.924753637947372"><ele>1280.0</ele><time>2026-04-29T08:02:09Z</time></trkpt><trkpt lat="37.98962757616581" lon="14.924522202046186"><ele>1280.0</ele><time>2026-04-29T08:02:10Z</time></trkpt><trkpt lat="37.98955186423346" lon="14.92428313124506"><ele>1280.0</ele><time>2026-04-29T08:02:11Z</time></trkpt><trkpt lat="37.98947286882978" lon="14.92406682656872"><ele>1280.0</ele><time>2026-04-29T08:02:12Z</time></trkpt><trkpt lat="37.98938539666374" lon="14.923871059460666"><ele>1277.6666666666667</ele><time>2026-04-29T08:02:13Z</time></trkpt><trkpt lat="37.98928649073671" lon="14.92368460958062"><ele>1275.3333333333333</ele><time>2026-04-29T08:02:14Z</time></trkpt><trkpt lat="37.989171830410505" lon="14.92350946714434"><ele>1273.0</ele><time>2026-04-29T08:02:15Z</time></trkpt><trkpt lat="37.98904963700126" lon="14.923343351040476"><ele>1278.6666666666665</ele><time>2026-04-29T08:02:16Z</time></trkpt><trkpt lat="37.9889280922294" lon="14.92317706843229"><ele>1284.3333333333333</ele><time>2026-04-29T08:02:17Z</time></trkpt><trkpt lat="37.988794964137135" lon="14.923014814453213"><ele>1290.0</ele><time>2026-04-29T08:02:18Z</time></trkpt><trkpt lat="37.98863295873996" lon="14.922887527341008"><ele>1290.0</ele><time>2026-04-29T08:02:19Z</time></trkpt><trkpt lat="37.988452969128865" lon="14.922795678507354"><ele>1290.0</ele><time>2026-04-29T08:02:20Z</time></trkpt><trkpt lat="37.988278860097026" lon="14.92272116183859"><ele>1290.0</ele><time>2026-04-29T08:02:21Z</time></trkpt><trkpt lat="37.98811567207086" lon="14.92263614316137"><ele>1291.0</ele><time>2026-04-29T08:02:22Z</time></trkpt><trkpt lat="37.98795830310532" lon="14.922556525264083"><ele>1292.0</ele><time>2026-04-29T08:02:23Z</time></trkpt><trkpt lat="37.98780489960963" lon="14.92247700379201"><ele>1293.0</ele><time>2026-04-29T08:02:24Z</time></trkpt><trkpt lat="37.98765854209626" lon="14.922398057722031"><ele>1293.0</ele><time>2026-04-29T08:02:25Z</time></trkpt><trkpt lat="37.98752321392846" lon="14.92232456100294"><ele>1293.0</ele><time>2026-04-29T08:02:26Z</time></trkpt><trkpt lat="37.98739454732738" lon="14.922247734040681"><ele>1293.0</ele><time>2026-04-29T08:02:27Z</time></trkpt><trkpt lat="37.98729725079135" lon="14.922114866856045"><ele>1293.0</ele><time>2026-04-29T08:02:28Z</time></trkpt><trkpt lat="37.98721954258754" lon="14.92194971700936"><ele>1291.3333333333333</ele><time>2026-04-29T08:02:29Z</time></trkpt><trkpt lat="37.98717904088661" lon="14.921763526226625"><ele>1289.6666666666665</ele><time>2026-04-29T08:02:30Z</time></trkpt><trkpt lat="37.98715209299474" lon="14.921573279985843"><ele>1288.0</ele><time>2026-04-29T08:02:31Z</time></trkpt><trkpt lat="37.98717209883086" lon="14.921383121499957"><ele>1288.0</ele><time>2026-04-29T08:02:32Z</time></trkpt><trkpt lat="37.987256917851624" lon="14.921217200513494"><ele>1288.0</ele><time>2026-04-29T08:02:33Z</time></trkpt><trkpt lat="37.987355813218116" lon="14.921072843372757"><ele>1288.0</ele><time>2026-04-29T08:02:34Z</time></trkpt><trkpt lat="37.987467834527564" lon="14.920915378050385"><ele>1296.0</ele><time>2026-04-29T08:02:35Z</time></trkpt><trkpt lat="37.98758571266744" lon="14.920770668808236"><ele>1304.0</ele><time>2026-04-29T08:02:36Z</time></trkpt><trkpt lat="37.98769303007286" lon="14.920625243568736"><ele>1312.0</ele><time>2026-04-29T08:02:37Z</time></trkpt><trkpt lat="37.987798683773256" lon="14.920481396847388"><ele>1312.0</ele><time>2026-04-29T08:02:38Z</time></trkpt><trkpt lat="37.987915008845164" lon="14.920339173322535"><ele>1312.0</ele><time>2026-04-29T08:02:39Z</time></trkpt><trkpt lat="37.98804125170911" lon="14.920198013697123"><ele>1312.0</ele><time>2026-04-29T08:02:40Z</time></trkpt><trkpt lat="37.98818109289709" lon="14.920075242669343"><ele>1309.0</ele><time>2026-04-29T08:02:41Z</time></trkpt><trkpt lat="37.98833821147891" lon="14.919983610374597"><ele>1306.0</ele><time>2026-04-29T08:02:42Z</time></trkpt><trkpt lat="37.9884965615712" lon="14.919878509106152"><ele>1303.0</ele><time>2026-04-29T08:02:43Z</time></trkpt><trkpt lat="37.98864049826216" lon="14.91973512873698"><ele>1303.0</ele><time>2026-04-29T08:02:44Z</time></trkpt><trkpt lat="37.98877260179251" lon="14.91957702296423"><ele>1303.0</ele><time>2026-04-29T08:02:45Z</time></trkpt><trkpt lat="37.98890835991667" lon="14.919436986882417"><ele>1303.0</ele><time>2026-04-29T08:02:46Z</time></trkpt><trkpt lat="37.98903588056813" lon="14.919300931923084"><ele>1304.0</ele><time>2026-04-29T08:02:47Z</time></trkpt><trkpt lat="37.98914843082487" lon="14.919135278478802"><ele>1305.0</ele><time>2026-04-29T08:02:48Z</time></trkpt><trkpt lat="37.98923871283814" lon="14.918919808863242"><ele>1306.0</ele><time>2026-04-29T08:02:49Z</time></trkpt><trkpt lat="37.989309729017926" lon="14.91868970091349"><ele>1306.0</ele><time>2026-04-29T08:02:50Z</time></trkpt><trkpt lat="37.98936249250166" lon="14.918482030040746"><ele>1306.0</ele><time>2026-04-29T08:02:51Z</time></trkpt><trkpt lat="37.98941481612647" lon="14.918284538417534"><ele>1306.0</ele><time>2026-04-29T08:02:52Z</time></trkpt><trkpt lat="37.989453743925" lon="14.918091054894786"><ele>1304.0</ele><time>2026-04-29T08:02:53Z</time></trkpt><trkpt lat="37.989485092432886" lon="14.91790691795433"><ele>1302.0</ele><time>2026-04-29T08:02:54Z</time></trkpt><trkpt lat="37.98951562850699" lon="14.917743847787284"><ele>1300.0</ele><time>2026-04-29T08:02:55Z</time></trkpt><trkpt lat="37.98954565936711" lon="14.917601021679156"><ele>1298.0</ele><time>2026-04-29T08:02:56Z</time></trkpt><trkpt lat="37.98957293848152" lon="14.91747117401454"><ele>1296.5</ele><time>2026-04-29T08:02:57Z</time></trkpt><trkpt lat="37.98959649739682" lon="14.917325831116111"><ele>1295.0</ele><time>2026-04-29T08:02:58Z</time></trkpt><trkpt lat="37.98963271730287" lon="14.917159484165287"><ele>1293.5</ele><time>2026-04-29T08:02:59Z</time></trkpt><trkpt lat="37.98966083964144" lon="14.917003391153022"><ele>1292.0</ele><time>2026-04-29T08:03:00Z</time></trkpt><trkpt lat="37.989688199830695" lon="14.916864450600208"><ele>1292.0</ele><time>2026-04-29T08:03:01Z</time></trkpt><trkpt lat="37.98971109753373" lon="14.916749162832284"><ele>1292.0</ele><time>2026-04-29T08:03:02Z</time></trkpt><trkpt lat="37.98972653297309" lon="14.91665955873506"><ele>1292.0</ele><time>2026-04-29T08:03:03Z</time></trkpt><trkpt lat="37.989746707058956" lon="14.916556798078505"><ele>1292.0</ele><time>2026-04-29T08:03:05Z</time></trkpt><trkpt lat="37.989768986259406" lon="14.916450611371943"><ele>1292.0</ele><time>2026-04-29T08:03:08Z</time></trkpt><trkpt lat="37.98978582890675" lon="14.916368019985553"><ele>1292.0</ele><time>2026-04-29T08:03:09Z</time></trkpt><trkpt lat="37.989806789658054" lon="14.916254886556391"><ele>1291.0</ele><time>2026-04-29T08:03:10Z</time></trkpt><trkpt lat="37.98982667842067" lon="14.916117903496781"><ele>1290.0</ele><time>2026-04-29T08:03:11Z</time></trkpt><trkpt lat="37.98985955429462" lon="14.915963122343"><ele>1289.0</ele><time>2026-04-29T08:03:12Z</time></trkpt><trkpt lat="37.98989238937076" lon="14.91581465959089"><ele>1288.0</ele><time>2026-04-29T08:03:13Z</time></trkpt><trkpt lat="37.989919289944574" lon="14.915652709177465"><ele>1286.75</ele><time>2026-04-29T08:03:14Z</time></trkpt><trkpt lat="37.98994805876699" lon="14.915468230345025"><ele>1285.5</ele><time>2026-04-29T08:03:15Z</time></trkpt><trkpt lat="37.989978291230734" lon="14.915290199319871"><ele>1284.25</ele><time>2026-04-29T08:03:16Z</time></trkpt><trkpt lat="37.990008934013126" lon="14.91513099785869"><ele>1283.0</ele><time>2026-04-29T08:03:17Z</time></trkpt><trkpt lat="37.99004475028874" lon="14.914985711584897"><ele>1286.75</ele><time>2026-04-29T08:03:18Z</time></trkpt><trkpt lat="37.99008597036357" lon="14.914853127779296"><ele>1290.5</ele><time>2026-04-29T08:03:19Z</time></trkpt><trkpt lat="37.99011202661215" lon="14.914718712837221"><ele>1294.25</ele><time>2026-04-29T08:03:20Z</time></trkpt><trkpt lat="37.99010876621178" lon="14.914580581189096"><ele>1298.0</ele><time>2026-04-29T08:03:21Z</time></trkpt><trkpt lat="37.990052787172715" lon="14.91443457749683"><ele>1297.25</ele><time>2026-04-29T08:03:22Z</time></trkpt><trkpt lat="37.989987649017934" lon="14.914299508824396"><ele>1296.5</ele><time>2026-04-29T08:03:23Z</time></trkpt><trkpt lat="37.98995729424326" lon="14.91416428274878"><ele>1295.75</ele><time>2026-04-29T08:03:24Z</time></trkpt><trkpt lat="37.98999741259583" lon="14.91400343095572"><ele>1295.0</ele><time>2026-04-29T08:03:25Z</time></trkpt><trkpt lat="37.99002207728602" lon="14.913806179421778"><ele>1295.0</ele><time>2026-04-29T08:03:26Z</time></trkpt><trkpt lat="37.990009479445966" lon="14.913593601734213"><ele>1295.0</ele><time>2026-04-29T08:03:27Z</time></trkpt><trkpt lat="37.98995939777851" lon="14.913370385236384"><ele>1295.0</ele><time>2026-04-29T08:03:28Z</time></trkpt><trkpt lat="37.98988316882652" lon="14.913166705199812"><ele>1289.3333333333335</ele><time>2026-04-29T08:03:29Z</time></trkpt><trkpt lat="37.98980322416936" lon="14.91298023357552"><ele>1283.6666666666667</ele><time>2026-04-29T08:03:30Z</time></trkpt><trkpt lat="37.98974679265958" lon="14.912799717086918"><ele>1278.0</ele><time>2026-04-29T08:03:31Z</time></trkpt><trkpt lat="37.989700651377696" lon="14.912624531699988"><ele>1279.0</ele><time>2026-04-29T08:03:32Z</time></trkpt><trkpt lat="37.98964509501864" lon="14.912468268236015"><ele>1280.0</ele><time>2026-04-29T08:03:33Z</time></trkpt><trkpt lat="37.989572672017935" lon="14.912335863487003"><ele>1281.0</ele><time>2026-04-29T08:03:34Z</time></trkpt><trkpt lat="37.98945875450205" lon="14.912226166870893"><ele>1282.0</ele><time>2026-04-29T08:03:35Z</time></trkpt><trkpt lat="37.989365370589624" lon="14.912105326584395"><ele>1282.0</ele><time>2026-04-29T08:03:36Z</time></trkpt><trkpt lat="37.98926024684697" lon="14.912023670800153"><ele>1282.0</ele><time>2026-04-29T08:03:37Z</time></trkpt><trkpt lat="37.9891804403006" lon="14.911928871718162"><ele>1282.0</ele><time>2026-04-29T08:03:38Z</time></trkpt><trkpt lat="37.98912007133579" lon="14.911839001485381"><ele>1282.0</ele><time>2026-04-29T08:03:39Z</time></trkpt><trkpt lat="37.98908628990977" lon="14.91174611913714"><ele>1282.0</ele><time>2026-04-29T08:03:40Z</time></trkpt><trkpt lat="37.989083771984475" lon="14.911625391934244"><ele>1280.75</ele><time>2026-04-29T08:03:41Z</time></trkpt><trkpt lat="37.98910906628078" lon="14.911453205601381"><ele>1279.5</ele><time>2026-04-29T08:03:42Z</time></trkpt><trkpt lat="37.98910744413723" lon="14.911322254021446"><ele>1278.25</ele><time>2026-04-29T08:03:43Z</time></trkpt><trkpt lat="37.98906520271722" lon="14.911193454765545"><ele>1277.0</ele><time>2026-04-29T08:03:44Z</time></trkpt><trkpt lat="37.98895170779591" lon="14.911064995730797"><ele>1277.0</ele><time>2026-04-29T08:03:45Z</time></trkpt><trkpt lat="37.98884042679959" lon="14.910921052098107"><ele>1277.0</ele><time>2026-04-29T08:03:46Z</time></trkpt><trkpt lat="37.98873240630176" lon="14.91084558281273"><ele>1277.0</ele><time>2026-04-29T08:03:47Z</time></trkpt><trkpt lat="37.988655290685074" lon="14.910746203184681"><ele>1277.0</ele><time>2026-04-29T08:03:48Z</time></trkpt><trkpt lat="37.98858259153406" lon="14.910654715756447"><ele>1275.6</ele><time>2026-04-29T08:03:49Z</time></trkpt><trkpt lat="37.98851438955739" lon="14.910570289717006"><ele>1274.2</ele><time>2026-04-29T08:03:50Z</time></trkpt><trkpt lat="37.98844709767314" lon="14.910473417677506"><ele>1272.8</ele><time>2026-04-29T08:03:51Z</time></trkpt><trkpt lat="37.98837329269462" lon="14.910363456029426"><ele>1271.4</ele><time>2026-04-29T08:03:52Z</time></trkpt><trkpt lat="37.98827613492649" lon="14.910277057300027"><ele>1270.0</ele><time>2026-04-29T08:03:53Z</time></trkpt><trkpt lat="37.98819097020422" lon="14.910181320415418"><ele>1270.0</ele><time>2026-04-29T08:03:54Z</time></trkpt><trkpt lat="37.98811052695928" lon="14.910089615887653"><ele>1270.0</ele><time>2026-04-29T08:03:55Z</time></trkpt><trkpt lat="37.988028710035124" lon="14.910008819615607"><ele>1270.0</ele><time>2026-04-29T08:03:55.999Z</time></trkpt><trkpt lat="37.98796464069955" lon="14.909915992866452"><ele>1270.0</ele><time>2026-04-29T08:03:57Z</time></trkpt><trkpt lat="37.98789184297712" lon="14.909844943948121"><ele>1270.0</ele><time>2026-04-29T08:03:58Z</time></trkpt><trkpt lat="37.987789826696925" lon="14.909818736314136"><ele>1269.6</ele><time>2026-04-29T08:03:59Z</time></trkpt><trkpt lat="37.98768817756342" lon="14.90978462472454"><ele>1269.2</ele><time>2026-04-29T08:04:00Z</time></trkpt><trkpt lat="37.98759255967085" lon="14.909758152940638"><ele>1268.8</ele><time>2026-04-29T08:04:01Z</time></trkpt><trkpt lat="37.98750384887431" lon="14.90971814962643"><ele>1268.4</ele><time>2026-04-29T08:04:02Z</time></trkpt><trkpt lat="37.98741766479743" lon="14.909664885660096"><ele>1268.0</ele><time>2026-04-29T08:04:03Z</time></trkpt><trkpt lat="37.98733895722754" lon="14.909579924230755"><ele>1268.0</ele><time>2026-04-29T08:04:04Z</time></trkpt><trkpt lat="37.98724315293954" lon="14.909535500874282"><ele>1268.0</ele><time>2026-04-29T08:04:05Z</time></trkpt><trkpt lat="37.987140272687604" lon="14.90948795357873"><ele>1268.0</ele><time>2026-04-29T08:04:06Z</time></trkpt><trkpt lat="37.98702890258584" lon="14.90946629741346"><ele>1268.0</ele><time>2026-04-29T08:04:07Z</time></trkpt><trkpt lat="37.98692947133432" lon="14.90938927871721"><ele>1268.0</ele><time>2026-04-29T08:04:08Z</time></trkpt><trkpt lat="37.98683278345119" lon="14.909283137901902"><ele>1267.6666666666667</ele><time>2026-04-29T08:04:09Z</time></trkpt><trkpt lat="37.98672941680169" lon="14.909169147810205"><ele>1267.3333333333333</ele><time>2026-04-29T08:04:10Z</time></trkpt><trkpt lat="37.986657680677325" lon="14.908997646121174"><ele>1267.0</ele><time>2026-04-29T08:04:11Z</time></trkpt><trkpt lat="37.986557918890306" lon="14.908835807719276"><ele>1267.0</ele><time>2026-04-29T08:04:12Z</time></trkpt><trkpt lat="37.986454708458055" lon="14.908651126316103"><ele>1267.0</ele><time>2026-04-29T08:04:13Z</time></trkpt><trkpt lat="37.9863558291364" lon="14.908474193552536"><ele>1267.0</ele><time>2026-04-29T08:04:14Z</time></trkpt><trkpt lat="37.98626363346031" lon="14.908311614987793"><ele>1268.6666666666665</ele><time>2026-04-29T08:04:15Z</time></trkpt><trkpt lat="37.986176349539306" lon="14.9081579951624"><ele>1270.3333333333333</ele><time>2026-04-29T08:04:16Z</time></trkpt><trkpt lat="37.98608200839344" lon="14.907990134217155"><ele>1272.0</ele><time>2026-04-29T08:04:17Z</time></trkpt><trkpt lat="37.985982351016716" lon="14.907807427769676"><ele>1272.0</ele><time>2026-04-29T08:04:18Z</time></trkpt><trkpt lat="37.98589601974147" lon="14.90763500928619"><ele>1272.0</ele><time>2026-04-29T08:04:19Z</time></trkpt><trkpt lat="37.985816461121495" lon="14.907475130534557"><ele>1272.0</ele><time>2026-04-29T08:04:20Z</time></trkpt><trkpt lat="37.98576953004541" lon="14.9072909476983"><ele>1269.6666666666667</ele><time>2026-04-29T08:04:21Z</time></trkpt><trkpt lat="37.985725142126" lon="14.907106406159354"><ele>1267.3333333333335</ele><time>2026-04-29T08:04:22Z</time></trkpt><trkpt lat="37.985693286352614" lon="14.906911931567468"><ele>1265.0</ele><time>2026-04-29T08:04:23Z</time></trkpt><trkpt lat="37.98567744303914" lon="14.9067034463436"><ele>1265.0</ele><time>2026-04-29T08:04:24Z</time></trkpt><trkpt lat="37.98567309649067" lon="14.906483800323214"><ele>1265.0</ele><time>2026-04-29T08:04:25Z</time></trkpt><trkpt lat="37.98567597047119" lon="14.90626734647537"><ele>1265.0</ele><time>2026-04-29T08:04:26Z</time></trkpt><trkpt lat="37.985682227323146" lon="14.906076047059093"><ele>1264.5</ele><time>2026-04-29T08:04:27Z</time></trkpt><trkpt lat="37.98570028094253" lon="14.90590666316456"><ele>1264.0</ele><time>2026-04-29T08:04:28Z</time></trkpt><trkpt lat="37.98574201919749" lon="14.905759493568912"><ele>1263.5</ele><time>2026-04-29T08:04:29Z</time></trkpt><trkpt lat="37.98581130627777" lon="14.905648741852179"><ele>1263.0</ele><time>2026-04-29T08:04:30Z</time></trkpt><trkpt lat="37.98590643776078" lon="14.905569571625387"><ele>1264.4</ele><time>2026-04-29T08:04:31Z</time></trkpt><trkpt lat="37.98600776774714" lon="14.905516431053346"><ele>1265.8</ele><time>2026-04-29T08:04:32Z</time></trkpt><trkpt lat="37.98610673770967" lon="14.90548642944472"><ele>1267.2</ele><time>2026-04-29T08:04:33Z</time></trkpt><trkpt lat="37.98620626572037" lon="14.905483894059316"><ele>1268.6</ele><time>2026-04-29T08:04:34Z</time></trkpt><trkpt lat="37.986298910194066" lon="14.905487497166169"><ele>1270.0</ele><time>2026-04-29T08:04:35Z</time></trkpt><trkpt lat="37.98638500024655" lon="14.905486577011857"><ele>1270.0</ele><time>2026-04-29T08:04:36Z</time></trkpt><trkpt lat="37.986488134009335" lon="14.90550996363117"><ele>1270.0</ele><time>2026-04-29T08:04:38Z</time></trkpt><trkpt lat="37.986566718198596" lon="14.905518800060724"><ele>1270.0</ele><time>2026-04-29T08:04:41Z</time></trkpt><trkpt lat="37.98667510943841" lon="14.905533021265795"><ele>1270.0</ele><time>2026-04-29T08:04:43Z</time></trkpt><trkpt lat="37.98677737661109" lon="14.905542447020876"><ele>1270.0</ele><time>2026-04-29T08:04:45Z</time></trkpt><trkpt lat="37.98686120937148" lon="14.90551732863424"><ele>1270.0</ele><time>2026-04-29T08:04:47Z</time></trkpt><trkpt lat="37.9869154098501" lon="14.905458063566956"><ele>1270.0</ele><time>2026-04-29T08:04:49Z</time></trkpt><trkpt lat="37.98681745648793" lon="14.905396427033116"><ele>1270.0</ele><time>2026-04-29T08:05:00Z</time></trkpt><trkpt lat="37.98668121736683" lon="14.9054451434423"><ele>1270.0</ele><time>2026-04-29T08:06:41Z</time></trkpt><trkpt lat="37.98656961979659" lon="14.905447847528764"><ele>1270.0</ele><time>2026-04-29T08:06:43Z</time></trkpt><trkpt lat="37.986504951489664" lon="14.905475722759942"><ele>1270.0</ele><time>2026-04-29T08:06:46Z</time></trkpt><trkpt lat="37.98642561513526" lon="14.905477444345383"><ele>1270.0</ele><time>2026-04-29T08:13:55.999Z</time></trkpt><trkpt lat="37.98634375358214" lon="14.90547645313931"><ele>1270.0</ele><time>2026-04-29T08:13:56.999Z</time></trkpt><trkpt lat="37.98625929724605" lon="14.905464319269274"><ele>1270.0</ele><time>2026-04-29T08:13:57.999Z</time></trkpt><trkpt lat="37.98612239967757" lon="14.905453016086131"><ele>1270.0</ele><time>2026-04-29T08:13:59.999Z</time></trkpt><trkpt lat="37.98602732319467" lon="14.905449364063363"><ele>1270.0</ele><time>2026-04-29T08:14:00.999Z</time></trkpt><trkpt lat="37.98592733160789" lon="14.905447557629477"><ele>1270.0</ele><time>2026-04-29T08:14:01.999Z</time></trkpt><trkpt lat="37.98582923267689" lon="14.905443571610329"><ele>1270.0</ele><time>2026-04-29T08:14:02.999Z</time></trkpt><trkpt lat="37.985731044589244" lon="14.905438273475102"><ele>1270.0</ele><time>2026-04-29T08:14:03.999Z</time></trkpt><trkpt lat="37.985632238202435" lon="14.905435552646436"><ele>1270.0</ele><time>2026-04-29T08:14:04.999Z</time></trkpt><trkpt lat="37.98554105734827" lon="14.905439975330417"><ele>1268.8333333333333</ele><time>2026-04-29T08:14:05.999Z</time></trkpt><trkpt lat="37.98547345304078" lon="14.905483156663799"><ele>1267.6666666666665</ele><time>2026-04-29T08:14:06.999Z</time></trkpt><trkpt lat="37.98540747380101" lon="14.905511949322989"><ele>1266.5</ele><time>2026-04-29T08:14:07.999Z</time></trkpt><trkpt lat="37.98531916015285" lon="14.905450657283103"><ele>1265.3333333333333</ele><time>2026-04-29T08:14:08.999Z</time></trkpt><trkpt lat="37.9852376883556" lon="14.905455598416056"><ele>1264.1666666666667</ele><time>2026-04-29T08:14:09.999Z</time></trkpt><trkpt lat="37.98514209205605" lon="14.905466131382305"><ele>1263.0</ele><time>2026-04-29T08:14:10.999Z</time></trkpt><trkpt lat="37.98503408486945" lon="14.905482391367357"><ele>1262.5</ele><time>2026-04-29T08:14:11.999Z</time></trkpt><trkpt lat="37.984911577500405" lon="14.905476473773549"><ele>1262.0</ele><time>2026-04-29T08:14:12.999Z</time></trkpt><trkpt lat="37.98478777157291" lon="14.905495041197424"><ele>1261.5</ele><time>2026-04-29T08:14:13.999Z</time></trkpt><trkpt lat="37.98466318459731" lon="14.905516370805282"><ele>1261.0</ele><time>2026-04-29T08:14:14.999Z</time></trkpt><trkpt lat="37.984529786001445" lon="14.90553931458169"><ele>1261.0</ele><time>2026-04-29T08:14:15.999Z</time></trkpt><trkpt lat="37.98439286219523" lon="14.905562864699492"><ele>1261.0</ele><time>2026-04-29T08:14:16.999Z</time></trkpt><trkpt lat="37.98426211910861" lon="14.905585351709325"><ele>1261.0</ele><time>2026-04-29T08:14:17.999Z</time></trkpt><trkpt lat="37.98412843716626" lon="14.905609349599306"><ele>1261.0</ele><time>2026-04-29T08:14:18.999Z</time></trkpt><trkpt lat="37.98400004369142" lon="14.90563480744102"><ele>1258.0</ele><time>2026-04-29T08:14:19.999Z</time></trkpt><trkpt lat="37.98387686702604" lon="14.905662936685632"><ele>1255.0</ele><time>2026-04-29T08:14:20.999Z</time></trkpt><trkpt lat="37.983762051232354" lon="14.90569101754077"><ele>1252.0</ele><time>2026-04-29T08:14:21.999Z</time></trkpt><trkpt lat="37.98364930111905" lon="14.905725432008541"><ele>1249.0</ele><time>2026-04-29T08:14:22.999Z</time></trkpt><trkpt lat="37.98353226060186" lon="14.905780628646932"><ele>1249.0</ele><time>2026-04-29T08:14:23.999Z</time></trkpt><trkpt lat="37.98340789253016" lon="14.905798492266493"><ele>1249.0</ele><time>2026-04-29T08:14:24.999Z</time></trkpt><trkpt lat="37.98329223799254" lon="14.905835603132582"><ele>1249.0</ele><time>2026-04-29T08:14:25.999Z</time></trkpt><trkpt lat="37.9831804783871" lon="14.905872151732593"><ele>1249.0</ele><time>2026-04-29T08:14:26.999Z</time></trkpt><trkpt lat="37.983063540400025" lon="14.905908160478548"><ele>1246.75</ele><time>2026-04-29T08:14:27.999Z</time></trkpt><trkpt lat="37.98294289546465" lon="14.905951664188919"><ele>1244.5</ele><time>2026-04-29T08:14:28.999Z</time></trkpt><trkpt lat="37.98282689541689" lon="14.906001529558798"><ele>1242.25</ele><time>2026-04-29T08:14:29.999Z</time></trkpt><trkpt lat="37.98271838382617" lon="14.906057213801011"><ele>1240.0</ele><time>2026-04-29T08:14:30.999Z</time></trkpt><trkpt lat="37.98261778807596" lon="14.906110457452565"><ele>1240.0</ele><time>2026-04-29T08:14:31.999Z</time></trkpt><trkpt lat="37.982519248111394" lon="14.906162612968883"><ele>1240.0</ele><time>2026-04-29T08:14:32.999Z</time></trkpt><trkpt lat="37.98241609448197" lon="14.906215588541235"><ele>1240.0</ele><time>2026-04-29T08:14:33.999Z</time></trkpt><trkpt lat="37.98230874805572" lon="14.906267350880787"><ele>1240.0</ele><time>2026-04-29T08:14:34.999Z</time></trkpt><trkpt lat="37.98219913111988" lon="14.906314017753534"><ele>1240.0</ele><time>2026-04-29T08:14:35.999Z</time></trkpt><trkpt lat="37.98208806243411" lon="14.906349987774792"><ele>1238.75</ele><time>2026-04-29T08:14:36.999Z</time></trkpt><trkpt lat="37.98196194386236" lon="14.90637230372816"><ele>1237.5</ele><time>2026-04-29T08:14:37.999Z</time></trkpt><trkpt lat="37.98183599980089" lon="14.906376035051453"><ele>1236.25</ele><time>2026-04-29T08:14:38.999Z</time></trkpt><trkpt lat="37.981717538585045" lon="14.906371078327762"><ele>1235.0</ele><time>2026-04-29T08:14:39.999Z</time></trkpt><trkpt lat="37.981599639218565" lon="14.906379561504354"><ele>1234.2</ele><time>2026-04-29T08:14:40.999Z</time></trkpt><trkpt lat="37.981485421220135" lon="14.906362653215915"><ele>1233.4</ele><time>2026-04-29T08:14:41.999Z</time></trkpt><trkpt lat="37.981384728159995" lon="14.906349869405954"><ele>1232.6</ele><time>2026-04-29T08:14:42.999Z</time></trkpt><trkpt lat="37.98129585990541" lon="14.906342834005716"><ele>1231.8</ele><time>2026-04-29T08:14:43.999Z</time></trkpt><trkpt lat="37.981225371435016" lon="14.906307141653642"><ele>1231.0</ele><time>2026-04-29T08:14:44.999Z</time></trkpt><trkpt lat="37.98108369272174" lon="14.906391199704426"><ele>1231.0</ele><time>2026-04-29T08:14:46.999Z</time></trkpt><trkpt lat="37.981011417651416" lon="14.906471080963101"><ele>1231.0</ele><time>2026-04-29T08:14:47.999Z</time></trkpt><trkpt lat="37.98091908598187" lon="14.906533975883088"><ele>1231.0</ele><time>2026-04-29T08:14:48.999Z</time></trkpt><trkpt lat="37.98083556836969" lon="14.906593488548753"><ele>1231.0</ele><time>2026-04-29T08:14:49.999Z</time></trkpt><trkpt lat="37.980756096244136" lon="14.90664856095016"><ele>1231.0</ele><time>2026-04-29T08:14:50.999Z</time></trkpt><trkpt lat="37.98067801412329" lon="14.906700404905774"><ele>1227.5</ele><time>2026-04-29T08:14:51.999Z</time></trkpt><trkpt lat="37.980598560806726" lon="14.906745005197488"><ele>1224.0</ele><time>2026-04-29T08:14:52.999Z</time></trkpt><trkpt lat="37.9805162189226" lon="14.906771179716479"><ele>1220.5</ele><time>2026-04-29T08:14:53.999Z</time></trkpt><trkpt lat="37.980431724337556" lon="14.906790958001464"><ele>1217.0</ele><time>2026-04-29T08:14:54.999Z</time></trkpt><trkpt lat="37.980350627767024" lon="14.906814595785221"><ele>1213.5</ele><time>2026-04-29T08:14:55.999Z</time></trkpt><trkpt lat="37.98027345406294" lon="14.90683836996506"><ele>1210.0</ele><time>2026-04-29T08:14:56.999Z</time></trkpt><trkpt lat="37.98019077097241" lon="14.90688501370115"><ele>1210.0</ele><time>2026-04-29T08:14:58.999Z</time></trkpt><trkpt lat="37.980117712480634" lon="14.906958914399407"><ele>1210.0</ele><time>2026-04-29T08:15:01.999Z</time></trkpt><trkpt lat="37.98005885271687" lon="14.907040328410064"><ele>1210.0</ele><time>2026-04-29T08:15:03.999Z</time></trkpt><trkpt lat="37.97998560161938" lon="14.907128340837819"><ele>1210.0</ele><time>2026-04-29T08:15:06Z</time></trkpt><trkpt lat="37.97991416642584" lon="14.907235630781695"><ele>1210.0</ele><time>2026-04-29T08:15:08Z</time></trkpt><trkpt lat="37.979871716108256" lon="14.907296062465083"><ele>1210.6</ele><time>2026-04-29T08:15:09Z</time></trkpt><trkpt lat="37.97975193303099" lon="14.907268463329759"><ele>1211.2</ele><time>2026-04-29T08:15:10Z</time></trkpt><trkpt lat="37.97970153310935" lon="14.907324086789693"><ele>1211.8</ele><time>2026-04-29T08:15:11Z</time></trkpt><trkpt lat="37.97961389079981" lon="14.907437870020862"><ele>1212.4</ele><time>2026-04-29T08:15:13Z</time></trkpt><trkpt lat="37.97953707117539" lon="14.907531722581393"><ele>1213.0</ele><time>2026-04-29T08:15:15Z</time></trkpt><trkpt lat="37.97945273524849" lon="14.907596739737425"><ele>1210.3333333333333</ele><time>2026-04-29T08:15:17Z</time></trkpt><trkpt lat="37.979337660380025" lon="14.907633608562435"><ele>1207.6666666666665</ele><time>2026-04-29T08:15:19Z</time></trkpt><trkpt lat="37.979248541687376" lon="14.907673514184326"><ele>1205.0</ele><time>2026-04-29T08:15:21Z</time></trkpt><trkpt lat="37.97917001385132" lon="14.907721287724248"><ele>1202.3333333333333</ele><time>2026-04-29T08:15:23Z</time></trkpt><trkpt lat="37.97911474345425" lon="14.907763298831828"><ele>1199.6666666666667</ele><time>2026-04-29T08:15:25Z</time></trkpt><trkpt lat="37.9790547886984" lon="14.90781575393251"><ele>1197.0</ele><time>2026-04-29T08:15:28Z</time></trkpt><trkpt lat="37.97898711702888" lon="14.907864882797234"><ele>1197.0</ele><time>2026-04-29T08:15:30Z</time></trkpt><trkpt lat="37.97890506364142" lon="14.907932078694058"><ele>1197.0</ele><time>2026-04-29T08:15:32Z</time></trkpt><trkpt lat="37.978803478846025" lon="14.90798771850503"><ele>1197.0</ele><time>2026-04-29T08:15:34Z</time></trkpt><trkpt lat="37.97871750714029" lon="14.908053561747762"><ele>1197.0</ele><time>2026-04-29T08:15:36Z</time></trkpt><trkpt lat="37.97864834548821" lon="14.90811869140888"><ele>1197.0</ele><time>2026-04-29T08:15:38Z</time></trkpt><trkpt lat="37.97855359250021" lon="14.908166621436424"><ele>1197.0</ele><time>2026-04-29T08:15:40Z</time></trkpt><trkpt lat="37.97837906127542" lon="14.90825551715596"><ele>1197.0</ele><time>2026-04-29T08:15:43Z</time></trkpt><trkpt lat="37.97828629450029" lon="14.908329425405134"><ele>1197.0</ele><time>2026-04-29T08:15:45Z</time></trkpt><trkpt lat="37.978208720997266" lon="14.90840606624608"><ele>1197.0</ele><time>2026-04-29T08:15:47Z</time></trkpt><trkpt lat="37.97814036866086" lon="14.90847144350002"><ele>1194.6666666666667</ele><time>2026-04-29T08:15:49Z</time></trkpt><trkpt lat="37.9780621229154" lon="14.908563926977687"><ele>1192.3333333333333</ele><time>2026-04-29T08:15:51Z</time></trkpt><trkpt lat="37.97799278380064" lon="14.908636429300433"><ele>1190.0</ele><time>2026-04-29T08:15:53Z</time></trkpt><trkpt lat="37.977952211536746" lon="14.908728819731628"><ele>1187.6666666666665</ele><time>2026-04-29T08:15:55Z</time></trkpt><trkpt lat="37.9778963576328" lon="14.908798973342694"><ele>1185.3333333333333</ele><time>2026-04-29T08:15:57Z</time></trkpt><trkpt lat="37.97781843434974" lon="14.908845754520765"><ele>1183.0</ele><time>2026-04-29T08:15:59Z</time></trkpt><trkpt lat="37.9777543435898" lon="14.908847426407851"><ele>1183.0</ele><time>2026-04-29T08:16:01Z</time></trkpt><trkpt lat="37.97768415251524" lon="14.9088980135964"><ele>1183.0</ele><time>2026-04-29T08:16:03Z</time></trkpt><trkpt lat="37.977616458324896" lon="14.908902590224006"><ele>1183.0</ele><time>2026-04-29T08:16:05Z</time></trkpt><trkpt lat="37.977545209624694" lon="14.908914800391898"><ele>1183.0</ele><time>2026-04-29T08:16:07Z</time></trkpt><trkpt lat="37.97747195874864" lon="14.908915601624594"><ele>1183.0</ele><time>2026-04-29T08:16:09Z</time></trkpt><trkpt lat="37.97739582122416" lon="14.908928660504003"><ele>1183.0</ele><time>2026-04-29T08:16:11Z</time></trkpt><trkpt lat="37.97731204680436" lon="14.908991564512862"><ele>1182.5</ele><time>2026-04-29T08:16:13Z</time></trkpt><trkpt lat="37.977238340092" lon="14.909060178334922"><ele>1182.0</ele><time>2026-04-29T08:16:15Z</time></trkpt><trkpt lat="37.97715319866932" lon="14.909093936805442"><ele>1181.5</ele><time>2026-04-29T08:16:17Z</time></trkpt><trkpt lat="37.97708211098416" lon="14.909105267887076"><ele>1181.0</ele><time>2026-04-29T08:16:19Z</time></trkpt><trkpt lat="37.97700307963724" lon="14.909099321867103"><ele>1180.5</ele><time>2026-04-29T08:16:22Z</time></trkpt><trkpt lat="37.97693987617055" lon="14.909107908900932"><ele>1180.0</ele><time>2026-04-29T08:16:25Z</time></trkpt><trkpt lat="37.97684864001021" lon="14.90910589281564"><ele>1180.0</ele><time>2026-04-29T08:16:28Z</time></trkpt><trkpt lat="37.976774175981966" lon="14.909102567437278"><ele>1180.0</ele><time>2026-04-29T08:16:30Z</time></trkpt><trkpt lat="37.97670261793389" lon="14.90909103623309"><ele>1180.0</ele><time>2026-04-29T08:16:32Z</time></trkpt><trkpt lat="37.97663681793802" lon="14.9090878156744"><ele>1180.0</ele><time>2026-04-29T08:16:34Z</time></trkpt><trkpt lat="37.97653687544159" lon="14.909065136472602"><ele>1180.0</ele><time>2026-04-29T08:16:37Z</time></trkpt><trkpt lat="37.9764459882484" lon="14.909065813296976"><ele>1180.0</ele><time>2026-04-29T08:16:40Z</time></trkpt><trkpt lat="37.9763830840752" lon="14.909052180601163"><ele>1178.8333333333333</ele><time>2026-04-29T08:16:42Z</time></trkpt><trkpt lat="37.97631525634608" lon="14.909042094919846"><ele>1177.6666666666665</ele><time>2026-04-29T08:16:44Z</time></trkpt><trkpt lat="37.97621974413168" lon="14.909029614031615"><ele>1176.5</ele><time>2026-04-29T08:16:47Z</time></trkpt><trkpt lat="37.976132093081276" lon="14.908999588551998"><ele>1175.3333333333333</ele><time>2026-04-29T08:16:50Z</time></trkpt><trkpt lat="37.976052008739615" lon="14.908979722249981"><ele>1174.1666666666667</ele><time>2026-04-29T08:16:53Z</time></trkpt><trkpt lat="37.975970424137536" lon="14.90894708208922"><ele>1173.0</ele><time>2026-04-29T08:17:03Z</time></trkpt><trkpt lat="37.975865393943195" lon="14.908920124767828"><ele>1172.5</ele><time>2026-04-29T08:17:05Z</time></trkpt><trkpt lat="37.975769425017944" lon="14.90889119129602"><ele>1172.0</ele><time>2026-04-29T08:17:07Z</time></trkpt><trkpt lat="37.97566281394173" lon="14.908865620555344"><ele>1171.5</ele><time>2026-04-29T08:17:09Z</time></trkpt><trkpt lat="37.975585517192314" lon="14.908843096863293"><ele>1171.0</ele><time>2026-04-29T08:17:11Z</time></trkpt><trkpt lat="37.97551380622998" lon="14.908816398208463"><ele>1170.5</ele><time>2026-04-29T08:17:13Z</time></trkpt><trkpt lat="37.975449240415365" lon="14.908786897900828"><ele>1170.0</ele><time>2026-04-29T08:17:16Z</time></trkpt><trkpt lat="37.975378177796436" lon="14.908743413738954"><ele>1170.0</ele><time>2026-04-29T08:17:18Z</time></trkpt><trkpt lat="37.97531169497464" lon="14.908735373259505"><ele>1170.0</ele><time>2026-04-29T08:17:20Z</time></trkpt><trkpt lat="37.97524335566463" lon="14.908719157709864"><ele>1170.0</ele><time>2026-04-29T08:17:22Z</time></trkpt><trkpt lat="37.975162356787486" lon="14.908693720781484"><ele>1170.0</ele><time>2026-04-29T08:17:25Z</time></trkpt><trkpt lat="37.97508847477921" lon="14.908664043909255"><ele>1170.0</ele><time>2026-04-29T08:17:28Z</time></trkpt><trkpt lat="37.975006354819314" lon="14.908631065869734"><ele>1170.0</ele><time>2026-04-29T08:17:32Z</time></trkpt><trkpt lat="37.974926950660176" lon="14.90861643004759"><ele>1170.6666666666667</ele><time>2026-04-29T08:17:36Z</time></trkpt><trkpt lat="37.97485998026118" lon="14.908599979406588"><ele>1171.3333333333333</ele><time>2026-04-29T08:17:39Z</time></trkpt><trkpt lat="37.974755818967054" lon="14.908575632147514"><ele>1172.0</ele><time>2026-04-29T08:17:42Z</time></trkpt><trkpt lat="37.97468436753646" lon="14.90855717427791"><ele>1172.6666666666665</ele><time>2026-04-29T08:17:45Z</time></trkpt><trkpt lat="37.97459196959415" lon="14.908550560302885"><ele>1173.3333333333333</ele><time>2026-04-29T08:17:48Z</time></trkpt><trkpt lat="37.974509400599025" lon="14.908535790512248"><ele>1174.0</ele><time>2026-04-29T08:17:51Z</time></trkpt><trkpt lat="37.97444343858638" lon="14.908517367083505"><ele>1174.0</ele><time>2026-04-29T08:17:53Z</time></trkpt><trkpt lat="37.97436739403115" lon="14.908517511176179"><ele>1174.0</ele><time>2026-04-29T08:17:56Z</time></trkpt><trkpt lat="37.97424667281488" lon="14.908492937779517"><ele>1174.0</ele><time>2026-04-29T08:17:59Z</time></trkpt><trkpt lat="37.97409232022772" lon="14.908459273776039"><ele>1174.0</ele><time>2026-04-29T08:18:00Z</time></trkpt><trkpt lat="37.9739754111812" lon="14.908452540656695"><ele>1172.4</ele><time>2026-04-29T08:18:02Z</time></trkpt><trkpt lat="37.97386710003224" lon="14.908433763066931"><ele>1170.8000000000002</ele><time>2026-04-29T08:18:04Z</time></trkpt><trkpt lat="37.97377953184967" lon="14.908436027533861"><ele>1169.1999999999998</ele><time>2026-04-29T08:18:07Z</time></trkpt><trkpt lat="37.973714809798736" lon="14.908455957319122"><ele>1167.6</ele><time>2026-04-29T08:18:08Z</time></trkpt><trkpt lat="37.97360168128873" lon="14.908505304465434"><ele>1166.0</ele><time>2026-04-29T08:18:10Z</time></trkpt><trkpt lat="37.973533046753225" lon="14.908562821155826"><ele>1166.0</ele><time>2026-04-29T08:18:12Z</time></trkpt><trkpt lat="37.973451331071246" lon="14.908611187700835"><ele>1166.0</ele><time>2026-04-29T08:18:14Z</time></trkpt><trkpt lat="37.97335786974548" lon="14.908673803543339"><ele>1166.0</ele><time>2026-04-29T08:18:16Z</time></trkpt><trkpt lat="37.97328111175716" lon="14.90873393798518"><ele>1166.0</ele><time>2026-04-29T08:18:18Z</time></trkpt><trkpt lat="37.97321897680164" lon="14.908747039983979"><ele>1166.0</ele><time>2026-04-29T08:18:20Z</time></trkpt><trkpt lat="37.97314886345855" lon="14.90873192744763"><ele>1166.0</ele><time>2026-04-29T08:18:22Z</time></trkpt><trkpt lat="37.97306698888269" lon="14.908652922650038"><ele>1164.2</ele><time>2026-04-29T08:18:24Z</time></trkpt><trkpt lat="37.97299335662446" lon="14.908572783032033"><ele>1162.3999999999999</ele><time>2026-04-29T08:18:26Z</time></trkpt><trkpt lat="37.97291886772454" lon="14.908585405568575"><ele>1160.6</ele><time>2026-04-29T08:18:27Z</time></trkpt><trkpt lat="37.97285690754953" lon="14.908567829998532"><ele>1158.8</ele><time>2026-04-29T08:18:28Z</time></trkpt><trkpt lat="37.97275440446062" lon="14.908542336947084"><ele>1157.0</ele><time>2026-04-29T08:18:30Z</time></trkpt><trkpt lat="37.972658300173535" lon="14.908467478143137"><ele>1157.0</ele><time>2026-04-29T08:18:32Z</time></trkpt><trkpt lat="37.97259449389735" lon="14.908430159931106"><ele>1157.0</ele><time>2026-04-29T08:18:33Z</time></trkpt><trkpt lat="37.972522478049996" lon="14.908400908658265"><ele>1157.0</ele><time>2026-04-29T08:18:34Z</time></trkpt><trkpt lat="37.97244748022423" lon="14.908378793688003"><ele>1157.0</ele><time>2026-04-29T08:18:35Z</time></trkpt><trkpt lat="37.972389026014724" lon="14.908335097479613"><ele>1157.0</ele><time>2026-04-29T08:18:36Z</time></trkpt><trkpt lat="37.9723285428344" lon="14.908295168857098"><ele>1157.0</ele><time>2026-04-29T08:18:37Z</time></trkpt><trkpt lat="37.97222483699256" lon="14.90825469284442"><ele>1153.0</ele><time>2026-04-29T08:18:39Z</time></trkpt><trkpt lat="37.97210181170993" lon="14.908234431065235"><ele>1149.0</ele><time>2026-04-29T08:18:41Z</time></trkpt><trkpt lat="37.97204284733635" lon="14.908200311374156"><ele>1145.0</ele><time>2026-04-29T08:18:42Z</time></trkpt><trkpt lat="37.97198900880622" lon="14.908135352897137"><ele>1141.0</ele><time>2026-04-29T08:18:43Z</time></trkpt><trkpt lat="37.97190847762055" lon="14.908013356501362"><ele>1137.0</ele><time>2026-04-29T08:18:45Z</time></trkpt><trkpt lat="37.97186245462785" lon="14.90795767231557"><ele>1137.0</ele><time>2026-04-29T08:18:46Z</time></trkpt><trkpt lat="37.97176345491735" lon="14.907886493045018"><ele>1137.0</ele><time>2026-04-29T08:18:48Z</time></trkpt><trkpt lat="37.97169886482751" lon="14.907866068483566"><ele>1137.0</ele><time>2026-04-29T08:18:49Z</time></trkpt><trkpt lat="37.97164615986779" lon="14.90781392506645"><ele>1137.0</ele><time>2026-04-29T08:18:50Z</time></trkpt><trkpt lat="37.97163550847958" lon="14.907698407751447"><ele>1137.0</ele><time>2026-04-29T08:18:52Z</time></trkpt><trkpt lat="37.97160531095543" lon="14.907555976735365"><ele>1135.0</ele><time>2026-04-29T08:18:54Z</time></trkpt><trkpt lat="37.971588820480434" lon="14.907477150677636"><ele>1133.0</ele><time>2026-04-29T08:18:55Z</time></trkpt><trkpt lat="37.97154764756593" lon="14.907327529307292"><ele>1131.0</ele><time>2026-04-29T08:18:57Z</time></trkpt><trkpt lat="37.97147209773693" lon="14.907198770405461"><ele>1129.0</ele><time>2026-04-29T08:18:58Z</time></trkpt><trkpt lat="37.97140981031987" lon="14.90708586300311"><ele>1127.0</ele><time>2026-04-29T08:18:59Z</time></trkpt><trkpt lat="37.971357790552375" lon="14.906988012466089"><ele>1127.0</ele><time>2026-04-29T08:19:00Z</time></trkpt><trkpt lat="37.971309374132765" lon="14.906914017716204"><ele>1127.0</ele><time>2026-04-29T08:19:01Z</time></trkpt><trkpt lat="37.971259038273146" lon="14.906863788036986"><ele>1127.0</ele><time>2026-04-29T08:19:02Z</time></trkpt><trkpt lat="37.97118655328541" lon="14.906825496892646"><ele>1127.0</ele><time>2026-04-29T08:19:03Z</time></trkpt><trkpt lat="37.97109920150852" lon="14.90679111455962"><ele>1127.0</ele><time>2026-04-29T08:19:04Z</time></trkpt><trkpt lat="37.971030782444146" lon="14.906768196332862"><ele>1127.0</ele><time>2026-04-29T08:19:05Z</time></trkpt><trkpt lat="37.9709610871829" lon="14.906753327035624"><ele>1125.8333333333335</ele><time>2026-04-29T08:19:06Z</time></trkpt><trkpt lat="37.97089655489371" lon="14.9067393615119"><ele>1124.6666666666667</ele><time>2026-04-29T08:19:07Z</time></trkpt><trkpt lat="37.97078399520128" lon="14.90674387788122"><ele>1123.5</ele><time>2026-04-29T08:19:09Z</time></trkpt><trkpt lat="37.97071221535805" lon="14.906738774252853"><ele>1122.3333333333333</ele><time>2026-04-29T08:19:10Z</time></trkpt><trkpt lat="37.970638717340705" lon="14.906728188518656"><ele>1121.1666666666665</ele><time>2026-04-29T08:19:11Z</time></trkpt><trkpt lat="37.970566663362526" lon="14.906727333814931"><ele>1120.0</ele><time>2026-04-29T08:19:12Z</time></trkpt><trkpt lat="37.97045320109712" lon="14.906718370726997"><ele>1119.0</ele><time>2026-04-29T08:19:14Z</time></trkpt><trkpt lat="37.97036039008988" lon="14.906703932421966"><ele>1118.0</ele><time>2026-04-29T08:19:16Z</time></trkpt><trkpt lat="37.970277307381316" lon="14.906683456717925"><ele>1117.0</ele><time>2026-04-29T08:19:20Z</time></trkpt><trkpt lat="37.970201296250536" lon="14.906681483669605"><ele>1116.0</ele><time>2026-04-29T08:19:23Z</time></trkpt><trkpt lat="37.97012995846847" lon="14.906655373943972"><ele>1115.0</ele><time>2026-04-29T08:19:26Z</time></trkpt><trkpt lat="37.969980109137445" lon="14.906617889914667"><ele>1114.3333333333335</ele><time>2026-04-29T08:19:27Z</time></trkpt><trkpt lat="37.96991714707476" lon="14.906595361371778"><ele>1113.6666666666667</ele><time>2026-04-29T08:19:29Z</time></trkpt><trkpt lat="37.96983398939875" lon="14.906643914554024"><ele>1113.0</ele><time>2026-04-29T08:19:32Z</time></trkpt><trkpt lat="37.969752388873424" lon="14.906727564497661"><ele>1112.3333333333333</ele><time>2026-04-29T08:19:34Z</time></trkpt><trkpt lat="37.96964649195957" lon="14.90674717143433"><ele>1111.6666666666665</ele><time>2026-04-29T08:19:36Z</time></trkpt><trkpt lat="37.96958023143718" lon="14.906789093817396"><ele>1111.0</ele><time>2026-04-29T08:19:38Z</time></trkpt><trkpt lat="37.969507297101366" lon="14.90680944532116"><ele>1110.5</ele><time>2026-04-29T08:19:40Z</time></trkpt><trkpt lat="37.9694093321413" lon="14.906808417863282"><ele>1110.0</ele><time>2026-04-29T08:19:42Z</time></trkpt><trkpt lat="37.969338292151534" lon="14.906875474315514"><ele>1109.5</ele><time>2026-04-29T08:19:44Z</time></trkpt><trkpt lat="37.96925992244462" lon="14.906915084184105"><ele>1109.0</ele><time>2026-04-29T08:19:46Z</time></trkpt><trkpt lat="37.96917455542401" lon="14.906929152510003"><ele>1108.5</ele><time>2026-04-29T08:19:48Z</time></trkpt><trkpt lat="37.96910839809346" lon="14.906949593624468"><ele>1108.0</ele><time>2026-04-29T08:19:50Z</time></trkpt><trkpt lat="37.96904570399627" lon="14.906964658450555"><ele>1108.0</ele><time>2026-04-29T08:19:52Z</time></trkpt><trkpt lat="37.96897998731347" lon="14.906993686044437"><ele>1108.0</ele><time>2026-04-29T08:19:54Z</time></trkpt><trkpt lat="37.96888276565149" lon="14.907024565245651"><ele>1108.0</ele><time>2026-04-29T08:19:56Z</time></trkpt><trkpt lat="37.968803232791956" lon="14.907083750204217"><ele>1108.0</ele><time>2026-04-29T08:19:58Z</time></trkpt><trkpt lat="37.96870202823922" lon="14.907115276370908"><ele>1108.0</ele><time>2026-04-29T08:20:00Z</time></trkpt><trkpt lat="37.96861120849285" lon="14.907136682399399"><ele>1108.0</ele><time>2026-04-29T08:20:02Z</time></trkpt><trkpt lat="37.968515842598585" lon="14.907151077204983"><ele>1108.0</ele><time>2026-04-29T08:20:04Z</time></trkpt><trkpt lat="37.96840898923252" lon="14.907126807490801"><ele>1108.0</ele><time>2026-04-29T08:20:06Z</time></trkpt><trkpt lat="37.96833302674509" lon="14.907103485072609"><ele>1108.0</ele><time>2026-04-29T08:20:07Z</time></trkpt><trkpt lat="37.96821380964928" lon="14.907072748031187"><ele>1108.0</ele><time>2026-04-29T08:20:08Z</time></trkpt><trkpt lat="37.968116394563715" lon="14.907044350186142"><ele>1106.8</ele><time>2026-04-29T08:20:09Z</time></trkpt><trkpt lat="37.96804092167889" lon="14.907029320815143"><ele>1105.6</ele><time>2026-04-29T08:20:10Z</time></trkpt><trkpt lat="37.96794570854741" lon="14.907075841296336"><ele>1104.4</ele><time>2026-04-29T08:20:12Z</time></trkpt><trkpt lat="37.96785827211279" lon="14.907143698046427"><ele>1103.2</ele><time>2026-04-29T08:20:13Z</time></trkpt><trkpt lat="37.96776713082628" lon="14.907214287843674"><ele>1102.0</ele><time>2026-04-29T08:20:14Z</time></trkpt><trkpt lat="37.96763897599135" lon="14.907315353382785"><ele>1102.0</ele><time>2026-04-29T08:20:15Z</time></trkpt><trkpt lat="37.96755158968155" lon="14.907389765676081"><ele>1102.0</ele><time>2026-04-29T08:20:16Z</time></trkpt><trkpt lat="37.967478162918574" lon="14.907456786248952"><ele>1102.0</ele><time>2026-04-29T08:20:17Z</time></trkpt><trkpt lat="37.96736175673115" lon="14.907562842310414"><ele>1102.0</ele><time>2026-04-29T08:20:19Z</time></trkpt><trkpt lat="37.96725893336245" lon="14.907643927420837"><ele>1100.6</ele><time>2026-04-29T08:20:21Z</time></trkpt><trkpt lat="37.96718513691725" lon="14.907683519867096"><ele>1099.2</ele><time>2026-04-29T08:20:22Z</time></trkpt><trkpt lat="37.96709766745551" lon="14.907706740380824"><ele>1097.8</ele><time>2026-04-29T08:20:23Z</time></trkpt><trkpt lat="37.9670183091347" lon="14.907734911518675"><ele>1096.4</ele><time>2026-04-29T08:20:24Z</time></trkpt><trkpt lat="37.96695279358661" lon="14.907769929404841"><ele>1095.0</ele><time>2026-04-29T08:20:25Z</time></trkpt><trkpt lat="37.966827052067686" lon="14.907810265909676"><ele>1095.0</ele><time>2026-04-29T08:20:27Z</time></trkpt><trkpt lat="37.96674519663538" lon="14.90784553257393"><ele>1095.0</ele><time>2026-04-29T08:20:28Z</time></trkpt><trkpt lat="37.96666059296618" lon="14.907854865845488"><ele>1095.0</ele><time>2026-04-29T08:20:29Z</time></trkpt><trkpt lat="37.96656818965687" lon="14.907866495595437"><ele>1095.0</ele><time>2026-04-29T08:20:30Z</time></trkpt><trkpt lat="37.96649828666377" lon="14.907871108902919"><ele>1095.0</ele><time>2026-04-29T08:20:31Z</time></trkpt><trkpt lat="37.96638654268097" lon="14.907941389498008"><ele>1093.8</ele><time>2026-04-29T08:20:33Z</time></trkpt><trkpt lat="37.96634831093431" lon="14.908006858966084"><ele>1092.6</ele><time>2026-04-29T08:20:34Z</time></trkpt><trkpt lat="37.966307461930306" lon="14.90811624634035"><ele>1091.4</ele><time>2026-04-29T08:20:36Z</time></trkpt><trkpt lat="37.9662546720583" lon="14.908213837846942"><ele>1090.2</ele><time>2026-04-29T08:20:38Z</time></trkpt><trkpt lat="37.966216704304436" lon="14.90837446162603"><ele>1089.0</ele><time>2026-04-29T08:20:40Z</time></trkpt><trkpt lat="37.96618923603751" lon="14.908466126452437"><ele>1088.6666666666667</ele><time>2026-04-29T08:20:41Z</time></trkpt><trkpt lat="37.96612122752117" lon="14.908596618600033"><ele>1088.3333333333333</ele><time>2026-04-29T08:20:43.001Z</time></trkpt><trkpt lat="37.96605883324412" lon="14.908631763564149"><ele>1088.0</ele><time>2026-04-29T08:20:44.001Z</time></trkpt><trkpt lat="37.96598353523508" lon="14.90863992004136"><ele>1087.6666666666665</ele><time>2026-04-29T08:20:45.001Z</time></trkpt><trkpt lat="37.96591335921393" lon="14.908636873061312"><ele>1087.3333333333333</ele><time>2026-04-29T08:20:46.001Z</time></trkpt><trkpt lat="37.96583723533366" lon="14.908616237892188"><ele>1087.0</ele><time>2026-04-29T08:20:48.001Z</time></trkpt><trkpt lat="37.96575089935477" lon="14.908562215784963"><ele>1087.0</ele><time>2026-04-29T08:20:59.001Z</time></trkpt><trkpt lat="37.96563343709953" lon="14.908535037041487"><ele>1087.0</ele><time>2026-04-29T08:21:01.001Z</time></trkpt><trkpt lat="37.96554294768201" lon="14.908548207884401"><ele>1087.0</ele><time>2026-04-29T08:21:02.001Z</time></trkpt><trkpt lat="37.96546362699625" lon="14.908560423180445"><ele>1087.0</ele><time>2026-04-29T08:21:03.001Z</time></trkpt><trkpt lat="37.96537732937825" lon="14.908572114870331"><ele>1087.0</ele><time>2026-04-29T08:21:04.001Z</time></trkpt><trkpt lat="37.965291930445964" lon="14.908580942442782"><ele>1087.0</ele><time>2026-04-29T08:21:05.001Z</time></trkpt><trkpt lat="37.96518545985081" lon="14.908589254277699"><ele>1087.0</ele><time>2026-04-29T08:21:06.001Z</time></trkpt><trkpt lat="37.96507208465543" lon="14.908597660127775"><ele>1087.0</ele><time>2026-04-29T08:21:07.001Z</time></trkpt><trkpt lat="37.96494209251067" lon="14.908606737789412"><ele>1087.0</ele><time>2026-04-29T08:21:08.001Z</time></trkpt><trkpt lat="37.96480983660285" lon="14.90861430346891"><ele>1086.0</ele><time>2026-04-29T08:21:09.001Z</time></trkpt><trkpt lat="37.96469080978151" lon="14.908648539864831"><ele>1085.0</ele><time>2026-04-29T08:21:10.001Z</time></trkpt><trkpt lat="37.96457762610777" lon="14.908674812995404"><ele>1084.0</ele><time>2026-04-29T08:21:11.001Z</time></trkpt><trkpt lat="37.9644472522705" lon="14.908709070405934"><ele>1083.0</ele><time>2026-04-29T08:21:12.001Z</time></trkpt><trkpt lat="37.9643258172879" lon="14.90871093676848"><ele>1083.0</ele><time>2026-04-29T08:21:13.001Z</time></trkpt><trkpt lat="37.96423175439024" lon="14.908717228771478"><ele>1083.0</ele><time>2026-04-29T08:21:14.001Z</time></trkpt><trkpt lat="37.964136634981365" lon="14.908710810465776"><ele>1083.0</ele><time>2026-04-29T08:21:15.001Z</time></trkpt><trkpt lat="37.96401279162879" lon="14.908705481056487"><ele>1083.0</ele><time>2026-04-29T08:21:16.001Z</time></trkpt><trkpt lat="37.96387930168384" lon="14.908694623647454"><ele>1083.0</ele><time>2026-04-29T08:21:17.001Z</time></trkpt><trkpt lat="37.96376591028815" lon="14.908699037807251"><ele>1082.8333333333333</ele><time>2026-04-29T08:21:18.001Z</time></trkpt><trkpt lat="37.96367781672989" lon="14.908699906843482"><ele>1082.6666666666667</ele><time>2026-04-29T08:21:19.001Z</time></trkpt><trkpt lat="37.9636025433392" lon="14.908712396675485"><ele>1082.5</ele><time>2026-04-29T08:21:20.001Z</time></trkpt><trkpt lat="37.9635356991939" lon="14.908755609960501"><ele>1082.3333333333335</ele><time>2026-04-29T08:21:21.001Z</time></trkpt><trkpt lat="37.963466138605945" lon="14.908834799803742"><ele>1082.1666666666667</ele><time>2026-04-29T08:21:22.001Z</time></trkpt><trkpt lat="37.96337588958147" lon="14.908904292008712"><ele>1082.0</ele><time>2026-04-29T08:21:23.001Z</time></trkpt><trkpt lat="37.963291250059505" lon="14.90895117792088"><ele>1082.0</ele><time>2026-04-29T08:21:24.001Z</time></trkpt><trkpt lat="37.96320559646588" lon="14.908978688649295"><ele>1082.0</ele><time>2026-04-29T08:21:25.001Z</time></trkpt><trkpt lat="37.963106376264484" lon="14.908966948314665"><ele>1082.0</ele><time>2026-04-29T08:21:26.001Z</time></trkpt><trkpt lat="37.963006129056645" lon="14.908964438431433"><ele>1082.0</ele><time>2026-04-29T08:21:27.001Z</time></trkpt><trkpt lat="37.96293297066943" lon="14.908970867969524"><ele>1082.0</ele><time>2026-04-29T08:21:28.001Z</time></trkpt><trkpt lat="37.962864471258264" lon="14.909025712762695"><ele>1082.0</ele><time>2026-04-29T08:21:29.001Z</time></trkpt><trkpt lat="37.96282714425731" lon="14.9091242122338"><ele>1082.0</ele><time>2026-04-29T08:21:30.001Z</time></trkpt><trkpt lat="37.96280012465692" lon="14.90922699648661"><ele>1082.0</ele><time>2026-04-29T08:21:31.001Z</time></trkpt><trkpt lat="37.96275728204359" lon="14.909367967180208"><ele>1082.0</ele><time>2026-04-29T08:21:32.001Z</time></trkpt><trkpt lat="37.96271774538717" lon="14.909494402397053"><ele>1082.0</ele><time>2026-04-29T08:21:33.001Z</time></trkpt><trkpt lat="37.96266484479659" lon="14.90958227675814"><ele>1082.0</ele><time>2026-04-29T08:21:34.001Z</time></trkpt><trkpt lat="37.962585792439036" lon="14.909662405285813"><ele>1082.0</ele><time>2026-04-29T08:21:35.001Z</time></trkpt><trkpt lat="37.962482554533686" lon="14.909747496649311"><ele>1082.0</ele><time>2026-04-29T08:21:36.001Z</time></trkpt><trkpt lat="37.962340147057176" lon="14.90985412295009"><ele>1082.0</ele><time>2026-04-29T08:21:37.001Z</time></trkpt><trkpt lat="37.96219444485378" lon="14.909952429489687"><ele>1082.0</ele><time>2026-04-29T08:21:38.001Z</time></trkpt><trkpt lat="37.96207615093561" lon="14.910046161177164"><ele>1082.0</ele><time>2026-04-29T08:21:39.001Z</time></trkpt><trkpt lat="37.96196449125987" lon="14.910117595299317"><ele>1082.0</ele><time>2026-04-29T08:21:40.001Z</time></trkpt><trkpt lat="37.96186013091177" lon="14.910157867301951"><ele>1082.0</ele><time>2026-04-29T08:21:41.001Z</time></trkpt><trkpt lat="37.96177754473597" lon="14.910226814000149"><ele>1081.0</ele><time>2026-04-29T08:21:42.001Z</time></trkpt><trkpt lat="37.961697655218366" lon="14.910279484989324"><ele>1080.0</ele><time>2026-04-29T08:21:43.001Z</time></trkpt><trkpt lat="37.96164008999256" lon="14.910326124652027"><ele>1079.0</ele><time>2026-04-29T08:21:44.001Z</time></trkpt><trkpt lat="37.96157323702827" lon="14.91042992698663"><ele>1078.0</ele><time>2026-04-29T08:21:46.001Z</time></trkpt><trkpt lat="37.9615466134938" lon="14.910520003767239"><ele>1077.0</ele><time>2026-04-29T08:21:47.001Z</time></trkpt><trkpt lat="37.96152334321743" lon="14.910634678754867"><ele>1076.0</ele><time>2026-04-29T08:21:48.001Z</time></trkpt><trkpt lat="37.96149431285611" lon="14.91074218499155"><ele>1076.0</ele><time>2026-04-29T08:21:49.001Z</time></trkpt><trkpt lat="37.961464090020904" lon="14.91082028654524"><ele>1076.0</ele><time>2026-04-29T08:21:50.001Z</time></trkpt><trkpt lat="37.961399732119155" lon="14.910887187595973"><ele>1076.0</ele><time>2026-04-29T08:21:51.001Z</time></trkpt><trkpt lat="37.96133357317238" lon="14.911008838351867"><ele>1076.0</ele><time>2026-04-29T08:21:52.001Z</time></trkpt><trkpt lat="37.96124578605026" lon="14.911103469205123"><ele>1076.0</ele><time>2026-04-29T08:21:53.001Z</time></trkpt><trkpt lat="37.96118796556208" lon="14.911195635704471"><ele>1077.6</ele><time>2026-04-29T08:21:54.001Z</time></trkpt><trkpt lat="37.961098688811255" lon="14.911265894456077"><ele>1079.1999999999998</ele><time>2026-04-29T08:21:55.001Z</time></trkpt><trkpt lat="37.96102821752862" lon="14.911353969066086"><ele>1080.8000000000002</ele><time>2026-04-29T08:21:56.001Z</time></trkpt><trkpt lat="37.96095590929306" lon="14.911445379851902"><ele>1082.4</ele><time>2026-04-29T08:21:57.001Z</time></trkpt><trkpt lat="37.96086546612161" lon="14.911565326439945"><ele>1084.0</ele><time>2026-04-29T08:21:58.001Z</time></trkpt><trkpt lat="37.96076978226389" lon="14.911689589879634"><ele>1083.5</ele><time>2026-04-29T08:21:59.001Z</time></trkpt><trkpt lat="37.96070474758245" lon="14.911770712461372"><ele>1083.0</ele><time>2026-04-29T08:22:00.001Z</time></trkpt><trkpt lat="37.96065021506156" lon="14.911845093535515"><ele>1082.5</ele><time>2026-04-29T08:22:01.001Z</time></trkpt><trkpt lat="37.96059412010282" lon="14.911910826381236"><ele>1082.0</ele><time>2026-04-29T08:22:02.001Z</time></trkpt><trkpt lat="37.96051474650287" lon="14.911960635093136"><ele>1081.5</ele><time>2026-04-29T08:22:03.001Z</time></trkpt><trkpt lat="37.96041087383648" lon="14.911998981037996"><ele>1081.0</ele><time>2026-04-29T08:22:04.001Z</time></trkpt><trkpt lat="37.96030941823244" lon="14.912049698960915"><ele>1081.0</ele><time>2026-04-29T08:22:05.001Z</time></trkpt><trkpt lat="37.96023631138986" lon="14.912120700256732"><ele>1081.0</ele><time>2026-04-29T08:22:06.001Z</time></trkpt><trkpt lat="37.960183691517834" lon="14.912236075906709"><ele>1081.0</ele><time>2026-04-29T08:22:07.001Z</time></trkpt><trkpt lat="37.960131394164215" lon="14.912367415940532"><ele>1081.0</ele><time>2026-04-29T08:22:08.001Z</time></trkpt><trkpt lat="37.96008129506841" lon="14.912469456166523"><ele>1081.0</ele><time>2026-04-29T08:22:09.001Z</time></trkpt><trkpt lat="37.960013229860515" lon="14.91255709063171"><ele>1080.8</ele><time>2026-04-29T08:22:10.001Z</time></trkpt><trkpt lat="37.959926217814285" lon="14.912641403457753"><ele>1080.6</ele><time>2026-04-29T08:22:11.001Z</time></trkpt><trkpt lat="37.9598349499809" lon="14.912710630993816"><ele>1080.4</ele><time>2026-04-29T08:22:12.001Z</time></trkpt><trkpt lat="37.959733286436695" lon="14.912773532924044"><ele>1080.2</ele><time>2026-04-29T08:22:13.001Z</time></trkpt><trkpt lat="37.95965095349933" lon="14.912817460950924"><ele>1080.0</ele><time>2026-04-29T08:22:14.001Z</time></trkpt><trkpt lat="37.95959869036908" lon="14.912881620151168"><ele>1080.0</ele><time>2026-04-29T08:22:15.001Z</time></trkpt><trkpt lat="37.95958076730653" lon="14.912961389438175"><ele>1080.0</ele><time>2026-04-29T08:22:16.001Z</time></trkpt><trkpt lat="37.95958660667918" lon="14.91310929460452"><ele>1080.0</ele><time>2026-04-29T08:22:18.001Z</time></trkpt><trkpt lat="37.959572395594144" lon="14.91318724284353"><ele>1080.0</ele><time>2026-04-29T08:22:19.001Z</time></trkpt><trkpt lat="37.959541077169156" lon="14.913267866944654"><ele>1080.0</ele><time>2026-04-29T08:22:20.001Z</time></trkpt><trkpt lat="37.95946952737712" lon="14.913381259462634"><ele>1080.0</ele><time>2026-04-29T08:22:21.001Z</time></trkpt><trkpt lat="37.9594039055768" lon="14.91349512890128"><ele>1079.8</ele><time>2026-04-29T08:22:22.001Z</time></trkpt><trkpt lat="37.959339447215385" lon="14.913630303240298"><ele>1079.6</ele><time>2026-04-29T08:22:23.001Z</time></trkpt><trkpt lat="37.95927823081535" lon="14.913762484640026"><ele>1079.4</ele><time>2026-04-29T08:22:24.001Z</time></trkpt><trkpt lat="37.9592230537209" lon="14.913836025372195"><ele>1079.2</ele><time>2026-04-29T08:22:25.001Z</time></trkpt><trkpt lat="37.959180504719406" lon="14.91391874437315"><ele>1079.0</ele><time>2026-04-29T08:22:26.001Z</time></trkpt><trkpt lat="37.95915338059588" lon="14.91402673333704"><ele>1079.0</ele><time>2026-04-29T08:22:27.001Z</time></trkpt><trkpt lat="37.95912536705054" lon="14.914114529180706"><ele>1079.0</ele><time>2026-04-29T08:22:28.001Z</time></trkpt><trkpt lat="37.95901749765792" lon="14.914120534465534"><ele>1079.0</ele><time>2026-04-29T08:22:30.001Z</time></trkpt><trkpt lat="37.95892268251843" lon="14.914124127873654"><ele>1079.0</ele><time>2026-04-29T08:22:31.001Z</time></trkpt><trkpt lat="37.958833638931004" lon="14.914163160578571"><ele>1079.0</ele><time>2026-04-29T08:22:32.001Z</time></trkpt><trkpt lat="37.95876620686875" lon="14.914240907791855"><ele>1079.8</ele><time>2026-04-29T08:22:33.001Z</time></trkpt><trkpt lat="37.95867857633944" lon="14.914308624644926"><ele>1080.6000000000001</ele><time>2026-04-29T08:22:34.001Z</time></trkpt><trkpt lat="37.95856800595204" lon="14.914368970614229"><ele>1081.4</ele><time>2026-04-29T08:22:35.001Z</time></trkpt><trkpt lat="37.958464544594136" lon="14.914423333227582"><ele>1082.2</ele><time>2026-04-29T08:22:36.001Z</time></trkpt><trkpt lat="37.958397419909076" lon="14.914498429161906"><ele>1083.0</ele><time>2026-04-29T08:22:37.001Z</time></trkpt><trkpt lat="37.958335049730294" lon="14.914608588317343"><ele>1081.2</ele><time>2026-04-29T08:22:38.001Z</time></trkpt><trkpt lat="37.95825715260167" lon="14.914728013598307"><ele>1079.4</ele><time>2026-04-29T08:22:39.001Z</time></trkpt><trkpt lat="37.95819381696994" lon="14.914821109955483"><ele>1077.6000000000001</ele><time>2026-04-29T08:22:40.001Z</time></trkpt><trkpt lat="37.95811275013902" lon="14.914859092715758"><ele>1075.8</ele><time>2026-04-29T08:22:43.001Z</time></trkpt><trkpt lat="37.958036055073855" lon="14.914840897022522"><ele>1074.0</ele><time>2026-04-29T08:22:44.001Z</time></trkpt><trkpt lat="37.9579516921984" lon="14.914819650816137"><ele>1074.0</ele><time>2026-04-29T08:22:45.001Z</time></trkpt><trkpt lat="37.95786889175474" lon="14.91481423316938"><ele>1074.0</ele><time>2026-04-29T08:22:46.001Z</time></trkpt><trkpt lat="37.9577552455725" lon="14.91480795270648"><ele>1074.0</ele><time>2026-04-29T08:22:48.001Z</time></trkpt><trkpt lat="37.957650332323816" lon="14.914785377164284"><ele>1074.0</ele><time>2026-04-29T08:22:50.001Z</time></trkpt><trkpt lat="37.95763596316716" lon="14.914888594531678"><ele>1074.0</ele><time>2026-04-29T08:22:53.001Z</time></trkpt><trkpt lat="37.95773864747208" lon="14.914966493267274"><ele>1074.0</ele><time>2026-04-29T08:22:55.001Z</time></trkpt><trkpt lat="37.95781811214765" lon="14.915041408807312"><ele>1074.0</ele><time>2026-04-29T08:22:57.001Z</time></trkpt><trkpt lat="37.957800315294946" lon="14.915135437946025"><ele>1074.0</ele><time>2026-04-29T08:23:01.001Z</time></trkpt><trkpt lat="37.95765422224823" lon="14.915150809461386"><ele>1074.0</ele><time>2026-04-29T08:23:03.001Z</time></trkpt><trkpt lat="37.95757690171117" lon="14.915145896570117"><ele>1074.0</ele><time>2026-04-29T08:23:04.001Z</time></trkpt><trkpt lat="37.957482630959554" lon="14.915215104521382"><ele>1073.5</ele><time>2026-04-29T08:23:06.001Z</time></trkpt><trkpt lat="37.95742228385027" lon="14.915331239686523"><ele>1073.0</ele><time>2026-04-29T08:23:08.001Z</time></trkpt><trkpt lat="37.95738109483448" lon="14.915412042750976"><ele>1072.5</ele><time>2026-04-29T08:23:09.001Z</time></trkpt><trkpt lat="37.95732926235516" lon="14.915485931177587"><ele>1072.0</ele><time>2026-04-29T08:23:10.001Z</time></trkpt><trkpt lat="37.95727333723128" lon="14.915552407374914"><ele>1071.5</ele><time>2026-04-29T08:23:11.001Z</time></trkpt><trkpt lat="37.95721169623502" lon="14.915614631886147"><ele>1071.0</ele><time>2026-04-29T08:23:12.001Z</time></trkpt><trkpt lat="37.957155754459365" lon="14.91567434635935"><ele>1071.0</ele><time>2026-04-29T08:23:13.001Z</time></trkpt><trkpt lat="37.95710151081282" lon="14.915727833290317"><ele>1071.0</ele><time>2026-04-29T08:23:14.001Z</time></trkpt><trkpt lat="37.9570685005806" lon="14.915799108783723"><ele>1071.0</ele><time>2026-04-29T08:23:15.001Z</time></trkpt><trkpt lat="37.95701668242143" lon="14.91597622521343"><ele>1071.0</ele><time>2026-04-29T08:23:17.001Z</time></trkpt><trkpt lat="37.95697869237471" lon="14.916119843097148"><ele>1071.0</ele><time>2026-04-29T08:23:18.001Z</time></trkpt><trkpt lat="37.95691515780188" lon="14.916314229036834"><ele>1073.25</ele><time>2026-04-29T08:23:19.001Z</time></trkpt><trkpt lat="37.95685569678368" lon="14.916496151797546"><ele>1075.5</ele><time>2026-04-29T08:23:20.001Z</time></trkpt><trkpt lat="37.95680358820547" lon="14.91665557945327"><ele>1077.75</ele><time>2026-04-29T08:23:21.001Z</time></trkpt><trkpt lat="37.95677121133619" lon="14.916834725574079"><ele>1080.0</ele><time>2026-04-29T08:23:22.001Z</time></trkpt><trkpt lat="37.956714415504145" lon="14.916941543604924"><ele>1078.2</ele><time>2026-04-29T08:23:23.001Z</time></trkpt><trkpt lat="37.95664775121925" lon="14.917071519211774"><ele>1076.4</ele><time>2026-04-29T08:23:24.001Z</time></trkpt><trkpt lat="37.95657949548416" lon="14.917190453980352"><ele>1074.6</ele><time>2026-04-29T08:23:25.001Z</time></trkpt><trkpt lat="37.956529116112904" lon="14.91730769676826"><ele>1072.8</ele><time>2026-04-29T08:23:26.001Z</time></trkpt><trkpt lat="37.956498394773945" lon="14.917429440328362"><ele>1071.0</ele><time>2026-04-29T08:23:27.001Z</time></trkpt><trkpt lat="37.956477764813414" lon="14.917546657458214"><ele>1070.8333333333333</ele><time>2026-04-29T08:23:28.001Z</time></trkpt><trkpt lat="37.956442854898995" lon="14.917634182201615"><ele>1070.6666666666667</ele><time>2026-04-29T08:23:29.001Z</time></trkpt><trkpt lat="37.95638965963857" lon="14.917721315419243"><ele>1070.5</ele><time>2026-04-29T08:23:30.001Z</time></trkpt><trkpt lat="37.9563429475323" lon="14.917811069367026"><ele>1070.3333333333335</ele><time>2026-04-29T08:23:31.001Z</time></trkpt><trkpt lat="37.95631264228934" lon="14.91790292265483"><ele>1070.1666666666667</ele><time>2026-04-29T08:23:32.001Z</time></trkpt><trkpt lat="37.956290910920934" lon="14.91798722229826"><ele>1070.0</ele><time>2026-04-29T08:23:33.001Z</time></trkpt><trkpt lat="37.956238754772926" lon="14.918130295472869"><ele>1070.0</ele><time>2026-04-29T08:23:35.001Z</time></trkpt><trkpt lat="37.956135658314025" lon="14.918207627561593"><ele>1070.0</ele><time>2026-04-29T08:23:37.001Z</time></trkpt><trkpt lat="37.9560610431625" lon="14.918214469933012"><ele>1070.0</ele><time>2026-04-29T08:23:38.001Z</time></trkpt><trkpt lat="37.95599012631985" lon="14.918224599668735"><ele>1070.0</ele><time>2026-04-29T08:23:39.001Z</time></trkpt><trkpt lat="37.955910623405295" lon="14.91824310441844"><ele>1070.0</ele><time>2026-04-29T08:23:40.001Z</time></trkpt><trkpt lat="37.95582476944479" lon="14.918277790310624"><ele>1070.0</ele><time>2026-04-29T08:23:41.001Z</time></trkpt><trkpt lat="37.95574034875078" lon="14.918295755434377"><ele>1069.8333333333335</ele><time>2026-04-29T08:23:42.001Z</time></trkpt><trkpt lat="37.95564336472234" lon="14.918296826664477"><ele>1069.6666666666667</ele><time>2026-04-29T08:23:43.001Z</time></trkpt><trkpt lat="37.955562960511955" lon="14.91830045183155"><ele>1069.5</ele><time>2026-04-29T08:23:44.001Z</time></trkpt><trkpt lat="37.955485380468865" lon="14.91830507023175"><ele>1069.3333333333333</ele><time>2026-04-29T08:23:45.001Z</time></trkpt><trkpt lat="37.955374720720904" lon="14.9183198586002"><ele>1069.1666666666665</ele><time>2026-04-29T08:23:47.001Z</time></trkpt><trkpt lat="37.955313160749235" lon="14.918349294953044"><ele>1069.0</ele><time>2026-04-29T08:23:48.001Z</time></trkpt><trkpt lat="37.955189863831514" lon="14.91839226118396"><ele>1069.5</ele><time>2026-04-29T08:23:50.001Z</time></trkpt><trkpt lat="37.95509991284497" lon="14.918467080603552"><ele>1070.0</ele><time>2026-04-29T08:23:52.001Z</time></trkpt><trkpt lat="37.95508249740315" lon="14.918569267085182"><ele>1070.5</ele><time>2026-04-29T08:23:54.001Z</time></trkpt><trkpt lat="37.95507874681815" lon="14.918700479164878"><ele>1071.0</ele><time>2026-04-29T08:23:56.001Z</time></trkpt><trkpt lat="37.95507937505208" lon="14.918783241929306"><ele>1071.5</ele><time>2026-04-29T08:23:57.001Z</time></trkpt><trkpt lat="37.955050243121576" lon="14.918875342769537"><ele>1072.0</ele><time>2026-04-29T08:23:58.001Z</time></trkpt><trkpt lat="37.95500759478548" lon="14.918968447152755"><ele>1072.0</ele><time>2026-04-29T08:23:59.001Z</time></trkpt><trkpt lat="37.954935605977205" lon="14.919056263242068"><ele>1072.0</ele><time>2026-04-29T08:24:00.001Z</time></trkpt><trkpt lat="37.95486684535892" lon="14.919151070346455"><ele>1072.0</ele><time>2026-04-29T08:24:01.001Z</time></trkpt><trkpt lat="37.95483462507327" lon="14.919239989493404"><ele>1072.0</ele><time>2026-04-29T08:24:02.001Z</time></trkpt><trkpt lat="37.95480390397783" lon="14.919313480165023"><ele>1072.0</ele><time>2026-04-29T08:24:03.001Z</time></trkpt><trkpt lat="37.954745901858615" lon="14.919451857862617"><ele>1072.0</ele><time>2026-04-29T08:24:05.001Z</time></trkpt><trkpt lat="37.95472008403386" lon="14.919525626630856"><ele>1072.0</ele><time>2026-04-29T08:24:06.001Z</time></trkpt><trkpt lat="37.95469714400532" lon="14.919607162967461"><ele>1072.0</ele><time>2026-04-29T08:24:07.001Z</time></trkpt><trkpt lat="37.95470301715693" lon="14.919762777506335"><ele>1072.0</ele><time>2026-04-29T08:24:09.001Z</time></trkpt><trkpt lat="37.954711585300664" lon="14.919853690791221"><ele>1072.0</ele><time>2026-04-29T08:24:10.001Z</time></trkpt><trkpt lat="37.95471112651222" lon="14.9199355627074"><ele>1072.0</ele><time>2026-04-29T08:24:11.001Z</time></trkpt><trkpt lat="37.95466056113172" lon="14.920063398800902"><ele>1073.6</ele><time>2026-04-29T08:24:13.001Z</time></trkpt><trkpt lat="37.95460928987445" lon="14.92014488632532"><ele>1075.2</ele><time>2026-04-29T08:24:14.001Z</time></trkpt><trkpt lat="37.95456980183212" lon="14.920229287485068"><ele>1076.8</ele><time>2026-04-29T08:24:15.001Z</time></trkpt><trkpt lat="37.95453742805654" lon="14.920319258149183"><ele>1078.4</ele><time>2026-04-29T08:24:16.001Z</time></trkpt><trkpt lat="37.954507019958726" lon="14.920429159410793"><ele>1080.0</ele><time>2026-04-29T08:24:17.001Z</time></trkpt><trkpt lat="37.95442406177548" lon="14.920550319743874"><ele>1080.0</ele><time>2026-04-29T08:24:18.001Z</time></trkpt><trkpt lat="37.95434472402188" lon="14.920658581222813"><ele>1080.0</ele><time>2026-04-29T08:24:19.001Z</time></trkpt><trkpt lat="37.954283866168446" lon="14.920743483225982"><ele>1080.0</ele><time>2026-04-29T08:24:20.001Z</time></trkpt><trkpt lat="37.95423859208385" lon="14.920813797421593"><ele>1080.0</ele><time>2026-04-29T08:24:21.001Z</time></trkpt><trkpt lat="37.95418451720949" lon="14.920875467135184"><ele>1080.0</ele><time>2026-04-29T08:24:26.001Z</time></trkpt><trkpt lat="37.954122114234856" lon="14.92089415100269"><ele>1080.0</ele><time>2026-04-29T08:24:30.001Z</time></trkpt><trkpt lat="37.95401351068705" lon="14.920892073096965"><ele>1078.5</ele><time>2026-04-29T08:24:32.001Z</time></trkpt><trkpt lat="37.9539439347709" lon="14.920896273703224"><ele>1077.0</ele><time>2026-04-29T08:24:34.001Z</time></trkpt><trkpt lat="37.95388212475251" lon="14.92093523958175"><ele>1075.5</ele><time>2026-04-29T08:24:37.001Z</time></trkpt><trkpt lat="37.9538232191766" lon="14.920973199044607"><ele>1074.0</ele><time>2026-04-29T08:24:39.001Z</time></trkpt><trkpt lat="37.95375075868348" lon="14.921028801849088"><ele>1072.5</ele><time>2026-04-29T08:24:42.001Z</time></trkpt><trkpt lat="37.953641021692974" lon="14.921060588877442"><ele>1071.0</ele><time>2026-04-29T08:24:45.001Z</time></trkpt><trkpt lat="37.953576803860734" lon="14.921036126170858"><ele>1071.0</ele><time>2026-04-29T08:25:01.001Z</time></trkpt><trkpt lat="37.953495527274804" lon="14.921091738298784"><ele>1071.0</ele><time>2026-04-29T08:25:38.001Z</time></trkpt><trkpt lat="37.95344684117178" lon="14.921149227769144"><ele>1071.0</ele><time>2026-04-29T08:26:28Z</time></trkpt><trkpt lat="37.95336706213447" lon="14.921226576382203"><ele>1071.0</ele><time>2026-04-29T08:26:30Z</time></trkpt><trkpt lat="37.95330719906219" lon="14.921311233854253"><ele>1071.0</ele><time>2026-04-29T08:26:32Z</time></trkpt><trkpt lat="37.953249477818744" lon="14.92137841304375"><ele>1071.0</ele><time>2026-04-29T08:26:34Z</time></trkpt><trkpt lat="37.95318062273328" lon="14.92134891052143"><ele>1070.0</ele><time>2026-04-29T08:26:36Z</time></trkpt><trkpt lat="37.953108325303255" lon="14.921306336964072"><ele>1069.0</ele><time>2026-04-29T08:26:38Z</time></trkpt><trkpt lat="37.953015128832426" lon="14.921316390745297"><ele>1068.0</ele><time>2026-04-29T08:26:40Z</time></trkpt><trkpt lat="37.95288152083809" lon="14.921306676617853"><ele>1067.0</ele><time>2026-04-29T08:26:42Z</time></trkpt><trkpt lat="37.95280117995277" lon="14.921276878134293"><ele>1066.0</ele><time>2026-04-29T08:26:43Z</time></trkpt><trkpt lat="37.952743220717366" lon="14.92123920763587"><ele>1066.0</ele><time>2026-04-29T08:26:44Z</time></trkpt><trkpt lat="37.95266553603681" lon="14.9212023758861"><ele>1066.0</ele><time>2026-04-29T08:26:45Z</time></trkpt><trkpt lat="37.95255662428106" lon="14.921202480334223"><ele>1066.0</ele><time>2026-04-29T08:26:47Z</time></trkpt><trkpt lat="37.95249857356329" lon="14.921244498794982"><ele>1066.0</ele><time>2026-04-29T08:26:48Z</time></trkpt><trkpt lat="37.95244332669623" lon="14.921311354007406"><ele>1066.0</ele><time>2026-04-29T08:26:49Z</time></trkpt><trkpt lat="37.95235002693958" lon="14.921421397793548"><ele>1065.5</ele><time>2026-04-29T08:26:51Z</time></trkpt><trkpt lat="37.95223406178487" lon="14.92145616856557"><ele>1065.0</ele><time>2026-04-29T08:26:53Z</time></trkpt><trkpt lat="37.952156327822365" lon="14.921453698591328"><ele>1064.5</ele><time>2026-04-29T08:26:54Z</time></trkpt><trkpt lat="37.952071926304754" lon="14.921426554502544"><ele>1064.0</ele><time>2026-04-29T08:26:55Z</time></trkpt><trkpt lat="37.952000435445136" lon="14.921380028422654"><ele>1063.5</ele><time>2026-04-29T08:26:56Z</time></trkpt><trkpt lat="37.95193028882347" lon="14.921328259705394"><ele>1063.0</ele><time>2026-04-29T08:26:57Z</time></trkpt><trkpt lat="37.95187058635912" lon="14.921268768089652"><ele>1063.0</ele><time>2026-04-29T08:26:58Z</time></trkpt><trkpt lat="37.95178990992276" lon="14.921160471760277"><ele>1063.0</ele><time>2026-04-29T08:27:00.001Z</time></trkpt><trkpt lat="37.95170047584752" lon="14.921080024732435"><ele>1063.0</ele><time>2026-04-29T08:27:02.001Z</time></trkpt><trkpt lat="37.95163480900843" lon="14.921052424658047"><ele>1063.0</ele><time>2026-04-29T08:27:03.001Z</time></trkpt><trkpt lat="37.951564378666276" lon="14.921003685317666"><ele>1063.0</ele><time>2026-04-29T08:27:04.001Z</time></trkpt><trkpt lat="37.951502389988185" lon="14.920926522980869"><ele>1062.5</ele><time>2026-04-29T08:27:05.001Z</time></trkpt><trkpt lat="37.951418787089175" lon="14.920884241043076"><ele>1062.0</ele><time>2026-04-29T08:27:07.001Z</time></trkpt><trkpt lat="37.951338563509154" lon="14.920898779835863"><ele>1061.5</ele><time>2026-04-29T08:27:15.001Z</time></trkpt><trkpt lat="37.95132888020451" lon="14.92097787679203"><ele>1061.0</ele><time>2026-04-29T08:27:22.001Z</time></trkpt><trkpt lat="37.95127216717913" lon="14.921049167626252"><ele>1060.5</ele><time>2026-04-29T08:27:29.001Z</time></trkpt><trkpt lat="37.95118441462389" lon="14.921156478116254"><ele>1060.0</ele><time>2026-04-29T08:27:31.001Z</time></trkpt><trkpt lat="37.95111424816547" lon="14.921243163881485"><ele>1061.2</ele><time>2026-04-29T08:27:33.001Z</time></trkpt><trkpt lat="37.95099891433959" lon="14.921246612459457"><ele>1062.4</ele><time>2026-04-29T08:27:35.001Z</time></trkpt><trkpt lat="37.95090628857678" lon="14.92120195329452"><ele>1063.6</ele><time>2026-04-29T08:27:36.001Z</time></trkpt><trkpt lat="37.9508209718006" lon="14.921156736453156"><ele>1064.8</ele><time>2026-04-29T08:27:37.001Z</time></trkpt><trkpt lat="37.95072575687953" lon="14.921140331670664"><ele>1066.0</ele><time>2026-04-29T08:27:38.001Z</time></trkpt><trkpt lat="37.95061880097961" lon="14.921143392260296"><ele>1066.6</ele><time>2026-04-29T08:27:39.001Z</time></trkpt><trkpt lat="37.95051483940418" lon="14.921160537157386"><ele>1067.1999999999998</ele><time>2026-04-29T08:27:40.001Z</time></trkpt><trkpt lat="37.95042984244028" lon="14.921186830464956"><ele>1067.8000000000002</ele><time>2026-04-29T08:27:41.001Z</time></trkpt><trkpt lat="37.95036135158943" lon="14.921237011789756"><ele>1068.4</ele><time>2026-04-29T08:27:42.001Z</time></trkpt><trkpt lat="37.950295857913176" lon="14.921306718058293"><ele>1069.0</ele><time>2026-04-29T08:27:43.001Z</time></trkpt><trkpt lat="37.950223362683445" lon="14.921395168212019"><ele>1069.0</ele><time>2026-04-29T08:27:44.001Z</time></trkpt><trkpt lat="37.950137724851835" lon="14.92147229231844"><ele>1069.0</ele><time>2026-04-29T08:27:45.001Z</time></trkpt><trkpt lat="37.95003405978391" lon="14.921568919952813"><ele>1069.0</ele><time>2026-04-29T08:27:46.001Z</time></trkpt><trkpt lat="37.94990358839336" lon="14.92166294209705"><ele>1069.0</ele><time>2026-04-29T08:27:47Z</time></trkpt><trkpt lat="37.949769890804525" lon="14.921738842552134"><ele>1073.75</ele><time>2026-04-29T08:27:48Z</time></trkpt><trkpt lat="37.94964602834843" lon="14.921814849044939"><ele>1078.5</ele><time>2026-04-29T08:27:49Z</time></trkpt><trkpt lat="37.949536843931554" lon="14.921874061155988"><ele>1083.25</ele><time>2026-04-29T08:27:50Z</time></trkpt><trkpt lat="37.949436910021376" lon="14.921916722477372"><ele>1088.0</ele><time>2026-04-29T08:27:51Z</time></trkpt><trkpt lat="37.94932772371076" lon="14.921962704631722"><ele>1085.25</ele><time>2026-04-29T08:27:52Z</time></trkpt><trkpt lat="37.94919844853883" lon="14.922010913216031"><ele>1082.5</ele><time>2026-04-29T08:27:53Z</time></trkpt><trkpt lat="37.94903010416329" lon="14.921995332380469"><ele>1079.75</ele><time>2026-04-29T08:27:54Z</time></trkpt><trkpt lat="37.948902913685465" lon="14.921993613737373"><ele>1077.0</ele><time>2026-04-29T08:27:55Z</time></trkpt><trkpt lat="37.948796060776594" lon="14.921985583195752"><ele>1077.0</ele><time>2026-04-29T08:27:56Z</time></trkpt><trkpt lat="37.94867868477374" lon="14.921951111306207"><ele>1077.0</ele><time>2026-04-29T08:27:57Z</time></trkpt><trkpt lat="37.94854516610345" lon="14.921891515770598"><ele>1077.0</ele><time>2026-04-29T08:27:58Z</time></trkpt><trkpt lat="37.94841624965879" lon="14.921821566219272"><ele>1077.0</ele><time>2026-04-29T08:27:59Z</time></trkpt><trkpt lat="37.948282547481554" lon="14.921755382236489"><ele>1071.5</ele><time>2026-04-29T08:28:00Z</time></trkpt><trkpt lat="37.94815030768056" lon="14.921676892671838"><ele>1066.0</ele><time>2026-04-29T08:28:01Z</time></trkpt><trkpt lat="37.94802272418447" lon="14.921621039816191"><ele>1060.5</ele><time>2026-04-29T08:28:02Z</time></trkpt><trkpt lat="37.94791734597238" lon="14.921589433353201"><ele>1055.0</ele><time>2026-04-29T08:28:03Z</time></trkpt><trkpt lat="37.94782649254647" lon="14.921542522590745"><ele>1055.0</ele><time>2026-04-29T08:28:04Z</time></trkpt><trkpt lat="37.947739366011916" lon="14.921525346655718"><ele>1055.0</ele><time>2026-04-29T08:28:05Z</time></trkpt><trkpt lat="37.94766208187819" lon="14.921539714523966"><ele>1055.0</ele><time>2026-04-29T08:28:06Z</time></trkpt><trkpt lat="37.947571459421276" lon="14.92161604373265"><ele>1055.0</ele><time>2026-04-29T08:28:07Z</time></trkpt><trkpt lat="37.94750073587279" lon="14.921705743302581"><ele>1055.0</ele><time>2026-04-29T08:28:08Z</time></trkpt><trkpt lat="37.94744267352278" lon="14.921832945268726"><ele>1056.75</ele><time>2026-04-29T08:28:09Z</time></trkpt><trkpt lat="37.94739073524613" lon="14.921986742718365"><ele>1058.5</ele><time>2026-04-29T08:28:10Z</time></trkpt><trkpt lat="37.947319404314634" lon="14.92213368839917"><ele>1060.25</ele><time>2026-04-29T08:28:11Z</time></trkpt><trkpt lat="37.94727136017032" lon="14.92227523917871"><ele>1062.0</ele><time>2026-04-29T08:28:12Z</time></trkpt><trkpt lat="37.94723627607008" lon="14.92241867524598"><ele>1062.0</ele><time>2026-04-29T08:28:13Z</time></trkpt><trkpt lat="37.94720589895584" lon="14.922552239433298"><ele>1062.0</ele><time>2026-04-29T08:28:14Z</time></trkpt><trkpt lat="37.94718660616103" lon="14.922670982193365"><ele>1062.0</ele><time>2026-04-29T08:28:15Z</time></trkpt><trkpt lat="37.94716957537578" lon="14.922778783526484"><ele>1062.0</ele><time>2026-04-29T08:28:16Z</time></trkpt><trkpt lat="37.947162587658006" lon="14.922865573614468"><ele>1062.0</ele><time>2026-04-29T08:28:17Z</time></trkpt><trkpt lat="37.947199923707146" lon="14.923009768892262"><ele>1064.0</ele><time>2026-04-29T08:28:19Z</time></trkpt><trkpt lat="37.94725691696124" lon="14.923080425454318"><ele>1066.0</ele><time>2026-04-29T08:28:20Z</time></trkpt><trkpt lat="37.9473063504617" lon="14.923159342739165"><ele>1068.0</ele><time>2026-04-29T08:28:21Z</time></trkpt><trkpt lat="37.947341517529246" lon="14.923227890011283"><ele>1070.0</ele><time>2026-04-29T08:28:22Z</time></trkpt><trkpt lat="37.94735272118421" lon="14.923393350705402"><ele>1072.0</ele><time>2026-04-29T08:28:24Z</time></trkpt><trkpt lat="37.94734612201522" lon="14.923509528881901"><ele>1074.0</ele><time>2026-04-29T08:28:25Z</time></trkpt><trkpt lat="37.947296702795725" lon="14.923651561582236"><ele>1076.1666666666667</ele><time>2026-04-29T08:28:27Z</time></trkpt><trkpt lat="37.94725658378983" lon="14.923729684006657"><ele>1078.3333333333333</ele><time>2026-04-29T08:28:28Z</time></trkpt><trkpt lat="37.9472056062934" lon="14.923800468733134"><ele>1080.5</ele><time>2026-04-29T08:28:29Z</time></trkpt><trkpt lat="37.94715463895745" lon="14.92385008432814"><ele>1082.6666666666665</ele><time>2026-04-29T08:28:30Z</time></trkpt><trkpt lat="37.94709636605769" lon="14.923953287946844"><ele>1084.8333333333333</ele><time>2026-04-29T08:28:32Z</time></trkpt><trkpt lat="37.94709197214229" lon="14.924053950868464"><ele>1087.0</ele><time>2026-04-29T08:28:33Z</time></trkpt><trkpt lat="37.94707314843648" lon="14.924164184119208"><ele>1089.8</ele><time>2026-04-29T08:28:34Z</time></trkpt><trkpt lat="37.94705453588823" lon="14.924311594010307"><ele>1092.6</ele><time>2026-04-29T08:28:35Z</time></trkpt><trkpt lat="37.947037028496005" lon="14.924452048119413"><ele>1095.3999999999999</ele><time>2026-04-29T08:28:36Z</time></trkpt><trkpt lat="37.947001422663796" lon="14.924568096406016"><ele>1098.2</ele><time>2026-04-29T08:28:37Z</time></trkpt><trkpt lat="37.94697505472027" lon="14.924692336336623"><ele>1101.0</ele><time>2026-04-29T08:28:38Z</time></trkpt><trkpt lat="37.9469554145099" lon="14.924793484025217"><ele>1101.0</ele><time>2026-04-29T08:28:39Z</time></trkpt><trkpt lat="37.94693735191017" lon="14.924889528555227"><ele>1101.0</ele><time>2026-04-29T08:28:40Z</time></trkpt><trkpt lat="37.94686789477669" lon="14.924999170325345"><ele>1101.0</ele><time>2026-04-29T08:28:42Z</time></trkpt><trkpt lat="37.94679797080953" lon="14.92502942672398"><ele>1101.0</ele><time>2026-04-29T08:28:43Z</time></trkpt><trkpt lat="37.94668576768621" lon="14.925028536571164"><ele>1101.0</ele><time>2026-04-29T08:28:44Z</time></trkpt><trkpt lat="37.94658615545236" lon="14.92504727614443"><ele>1102.2</ele><time>2026-04-29T08:28:45Z</time></trkpt><trkpt lat="37.94648972962" lon="14.925089330004182"><ele>1103.3999999999999</ele><time>2026-04-29T08:28:46Z</time></trkpt><trkpt lat="37.94638367941796" lon="14.925145606409052"><ele>1104.6</ele><time>2026-04-29T08:28:47Z</time></trkpt><trkpt lat="37.946288918447934" lon="14.925171453553078"><ele>1105.8</ele><time>2026-04-29T08:28:48Z</time></trkpt><trkpt lat="37.946180511706324" lon="14.925162010506716"><ele>1107.0</ele><time>2026-04-29T08:28:49Z</time></trkpt><trkpt lat="37.946060029768006" lon="14.925136276055598"><ele>1107.0</ele><time>2026-04-29T08:28:50Z</time></trkpt><trkpt lat="37.94598769020995" lon="14.925147688140049"><ele>1107.0</ele><time>2026-04-29T08:28:51Z</time></trkpt><trkpt lat="37.94590235834407" lon="14.925232210743218"><ele>1107.0</ele><time>2026-04-29T08:28:53Z</time></trkpt><trkpt lat="37.94585853345448" lon="14.925301805128587"><ele>1107.0</ele><time>2026-04-29T08:28:54Z</time></trkpt><trkpt lat="37.945826223715315" lon="14.925407894520347"><ele>1107.0</ele><time>2026-04-29T08:28:55Z</time></trkpt><trkpt lat="37.94579102932102" lon="14.92555745366398"><ele>1106.0</ele><time>2026-04-29T08:28:56Z</time></trkpt><trkpt lat="37.9457447298572" lon="14.925727173804699"><ele>1105.0</ele><time>2026-04-29T08:28:57Z</time></trkpt><trkpt lat="37.94567498841907" lon="14.9258738687946"><ele>1104.0</ele><time>2026-04-29T08:28:58Z</time></trkpt><trkpt lat="37.94559044306817" lon="14.925996535450759"><ele>1103.0</ele><time>2026-04-29T08:28:59Z</time></trkpt><trkpt lat="37.94550421355655" lon="14.92611821604647"><ele>1107.25</ele><time>2026-04-29T08:29:00Z</time></trkpt><trkpt lat="37.94542926879612" lon="14.926248719569609"><ele>1111.5</ele><time>2026-04-29T08:29:01Z</time></trkpt><trkpt lat="37.945376006276256" lon="14.926422311588803"><ele>1115.75</ele><time>2026-04-29T08:29:02Z</time></trkpt><trkpt lat="37.94531147164749" lon="14.92660226975714"><ele>1120.0</ele><time>2026-04-29T08:29:03Z</time></trkpt><trkpt lat="37.9452420001082" lon="14.926757587921953"><ele>1120.75</ele><time>2026-04-29T08:29:04Z</time></trkpt><trkpt lat="37.94515626331184" lon="14.92690626651552"><ele>1121.5</ele><time>2026-04-29T08:29:05.001Z</time></trkpt><trkpt lat="37.94509039742525" lon="14.92705795705265"><ele>1122.25</ele><time>2026-04-29T08:29:06.001Z</time></trkpt><trkpt lat="37.94501778522295" lon="14.92717368516235"><ele>1123.0</ele><time>2026-04-29T08:29:07.001Z</time></trkpt><trkpt lat="37.9449454200591" lon="14.927292955601821"><ele>1123.0</ele><time>2026-04-29T08:29:08.001Z</time></trkpt><trkpt lat="37.94488203932024" lon="14.927355612641069"><ele>1123.0</ele><time>2026-04-29T08:29:09.001Z</time></trkpt><trkpt lat="37.94480007172891" lon="14.9274108706938"><ele>1123.0</ele><time>2026-04-29T08:29:10.001Z</time></trkpt><trkpt lat="37.944696567059346" lon="14.927461314334765"><ele>1123.0</ele><time>2026-04-29T08:29:11.001Z</time></trkpt><trkpt lat="37.944579061505074" lon="14.92755626215094"><ele>1123.0</ele><time>2026-04-29T08:29:12.001Z</time></trkpt><trkpt lat="37.94446429497292" lon="14.927675032324867"><ele>1123.0</ele><time>2026-04-29T08:29:13.001Z</time></trkpt><trkpt lat="37.94437683865603" lon="14.927800651873714"><ele>1123.0</ele><time>2026-04-29T08:29:14.001Z</time></trkpt><trkpt lat="37.94429063314312" lon="14.92791976497937"><ele>1123.0</ele><time>2026-04-29T08:29:15.001Z</time></trkpt><trkpt lat="37.94421622678934" lon="14.927999420036263"><ele>1123.0</ele><time>2026-04-29T08:29:16.001Z</time></trkpt><trkpt lat="37.94417126458199" lon="14.928062318783166"><ele>1123.0</ele><time>2026-04-29T08:29:17.001Z</time></trkpt><trkpt lat="37.94416617330709" lon="14.928143311413187"><ele>1123.0</ele><time>2026-04-29T08:29:18.001Z</time></trkpt><trkpt lat="37.944201078084696" lon="14.928258744369275"><ele>1123.0</ele><time>2026-04-29T08:29:19.001Z</time></trkpt><trkpt lat="37.94426405264714" lon="14.92836181608312"><ele>1123.0</ele><time>2026-04-29T08:29:20.001Z</time></trkpt><trkpt lat="37.944350997044296" lon="14.928467148813835"><ele>1123.0</ele><time>2026-04-29T08:29:21.001Z</time></trkpt><trkpt lat="37.94444359085014" lon="14.928601711798274"><ele>1129.0</ele><time>2026-04-29T08:29:22.001Z</time></trkpt><trkpt lat="37.94453389718675" lon="14.92876340569051"><ele>1135.0</ele><time>2026-04-29T08:29:23.001Z</time></trkpt><trkpt lat="37.944606054600904" lon="14.928921884145305"><ele>1141.0</ele><time>2026-04-29T08:29:24.001Z</time></trkpt><trkpt lat="37.944646011270656" lon="14.929062043447038"><ele>1147.0</ele><time>2026-04-29T08:29:25.001Z</time></trkpt><trkpt lat="37.944692583303016" lon="14.929169800621244"><ele>1148.4</ele><time>2026-04-29T08:29:26.001Z</time></trkpt><trkpt lat="37.94473149602651" lon="14.929274557113796"><ele>1149.8000000000002</ele><time>2026-04-29T08:29:27.001Z</time></trkpt><trkpt lat="37.94476421361009" lon="14.929404071142644"><ele>1151.2</ele><time>2026-04-29T08:29:28.001Z</time></trkpt><trkpt lat="37.94479786211829" lon="14.929543025239807"><ele>1152.6000000000001</ele><time>2026-04-29T08:29:29Z</time></trkpt><trkpt lat="37.94479875587395" lon="14.929652534192877"><ele>1154.0</ele><time>2026-04-29T08:29:30Z</time></trkpt><trkpt lat="37.94478900048219" lon="14.929835239784076"><ele>1154.0</ele><time>2026-04-29T08:29:31Z</time></trkpt><trkpt lat="37.944773349205825" lon="14.929988663761977"><ele>1154.0</ele><time>2026-04-29T08:29:32Z</time></trkpt><trkpt lat="37.944762805878575" lon="14.93009148128641"><ele>1154.0</ele><time>2026-04-29T08:29:33Z</time></trkpt><trkpt lat="37.94481862878792" lon="14.930269983920034"><ele>1154.0</ele><time>2026-04-29T08:29:35Z</time></trkpt><trkpt lat="37.94488336342815" lon="14.93037966520297"><ele>1154.6000000000001</ele><time>2026-04-29T08:29:36Z</time></trkpt><trkpt lat="37.944940443883034" lon="14.930487448448146"><ele>1155.2</ele><time>2026-04-29T08:29:37Z</time></trkpt><trkpt lat="37.944969132670906" lon="14.930588034905494"><ele>1155.8000000000002</ele><time>2026-04-29T08:29:38Z</time></trkpt><trkpt lat="37.944977781195085" lon="14.930692823451754"><ele>1156.4</ele><time>2026-04-29T08:29:39Z</time></trkpt><trkpt lat="37.94499112898135" lon="14.930824779071104"><ele>1157.0</ele><time>2026-04-29T08:29:40Z</time></trkpt><trkpt lat="37.944998160251174" lon="14.930926412204782"><ele>1157.0</ele><time>2026-04-29T08:29:41Z</time></trkpt><trkpt lat="37.944935790422605" lon="14.93097725294814"><ele>1157.0</ele><time>2026-04-29T08:29:43Z</time></trkpt><trkpt lat="37.94487252973721" lon="14.93094770858754"><ele>1157.0</ele><time>2026-04-29T08:29:44Z</time></trkpt><trkpt lat="37.94477506448883" lon="14.930868018963976"><ele>1157.0</ele><time>2026-04-29T08:29:45Z</time></trkpt><trkpt lat="37.94468178144387" lon="14.930844630404637"><ele>1157.0</ele><time>2026-04-29T08:29:46Z</time></trkpt><trkpt lat="37.94459821133483" lon="14.930866029606966"><ele>1157.0</ele><time>2026-04-29T08:29:47Z</time></trkpt><trkpt lat="37.94453527984817" lon="14.930920313645158"><ele>1159.5</ele><time>2026-04-29T08:29:48Z</time></trkpt><trkpt lat="37.94450046379338" lon="14.93098958849783"><ele>1162.0</ele><time>2026-04-29T08:29:49Z</time></trkpt><trkpt lat="37.94447304068555" lon="14.931074473012423"><ele>1164.5</ele><time>2026-04-29T08:29:50Z</time></trkpt><trkpt lat="37.944424274397555" lon="14.931158485265406"><ele>1167.0</ele><time>2026-04-29T08:29:51Z</time></trkpt><trkpt lat="37.944383584547154" lon="14.9312708405655"><ele>1169.5</ele><time>2026-04-29T08:29:52Z</time></trkpt><trkpt lat="37.944362649137176" lon="14.931392969582753"><ele>1172.0</ele><time>2026-04-29T08:29:53Z</time></trkpt><trkpt lat="37.94431458855387" lon="14.93151537002345"><ele>1172.0</ele><time>2026-04-29T08:29:54Z</time></trkpt><trkpt lat="37.94426791456913" lon="14.931621233426055"><ele>1172.0</ele><time>2026-04-29T08:29:55Z</time></trkpt><trkpt lat="37.94424008003262" lon="14.931749792199202"><ele>1172.0</ele><time>2026-04-29T08:29:56Z</time></trkpt><trkpt lat="37.944215855565766" lon="14.931836144927809"><ele>1172.0</ele><time>2026-04-29T08:29:57Z</time></trkpt><trkpt lat="37.94419852382167" lon="14.931941036264577"><ele>1172.0</ele><time>2026-04-29T08:29:58Z</time></trkpt><trkpt lat="37.944216003086986" lon="14.932060540702244"><ele>1173.0</ele><time>2026-04-29T08:29:59Z</time></trkpt><trkpt lat="37.944218894452625" lon="14.932158845253372"><ele>1174.0</ele><time>2026-04-29T08:30:00Z</time></trkpt><trkpt lat="37.944197297472215" lon="14.932248398323972"><ele>1175.0</ele><time>2026-04-29T08:30:01Z</time></trkpt><trkpt lat="37.944135666935715" lon="14.932369231415858"><ele>1176.0</ele><time>2026-04-29T08:30:02Z</time></trkpt><trkpt lat="37.944078302570716" lon="14.932556966190637"><ele>1177.0</ele><time>2026-04-29T08:30:03Z</time></trkpt><trkpt lat="37.944042378237455" lon="14.932693706336648"><ele>1177.0</ele><time>2026-04-29T08:30:04Z</time></trkpt><trkpt lat="37.944036425862805" lon="14.932832581532866"><ele>1177.0</ele><time>2026-04-29T08:30:05Z</time></trkpt><trkpt lat="37.9440128272768" lon="14.93296040569713"><ele>1177.0</ele><time>2026-04-29T08:30:07Z</time></trkpt><trkpt lat="37.94395707931096" lon="14.933005696265942"><ele>1177.0</ele><time>2026-04-29T08:30:08Z</time></trkpt><trkpt lat="37.94389204637782" lon="14.933032192721301"><ele>1177.0</ele><time>2026-04-29T08:30:09Z</time></trkpt><trkpt lat="37.94383087687659" lon="14.933007296547657"><ele>1177.0</ele><time>2026-04-29T08:30:11Z</time></trkpt><trkpt lat="37.943791037635705" lon="14.932944577839185"><ele>1177.0</ele><time>2026-04-29T08:30:12Z</time></trkpt><trkpt lat="37.943754940737634" lon="14.932843397684753"><ele>1177.0</ele><time>2026-04-29T08:30:13Z</time></trkpt><trkpt lat="37.94371552629809" lon="14.932770697796617"><ele>1177.0</ele><time>2026-04-29T08:30:14Z</time></trkpt><trkpt lat="37.94365837490935" lon="14.932736941297268"><ele>1177.0</ele><time>2026-04-29T08:30:15Z</time></trkpt><trkpt lat="37.943567704055134" lon="14.93272380515237"><ele>1177.0</ele><time>2026-04-29T08:30:16Z</time></trkpt><trkpt lat="37.943441308012545" lon="14.932716782550225"><ele>1177.0</ele><time>2026-04-29T08:30:17Z</time></trkpt><trkpt lat="37.943295159844624" lon="14.932712409590122"><ele>1174.6</ele><time>2026-04-29T08:30:18Z</time></trkpt><trkpt lat="37.94316551272948" lon="14.932707000656508"><ele>1172.2</ele><time>2026-04-29T08:30:19Z</time></trkpt><trkpt lat="37.94305432576341" lon="14.93273359842148"><ele>1169.8</ele><time>2026-04-29T08:30:20Z</time></trkpt><trkpt lat="37.94298085554921" lon="14.932752849014689"><ele>1167.4</ele><time>2026-04-29T08:30:21Z</time></trkpt><trkpt lat="37.94291079828068" lon="14.932758958810325"><ele>1165.0</ele><time>2026-04-29T08:30:22Z</time></trkpt><trkpt lat="37.94280535368706" lon="14.932782862457742"><ele>1165.0</ele><time>2026-04-29T08:30:24Z</time></trkpt><trkpt lat="37.94271728382253" lon="14.932833201993697"><ele>1165.0</ele><time>2026-04-29T08:30:26Z</time></trkpt><trkpt lat="37.94263368073293" lon="14.932887069521446"><ele>1165.0</ele><time>2026-04-29T08:30:27Z</time></trkpt><trkpt lat="37.94257221772068" lon="14.932956220322152"><ele>1165.0</ele><time>2026-04-29T08:30:28Z</time></trkpt><trkpt lat="37.94245556449915" lon="14.933008052949093"><ele>1165.0</ele><time>2026-04-29T08:30:30Z</time></trkpt><trkpt lat="37.94239059247949" lon="14.932994864285908"><ele>1164.8</ele><time>2026-04-29T08:30:31Z</time></trkpt><trkpt lat="37.94234335399417" lon="14.93293762578548"><ele>1164.6</ele><time>2026-04-29T08:30:32Z</time></trkpt><trkpt lat="37.94230679231798" lon="14.932870947800012"><ele>1164.4</ele><time>2026-04-29T08:30:33Z</time></trkpt><trkpt lat="37.94227436807167" lon="14.932771543960527"><ele>1164.2</ele><time>2026-04-29T08:30:34Z</time></trkpt><trkpt lat="37.94220798243539" lon="14.932624565686393"><ele>1164.0</ele><time>2026-04-29T08:30:35Z</time></trkpt><trkpt lat="37.94211774001269" lon="14.932467956246612"><ele>1161.5</ele><time>2026-04-29T08:30:36Z</time></trkpt><trkpt lat="37.9420725341781" lon="14.932355007088692"><ele>1159.0</ele><time>2026-04-29T08:30:37Z</time></trkpt><trkpt lat="37.94203736303487" lon="14.932264143652166"><ele>1156.5</ele><time>2026-04-29T08:30:38Z</time></trkpt><trkpt lat="37.941995260846554" lon="14.932173093505723"><ele>1154.0</ele><time>2026-04-29T08:30:39Z</time></trkpt><trkpt lat="37.941939100066726" lon="14.932114285755734"><ele>1151.5</ele><time>2026-04-29T08:30:40Z</time></trkpt><trkpt lat="37.94186448759751" lon="14.932044682962447"><ele>1149.0</ele><time>2026-04-29T08:30:41Z</time></trkpt><trkpt lat="37.94177222342385" lon="14.931971454476699"><ele>1147.0</ele><time>2026-04-29T08:30:42Z</time></trkpt><trkpt lat="37.941654858220495" lon="14.931909120986704"><ele>1145.0</ele><time>2026-04-29T08:30:43Z</time></trkpt><trkpt lat="37.94154494236391" lon="14.931847709972768"><ele>1143.0</ele><time>2026-04-29T08:30:44Z</time></trkpt><trkpt lat="37.94145269527982" lon="14.931792527216647"><ele>1141.0</ele><time>2026-04-29T08:30:45Z</time></trkpt><trkpt lat="37.94136724083906" lon="14.931740528198329"><ele>1139.0</ele><time>2026-04-29T08:30:46Z</time></trkpt><trkpt lat="37.941273213325815" lon="14.931705256190376"><ele>1139.0</ele><time>2026-04-29T08:30:47Z</time></trkpt><trkpt lat="37.94116841830761" lon="14.931706314022913"><ele>1139.0</ele><time>2026-04-29T08:30:48Z</time></trkpt><trkpt lat="37.9410709677908" lon="14.931688291205523"><ele>1139.0</ele><time>2026-04-29T08:30:49Z</time></trkpt><trkpt lat="37.940957458704666" lon="14.93164533468937"><ele>1139.0</ele><time>2026-04-29T08:30:50Z</time></trkpt><trkpt lat="37.94081668987845" lon="14.931558804629477"><ele>1139.0</ele><time>2026-04-29T08:30:51Z</time></trkpt><trkpt lat="37.9406757003664" lon="14.931473558411742"><ele>1139.0</ele><time>2026-04-29T08:30:52Z</time></trkpt><trkpt lat="37.94055936131753" lon="14.931396838429078"><ele>1139.0</ele><time>2026-04-29T08:30:53Z</time></trkpt><trkpt lat="37.94046490300616" lon="14.93136035856308"><ele>1139.0</ele><time>2026-04-29T08:30:54Z</time></trkpt><trkpt lat="37.94037891000958" lon="14.931331209271903"><ele>1139.0</ele><time>2026-04-29T08:30:55Z</time></trkpt><trkpt lat="37.940289717826474" lon="14.931336296550514"><ele>1139.0</ele><time>2026-04-29T08:30:56Z</time></trkpt><trkpt lat="37.9402034051424" lon="14.931349872453145"><ele>1139.0</ele><time>2026-04-29T08:30:57Z</time></trkpt><trkpt lat="37.94012796009179" lon="14.93138440404544"><ele>1139.0</ele><time>2026-04-29T08:30:58Z</time></trkpt><trkpt lat="37.94006334165876" lon="14.931437713266137"><ele>1139.0</ele><time>2026-04-29T08:30:59Z</time></trkpt><trkpt lat="37.94000307848948" lon="14.931531058070652"><ele>1139.0</ele><time>2026-04-29T08:31:00Z</time></trkpt><trkpt lat="37.939941466797904" lon="14.931629828660716"><ele>1138.5</ele><time>2026-04-29T08:31:01Z</time></trkpt><trkpt lat="37.9398802230511" lon="14.931749066174842"><ele>1138.0</ele><time>2026-04-29T08:31:02Z</time></trkpt><trkpt lat="37.9398458389098" lon="14.93188770983272"><ele>1137.5</ele><time>2026-04-29T08:31:03Z</time></trkpt><trkpt lat="37.93982989890829" lon="14.932057608849748"><ele>1137.0</ele><time>2026-04-29T08:31:04Z</time></trkpt><trkpt lat="37.93981832337005" lon="14.932243823796156"><ele>1137.0</ele><time>2026-04-29T08:31:05Z</time></trkpt><trkpt lat="37.93980871099871" lon="14.932430693747806"><ele>1137.0</ele><time>2026-04-29T08:31:06Z</time></trkpt><trkpt lat="37.93979792062473" lon="14.93260225395211"><ele>1137.0</ele><time>2026-04-29T08:31:07Z</time></trkpt><trkpt lat="37.93977578864838" lon="14.9327657174682"><ele>1137.0</ele><time>2026-04-29T08:31:08Z</time></trkpt><trkpt lat="37.939745972264795" lon="14.932934806226452"><ele>1139.8</ele><time>2026-04-29T08:31:09Z</time></trkpt><trkpt lat="37.93971978891785" lon="14.933094108288117"><ele>1142.6</ele><time>2026-04-29T08:31:10.001Z</time></trkpt><trkpt lat="37.939707836812524" lon="14.93322725958123"><ele>1145.3999999999999</ele><time>2026-04-29T08:31:11.001Z</time></trkpt><trkpt lat="37.939691304474756" lon="14.933344899252198"><ele>1148.2</ele><time>2026-04-29T08:31:12.001Z</time></trkpt><trkpt lat="37.939639897929474" lon="14.933455828907643"><ele>1151.0</ele><time>2026-04-29T08:31:13.001Z</time></trkpt><trkpt lat="37.9395596409703" lon="14.933558070545006"><ele>1150.0</ele><time>2026-04-29T08:31:14.001Z</time></trkpt><trkpt lat="37.93946026364315" lon="14.933655393920619"><ele>1149.0</ele><time>2026-04-29T08:31:15.001Z</time></trkpt><trkpt lat="37.93936095589342" lon="14.933731139463926"><ele>1148.0</ele><time>2026-04-29T08:31:16.001Z</time></trkpt><trkpt lat="37.939254205708956" lon="14.933784651856715"><ele>1147.0</ele><time>2026-04-29T08:31:17.001Z</time></trkpt><trkpt lat="37.93913248763668" lon="14.933803171691249"><ele>1147.0</ele><time>2026-04-29T08:31:18.001Z</time></trkpt><trkpt lat="37.939008097263425" lon="14.933802017692846"><ele>1147.0</ele><time>2026-04-29T08:31:19.001Z</time></trkpt><trkpt lat="37.93886885707119" lon="14.933772795720046"><ele>1147.0</ele><time>2026-04-29T08:31:20.001Z</time></trkpt><trkpt lat="37.93872137337172" lon="14.93374080688596"><ele>1147.0</ele><time>2026-04-29T08:31:21.001Z</time></trkpt><trkpt lat="37.93855043648577" lon="14.933708468846671"><ele>1143.0</ele><time>2026-04-29T08:31:22.001Z</time></trkpt><trkpt lat="37.93837030867238" lon="14.933688335807359"><ele>1139.0</ele><time>2026-04-29T08:31:23.001Z</time></trkpt><trkpt lat="37.938209040587104" lon="14.933660646403522"><ele>1135.0</ele><time>2026-04-29T08:31:24Z</time></trkpt><trkpt lat="37.938078086785396" lon="14.933644418130674"><ele>1135.0</ele><time>2026-04-29T08:31:25Z</time></trkpt><trkpt lat="37.93797227810882" lon="14.933662113057764"><ele>1135.0</ele><time>2026-04-29T08:31:26Z</time></trkpt><trkpt lat="37.93788690193145" lon="14.933672358811805"><ele>1135.0</ele><time>2026-04-29T08:31:27Z</time></trkpt><trkpt lat="37.93781311122561" lon="14.93369817931167"><ele>1135.0</ele><time>2026-04-29T08:31:28Z</time></trkpt><trkpt lat="37.93775933434239" lon="14.93374536179242"><ele>1135.0</ele><time>2026-04-29T08:31:29Z</time></trkpt><trkpt lat="37.93772854197549" lon="14.933825033559177"><ele>1135.0</ele><time>2026-04-29T08:31:30Z</time></trkpt><trkpt lat="37.937712046975825" lon="14.933930414109927"><ele>1135.0</ele><time>2026-04-29T08:31:31Z</time></trkpt><trkpt lat="37.937672129158265" lon="14.934073249632423"><ele>1135.0</ele><time>2026-04-29T08:31:32Z</time></trkpt><trkpt lat="37.93762623287042" lon="14.934245694330349"><ele>1135.0</ele><time>2026-04-29T08:31:33Z</time></trkpt><trkpt lat="37.93758298137015" lon="14.93444604921308"><ele>1135.0</ele><time>2026-04-29T08:31:34Z</time></trkpt><trkpt lat="37.93754095682726" lon="14.934642472785729"><ele>1134.0</ele><time>2026-04-29T08:31:35Z</time></trkpt><trkpt lat="37.937499532702915" lon="14.934803106895746"><ele>1133.0</ele><time>2026-04-29T08:31:36Z</time></trkpt><trkpt lat="37.93746085307874" lon="14.934947587094978"><ele>1132.0</ele><time>2026-04-29T08:31:37Z</time></trkpt><trkpt lat="37.937404017060125" lon="14.935074801186422"><ele>1131.0</ele><time>2026-04-29T08:31:38Z</time></trkpt><trkpt lat="37.93734705773719" lon="14.935207353052991"><ele>1133.2</ele><time>2026-04-29T08:31:39Z</time></trkpt><trkpt lat="37.93729559575268" lon="14.93530209626209"><ele>1135.3999999999999</ele><time>2026-04-29T08:31:40Z</time></trkpt><trkpt lat="37.93724815039372" lon="14.935383411484592"><ele>1137.6</ele><time>2026-04-29T08:31:41Z</time></trkpt><trkpt lat="37.937181403717155" lon="14.935457323484249"><ele>1139.8</ele><time>2026-04-29T08:31:42Z</time></trkpt><trkpt lat="37.937103932846234" lon="14.935545631532085"><ele>1142.0</ele><time>2026-04-29T08:31:43Z</time></trkpt><trkpt lat="37.93702925283507" lon="14.935652053126212"><ele>1142.0</ele><time>2026-04-29T08:31:44Z</time></trkpt><trkpt lat="37.93696296092605" lon="14.935769537901244"><ele>1142.0</ele><time>2026-04-29T08:31:45Z</time></trkpt><trkpt lat="37.93686697362438" lon="14.935877156643754"><ele>1142.0</ele><time>2026-04-29T08:31:46Z</time></trkpt><trkpt lat="37.9367580376169" lon="14.935977642584032"><ele>1142.0</ele><time>2026-04-29T08:31:47Z</time></trkpt><trkpt lat="37.93665519366319" lon="14.936083214166585"><ele>1144.2</ele><time>2026-04-29T08:31:48Z</time></trkpt><trkpt lat="37.9365745896795" lon="14.93618681793697"><ele>1146.4</ele><time>2026-04-29T08:31:49Z</time></trkpt><trkpt lat="37.936514920608516" lon="14.936273733430998"><ele>1148.6</ele><time>2026-04-29T08:31:50Z</time></trkpt><trkpt lat="37.9364634241568" lon="14.936362303769355"><ele>1150.8</ele><time>2026-04-29T08:31:51Z</time></trkpt><trkpt lat="37.936415758569105" lon="14.936467202634066"><ele>1153.0</ele><time>2026-04-29T08:31:52Z</time></trkpt><trkpt lat="37.93637452060852" lon="14.936605990755453"><ele>1155.0</ele><time>2026-04-29T08:31:53Z</time></trkpt><trkpt lat="37.93632681448874" lon="14.936722653178727"><ele>1157.0</ele><time>2026-04-29T08:31:54Z</time></trkpt><trkpt lat="37.93626455215316" lon="14.93684852141871"><ele>1159.0</ele><time>2026-04-29T08:31:55Z</time></trkpt><trkpt lat="37.93621084961247" lon="14.93695231301177"><ele>1161.0</ele><time>2026-04-29T08:31:56Z</time></trkpt><trkpt lat="37.93617766118435" lon="14.937055189438642"><ele>1163.0</ele><time>2026-04-29T08:31:57Z</time></trkpt><trkpt lat="37.93620247878127" lon="14.937202741241583"><ele>1163.0</ele><time>2026-04-29T08:31:59Z</time></trkpt><trkpt lat="37.936251176323054" lon="14.937298503802765"><ele>1163.0</ele><time>2026-04-29T08:32:00Z</time></trkpt><trkpt lat="37.93632355770851" lon="14.937393660034168"><ele>1163.0</ele><time>2026-04-29T08:32:01Z</time></trkpt><trkpt lat="37.9364464966277" lon="14.937497383986175"><ele>1163.0</ele><time>2026-04-29T08:32:02Z</time></trkpt><trkpt lat="37.936530494233395" lon="14.937565822398392"><ele>1163.0</ele><time>2026-04-29T08:32:03Z</time></trkpt><trkpt lat="37.93660760984101" lon="14.93764267460708"><ele>1166.0</ele><time>2026-04-29T08:32:04Z</time></trkpt><trkpt lat="37.93666125764889" lon="14.937710337102962"><ele>1169.0</ele><time>2026-04-29T08:32:05Z</time></trkpt><trkpt lat="37.93668431062688" lon="14.937855435528279"><ele>1172.0</ele><time>2026-04-29T08:32:07Z</time></trkpt><trkpt lat="37.936649451259285" lon="14.937947040220301"><ele>1175.0</ele><time>2026-04-29T08:32:08Z</time></trkpt><trkpt lat="37.93658385555582" lon="14.938038384514957"><ele>1178.0</ele><time>2026-04-29T08:32:09Z</time></trkpt><trkpt lat="37.93649389290308" lon="14.93815329839907"><ele>1178.0</ele><time>2026-04-29T08:32:10Z</time></trkpt><trkpt lat="37.936402163275574" lon="14.938243636672265"><ele>1178.0</ele><time>2026-04-29T08:32:11Z</time></trkpt><trkpt lat="37.936348469979876" lon="14.93832866161732"><ele>1178.0</ele><time>2026-04-29T08:32:12Z</time></trkpt><trkpt lat="37.93618108149063" lon="14.938368733910044"><ele>1178.0</ele><time>2026-04-29T08:32:14Z</time></trkpt><trkpt lat="37.93602952312034" lon="14.938370854064841"><ele>1178.0</ele><time>2026-04-29T08:32:15Z</time></trkpt><trkpt lat="37.935889760830655" lon="14.938374077372426"><ele>1178.0</ele><time>2026-04-29T08:32:16Z</time></trkpt><trkpt lat="37.93579127374211" lon="14.938413024844511"><ele>1178.0</ele><time>2026-04-29T08:32:17Z</time></trkpt><trkpt lat="37.93567575151541" lon="14.938468085730145"><ele>1178.0</ele><time>2026-04-29T08:32:18Z</time></trkpt><trkpt lat="37.935561225101985" lon="14.938530761299093"><ele>1181.4</ele><time>2026-04-29T08:32:19Z</time></trkpt><trkpt lat="37.93543869511357" lon="14.938598159784794"><ele>1184.8</ele><time>2026-04-29T08:32:20Z</time></trkpt><trkpt lat="37.935332111440694" lon="14.938669402512362"><ele>1188.2</ele><time>2026-04-29T08:32:21Z</time></trkpt><trkpt lat="37.93524460583657" lon="14.938713348292579"><ele>1191.6</ele><time>2026-04-29T08:32:22Z</time></trkpt><trkpt lat="37.935186979892435" lon="14.938770996998809"><ele>1195.0</ele><time>2026-04-29T08:32:23Z</time></trkpt><trkpt lat="37.93509943031374" lon="14.938870359017578"><ele>1197.5</ele><time>2026-04-29T08:32:24Z</time></trkpt><trkpt lat="37.935010026410545" lon="14.939005691993392"><ele>1200.0</ele><time>2026-04-29T08:32:25Z</time></trkpt><trkpt lat="37.934913271559566" lon="14.939149751077682"><ele>1202.5</ele><time>2026-04-29T08:32:26Z</time></trkpt><trkpt lat="37.93485199510457" lon="14.939287407599524"><ele>1205.0</ele><time>2026-04-29T08:32:27Z</time></trkpt><trkpt lat="37.934805888796326" lon="14.939388373464677"><ele>1205.0</ele><time>2026-04-29T08:32:28Z</time></trkpt><trkpt lat="37.93471600008585" lon="14.939469133002511"><ele>1205.0</ele><time>2026-04-29T08:32:30Z</time></trkpt><trkpt lat="37.934569362353066" lon="14.9394133752572"><ele>1205.0</ele><time>2026-04-29T08:32:32Z</time></trkpt><trkpt lat="37.93446944627358" lon="14.93939423976861"><ele>1205.0</ele><time>2026-04-29T08:32:33Z</time></trkpt><trkpt lat="37.93438606239509" lon="14.939386403275892"><ele>1205.0</ele><time>2026-04-29T08:32:34Z</time></trkpt><trkpt lat="37.9342960256017" lon="14.939403068640612"><ele>1205.2</ele><time>2026-04-29T08:32:35Z</time></trkpt><trkpt lat="37.93419161256849" lon="14.939425439435253"><ele>1205.4</ele><time>2026-04-29T08:32:36Z</time></trkpt><trkpt lat="37.93408980284776" lon="14.939416021604993"><ele>1205.6</ele><time>2026-04-29T08:32:37Z</time></trkpt><trkpt lat="37.934020969952215" lon="14.939370044272804"><ele>1205.8</ele><time>2026-04-29T08:32:38Z</time></trkpt><trkpt lat="37.93393623681277" lon="14.939318295092685"><ele>1206.0</ele><time>2026-04-29T08:32:39Z</time></trkpt><trkpt lat="37.93386281664511" lon="14.939266115598082"><ele>1206.0</ele><time>2026-04-29T08:32:40Z</time></trkpt><trkpt lat="37.93380258318872" lon="14.9392380650731"><ele>1206.0</ele><time>2026-04-29T08:32:41Z</time></trkpt><trkpt lat="37.933704088356826" lon="14.939276071482285"><ele>1206.0</ele><time>2026-04-29T08:32:43Z</time></trkpt><trkpt lat="37.93366110672465" lon="14.939336787206168"><ele>1206.0</ele><time>2026-04-29T08:32:44Z</time></trkpt><trkpt lat="37.933616230762404" lon="14.939414695939217"><ele>1206.0</ele><time>2026-04-29T08:32:46Z</time></trkpt><trkpt lat="37.93361889501507" lon="14.939525095549216"><ele>1206.0</ele><time>2026-04-29T08:34:22Z</time></trkpt><trkpt lat="37.93356797516134" lon="14.93965875083984"><ele>1206.0</ele><time>2026-04-29T08:34:24Z</time></trkpt><trkpt lat="37.933508751965306" lon="14.93977644136841"><ele>1206.0</ele><time>2026-04-29T08:34:26Z</time></trkpt><trkpt lat="37.93343058530024" lon="14.939893669800192"><ele>1206.0</ele><time>2026-04-29T08:34:28Z</time></trkpt><trkpt lat="37.93339732275422" lon="14.940059691647562"><ele>1206.0</ele><time>2026-04-29T08:34:30Z</time></trkpt><trkpt lat="37.93340790079327" lon="14.94018575111334"><ele>1204.8</ele><time>2026-04-29T08:34:31Z</time></trkpt><trkpt lat="37.933423076599006" lon="14.940320723549707"><ele>1203.6</ele><time>2026-04-29T08:34:32Z</time></trkpt><trkpt lat="37.933420265443566" lon="14.940438629850307"><ele>1202.4</ele><time>2026-04-29T08:34:33Z</time></trkpt><trkpt lat="37.93339130704557" lon="14.94053381166231"><ele>1201.2</ele><time>2026-04-29T08:34:34Z</time></trkpt><trkpt lat="37.93333431915515" lon="14.94062276150967"><ele>1200.0</ele><time>2026-04-29T08:34:35Z</time></trkpt><trkpt lat="37.93326484401884" lon="14.940720936197819"><ele>1200.0</ele><time>2026-04-29T08:34:36Z</time></trkpt><trkpt lat="37.93318789578683" lon="14.940821921660737"><ele>1200.0</ele><time>2026-04-29T08:34:37Z</time></trkpt><trkpt lat="37.933108451486184" lon="14.940920996991704"><ele>1200.0</ele><time>2026-04-29T08:34:38Z</time></trkpt><trkpt lat="37.93302382879447" lon="14.940997187044081"><ele>1200.0</ele><time>2026-04-29T08:34:39Z</time></trkpt><trkpt lat="37.93295133862421" lon="14.941071560844835"><ele>1200.0</ele><time>2026-04-29T08:34:40Z</time></trkpt><trkpt lat="37.932905858567786" lon="14.941142768218915"><ele>1200.5</ele><time>2026-04-29T08:34:41Z</time></trkpt><trkpt lat="37.932874383380685" lon="14.941216847364768"><ele>1201.0</ele><time>2026-04-29T08:34:43Z</time></trkpt><trkpt lat="37.932831447740845" lon="14.941351465625873"><ele>1201.5</ele><time>2026-04-29T08:34:54Z</time></trkpt><trkpt lat="37.932802416831464" lon="14.94144596447395"><ele>1202.0</ele><time>2026-04-29T08:34:55Z</time></trkpt><trkpt lat="37.9327643960201" lon="14.941551904432888"><ele>1202.5</ele><time>2026-04-29T08:34:56Z</time></trkpt><trkpt lat="37.93273637336779" lon="14.94165149398246"><ele>1203.0</ele><time>2026-04-29T08:34:57Z</time></trkpt><trkpt lat="37.93271548805198" lon="14.94175016398961"><ele>1203.4</ele><time>2026-04-29T08:34:58Z</time></trkpt><trkpt lat="37.93269210970585" lon="14.941869527561586"><ele>1203.8</ele><time>2026-04-29T08:34:59Z</time></trkpt><trkpt lat="37.932652099018924" lon="14.941981963861574"><ele>1204.2</ele><time>2026-04-29T08:35:00Z</time></trkpt><trkpt lat="37.93259920988209" lon="14.942087622067707"><ele>1204.6</ele><time>2026-04-29T08:35:01Z</time></trkpt><trkpt lat="37.93252455743049" lon="14.942184118706633"><ele>1205.0</ele><time>2026-04-29T08:35:02Z</time></trkpt><trkpt lat="37.93245692404492" lon="14.942288213478202"><ele>1205.0</ele><time>2026-04-29T08:35:03Z</time></trkpt><trkpt lat="37.932393378468205" lon="14.942392205989306"><ele>1205.0</ele><time>2026-04-29T08:35:04Z</time></trkpt><trkpt lat="37.93230156172246" lon="14.94251077518888"><ele>1205.0</ele><time>2026-04-29T08:35:05Z</time></trkpt><trkpt lat="37.93220675257391" lon="14.942628774540008"><ele>1205.0</ele><time>2026-04-29T08:35:06Z</time></trkpt><trkpt lat="37.932123768041635" lon="14.94272377529747"><ele>1209.0</ele><time>2026-04-29T08:35:07Z</time></trkpt><trkpt lat="37.93206066473293" lon="14.942803937670151"><ele>1213.0</ele><time>2026-04-29T08:35:08Z</time></trkpt><trkpt lat="37.93200309181839" lon="14.942916160477434"><ele>1217.0</ele><time>2026-04-29T08:35:09Z</time></trkpt><trkpt lat="37.93194192808687" lon="14.943006443632102"><ele>1221.0</ele><time>2026-04-29T08:35:10Z</time></trkpt><trkpt lat="37.93187955912162" lon="14.943105931102428"><ele>1225.0</ele><time>2026-04-29T08:35:11Z</time></trkpt><trkpt lat="37.93180856283116" lon="14.943220855592271"><ele>1225.0</ele><time>2026-04-29T08:35:12Z</time></trkpt><trkpt lat="37.93176456383314" lon="14.943325045945851"><ele>1225.0</ele><time>2026-04-29T08:35:13Z</time></trkpt><trkpt lat="37.93171124425465" lon="14.9434013410586"><ele>1225.0</ele><time>2026-04-29T08:35:14Z</time></trkpt><trkpt lat="37.93163560449163" lon="14.943470894626607"><ele>1225.0</ele><time>2026-04-29T08:35:15Z</time></trkpt><trkpt lat="37.931533047348914" lon="14.943529688076056"><ele>1225.0</ele><time>2026-04-29T08:35:16Z</time></trkpt><trkpt lat="37.93139808850613" lon="14.943592575247395"><ele>1224.5</ele><time>2026-04-29T08:35:17Z</time></trkpt><trkpt lat="37.93128610576828" lon="14.943666849271143"><ele>1224.0</ele><time>2026-04-29T08:35:18Z</time></trkpt><trkpt lat="37.93113624505411" lon="14.943703521018532"><ele>1223.5</ele><time>2026-04-29T08:35:19Z</time></trkpt><trkpt lat="37.931006573667496" lon="14.94375796451824"><ele>1223.0</ele><time>2026-04-29T08:35:20Z</time></trkpt><trkpt lat="37.9309120995288" lon="14.943814816903652"><ele>1222.1666666666667</ele><time>2026-04-29T08:35:21Z</time></trkpt><trkpt lat="37.93083907480467" lon="14.943855000343008"><ele>1221.3333333333335</ele><time>2026-04-29T08:35:22.001Z</time></trkpt><trkpt lat="37.930776731225095" lon="14.943871621783334"><ele>1220.5</ele><time>2026-04-29T08:35:23.001Z</time></trkpt><trkpt lat="37.93070491060073" lon="14.943856439051658"><ele>1219.6666666666667</ele><time>2026-04-29T08:35:24.001Z</time></trkpt><trkpt lat="37.93060395085425" lon="14.943807908438574"><ele>1218.8333333333333</ele><time>2026-04-29T08:35:25.001Z</time></trkpt><trkpt lat="37.930540410841125" lon="14.943759873017234"><ele>1218.0</ele><time>2026-04-29T08:35:26.001Z</time></trkpt><trkpt lat="37.93047856549598" lon="14.943722881457573"><ele>1218.0</ele><time>2026-04-29T08:35:27.001Z</time></trkpt><trkpt lat="37.93041730075095" lon="14.943748136306263"><ele>1218.0</ele><time>2026-04-29T08:35:28.001Z</time></trkpt><trkpt lat="37.93034302973669" lon="14.943792895379023"><ele>1218.0</ele><time>2026-04-29T08:35:29.001Z</time></trkpt><trkpt lat="37.930280791505204" lon="14.943846197030165"><ele>1218.0</ele><time>2026-04-29T08:35:30.001Z</time></trkpt><trkpt lat="37.93023234759784" lon="14.943910446461965"><ele>1218.0</ele><time>2026-04-29T08:35:31.001Z</time></trkpt><trkpt lat="37.93018615486842" lon="14.943999807689544"><ele>1218.0</ele><time>2026-04-29T08:35:32.001Z</time></trkpt><trkpt lat="37.93014714755343" lon="14.944093935574568"><ele>1218.0</ele><time>2026-04-29T08:35:33.001Z</time></trkpt><trkpt lat="37.93011134806391" lon="14.944187989429599"><ele>1218.0</ele><time>2026-04-29T08:35:34.001Z</time></trkpt><trkpt lat="37.930065697695234" lon="14.94429785585627"><ele>1218.0</ele><time>2026-04-29T08:35:35.001Z</time></trkpt><trkpt lat="37.930044699451365" lon="14.944396484471486"><ele>1218.0</ele><time>2026-04-29T08:35:36Z</time></trkpt><trkpt lat="37.93002897406514" lon="14.9444858827406"><ele>1218.0</ele><time>2026-04-29T08:35:37Z</time></trkpt><trkpt lat="37.930010647191" lon="14.94456531253468"><ele>1218.0</ele><time>2026-04-29T08:35:38Z</time></trkpt><trkpt lat="37.929971621741885" lon="14.944640547169536"><ele>1220.6</ele><time>2026-04-29T08:35:39Z</time></trkpt><trkpt lat="37.92990605925885" lon="14.944731341817638"><ele>1223.1999999999998</ele><time>2026-04-29T08:35:40Z</time></trkpt><trkpt lat="37.92982478650852" lon="14.944826714846249"><ele>1225.8</ele><time>2026-04-29T08:35:41Z</time></trkpt><trkpt lat="37.92974850619723" lon="14.94491105108438"><ele>1228.3999999999999</ele><time>2026-04-29T08:35:42Z</time></trkpt><trkpt lat="37.929647467563306" lon="14.945004885029455"><ele>1231.0</ele><time>2026-04-29T08:35:43Z</time></trkpt><trkpt lat="37.92955435984945" lon="14.945115883268967"><ele>1234.2</ele><time>2026-04-29T08:35:44Z</time></trkpt><trkpt lat="37.9294944558764" lon="14.945183871028394"><ele>1237.3999999999999</ele><time>2026-04-29T08:35:45Z</time></trkpt><trkpt lat="37.9294491847953" lon="14.94525871095196"><ele>1240.6</ele><time>2026-04-29T08:35:46Z</time></trkpt><trkpt lat="37.92941375230192" lon="14.945378073343925"><ele>1243.8</ele><time>2026-04-29T08:35:47Z</time></trkpt><trkpt lat="37.92936930624174" lon="14.94551063468823"><ele>1247.0</ele><time>2026-04-29T08:35:48Z</time></trkpt><trkpt lat="37.929305882764496" lon="14.945623099904155"><ele>1246.25</ele><time>2026-04-29T08:35:49Z</time></trkpt><trkpt lat="37.92921556385393" lon="14.945742603066124"><ele>1245.5</ele><time>2026-04-29T08:35:50Z</time></trkpt><trkpt lat="37.92912984518655" lon="14.945863814227458"><ele>1244.75</ele><time>2026-04-29T08:35:51Z</time></trkpt><trkpt lat="37.929037863764414" lon="14.945984902814189"><ele>1244.0</ele><time>2026-04-29T08:35:52Z</time></trkpt><trkpt lat="37.92894676988051" lon="14.946086705655121"><ele>1244.0</ele><time>2026-04-29T08:35:53Z</time></trkpt><trkpt lat="37.928823105399985" lon="14.946153936094"><ele>1244.0</ele><time>2026-04-29T08:35:54Z</time></trkpt><trkpt lat="37.928686341451396" lon="14.946218251940218"><ele>1244.0</ele><time>2026-04-29T08:35:55Z</time></trkpt><trkpt lat="37.92854483584121" lon="14.94628286634125"><ele>1244.0</ele><time>2026-04-29T08:35:56Z</time></trkpt><trkpt lat="37.92841170790821" lon="14.946346326585198"><ele>1240.5</ele><time>2026-04-29T08:35:57Z</time></trkpt><trkpt lat="37.92828594021312" lon="14.946395460377332"><ele>1237.0</ele><time>2026-04-29T08:35:58Z</time></trkpt><trkpt lat="37.92815124665153" lon="14.946429913471796"><ele>1233.5</ele><time>2026-04-29T08:35:59Z</time></trkpt><trkpt lat="37.92804423377204" lon="14.946450098595072"><ele>1230.0</ele><time>2026-04-29T08:36:00Z</time></trkpt><trkpt lat="37.92794389610339" lon="14.946465107448986"><ele>1230.0</ele><time>2026-04-29T08:36:01Z</time></trkpt><trkpt lat="37.92783519746565" lon="14.946462913320733"><ele>1230.0</ele><time>2026-04-29T08:36:02Z</time></trkpt><trkpt lat="37.92769930620976" lon="14.946434778560622"><ele>1230.0</ele><time>2026-04-29T08:36:03Z</time></trkpt><trkpt lat="37.927575502643506" lon="14.946383057131124"><ele>1230.0</ele><time>2026-04-29T08:36:04Z</time></trkpt><trkpt lat="37.927447293226976" lon="14.946344720595"><ele>1230.4</ele><time>2026-04-29T08:36:05Z</time></trkpt><trkpt lat="37.927337885278284" lon="14.946313308485825"><ele>1230.8</ele><time>2026-04-29T08:36:06Z</time></trkpt><trkpt lat="37.92726091113005" lon="14.946307675790202"><ele>1231.2</ele><time>2026-04-29T08:36:07Z</time></trkpt><trkpt lat="37.927153214858514" lon="14.946396758202082"><ele>1231.6</ele><time>2026-04-29T08:36:09Z</time></trkpt><trkpt lat="37.92708588024228" lon="14.946493324103404"><ele>1232.0</ele><time>2026-04-29T08:36:10Z</time></trkpt><trkpt lat="37.92699439720555" lon="14.946622752906006"><ele>1233.25</ele><time>2026-04-29T08:36:11Z</time></trkpt><trkpt lat="37.926876436950906" lon="14.946732583874569"><ele>1234.5</ele><time>2026-04-29T08:36:12Z</time></trkpt><trkpt lat="37.92674244175572" lon="14.946839695215132"><ele>1235.75</ele><time>2026-04-29T08:36:13Z</time></trkpt><trkpt lat="37.926623661476945" lon="14.946942496012792"><ele>1237.0</ele><time>2026-04-29T08:36:14Z</time></trkpt><trkpt lat="37.92649987769786" lon="14.947071544898717"><ele>1237.0</ele><time>2026-04-29T08:36:15Z</time></trkpt><trkpt lat="37.92638821382893" lon="14.947225134641794"><ele>1237.0</ele><time>2026-04-29T08:36:16Z</time></trkpt><trkpt lat="37.926286602815786" lon="14.947367830327469"><ele>1237.0</ele><time>2026-04-29T08:36:17Z</time></trkpt><trkpt lat="37.92616763030972" lon="14.947500489005726"><ele>1237.4</ele><time>2026-04-29T08:36:18Z</time></trkpt><trkpt lat="37.926041515758" lon="14.94761128395613"><ele>1237.8000000000002</ele><time>2026-04-29T08:36:19Z</time></trkpt><trkpt lat="37.92593111177523" lon="14.947698847649994"><ele>1238.2</ele><time>2026-04-29T08:36:20Z</time></trkpt><trkpt lat="37.92587868102292" lon="14.94775047643827"><ele>1238.6000000000001</ele><time>2026-04-29T08:36:21Z</time></trkpt><trkpt lat="37.925831073937466" lon="14.94783494099496"><ele>1239.0</ele><time>2026-04-29T08:36:22Z</time></trkpt><trkpt lat="37.92577180809767" lon="14.947963059628902"><ele>1239.0</ele><time>2026-04-29T08:36:23Z</time></trkpt><trkpt lat="37.925710098396586" lon="14.948118685359084"><ele>1239.0</ele><time>2026-04-29T08:36:24Z</time></trkpt><trkpt lat="37.92564251240316" lon="14.948279358416562"><ele>1239.0</ele><time>2026-04-29T08:36:25Z</time></trkpt><trkpt lat="37.92558196174297" lon="14.948425717170673"><ele>1239.0</ele><time>2026-04-29T08:36:26Z</time></trkpt><trkpt lat="37.92551728161616" lon="14.948534892928103"><ele>1241.5</ele><time>2026-04-29T08:36:27Z</time></trkpt><trkpt lat="37.92542397344062" lon="14.948643697099595"><ele>1244.0</ele><time>2026-04-29T08:36:28Z</time></trkpt><trkpt lat="37.9253269680122" lon="14.94874672054232"><ele>1246.5</ele><time>2026-04-29T08:36:29Z</time></trkpt><trkpt lat="37.92523687553438" lon="14.948857330585927"><ele>1249.0</ele><time>2026-04-29T08:36:30Z</time></trkpt><trkpt lat="37.9251415551237" lon="14.948992236772181"><ele>1249.0</ele><time>2026-04-29T08:36:31Z</time></trkpt><trkpt lat="37.925082333309184" lon="14.949081720461923"><ele>1249.0</ele><time>2026-04-29T08:36:32Z</time></trkpt><trkpt lat="37.924979983519144" lon="14.949091981271247"><ele>1249.0</ele><time>2026-04-29T08:36:35Z</time></trkpt><trkpt lat="37.924888522031445" lon="14.949056307701735"><ele>1249.0</ele><time>2026-04-29T08:36:36Z</time></trkpt><trkpt lat="37.924777310305366" lon="14.949028232862089"><ele>1249.0</ele><time>2026-04-29T08:36:37Z</time></trkpt><trkpt lat="37.924662989483224" lon="14.949032324934922"><ele>1246.75</ele><time>2026-04-29T08:36:38Z</time></trkpt><trkpt lat="37.924555404511764" lon="14.949068099241098"><ele>1244.5</ele><time>2026-04-29T08:36:39Z</time></trkpt><trkpt lat="37.92443737139694" lon="14.949148455989237"><ele>1242.25</ele><time>2026-04-29T08:36:40Z</time></trkpt><trkpt lat="37.92433029698147" lon="14.949200471004874"><ele>1240.0</ele><time>2026-04-29T08:36:41Z</time></trkpt><trkpt lat="37.9242336336049" lon="14.949206207435914"><ele>1240.4</ele><time>2026-04-29T08:36:42Z</time></trkpt><trkpt lat="37.9241427014493" lon="14.949189433761168"><ele>1240.8</ele><time>2026-04-29T08:36:43Z</time></trkpt><trkpt lat="37.92405815598866" lon="14.949195773079392"><ele>1241.2</ele><time>2026-04-29T08:36:44Z</time></trkpt><trkpt lat="37.92399394855005" lon="14.94924629552533"><ele>1241.6</ele><time>2026-04-29T08:36:45Z</time></trkpt><trkpt lat="37.923891513940234" lon="14.949317704907443"><ele>1242.0</ele><time>2026-04-29T08:36:46Z</time></trkpt><trkpt lat="37.923756768703846" lon="14.949372104896907"><ele>1244.75</ele><time>2026-04-29T08:36:47Z</time></trkpt><trkpt lat="37.92360790369914" lon="14.949406276470835"><ele>1247.5</ele><time>2026-04-29T08:36:48Z</time></trkpt><trkpt lat="37.9234754787476" lon="14.949433509147747"><ele>1250.25</ele><time>2026-04-29T08:36:49Z</time></trkpt><trkpt lat="37.923363145261256" lon="14.949476877459174"><ele>1253.0</ele><time>2026-04-29T08:36:50Z</time></trkpt><trkpt lat="37.92324385882446" lon="14.949531262242852"><ele>1253.0</ele><time>2026-04-29T08:36:51Z</time></trkpt><trkpt lat="37.92312775578249" lon="14.949595442947773"><ele>1253.0</ele><time>2026-04-29T08:36:52Z</time></trkpt><trkpt lat="37.92301419718435" lon="14.94965009902427"><ele>1253.0</ele><time>2026-04-29T08:36:53Z</time></trkpt><trkpt lat="37.92290432830257" lon="14.9497003555531"><ele>1253.0</ele><time>2026-04-29T08:36:54Z</time></trkpt><trkpt lat="37.92280371280194" lon="14.949741235478513"><ele>1253.0</ele><time>2026-04-29T08:36:55Z</time></trkpt><trkpt lat="37.92270130719044" lon="14.949786460748403"><ele>1253.0</ele><time>2026-04-29T08:36:56Z</time></trkpt><trkpt lat="37.922624401133746" lon="14.949839993617628"><ele>1253.0</ele><time>2026-04-29T08:36:57Z</time></trkpt><trkpt lat="37.92255586275578" lon="14.949897736242"><ele>1253.0</ele><time>2026-04-29T08:36:58Z</time></trkpt><trkpt lat="37.922475926383235" lon="14.949946878233442"><ele>1253.0</ele><time>2026-04-29T08:36:59Z</time></trkpt><trkpt lat="37.922395995572295" lon="14.949984521578843"><ele>1253.8</ele><time>2026-04-29T08:37:00Z</time></trkpt><trkpt lat="37.92235177243763" lon="14.950058392429128"><ele>1254.6</ele><time>2026-04-29T08:37:01Z</time></trkpt><trkpt lat="37.92230537607422" lon="14.950170093398928"><ele>1255.4</ele><time>2026-04-29T08:37:02Z</time></trkpt><trkpt lat="37.9222348064718" lon="14.95029345275993"><ele>1256.2</ele><time>2026-04-29T08:37:03Z</time></trkpt><trkpt lat="37.92214907026319" lon="14.950411049465885"><ele>1257.0</ele><time>2026-04-29T08:37:04Z</time></trkpt><trkpt lat="37.922049213594484" lon="14.950542542554118"><ele>1257.0</ele><time>2026-04-29T08:37:05Z</time></trkpt><trkpt lat="37.92194571710841" lon="14.95064793980176"><ele>1257.0</ele><time>2026-04-29T08:37:06Z</time></trkpt><trkpt lat="37.92186914196343" lon="14.950747363867904"><ele>1257.0</ele><time>2026-04-29T08:37:07Z</time></trkpt><trkpt lat="37.921809058955475" lon="14.950841691797764"><ele>1257.0</ele><time>2026-04-29T08:37:08Z</time></trkpt><trkpt lat="37.92176474772673" lon="14.950905335042666"><ele>1257.0</ele><time>2026-04-29T08:37:09Z</time></trkpt><trkpt lat="37.92169512114243" lon="14.950957833439643"><ele>1257.0</ele><time>2026-04-29T08:37:11Z</time></trkpt><trkpt lat="37.92162602287341" lon="14.950942583616053"><ele>1257.0</ele><time>2026-04-29T08:37:13Z</time></trkpt><trkpt lat="37.921603262208706" lon="14.950837997319898"><ele>1257.0</ele><time>2026-04-29T08:37:15Z</time></trkpt><trkpt lat="37.92163226343514" lon="14.950725525323294"><ele>1257.0</ele><time>2026-04-29T08:37:17Z</time></trkpt><trkpt lat="37.92166793350963" lon="14.950648701005573"><ele>1257.0</ele><time>2026-04-29T08:37:18Z</time></trkpt><trkpt lat="37.92171742884849" lon="14.950545138389366"><ele>1257.0</ele><time>2026-04-29T08:37:19Z</time></trkpt><trkpt lat="37.921778459336196" lon="14.950450835079431"><ele>1257.0</ele><time>2026-04-29T08:37:20Z</time></trkpt><trkpt lat="37.92183766346601" lon="14.950373618098013"><ele>1257.0</ele><time>2026-04-29T08:37:21Z</time></trkpt><trkpt lat="37.92188569236555" lon="14.950304223595753"><ele>1257.0</ele><time>2026-04-29T08:37:22Z</time></trkpt><trkpt lat="37.921916406445504" lon="14.950192851581383"><ele>1257.0</ele><time>2026-04-29T08:37:24Z</time></trkpt><trkpt lat="37.9219106977221" lon="14.950087590318248"><ele>1257.0</ele><time>2026-04-29T08:37:26Z</time></trkpt><trkpt lat="37.92183073606405" lon="14.950047054944305"><ele>1257.0</ele><time>2026-04-29T08:37:28.001Z</time></trkpt><trkpt lat="37.9216820890869" lon="14.950152499657365"><ele>1251.25</ele><time>2026-04-29T08:37:31.001Z</time></trkpt><trkpt lat="37.92154903045479" lon="14.95025963567892"><ele>1245.5</ele><time>2026-04-29T08:37:32.001Z</time></trkpt><trkpt lat="37.92141006350281" lon="14.950371576322052"><ele>1239.75</ele><time>2026-04-29T08:37:33.001Z</time></trkpt><trkpt lat="37.92131106951221" lon="14.950472436772618"><ele>1234.0</ele><time>2026-04-29T08:37:34.001Z</time></trkpt><trkpt lat="37.92122979512281" lon="14.950576767483213"><ele>1234.0</ele><time>2026-04-29T08:37:35.001Z</time></trkpt><trkpt lat="37.9211431875902" lon="14.95067246035893"><ele>1234.0</ele><time>2026-04-29T08:37:36.001Z</time></trkpt><trkpt lat="37.92104414447774" lon="14.950758988642587"><ele>1234.0</ele><time>2026-04-29T08:37:37.001Z</time></trkpt><trkpt lat="37.920935702876015" lon="14.950839537974707"><ele>1234.0</ele><time>2026-04-29T08:37:38.001Z</time></trkpt><trkpt lat="37.92083568440367" lon="14.950910329730801"><ele>1232.0</ele><time>2026-04-29T08:37:39Z</time></trkpt><trkpt lat="37.920762734922" lon="14.950952541558676"><ele>1230.0</ele><time>2026-04-29T08:37:40Z</time></trkpt><trkpt lat="37.92066011181266" lon="14.951017665054298"><ele>1228.0</ele><time>2026-04-29T08:37:42Z</time></trkpt><trkpt lat="37.920586886523196" lon="14.950999740003557"><ele>1226.0</ele><time>2026-04-29T08:37:44Z</time></trkpt><trkpt lat="37.920564159084186" lon="14.950888351455603"><ele>1224.0</ele><time>2026-04-29T08:37:48Z</time></trkpt><trkpt lat="37.92055003042399" lon="14.95076438014094"><ele>1222.8333333333333</ele><time>2026-04-29T08:37:51Z</time></trkpt><trkpt lat="37.92058961220351" lon="14.95068652301419"><ele>1221.6666666666667</ele><time>2026-04-29T08:37:52Z</time></trkpt><trkpt lat="37.92062052698418" lon="14.9505918998429"><ele>1220.5</ele><time>2026-04-29T08:37:53Z</time></trkpt><trkpt lat="37.9206654113368" lon="14.950509328492144"><ele>1219.3333333333335</ele><time>2026-04-29T08:37:54Z</time></trkpt><trkpt lat="37.920744802192644" lon="14.95043269404987"><ele>1218.1666666666667</ele><time>2026-04-29T08:37:55Z</time></trkpt><trkpt lat="37.92083476329929" lon="14.950344609663171"><ele>1217.0</ele><time>2026-04-29T08:37:56Z</time></trkpt><trkpt lat="37.92092944852805" lon="14.950270812982327"><ele>1217.6</ele><time>2026-04-29T08:37:57Z</time></trkpt><trkpt lat="37.921007600165666" lon="14.950191587010185"><ele>1218.2</ele><time>2026-04-29T08:37:58Z</time></trkpt><trkpt lat="37.92107160893791" lon="14.950087251775962"><ele>1218.8</ele><time>2026-04-29T08:37:59Z</time></trkpt><trkpt lat="37.92113047275161" lon="14.949994650067172"><ele>1219.4</ele><time>2026-04-29T08:38:00Z</time></trkpt><trkpt lat="37.9211886910332" lon="14.949913496423921"><ele>1220.0</ele><time>2026-04-29T08:38:01Z</time></trkpt><trkpt lat="37.921242649326366" lon="14.949828641319742"><ele>1220.0</ele><time>2026-04-29T08:38:02Z</time></trkpt><trkpt lat="37.92129870239825" lon="14.949743409008407"><ele>1220.0</ele><time>2026-04-29T08:38:03Z</time></trkpt><trkpt lat="37.92134658879996" lon="14.949653506716885"><ele>1220.0</ele><time>2026-04-29T08:38:04Z</time></trkpt><trkpt lat="37.92139366127003" lon="14.949566298108937"><ele>1220.0</ele><time>2026-04-29T08:38:05Z</time></trkpt><trkpt lat="37.921443289008685" lon="14.94947504302995"><ele>1220.0</ele><time>2026-04-29T08:38:06Z</time></trkpt><trkpt lat="37.92148115009684" lon="14.949361418192476"><ele>1220.0</ele><time>2026-04-29T08:38:07Z</time></trkpt><trkpt lat="37.921520897729074" lon="14.94924156541813"><ele>1216.4</ele><time>2026-04-29T08:38:08Z</time></trkpt><trkpt lat="37.92159136302507" lon="14.949126201123038"><ele>1212.8</ele><time>2026-04-29T08:38:09Z</time></trkpt><trkpt lat="37.92164243468939" lon="14.948992221641964"><ele>1209.2</ele><time>2026-04-29T08:38:10Z</time></trkpt><trkpt lat="37.921705567385054" lon="14.948899732386943"><ele>1205.6</ele><time>2026-04-29T08:38:11Z</time></trkpt><trkpt lat="37.921720062268264" lon="14.948797889447158"><ele>1202.0</ele><time>2026-04-29T08:38:12Z</time></trkpt><trkpt lat="37.921714716126765" lon="14.948675938863024"><ele>1202.0</ele><time>2026-04-29T08:38:13Z</time></trkpt><trkpt lat="37.92171300647441" lon="14.948528834850837"><ele>1202.0</ele><time>2026-04-29T08:38:14Z</time></trkpt><trkpt lat="37.921726959200996" lon="14.94838824361023"><ele>1202.0</ele><time>2026-04-29T08:38:15Z</time></trkpt><trkpt lat="37.92175092227091" lon="14.948262693237737"><ele>1202.0</ele><time>2026-04-29T08:38:16Z</time></trkpt><trkpt lat="37.921781966294716" lon="14.948156941429367"><ele>1202.0</ele><time>2026-04-29T08:38:17Z</time></trkpt><trkpt lat="37.92181872822393" lon="14.948059113810109"><ele>1204.4</ele><time>2026-04-29T08:38:18Z</time></trkpt><trkpt lat="37.92187606421609" lon="14.947957169850735"><ele>1206.8000000000002</ele><time>2026-04-29T08:38:19Z</time></trkpt><trkpt lat="37.92193538832271" lon="14.947860378969484"><ele>1209.2</ele><time>2026-04-29T08:38:20Z</time></trkpt><trkpt lat="37.92198502169208" lon="14.947758578102878"><ele>1211.6000000000001</ele><time>2026-04-29T08:38:21Z</time></trkpt><trkpt lat="37.92203850203386" lon="14.947662869524624"><ele>1214.0</ele><time>2026-04-29T08:38:22Z</time></trkpt><trkpt lat="37.9220845227328" lon="14.94755917619196"><ele>1211.0</ele><time>2026-04-29T08:38:23Z</time></trkpt><trkpt lat="37.9221254119865" lon="14.947457304395991"><ele>1208.0</ele><time>2026-04-29T08:38:24Z</time></trkpt><trkpt lat="37.92216327360177" lon="14.947357083356867"><ele>1205.0</ele><time>2026-04-29T08:38:25Z</time></trkpt><trkpt lat="37.92220712872255" lon="14.94725991742936"><ele>1202.0</ele><time>2026-04-29T08:38:26Z</time></trkpt><trkpt lat="37.92225562608776" lon="14.947162560021663"><ele>1199.0</ele><time>2026-04-29T08:38:27Z</time></trkpt><trkpt lat="37.922313847570244" lon="14.94708611397608"><ele>1196.0</ele><time>2026-04-29T08:38:28Z</time></trkpt><trkpt lat="37.92238753874243" lon="14.947021336778256"><ele>1196.0</ele><time>2026-04-29T08:38:29Z</time></trkpt><trkpt lat="37.92248104112961" lon="14.946962837143715"><ele>1196.0</ele><time>2026-04-29T08:38:30Z</time></trkpt><trkpt lat="37.922569782070234" lon="14.94691004377194"><ele>1196.0</ele><time>2026-04-29T08:38:31Z</time></trkpt><trkpt lat="37.92264326729359" lon="14.946868400679664"><ele>1196.0</ele><time>2026-04-29T08:38:32Z</time></trkpt><trkpt lat="37.92274501273161" lon="14.946826796594944"><ele>1196.0</ele><time>2026-04-29T08:38:34Z</time></trkpt><trkpt lat="37.92287676092187" lon="14.946850055379336"><ele>1196.6</ele><time>2026-04-29T08:38:36Z</time></trkpt><trkpt lat="37.92296890540336" lon="14.946903856473904"><ele>1197.1999999999998</ele><time>2026-04-29T08:38:37Z</time></trkpt><trkpt lat="37.923060416384345" lon="14.946940055393776"><ele>1197.8000000000002</ele><time>2026-04-29T08:38:38Z</time></trkpt><trkpt lat="37.92315407299644" lon="14.946949363533042"><ele>1198.4</ele><time>2026-04-29T08:38:39Z</time></trkpt><trkpt lat="37.92324523438652" lon="14.946957593541056"><ele>1199.0</ele><time>2026-04-29T08:38:40Z</time></trkpt><trkpt lat="37.92334227580895" lon="14.946966606803581"><ele>1198.1666666666667</ele><time>2026-04-29T08:38:41Z</time></trkpt><trkpt lat="37.923421442139684" lon="14.94698520231822"><ele>1197.3333333333335</ele><time>2026-04-29T08:38:42Z</time></trkpt><trkpt lat="37.92349331299845" lon="14.947017176932247"><ele>1196.5</ele><time>2026-04-29T08:38:43Z</time></trkpt><trkpt lat="37.92358450952754" lon="14.94704455975104"><ele>1195.6666666666667</ele><time>2026-04-29T08:38:45Z</time></trkpt><trkpt lat="37.923618599716555" lon="14.946919803908226"><ele>1194.8333333333333</ele><time>2026-04-29T08:38:47Z</time></trkpt><trkpt lat="37.92358232575216" lon="14.946828700734455"><ele>1194.0</ele><time>2026-04-29T08:38:48Z</time></trkpt><trkpt lat="37.923516580429336" lon="14.946720209268632"><ele>1191.1666666666667</ele><time>2026-04-29T08:38:49Z</time></trkpt><trkpt lat="37.92346278406437" lon="14.946611887440941"><ele>1188.3333333333333</ele><time>2026-04-29T08:38:50Z</time></trkpt><trkpt lat="37.92342900687272" lon="14.946524983844569"><ele>1185.5</ele><time>2026-04-29T08:38:51Z</time></trkpt><trkpt lat="37.92338971698271" lon="14.946404268932419"><ele>1182.6666666666665</ele><time>2026-04-29T08:38:52Z</time></trkpt><trkpt lat="37.923342933858954" lon="14.946326666934407"><ele>1179.8333333333333</ele><time>2026-04-29T08:38:53Z</time></trkpt><trkpt lat="37.92329367055561" lon="14.94626480730028"><ele>1177.0</ele><time>2026-04-29T08:38:54Z</time></trkpt><trkpt lat="37.92324639069636" lon="14.946209581957504"><ele>1177.0</ele><time>2026-04-29T08:38:55Z</time></trkpt><trkpt lat="37.923253560055564" lon="14.946105610048392"><ele>1177.0</ele><time>2026-04-29T08:38:57Z</time></trkpt><trkpt lat="37.92330727593896" lon="14.946050584346033"><ele>1177.0</ele><time>2026-04-29T08:38:58Z</time></trkpt><trkpt lat="37.923432299376984" lon="14.94603832898611"><ele>1177.0</ele><time>2026-04-29T08:39:00Z</time></trkpt><trkpt lat="37.923511837716966" lon="14.946064536220698"><ele>1177.0</ele><time>2026-04-29T08:39:01Z</time></trkpt><trkpt lat="37.92359205576845" lon="14.946082552277895"><ele>1177.0</ele><time>2026-04-29T08:39:02Z</time></trkpt><trkpt lat="37.92366663362438" lon="14.946082934078255"><ele>1176.6666666666665</ele><time>2026-04-29T08:39:03Z</time></trkpt><trkpt lat="37.9237361570739" lon="14.946068302941303"><ele>1176.3333333333333</ele><time>2026-04-29T08:39:04Z</time></trkpt><trkpt lat="37.92384979812851" lon="14.94606778445395"><ele>1176.0</ele><time>2026-04-29T08:39:06Z</time></trkpt><trkpt lat="37.92394260880053" lon="14.946008602640893"><ele>1175.6666666666667</ele><time>2026-04-29T08:39:08Z</time></trkpt><trkpt lat="37.92395830166592" lon="14.945929348072477"><ele>1175.3333333333335</ele><time>2026-04-29T08:39:09Z</time></trkpt><trkpt lat="37.923944379693445" lon="14.945848451298055"><ele>1175.0</ele><time>2026-04-29T08:39:10Z</time></trkpt><trkpt lat="37.92388108297361" lon="14.945705379762275"><ele>1171.0</ele><time>2026-04-29T08:39:12Z</time></trkpt><trkpt lat="37.923826369167365" lon="14.945658394123662"><ele>1167.0</ele><time>2026-04-29T08:39:13Z</time></trkpt><trkpt lat="37.923692179210235" lon="14.945620400751883"><ele>1163.0</ele><time>2026-04-29T08:39:15Z</time></trkpt><trkpt lat="37.92368228120855" lon="14.945460227770038"><ele>1159.0</ele><time>2026-04-29T08:39:18Z</time></trkpt><trkpt lat="37.92372229338793" lon="14.945388097948829"><ele>1155.0</ele><time>2026-04-29T08:39:19Z</time></trkpt><trkpt lat="37.92379244445648" lon="14.945315748810916"><ele>1155.0</ele><time>2026-04-29T08:39:20Z</time></trkpt><trkpt lat="37.92386213550248" lon="14.945276456802375"><ele>1155.0</ele><time>2026-04-29T08:39:21Z</time></trkpt><trkpt lat="37.923944030143524" lon="14.94525723993545"><ele>1155.0</ele><time>2026-04-29T08:39:22Z</time></trkpt><trkpt lat="37.924031279671226" lon="14.945243984013807"><ele>1155.0</ele><time>2026-04-29T08:39:23Z</time></trkpt><trkpt lat="37.92410649268812" lon="14.945215620790124"><ele>1155.0</ele><time>2026-04-29T08:39:24Z</time></trkpt><trkpt lat="37.924196694863674" lon="14.945122964252265"><ele>1155.0</ele><time>2026-04-29T08:39:26Z</time></trkpt><trkpt lat="37.92423744257653" lon="14.945030374374406"><ele>1151.6</ele><time>2026-04-29T08:39:28Z</time></trkpt><trkpt lat="37.92420776877115" lon="14.944923700167848"><ele>1148.2</ele><time>2026-04-29T08:39:30Z</time></trkpt><trkpt lat="37.92409006496459" lon="14.944829821080754"><ele>1144.8</ele><time>2026-04-29T08:39:32Z</time></trkpt><trkpt lat="37.92402492205293" lon="14.94478052739893"><ele>1141.4</ele><time>2026-04-29T08:39:33Z</time></trkpt><trkpt lat="37.92394885787413" lon="14.94466436800162"><ele>1138.0</ele><time>2026-04-29T08:39:35.001Z</time></trkpt><trkpt lat="37.92394035802844" lon="14.944546149898237"><ele>1138.0</ele><time>2026-04-29T08:39:37.001Z</time></trkpt><trkpt lat="37.924010780318106" lon="14.944429188781442"><ele>1138.0</ele><time>2026-04-29T08:39:39.001Z</time></trkpt><trkpt lat="37.9241153225964" lon="14.944410158816364"><ele>1138.0</ele><time>2026-04-29T08:39:41.001Z</time></trkpt><trkpt lat="37.924171425807906" lon="14.944451048620753"><ele>1138.0</ele><time>2026-04-29T08:39:42.001Z</time></trkpt><trkpt lat="37.92422389123828" lon="14.944507434992817"><ele>1138.0</ele><time>2026-04-29T08:39:43.001Z</time></trkpt><trkpt lat="37.92427888123314" lon="14.944582675908133"><ele>1138.0</ele><time>2026-04-29T08:39:44.001Z</time></trkpt><trkpt lat="37.92438140333501" lon="14.94463453368395"><ele>1140.2</ele><time>2026-04-29T08:39:46.001Z</time></trkpt><trkpt lat="37.9244526770177" lon="14.944597427693951"><ele>1142.4</ele><time>2026-04-29T08:39:47.001Z</time></trkpt><trkpt lat="37.92452271571463" lon="14.944542233594548"><ele>1144.6000000000001</ele><time>2026-04-29T08:39:48.001Z</time></trkpt><trkpt lat="37.924601932318204" lon="14.9444361435143"><ele>1146.8</ele><time>2026-04-29T08:39:49.001Z</time></trkpt><trkpt lat="37.92467931422573" lon="14.94433294035676"><ele>1149.0</ele><time>2026-04-29T08:39:50Z</time></trkpt><trkpt lat="37.92475694078085" lon="14.944247355019867"><ele>1149.0</ele><time>2026-04-29T08:39:51Z</time></trkpt><trkpt lat="37.924833468216534" lon="14.94416498867446"><ele>1149.0</ele><time>2026-04-29T08:39:52Z</time></trkpt><trkpt lat="37.924907998654284" lon="14.944080736679828"><ele>1149.0</ele><time>2026-04-29T08:39:53Z</time></trkpt><trkpt lat="37.92498030334392" lon="14.943998095759937"><ele>1149.0</ele><time>2026-04-29T08:39:54Z</time></trkpt><trkpt lat="37.925049772396974" lon="14.943919374190983"><ele>1149.0</ele><time>2026-04-29T08:39:55Z</time></trkpt><trkpt lat="37.92510718133476" lon="14.943834677905931"><ele>1149.0</ele><time>2026-04-29T08:39:56Z</time></trkpt><trkpt lat="37.92515139092052" lon="14.943753021469293"><ele>1149.0</ele><time>2026-04-29T08:39:57Z</time></trkpt><trkpt lat="37.92516284628544" lon="14.94361897490917"><ele>1149.0</ele><time>2026-04-29T08:39:58Z</time></trkpt><trkpt lat="37.925185149675656" lon="14.943506028348546"><ele>1149.0</ele><time>2026-04-29T08:39:59Z</time></trkpt><trkpt lat="37.9252138012179" lon="14.943398884026937"><ele>1149.0</ele><time>2026-04-29T08:40:00Z</time></trkpt><trkpt lat="37.92526204557266" lon="14.943288614679183"><ele>1144.0</ele><time>2026-04-29T08:40:01Z</time></trkpt><trkpt lat="37.925351762573165" lon="14.943184535820185"><ele>1139.0</ele><time>2026-04-29T08:40:02Z</time></trkpt><trkpt lat="37.925425122669246" lon="14.943057556962968"><ele>1134.0</ele><time>2026-04-29T08:40:03Z</time></trkpt><trkpt lat="37.925475231091966" lon="14.942918128417219"><ele>1129.0</ele><time>2026-04-29T08:40:04Z</time></trkpt><trkpt lat="37.925531637399345" lon="14.942797320640407"><ele>1129.0</ele><time>2026-04-29T08:40:05Z</time></trkpt><trkpt lat="37.925574085345026" lon="14.942718742383734"><ele>1129.0</ele><time>2026-04-29T08:40:06Z</time></trkpt><trkpt lat="37.92562180454757" lon="14.942656039802008"><ele>1129.0</ele><time>2026-04-29T08:40:07Z</time></trkpt><trkpt lat="37.9256827966642" lon="14.942611078211767"><ele>1129.0</ele><time>2026-04-29T08:40:08Z</time></trkpt><trkpt lat="37.92576842625517" lon="14.942608896230544"><ele>1129.0</ele><time>2026-04-29T08:40:09Z</time></trkpt><trkpt lat="37.92586752979492" lon="14.942594960387666"><ele>1129.0</ele><time>2026-04-29T08:40:10Z</time></trkpt><trkpt lat="37.925954299812354" lon="14.942545409162436"><ele>1126.1666666666665</ele><time>2026-04-29T08:40:11Z</time></trkpt><trkpt lat="37.92604887626317" lon="14.94247388258891"><ele>1123.3333333333333</ele><time>2026-04-29T08:40:12Z</time></trkpt><trkpt lat="37.92613928417926" lon="14.942417593047024"><ele>1120.5</ele><time>2026-04-29T08:40:13Z</time></trkpt><trkpt lat="37.92620872291722" lon="14.942372164004185"><ele>1117.6666666666667</ele><time>2026-04-29T08:40:14Z</time></trkpt><trkpt lat="37.92626508280277" lon="14.942326650605706"><ele>1114.8333333333335</ele><time>2026-04-29T08:40:15Z</time></trkpt><trkpt lat="37.92633904044148" lon="14.942299893891423"><ele>1112.0</ele><time>2026-04-29T08:40:16Z</time></trkpt><trkpt lat="37.92642745197967" lon="14.942298507242565"><ele>1112.0</ele><time>2026-04-29T08:40:17Z</time></trkpt><trkpt lat="37.92654019467304" lon="14.942296137331772"><ele>1112.0</ele><time>2026-04-29T08:40:18Z</time></trkpt><trkpt lat="37.92664752839752" lon="14.942273606607937"><ele>1112.0</ele><time>2026-04-29T08:40:19Z</time></trkpt><trkpt lat="37.926741624129065" lon="14.942258032345926"><ele>1112.0</ele><time>2026-04-29T08:40:20Z</time></trkpt><trkpt lat="37.92682421157708" lon="14.942249862046767"><ele>1112.0</ele><time>2026-04-29T08:40:21Z</time></trkpt><trkpt lat="37.9269043014425" lon="14.942226843760213"><ele>1111.4</ele><time>2026-04-29T08:40:22Z</time></trkpt><trkpt lat="37.92699736537193" lon="14.942157146343623"><ele>1110.8000000000002</ele><time>2026-04-29T08:40:23Z</time></trkpt><trkpt lat="37.92708199887085" lon="14.942077304616797"><ele>1110.2</ele><time>2026-04-29T08:40:24Z</time></trkpt><trkpt lat="37.92717184928091" lon="14.94200769317327"><ele>1109.6000000000001</ele><time>2026-04-29T08:40:25Z</time></trkpt><trkpt lat="37.92727855360256" lon="14.941946239846816"><ele>1109.0</ele><time>2026-04-29T08:40:26Z</time></trkpt><trkpt lat="37.92737896985008" lon="14.941884638925629"><ele>1109.0</ele><time>2026-04-29T08:40:27Z</time></trkpt><trkpt lat="37.927475368254925" lon="14.941825613352648"><ele>1109.0</ele><time>2026-04-29T08:40:28Z</time></trkpt><trkpt lat="37.92756891076764" lon="14.941758931725401"><ele>1109.0</ele><time>2026-04-29T08:40:29Z</time></trkpt><trkpt lat="37.92765785148984" lon="14.941700007485466"><ele>1109.0</ele><time>2026-04-29T08:40:30Z</time></trkpt><trkpt lat="37.9277211402688" lon="14.941654999101148"><ele>1109.0</ele><time>2026-04-29T08:40:31Z</time></trkpt><trkpt lat="37.92776388902432" lon="14.941561167823508"><ele>1106.8</ele><time>2026-04-29T08:40:32Z</time></trkpt><trkpt lat="37.92778880111062" lon="14.941431741482376"><ele>1104.6000000000001</ele><time>2026-04-29T08:40:33Z</time></trkpt><trkpt lat="37.9278181557549" lon="14.941280201193445"><ele>1102.4</ele><time>2026-04-29T08:40:34Z</time></trkpt><trkpt lat="37.9278430578669" lon="14.941185859513116"><ele>1100.2</ele><time>2026-04-29T08:40:35Z</time></trkpt><trkpt lat="37.927830045648776" lon="14.941056752063359"><ele>1098.0</ele><time>2026-04-29T08:40:37Z</time></trkpt><trkpt lat="37.92776766585862" lon="14.940999858523737"><ele>1098.0</ele><time>2026-04-29T08:40:38Z</time></trkpt><trkpt lat="37.927695575823144" lon="14.940977165789267"><ele>1098.0</ele><time>2026-04-29T08:40:39Z</time></trkpt><trkpt lat="37.92762558546439" lon="14.940987400928055"><ele>1098.0</ele><time>2026-04-29T08:40:40Z</time></trkpt><trkpt lat="37.927555135288976" lon="14.940969229189108"><ele>1098.0</ele><time>2026-04-29T08:40:42Z</time></trkpt><trkpt lat="37.92752125115454" lon="14.940866690929706"><ele>1098.0</ele><time>2026-04-29T08:40:44Z</time></trkpt><trkpt lat="37.927554398470456" lon="14.940769883174566"><ele>1098.0</ele><time>2026-04-29T08:40:45Z</time></trkpt><trkpt lat="37.92759539542723" lon="14.940697241001194"><ele>1096.5</ele><time>2026-04-29T08:40:46Z</time></trkpt><trkpt lat="37.927647854466244" lon="14.940636782070008"><ele>1095.0</ele><time>2026-04-29T08:40:47Z</time></trkpt><trkpt lat="37.92772605498675" lon="14.940555172579975"><ele>1093.5</ele><time>2026-04-29T08:40:48Z</time></trkpt><trkpt lat="37.927803586137344" lon="14.940495890386638"><ele>1092.0</ele><time>2026-04-29T08:40:49Z</time></trkpt><trkpt lat="37.92786927158158" lon="14.940466276359897"><ele>1090.5</ele><time>2026-04-29T08:40:50Z</time></trkpt><trkpt lat="37.92794043122325" lon="14.940437765549872"><ele>1089.0</ele><time>2026-04-29T08:40:51Z</time></trkpt><trkpt lat="37.92800335510123" lon="14.940407652662037"><ele>1089.0</ele><time>2026-04-29T08:40:52Z</time></trkpt><trkpt lat="37.928089779802676" lon="14.940362755460802"><ele>1089.0</ele><time>2026-04-29T08:40:54Z</time></trkpt><trkpt lat="37.928150458861246" lon="14.940319237528472"><ele>1089.0</ele><time>2026-04-29T08:40:58Z</time></trkpt><trkpt lat="37.92820481962901" lon="14.940272909671112"><ele>1089.0</ele><time>2026-04-29T08:46:27Z</time></trkpt><trkpt lat="37.92827036498686" lon="14.940199502104026"><ele>1089.0</ele><time>2026-04-29T08:46:29Z</time></trkpt><trkpt lat="37.92820523222727" lon="14.940278448544625"><ele>1089.0</ele><time>2026-04-29T08:46:39Z</time></trkpt><trkpt lat="37.928148627409605" lon="14.940333734937083"><ele>1089.0</ele><time>2026-04-29T08:46:41Z</time></trkpt><trkpt lat="37.928029935056784" lon="14.940378137775763"><ele>1089.0</ele><time>2026-04-29T08:46:43Z</time></trkpt><trkpt lat="37.92793221259072" lon="14.940416961915737"><ele>1089.0</ele><time>2026-04-29T08:46:44Z</time></trkpt><trkpt lat="37.9278272087649" lon="14.940451545628365"><ele>1089.0</ele><time>2026-04-29T08:46:45Z</time></trkpt><trkpt lat="37.92775384187953" lon="14.940494825743349"><ele>1089.0</ele><time>2026-04-29T08:46:46Z</time></trkpt><trkpt lat="37.92765374792092" lon="14.940585642833195"><ele>1089.0</ele><time>2026-04-29T08:46:48Z</time></trkpt><trkpt lat="37.92761635025121" lon="14.940650560101846"><ele>1089.0</ele><time>2026-04-29T08:46:49Z</time></trkpt><trkpt lat="37.92756109103044" lon="14.940752223660857"><ele>1089.0</ele><time>2026-04-29T08:46:51Z</time></trkpt><trkpt lat="37.927527602722684" lon="14.9408593728378"><ele>1089.0</ele><time>2026-04-29T08:46:53Z</time></trkpt><trkpt lat="37.92753946574403" lon="14.9409387797102"><ele>1089.0</ele><time>2026-04-29T08:46:54Z</time></trkpt><trkpt lat="37.927619671134586" lon="14.941009906642487"><ele>1089.0</ele><time>2026-04-29T08:46:56Z</time></trkpt><trkpt lat="37.92774150410885" lon="14.941002726084145"><ele>1090.8</ele><time>2026-04-29T08:46:58Z</time></trkpt><trkpt lat="37.927832892126894" lon="14.941066000127474"><ele>1092.6000000000001</ele><time>2026-04-29T08:47:00Z</time></trkpt><trkpt lat="37.927854603440764" lon="14.94114537170387"><ele>1094.4</ele><time>2026-04-29T08:47:01Z</time></trkpt><trkpt lat="37.927848560920275" lon="14.941291345559906"><ele>1096.2</ele><time>2026-04-29T08:47:03Z</time></trkpt><trkpt lat="37.92781070153386" lon="14.941396348281394"><ele>1098.0</ele><time>2026-04-29T08:47:04Z</time></trkpt><trkpt lat="37.92777217375461" lon="14.941528884281903"><ele>1098.0</ele><time>2026-04-29T08:47:05Z</time></trkpt><trkpt lat="37.92774201930451" lon="14.941630926312007"><ele>1098.0</ele><time>2026-04-29T08:47:06Z</time></trkpt><trkpt lat="37.927710402365626" lon="14.94171328246456"><ele>1098.0</ele><time>2026-04-29T08:47:07Z</time></trkpt><trkpt lat="37.92766063823711" lon="14.941783463329823"><ele>1098.0</ele><time>2026-04-29T08:47:08Z</time></trkpt><trkpt lat="37.92757736293325" lon="14.941814341848161"><ele>1098.0</ele><time>2026-04-29T08:47:09Z</time></trkpt><trkpt lat="37.92746899302482" lon="14.941857109778697"><ele>1098.0</ele><time>2026-04-29T08:47:10Z</time></trkpt><trkpt lat="37.92735429177025" lon="14.941925797320566"><ele>1100.2</ele><time>2026-04-29T08:47:11Z</time></trkpt><trkpt lat="37.92724412218598" lon="14.941988072605602"><ele>1102.4</ele><time>2026-04-29T08:47:12Z</time></trkpt><trkpt lat="37.92716156809938" lon="14.942043067411191"><ele>1104.6000000000001</ele><time>2026-04-29T08:47:13Z</time></trkpt><trkpt lat="37.927101834664725" lon="14.942069764306485"><ele>1106.8</ele><time>2026-04-29T08:47:14Z</time></trkpt><trkpt lat="37.927025703273856" lon="14.942128997546913"><ele>1109.0</ele><time>2026-04-29T08:47:15Z</time></trkpt><trkpt lat="37.926939872393326" lon="14.94221121420404"><ele>1109.0</ele><time>2026-04-29T08:47:16Z</time></trkpt><trkpt lat="37.92685985914" lon="14.942261383821863"><ele>1109.0</ele><time>2026-04-29T08:47:17Z</time></trkpt><trkpt lat="37.926776352689984" lon="14.942277848867757"><ele>1109.0</ele><time>2026-04-29T08:47:18Z</time></trkpt><trkpt lat="37.9266747145911" lon="14.942277015525196"><ele>1109.0</ele><time>2026-04-29T08:47:19Z</time></trkpt><trkpt lat="37.926540462997444" lon="14.942287622153238"><ele>1109.0</ele><time>2026-04-29T08:47:20Z</time></trkpt><trkpt lat="37.92642044783631" lon="14.942301020497757"><ele>1109.5</ele><time>2026-04-29T08:47:21Z</time></trkpt><trkpt lat="37.926320336923844" lon="14.942289707192216"><ele>1110.0</ele><time>2026-04-29T08:47:22Z</time></trkpt><trkpt lat="37.92625823923397" lon="14.942313093124005"><ele>1110.5</ele><time>2026-04-29T08:47:23Z</time></trkpt><trkpt lat="37.92620126243678" lon="14.942347292714016"><ele>1111.0</ele><time>2026-04-29T08:47:24Z</time></trkpt><trkpt lat="37.92613944840068" lon="14.942398438668043"><ele>1111.5</ele><time>2026-04-29T08:47:25Z</time></trkpt><trkpt lat="37.92606642170518" lon="14.942457976398199"><ele>1112.0</ele><time>2026-04-29T08:47:26Z</time></trkpt><trkpt lat="37.92596978622985" lon="14.942521462728505"><ele>1115.4</ele><time>2026-04-29T08:47:27Z</time></trkpt><trkpt lat="37.92586576296815" lon="14.942584590060818"><ele>1118.8000000000002</ele><time>2026-04-29T08:47:28Z</time></trkpt><trkpt lat="37.92578490117444" lon="14.942630398541661"><ele>1122.2</ele><time>2026-04-29T08:47:29Z</time></trkpt><trkpt lat="37.92572167022252" lon="14.942637489018095"><ele>1125.6000000000001</ele><time>2026-04-29T08:47:30Z</time></trkpt><trkpt lat="37.92563417857414" lon="14.942640128121342"><ele>1129.0</ele><time>2026-04-29T08:47:32Z</time></trkpt><trkpt lat="37.92575072895951" lon="14.942599146162552"><ele>1129.0</ele><time>2026-04-29T08:47:42Z</time></trkpt><trkpt lat="37.925819258876686" lon="14.942584161932892"><ele>1129.0</ele><time>2026-04-29T08:47:43Z</time></trkpt><trkpt lat="37.92590544112636" lon="14.942535345145185"><ele>1129.0</ele><time>2026-04-29T08:47:44Z</time></trkpt><trkpt lat="37.92599744182981" lon="14.94248363172031"><ele>1129.0</ele><time>2026-04-29T08:47:45Z</time></trkpt><trkpt lat="37.926084792244346" lon="14.94242785173852"><ele>1129.0</ele><time>2026-04-29T08:47:46Z</time></trkpt><trkpt lat="37.92616713701011" lon="14.94237282502719"><ele>1126.1666666666665</ele><time>2026-04-29T08:47:47Z</time></trkpt><trkpt lat="37.926244695489345" lon="14.942323783923143"><ele>1123.3333333333333</ele><time>2026-04-29T08:47:48Z</time></trkpt><trkpt lat="37.92630630107125" lon="14.942290685124151"><ele>1120.5</ele><time>2026-04-29T08:47:49Z</time></trkpt><trkpt lat="37.926368977350386" lon="14.942281994966308"><ele>1117.6666666666667</ele><time>2026-04-29T08:47:50Z</time></trkpt><trkpt lat="37.926467527366505" lon="14.942277167687298"><ele>1114.8333333333335</ele><time>2026-04-29T08:47:51Z</time></trkpt><trkpt lat="37.92658230800377" lon="14.94227722912907"><ele>1112.0</ele><time>2026-04-29T08:47:52Z</time></trkpt><trkpt lat="37.92669707267426" lon="14.942255938058814"><ele>1111.4</ele><time>2026-04-29T08:47:53Z</time></trkpt><trkpt lat="37.92678755512692" lon="14.942238865523628"><ele>1110.8000000000002</ele><time>2026-04-29T08:47:54Z</time></trkpt><trkpt lat="37.926878272902826" lon="14.942231424153048"><ele>1110.2</ele><time>2026-04-29T08:47:55Z</time></trkpt><trkpt lat="37.92695478914695" lon="14.942203877229568"><ele>1109.6000000000001</ele><time>2026-04-29T08:47:56Z</time></trkpt><trkpt lat="37.92703578211434" lon="14.942141836672413"><ele>1109.0</ele><time>2026-04-29T08:47:57Z</time></trkpt><trkpt lat="37.92714191136432" lon="14.942031779387039"><ele>1109.0</ele><time>2026-04-29T08:47:58Z</time></trkpt><trkpt lat="37.92724186932305" lon="14.941970262853838"><ele>1109.0</ele><time>2026-04-29T08:47:59Z</time></trkpt><trkpt lat="37.927352673996715" lon="14.94190694781192"><ele>1109.0</ele><time>2026-04-29T08:48:00Z</time></trkpt><trkpt lat="37.92746344129133" lon="14.94184165463815"><ele>1109.0</ele><time>2026-04-29T08:48:01Z</time></trkpt><trkpt lat="37.927578613299474" lon="14.941773189415342"><ele>1109.5</ele><time>2026-04-29T08:48:02Z</time></trkpt><trkpt lat="37.92765725300035" lon="14.941730622613061"><ele>1110.0</ele><time>2026-04-29T08:48:03Z</time></trkpt><trkpt lat="37.92774939208115" lon="14.941582806991034"><ele>1110.5</ele><time>2026-04-29T08:48:05Z</time></trkpt><trkpt lat="37.927790207915784" lon="14.941449017131896"><ele>1111.0</ele><time>2026-04-29T08:48:06Z</time></trkpt><trkpt lat="37.92781866567603" lon="14.941301233374285"><ele>1108.3999999999999</ele><time>2026-04-29T08:48:07Z</time></trkpt><trkpt lat="37.92783453112372" lon="14.941199118328072"><ele>1105.8</ele><time>2026-04-29T08:48:08Z</time></trkpt><trkpt lat="37.92781897986914" lon="14.941057415290917"><ele>1103.1999999999998</ele><time>2026-04-29T08:48:10Z</time></trkpt><trkpt lat="37.927705387757264" lon="14.940994942060833"><ele>1100.6</ele><time>2026-04-29T08:48:12Z</time></trkpt><trkpt lat="37.927640115351984" lon="14.940994344786436"><ele>1098.0</ele><time>2026-04-29T08:48:13Z</time></trkpt><trkpt lat="37.92756126899691" lon="14.940959395054389"><ele>1096.5</ele><time>2026-04-29T08:48:15Z</time></trkpt><trkpt lat="37.92753055138303" lon="14.940850941601402"><ele>1095.0</ele><time>2026-04-29T08:48:17Z</time></trkpt><trkpt lat="37.9275735572791" lon="14.940748086739704"><ele>1093.5</ele><time>2026-04-29T08:48:18Z</time></trkpt><trkpt lat="37.92761216659958" lon="14.940680567377134"><ele>1092.0</ele><time>2026-04-29T08:48:19Z</time></trkpt><trkpt lat="37.927669185671455" lon="14.940620335017725"><ele>1090.5</ele><time>2026-04-29T08:48:20Z</time></trkpt><trkpt lat="37.92774852911782" lon="14.940542484511958"><ele>1089.0</ele><time>2026-04-29T08:48:21Z</time></trkpt><trkpt lat="37.92782372402161" lon="14.940485834324416"><ele>1089.0</ele><time>2026-04-29T08:48:22Z</time></trkpt><trkpt lat="37.92791113357932" lon="14.940451238579305"><ele>1089.0</ele><time>2026-04-29T08:48:23Z</time></trkpt><trkpt lat="37.92799792137331" lon="14.940417277285512"><ele>1089.0</ele><time>2026-04-29T08:48:24Z</time></trkpt><trkpt lat="37.92806688253858" lon="14.940387028746123"><ele>1089.0</ele><time>2026-04-29T08:48:25Z</time></trkpt><trkpt lat="37.92814596646736" lon="14.94034088781945"><ele>1089.0</ele><time>2026-04-29T08:48:27Z</time></trkpt><trkpt lat="37.92820908127745" lon="14.940285809069128"><ele>1089.0</ele><time>2026-04-29T08:48:30Z</time></trkpt><trkpt lat="37.928279757657016" lon="14.940214315278668"><ele>1089.0</ele><time>2026-04-29T08:48:32Z</time></trkpt><trkpt lat="37.92830656020253" lon="14.940124291388063"><ele>1089.0</ele><time>2026-04-29T08:48:35Z</time></trkpt><trkpt lat="37.92827042724892" lon="14.940048247974138"><ele>1089.0</ele><time>2026-04-29T08:48:39Z</time></trkpt><trkpt lat="37.928201505108454" lon="14.940016194172166"><ele>1089.0</ele><time>2026-04-29T08:48:41Z</time></trkpt><trkpt lat="37.92812748483237" lon="14.939981489738862"><ele>1089.0</ele><time>2026-04-29T08:48:42Z</time></trkpt><trkpt lat="37.928056904677575" lon="14.939963767778066"><ele>1089.0</ele><time>2026-04-29T08:48:43Z</time></trkpt><trkpt lat="37.927974280534336" lon="14.93977938703223"><ele>1088.1666666666667</ele><time>2026-04-29T08:48:44Z</time></trkpt><trkpt lat="37.92789604674883" lon="14.939783667624736"><ele>1087.3333333333333</ele><time>2026-04-29T08:48:45Z</time></trkpt><trkpt lat="37.92781524729721" lon="14.939786245310952"><ele>1086.5</ele><time>2026-04-29T08:48:46Z</time></trkpt><trkpt lat="37.92772208601653" lon="14.93978921736867"><ele>1085.6666666666665</ele><time>2026-04-29T08:48:47Z</time></trkpt><trkpt lat="37.92762920795128" lon="14.939794116821295"><ele>1084.8333333333333</ele><time>2026-04-29T08:48:48Z</time></trkpt><trkpt lat="37.92753782695423" lon="14.939801813950647"><ele>1084.0</ele><time>2026-04-29T08:48:49Z</time></trkpt><trkpt lat="37.92744370583874" lon="14.93981338779431"><ele>1081.2</ele><time>2026-04-29T08:48:50Z</time></trkpt><trkpt lat="37.92734774843913" lon="14.93984287402714"><ele>1078.4</ele><time>2026-04-29T08:48:51Z</time></trkpt><trkpt lat="37.9272494146192" lon="14.939904385689918"><ele>1075.6</ele><time>2026-04-29T08:48:52Z</time></trkpt><trkpt lat="37.927174322877526" lon="14.939967351404857"><ele>1072.8</ele><time>2026-04-29T08:48:53Z</time></trkpt><trkpt lat="37.927091745970465" lon="14.93999838838467"><ele>1070.0</ele><time>2026-04-29T08:48:54Z</time></trkpt><trkpt lat="37.92700114533486" lon="14.940015631151436"><ele>1070.2</ele><time>2026-04-29T08:48:55Z</time></trkpt><trkpt lat="37.926919592834096" lon="14.940050868270475"><ele>1070.4</ele><time>2026-04-29T08:48:56Z</time></trkpt><trkpt lat="37.92683463349803" lon="14.940058167324679"><ele>1070.6</ele><time>2026-04-29T08:48:57Z</time></trkpt><trkpt lat="37.92676391786077" lon="14.940076328101664"><ele>1070.8</ele><time>2026-04-29T08:48:58Z</time></trkpt><trkpt lat="37.92665436267685" lon="14.94007975885002"><ele>1071.0</ele><time>2026-04-29T08:49:00Z</time></trkpt><trkpt lat="37.92654747119455" lon="14.940118749908812"><ele>1071.0</ele><time>2026-04-29T08:49:02Z</time></trkpt><trkpt lat="37.92644508389452" lon="14.94016383382762"><ele>1071.0</ele><time>2026-04-29T08:49:04Z</time></trkpt><trkpt lat="37.92636818982089" lon="14.940268199119688"><ele>1071.0</ele><time>2026-04-29T08:49:06Z</time></trkpt><trkpt lat="37.926281968109954" lon="14.940360586797054"><ele>1071.0</ele><time>2026-04-29T08:49:08Z</time></trkpt><trkpt lat="37.926178029805094" lon="14.940409875387285"><ele>1071.0</ele><time>2026-04-29T08:49:10Z</time></trkpt><trkpt lat="37.92607816505441" lon="14.94047442540097"><ele>1071.0</ele><time>2026-04-29T08:49:12Z</time></trkpt><trkpt lat="37.925987547888646" lon="14.940549001669458"><ele>1071.0</ele><time>2026-04-29T08:49:14Z</time></trkpt><trkpt lat="37.9259111815049" lon="14.94059419693624"><ele>1071.0</ele><time>2026-04-29T08:49:15Z</time></trkpt><trkpt lat="37.92580415857358" lon="14.94065785684824"><ele>1071.0</ele><time>2026-04-29T08:49:16Z</time></trkpt><trkpt lat="37.925709031248346" lon="14.940723067519084"><ele>1071.0</ele><time>2026-04-29T08:49:17Z</time></trkpt><trkpt lat="37.92562796743344" lon="14.94076450264583"><ele>1068.8</ele><time>2026-04-29T08:49:18Z</time></trkpt><trkpt lat="37.92552832568528" lon="14.94078183630048"><ele>1066.6</ele><time>2026-04-29T08:49:19Z</time></trkpt><trkpt lat="37.92542897209906" lon="14.94077182070512"><ele>1064.4</ele><time>2026-04-29T08:49:20Z</time></trkpt><trkpt lat="37.92532005501251" lon="14.94074680436746"><ele>1062.2</ele><time>2026-04-29T08:49:21Z</time></trkpt><trkpt lat="37.925204724827715" lon="14.940719457425713"><ele>1060.0</ele><time>2026-04-29T08:49:22Z</time></trkpt><trkpt lat="37.9250994612635" lon="14.940708769788014"><ele>1060.8</ele><time>2026-04-29T08:49:23Z</time></trkpt><trkpt lat="37.92502493753446" lon="14.940707861389765"><ele>1061.6</ele><time>2026-04-29T08:49:24Z</time></trkpt><trkpt lat="37.9249558190759" lon="14.940731555518363"><ele>1062.4</ele><time>2026-04-29T08:49:25Z</time></trkpt><trkpt lat="37.92488706858211" lon="14.94082438463464"><ele>1063.2</ele><time>2026-04-29T08:49:26Z</time></trkpt><trkpt lat="37.92483599557552" lon="14.940965001503653"><ele>1064.0</ele><time>2026-04-29T08:49:27Z</time></trkpt><trkpt lat="37.92477189986152" lon="14.94109916530588"><ele>1064.0</ele><time>2026-04-29T08:49:28Z</time></trkpt><trkpt lat="37.9247015534352" lon="14.941232105921435"><ele>1064.0</ele><time>2026-04-29T08:49:29Z</time></trkpt><trkpt lat="37.92463734448062" lon="14.941361388493785"><ele>1064.0</ele><time>2026-04-29T08:49:30Z</time></trkpt><trkpt lat="37.924575716303245" lon="14.941479163052087"><ele>1064.0</ele><time>2026-04-29T08:49:31Z</time></trkpt><trkpt lat="37.92451634718644" lon="14.941560392706029"><ele>1064.0</ele><time>2026-04-29T08:49:32Z</time></trkpt><trkpt lat="37.92442476919283" lon="14.94160653192244"><ele>1064.0</ele><time>2026-04-29T08:49:34Z</time></trkpt><trkpt lat="37.924353828272764" lon="14.94156808341313"><ele>1064.0</ele><time>2026-04-29T08:49:35Z</time></trkpt><trkpt lat="37.92423772469726" lon="14.941526221469214"><ele>1064.0</ele><time>2026-04-29T08:49:36Z</time></trkpt><trkpt lat="37.92410656508356" lon="14.941488945684513"><ele>1064.0</ele><time>2026-04-29T08:49:37Z</time></trkpt><trkpt lat="37.92400289335991" lon="14.941410390035417"><ele>1061.0</ele><time>2026-04-29T08:49:38Z</time></trkpt><trkpt lat="37.92390563980665" lon="14.941353403615306"><ele>1058.0</ele><time>2026-04-29T08:49:39Z</time></trkpt><trkpt lat="37.92382110963976" lon="14.941302765731935"><ele>1055.0</ele><time>2026-04-29T08:49:40Z</time></trkpt><trkpt lat="37.92374133199184" lon="14.94125497484399"><ele>1052.0</ele><time>2026-04-29T08:49:41Z</time></trkpt><trkpt lat="37.92365403184158" lon="14.941205700963579"><ele>1049.0</ele><time>2026-04-29T08:49:42Z</time></trkpt><trkpt lat="37.923561521339" lon="14.941198222859336"><ele>1049.0</ele><time>2026-04-29T08:49:43Z</time></trkpt><trkpt lat="37.923485356113254" lon="14.941208108006041"><ele>1049.0</ele><time>2026-04-29T08:49:44Z</time></trkpt><trkpt lat="37.923389379303075" lon="14.941240726008044"><ele>1049.0</ele><time>2026-04-29T08:49:45Z</time></trkpt><trkpt lat="37.9232888863359" lon="14.941306970299603"><ele>1049.0</ele><time>2026-04-29T08:49:46Z</time></trkpt><trkpt lat="37.9231851894399" lon="14.9413907443152"><ele>1049.0</ele><time>2026-04-29T08:49:47Z</time></trkpt><trkpt lat="37.92310363559277" lon="14.941463303821896"><ele>1047.1666666666667</ele><time>2026-04-29T08:49:48Z</time></trkpt><trkpt lat="37.92303392248439" lon="14.941420980962048"><ele>1045.3333333333335</ele><time>2026-04-29T08:49:49Z</time></trkpt><trkpt lat="37.922969099127144" lon="14.941415519201577"><ele>1043.5</ele><time>2026-04-29T08:49:50Z</time></trkpt><trkpt lat="37.922879579432625" lon="14.941421473560245"><ele>1041.6666666666667</ele><time>2026-04-29T08:49:51Z</time></trkpt><trkpt lat="37.92279194953629" lon="14.941422470147366"><ele>1039.8333333333333</ele><time>2026-04-29T08:49:52Z</time></trkpt><trkpt lat="37.92270140473086" lon="14.941417923005307"><ele>1038.0</ele><time>2026-04-29T08:49:53Z</time></trkpt><trkpt lat="37.922611296888995" lon="14.941503637685596"><ele>1039.8</ele><time>2026-04-29T08:49:54Z</time></trkpt><trkpt lat="37.9225411051862" lon="14.941638811661678"><ele>1041.6</ele><time>2026-04-29T08:49:55Z</time></trkpt><trkpt lat="37.92244472688083" lon="14.941750450385424"><ele>1043.4</ele><time>2026-04-29T08:49:56Z</time></trkpt><trkpt lat="37.92236848557635" lon="14.941837183009003"><ele>1045.2</ele><time>2026-04-29T08:49:57Z</time></trkpt><trkpt lat="37.92228957903585" lon="14.94188786355125"><ele>1047.0</ele><time>2026-04-29T08:49:57.999Z</time></trkpt><trkpt lat="37.922195671819104" lon="14.941878000070588"><ele>1047.0</ele><time>2026-04-29T08:49:58.999Z</time></trkpt><trkpt lat="37.92209064453237" lon="14.941892163460603"><ele>1047.0</ele><time>2026-04-29T08:49:59.999Z</time></trkpt><trkpt lat="37.92196715058361" lon="14.941925885044933"><ele>1047.0</ele><time>2026-04-29T08:50:00.999Z</time></trkpt><trkpt lat="37.9218396090643" lon="14.941936848663248"><ele>1047.0</ele><time>2026-04-29T08:50:01.999Z</time></trkpt><trkpt lat="37.921719078657404" lon="14.94194730700378"><ele>1045.25</ele><time>2026-04-29T08:50:02.999Z</time></trkpt><trkpt lat="37.92161372565062" lon="14.94192813841916"><ele>1043.5</ele><time>2026-04-29T08:50:04Z</time></trkpt><trkpt lat="37.921504458961124" lon="14.941847996537073"><ele>1041.75</ele><time>2026-04-29T08:50:05Z</time></trkpt><trkpt lat="37.921381866902074" lon="14.941770325479855"><ele>1040.0</ele><time>2026-04-29T08:50:06Z</time></trkpt><trkpt lat="37.92129200533811" lon="14.941683482332841"><ele>1034.75</ele><time>2026-04-29T08:50:07Z</time></trkpt><trkpt lat="37.9211940788559" lon="14.941591873631504"><ele>1029.5</ele><time>2026-04-29T08:50:08Z</time></trkpt><trkpt lat="37.92108594434036" lon="14.941494378106526"><ele>1024.25</ele><time>2026-04-29T08:50:09Z</time></trkpt><trkpt lat="37.92097843722426" lon="14.941434747912995"><ele>1019.0</ele><time>2026-04-29T08:50:10Z</time></trkpt><trkpt lat="37.920894042516146" lon="14.941397649574878"><ele>1019.0</ele><time>2026-04-29T08:50:11Z</time></trkpt><trkpt lat="37.92079940612638" lon="14.941355399635928"><ele>1019.0000000000001</ele><time>2026-04-29T08:50:12Z</time></trkpt><trkpt lat="37.920690640752056" lon="14.941333403541325"><ele>1019.0000000000001</ele><time>2026-04-29T08:50:13Z</time></trkpt><trkpt lat="37.9205973523189" lon="14.941353630650642"><ele>1019.0</ele><time>2026-04-29T08:50:14Z</time></trkpt><trkpt lat="37.920515114019146" lon="14.94138176172125"><ele>1019.0</ele><time>2026-04-29T08:50:15Z</time></trkpt><trkpt lat="37.9204229513982" lon="14.941441122410282"><ele>1019.0</ele><time>2026-04-29T08:50:16Z</time></trkpt><trkpt lat="37.920325299341194" lon="14.941519981161974"><ele>1019.0</ele><time>2026-04-29T08:50:17Z</time></trkpt><trkpt lat="37.920219265635986" lon="14.941612207530554"><ele>1019.0</ele><time>2026-04-29T08:50:18Z</time></trkpt><trkpt lat="37.92011294479535" lon="14.941701110157256"><ele>1019.0</ele><time>2026-04-29T08:50:19Z</time></trkpt><trkpt lat="37.91998969834069" lon="14.941780018522214"><ele>1019.0</ele><time>2026-04-29T08:50:20Z</time></trkpt><trkpt lat="37.91988115127507" lon="14.941847550886333"><ele>1019.0000000000001</ele><time>2026-04-29T08:50:21Z</time></trkpt><trkpt lat="37.919779862497634" lon="14.94189263692925"><ele>1019.0000000000001</ele><time>2026-04-29T08:50:22Z</time></trkpt><trkpt lat="37.919709633017014" lon="14.941966485482162"><ele>1019.0</ele><time>2026-04-29T08:50:23Z</time></trkpt><trkpt lat="37.919649932429685" lon="14.942018898079946"><ele>1019.0</ele><time>2026-04-29T08:50:24Z</time></trkpt><trkpt lat="37.91963958745553" lon="14.942112137222384"><ele>1019.0</ele><time>2026-04-29T08:50:25Z</time></trkpt><trkpt lat="37.91952897386331" lon="14.942172383265472"><ele>1019.0000000000001</ele><time>2026-04-29T08:50:27Z</time></trkpt><trkpt lat="37.919446318684614" lon="14.942146321857287"><ele>1019.0000000000001</ele><time>2026-04-29T08:50:28Z</time></trkpt><trkpt lat="37.9193501604445" lon="14.942140187357941"><ele>1019.0</ele><time>2026-04-29T08:50:29Z</time></trkpt><trkpt lat="37.919252215613" lon="14.942116906982056"><ele>1019.0</ele><time>2026-04-29T08:50:30Z</time></trkpt><trkpt lat="37.91915316531101" lon="14.94209161864118"><ele>1016.6</ele><time>2026-04-29T08:50:31Z</time></trkpt><trkpt lat="37.919044747954075" lon="14.942083041688699"><ele>1014.2</ele><time>2026-04-29T08:50:32Z</time></trkpt><trkpt lat="37.91894494879614" lon="14.942081421395487"><ele>1011.8000000000001</ele><time>2026-04-29T08:50:33Z</time></trkpt><trkpt lat="37.91887504805085" lon="14.942096384636887"><ele>1009.4000000000001</ele><time>2026-04-29T08:50:34Z</time></trkpt><trkpt lat="37.91878860729797" lon="14.942191801488486"><ele>1007.0</ele><time>2026-04-29T08:50:36Z</time></trkpt><trkpt lat="37.91873069875072" lon="14.942223466517474"><ele>1007.0</ele><time>2026-04-29T08:50:37Z</time></trkpt><trkpt lat="37.91864457921475" lon="14.942313421353393"><ele>1007.0</ele><time>2026-04-29T08:50:39Z</time></trkpt><trkpt lat="37.91853486177089" lon="14.94233026736139"><ele>1007.0</ele><time>2026-04-29T08:50:41Z</time></trkpt><trkpt lat="37.918473987081825" lon="14.942367947478504"><ele>1007.0</ele><time>2026-04-29T08:50:42Z</time></trkpt><trkpt lat="37.91839580097706" lon="14.942371983416056"><ele>1007.0</ele><time>2026-04-29T08:50:43Z</time></trkpt><trkpt lat="37.91830126743314" lon="14.942373883726068"><ele>1004.6</ele><time>2026-04-29T08:50:44Z</time></trkpt><trkpt lat="37.91820258502323" lon="14.942379853720869"><ele>1002.2</ele><time>2026-04-29T08:50:45Z</time></trkpt><trkpt lat="37.91810011765133" lon="14.942337275375927"><ele>999.8</ele><time>2026-04-29T08:50:46Z</time></trkpt><trkpt lat="37.91800752072172" lon="14.942312853933581"><ele>997.4</ele><time>2026-04-29T08:50:47Z</time></trkpt><trkpt lat="37.917915913426285" lon="14.942288693498515"><ele>995.0</ele><time>2026-04-29T08:50:48Z</time></trkpt><trkpt lat="37.91779702534816" lon="14.94243182726172"><ele>995.0</ele><time>2026-04-29T08:50:49Z</time></trkpt><trkpt lat="37.91770081702774" lon="14.942452589923494"><ele>995.0</ele><time>2026-04-29T08:50:50Z</time></trkpt><trkpt lat="37.9176007721244" lon="14.942463148861723"><ele>995.0</ele><time>2026-04-29T08:50:51Z</time></trkpt><trkpt lat="37.9175029349805" lon="14.942488836407795"><ele>995.0</ele><time>2026-04-29T08:50:52Z</time></trkpt><trkpt lat="37.917414924330075" lon="14.942529497449502"><ele>995.0</ele><time>2026-04-29T08:50:53Z</time></trkpt><trkpt lat="37.91733638948449" lon="14.942595351099827"><ele>997.25</ele><time>2026-04-29T08:50:54Z</time></trkpt><trkpt lat="37.91725958444083" lon="14.942686215534133"><ele>999.5</ele><time>2026-04-29T08:50:55Z</time></trkpt><trkpt lat="37.91717499837152" lon="14.942805464648696"><ele>1001.75</ele><time>2026-04-29T08:50:56Z</time></trkpt><trkpt lat="37.917091261850665" lon="14.942927374587358"><ele>1004.0</ele><time>2026-04-29T08:50:57Z</time></trkpt><trkpt lat="37.91700501356598" lon="14.94301268738896"><ele>1004.0</ele><time>2026-04-29T08:50:58Z</time></trkpt><trkpt lat="37.91692549211092" lon="14.943081221632694"><ele>1004.0000000000001</ele><time>2026-04-29T08:50:59Z</time></trkpt><trkpt lat="37.916854336452246" lon="14.94312548490004"><ele>1004.0000000000001</ele><time>2026-04-29T08:51:00Z</time></trkpt><trkpt lat="37.91677673148997" lon="14.943169641774952"><ele>1004.0</ele><time>2026-04-29T08:51:02Z</time></trkpt><trkpt lat="37.91669013970556" lon="14.943113217773508"><ele>1004.0</ele><time>2026-04-29T08:51:04Z</time></trkpt><trkpt lat="37.91668968880588" lon="14.942979848612818"><ele>1004.0</ele><time>2026-04-29T08:51:06Z</time></trkpt><trkpt lat="37.916726639077424" lon="14.942895353488456"><ele>1004.0000000000001</ele><time>2026-04-29T08:51:07Z</time></trkpt><trkpt lat="37.916783194789325" lon="14.942778658458602"><ele>1004.0000000000001</ele><time>2026-04-29T08:51:08Z</time></trkpt><trkpt lat="37.91681881910524" lon="14.942626669248236"><ele>1004.0</ele><time>2026-04-29T08:51:09Z</time></trkpt><trkpt lat="37.91684788218085" lon="14.942473061489533"><ele>1004.0</ele><time>2026-04-29T08:51:10Z</time></trkpt><trkpt lat="37.916884595253165" lon="14.942351973172501"><ele>1000.2</ele><time>2026-04-29T08:51:11Z</time></trkpt><trkpt lat="37.91693812934232" lon="14.94224543843807"><ele>996.4000000000001</ele><time>2026-04-29T08:51:12Z</time></trkpt><trkpt lat="37.917009722663146" lon="14.94215692453278"><ele>992.6</ele><time>2026-04-29T08:51:13Z</time></trkpt><trkpt lat="37.917100529132604" lon="14.942064175061418"><ele>988.8</ele><time>2026-04-29T08:51:14Z</time></trkpt><trkpt lat="37.91719470927483" lon="14.941970245844498"><ele>985.0</ele><time>2026-04-29T08:51:15Z</time></trkpt><trkpt lat="37.91726960788884" lon="14.941857256841601"><ele>985.0</ele><time>2026-04-29T08:51:16Z</time></trkpt><trkpt lat="37.917339218841235" lon="14.941752224740435"><ele>985.0</ele><time>2026-04-29T08:51:17Z</time></trkpt><trkpt lat="37.91742011044703" lon="14.941654262349049"><ele>985.0</ele><time>2026-04-29T08:51:18Z</time></trkpt><trkpt lat="37.91748670859301" lon="14.941573192355648"><ele>985.0</ele><time>2026-04-29T08:51:19Z</time></trkpt><trkpt lat="37.91755354319423" lon="14.941520803023995"><ele>985.0</ele><time>2026-04-29T08:51:20Z</time></trkpt><trkpt lat="37.91764729713238" lon="14.941485324850568"><ele>981.75</ele><time>2026-04-29T08:51:21Z</time></trkpt><trkpt lat="37.917759977214274" lon="14.941450930106654"><ele>978.5</ele><time>2026-04-29T08:51:22Z</time></trkpt><trkpt lat="37.917863476983456" lon="14.9414097443368"><ele>975.25</ele><time>2026-04-29T08:51:23Z</time></trkpt><trkpt lat="37.917971724435056" lon="14.941341134342867"><ele>972.0</ele><time>2026-04-29T08:51:24Z</time></trkpt><trkpt lat="37.91807608974252" lon="14.941263437531827"><ele>972.0</ele><time>2026-04-29T08:51:25Z</time></trkpt><trkpt lat="37.91817834839356" lon="14.94120051214533"><ele>972.0</ele><time>2026-04-29T08:51:26Z</time></trkpt><trkpt lat="37.918268684135036" lon="14.941138554685093"><ele>972.0</ele><time>2026-04-29T08:51:27Z</time></trkpt><trkpt lat="37.91833201531123" lon="14.941096283874849"><ele>972.0</ele><time>2026-04-29T08:51:28Z</time></trkpt><trkpt lat="37.91840148205125" lon="14.941011069348772"><ele>972.0</ele><time>2026-04-29T08:51:30Z</time></trkpt><trkpt lat="37.91838632566599" lon="14.940908002818707"><ele>972.0</ele><time>2026-04-29T08:51:32Z</time></trkpt><trkpt lat="37.9182594594387" lon="14.94086755557346"><ele>972.0</ele><time>2026-04-29T08:51:34Z</time></trkpt><trkpt lat="37.91815566267886" lon="14.940875436406627"><ele>972.0</ele><time>2026-04-29T08:51:35Z</time></trkpt><trkpt lat="37.918040668795335" lon="14.940886186794842"><ele>972.0</ele><time>2026-04-29T08:51:36Z</time></trkpt><trkpt lat="37.91793683294293" lon="14.94087946702226"><ele>969.0</ele><time>2026-04-29T08:51:37Z</time></trkpt><trkpt lat="37.917844641088806" lon="14.940846203439166"><ele>966.0</ele><time>2026-04-29T08:51:38Z</time></trkpt><trkpt lat="37.91776021118133" lon="14.940792288264937"><ele>963.0</ele><time>2026-04-29T08:51:39Z</time></trkpt><trkpt lat="37.91767925592461" lon="14.940750697041965"><ele>960.0</ele><time>2026-04-29T08:51:40Z</time></trkpt><trkpt lat="37.917604023513626" lon="14.940729145280597"><ele>957.0</ele><time>2026-04-29T08:51:41Z</time></trkpt><trkpt lat="37.91753482410162" lon="14.940756793966157"><ele>954.0</ele><time>2026-04-29T08:51:42Z</time></trkpt><trkpt lat="37.91744875055598" lon="14.940792898749226"><ele>956.5</ele><time>2026-04-29T08:51:43Z</time></trkpt><trkpt lat="37.91735304111484" lon="14.940844942264734"><ele>959.0</ele><time>2026-04-29T08:51:44Z</time></trkpt><trkpt lat="37.91724536823375" lon="14.94089128268676"><ele>961.5</ele><time>2026-04-29T08:51:45Z</time></trkpt><trkpt lat="37.917122796305186" lon="14.940904258503656"><ele>964.0</ele><time>2026-04-29T08:51:46Z</time></trkpt><trkpt lat="37.91701499603316" lon="14.940932320002707"><ele>964.0</ele><time>2026-04-29T08:51:47Z</time></trkpt><trkpt lat="37.91692174673597" lon="14.940974839643308"><ele>964.0000000000001</ele><time>2026-04-29T08:51:48Z</time></trkpt><trkpt lat="37.91684191756217" lon="14.941017881808659"><ele>964.0000000000001</ele><time>2026-04-29T08:51:49Z</time></trkpt><trkpt lat="37.91676742105144" lon="14.941064241111965"><ele>964.0</ele><time>2026-04-29T08:51:50Z</time></trkpt><trkpt lat="37.916699991822924" lon="14.941127013496303"><ele>964.0</ele><time>2026-04-29T08:51:51Z</time></trkpt><trkpt lat="37.91662403547092" lon="14.941216309385547"><ele>960.4000000000001</ele><time>2026-04-29T08:51:52Z</time></trkpt><trkpt lat="37.916546652507854" lon="14.941314560374312"><ele>956.8000000000001</ele><time>2026-04-29T08:51:53Z</time></trkpt><trkpt lat="37.91647606158549" lon="14.941402089045791"><ele>953.1999999999999</ele><time>2026-04-29T08:51:54Z</time></trkpt><trkpt lat="37.91640714526326" lon="14.94148377244725"><ele>949.5999999999999</ele><time>2026-04-29T08:51:55Z</time></trkpt><trkpt lat="37.91633994302248" lon="14.941566169580371"><ele>946.0</ele><time>2026-04-29T08:51:56Z</time></trkpt><trkpt lat="37.91627945311552" lon="14.941635714738435"><ele>946.0</ele><time>2026-04-29T08:51:57Z</time></trkpt><trkpt lat="37.9162089435677" lon="14.941686662860384"><ele>945.9999999999999</ele><time>2026-04-29T08:51:58Z</time></trkpt><trkpt lat="37.91612874933127" lon="14.941712760438275"><ele>945.9999999999999</ele><time>2026-04-29T08:51:59Z</time></trkpt><trkpt lat="37.91600570188806" lon="14.941706515851306"><ele>946.0</ele><time>2026-04-29T08:52:00Z</time></trkpt><trkpt lat="37.91587819950219" lon="14.941715854277872"><ele>946.0</ele><time>2026-04-29T08:52:01Z</time></trkpt><trkpt lat="37.91575549154807" lon="14.941736224232239"><ele>944.0</ele><time>2026-04-29T08:52:02Z</time></trkpt><trkpt lat="37.91562581880276" lon="14.941762494620571"><ele>942.0</ele><time>2026-04-29T08:52:02.999Z</time></trkpt><trkpt lat="37.91547741367544" lon="14.941796910267408"><ele>940.0</ele><time>2026-04-29T08:52:03.999Z</time></trkpt><trkpt lat="37.91533543637471" lon="14.941817635115317"><ele>938.0</ele><time>2026-04-29T08:52:04.999Z</time></trkpt><trkpt lat="37.915204999769244" lon="14.941841075352047"><ele>938.0</ele><time>2026-04-29T08:52:05.999Z</time></trkpt><trkpt lat="37.91508753642603" lon="14.94188195176889"><ele>938.0</ele><time>2026-04-29T08:52:06.999Z</time></trkpt><trkpt lat="37.91495716828209" lon="14.941956483426425"><ele>938.0</ele><time>2026-04-29T08:52:07.999Z</time></trkpt><trkpt lat="37.914840856718996" lon="14.942033025691313"><ele>938.0</ele><time>2026-04-29T08:52:08.999Z</time></trkpt><trkpt lat="37.91474933721823" lon="14.942080114803272"><ele>936.0</ele><time>2026-04-29T08:52:10Z</time></trkpt><trkpt lat="37.91466016021404" lon="14.942084915974618"><ele>934.0</ele><time>2026-04-29T08:52:11Z</time></trkpt><trkpt lat="37.91455150138531" lon="14.942087170183067"><ele>932.0</ele><time>2026-04-29T08:52:12Z</time></trkpt><trkpt lat="37.91442780915066" lon="14.9420661533807"><ele>930.0</ele><time>2026-04-29T08:52:13Z</time></trkpt><trkpt lat="37.91431341367979" lon="14.942037237891629"><ele>928.0</ele><time>2026-04-29T08:52:14Z</time></trkpt><trkpt lat="37.91421232645587" lon="14.94201704166659"><ele>927.75</ele><time>2026-04-29T08:52:15Z</time></trkpt><trkpt lat="37.91409151582119" lon="14.94203950196782"><ele>927.5</ele><time>2026-04-29T08:52:16Z</time></trkpt><trkpt lat="37.91395076782425" lon="14.942064084276064"><ele>927.25</ele><time>2026-04-29T08:52:17Z</time></trkpt><trkpt lat="37.91382720679568" lon="14.942084230065495"><ele>927.0</ele><time>2026-04-29T08:52:18Z</time></trkpt><trkpt lat="37.91371339706179" lon="14.942072216669365"><ele>927.0</ele><time>2026-04-29T08:52:19Z</time></trkpt><trkpt lat="37.91359619596909" lon="14.942044231140638"><ele>927.0</ele><time>2026-04-29T08:52:20Z</time></trkpt><trkpt lat="37.91348643479599" lon="14.942034462670291"><ele>927.0</ele><time>2026-04-29T08:52:21Z</time></trkpt><trkpt lat="37.91337379969525" lon="14.942057894838316"><ele>927.0</ele><time>2026-04-29T08:52:22Z</time></trkpt><trkpt lat="37.9132645111244" lon="14.942111022535201"><ele>926.75</ele><time>2026-04-29T08:52:23Z</time></trkpt><trkpt lat="37.91315231118428" lon="14.942193376907905"><ele>926.5</ele><time>2026-04-29T08:52:24Z</time></trkpt><trkpt lat="37.9130281431379" lon="14.942289401891307"><ele>926.25</ele><time>2026-04-29T08:52:25Z</time></trkpt><trkpt lat="37.91292569878537" lon="14.94234697009584"><ele>926.0</ele><time>2026-04-29T08:52:26Z</time></trkpt><trkpt lat="37.91280824920249" lon="14.942366528158137"><ele>926.0</ele><time>2026-04-29T08:52:27Z</time></trkpt><trkpt lat="37.91265671130028" lon="14.94236441697657"><ele>926.0</ele><time>2026-04-29T08:52:28Z</time></trkpt><trkpt lat="37.912515940204024" lon="14.942353045588929"><ele>926.0</ele><time>2026-04-29T08:52:29Z</time></trkpt><trkpt lat="37.91240896586282" lon="14.942356474626276"><ele>926.0</ele><time>2026-04-29T08:52:30Z</time></trkpt><trkpt lat="37.912313859212475" lon="14.94236270302298"><ele>925.8</ele><time>2026-04-29T08:52:31Z</time></trkpt><trkpt lat="37.912203534688565" lon="14.942342563181397"><ele>925.5999999999999</ele><time>2026-04-29T08:52:32Z</time></trkpt><trkpt lat="37.912097818947096" lon="14.942310774571068"><ele>925.4</ele><time>2026-04-29T08:52:33Z</time></trkpt><trkpt lat="37.91200261195087" lon="14.94232259939972"><ele>925.2</ele><time>2026-04-29T08:52:34Z</time></trkpt><trkpt lat="37.91190195177067" lon="14.942384646954034"><ele>925.0</ele><time>2026-04-29T08:52:35Z</time></trkpt><trkpt lat="37.911805744596" lon="14.942393579938196"><ele>924.0</ele><time>2026-04-29T08:52:36Z</time></trkpt><trkpt lat="37.91171856318231" lon="14.942390977633762"><ele>923.0</ele><time>2026-04-29T08:52:37Z</time></trkpt><trkpt lat="37.91164063722561" lon="14.942425475376552"><ele>922.0</ele><time>2026-04-29T08:52:38Z</time></trkpt><trkpt lat="37.911578460679095" lon="14.942496224338456"><ele>921.0</ele><time>2026-04-29T08:52:39Z</time></trkpt><trkpt lat="37.911458658487376" lon="14.942506018658957"><ele>920.0</ele><time>2026-04-29T08:52:41Z</time></trkpt><trkpt lat="37.91136652602516" lon="14.942462709389874"><ele>920.0</ele><time>2026-04-29T08:52:42Z</time></trkpt><trkpt lat="37.91127120350344" lon="14.942433827428754"><ele>920.0</ele><time>2026-04-29T08:52:43Z</time></trkpt><trkpt lat="37.91117238702636" lon="14.942503851518756"><ele>920.0</ele><time>2026-04-29T08:52:45Z</time></trkpt><trkpt lat="37.911148517857725" lon="14.942604957016016"><ele>920.0</ele><time>2026-04-29T08:52:46Z</time></trkpt><trkpt lat="37.91112001033609" lon="14.942719429103851"><ele>920.0</ele><time>2026-04-29T08:52:47Z</time></trkpt><trkpt lat="37.9110868708589" lon="14.94281913353743"><ele>923.0</ele><time>2026-04-29T08:52:48Z</time></trkpt><trkpt lat="37.91101976807743" lon="14.942896259386552"><ele>926.0</ele><time>2026-04-29T08:52:49Z</time></trkpt><trkpt lat="37.910925087516034" lon="14.942955064782916"><ele>929.0</ele><time>2026-04-29T08:52:50Z</time></trkpt><trkpt lat="37.910813457033804" lon="14.94300613539947"><ele>932.0</ele><time>2026-04-29T08:52:51Z</time></trkpt><trkpt lat="37.910730307204894" lon="14.943040445236216"><ele>935.0</ele><time>2026-04-29T08:52:52Z</time></trkpt><trkpt lat="37.910662922932964" lon="14.943039449356993"><ele>935.0</ele><time>2026-04-29T08:52:53Z</time></trkpt><trkpt lat="37.91058350869398" lon="14.942992271287961"><ele>935.0</ele><time>2026-04-29T08:52:54Z</time></trkpt><trkpt lat="37.910485299516324" lon="14.942905388711472"><ele>935.0</ele><time>2026-04-29T08:52:55Z</time></trkpt><trkpt lat="37.91037947718212" lon="14.942784759814037"><ele>935.0</ele><time>2026-04-29T08:52:56Z</time></trkpt><trkpt lat="37.91027142902581" lon="14.942656542416945"><ele>935.0</ele><time>2026-04-29T08:52:57Z</time></trkpt><trkpt lat="37.910177489600194" lon="14.942548662227951"><ele>935.0</ele><time>2026-04-29T08:52:58Z</time></trkpt><trkpt lat="37.91006809039309" lon="14.942470845239487"><ele>935.0</ele><time>2026-04-29T08:52:59Z</time></trkpt><trkpt lat="37.90995669722298" lon="14.942459344792203"><ele>935.0</ele><time>2026-04-29T08:53:00Z</time></trkpt><trkpt lat="37.90981830433317" lon="14.942432059017957"><ele>929.3333333333334</ele><time>2026-04-29T08:53:01Z</time></trkpt><trkpt lat="37.90965214169672" lon="14.942406586280436"><ele>923.6666666666667</ele><time>2026-04-29T08:53:02Z</time></trkpt><trkpt lat="37.90948371616772" lon="14.942372109841784"><ele>918.0</ele><time>2026-04-29T08:53:03Z</time></trkpt><trkpt lat="37.90932434316687" lon="14.942333540404885"><ele>917.75</ele><time>2026-04-29T08:53:04Z</time></trkpt><trkpt lat="37.909185338874394" lon="14.94230834974731"><ele>917.5</ele><time>2026-04-29T08:53:05Z</time></trkpt><trkpt lat="37.909046236957266" lon="14.942297623845908"><ele>917.25</ele><time>2026-04-29T08:53:06Z</time></trkpt><trkpt lat="37.90894811744965" lon="14.94231445259602"><ele>917.0</ele><time>2026-04-29T08:53:07Z</time></trkpt><trkpt lat="37.90886764912867" lon="14.942300704374164"><ele>917.0</ele><time>2026-04-29T08:53:08Z</time></trkpt><trkpt lat="37.9087832117238" lon="14.94225430975373"><ele>917.0</ele><time>2026-04-29T08:53:09Z</time></trkpt><trkpt lat="37.90872934934293" lon="14.942183490459367"><ele>917.0</ele><time>2026-04-29T08:53:10Z</time></trkpt><trkpt lat="37.90869794114822" lon="14.942087675699213"><ele>917.0</ele><time>2026-04-29T08:53:11Z</time></trkpt><trkpt lat="37.90869177749066" lon="14.941957276369953"><ele>917.0</ele><time>2026-04-29T08:53:12Z</time></trkpt><trkpt lat="37.90868025000452" lon="14.94180395658285"><ele>917.2</ele><time>2026-04-29T08:53:13Z</time></trkpt><trkpt lat="37.90866123897985" lon="14.941679291804691"><ele>917.4000000000001</ele><time>2026-04-29T08:53:14Z</time></trkpt><trkpt lat="37.908564350533474" lon="14.941584092762554"><ele>917.5999999999999</ele><time>2026-04-29T08:53:16Z</time></trkpt><trkpt lat="37.90848432875658" lon="14.941553021427907"><ele>917.8</ele><time>2026-04-29T08:53:17Z</time></trkpt><trkpt lat="37.9083703332916" lon="14.941519098248811"><ele>918.0</ele><time>2026-04-29T08:53:18Z</time></trkpt><trkpt lat="37.90827876291345" lon="14.941460003551187"><ele>918.0</ele><time>2026-04-29T08:53:19Z</time></trkpt><trkpt lat="37.90819187462042" lon="14.941363678760728"><ele>918.0</ele><time>2026-04-29T08:53:20Z</time></trkpt><trkpt lat="37.90810402662691" lon="14.941251850890865"><ele>918.0</ele><time>2026-04-29T08:53:21Z</time></trkpt><trkpt lat="37.90800217307558" lon="14.941167285046992"><ele>918.0</ele><time>2026-04-29T08:53:22Z</time></trkpt><trkpt lat="37.907901245288414" lon="14.941118794765657"><ele>918.0</ele><time>2026-04-29T08:53:23Z</time></trkpt><trkpt lat="37.907812108246105" lon="14.941098334104371"><ele>918.0</ele><time>2026-04-29T08:53:24Z</time></trkpt><trkpt lat="37.90772686321838" lon="14.941102147073275"><ele>918.0</ele><time>2026-04-29T08:53:25Z</time></trkpt><trkpt lat="37.90764238324752" lon="14.941150870199994"><ele>918.0</ele><time>2026-04-29T08:53:26Z</time></trkpt><trkpt lat="37.90756054750623" lon="14.941240726383997"><ele>918.0</ele><time>2026-04-29T08:53:27Z</time></trkpt><trkpt lat="37.90747778598236" lon="14.941367069234166"><ele>918.75</ele><time>2026-04-29T08:53:28Z</time></trkpt><trkpt lat="37.90738418148692" lon="14.941530366907111"><ele>919.5</ele><time>2026-04-29T08:53:29Z</time></trkpt><trkpt lat="37.90729787829134" lon="14.941662029493624"><ele>920.25</ele><time>2026-04-29T08:53:30Z</time></trkpt><trkpt lat="37.90722836330881" lon="14.941782824733487"><ele>921.0</ele><time>2026-04-29T08:53:31Z</time></trkpt><trkpt lat="37.90718041142365" lon="14.941914854117606"><ele>923.5</ele><time>2026-04-29T08:53:32Z</time></trkpt><trkpt lat="37.90716379371782" lon="14.94207300652203"><ele>926.0</ele><time>2026-04-29T08:53:33Z</time></trkpt><trkpt lat="37.90711459940455" lon="14.942215905630544"><ele>928.5</ele><time>2026-04-29T08:53:34Z</time></trkpt><trkpt lat="37.90706537319845" lon="14.94235710665999"><ele>931.0</ele><time>2026-04-29T08:53:35Z</time></trkpt><trkpt lat="37.906981912525964" lon="14.942447341643378"><ele>931.0</ele><time>2026-04-29T08:53:36Z</time></trkpt><trkpt lat="37.906877800164544" lon="14.942525060860934"><ele>931.0</ele><time>2026-04-29T08:53:37Z</time></trkpt><trkpt lat="37.90677251027353" lon="14.942572038730907"><ele>931.0</ele><time>2026-04-29T08:53:38Z</time></trkpt><trkpt lat="37.90666077420639" lon="14.942600755955516"><ele>931.0</ele><time>2026-04-29T08:53:39Z</time></trkpt><trkpt lat="37.906552946954506" lon="14.942605164897849"><ele>930.25</ele><time>2026-04-29T08:53:40Z</time></trkpt><trkpt lat="37.906438700910684" lon="14.942587032123516"><ele>929.5</ele><time>2026-04-29T08:53:41Z</time></trkpt><trkpt lat="37.90629843279204" lon="14.942554555909974"><ele>928.75</ele><time>2026-04-29T08:53:42Z</time></trkpt><trkpt lat="37.9061479902371" lon="14.94253323966184"><ele>928.0</ele><time>2026-04-29T08:53:43Z</time></trkpt><trkpt lat="37.905997488848655" lon="14.94251554249646"><ele>925.3333333333333</ele><time>2026-04-29T08:53:44Z</time></trkpt><trkpt lat="37.90584551783617" lon="14.942504693697893"><ele>922.6666666666667</ele><time>2026-04-29T08:53:45Z</time></trkpt><trkpt lat="37.90568788740973" lon="14.942478718804958"><ele>920.0</ele><time>2026-04-29T08:53:46Z</time></trkpt><trkpt lat="37.90555197374541" lon="14.942444480656823"><ele>920.0</ele><time>2026-04-29T08:53:47Z</time></trkpt><trkpt lat="37.90543132226403" lon="14.942426984540148"><ele>920.0</ele><time>2026-04-29T08:53:48Z</time></trkpt><trkpt lat="37.90533035261572" lon="14.942435420964214"><ele>920.0</ele><time>2026-04-29T08:53:49Z</time></trkpt><trkpt lat="37.90520504024691" lon="14.942444786884044"><ele>920.0</ele><time>2026-04-29T08:53:50Z</time></trkpt><trkpt lat="37.905090218721014" lon="14.942456901266748"><ele>920.5</ele><time>2026-04-29T08:53:51Z</time></trkpt><trkpt lat="37.90497586359968" lon="14.942446078125801"><ele>921.0</ele><time>2026-04-29T08:53:52Z</time></trkpt><trkpt lat="37.90485995363303" lon="14.942435218357158"><ele>921.5</ele><time>2026-04-29T08:53:53Z</time></trkpt><trkpt lat="37.904726051931284" lon="14.942418982621666"><ele>922.0</ele><time>2026-04-29T08:53:54Z</time></trkpt><trkpt lat="37.90461300349601" lon="14.942385882810012"><ele>922.0</ele><time>2026-04-29T08:53:55Z</time></trkpt><trkpt lat="37.90451348564061" lon="14.94230162559632"><ele>922.0</ele><time>2026-04-29T08:53:56Z</time></trkpt><trkpt lat="37.904428490399724" lon="14.94219157255893"><ele>922.0</ele><time>2026-04-29T08:53:57Z</time></trkpt><trkpt lat="37.90433157961648" lon="14.942078634529148"><ele>922.0</ele><time>2026-04-29T08:53:58Z</time></trkpt><trkpt lat="37.90425483490038" lon="14.942038667279455"><ele>922.9999999999999</ele><time>2026-04-29T08:53:59Z</time></trkpt><trkpt lat="37.90418465441956" lon="14.942046645119312"><ele>924.0</ele><time>2026-04-29T08:54:00Z</time></trkpt><trkpt lat="37.9041233143873" lon="14.94208245299976"><ele>925.0</ele><time>2026-04-29T08:54:01Z</time></trkpt><trkpt lat="37.90404961042691" lon="14.942184219323831"><ele>926.0</ele><time>2026-04-29T08:54:02.999Z</time></trkpt><trkpt lat="37.90401803352857" lon="14.94225397374802"><ele>926.9999999999999</ele><time>2026-04-29T08:56:14.999Z</time></trkpt><trkpt lat="37.90395808781891" lon="14.942391515923845"><ele>928.0</ele><time>2026-04-29T08:56:16.999Z</time></trkpt><trkpt lat="37.90389332033664" lon="14.942498621842796"><ele>931.5999999999999</ele><time>2026-04-29T08:56:17.999Z</time></trkpt><trkpt lat="37.903822962709725" lon="14.942596952704209"><ele>935.1999999999999</ele><time>2026-04-29T08:56:18.999Z</time></trkpt><trkpt lat="37.903735377470426" lon="14.942645887100111"><ele>938.8</ele><time>2026-04-29T08:56:19.999Z</time></trkpt><trkpt lat="37.90364521553436" lon="14.942691154320173"><ele>942.4</ele><time>2026-04-29T08:56:20.999Z</time></trkpt><trkpt lat="37.903567858724294" lon="14.942745353187565"><ele>946.0</ele><time>2026-04-29T08:56:21.999Z</time></trkpt><trkpt lat="37.90349360539022" lon="14.942742875064841"><ele>945.9999999999999</ele><time>2026-04-29T08:56:22.999Z</time></trkpt><trkpt lat="37.903434483525395" lon="14.942771318026248"><ele>946.0</ele><time>2026-04-29T08:56:23.999Z</time></trkpt><trkpt lat="37.90335234156988" lon="14.942752830605873"><ele>946.0</ele><time>2026-04-29T08:56:25.999Z</time></trkpt><trkpt lat="37.90327520153958" lon="14.942764101242759"><ele>946.0</ele><time>2026-04-29T08:58:29.998Z</time></trkpt><trkpt lat="37.90315778504822" lon="14.942817365408507"><ele>945.9999999999999</ele><time>2026-04-29T08:58:32.998Z</time></trkpt><trkpt lat="37.90309276885445" lon="14.942825315878546"><ele>946.0</ele><time>2026-04-29T08:58:33.998Z</time></trkpt><trkpt lat="37.90301596665394" lon="14.942840302271"><ele>943.3333333333333</ele><time>2026-04-29T08:58:34.998Z</time></trkpt><trkpt lat="37.902946665020245" lon="14.942855067185093"><ele>940.6666666666666</ele><time>2026-04-29T08:58:35.998Z</time></trkpt><trkpt lat="37.902846110805186" lon="14.942886689271665"><ele>938.0</ele><time>2026-04-29T08:58:37.998Z</time></trkpt><trkpt lat="37.90277903238092" lon="14.942893465673023"><ele>935.3333333333333</ele><time>2026-04-29T08:58:38.998Z</time></trkpt><trkpt lat="37.902680162417006" lon="14.942899649131599"><ele>932.6666666666666</ele><time>2026-04-29T08:58:39.998Z</time></trkpt><trkpt lat="37.90258716281412" lon="14.94288173124238"><ele>930.0</ele><time>2026-04-29T08:58:40.998Z</time></trkpt><trkpt lat="37.90250390824202" lon="14.942878002488973"><ele>928.6</ele><time>2026-04-29T08:58:41.998Z</time></trkpt><trkpt lat="37.90242477711877" lon="14.942873724050386"><ele>927.2</ele><time>2026-04-29T08:58:42.998Z</time></trkpt><trkpt lat="37.902323674663" lon="14.942885822782488"><ele>925.8</ele><time>2026-04-29T08:58:43.999Z</time></trkpt><trkpt lat="37.902207207706965" lon="14.942865280539817"><ele>924.4</ele><time>2026-04-29T08:58:44.999Z</time></trkpt><trkpt lat="37.90213136310877" lon="14.942794232304648"><ele>923.0</ele><time>2026-04-29T08:58:45.999Z</time></trkpt><trkpt lat="37.902054591786445" lon="14.942752668210487"><ele>923.0</ele><time>2026-04-29T08:58:46.999Z</time></trkpt><trkpt lat="37.90198254216302" lon="14.942716779314546"><ele>923.0</ele><time>2026-04-29T08:58:47.999Z</time></trkpt><trkpt lat="37.90190470342086" lon="14.942696044639877"><ele>923.0</ele><time>2026-04-29T08:58:48.999Z</time></trkpt><trkpt lat="37.901836635003185" lon="14.94268550907469"><ele>923.0</ele><time>2026-04-29T08:58:49.999Z</time></trkpt><trkpt lat="37.90172199754062" lon="14.942725453758644"><ele>923.0</ele><time>2026-04-29T08:58:51.999Z</time></trkpt><trkpt lat="37.901607390923836" lon="14.942809481585888"><ele>921.2</ele><time>2026-04-29T08:58:53.999Z</time></trkpt><trkpt lat="37.90152643786827" lon="14.942917623156852"><ele>919.4</ele><time>2026-04-29T08:58:55.999Z</time></trkpt><trkpt lat="37.901466975347795" lon="14.942988739284687"><ele>917.6000000000001</ele><time>2026-04-29T08:58:57.999Z</time></trkpt><trkpt lat="37.90140683459069" lon="14.94307189916404"><ele>915.8000000000001</ele><time>2026-04-29T08:59:00.999Z</time></trkpt><trkpt lat="37.90134467082399" lon="14.943111994753934"><ele>914.0</ele><time>2026-04-29T08:59:02.999Z</time></trkpt><trkpt lat="37.901269620298336" lon="14.943203012313287"><ele>914.0</ele><time>2026-04-29T08:59:04.999Z</time></trkpt><trkpt lat="37.90121347218812" lon="14.943243314316975"><ele>914.0000000000001</ele><time>2026-04-29T08:59:05.999Z</time></trkpt><trkpt lat="37.90109740218635" lon="14.94329024692383"><ele>914.0000000000001</ele><time>2026-04-29T08:59:07.999Z</time></trkpt><trkpt lat="37.90100657081449" lon="14.94333121332832"><ele>914.0</ele><time>2026-04-29T08:59:09.999Z</time></trkpt><trkpt lat="37.900895809148665" lon="14.943389468188727"><ele>914.0</ele><time>2026-04-29T08:59:11.999Z</time></trkpt><trkpt lat="37.900828401929594" lon="14.94340209296579"><ele>913.6666666666667</ele><time>2026-04-29T08:59:12.999Z</time></trkpt><trkpt lat="37.900766221717866" lon="14.943421603478562"><ele>913.3333333333334</ele><time>2026-04-29T08:59:13.999Z</time></trkpt><trkpt lat="37.90069299955508" lon="14.94347098460157"><ele>913.0</ele><time>2026-04-29T08:59:15.999Z</time></trkpt><trkpt lat="37.900620732433275" lon="14.943515399221832"><ele>912.6666666666667</ele><time>2026-04-29T08:59:17.999Z</time></trkpt><trkpt lat="37.90054693027131" lon="14.943521921936476"><ele>912.3333333333334</ele><time>2026-04-29T08:59:19.999Z</time></trkpt><trkpt lat="37.90047755165684" lon="14.943470368715825"><ele>912.0</ele><time>2026-04-29T08:59:21.999Z</time></trkpt><trkpt lat="37.900397786434624" lon="14.943433231084942"><ele>912.0</ele><time>2026-04-29T08:59:23.999Z</time></trkpt><trkpt lat="37.90030000647284" lon="14.94341274240266"><ele>912.0</ele><time>2026-04-29T08:59:25.999Z</time></trkpt><trkpt lat="37.900195197286976" lon="14.943413838898707"><ele>912.0</ele><time>2026-04-29T08:59:27.999Z</time></trkpt><trkpt lat="37.900096249556455" lon="14.943441303594623"><ele>912.0</ele><time>2026-04-29T08:59:29.999Z</time></trkpt><trkpt lat="37.900010325388166" lon="14.94349714105818"><ele>912.0</ele><time>2026-04-29T08:59:31.999Z</time></trkpt><trkpt lat="37.899919330423316" lon="14.943511631874541"><ele>910.8333333333334</ele><time>2026-04-29T08:59:33.999Z</time></trkpt><trkpt lat="37.899842523689095" lon="14.943492102429095"><ele>909.6666666666667</ele><time>2026-04-29T08:59:35.999Z</time></trkpt><trkpt lat="37.89976838602599" lon="14.943505751012623"><ele>908.5</ele><time>2026-04-29T08:59:37.999Z</time></trkpt><trkpt lat="37.89968149795833" lon="14.94349734062209"><ele>907.3333333333334</ele><time>2026-04-29T08:59:39.999Z</time></trkpt><trkpt lat="37.89960688697534" lon="14.94352764792241"><ele>906.1666666666667</ele><time>2026-04-29T08:59:41.999Z</time></trkpt><trkpt lat="37.89950872322091" lon="14.943539461065749"><ele>905.0</ele><time>2026-04-29T08:59:43.999Z</time></trkpt><trkpt lat="37.89938427030221" lon="14.94352170740598"><ele>905.0</ele><time>2026-04-29T08:59:45.999Z</time></trkpt><trkpt lat="37.89931933116739" lon="14.943487482215302"><ele>904.9999999999999</ele><time>2026-04-29T08:59:46.999Z</time></trkpt><trkpt lat="37.899243200504074" lon="14.943475209181763"><ele>905.0</ele><time>2026-04-29T08:59:47.999Z</time></trkpt><trkpt lat="37.8991612520377" lon="14.943461999630431"><ele>905.0</ele><time>2026-04-29T08:59:48.999Z</time></trkpt><trkpt lat="37.899088684306236" lon="14.943476064302667"><ele>904.9999999999999</ele><time>2026-04-29T08:59:49.999Z</time></trkpt><trkpt lat="37.899025718537054" lon="14.943450398688576"><ele>905.0</ele><time>2026-04-29T08:59:50.999Z</time></trkpt><trkpt lat="37.898956544799965" lon="14.943444585737732"><ele>905.0</ele><time>2026-04-29T08:59:51.999Z</time></trkpt><trkpt lat="37.89885489562823" lon="14.943587815739566"><ele>904.5000000000001</ele><time>2026-04-29T08:59:52.999Z</time></trkpt><trkpt lat="37.89876633920719" lon="14.943617151153532"><ele>904.0</ele><time>2026-04-29T08:59:53.999Z</time></trkpt><trkpt lat="37.89869493135262" lon="14.943643881342735"><ele>903.5</ele><time>2026-04-29T08:59:54.999Z</time></trkpt><trkpt lat="37.898627883772015" lon="14.94367743345879"><ele>903.0</ele><time>2026-04-29T08:59:55.999Z</time></trkpt><trkpt lat="37.898545863860406" lon="14.943684526406384"><ele>902.5000000000001</ele><time>2026-04-29T08:59:56.999Z</time></trkpt><trkpt lat="37.898468666527314" lon="14.94366380445235"><ele>902.0</ele><time>2026-04-29T08:59:57.999Z</time></trkpt><trkpt lat="37.898400258007676" lon="14.943655060201856"><ele>902.0</ele><time>2026-04-29T08:59:58.999Z</time></trkpt><trkpt lat="37.898334680009086" lon="14.9436432340531"><ele>902.0</ele><time>2026-04-29T08:59:59.999Z</time></trkpt><trkpt lat="37.89826520994325" lon="14.94362960027178"><ele>902.0</ele><time>2026-04-29T09:00:00.999Z</time></trkpt><trkpt lat="37.89819616854639" lon="14.943614527136146"><ele>902.0</ele><time>2026-04-29T09:00:01.999Z</time></trkpt><trkpt lat="37.898128816781984" lon="14.943597992606037"><ele>902.0</ele><time>2026-04-29T09:00:02.999Z</time></trkpt><trkpt lat="37.89806137968323" lon="14.943579629080935"><ele>902.0</ele><time>2026-04-29T09:00:03.999Z</time></trkpt><trkpt lat="37.89799200678997" lon="14.943560738436496"><ele>902.0</ele><time>2026-04-29T09:00:04.999Z</time></trkpt><trkpt lat="37.89792789096389" lon="14.943538093100427"><ele>902.0000000000001</ele><time>2026-04-29T09:00:05.999Z</time></trkpt><trkpt lat="37.89785845533954" lon="14.943519866269442"><ele>902.0</ele><time>2026-04-29T09:00:06.999Z</time></trkpt><trkpt lat="37.89778450254861" lon="14.943543506639081"><ele>902.0</ele><time>2026-04-29T09:00:07.999Z</time></trkpt><trkpt lat="37.89771264528796" lon="14.943579078590878"><ele>902.0</ele><time>2026-04-29T09:00:08.999Z</time></trkpt><trkpt lat="37.89764136876825" lon="14.943600253033763"><ele>902.0000000000001</ele><time>2026-04-29T09:00:09.999Z</time></trkpt><trkpt lat="37.897579375016434" lon="14.94361712538194"><ele>902.0</ele><time>2026-04-29T09:00:10.999Z</time></trkpt><trkpt lat="37.89746425598762" lon="14.943656348012668"><ele>900.0</ele><time>2026-04-29T09:00:12.999Z</time></trkpt><trkpt lat="37.897405588850376" lon="14.94368590998136"><ele>898.0</ele><time>2026-04-29T09:00:13.999Z</time></trkpt><trkpt lat="37.89735196162514" lon="14.943732432199221"><ele>896.0</ele><time>2026-04-29T09:00:14.999Z</time></trkpt><trkpt lat="37.89732282598399" lon="14.943817699424123"><ele>894.0</ele><time>2026-04-29T09:00:15.999Z</time></trkpt><trkpt lat="37.89728966572868" lon="14.943893788207728"><ele>892.0</ele><time>2026-04-29T09:00:16.999Z</time></trkpt><trkpt lat="37.897232352563925" lon="14.943949643670956"><ele>890.0</ele><time>2026-04-29T09:00:17.999Z</time></trkpt><trkpt lat="37.89717574525089" lon="14.944001116059997"><ele>888.0</ele><time>2026-04-29T09:00:18.999Z</time></trkpt><trkpt lat="37.897113774314974" lon="14.944039524758317"><ele>888.0</ele><time>2026-04-29T09:00:19.999Z</time></trkpt><trkpt lat="37.897044568444336" lon="14.944085994040206"><ele>888.0</ele><time>2026-04-29T09:00:20.999Z</time></trkpt><trkpt lat="37.89697356591347" lon="14.944132873879726"><ele>888.0</ele><time>2026-04-29T09:00:21.999Z</time></trkpt><trkpt lat="37.896903723109176" lon="14.944176623228786"><ele>888.0</ele><time>2026-04-29T09:00:22.999Z</time></trkpt><trkpt lat="37.8968355308727" lon="14.944213885856893"><ele>888.0</ele><time>2026-04-29T09:00:23.999Z</time></trkpt><trkpt lat="37.89676465529459" lon="14.944239825262866"><ele>888.0</ele><time>2026-04-29T09:00:24.999Z</time></trkpt><trkpt lat="37.8966833896707" lon="14.944267455596721"><ele>886.1666666666666</ele><time>2026-04-29T09:00:25.999Z</time></trkpt><trkpt lat="37.89660582651358" lon="14.94430699219182"><ele>884.3333333333333</ele><time>2026-04-29T09:00:26.999Z</time></trkpt><trkpt lat="37.89653411125705" lon="14.944346455765615"><ele>882.5</ele><time>2026-04-29T09:00:27.999Z</time></trkpt><trkpt lat="37.89646421246537" lon="14.944382121570351"><ele>880.6666666666666</ele><time>2026-04-29T09:00:28.999Z</time></trkpt><trkpt lat="37.8963954877902" lon="14.944417188260623"><ele>878.8333333333333</ele><time>2026-04-29T09:00:29.999Z</time></trkpt><trkpt lat="37.89632381994373" lon="14.944445455022583"><ele>877.0</ele><time>2026-04-29T09:00:30.999Z</time></trkpt><trkpt lat="37.8962519324276" lon="14.944467238125236"><ele>876.9999999999999</ele><time>2026-04-29T09:00:31.999Z</time></trkpt><trkpt lat="37.89617649071185" lon="14.944477649067773"><ele>877.0</ele><time>2026-04-29T09:00:32.998Z</time></trkpt><trkpt lat="37.896106669718336" lon="14.944500356891952"><ele>877.0</ele><time>2026-04-29T09:00:33.998Z</time></trkpt><trkpt lat="37.89603377093431" lon="14.944542822858601"><ele>877.0</ele><time>2026-04-29T09:00:34.998Z</time></trkpt><trkpt lat="37.89597651022964" lon="14.944621641462316"><ele>876.9999999999999</ele><time>2026-04-29T09:00:35.998Z</time></trkpt><trkpt lat="37.895893435431766" lon="14.944650977035161"><ele>877.0</ele><time>2026-04-29T09:00:36.998Z</time></trkpt><trkpt lat="37.895831494315296" lon="14.944682489850774"><ele>875.5</ele><time>2026-04-29T09:00:37.998Z</time></trkpt><trkpt lat="37.895698428831096" lon="14.944677919392173"><ele>874.0</ele><time>2026-04-29T09:00:39.998Z</time></trkpt><trkpt lat="37.89560712637852" lon="14.944623364547516"><ele>872.5</ele><time>2026-04-29T09:00:40.998Z</time></trkpt><trkpt lat="37.89550585994436" lon="14.944564263477913"><ele>871.0</ele><time>2026-04-29T09:00:41.999Z</time></trkpt><trkpt lat="37.8954012514739" lon="14.944537040128004"><ele>871.0</ele><time>2026-04-29T09:00:42.999Z</time></trkpt><trkpt lat="37.89530051495036" lon="14.944529476080135"><ele>870.9999999999999</ele><time>2026-04-29T09:00:43.999Z</time></trkpt><trkpt lat="37.89519609013905" lon="14.944550870963111"><ele>870.9999999999999</ele><time>2026-04-29T09:00:44.999Z</time></trkpt><trkpt lat="37.895082240755556" lon="14.94456360138705"><ele>871.0</ele><time>2026-04-29T09:00:45.999Z</time></trkpt><trkpt lat="37.89496955249609" lon="14.944542306327163"><ele>871.0</ele><time>2026-04-29T09:00:46.999Z</time></trkpt><trkpt lat="37.89485457875196" lon="14.944539553340189"><ele>870.4</ele><time>2026-04-29T09:00:47.999Z</time></trkpt><trkpt lat="37.89476616135075" lon="14.944577182895701"><ele>869.8</ele><time>2026-04-29T09:00:48.999Z</time></trkpt><trkpt lat="37.89470544555325" lon="14.944621511724097"><ele>869.1999999999999</ele><time>2026-04-29T09:00:49.999Z</time></trkpt><trkpt lat="37.894628603637955" lon="14.944692981140026"><ele>868.5999999999999</ele><time>2026-04-29T09:00:50.999Z</time></trkpt><trkpt lat="37.89452338308472" lon="14.94468968292482"><ele>868.0</ele><time>2026-04-29T09:00:51.999Z</time></trkpt><trkpt lat="37.894438638961255" lon="14.94472550551473"><ele>868.0</ele><time>2026-04-29T09:00:52.999Z</time></trkpt><trkpt lat="37.89437157794833" lon="14.944790051276263"><ele>868.0</ele><time>2026-04-29T09:00:53.999Z</time></trkpt><trkpt lat="37.89428796772131" lon="14.944864716551917"><ele>868.0</ele><time>2026-04-29T09:00:54.999Z</time></trkpt><trkpt lat="37.89418998650395" lon="14.944958133200064"><ele>868.0</ele><time>2026-04-29T09:00:55.999Z</time></trkpt><trkpt lat="37.89407780917035" lon="14.945026988726978"><ele>868.0</ele><time>2026-04-29T09:00:56.999Z</time></trkpt><trkpt lat="37.89395334367714" lon="14.94509027191412"><ele>869.25</ele><time>2026-04-29T09:00:57.999Z</time></trkpt><trkpt lat="37.89381077547254" lon="14.945150665658007"><ele>870.5</ele><time>2026-04-29T09:00:58.999Z</time></trkpt><trkpt lat="37.89370110972891" lon="14.945187749233112"><ele>871.75</ele><time>2026-04-29T09:00:59.999Z</time></trkpt><trkpt lat="37.893601301933316" lon="14.945200637159337"><ele>873.0</ele><time>2026-04-29T09:01:00.999Z</time></trkpt><trkpt lat="37.89349789414393" lon="14.945196050069548"><ele>871.25</ele><time>2026-04-29T09:01:01.999Z</time></trkpt><trkpt lat="37.89337587752964" lon="14.945193120261878"><ele>869.5</ele><time>2026-04-29T09:01:02.999Z</time></trkpt><trkpt lat="37.89324418153141" lon="14.945188808277651"><ele>867.75</ele><time>2026-04-29T09:01:03.999Z</time></trkpt><trkpt lat="37.89312318562555" lon="14.945180373047275"><ele>866.0</ele><time>2026-04-29T09:01:04.999Z</time></trkpt><trkpt lat="37.8930464868996" lon="14.945183417247662"><ele>866.0</ele><time>2026-04-29T09:01:05.999Z</time></trkpt><trkpt lat="37.89293977018308" lon="14.94523268843009"><ele>865.9999999999999</ele><time>2026-04-29T09:01:06.999Z</time></trkpt><trkpt lat="37.89283883151006" lon="14.94527623742605"><ele>865.9999999999999</ele><time>2026-04-29T09:01:07.999Z</time></trkpt><trkpt lat="37.892754070683" lon="14.945320950341866"><ele>866.0</ele><time>2026-04-29T09:01:08.999Z</time></trkpt><trkpt lat="37.892676278829576" lon="14.945370521586339"><ele>866.0</ele><time>2026-04-29T09:01:09.999Z</time></trkpt><trkpt lat="37.89259135072634" lon="14.945374283545304"><ele>863.75</ele><time>2026-04-29T09:01:10.999Z</time></trkpt><trkpt lat="37.89248774231167" lon="14.945359216909887"><ele>861.5</ele><time>2026-04-29T09:01:11.999Z</time></trkpt><trkpt lat="37.892358366506386" lon="14.945329370160119"><ele>859.25</ele><time>2026-04-29T09:01:12.999Z</time></trkpt><trkpt lat="37.892244225805804" lon="14.945283273334633"><ele>857.0</ele><time>2026-04-29T09:01:13.999Z</time></trkpt><trkpt lat="37.89213166434329" lon="14.945259497572236"><ele>857.0000000000001</ele><time>2026-04-29T09:01:14.999Z</time></trkpt><trkpt lat="37.89204846830689" lon="14.94528984330914"><ele>857.0</ele><time>2026-04-29T09:01:15.999Z</time></trkpt><trkpt lat="37.89197736028777" lon="14.945293971977371"><ele>857.0</ele><time>2026-04-29T09:01:16.999Z</time></trkpt><trkpt lat="37.891877324863216" lon="14.945273335040394"><ele>857.0</ele><time>2026-04-29T09:01:18.999Z</time></trkpt><trkpt lat="37.891808140108445" lon="14.94527050858684"><ele>857.0000000000001</ele><time>2026-04-29T09:01:21.999Z</time></trkpt><trkpt lat="37.89172788475174" lon="14.94526840723375"><ele>857.0</ele><time>2026-04-29T09:01:23.999Z</time></trkpt><trkpt lat="37.89166367327593" lon="14.945269854478344"><ele>858.2</ele><time>2026-04-29T09:01:24.999Z</time></trkpt><trkpt lat="37.8915907388688" lon="14.945274792793832"><ele>859.4000000000001</ele><time>2026-04-29T09:01:25.999Z</time></trkpt><trkpt lat="37.89152788856738" lon="14.945288767021818"><ele>860.5999999999999</ele><time>2026-04-29T09:01:26.999Z</time></trkpt><trkpt lat="37.8914184553311" lon="14.945276778267157"><ele>861.8</ele><time>2026-04-29T09:01:28.999Z</time></trkpt><trkpt lat="37.89131604316864" lon="14.945242174747952"><ele>863.0</ele><time>2026-04-29T09:01:30.999Z</time></trkpt><trkpt lat="37.89121748464776" lon="14.94520613957609"><ele>863.0000000000001</ele><time>2026-04-29T09:01:32.999Z</time></trkpt><trkpt lat="37.891132203885995" lon="14.94518184226683"><ele>863.0</ele><time>2026-04-29T09:01:34.999Z</time></trkpt><trkpt lat="37.89103900935529" lon="14.945179775021325"><ele>863.0</ele><time>2026-04-29T09:01:36.999Z</time></trkpt><trkpt lat="37.8909436994865" lon="14.94517441394097"><ele>863.0</ele><time>2026-04-29T09:01:38.999Z</time></trkpt><trkpt lat="37.890864815891625" lon="14.945182842909812"><ele>863.0000000000001</ele><time>2026-04-29T09:01:40.999Z</time></trkpt><trkpt lat="37.8908002329923" lon="14.945242296054772"><ele>863.0</ele><time>2026-04-29T09:04:05Z</time></trkpt><trkpt lat="37.89069358365523" lon="14.945283259470244"><ele>862.5999999999999</ele><time>2026-04-29T09:04:07Z</time></trkpt><trkpt lat="37.89063386797471" lon="14.94532484220119"><ele>862.1999999999999</ele><time>2026-04-29T09:04:08Z</time></trkpt><trkpt lat="37.89054471009945" lon="14.945407655533202"><ele>861.8</ele><time>2026-04-29T09:04:10Z</time></trkpt><trkpt lat="37.890458360063455" lon="14.945487081006926"><ele>861.4</ele><time>2026-04-29T09:04:12Z</time></trkpt><trkpt lat="37.89038979216636" lon="14.945539934804122"><ele>861.0</ele><time>2026-04-29T09:04:14Z</time></trkpt><trkpt lat="37.89029496145486" lon="14.945594274310345"><ele>861.0</ele><time>2026-04-29T09:04:16Z</time></trkpt><trkpt lat="37.89021900180218" lon="14.945653339469741"><ele>861.0</ele><time>2026-04-29T09:04:18Z</time></trkpt><trkpt lat="37.89014483414943" lon="14.945694114925022"><ele>861.0</ele><time>2026-04-29T09:04:20Z</time></trkpt><trkpt lat="37.8900712535578" lon="14.945751847526678"><ele>861.0</ele><time>2026-04-29T09:04:23Z</time></trkpt><trkpt lat="37.88999906905237" lon="14.945790642129047"><ele>861.0</ele><time>2026-04-29T09:04:26Z</time></trkpt><trkpt lat="37.8899283806189" lon="14.945770792312798"><ele>861.0</ele><time>2026-04-29T09:04:29Z</time></trkpt><trkpt lat="37.8897811356367" lon="14.945724560639363"><ele>860.0</ele><time>2026-04-29T09:06:50.001Z</time></trkpt><trkpt lat="37.889686844160124" lon="14.945709996915381"><ele>858.9999999999999</ele><time>2026-04-29T09:06:51Z</time></trkpt><trkpt lat="37.889587793166264" lon="14.94568379654506"><ele>857.9999999999999</ele><time>2026-04-29T09:06:52.001Z</time></trkpt><trkpt lat="37.88951750101648" lon="14.945600231244775"><ele>857.0</ele><time>2026-04-29T09:06:53.001Z</time></trkpt><trkpt lat="37.88946551322162" lon="14.94550340602259"><ele>856.0</ele><time>2026-04-29T09:06:54.001Z</time></trkpt><trkpt lat="37.889385681291806" lon="14.945450256220022"><ele>856.0</ele><time>2026-04-29T09:06:55.001Z</time></trkpt><trkpt lat="37.88931517238183" lon="14.945385856665094"><ele>855.9999999999999</ele><time>2026-04-29T09:06:56.001Z</time></trkpt><trkpt lat="37.88925925771747" lon="14.94530979163831"><ele>855.9999999999999</ele><time>2026-04-29T09:06:57.001Z</time></trkpt><trkpt lat="37.889214394788794" lon="14.945214754168305"><ele>856.0</ele><time>2026-04-29T09:06:58.001Z</time></trkpt><trkpt lat="37.889180041924945" lon="14.94510300654907"><ele>856.0</ele><time>2026-04-29T09:06:59.001Z</time></trkpt><trkpt lat="37.88915232042503" lon="14.9449700256754"><ele>853.3333333333333</ele><time>2026-04-29T09:07:00Z</time></trkpt><trkpt lat="37.88911707042991" lon="14.944853664069251"><ele>850.6666666666666</ele><time>2026-04-29T09:07:01Z</time></trkpt><trkpt lat="37.88908039294324" lon="14.944776388930759"><ele>848.0</ele><time>2026-04-29T09:07:02Z</time></trkpt><trkpt lat="37.88900522428324" lon="14.944717954393425"><ele>845.3333333333333</ele><time>2026-04-29T09:07:03Z</time></trkpt><trkpt lat="37.88892431535194" lon="14.944687063384857"><ele>842.6666666666666</ele><time>2026-04-29T09:07:04Z</time></trkpt><trkpt lat="37.88884540944279" lon="14.944724586898298"><ele>840.0</ele><time>2026-04-29T09:07:05Z</time></trkpt><trkpt lat="37.888758686125094" lon="14.944824432913688"><ele>840.0</ele><time>2026-04-29T09:07:07Z</time></trkpt><trkpt lat="37.88869756742595" lon="14.944928355748376"><ele>840.0</ele><time>2026-04-29T09:07:08Z</time></trkpt><trkpt lat="37.88860609745687" lon="14.9450371120384"><ele>840.0</ele><time>2026-04-29T09:07:09Z</time></trkpt><trkpt lat="37.88849173451232" lon="14.945086740476633"><ele>840.0</ele><time>2026-04-29T09:07:10Z</time></trkpt><trkpt lat="37.888372540905294" lon="14.945175185123867"><ele>842.8</ele><time>2026-04-29T09:07:11Z</time></trkpt><trkpt lat="37.88825642932252" lon="14.945246643396704"><ele>845.6</ele><time>2026-04-29T09:07:12Z</time></trkpt><trkpt lat="37.8881679990942" lon="14.945271810253537"><ele>848.4000000000001</ele><time>2026-04-29T09:07:13Z</time></trkpt><trkpt lat="37.8880752179955" lon="14.945321761056727"><ele>851.2</ele><time>2026-04-29T09:07:14Z</time></trkpt><trkpt lat="37.887977871673364" lon="14.94536757617752"><ele>854.0</ele><time>2026-04-29T09:07:15Z</time></trkpt><trkpt lat="37.88785424349259" lon="14.945389176514361"><ele>854.0</ele><time>2026-04-29T09:07:16Z</time></trkpt><trkpt lat="37.88774318095168" lon="14.94539242591979"><ele>854.0</ele><time>2026-04-29T09:07:17Z</time></trkpt><trkpt lat="37.88761345238946" lon="14.945417385033656"><ele>854.0</ele><time>2026-04-29T09:07:18Z</time></trkpt><trkpt lat="37.88749171411577" lon="14.9454395703934"><ele>854.0</ele><time>2026-04-29T09:07:19Z</time></trkpt><trkpt lat="37.88739015471946" lon="14.94543965501608"><ele>851.4000000000001</ele><time>2026-04-29T09:07:20Z</time></trkpt><trkpt lat="37.88728413223719" lon="14.945408291035287"><ele>848.8000000000001</ele><time>2026-04-29T09:07:21Z</time></trkpt><trkpt lat="37.88717793014074" lon="14.945397360860719"><ele>846.2</ele><time>2026-04-29T09:07:22Z</time></trkpt><trkpt lat="37.887063071232404" lon="14.945396845283495"><ele>843.5999999999999</ele><time>2026-04-29T09:07:23Z</time></trkpt><trkpt lat="37.88695412151723" lon="14.945393404333021"><ele>841.0</ele><time>2026-04-29T09:07:24Z</time></trkpt><trkpt lat="37.88685040392687" lon="14.945391116306972"><ele>840.9999999999999</ele><time>2026-04-29T09:07:25Z</time></trkpt><trkpt lat="37.88676189842618" lon="14.945401968496931"><ele>841.0</ele><time>2026-04-29T09:07:26Z</time></trkpt><trkpt lat="37.88667205637738" lon="14.94543240260579"><ele>841.0</ele><time>2026-04-29T09:07:27Z</time></trkpt><trkpt lat="37.88659647109759" lon="14.94546860480569"><ele>841.0</ele><time>2026-04-29T09:07:28Z</time></trkpt><trkpt lat="37.8865254211041" lon="14.945477338995664"><ele>840.9999999999999</ele><time>2026-04-29T09:07:29Z</time></trkpt><trkpt lat="37.88646004665126" lon="14.945485181163935"><ele>841.0</ele><time>2026-04-29T09:07:30Z</time></trkpt><trkpt lat="37.886395882593" lon="14.945468322942784"><ele>838.5999999999999</ele><time>2026-04-29T09:07:31Z</time></trkpt><trkpt lat="37.88633265205831" lon="14.945423994067525"><ele>836.2</ele><time>2026-04-29T09:07:32Z</time></trkpt><trkpt lat="37.88628169506631" lon="14.945362412033754"><ele>833.8</ele><time>2026-04-29T09:07:33Z</time></trkpt><trkpt lat="37.88623163807283" lon="14.945278997735507"><ele>831.4000000000001</ele><time>2026-04-29T09:07:34Z</time></trkpt><trkpt lat="37.88616494424292" lon="14.94517720735623"><ele>829.0</ele><time>2026-04-29T09:07:35Z</time></trkpt><trkpt lat="37.88607840975185" lon="14.945034684105861"><ele>822.6666666666666</ele><time>2026-04-29T09:07:36Z</time></trkpt><trkpt lat="37.88595729001886" lon="14.944865739642825"><ele>816.3333333333333</ele><time>2026-04-29T09:07:37Z</time></trkpt><trkpt lat="37.88581805171951" lon="14.94473414695987"><ele>810.0</ele><time>2026-04-29T09:07:38Z</time></trkpt><trkpt lat="37.885680803926455" lon="14.94463030267269"><ele>810.0</ele><time>2026-04-29T09:07:39Z</time></trkpt><trkpt lat="37.88556348175931" lon="14.944523843563477"><ele>810.0</ele><time>2026-04-29T09:07:40Z</time></trkpt><trkpt lat="37.88547943606911" lon="14.944418202423549"><ele>810.0</ele><time>2026-04-29T09:07:41Z</time></trkpt><trkpt lat="37.88542159653465" lon="14.944305621501385"><ele>810.0</ele><time>2026-04-29T09:07:42.001Z</time></trkpt><trkpt lat="37.88538726927604" lon="14.94416321865512"><ele>807.0</ele><time>2026-04-29T09:07:43.001Z</time></trkpt><trkpt lat="37.885335111944634" lon="14.944038678723672"><ele>804.0</ele><time>2026-04-29T09:07:44.001Z</time></trkpt><trkpt lat="37.8852611643704" lon="14.943929591213582"><ele>801.0</ele><time>2026-04-29T09:07:45.001Z</time></trkpt><trkpt lat="37.885166249545" lon="14.943834302320473"><ele>798.0</ele><time>2026-04-29T09:07:46.001Z</time></trkpt><trkpt lat="37.88508406881899" lon="14.94374797406038"><ele>798.0</ele><time>2026-04-29T09:07:47.001Z</time></trkpt><trkpt lat="37.885015854492075" lon="14.943674925664341"><ele>798.0</ele><time>2026-04-29T09:07:48.001Z</time></trkpt><trkpt lat="37.88494509611841" lon="14.943610631160519"><ele>798.0</ele><time>2026-04-29T09:07:49.001Z</time></trkpt><trkpt lat="37.884881063788924" lon="14.943561646759516"><ele>798.0</ele><time>2026-04-29T09:07:50.001Z</time></trkpt><trkpt lat="37.88479647760313" lon="14.943528845869539"><ele>798.0</ele><time>2026-04-29T09:07:51.001Z</time></trkpt><trkpt lat="37.88468521725025" lon="14.943548426967222"><ele>798.0</ele><time>2026-04-29T09:07:52.001Z</time></trkpt><trkpt lat="37.884587100590146" lon="14.943521147416073"><ele>798.0</ele><time>2026-04-29T09:07:53.001Z</time></trkpt><trkpt lat="37.88452007046563" lon="14.943485786374305"><ele>798.0</ele><time>2026-04-29T09:07:54.001Z</time></trkpt><trkpt lat="37.884441876763574" lon="14.943436371951996"><ele>798.0</ele><time>2026-04-29T09:07:55.001Z</time></trkpt><trkpt lat="37.88435414613201" lon="14.943374512004485"><ele>798.0</ele><time>2026-04-29T09:07:56.001Z</time></trkpt><trkpt lat="37.8842703836918" lon="14.94330843129933"><ele>795.1666666666666</ele><time>2026-04-29T09:07:57.001Z</time></trkpt><trkpt lat="37.88421155904069" lon="14.943250839878074"><ele>792.3333333333333</ele><time>2026-04-29T09:07:58.001Z</time></trkpt><trkpt lat="37.884164413794316" lon="14.943197711343975"><ele>789.5</ele><time>2026-04-29T09:07:59.001Z</time></trkpt><trkpt lat="37.88404966465305" lon="14.943120409567108"><ele>786.6666666666666</ele><time>2026-04-29T09:08:01.001Z</time></trkpt><trkpt lat="37.88398407702591" lon="14.943110117676111"><ele>783.8333333333333</ele><time>2026-04-29T09:08:02.001Z</time></trkpt><trkpt lat="37.88389705956977" lon="14.943187723480465"><ele>781.0</ele><time>2026-04-29T09:08:03.001Z</time></trkpt><trkpt lat="37.88383545768216" lon="14.943318548996029"><ele>780.8</ele><time>2026-04-29T09:08:04.001Z</time></trkpt><trkpt lat="37.883767960090275" lon="14.943424193208728"><ele>780.5999999999999</ele><time>2026-04-29T09:08:05.001Z</time></trkpt><trkpt lat="37.883684261100605" lon="14.9435010091834"><ele>780.4</ele><time>2026-04-29T09:08:06.001Z</time></trkpt><trkpt lat="37.883591545332486" lon="14.943565906656817"><ele>780.2</ele><time>2026-04-29T09:08:07.001Z</time></trkpt><trkpt lat="37.88350612876312" lon="14.943628290417628"><ele>780.0</ele><time>2026-04-29T09:08:08.001Z</time></trkpt><trkpt lat="37.88342436142572" lon="14.943693481581356"><ele>780.0</ele><time>2026-04-29T09:08:09.001Z</time></trkpt><trkpt lat="37.88334770307997" lon="14.9437634242178"><ele>780.0</ele><time>2026-04-29T09:08:10.001Z</time></trkpt><trkpt lat="37.883261485796865" lon="14.943831014495151"><ele>780.0</ele><time>2026-04-29T09:08:11.001Z</time></trkpt><trkpt lat="37.88316089557727" lon="14.943889377033189"><ele>780.0</ele><time>2026-04-29T09:08:12.001Z</time></trkpt><trkpt lat="37.883046105063634" lon="14.94393980237059"><ele>780.0</ele><time>2026-04-29T09:08:13.001Z</time></trkpt><trkpt lat="37.88292493947056" lon="14.94400164407119"><ele>780.0</ele><time>2026-04-29T09:08:14.001Z</time></trkpt><trkpt lat="37.88281271577617" lon="14.944065797642626"><ele>780.0</ele><time>2026-04-29T09:08:15.001Z</time></trkpt><trkpt lat="37.88272283759878" lon="14.944135168788348"><ele>780.0</ele><time>2026-04-29T09:08:16.001Z</time></trkpt><trkpt lat="37.88265872852662" lon="14.944230746293542"><ele>780.0</ele><time>2026-04-29T09:08:17.001Z</time></trkpt><trkpt lat="37.88260257014886" lon="14.944379698696881"><ele>776.75</ele><time>2026-04-29T09:08:18.001Z</time></trkpt><trkpt lat="37.882553569844454" lon="14.944571653896759"><ele>773.5</ele><time>2026-04-29T09:08:19.001Z</time></trkpt><trkpt lat="37.88252337846273" lon="14.944733756973996"><ele>770.25</ele><time>2026-04-29T09:08:20.001Z</time></trkpt><trkpt lat="37.88249408323412" lon="14.944852444852026"><ele>767.0</ele><time>2026-04-29T09:08:21.001Z</time></trkpt><trkpt lat="37.88244080566939" lon="14.94494248936929"><ele>767.0</ele><time>2026-04-29T09:08:22.001Z</time></trkpt><trkpt lat="37.88233801142307" lon="14.944980175756681"><ele>767.0</ele><time>2026-04-29T09:08:23.001Z</time></trkpt><trkpt lat="37.88222136691513" lon="14.94505831370055"><ele>767.0</ele><time>2026-04-29T09:08:24.001Z</time></trkpt><trkpt lat="37.88210870159697" lon="14.94512906841273"><ele>767.0</ele><time>2026-04-29T09:08:25.001Z</time></trkpt><trkpt lat="37.882043209893986" lon="14.945256654703238"><ele>769.0</ele><time>2026-04-29T09:08:26.001Z</time></trkpt><trkpt lat="37.88199751536409" lon="14.945396757409922"><ele>771.0</ele><time>2026-04-29T09:08:27.001Z</time></trkpt><trkpt lat="37.881951986722505" lon="14.945562762988798"><ele>773.0</ele><time>2026-04-29T09:08:28.001Z</time></trkpt><trkpt lat="37.88189263222653" lon="14.945755489500652"><ele>775.0</ele><time>2026-04-29T09:08:29.001Z</time></trkpt><trkpt lat="37.88183067978873" lon="14.945929415688802"><ele>777.75</ele><time>2026-04-29T09:08:30.001Z</time></trkpt><trkpt lat="37.88177990041846" lon="14.946076331978357"><ele>780.5</ele><time>2026-04-29T09:08:31.001Z</time></trkpt><trkpt lat="37.88172378052362" lon="14.946200437682855"><ele>783.25</ele><time>2026-04-29T09:08:32.001Z</time></trkpt><trkpt lat="37.881662520402074" lon="14.94631241068909"><ele>786.0</ele><time>2026-04-29T09:08:33.001Z</time></trkpt><trkpt lat="37.88158638216995" lon="14.946419799655509"><ele>780.8</ele><time>2026-04-29T09:08:34.001Z</time></trkpt><trkpt lat="37.88152108925595" lon="14.9465574440115"><ele>775.5999999999999</ele><time>2026-04-29T09:08:35.001Z</time></trkpt><trkpt lat="37.88147675829326" lon="14.946688109983638"><ele>770.4</ele><time>2026-04-29T09:08:36.001Z</time></trkpt><trkpt lat="37.88144366916902" lon="14.946810148729979"><ele>765.2</ele><time>2026-04-29T09:08:37.001Z</time></trkpt><trkpt lat="37.881418963845654" lon="14.946910957470175"><ele>760.0</ele><time>2026-04-29T09:08:38.001Z</time></trkpt><trkpt lat="37.88141588280074" lon="14.947002673056856"><ele>758.0</ele><time>2026-04-29T09:08:39.001Z</time></trkpt><trkpt lat="37.88145662031534" lon="14.947137097678455"><ele>756.0</ele><time>2026-04-29T09:08:40.001Z</time></trkpt><trkpt lat="37.881519532548545" lon="14.947277673258064"><ele>754.0</ele><time>2026-04-29T09:08:41.001Z</time></trkpt><trkpt lat="37.88158557075878" lon="14.947406554990641"><ele>752.0</ele><time>2026-04-29T09:08:42.001Z</time></trkpt><trkpt lat="37.881627325207305" lon="14.947540251814468"><ele>752.0</ele><time>2026-04-29T09:08:43.001Z</time></trkpt><trkpt lat="37.881646203628804" lon="14.947696369154267"><ele>752.0</ele><time>2026-04-29T09:08:44.001Z</time></trkpt><trkpt lat="37.88164172392568" lon="14.947853158952446"><ele>752.0</ele><time>2026-04-29T09:08:45.001Z</time></trkpt><trkpt lat="37.88162757674442" lon="14.948005417216185"><ele>752.0</ele><time>2026-04-29T09:08:46.001Z</time></trkpt><trkpt lat="37.88161678055173" lon="14.948156750983104"><ele>752.0</ele><time>2026-04-29T09:08:47.001Z</time></trkpt><trkpt lat="37.88162739663412" lon="14.948293214391661"><ele>752.0</ele><time>2026-04-29T09:08:48.001Z</time></trkpt><trkpt lat="37.88165532210563" lon="14.948407273604802"><ele>752.0</ele><time>2026-04-29T09:08:49.001Z</time></trkpt><trkpt lat="37.88169950809981" lon="14.948536262220172"><ele>752.0</ele><time>2026-04-29T09:08:51.001Z</time></trkpt><trkpt lat="37.88173757899932" lon="14.948667362170381"><ele>752.0</ele><time>2026-04-29T09:08:53.001Z</time></trkpt><trkpt lat="37.88162770631796" lon="14.948806675006704"><ele>753.0</ele><time>2026-04-29T09:08:54.001Z</time></trkpt><trkpt lat="37.881656015458134" lon="14.94894714329179"><ele>754.0</ele><time>2026-04-29T09:08:55.001Z</time></trkpt><trkpt lat="37.88173157342387" lon="14.949127155637758"><ele>755.0</ele><time>2026-04-29T09:08:56.001Z</time></trkpt><trkpt lat="37.88180103034729" lon="14.949287763004799"><ele>756.0</ele><time>2026-04-29T09:08:57.001Z</time></trkpt><trkpt lat="37.88185348289614" lon="14.949435446711403"><ele>756.0</ele><time>2026-04-29T09:08:58.001Z</time></trkpt><trkpt lat="37.881893687501496" lon="14.949572408196282"><ele>756.0</ele><time>2026-04-29T09:08:59.001Z</time></trkpt><trkpt lat="37.881927519540724" lon="14.949684860557019"><ele>756.0</ele><time>2026-04-29T09:09:00.001Z</time></trkpt><trkpt lat="37.88195796214079" lon="14.949785325260684"><ele>756.0</ele><time>2026-04-29T09:09:01.001Z</time></trkpt><trkpt lat="37.88196654090879" lon="14.949886028959353"><ele>756.0</ele><time>2026-04-29T09:09:02.001Z</time></trkpt><trkpt lat="37.88195325963705" lon="14.949973399493384"><ele>756.0</ele><time>2026-04-29T09:09:03.001Z</time></trkpt><trkpt lat="37.88192439217438" lon="14.950047985542618"><ele>753.0</ele><time>2026-04-29T09:09:04.001Z</time></trkpt><trkpt lat="37.8818671446358" lon="14.950097828752567"><ele>750.0</ele><time>2026-04-29T09:09:05.001Z</time></trkpt><trkpt lat="37.88178976953827" lon="14.950096481168718"><ele>747.0</ele><time>2026-04-29T09:09:06.001Z</time></trkpt><trkpt lat="37.88172023087496" lon="14.950038216295717"><ele>744.0</ele><time>2026-04-29T09:09:07.001Z</time></trkpt><trkpt lat="37.88168134672716" lon="14.949921492953406"><ele>741.0</ele><time>2026-04-29T09:09:08.001Z</time></trkpt><trkpt lat="37.88161138723619" lon="14.949835089395817"><ele>738.0</ele><time>2026-04-29T09:09:09.001Z</time></trkpt><trkpt lat="37.88155965491013" lon="14.949741346531901"><ele>738.0</ele><time>2026-04-29T09:09:10.001Z</time></trkpt><trkpt lat="37.881510017218936" lon="14.949657361603318"><ele>738.0</ele><time>2026-04-29T09:09:11.001Z</time></trkpt><trkpt lat="37.88146183449728" lon="14.949577806653215"><ele>738.0</ele><time>2026-04-29T09:09:12.001Z</time></trkpt><trkpt lat="37.881414047193374" lon="14.949498452147786"><ele>738.0</ele><time>2026-04-29T09:09:13.001Z</time></trkpt><trkpt lat="37.881369462658675" lon="14.949417086728001"><ele>738.0</ele><time>2026-04-29T09:09:14.001Z</time></trkpt><trkpt lat="37.881327633788295" lon="14.949350518922026"><ele>738.0</ele><time>2026-04-29T09:09:15.001Z</time></trkpt><trkpt lat="37.881287054388274" lon="14.949282787995347"><ele>738.0</ele><time>2026-04-29T09:09:16.001Z</time></trkpt><trkpt lat="37.88124064910844" lon="14.949213454153"><ele>738.0</ele><time>2026-04-29T09:09:17.001Z</time></trkpt><trkpt lat="37.88115600726165" lon="14.949093712498827"><ele>738.0</ele><time>2026-04-29T09:09:19.001Z</time></trkpt><trkpt lat="37.88106320709417" lon="14.949032959527946"><ele>738.0</ele><time>2026-04-29T09:09:21.001Z</time></trkpt><trkpt lat="37.880976414744886" lon="14.949164602361877"><ele>738.0</ele><time>2026-04-29T09:09:22.001Z</time></trkpt><trkpt lat="37.88095252282284" lon="14.94924515181213"><ele>738.0</ele><time>2026-04-29T09:09:23.001Z</time></trkpt><trkpt lat="37.88095725987999" lon="14.94932967568415"><ele>738.0</ele><time>2026-04-29T09:09:24.001Z</time></trkpt><trkpt lat="37.88098983382703" lon="14.949404724580688"><ele>738.0</ele><time>2026-04-29T09:09:25.001Z</time></trkpt><trkpt lat="37.88103668279183" lon="14.949484332828655"><ele>738.0</ele><time>2026-04-29T09:09:26.001Z</time></trkpt><trkpt lat="37.88109029519019" lon="14.949574761360651"><ele>738.0</ele><time>2026-04-29T09:09:27.001Z</time></trkpt><trkpt lat="37.881130301682965" lon="14.949665044590306"><ele>738.0</ele><time>2026-04-29T09:09:28.001Z</time></trkpt><trkpt lat="37.88116153126795" lon="14.949744113731853"><ele>738.0</ele><time>2026-04-29T09:09:29.001Z</time></trkpt><trkpt lat="37.88121412958207" lon="14.949890535165897"><ele>738.0</ele><time>2026-04-29T09:10:30.001Z</time></trkpt><trkpt lat="37.88125607504834" lon="14.950012217921705"><ele>738.0</ele><time>2026-04-29T09:10:31.001Z</time></trkpt><trkpt lat="37.88128082471736" lon="14.95015238993855"><ele>738.0</ele><time>2026-04-29T09:10:32.001Z</time></trkpt><trkpt lat="37.8812824532714" lon="14.950290059359338"><ele>733.5</ele><time>2026-04-29T09:10:33.001Z</time></trkpt><trkpt lat="37.88125772606564" lon="14.950417539498073"><ele>729.0</ele><time>2026-04-29T09:10:34.001Z</time></trkpt><trkpt lat="37.88120415723179" lon="14.9505584924411"><ele>724.5</ele><time>2026-04-29T09:10:35.001Z</time></trkpt><trkpt lat="37.8811447776569" lon="14.950695739251213"><ele>720.0</ele><time>2026-04-29T09:10:36.001Z</time></trkpt><trkpt lat="37.881097850945025" lon="14.950822461219405"><ele>720.2</ele><time>2026-04-29T09:10:37.001Z</time></trkpt><trkpt lat="37.88105810139668" lon="14.95094518627202"><ele>720.4</ele><time>2026-04-29T09:10:38.001Z</time></trkpt><trkpt lat="37.88101821463915" lon="14.951071987830769"><ele>720.5999999999999</ele><time>2026-04-29T09:10:39.001Z</time></trkpt><trkpt lat="37.880977730007274" lon="14.951201422297755"><ele>720.8</ele><time>2026-04-29T09:10:40.001Z</time></trkpt><trkpt lat="37.880935114038046" lon="14.951327804369713"><ele>721.0</ele><time>2026-04-29T09:10:41.001Z</time></trkpt><trkpt lat="37.88089042412522" lon="14.951458230988049"><ele>721.0</ele><time>2026-04-29T09:10:42.001Z</time></trkpt><trkpt lat="37.88084496324911" lon="14.951597782276956"><ele>721.0</ele><time>2026-04-29T09:10:43.001Z</time></trkpt><trkpt lat="37.8807965334514" lon="14.951745650997351"><ele>721.0</ele><time>2026-04-29T09:10:44.001Z</time></trkpt><trkpt lat="37.88074442106949" lon="14.951898390666368"><ele>721.0</ele><time>2026-04-29T09:10:45.001Z</time></trkpt><trkpt lat="37.880698814270886" lon="14.952047744619742"><ele>724.25</ele><time>2026-04-29T09:10:46.001Z</time></trkpt><trkpt lat="37.88067040855712" lon="14.952206712589359"><ele>727.5</ele><time>2026-04-29T09:10:47.001Z</time></trkpt><trkpt lat="37.8806635692007" lon="14.952389688508944"><ele>730.75</ele><time>2026-04-29T09:10:48.001Z</time></trkpt><trkpt lat="37.88065614004781" lon="14.952581155866795"><ele>734.0</ele><time>2026-04-29T09:10:49.001Z</time></trkpt><trkpt lat="37.88062658611479" lon="14.952754266137555"><ele>734.25</ele><time>2026-04-29T09:10:50.001Z</time></trkpt><trkpt lat="37.88057055862579" lon="14.952893652542398"><ele>734.5</ele><time>2026-04-29T09:10:51.001Z</time></trkpt><trkpt lat="37.880483572757555" lon="14.953007373860244"><ele>734.75</ele><time>2026-04-29T09:10:52.001Z</time></trkpt><trkpt lat="37.88038409021137" lon="14.953090512993109"><ele>735.0</ele><time>2026-04-29T09:10:53.001Z</time></trkpt><trkpt lat="37.880256656637" lon="14.953161901407947"><ele>735.0</ele><time>2026-04-29T09:10:54.001Z</time></trkpt><trkpt lat="37.88010424497083" lon="14.953209394265077"><ele>735.0</ele><time>2026-04-29T09:10:55.001Z</time></trkpt><trkpt lat="37.88000308308135" lon="14.95324885697868"><ele>735.0</ele><time>2026-04-29T09:10:56.001Z</time></trkpt><trkpt lat="37.87989509477513" lon="14.953244026375868"><ele>735.0</ele><time>2026-04-29T09:10:58.001Z</time></trkpt><trkpt lat="37.87979990520416" lon="14.953125074990808"><ele>736.1666666666666</ele><time>2026-04-29T09:11:00.001Z</time></trkpt><trkpt lat="37.879744791699316" lon="14.953061089738185"><ele>737.3333333333334</ele><time>2026-04-29T09:11:01.001Z</time></trkpt><trkpt lat="37.87969558048536" lon="14.953006339164881"><ele>738.5</ele><time>2026-04-29T09:11:02.001Z</time></trkpt><trkpt lat="37.87961195770232" lon="14.952919827177423"><ele>739.6666666666667</ele><time>2026-04-29T09:11:04.001Z</time></trkpt><trkpt lat="37.879551591423656" lon="14.95283113256418"><ele>740.8333333333334</ele><time>2026-04-29T09:11:06.001Z</time></trkpt><trkpt lat="37.87950604040423" lon="14.952767558526789"><ele>742.0</ele><time>2026-04-29T09:11:08.001Z</time></trkpt><trkpt lat="37.87944760339472" lon="14.952723660258552"><ele>742.0</ele><time>2026-04-29T09:11:11.001Z</time></trkpt><trkpt lat="37.87939830477217" lon="14.952668581771091"><ele>742.0</ele><time>2026-04-29T09:11:20.001Z</time></trkpt><trkpt lat="37.87933712678078" lon="14.952631290923742"><ele>742.0</ele><time>2026-04-29T09:12:21.001Z</time></trkpt><trkpt lat="37.87921290860219" lon="14.952504890904898"><ele>742.0</ele><time>2026-04-29T09:32:01.001Z</time></trkpt><trkpt lat="37.879162714321104" lon="14.952452332256499"><ele>742.0</ele><time>2026-04-29T09:32:02Z</time></trkpt><trkpt lat="37.87910924042004" lon="14.952395680280139"><ele>742.0</ele><time>2026-04-29T09:32:03Z</time></trkpt><trkpt lat="37.87906512197126" lon="14.952328772053422"><ele>742.8333333333334</ele><time>2026-04-29T09:32:04Z</time></trkpt><trkpt lat="37.879013167534836" lon="14.952268726798192"><ele>743.6666666666667</ele><time>2026-04-29T09:32:05Z</time></trkpt><trkpt lat="37.87896001535243" lon="14.952193510715565"><ele>744.5</ele><time>2026-04-29T09:32:06Z</time></trkpt><trkpt lat="37.878897664211394" lon="14.952126426915735"><ele>745.3333333333334</ele><time>2026-04-29T09:32:07Z</time></trkpt><trkpt lat="37.87883307794184" lon="14.952056938349694"><ele>746.1666666666666</ele><time>2026-04-29T09:32:08Z</time></trkpt><trkpt lat="37.87877223610619" lon="14.951991478426784"><ele>747.0</ele><time>2026-04-29T09:32:09Z</time></trkpt><trkpt lat="37.878700989724194" lon="14.95191369232484"><ele>747.0</ele><time>2026-04-29T09:32:10Z</time></trkpt><trkpt lat="37.87861711107723" lon="14.951820602958769"><ele>747.0</ele><time>2026-04-29T09:32:11Z</time></trkpt><trkpt lat="37.878538975919376" lon="14.951730107397816"><ele>747.0</ele><time>2026-04-29T09:32:12Z</time></trkpt><trkpt lat="37.87845945666136" lon="14.951638008151876"><ele>747.0</ele><time>2026-04-29T09:32:13Z</time></trkpt><trkpt lat="37.87831948809846" lon="14.95155175139189"><ele>748.25</ele><time>2026-04-29T09:32:14Z</time></trkpt><trkpt lat="37.87819594555539" lon="14.951396908014658"><ele>749.5</ele><time>2026-04-29T09:32:15Z</time></trkpt><trkpt lat="37.878099905619884" lon="14.951274194299756"><ele>750.75</ele><time>2026-04-29T09:32:16Z</time></trkpt><trkpt lat="37.8780198999704" lon="14.95117292074145"><ele>752.0</ele><time>2026-04-29T09:32:17Z</time></trkpt><trkpt lat="37.877975185152955" lon="14.951057901790886"><ele>752.0</ele><time>2026-04-29T09:32:18Z</time></trkpt><trkpt lat="37.87792468411763" lon="14.950992477234431"><ele>752.0</ele><time>2026-04-29T09:32:19Z</time></trkpt><trkpt lat="37.877868154000325" lon="14.950910182685337"><ele>752.0</ele><time>2026-04-29T09:32:21Z</time></trkpt><trkpt lat="37.87780859405057" lon="14.950797491147052"><ele>752.0</ele><time>2026-04-29T09:32:25Z</time></trkpt><trkpt lat="37.87778052731607" lon="14.95065941504386"><ele>752.0</ele><time>2026-04-29T09:32:27Z</time></trkpt><trkpt lat="37.87776604507981" lon="14.95056227006182"><ele>752.6666666666666</ele><time>2026-04-29T09:32:28Z</time></trkpt><trkpt lat="37.87774812258524" lon="14.95045154322047"><ele>753.3333333333333</ele><time>2026-04-29T09:32:29Z</time></trkpt><trkpt lat="37.877731790133424" lon="14.950355782914302"><ele>754.0</ele><time>2026-04-29T09:32:30Z</time></trkpt><trkpt lat="37.87771461926591" lon="14.95025351387491"><ele>754.6666666666666</ele><time>2026-04-29T09:32:31Z</time></trkpt><trkpt lat="37.87769689025225" lon="14.950149982316466"><ele>755.3333333333334</ele><time>2026-04-29T09:32:32Z</time></trkpt><trkpt lat="37.877677094259155" lon="14.950044681507359"><ele>756.0</ele><time>2026-04-29T09:32:33Z</time></trkpt><trkpt lat="37.87765477782808" lon="14.949925972546424"><ele>756.1666666666666</ele><time>2026-04-29T09:32:34Z</time></trkpt><trkpt lat="37.87763145481977" lon="14.949819424236027"><ele>756.3333333333334</ele><time>2026-04-29T09:32:35Z</time></trkpt><trkpt lat="37.877604855684815" lon="14.949730676018381"><ele>756.5</ele><time>2026-04-29T09:32:36Z</time></trkpt><trkpt lat="37.877574961215814" lon="14.9496603650351"><ele>756.6666666666667</ele><time>2026-04-29T09:32:37Z</time></trkpt><trkpt lat="37.87753086082283" lon="14.949560339954147"><ele>756.8333333333334</ele><time>2026-04-29T09:32:39Z</time></trkpt><trkpt lat="37.87754379192046" lon="14.949462424311864"><ele>757.0</ele><time>2026-04-29T09:32:41Z</time></trkpt><trkpt lat="37.87759361185987" lon="14.949377820545362"><ele>756.25</ele><time>2026-04-29T09:32:43Z</time></trkpt><trkpt lat="37.877600412792724" lon="14.949258479576574"><ele>755.5</ele><time>2026-04-29T09:32:46Z</time></trkpt><trkpt lat="37.87746670749436" lon="14.949126244249145"><ele>754.75</ele><time>2026-04-29T09:32:48Z</time></trkpt><trkpt lat="37.877417930229356" lon="14.948996213090549"><ele>754.0</ele><time>2026-04-29T09:32:50Z</time></trkpt><trkpt lat="37.87737253962745" lon="14.948896543729992"><ele>755.2</ele><time>2026-04-29T09:32:52Z</time></trkpt><trkpt lat="37.87733336834577" lon="14.94880729789424"><ele>756.4000000000001</ele><time>2026-04-29T09:32:54Z</time></trkpt><trkpt lat="37.87729000197416" lon="14.948693755273455"><ele>757.6</ele><time>2026-04-29T09:32:56Z</time></trkpt><trkpt lat="37.87722990931977" lon="14.948576421973952"><ele>758.8</ele><time>2026-04-29T09:32:58Z</time></trkpt><trkpt lat="37.87716301622531" lon="14.948464500375762"><ele>760.0</ele><time>2026-04-29T09:33:00Z</time></trkpt><trkpt lat="37.877102463679535" lon="14.94833854273888"><ele>760.25</ele><time>2026-04-29T09:33:02Z</time></trkpt><trkpt lat="37.87706269821104" lon="14.94819993069134"><ele>760.5</ele><time>2026-04-29T09:33:04Z</time></trkpt><trkpt lat="37.877023935652154" lon="14.948058301981519"><ele>760.75</ele><time>2026-04-29T09:33:06Z</time></trkpt><trkpt lat="37.87697926067175" lon="14.947920420235848"><ele>761.0</ele><time>2026-04-29T09:33:08Z</time></trkpt><trkpt lat="37.87692495364657" lon="14.947793624016883"><ele>761.0</ele><time>2026-04-29T09:33:10Z</time></trkpt><trkpt lat="37.87691238464707" lon="14.947678856513448"><ele>761.0</ele><time>2026-04-29T09:33:12Z</time></trkpt><trkpt lat="37.87703663160471" lon="14.947536505823841"><ele>761.0</ele><time>2026-04-29T09:33:14Z</time></trkpt><trkpt lat="37.87709174489108" lon="14.94743706035697"><ele>761.0</ele><time>2026-04-29T09:33:15Z</time></trkpt><trkpt lat="37.8771274078897" lon="14.947355816524492"><ele>761.0</ele><time>2026-04-29T09:33:16Z</time></trkpt><trkpt lat="37.877182628711665" lon="14.947280298618155"><ele>761.6666666666666</ele><time>2026-04-29T09:33:18Z</time></trkpt><trkpt lat="37.87732006042661" lon="14.947255475886328"><ele>762.3333333333333</ele><time>2026-04-29T09:33:20Z</time></trkpt><trkpt lat="37.87741033388201" lon="14.94724588492999"><ele>763.0</ele><time>2026-04-29T09:33:21Z</time></trkpt><trkpt lat="37.87748603387717" lon="14.947236660855198"><ele>763.6666666666666</ele><time>2026-04-29T09:33:22Z</time></trkpt><trkpt lat="37.877550928206574" lon="14.947231262609428"><ele>764.3333333333334</ele><time>2026-04-29T09:33:23Z</time></trkpt><trkpt lat="37.87761407274702" lon="14.947216657397872"><ele>765.0</ele><time>2026-04-29T09:33:24Z</time></trkpt><trkpt lat="37.87768156841222" lon="14.947180968076143"><ele>765.0000000000001</ele><time>2026-04-29T09:33:25Z</time></trkpt><trkpt lat="37.87774465554918" lon="14.947162887076908"><ele>765.0</ele><time>2026-04-29T09:33:26Z</time></trkpt><trkpt lat="37.87781749110634" lon="14.947142540829592"><ele>765.0</ele><time>2026-04-29T09:33:27Z</time></trkpt><trkpt lat="37.877893292675004" lon="14.947128071199362"><ele>765.0</ele><time>2026-04-29T09:33:28Z</time></trkpt><trkpt lat="37.877970138442876" lon="14.947143974676942"><ele>765.0</ele><time>2026-04-29T09:33:29Z</time></trkpt><trkpt lat="37.878041340599204" lon="14.947122512503906"><ele>765.0000000000001</ele><time>2026-04-29T09:33:30Z</time></trkpt><trkpt lat="37.87812194670049" lon="14.947130559366762"><ele>765.0</ele><time>2026-04-29T09:33:32Z</time></trkpt><trkpt lat="37.878198208659285" lon="14.947106946062759"><ele>765.0</ele><time>2026-04-29T09:33:38Z</time></trkpt><trkpt lat="37.87820170416916" lon="14.946925133788495"><ele>765.0</ele><time>2026-04-29T09:33:40Z</time></trkpt><trkpt lat="37.87818869947233" lon="14.946814777487152"><ele>765.0</ele><time>2026-04-29T09:33:41Z</time></trkpt><trkpt lat="37.878174480135904" lon="14.946720337896299"><ele>765.0</ele><time>2026-04-29T09:33:42Z</time></trkpt><trkpt lat="37.878154500799305" lon="14.946614859966143"><ele>765.0</ele><time>2026-04-29T09:33:43Z</time></trkpt><trkpt lat="37.878138297207926" lon="14.946512427816549"><ele>765.0</ele><time>2026-04-29T09:33:44Z</time></trkpt><trkpt lat="37.87811863951643" lon="14.946417910107641"><ele>765.0</ele><time>2026-04-29T09:33:45Z</time></trkpt><trkpt lat="37.878094664518414" lon="14.94626921248676"><ele>765.0</ele><time>2026-04-29T09:33:47Z</time></trkpt><trkpt lat="37.87807051798695" lon="14.94618744117852"><ele>765.0</ele><time>2026-04-29T09:33:49Z</time></trkpt><trkpt lat="37.87805325232743" lon="14.945981419338235"><ele>765.0</ele><time>2026-04-29T09:34:10Z</time></trkpt><trkpt lat="37.8780514450186" lon="14.945867315844117"><ele>765.0</ele><time>2026-04-29T09:34:11Z</time></trkpt><trkpt lat="37.878050412689404" lon="14.945772501151403"><ele>765.0</ele><time>2026-04-29T09:34:22Z</time></trkpt><trkpt lat="37.878045999341786" lon="14.945669745069347"><ele>765.0</ele><time>2026-04-29T09:34:26Z</time></trkpt><trkpt lat="37.87804010374124" lon="14.945581185173694"><ele>765.0</ele><time>2026-04-29T09:34:28Z</time></trkpt><trkpt lat="37.878031104404336" lon="14.94548177092272"><ele>765.0</ele><time>2026-04-29T09:34:30Z</time></trkpt><trkpt lat="37.87801880461526" lon="14.945385940300037"><ele>765.0</ele><time>2026-04-29T09:34:32Z</time></trkpt><trkpt lat="37.87800475706655" lon="14.945281362733981"><ele>765.0</ele><time>2026-04-29T09:34:35Z</time></trkpt><trkpt lat="37.87797940624451" lon="14.945200117565436"><ele>765.0</ele><time>2026-04-29T09:34:37Z</time></trkpt><trkpt lat="37.877951896571936" lon="14.94504832781196"><ele>765.0</ele><time>2026-04-29T09:34:39Z</time></trkpt><trkpt lat="37.877927364817545" lon="14.944967042096195"><ele>765.0</ele><time>2026-04-29T09:34:40Z</time></trkpt><trkpt lat="37.8779326207615" lon="14.944878517133885"><ele>765.0</ele><time>2026-04-29T09:34:41Z</time></trkpt><trkpt lat="37.877948629491314" lon="14.94478087688856"><ele>765.0</ele><time>2026-04-29T09:34:42Z</time></trkpt><trkpt lat="37.8779603376555" lon="14.944684494051266"><ele>765.1666666666666</ele><time>2026-04-29T09:34:43Z</time></trkpt><trkpt lat="37.87796738697697" lon="14.94458871497525"><ele>765.3333333333334</ele><time>2026-04-29T09:34:44Z</time></trkpt><trkpt lat="37.87797749509897" lon="14.944496234550693"><ele>765.5</ele><time>2026-04-29T09:34:45Z</time></trkpt><trkpt lat="37.87798651076128" lon="14.94441317743175"><ele>765.6666666666667</ele><time>2026-04-29T09:34:46Z</time></trkpt><trkpt lat="37.87798929043607" lon="14.944325830290316"><ele>765.8333333333334</ele><time>2026-04-29T09:34:47Z</time></trkpt><trkpt lat="37.87798559381342" lon="14.944184240010706"><ele>766.0</ele><time>2026-04-29T09:34:49Z</time></trkpt><trkpt lat="37.87799867672207" lon="14.944098813301371"><ele>765.5999999999999</ele><time>2026-04-29T09:34:51Z</time></trkpt><trkpt lat="37.87799624197744" lon="14.944012711522973"><ele>765.2</ele><time>2026-04-29T09:34:53Z</time></trkpt><trkpt lat="37.87792981354621" lon="14.943848808910182"><ele>764.8</ele><time>2026-04-29T09:34:55Z</time></trkpt><trkpt lat="37.877862668133865" lon="14.943777662427605"><ele>764.4000000000001</ele><time>2026-04-29T09:34:56Z</time></trkpt><trkpt lat="37.87778138667651" lon="14.943735940928823"><ele>764.0</ele><time>2026-04-29T09:34:57Z</time></trkpt><trkpt lat="37.877720021293705" lon="14.94367789325716"><ele>764.0</ele><time>2026-04-29T09:34:58Z</time></trkpt><trkpt lat="37.87766462629039" lon="14.943630344918327"><ele>764.0</ele><time>2026-04-29T09:34:59Z</time></trkpt><trkpt lat="37.8776021176097" lon="14.94358553624642"><ele>764.0</ele><time>2026-04-29T09:35:00Z</time></trkpt><trkpt lat="37.877532790018805" lon="14.943536173508514"><ele>764.0</ele><time>2026-04-29T09:35:01Z</time></trkpt><trkpt lat="37.877467790677535" lon="14.943489696401205"><ele>764.0</ele><time>2026-04-29T09:35:02Z</time></trkpt><trkpt lat="37.877401604277814" lon="14.943447020916354"><ele>764.0</ele><time>2026-04-29T09:35:03Z</time></trkpt><trkpt lat="37.877344011076765" lon="14.94340948038225"><ele>764.0</ele><time>2026-04-29T09:35:04Z</time></trkpt><trkpt lat="37.877227814753915" lon="14.943339370305594"><ele>764.3333333333333</ele><time>2026-04-29T09:35:06Z</time></trkpt><trkpt lat="37.87716362855307" lon="14.943302455912189"><ele>764.6666666666666</ele><time>2026-04-29T09:35:07Z</time></trkpt><trkpt lat="37.87710611114783" lon="14.943269376786741"><ele>765.0</ele><time>2026-04-29T09:35:08Z</time></trkpt><trkpt lat="37.876992622359644" lon="14.943199214642505"><ele>765.3333333333334</ele><time>2026-04-29T09:35:10Z</time></trkpt><trkpt lat="37.87693187123535" lon="14.943164284616934"><ele>765.6666666666667</ele><time>2026-04-29T09:35:11Z</time></trkpt><trkpt lat="37.876868875926654" lon="14.943143280847886"><ele>766.0</ele><time>2026-04-29T09:35:12Z</time></trkpt><trkpt lat="37.87680894128773" lon="14.943118388463999"><ele>766.0</ele><time>2026-04-29T09:35:13Z</time></trkpt><trkpt lat="37.876702706464414" lon="14.943061856528722"><ele>766.0</ele><time>2026-04-29T09:35:15Z</time></trkpt><trkpt lat="37.876624095747" lon="14.943079552803912"><ele>766.0</ele><time>2026-04-29T09:35:16Z</time></trkpt><trkpt lat="37.87656117188712" lon="14.943092625515124"><ele>766.0</ele><time>2026-04-29T09:35:17Z</time></trkpt><trkpt lat="37.8764879684021" lon="14.943104798805491"><ele>766.0</ele><time>2026-04-29T09:35:18Z</time></trkpt><trkpt lat="37.87641342263834" lon="14.943118625657537"><ele>766.0</ele><time>2026-04-29T09:35:19Z</time></trkpt><trkpt lat="37.8763299644257" lon="14.943134105597066"><ele>766.0</ele><time>2026-04-29T09:35:20Z</time></trkpt><trkpt lat="37.876240263728754" lon="14.943150897986408"><ele>766.0</ele><time>2026-04-29T09:35:21Z</time></trkpt><trkpt lat="37.87616278996785" lon="14.94316426900184"><ele>766.0</ele><time>2026-04-29T09:35:22Z</time></trkpt><trkpt lat="37.876090940555585" lon="14.943173945208809"><ele>766.0</ele><time>2026-04-29T09:35:23Z</time></trkpt><trkpt lat="37.875995886866676" lon="14.943186746581743"><ele>766.0</ele><time>2026-04-29T09:35:25Z</time></trkpt><trkpt lat="37.875981074643974" lon="14.943093395841535"><ele>766.0</ele><time>2026-04-29T09:35:27Z</time></trkpt><trkpt lat="37.87593117867767" lon="14.94296867808882"><ele>766.0</ele><time>2026-04-29T09:35:29Z</time></trkpt><trkpt lat="37.875958638977586" lon="14.942829988635996"><ele>766.0</ele><time>2026-04-29T09:35:30Z</time></trkpt><trkpt lat="37.875901772898594" lon="14.942740837416126"><ele>766.0</ele><time>2026-04-29T09:35:31Z</time></trkpt><trkpt lat="37.87586050535597" lon="14.942658301780858"><ele>766.0</ele><time>2026-04-29T09:35:32Z</time></trkpt><trkpt lat="37.875804840053625" lon="14.942590419370672"><ele>766.0</ele><time>2026-04-29T09:35:33Z</time></trkpt><trkpt lat="37.87581708090001" lon="14.94248228136195"><ele>766.0</ele><time>2026-04-29T09:35:34Z</time></trkpt><trkpt lat="37.87584345558447" lon="14.942353377994369"><ele>764.75</ele><time>2026-04-29T09:35:35Z</time></trkpt><trkpt lat="37.87588341575841" lon="14.942204576296644"><ele>763.5</ele><time>2026-04-29T09:35:36Z</time></trkpt><trkpt lat="37.875937925772874" lon="14.942059983367532"><ele>762.25</ele><time>2026-04-29T09:35:37Z</time></trkpt><trkpt lat="37.87595095336389" lon="14.941908207948867"><ele>761.0</ele><time>2026-04-29T09:35:38Z</time></trkpt><trkpt lat="37.875973270948904" lon="14.941778148525383"><ele>759.0</ele><time>2026-04-29T09:35:39Z</time></trkpt><trkpt lat="37.876005971218824" lon="14.941666942685607"><ele>757.0</ele><time>2026-04-29T09:35:40Z</time></trkpt><trkpt lat="37.876030005318434" lon="14.941567308904187"><ele>755.0</ele><time>2026-04-29T09:35:41Z</time></trkpt><trkpt lat="37.87605604645382" lon="14.941459865198453"><ele>753.0</ele><time>2026-04-29T09:35:42Z</time></trkpt><trkpt lat="37.87607204551345" lon="14.94133949994698"><ele>751.0</ele><time>2026-04-29T09:35:43Z</time></trkpt><trkpt lat="37.876095709039355" lon="14.941232727046708"><ele>749.0</ele><time>2026-04-29T09:35:44Z</time></trkpt><trkpt lat="37.876128825437064" lon="14.941134498263155"><ele>749.0</ele><time>2026-04-29T09:35:45Z</time></trkpt><trkpt lat="37.87615329458656" lon="14.941030320087503"><ele>749.0</ele><time>2026-04-29T09:35:46Z</time></trkpt><trkpt lat="37.87618866442556" lon="14.940944629255325"><ele>749.0</ele><time>2026-04-29T09:35:47Z</time></trkpt><trkpt lat="37.87621520974274" lon="14.9408409502276"><ele>749.0</ele><time>2026-04-29T09:35:48Z</time></trkpt><trkpt lat="37.87629933481292" lon="14.940779655597323"><ele>749.0</ele><time>2026-04-29T09:35:49Z</time></trkpt><trkpt lat="37.8763725896651" lon="14.940681133948225"><ele>749.0</ele><time>2026-04-29T09:35:50Z</time></trkpt><trkpt lat="37.87644537731543" lon="14.940560506266989"><ele>749.0</ele><time>2026-04-29T09:35:51Z</time></trkpt><trkpt lat="37.87653922424922" lon="14.940465907671738"><ele>749.0</ele><time>2026-04-29T09:35:52Z</time></trkpt><trkpt lat="37.8766162503029" lon="14.940367510251157"><ele>749.0</ele><time>2026-04-29T09:35:53Z</time></trkpt><trkpt lat="37.87669124690229" lon="14.940268446917688"><ele>749.0</ele><time>2026-04-29T09:35:54Z</time></trkpt><trkpt lat="37.87676771050523" lon="14.940164436948667"><ele>749.0</ele><time>2026-04-29T09:35:55Z</time></trkpt><trkpt lat="37.87684934164764" lon="14.940023269251697"><ele>749.0</ele><time>2026-04-29T09:35:56Z</time></trkpt><trkpt lat="37.87696108030923" lon="14.939881873741893"><ele>749.0</ele><time>2026-04-29T09:35:57Z</time></trkpt><trkpt lat="37.87705923387828" lon="14.939749535693737"><ele>751.2</ele><time>2026-04-29T09:35:58Z</time></trkpt><trkpt lat="37.87714030344952" lon="14.939648743436754"><ele>753.4000000000001</ele><time>2026-04-29T09:35:59Z</time></trkpt><trkpt lat="37.87720836552823" lon="14.939557258051853"><ele>755.6</ele><time>2026-04-29T09:36:00Z</time></trkpt><trkpt lat="37.87727475372871" lon="14.939470829680726"><ele>757.8</ele><time>2026-04-29T09:36:01Z</time></trkpt><trkpt lat="37.87729939174836" lon="14.939331991564096"><ele>760.0</ele><time>2026-04-29T09:36:02Z</time></trkpt><trkpt lat="37.87723764122929" lon="14.93915462199964"><ele>760.6</ele><time>2026-04-29T09:36:03Z</time></trkpt><trkpt lat="37.8772170115976" lon="14.938983995163392"><ele>761.2</ele><time>2026-04-29T09:36:04Z</time></trkpt><trkpt lat="37.87718900338179" lon="14.938845515511836"><ele>761.8</ele><time>2026-04-29T09:36:05Z</time></trkpt><trkpt lat="37.87716390233171" lon="14.938721409386561"><ele>762.4</ele><time>2026-04-29T09:36:06Z</time></trkpt><trkpt lat="37.87712838894964" lon="14.93861777826535"><ele>763.0</ele><time>2026-04-29T09:36:07Z</time></trkpt><trkpt lat="37.877119635965435" lon="14.938511098274311"><ele>763.0</ele><time>2026-04-29T09:36:08Z</time></trkpt><trkpt lat="37.87709508234589" lon="14.938400863077716"><ele>763.0</ele><time>2026-04-29T09:36:09Z</time></trkpt><trkpt lat="37.87706454702272" lon="14.938284743984013"><ele>763.0</ele><time>2026-04-29T09:36:10Z</time></trkpt><trkpt lat="37.87702784573649" lon="14.938160235640616"><ele>763.0</ele><time>2026-04-29T09:36:11Z</time></trkpt><trkpt lat="37.87698881298128" lon="14.938030308506614"><ele>763.0</ele><time>2026-04-29T09:36:12Z</time></trkpt><trkpt lat="37.87695051293841" lon="14.937893484457314"><ele>763.8</ele><time>2026-04-29T09:36:13Z</time></trkpt><trkpt lat="37.87691371459362" lon="14.937758390766442"><ele>764.5999999999999</ele><time>2026-04-29T09:36:14Z</time></trkpt><trkpt lat="37.87688040715233" lon="14.937654651194462"><ele>765.4000000000001</ele><time>2026-04-29T09:36:15Z</time></trkpt><trkpt lat="37.8768404089897" lon="14.937564792791987"><ele>766.2</ele><time>2026-04-29T09:36:16Z</time></trkpt><trkpt lat="37.876792483947185" lon="14.937480105515595"><ele>767.0</ele><time>2026-04-29T09:36:17Z</time></trkpt><trkpt lat="37.87671887613779" lon="14.937399130633512"><ele>767.0</ele><time>2026-04-29T09:36:18Z</time></trkpt><trkpt lat="37.87661460411792" lon="14.937348228122788"><ele>767.0</ele><time>2026-04-29T09:36:19Z</time></trkpt><trkpt lat="37.87651418731699" lon="14.937292543885475"><ele>767.0</ele><time>2026-04-29T09:36:20Z</time></trkpt><trkpt lat="37.87639405088344" lon="14.937255024873258"><ele>767.0</ele><time>2026-04-29T09:36:21Z</time></trkpt><trkpt lat="37.87626308611768" lon="14.937225803358528"><ele>767.0</ele><time>2026-04-29T09:36:22Z</time></trkpt><trkpt lat="37.87613220700814" lon="14.93719703129788"><ele>767.0</ele><time>2026-04-29T09:36:23Z</time></trkpt><trkpt lat="37.876025974152356" lon="14.937114558461996"><ele>767.0</ele><time>2026-04-29T09:36:24Z</time></trkpt><trkpt lat="37.87591333006987" lon="14.93704533733964"><ele>767.0</ele><time>2026-04-29T09:36:25Z</time></trkpt><trkpt lat="37.87580240776768" lon="14.936984846030692"><ele>767.8</ele><time>2026-04-29T09:36:26Z</time></trkpt><trkpt lat="37.87570046468721" lon="14.936906061951206"><ele>768.6</ele><time>2026-04-29T09:36:27Z</time></trkpt><trkpt lat="37.875625508401086" lon="14.93680949275718"><ele>769.4</ele><time>2026-04-29T09:36:28Z</time></trkpt><trkpt lat="37.87555838462971" lon="14.936722220461668"><ele>770.1999999999999</ele><time>2026-04-29T09:36:29Z</time></trkpt><trkpt lat="37.87551969909975" lon="14.936644052736458"><ele>771.0</ele><time>2026-04-29T09:36:30Z</time></trkpt><trkpt lat="37.875491588594834" lon="14.936562748637321"><ele>771.0</ele><time>2026-04-29T09:36:31Z</time></trkpt><trkpt lat="37.875472802653846" lon="14.936463522046036"><ele>771.0</ele><time>2026-04-29T09:36:32Z</time></trkpt><trkpt lat="37.87546473457297" lon="14.936355555641063"><ele>771.0</ele><time>2026-04-29T09:36:33Z</time></trkpt><trkpt lat="37.87546323800237" lon="14.936259231656758"><ele>771.0</ele><time>2026-04-29T09:36:34Z</time></trkpt><trkpt lat="37.87548946551237" lon="14.936171493645848"><ele>771.0</ele><time>2026-04-29T09:36:35Z</time></trkpt><trkpt lat="37.87547231326411" lon="14.936062032646463"><ele>771.0</ele><time>2026-04-29T09:36:36Z</time></trkpt><trkpt lat="37.87547206762659" lon="14.935959205365597"><ele>771.8333333333334</ele><time>2026-04-29T09:36:37Z</time></trkpt><trkpt lat="37.87547546015081" lon="14.935848509626078"><ele>772.6666666666667</ele><time>2026-04-29T09:36:38Z</time></trkpt><trkpt lat="37.875469316483" lon="14.935752290799819"><ele>773.5</ele><time>2026-04-29T09:36:39Z</time></trkpt><trkpt lat="37.87544232705863" lon="14.93566589480361"><ele>774.3333333333334</ele><time>2026-04-29T09:36:40Z</time></trkpt><trkpt lat="37.875373026429926" lon="14.935614776652361"><ele>775.1666666666667</ele><time>2026-04-29T09:36:41Z</time></trkpt><trkpt lat="37.87531546865947" lon="14.935577888462541"><ele>776.0</ele><time>2026-04-29T09:36:42Z</time></trkpt><trkpt lat="37.875236209178574" lon="14.935551552197376"><ele>776.0000000000001</ele><time>2026-04-29T09:36:43Z</time></trkpt><trkpt lat="37.87515547758741" lon="14.935517988682877"><ele>776.0</ele><time>2026-04-29T09:36:44Z</time></trkpt><trkpt lat="37.875108140843096" lon="14.935450238506146"><ele>776.0</ele><time>2026-04-29T09:36:45Z</time></trkpt><trkpt lat="37.87509702841853" lon="14.935370193991137"><ele>776.0</ele><time>2026-04-29T09:36:46Z</time></trkpt><trkpt lat="37.875097063518545" lon="14.93527402233064"><ele>776.0000000000001</ele><time>2026-04-29T09:36:47Z</time></trkpt><trkpt lat="37.875052326312215" lon="14.935125667221971"><ele>776.0</ele><time>2026-04-29T09:36:48Z</time></trkpt><trkpt lat="37.87500261472595" lon="14.934982419328922"><ele>775.4</ele><time>2026-04-29T09:36:49Z</time></trkpt><trkpt lat="37.87496320694267" lon="14.93485162841524"><ele>774.8</ele><time>2026-04-29T09:36:50Z</time></trkpt><trkpt lat="37.874950346667795" lon="14.934731235113862"><ele>774.1999999999999</ele><time>2026-04-29T09:36:51Z</time></trkpt><trkpt lat="37.8749455969808" lon="14.934612020915806"><ele>773.5999999999999</ele><time>2026-04-29T09:36:52Z</time></trkpt><trkpt lat="37.874948788061324" lon="14.9344653174143"><ele>773.0</ele><time>2026-04-29T09:36:53Z</time></trkpt><trkpt lat="37.87496464026814" lon="14.93432985126041"><ele>773.5999999999999</ele><time>2026-04-29T09:36:54Z</time></trkpt><trkpt lat="37.87498397199832" lon="14.934189026389546"><ele>774.1999999999999</ele><time>2026-04-29T09:36:55Z</time></trkpt><trkpt lat="37.87499943133973" lon="14.934046238120235"><ele>774.8</ele><time>2026-04-29T09:36:56Z</time></trkpt><trkpt lat="37.87500234981589" lon="14.933921618166032"><ele>775.4</ele><time>2026-04-29T09:36:57Z</time></trkpt><trkpt lat="37.87499038177282" lon="14.933801866724645"><ele>776.0</ele><time>2026-04-29T09:36:58Z</time></trkpt><trkpt lat="37.87497196116189" lon="14.933675496559438"><ele>776.0</ele><time>2026-04-29T09:36:59Z</time></trkpt><trkpt lat="37.87494299418592" lon="14.933545335774587"><ele>776.0</ele><time>2026-04-29T09:37:00Z</time></trkpt><trkpt lat="37.874892725383155" lon="14.933429441871146"><ele>776.0</ele><time>2026-04-29T09:37:01Z</time></trkpt><trkpt lat="37.87483501187603" lon="14.93332546391674"><ele>776.0</ele><time>2026-04-29T09:37:02Z</time></trkpt><trkpt lat="37.87475930944973" lon="14.933178905596165"><ele>776.8</ele><time>2026-04-29T09:37:03Z</time></trkpt><trkpt lat="37.87469527899356" lon="14.93305716388839"><ele>777.5999999999999</ele><time>2026-04-29T09:37:04Z</time></trkpt><trkpt lat="37.874645453745465" lon="14.93297523659831"><ele>778.4</ele><time>2026-04-29T09:37:05Z</time></trkpt><trkpt lat="37.874578259505356" lon="14.93290738257842"><ele>779.2</ele><time>2026-04-29T09:37:06Z</time></trkpt><trkpt lat="37.87451515893198" lon="14.93283278756837"><ele>780.0</ele><time>2026-04-29T09:37:07Z</time></trkpt><trkpt lat="37.8744534205456" lon="14.932753214775413"><ele>780.0</ele><time>2026-04-29T09:37:08Z</time></trkpt><trkpt lat="37.87439464675768" lon="14.932687404059696"><ele>780.0</ele><time>2026-04-29T09:37:09Z</time></trkpt><trkpt lat="37.874312168544236" lon="14.93258506121819"><ele>780.0</ele><time>2026-04-29T09:37:11Z</time></trkpt><trkpt lat="37.87426799597151" lon="14.932511927264715"><ele>780.0</ele><time>2026-04-29T09:37:12Z</time></trkpt><trkpt lat="37.87420884603714" lon="14.932423188195342"><ele>780.0</ele><time>2026-04-29T09:37:13Z</time></trkpt><trkpt lat="37.87415769444819" lon="14.93233691437461"><ele>780.0</ele><time>2026-04-29T09:37:14Z</time></trkpt><trkpt lat="37.87409302333737" lon="14.93222445997335"><ele>780.5</ele><time>2026-04-29T09:37:16Z</time></trkpt><trkpt lat="37.87407474650425" lon="14.932093676447806"><ele>781.0</ele><time>2026-04-29T09:37:18Z</time></trkpt><trkpt lat="37.87401228515117" lon="14.93206842818121"><ele>781.5</ele><time>2026-04-29T09:37:19Z</time></trkpt><trkpt lat="37.87396999348357" lon="14.93197222568863"><ele>782.0</ele><time>2026-04-29T09:37:21Z</time></trkpt><trkpt lat="37.873950382261945" lon="14.931880208645135"><ele>782.5</ele><time>2026-04-29T09:37:23Z</time></trkpt><trkpt lat="37.873908408218526" lon="14.931811799141613"><ele>783.0</ele><time>2026-04-29T09:37:26Z</time></trkpt><trkpt lat="37.873880418489684" lon="14.931679892213607"><ele>783.1666666666666</ele><time>2026-04-29T09:37:29Z</time></trkpt><trkpt lat="37.87386197651826" lon="14.931599664299174"><ele>783.3333333333333</ele><time>2026-04-29T09:37:30Z</time></trkpt><trkpt lat="37.87383074045493" lon="14.931502917282758"><ele>783.5</ele><time>2026-04-29T09:37:31Z</time></trkpt><trkpt lat="37.873782696987" lon="14.93141539952925"><ele>783.6666666666666</ele><time>2026-04-29T09:37:33Z</time></trkpt><trkpt lat="37.873702918866385" lon="14.93137251658876"><ele>783.8333333333333</ele><time>2026-04-29T09:37:45Z</time></trkpt><trkpt lat="37.87363025886142" lon="14.931355109545372"><ele>784.0</ele><time>2026-04-29T09:37:47Z</time></trkpt><trkpt lat="37.87354227625486" lon="14.93130606336822"><ele>784.0</ele><time>2026-04-29T09:37:49Z</time></trkpt><trkpt lat="37.87347473053452" lon="14.93123958795115"><ele>784.0</ele><time>2026-04-29T09:37:51Z</time></trkpt><trkpt lat="37.873495921740194" lon="14.931133576614279"><ele>784.0</ele><time>2026-04-29T09:37:52Z</time></trkpt><trkpt lat="37.873462670449776" lon="14.93102714096168"><ele>784.0</ele><time>2026-04-29T09:37:53Z</time></trkpt><trkpt lat="37.873410487560584" lon="14.930907167694743"><ele>784.0</ele><time>2026-04-29T09:37:54Z</time></trkpt><trkpt lat="37.87334919415581" lon="14.930796861614496"><ele>785.0</ele><time>2026-04-29T09:37:55Z</time></trkpt><trkpt lat="37.8732864192996" lon="14.930679230710266"><ele>786.0</ele><time>2026-04-29T09:37:56Z</time></trkpt><trkpt lat="37.87322535767124" lon="14.930574494528559"><ele>787.0</ele><time>2026-04-29T09:37:57Z</time></trkpt><trkpt lat="37.87316866396491" lon="14.93048296937885"><ele>788.0</ele><time>2026-04-29T09:37:58Z</time></trkpt><trkpt lat="37.87310833257751" lon="14.930388460762716"><ele>789.0</ele><time>2026-04-29T09:37:59Z</time></trkpt><trkpt lat="37.87303758428817" lon="14.930280692429003"><ele>789.0</ele><time>2026-04-29T09:38:00Z</time></trkpt><trkpt lat="37.87299003639688" lon="14.930185486368527"><ele>789.0</ele><time>2026-04-29T09:38:01Z</time></trkpt><trkpt lat="37.87294703340905" lon="14.930081043318298"><ele>789.0</ele><time>2026-04-29T09:38:02Z</time></trkpt><trkpt lat="37.872905984271746" lon="14.929977512458917"><ele>789.0</ele><time>2026-04-29T09:38:03Z</time></trkpt><trkpt lat="37.872865322212014" lon="14.929878484363769"><ele>789.0</ele><time>2026-04-29T09:38:04Z</time></trkpt><trkpt lat="37.87280610915674" lon="14.9297959054739"><ele>790.2</ele><time>2026-04-29T09:38:05Z</time></trkpt><trkpt lat="37.87277174245378" lon="14.929719080307294"><ele>791.4000000000001</ele><time>2026-04-29T09:38:06Z</time></trkpt><trkpt lat="37.872701002290235" lon="14.929710855987636"><ele>792.6</ele><time>2026-04-29T09:38:07Z</time></trkpt><trkpt lat="37.872633634247045" lon="14.92976222260988"><ele>793.8</ele><time>2026-04-29T09:38:09Z</time></trkpt><trkpt lat="37.87264096786752" lon="14.929590786103322"><ele>795.0</ele><time>2026-04-29T09:38:15Z</time></trkpt><trkpt lat="37.87269919397105" lon="14.929344944789351"><ele>797.5</ele><time>2026-04-29T09:38:16Z</time></trkpt><trkpt lat="37.87273669713133" lon="14.929203827821349"><ele>800.0</ele><time>2026-04-29T09:38:17Z</time></trkpt><trkpt lat="37.87277689187689" lon="14.929034203857833"><ele>802.5</ele><time>2026-04-29T09:38:18Z</time></trkpt><trkpt lat="37.87281505962164" lon="14.928851042437348"><ele>805.0</ele><time>2026-04-29T09:38:19Z</time></trkpt><trkpt lat="37.87285139673974" lon="14.928667989310007"><ele>805.0</ele><time>2026-04-29T09:38:20Z</time></trkpt><trkpt lat="37.87287102118724" lon="14.928480085937421"><ele>805.0</ele><time>2026-04-29T09:38:21Z</time></trkpt><trkpt lat="37.87285150042896" lon="14.928309485477236"><ele>805.0</ele><time>2026-04-29T09:38:22Z</time></trkpt><trkpt lat="37.87282993960929" lon="14.928201852740543"><ele>805.0</ele><time>2026-04-29T09:38:23Z</time></trkpt><trkpt lat="37.87280664390178" lon="14.928075390791927"><ele>806.1666666666666</ele><time>2026-04-29T09:38:24Z</time></trkpt><trkpt lat="37.87280507732517" lon="14.927973687697179"><ele>807.3333333333333</ele><time>2026-04-29T09:38:25Z</time></trkpt><trkpt lat="37.87279038117065" lon="14.927881786975233"><ele>808.5</ele><time>2026-04-29T09:38:26Z</time></trkpt><trkpt lat="37.87277294774218" lon="14.927786943389536"><ele>809.6666666666667</ele><time>2026-04-29T09:38:27Z</time></trkpt><trkpt lat="37.8727484113326" lon="14.927687434000806"><ele>810.8333333333334</ele><time>2026-04-29T09:38:28Z</time></trkpt><trkpt lat="37.87269768450441" lon="14.927591368191633"><ele>812.0</ele><time>2026-04-29T09:38:29Z</time></trkpt><trkpt lat="37.872674989564935" lon="14.927485115583444"><ele>812.25</ele><time>2026-04-29T09:38:30Z</time></trkpt><trkpt lat="37.87279288132576" lon="14.927326907624966"><ele>812.5</ele><time>2026-04-29T09:38:32Z</time></trkpt><trkpt lat="37.87286074191477" lon="14.927205537298963"><ele>812.75</ele><time>2026-04-29T09:38:33Z</time></trkpt><trkpt lat="37.872945661281264" lon="14.927108100300151"><ele>813.0</ele><time>2026-04-29T09:38:34Z</time></trkpt><trkpt lat="37.87302121936083" lon="14.926983297403238"><ele>813.0</ele><time>2026-04-29T09:38:35Z</time></trkpt><trkpt lat="37.873090962899745" lon="14.92685742539798"><ele>813.0</ele><time>2026-04-29T09:38:36Z</time></trkpt><trkpt lat="37.87315982818777" lon="14.926726833676316"><ele>813.0</ele><time>2026-04-29T09:38:37Z</time></trkpt><trkpt lat="37.873202665372965" lon="14.926616015429435"><ele>813.0</ele><time>2026-04-29T09:38:38Z</time></trkpt><trkpt lat="37.87325015537029" lon="14.926500097842077"><ele>813.0</ele><time>2026-04-29T09:38:39Z</time></trkpt><trkpt lat="37.87328093271819" lon="14.92635571777376"><ele>812.75</ele><time>2026-04-29T09:38:40Z</time></trkpt><trkpt lat="37.87328407107212" lon="14.926169928759242"><ele>812.5</ele><time>2026-04-29T09:38:41Z</time></trkpt><trkpt lat="37.87326308901153" lon="14.925983019369598"><ele>812.25</ele><time>2026-04-29T09:38:42Z</time></trkpt><trkpt lat="37.87324709652236" lon="14.925808599179483"><ele>812.0</ele><time>2026-04-29T09:38:43Z</time></trkpt><trkpt lat="37.873237228588586" lon="14.925647093688585"><ele>812.0</ele><time>2026-04-29T09:38:44Z</time></trkpt><trkpt lat="37.87323083921142" lon="14.92548077412596"><ele>812.0</ele><time>2026-04-29T09:38:45Z</time></trkpt><trkpt lat="37.873240768142566" lon="14.925320016981889"><ele>812.0</ele><time>2026-04-29T09:38:46Z</time></trkpt><trkpt lat="37.873241850923804" lon="14.925172502145141"><ele>812.0</ele><time>2026-04-29T09:38:47Z</time></trkpt><trkpt lat="37.87325359033816" lon="14.925023435894472"><ele>812.0</ele><time>2026-04-29T09:38:48Z</time></trkpt><trkpt lat="37.8732950979184" lon="14.924873226061127"><ele>812.0</ele><time>2026-04-29T09:38:49Z</time></trkpt><trkpt lat="37.87336788628663" lon="14.92475558028867"><ele>812.0</ele><time>2026-04-29T09:38:50Z</time></trkpt><trkpt lat="37.87345093655325" lon="14.924641304312933"><ele>812.0</ele><time>2026-04-29T09:38:51Z</time></trkpt><trkpt lat="37.87350091829293" lon="14.924590114210691"><ele>812.0</ele><time>2026-04-29T09:38:52Z</time></trkpt><trkpt lat="37.873610787631584" lon="14.924589961150463"><ele>812.3333333333334</ele><time>2026-04-29T09:38:54Z</time></trkpt><trkpt lat="37.873685153130616" lon="14.92461500837994"><ele>812.6666666666667</ele><time>2026-04-29T09:38:55Z</time></trkpt><trkpt lat="37.87375324671689" lon="14.924677154028803"><ele>813.0</ele><time>2026-04-29T09:38:56Z</time></trkpt><trkpt lat="37.873824362911776" lon="14.92473602376846"><ele>813.3333333333333</ele><time>2026-04-29T09:38:57Z</time></trkpt><trkpt lat="37.8738862402316" lon="14.924816175948528"><ele>813.6666666666666</ele><time>2026-04-29T09:38:58Z</time></trkpt><trkpt lat="37.87394579378416" lon="14.92491265379719"><ele>814.0</ele><time>2026-04-29T09:38:59Z</time></trkpt><trkpt lat="37.87401419268296" lon="14.924994850386303"><ele>814.0</ele><time>2026-04-29T09:39:00Z</time></trkpt><trkpt lat="37.87405691246617" lon="14.925071713657097"><ele>814.0</ele><time>2026-04-29T09:39:02Z</time></trkpt><trkpt lat="37.87412455438924" lon="14.925161712772143"><ele>814.0</ele><time>2026-04-29T09:39:06Z</time></trkpt><trkpt lat="37.87419266700174" lon="14.925225337005772"><ele>814.0</ele><time>2026-04-29T09:39:08Z</time></trkpt><trkpt lat="37.87409668066879" lon="14.925177134967889"><ele>814.0</ele><time>2026-04-29T09:39:20Z</time></trkpt><trkpt lat="37.874023546438664" lon="14.925038640492492"><ele>814.0</ele><time>2026-04-29T09:39:21Z</time></trkpt><trkpt lat="37.873957279432986" lon="14.92495551642435"><ele>814.0</ele><time>2026-04-29T09:39:22Z</time></trkpt><trkpt lat="37.87388354689618" lon="14.92485042281845"><ele>814.0</ele><time>2026-04-29T09:39:23Z</time></trkpt><trkpt lat="37.87382111299954" lon="14.924746041877496"><ele>814.0</ele><time>2026-04-29T09:39:24Z</time></trkpt><trkpt lat="37.8737580287001" lon="14.92465622271736"><ele>814.0</ele><time>2026-04-29T09:39:25Z</time></trkpt><trkpt lat="37.873682453953066" lon="14.924592866021408"><ele>814.0</ele><time>2026-04-29T09:39:26Z</time></trkpt><trkpt lat="37.87361447845893" lon="14.924551121595035"><ele>814.0</ele><time>2026-04-29T09:39:27Z</time></trkpt><trkpt lat="37.87355159051641" lon="14.924418001629938"><ele>814.0</ele><time>2026-04-29T09:39:29Z</time></trkpt><trkpt lat="37.873617067186544" lon="14.924279525290153"><ele>814.0</ele><time>2026-04-29T09:39:31Z</time></trkpt><trkpt lat="37.87366315978578" lon="14.924210250272578"><ele>814.0</ele><time>2026-04-29T09:39:32Z</time></trkpt><trkpt lat="37.87374782162073" lon="14.924140047690372"><ele>814.0</ele><time>2026-04-29T09:39:33Z</time></trkpt><trkpt lat="37.87383465997832" lon="14.92404913362207"><ele>814.0</ele><time>2026-04-29T09:39:34Z</time></trkpt><trkpt lat="37.873922499546964" lon="14.923933925996797"><ele>814.0</ele><time>2026-04-29T09:39:35Z</time></trkpt><trkpt lat="37.87401581880269" lon="14.923783004355213"><ele>814.0</ele><time>2026-04-29T09:39:36Z</time></trkpt><trkpt lat="37.87409628557055" lon="14.923643635253192"><ele>814.0</ele><time>2026-04-29T09:39:37Z</time></trkpt><trkpt lat="37.87420075060244" lon="14.923524325750083"><ele>814.0</ele><time>2026-04-29T09:39:38Z</time></trkpt><trkpt lat="37.87426133992341" lon="14.923355398326738"><ele>814.0</ele><time>2026-04-29T09:39:39Z</time></trkpt><trkpt lat="37.87428413202345" lon="14.9231944618673"><ele>814.0</ele><time>2026-04-29T09:39:40Z</time></trkpt><trkpt lat="37.87432064715641" lon="14.9230269974333"><ele>818.25</ele><time>2026-04-29T09:39:41Z</time></trkpt><trkpt lat="37.874323693482104" lon="14.922843869933203"><ele>822.5</ele><time>2026-04-29T09:39:42Z</time></trkpt><trkpt lat="37.87439991215877" lon="14.92270142391317"><ele>826.75</ele><time>2026-04-29T09:39:43Z</time></trkpt><trkpt lat="37.87446178136104" lon="14.922542021428939"><ele>831.0</ele><time>2026-04-29T09:39:44Z</time></trkpt><trkpt lat="37.87449536549622" lon="14.922375713068998"><ele>831.75</ele><time>2026-04-29T09:39:45Z</time></trkpt><trkpt lat="37.8744963653456" lon="14.922210785449428"><ele>832.5</ele><time>2026-04-29T09:39:46Z</time></trkpt><trkpt lat="37.87444581710617" lon="14.922058724454509"><ele>833.25</ele><time>2026-04-29T09:39:47Z</time></trkpt><trkpt lat="37.87440991705671" lon="14.921916274376716"><ele>834.0</ele><time>2026-04-29T09:39:48Z</time></trkpt><trkpt lat="37.87438882797814" lon="14.921799706843041"><ele>837.25</ele><time>2026-04-29T09:39:49Z</time></trkpt><trkpt lat="37.87440698374167" lon="14.921694344222706"><ele>840.5</ele><time>2026-04-29T09:39:50Z</time></trkpt><trkpt lat="37.87446224049849" lon="14.921575486675035"><ele>843.75</ele><time>2026-04-29T09:39:51Z</time></trkpt><trkpt lat="37.87452386594158" lon="14.921403263549411"><ele>847.0</ele><time>2026-04-29T09:39:52Z</time></trkpt><trkpt lat="37.8746032154387" lon="14.921204153602815"><ele>847.0</ele><time>2026-04-29T09:39:53Z</time></trkpt><trkpt lat="37.8747001062616" lon="14.920991318822306"><ele>847.0</ele><time>2026-04-29T09:39:54Z</time></trkpt><trkpt lat="37.87481665867439" lon="14.920765468745905"><ele>847.0</ele><time>2026-04-29T09:39:55Z</time></trkpt><trkpt lat="37.8749488232002" lon="14.920536248845815"><ele>849.3333333333333</ele><time>2026-04-29T09:39:56Z</time></trkpt><trkpt lat="37.87506704598074" lon="14.92033933473231"><ele>851.6666666666667</ele><time>2026-04-29T09:39:57Z</time></trkpt><trkpt lat="37.875169555823206" lon="14.92017592793976"><ele>854.0</ele><time>2026-04-29T09:39:58Z</time></trkpt><trkpt lat="37.87525155519787" lon="14.920044870823734"><ele>857.0</ele><time>2026-04-29T09:39:59Z</time></trkpt><trkpt lat="37.875311879026704" lon="14.919921000021624"><ele>860.0</ele><time>2026-04-29T09:40:00Z</time></trkpt><trkpt lat="37.87531128087897" lon="14.919756225660032"><ele>863.0</ele><time>2026-04-29T09:40:01Z</time></trkpt><trkpt lat="37.87533400631308" lon="14.919569458395205"><ele>866.0</ele><time>2026-04-29T09:40:02Z</time></trkpt><trkpt lat="37.87538212607611" lon="14.919374078617373"><ele>867.0</ele><time>2026-04-29T09:40:03Z</time></trkpt><trkpt lat="37.87541042025996" lon="14.91920739036048"><ele>868.0</ele><time>2026-04-29T09:40:04Z</time></trkpt><trkpt lat="37.87543566315088" lon="14.919060843920912"><ele>869.0</ele><time>2026-04-29T09:40:05Z</time></trkpt><trkpt lat="37.875458844729685" lon="14.9189111732303"><ele>870.0</ele><time>2026-04-29T09:40:06Z</time></trkpt><trkpt lat="37.87547627313381" lon="14.918783647028343"><ele>870.0</ele><time>2026-04-29T09:40:07Z</time></trkpt><trkpt lat="37.87549771358799" lon="14.918663387595574"><ele>870.0</ele><time>2026-04-29T09:40:08Z</time></trkpt><trkpt lat="37.875528617729294" lon="14.91855642615775"><ele>870.0</ele><time>2026-04-29T09:40:09Z</time></trkpt><trkpt lat="37.87557056652375" lon="14.918448539638524"><ele>870.0</ele><time>2026-04-29T09:40:10Z</time></trkpt><trkpt lat="37.87562453857528" lon="14.918305804521172"><ele>870.0</ele><time>2026-04-29T09:40:11Z</time></trkpt><trkpt lat="37.8756795743067" lon="14.918148704754607"><ele>869.25</ele><time>2026-04-29T09:40:12Z</time></trkpt><trkpt lat="37.87573383303381" lon="14.918002304265682"><ele>868.5</ele><time>2026-04-29T09:40:13Z</time></trkpt><trkpt lat="37.875793906386896" lon="14.917855463312403"><ele>867.75</ele><time>2026-04-29T09:40:14Z</time></trkpt><trkpt lat="37.87583497293694" lon="14.917719352377892"><ele>867.0</ele><time>2026-04-29T09:40:15Z</time></trkpt><trkpt lat="37.87586366852934" lon="14.917609055992974"><ele>867.2</ele><time>2026-04-29T09:40:16Z</time></trkpt><trkpt lat="37.87588405359134" lon="14.917502210158766"><ele>867.4000000000001</ele><time>2026-04-29T09:40:17Z</time></trkpt><trkpt lat="37.875919913757514" lon="14.917409104829012"><ele>867.5999999999999</ele><time>2026-04-29T09:40:18Z</time></trkpt><trkpt lat="37.875973595978536" lon="14.917319138474124"><ele>867.8</ele><time>2026-04-29T09:40:19Z</time></trkpt><trkpt lat="37.876049283493266" lon="14.917199080926137"><ele>868.0</ele><time>2026-04-29T09:40:20Z</time></trkpt><trkpt lat="37.87612262248944" lon="14.917094439235015"><ele>870.75</ele><time>2026-04-29T09:40:21Z</time></trkpt><trkpt lat="37.876204362297045" lon="14.91699468352567"><ele>873.5</ele><time>2026-04-29T09:40:22Z</time></trkpt><trkpt lat="37.87629292056501" lon="14.916894558209068"><ele>876.25</ele><time>2026-04-29T09:40:23Z</time></trkpt><trkpt lat="37.87637036830429" lon="14.916796884001293"><ele>879.0</ele><time>2026-04-29T09:40:24Z</time></trkpt><trkpt lat="37.87643803234897" lon="14.916686973797685"><ele>879.0</ele><time>2026-04-29T09:40:25Z</time></trkpt><trkpt lat="37.87651392438248" lon="14.916596094989956"><ele>879.0000000000001</ele><time>2026-04-29T09:40:26Z</time></trkpt><trkpt lat="37.876594169036196" lon="14.916533893778151"><ele>879.0000000000001</ele><time>2026-04-29T09:40:27Z</time></trkpt><trkpt lat="37.876683080317385" lon="14.91647171927713"><ele>879.0</ele><time>2026-04-29T09:40:28Z</time></trkpt><trkpt lat="37.87678411500957" lon="14.916401050040038"><ele>879.0</ele><time>2026-04-29T09:40:29Z</time></trkpt><trkpt lat="37.87685334473755" lon="14.916342104428427"><ele>879.6</ele><time>2026-04-29T09:40:30Z</time></trkpt><trkpt lat="37.87691624918162" lon="14.916266409447367"><ele>880.2</ele><time>2026-04-29T09:40:32Z</time></trkpt><trkpt lat="37.876866251460235" lon="14.916123253680803"><ele>880.8000000000001</ele><time>2026-04-29T09:40:34Z</time></trkpt><trkpt lat="37.87679964787305" lon="14.916037489382237"><ele>881.4000000000001</ele><time>2026-04-29T09:40:35Z</time></trkpt><trkpt lat="37.87676972056131" lon="14.915921474620053"><ele>882.0</ele><time>2026-04-29T09:40:36Z</time></trkpt><trkpt lat="37.876747413948046" lon="14.91580643806364"><ele>882.0</ele><time>2026-04-29T09:40:37Z</time></trkpt><trkpt lat="37.87674322484453" lon="14.91567964537022"><ele>882.0</ele><time>2026-04-29T09:40:38Z</time></trkpt><trkpt lat="37.87672686569688" lon="14.91554324499027"><ele>882.0</ele><time>2026-04-29T09:40:39Z</time></trkpt><trkpt lat="37.8767057311423" lon="14.915413184638513"><ele>882.0</ele><time>2026-04-29T09:40:40Z</time></trkpt><trkpt lat="37.87665341426296" lon="14.915300172522883"><ele>882.0</ele><time>2026-04-29T09:40:41Z</time></trkpt><trkpt lat="37.87659591531317" lon="14.915158939469721"><ele>884.0</ele><time>2026-04-29T09:40:42Z</time></trkpt><trkpt lat="37.87658579844714" lon="14.915002180392468"><ele>886.0</ele><time>2026-04-29T09:40:43Z</time></trkpt><trkpt lat="37.876572775885" lon="14.914852691753461"><ele>888.0</ele><time>2026-04-29T09:40:44Z</time></trkpt><trkpt lat="37.87656232589341" lon="14.914707639665217"><ele>890.0</ele><time>2026-04-29T09:40:45Z</time></trkpt><trkpt lat="37.8765531776743" lon="14.914555001962675"><ele>890.0</ele><time>2026-04-29T09:40:46Z</time></trkpt><trkpt lat="37.8765430009243" lon="14.914376517524266"><ele>890.0</ele><time>2026-04-29T09:40:47Z</time></trkpt><trkpt lat="37.876533342408685" lon="14.914197448408114"><ele>890.0</ele><time>2026-04-29T09:40:48Z</time></trkpt><trkpt lat="37.87651155324586" lon="14.914036408322762"><ele>890.0</ele><time>2026-04-29T09:40:49Z</time></trkpt><trkpt lat="37.876463943312295" lon="14.913880923889185"><ele>891.0</ele><time>2026-04-29T09:40:50Z</time></trkpt><trkpt lat="37.87644927585193" lon="14.913724794342514"><ele>892.0</ele><time>2026-04-29T09:40:51Z</time></trkpt><trkpt lat="37.87643186344502" lon="14.913589433886811"><ele>893.0</ele><time>2026-04-29T09:40:52Z</time></trkpt><trkpt lat="37.87641961385975" lon="14.913454310534238"><ele>894.0</ele><time>2026-04-29T09:40:53Z</time></trkpt><trkpt lat="37.87641535873792" lon="14.91332811328711"><ele>895.0</ele><time>2026-04-29T09:40:54Z</time></trkpt><trkpt lat="37.87643234447559" lon="14.913226020963176"><ele>896.4</ele><time>2026-04-29T09:40:55Z</time></trkpt><trkpt lat="37.87645755569973" lon="14.913135853423135"><ele>897.8</ele><time>2026-04-29T09:40:56Z</time></trkpt><trkpt lat="37.876495973209266" lon="14.91302626410067"><ele>899.2</ele><time>2026-04-29T09:40:57Z</time></trkpt><trkpt lat="37.87655468991029" lon="14.912883341953975"><ele>900.6</ele><time>2026-04-29T09:40:58Z</time></trkpt><trkpt lat="37.8766129358559" lon="14.91275694108788"><ele>902.0</ele><time>2026-04-29T09:40:59Z</time></trkpt><trkpt lat="37.876671571714624" lon="14.912651522647067"><ele>903.0</ele><time>2026-04-29T09:41:00Z</time></trkpt><trkpt lat="37.87674815446958" lon="14.912533853316809"><ele>904.0</ele><time>2026-04-29T09:41:01Z</time></trkpt><trkpt lat="37.87683590084996" lon="14.912403125298702"><ele>905.0</ele><time>2026-04-29T09:41:02Z</time></trkpt><trkpt lat="37.876901462542165" lon="14.91228096565629"><ele>906.0</ele><time>2026-04-29T09:41:03Z</time></trkpt><trkpt lat="37.876929985884665" lon="14.912166019460612"><ele>908.8</ele><time>2026-04-29T09:41:04Z</time></trkpt><trkpt lat="37.87695948641364" lon="14.912070600054523"><ele>911.5999999999999</ele><time>2026-04-29T09:41:05Z</time></trkpt><trkpt lat="37.87695472168529" lon="14.911955734580005"><ele>914.4</ele><time>2026-04-29T09:41:06Z</time></trkpt><trkpt lat="37.87699747807229" lon="14.911821275503065"><ele>917.2</ele><time>2026-04-29T09:41:07Z</time></trkpt><trkpt lat="37.877015436791666" lon="14.911678505128847"><ele>920.0</ele><time>2026-04-29T09:41:08Z</time></trkpt><trkpt lat="37.87703272290703" lon="14.911561446076254"><ele>920.6</ele><time>2026-04-29T09:41:09Z</time></trkpt><trkpt lat="37.87705798603496" lon="14.911437512374407"><ele>921.2</ele><time>2026-04-29T09:41:10Z</time></trkpt><trkpt lat="37.87707315049179" lon="14.911326111898642"><ele>921.8</ele><time>2026-04-29T09:41:11Z</time></trkpt><trkpt lat="37.87706054687393" lon="14.911204092352934"><ele>922.4</ele><time>2026-04-29T09:41:12Z</time></trkpt><trkpt lat="37.87705412417996" lon="14.911083183688492"><ele>923.0</ele><time>2026-04-29T09:41:13Z</time></trkpt><trkpt lat="37.87705231669176" lon="14.910961544325671"><ele>924.0000000000001</ele><time>2026-04-29T09:41:14Z</time></trkpt><trkpt lat="37.87703762323651" lon="14.910837675092152"><ele>925.0</ele><time>2026-04-29T09:41:15Z</time></trkpt><trkpt lat="37.87703060148623" lon="14.910725379803889"><ele>926.0</ele><time>2026-04-29T09:41:16Z</time></trkpt><trkpt lat="37.87703545075448" lon="14.910632765783717"><ele>927.0</ele><time>2026-04-29T09:41:17Z</time></trkpt><trkpt lat="37.87704387011927" lon="14.910549157357687"><ele>928.0000000000001</ele><time>2026-04-29T09:41:18Z</time></trkpt><trkpt lat="37.87706242534349" lon="14.910402232010462"><ele>929.0</ele><time>2026-04-29T09:41:20Z</time></trkpt><trkpt lat="37.877075486060036" lon="14.910288425691208"><ele>929.0</ele><time>2026-04-29T09:41:22Z</time></trkpt><trkpt lat="37.87708808955848" lon="14.910142489342908"><ele>929.0000000000001</ele><time>2026-04-29T09:41:24Z</time></trkpt><trkpt lat="37.87707726522782" lon="14.910054691631279"><ele>929.0000000000001</ele><time>2026-04-29T09:41:25Z</time></trkpt><trkpt lat="37.87708378229022" lon="14.90996007815034"><ele>929.0</ele><time>2026-04-29T09:41:26Z</time></trkpt><trkpt lat="37.87709959867702" lon="14.909835475866146"><ele>929.0</ele><time>2026-04-29T09:41:27Z</time></trkpt><trkpt lat="37.87711096749801" lon="14.909695836911121"><ele>930.3333333333334</ele><time>2026-04-29T09:41:29Z</time></trkpt><trkpt lat="37.87712541612992" lon="14.909605273053506"><ele>931.6666666666667</ele><time>2026-04-29T09:41:31Z</time></trkpt><trkpt lat="37.8771164863602" lon="14.909498343348663"><ele>933.0</ele><time>2026-04-29T09:41:33Z</time></trkpt><trkpt lat="37.877166555020644" lon="14.909419333963573"><ele>934.3333333333333</ele><time>2026-04-29T09:41:36Z</time></trkpt><trkpt lat="37.87720665614621" lon="14.909356484098167"><ele>935.6666666666666</ele><time>2026-04-29T09:41:39Z</time></trkpt><trkpt lat="37.877257062473134" lon="14.909262919908482"><ele>937.0</ele><time>2026-04-29T09:41:42Z</time></trkpt><trkpt lat="37.877297468201355" lon="14.909174439873908"><ele>938.0</ele><time>2026-04-29T09:41:43Z</time></trkpt><trkpt lat="37.87737763630148" lon="14.909082570848911"><ele>939.0</ele><time>2026-04-29T09:41:45Z</time></trkpt><trkpt lat="37.877427824277135" lon="14.908999684397577"><ele>940.0</ele><time>2026-04-29T09:41:47Z</time></trkpt><trkpt lat="37.87747759433253" lon="14.908912556774757"><ele>941.0</ele><time>2026-04-29T09:41:49Z</time></trkpt><trkpt lat="37.87752856351029" lon="14.908817626665286"><ele>942.0</ele><time>2026-04-29T09:41:50Z</time></trkpt><trkpt lat="37.87757883317429" lon="14.908711000699897"><ele>943.2</ele><time>2026-04-29T09:41:51Z</time></trkpt><trkpt lat="37.87760768624849" lon="14.90861136215111"><ele>944.4000000000001</ele><time>2026-04-29T09:41:52Z</time></trkpt><trkpt lat="37.87760256505202" lon="14.908506105759429"><ele>945.5999999999999</ele><time>2026-04-29T09:41:53Z</time></trkpt><trkpt lat="37.877545467271084" lon="14.9083777547472"><ele>946.8</ele><time>2026-04-29T09:41:54Z</time></trkpt><trkpt lat="37.87749816230195" lon="14.908245897835124"><ele>948.0</ele><time>2026-04-29T09:41:55Z</time></trkpt><trkpt lat="37.87744742235753" lon="14.908110329612418"><ele>948.0</ele><time>2026-04-29T09:41:56Z</time></trkpt><trkpt lat="37.877398012211316" lon="14.907986314684544"><ele>948.0</ele><time>2026-04-29T09:41:57Z</time></trkpt><trkpt lat="37.87735320958205" lon="14.907874410773179"><ele>948.0</ele><time>2026-04-29T09:41:58Z</time></trkpt><trkpt lat="37.8773191571161" lon="14.907774294835267"><ele>948.0</ele><time>2026-04-29T09:41:59Z</time></trkpt><trkpt lat="37.87730224632707" lon="14.907688534575469"><ele>948.0</ele><time>2026-04-29T09:42:00Z</time></trkpt><trkpt lat="37.877284895694956" lon="14.90759612303399"><ele>948.0</ele><time>2026-04-29T09:42:01Z</time></trkpt><trkpt lat="37.87726483575129" lon="14.907482785579246"><ele>950.2</ele><time>2026-04-29T09:42:02Z</time></trkpt><trkpt lat="37.877237682994895" lon="14.90736143962204"><ele>952.4</ele><time>2026-04-29T09:42:03Z</time></trkpt><trkpt lat="37.87720313243201" lon="14.907218760524904"><ele>954.6000000000001</ele><time>2026-04-29T09:42:04Z</time></trkpt><trkpt lat="37.87716678728007" lon="14.907077189282187"><ele>956.8000000000001</ele><time>2026-04-29T09:42:05Z</time></trkpt><trkpt lat="37.87712331672643" lon="14.906947032255408"><ele>959.0</ele><time>2026-04-29T09:42:06Z</time></trkpt><trkpt lat="37.877100758129416" lon="14.90682343104006"><ele>961.0</ele><time>2026-04-29T09:42:07Z</time></trkpt><trkpt lat="37.877066933703496" lon="14.906684579385063"><ele>963.0000000000001</ele><time>2026-04-29T09:42:08Z</time></trkpt><trkpt lat="37.877036688362104" lon="14.906554745710526"><ele>965.0000000000001</ele><time>2026-04-29T09:42:09Z</time></trkpt><trkpt lat="37.877012930904755" lon="14.906452761958233"><ele>967.0</ele><time>2026-04-29T09:42:10Z</time></trkpt><trkpt lat="37.87696252364215" lon="14.90637733976178"><ele>969.0</ele><time>2026-04-29T09:42:12Z</time></trkpt><trkpt lat="37.87689226467626" lon="14.90640553409256"><ele>969.0</ele><time>2026-04-29T09:42:14Z</time></trkpt><trkpt lat="37.876791941543964" lon="14.906412657282099"><ele>969.0</ele><time>2026-04-29T09:43:08Z</time></trkpt><trkpt lat="37.87671868066513" lon="14.906405745473425"><ele>969.0</ele><time>2026-04-29T09:43:09Z</time></trkpt><trkpt lat="37.87664949510753" lon="14.90640658491407"><ele>969.0</ele><time>2026-04-29T09:43:10Z</time></trkpt><trkpt lat="37.876568201823325" lon="14.9063769045757"><ele>969.0</ele><time>2026-04-29T09:43:11Z</time></trkpt><trkpt lat="37.876483461608345" lon="14.906375046855318"><ele>969.0</ele><time>2026-04-29T09:43:12Z</time></trkpt><trkpt lat="37.876407608807966" lon="14.906400693018552"><ele>968.3333333333334</ele><time>2026-04-29T09:43:13Z</time></trkpt><trkpt lat="37.87633574265904" lon="14.906427858751808"><ele>967.6666666666667</ele><time>2026-04-29T09:43:14Z</time></trkpt><trkpt lat="37.87625276406213" lon="14.90644507621393"><ele>967.0</ele><time>2026-04-29T09:43:15Z</time></trkpt><trkpt lat="37.87617176562258" lon="14.906470886843062"><ele>966.3333333333334</ele><time>2026-04-29T09:43:16Z</time></trkpt><trkpt lat="37.87609484019276" lon="14.906495684692278"><ele>965.6666666666667</ele><time>2026-04-29T09:43:17Z</time></trkpt><trkpt lat="37.8760215390153" lon="14.90652084666702"><ele>965.0</ele><time>2026-04-29T09:43:18Z</time></trkpt><trkpt lat="37.87595110557974" lon="14.906569869776652"><ele>964.4285714285713</ele><time>2026-04-29T09:43:19Z</time></trkpt><trkpt lat="37.87588281337232" lon="14.90659087025448"><ele>963.8571428571429</ele><time>2026-04-29T09:43:20Z</time></trkpt><trkpt lat="37.875817982180905" lon="14.906612954450779"><ele>963.2857142857142</ele><time>2026-04-29T09:43:21Z</time></trkpt><trkpt lat="37.875749970261154" lon="14.906628038133684"><ele>962.7142857142857</ele><time>2026-04-29T09:43:22Z</time></trkpt><trkpt lat="37.87568345826574" lon="14.906635392604182"><ele>962.1428571428571</ele><time>2026-04-29T09:43:23Z</time></trkpt><trkpt lat="37.87562151772941" lon="14.906675349864173"><ele>961.5714285714286</ele><time>2026-04-29T09:43:24Z</time></trkpt><trkpt lat="37.87555462269267" lon="14.906752320922966"><ele>961.0</ele><time>2026-04-29T09:43:25Z</time></trkpt><trkpt lat="37.87549768202778" lon="14.906814693858458"><ele>960.1666666666666</ele><time>2026-04-29T09:43:26Z</time></trkpt><trkpt lat="37.87543245310205" lon="14.906877436716101"><ele>959.3333333333333</ele><time>2026-04-29T09:43:27Z</time></trkpt><trkpt lat="37.875374831538814" lon="14.906935370745943"><ele>958.5</ele><time>2026-04-29T09:43:28Z</time></trkpt><trkpt lat="37.87529873044859" lon="14.906985881025898"><ele>957.6666666666667</ele><time>2026-04-29T09:43:29Z</time></trkpt><trkpt lat="37.87521156468051" lon="14.9070257104917"><ele>956.8333333333334</ele><time>2026-04-29T09:43:30Z</time></trkpt><trkpt lat="37.87512144904102" lon="14.907066522933194"><ele>956.0</ele><time>2026-04-29T09:43:31Z</time></trkpt><trkpt lat="37.8750474685403" lon="14.907111652245636"><ele>955.8333333333334</ele><time>2026-04-29T09:43:32Z</time></trkpt><trkpt lat="37.874972573241216" lon="14.907169079853556"><ele>955.6666666666667</ele><time>2026-04-29T09:43:33Z</time></trkpt><trkpt lat="37.874900158910556" lon="14.907219949841158"><ele>955.5</ele><time>2026-04-29T09:43:34Z</time></trkpt><trkpt lat="37.87481598565599" lon="14.907264808977525"><ele>955.3333333333333</ele><time>2026-04-29T09:43:35Z</time></trkpt><trkpt lat="37.87474952287672" lon="14.907300962131355"><ele>955.1666666666666</ele><time>2026-04-29T09:43:36Z</time></trkpt><trkpt lat="37.87469664041484" lon="14.907356936299195"><ele>955.0</ele><time>2026-04-29T09:43:37Z</time></trkpt><trkpt lat="37.874638843236625" lon="14.907448350651515"><ele>954.9999999999999</ele><time>2026-04-29T09:43:38Z</time></trkpt><trkpt lat="37.874595591380995" lon="14.907534973900603"><ele>955.0</ele><time>2026-04-29T09:43:39Z</time></trkpt><trkpt lat="37.874554129207446" lon="14.907615320880124"><ele>954.9999999999999</ele><time>2026-04-29T09:43:40Z</time></trkpt><trkpt lat="37.87451217571047" lon="14.907702051415166"><ele>954.9999999999999</ele><time>2026-04-29T09:43:41Z</time></trkpt><trkpt lat="37.87447564500918" lon="14.907771660159302"><ele>955.0</ele><time>2026-04-29T09:43:42Z</time></trkpt><trkpt lat="37.87442750996712" lon="14.907830455823346"><ele>954.9999999999999</ele><time>2026-04-29T09:43:43Z</time></trkpt><trkpt lat="37.87437719591933" lon="14.90789180117429"><ele>954.9999999999999</ele><time>2026-04-29T09:43:44Z</time></trkpt><trkpt lat="37.87432122241176" lon="14.90795457405359"><ele>952.9999999999999</ele><time>2026-04-29T09:43:45Z</time></trkpt><trkpt lat="37.87426740758978" lon="14.908015161336202"><ele>951.0</ele><time>2026-04-29T09:43:46Z</time></trkpt><trkpt lat="37.874213036415625" lon="14.908081821322167"><ele>949.0</ele><time>2026-04-29T09:43:47Z</time></trkpt><trkpt lat="37.87416765805416" lon="14.908198021670815"><ele>947.0</ele><time>2026-04-29T09:43:49Z</time></trkpt><trkpt lat="37.87409302882462" lon="14.90831619818963"><ele>944.9999999999999</ele><time>2026-04-29T09:43:51Z</time></trkpt><trkpt lat="37.874030494979664" lon="14.90837888274462"><ele>943.0</ele><time>2026-04-29T09:43:53Z</time></trkpt><trkpt lat="37.87399225573819" lon="14.908478368906213"><ele>940.4</ele><time>2026-04-29T09:43:55Z</time></trkpt><trkpt lat="37.873968415916565" lon="14.908556442913888"><ele>937.8</ele><time>2026-04-29T09:43:57Z</time></trkpt><trkpt lat="37.87390354928995" lon="14.908750264761293"><ele>935.2</ele><time>2026-04-29T09:43:59Z</time></trkpt><trkpt lat="37.873883707080175" lon="14.908842618444119"><ele>932.6</ele><time>2026-04-29T09:44:00Z</time></trkpt><trkpt lat="37.87382026142088" lon="14.908959370186954"><ele>930.0</ele><time>2026-04-29T09:44:02Z</time></trkpt><trkpt lat="37.873745597144044" lon="14.909078706899972"><ele>930.0</ele><time>2026-04-29T09:44:04Z</time></trkpt><trkpt lat="37.873688979644825" lon="14.909157426764194"><ele>930.0</ele><time>2026-04-29T09:44:06Z</time></trkpt><trkpt lat="37.87362820562937" lon="14.90919619819245"><ele>930.0</ele><time>2026-04-29T09:44:07Z</time></trkpt><trkpt lat="37.87355583979894" lon="14.90923337405094"><ele>930.0</ele><time>2026-04-29T09:44:08Z</time></trkpt><trkpt lat="37.87348460533426" lon="14.909269682083318"><ele>930.0</ele><time>2026-04-29T09:44:09Z</time></trkpt><trkpt lat="37.87341700790009" lon="14.909310198150317"><ele>930.0</ele><time>2026-04-29T09:44:10Z</time></trkpt><trkpt lat="37.873359300515396" lon="14.90935757740518"><ele>928.8571428571429</ele><time>2026-04-29T09:44:11Z</time></trkpt><trkpt lat="37.873311191089634" lon="14.909409103266258"><ele>927.7142857142858</ele><time>2026-04-29T09:44:12Z</time></trkpt><trkpt lat="37.87325807873011" lon="14.909460288148376"><ele>926.5714285714287</ele><time>2026-04-29T09:44:13Z</time></trkpt><trkpt lat="37.87320090929199" lon="14.909519576112544"><ele>925.4285714285714</ele><time>2026-04-29T09:44:14Z</time></trkpt><trkpt lat="37.87314388544291" lon="14.909578977941091"><ele>924.2857142857144</ele><time>2026-04-29T09:44:15Z</time></trkpt><trkpt lat="37.873092075542054" lon="14.90963640523925"><ele>923.1428571428572</ele><time>2026-04-29T09:44:16Z</time></trkpt><trkpt lat="37.87304372957772" lon="14.909688621076418"><ele>922.0</ele><time>2026-04-29T09:44:17Z</time></trkpt><trkpt lat="37.87299927250347" lon="14.909767826442465"><ele>921.9999999999999</ele><time>2026-04-29T09:44:19Z</time></trkpt><trkpt lat="37.872940605887045" lon="14.909848357489723"><ele>922.0</ele><time>2026-04-29T09:44:21Z</time></trkpt><trkpt lat="37.872878756753" lon="14.90994458240829"><ele>922.0</ele><time>2026-04-29T09:44:23Z</time></trkpt><trkpt lat="37.872826949752856" lon="14.910022251649092"><ele>922.0</ele><time>2026-04-29T09:44:24Z</time></trkpt><trkpt lat="37.872773354974775" lon="14.910085658072616"><ele>921.9999999999999</ele><time>2026-04-29T09:44:25Z</time></trkpt><trkpt lat="37.872719319326706" lon="14.910152925463871"><ele>922.0</ele><time>2026-04-29T09:44:26Z</time></trkpt><trkpt lat="37.87267499467846" lon="14.91022519959523"><ele>920.2</ele><time>2026-04-29T09:44:27Z</time></trkpt><trkpt lat="37.87264468636094" lon="14.910302215225464"><ele>918.4000000000001</ele><time>2026-04-29T09:44:28Z</time></trkpt><trkpt lat="37.87258618246679" lon="14.91042886510859"><ele>916.5999999999999</ele><time>2026-04-29T09:44:30Z</time></trkpt><trkpt lat="37.87252530204967" lon="14.91053797153174"><ele>914.8</ele><time>2026-04-29T09:44:32Z</time></trkpt><trkpt lat="37.87247768325958" lon="14.9105973686835"><ele>913.0</ele><time>2026-04-29T09:44:33Z</time></trkpt><trkpt lat="37.8723859092431" lon="14.910686140118523"><ele>912.9999999999999</ele><time>2026-04-29T09:44:35Z</time></trkpt><trkpt lat="37.872315245496985" lon="14.91079069955931"><ele>913.0</ele><time>2026-04-29T09:44:37Z</time></trkpt><trkpt lat="37.87227238579498" lon="14.910851797393647"><ele>913.0</ele><time>2026-04-29T09:44:38Z</time></trkpt><trkpt lat="37.87217757993403" lon="14.910958738199218"><ele>913.0</ele><time>2026-04-29T09:44:40Z</time></trkpt><trkpt lat="37.87212723777216" lon="14.91101900414034"><ele>912.9999999999999</ele><time>2026-04-29T09:44:41Z</time></trkpt><trkpt lat="37.87207350518942" lon="14.911079289934609"><ele>913.0</ele><time>2026-04-29T09:44:42Z</time></trkpt><trkpt lat="37.8720136368335" lon="14.911140115226463"><ele>911.3333333333333</ele><time>2026-04-29T09:44:43Z</time></trkpt><trkpt lat="37.87195998241807" lon="14.911208868566407"><ele>909.6666666666666</ele><time>2026-04-29T09:44:44Z</time></trkpt><trkpt lat="37.871907546790624" lon="14.911278791573405"><ele>908.0</ele><time>2026-04-29T09:44:45Z</time></trkpt><trkpt lat="37.87185512790807" lon="14.911343435132071"><ele>906.3333333333333</ele><time>2026-04-29T09:44:46Z</time></trkpt><trkpt lat="37.87181246311203" lon="14.911407906629874"><ele>904.6666666666666</ele><time>2026-04-29T09:44:47Z</time></trkpt><trkpt lat="37.87174511371192" lon="14.911525796686538"><ele>903.0</ele><time>2026-04-29T09:44:49Z</time></trkpt><trkpt lat="37.871718836906844" lon="14.911602149135557"><ele>900.5999999999999</ele><time>2026-04-29T09:44:50Z</time></trkpt><trkpt lat="37.871663322490605" lon="14.911745049347774"><ele>898.1999999999999</ele><time>2026-04-29T09:44:52Z</time></trkpt><trkpt lat="37.87162737434744" lon="14.911812947519971"><ele>895.8</ele><time>2026-04-29T09:44:53Z</time></trkpt><trkpt lat="37.8715625792873" lon="14.911937046465816"><ele>893.4</ele><time>2026-04-29T09:44:55Z</time></trkpt><trkpt lat="37.87152753143068" lon="14.91206205775921"><ele>891.0</ele><time>2026-04-29T09:44:57Z</time></trkpt><trkpt lat="37.87149698644516" lon="14.912183909617514"><ele>891.0</ele><time>2026-04-29T09:44:59Z</time></trkpt><trkpt lat="37.871469325035804" lon="14.912256658237029"><ele>891.0</ele><time>2026-04-29T09:45:00Z</time></trkpt><trkpt lat="37.87145621221019" lon="14.91234304213673"><ele>891.0</ele><time>2026-04-29T09:45:01Z</time></trkpt><trkpt lat="37.87144684136412" lon="14.912426935664945"><ele>891.0</ele><time>2026-04-29T09:45:02Z</time></trkpt><trkpt lat="37.87143373607989" lon="14.912550027953248"><ele>891.0</ele><time>2026-04-29T09:45:04Z</time></trkpt><trkpt lat="37.87144347175065" lon="14.912670081098753"><ele>891.0</ele><time>2026-04-29T09:45:06Z</time></trkpt><trkpt lat="37.87145485318227" lon="14.912782950274776"><ele>888.6666666666666</ele><time>2026-04-29T09:45:08Z</time></trkpt><trkpt lat="37.87145993386113" lon="14.91289370339435"><ele>886.3333333333333</ele><time>2026-04-29T09:45:10Z</time></trkpt><trkpt lat="37.87144591583117" lon="14.91297502369891"><ele>884.0</ele><time>2026-04-29T09:45:11Z</time></trkpt><trkpt lat="37.87144106935677" lon="14.9130548292673"><ele>881.6666666666666</ele><time>2026-04-29T09:45:12Z</time></trkpt><trkpt lat="37.871455698093776" lon="14.913188772464292"><ele>879.3333333333333</ele><time>2026-04-29T09:45:14Z</time></trkpt><trkpt lat="37.87147481160696" lon="14.913324349400302"><ele>877.0</ele><time>2026-04-29T09:45:16Z</time></trkpt><trkpt lat="37.871484900894146" lon="14.913456764987743"><ele>874.4000000000001</ele><time>2026-04-29T09:45:18Z</time></trkpt><trkpt lat="37.87149054505914" lon="14.913605014906729"><ele>871.8000000000001</ele><time>2026-04-29T09:45:20Z</time></trkpt><trkpt lat="37.87150119394642" lon="14.91373346569163"><ele>869.2</ele><time>2026-04-29T09:45:22Z</time></trkpt><trkpt lat="37.87148362653445" lon="14.913862812464611"><ele>866.6</ele><time>2026-04-29T09:45:24Z</time></trkpt><trkpt lat="37.87148693998157" lon="14.913949185743899"><ele>864.0</ele><time>2026-04-29T09:45:25Z</time></trkpt><trkpt lat="37.87150048538416" lon="14.914029468380983"><ele>864.0</ele><time>2026-04-29T09:45:26Z</time></trkpt><trkpt lat="37.871522542581296" lon="14.91418290477462"><ele>864.0000000000001</ele><time>2026-04-29T09:45:28Z</time></trkpt><trkpt lat="37.87154580279546" lon="14.914261847312673"><ele>864.0000000000001</ele><time>2026-04-29T09:45:29Z</time></trkpt><trkpt lat="37.87154129409148" lon="14.914344715457066"><ele>864.0</ele><time>2026-04-29T09:45:30Z</time></trkpt><trkpt lat="37.87155482129128" lon="14.914504053545375"><ele>864.0</ele><time>2026-04-29T09:45:32Z</time></trkpt><trkpt lat="37.87154837364059" lon="14.914647209266416"><ele>861.8333333333334</ele><time>2026-04-29T09:45:34Z</time></trkpt><trkpt lat="37.87147025680137" lon="14.914777848639027"><ele>859.6666666666667</ele><time>2026-04-29T09:45:36Z</time></trkpt><trkpt lat="37.871432163647626" lon="14.914849988352875"><ele>857.5</ele><time>2026-04-29T09:45:37Z</time></trkpt><trkpt lat="37.87139921164056" lon="14.914923431516545"><ele>855.3333333333334</ele><time>2026-04-29T09:45:38Z</time></trkpt><trkpt lat="37.87136768154973" lon="14.915007965004326"><ele>853.1666666666667</ele><time>2026-04-29T09:45:39Z</time></trkpt><trkpt lat="37.87134129843646" lon="14.915095525019716"><ele>851.0</ele><time>2026-04-29T09:45:40Z</time></trkpt><trkpt lat="37.87130621033672" lon="14.915251648840574"><ele>848.8</ele><time>2026-04-29T09:45:42Z</time></trkpt><trkpt lat="37.87128057519142" lon="14.915357148967097"><ele>846.5999999999999</ele><time>2026-04-29T09:45:43Z</time></trkpt><trkpt lat="37.87125262284649" lon="14.915438056428945"><ele>844.4</ele><time>2026-04-29T09:45:44Z</time></trkpt><trkpt lat="37.87121328239807" lon="14.91556012504769"><ele>842.2</ele><time>2026-04-29T09:45:45Z</time></trkpt><trkpt lat="37.871183555904736" lon="14.915694698751818"><ele>840.0</ele><time>2026-04-29T09:45:46Z</time></trkpt><trkpt lat="37.87118062556668" lon="14.91583604287406"><ele>837.75</ele><time>2026-04-29T09:45:47Z</time></trkpt><trkpt lat="37.8712025249423" lon="14.915982994985074"><ele>835.5</ele><time>2026-04-29T09:45:48Z</time></trkpt><trkpt lat="37.87122013831165" lon="14.91613112108617"><ele>833.25</ele><time>2026-04-29T09:45:49Z</time></trkpt><trkpt lat="37.871216975202294" lon="14.916273256720965"><ele>831.0</ele><time>2026-04-29T09:45:50Z</time></trkpt><trkpt lat="37.871199260624635" lon="14.916414353401024"><ele>831.0</ele><time>2026-04-29T09:45:51Z</time></trkpt><trkpt lat="37.871175369280124" lon="14.91655671738295"><ele>831.0</ele><time>2026-04-29T09:45:52Z</time></trkpt><trkpt lat="37.871157323125985" lon="14.91669247133398"><ele>831.0</ele><time>2026-04-29T09:45:53Z</time></trkpt><trkpt lat="37.87113811961934" lon="14.916820593694231"><ele>831.0</ele><time>2026-04-29T09:45:54Z</time></trkpt><trkpt lat="37.87112018740521" lon="14.916943971839553"><ele>831.0</ele><time>2026-04-29T09:45:55Z</time></trkpt><trkpt lat="37.87110726537576" lon="14.917051764180812"><ele>830.25</ele><time>2026-04-29T09:45:56Z</time></trkpt><trkpt lat="37.87107834630553" lon="14.917148807938712"><ele>829.5</ele><time>2026-04-29T09:45:58Z</time></trkpt><trkpt lat="37.87100808235198" lon="14.917130089615933"><ele>828.75</ele><time>2026-04-29T09:46:02Z</time></trkpt><trkpt lat="37.87083413478321" lon="14.91707630688799"><ele>828.0</ele><time>2026-04-29T09:48:02Z</time></trkpt><trkpt lat="37.87070457921937" lon="14.917070237172247"><ele>827.25</ele><time>2026-04-29T09:48:03Z</time></trkpt><trkpt lat="37.87057736500385" lon="14.917091832837247"><ele>826.5</ele><time>2026-04-29T09:48:04Z</time></trkpt><trkpt lat="37.87045532919952" lon="14.91713369377811"><ele>825.75</ele><time>2026-04-29T09:48:05Z</time></trkpt><trkpt lat="37.87034620090379" lon="14.917167220126123"><ele>825.0</ele><time>2026-04-29T09:48:06Z</time></trkpt><trkpt lat="37.8702401574836" lon="14.917191230456234"><ele>825.0</ele><time>2026-04-29T09:48:07Z</time></trkpt><trkpt lat="37.87013021950624" lon="14.917204582017469"><ele>825.0</ele><time>2026-04-29T09:48:08Z</time></trkpt><trkpt lat="37.87001998766238" lon="14.91720609257241"><ele>825.0</ele><time>2026-04-29T09:48:09Z</time></trkpt><trkpt lat="37.869926426799196" lon="14.917153691677509"><ele>825.0</ele><time>2026-04-29T09:48:10Z</time></trkpt><trkpt lat="37.86983583593947" lon="14.91711088352207"><ele>825.0</ele><time>2026-04-29T09:48:11Z</time></trkpt><trkpt lat="37.869741578658015" lon="14.917058724413689"><ele>825.4</ele><time>2026-04-29T09:48:12Z</time></trkpt><trkpt lat="37.86965316349097" lon="14.917001592036593"><ele>825.8</ele><time>2026-04-29T09:48:13Z</time></trkpt><trkpt lat="37.86959071471763" lon="14.916950824532492"><ele>826.2</ele><time>2026-04-29T09:48:14Z</time></trkpt><trkpt lat="37.86954485612001" lon="14.916822834854605"><ele>826.6</ele><time>2026-04-29T09:48:16Z</time></trkpt><trkpt lat="37.86953128977783" lon="14.916713823102265"><ele>827.0</ele><time>2026-04-29T09:48:17Z</time></trkpt><trkpt lat="37.86952855445761" lon="14.91659247281981"><ele>827.0</ele><time>2026-04-29T09:48:18Z</time></trkpt><trkpt lat="37.8695032100115" lon="14.916456922959837"><ele>827.0</ele><time>2026-04-29T09:48:19Z</time></trkpt><trkpt lat="37.8694508395003" lon="14.916319630318114"><ele>827.0</ele><time>2026-04-29T09:48:20Z</time></trkpt><trkpt lat="37.869378438107354" lon="14.916230196470405"><ele>827.0</ele><time>2026-04-29T09:48:21Z</time></trkpt><trkpt lat="37.86929943892722" lon="14.916158627393568"><ele>827.0</ele><time>2026-04-29T09:48:22Z</time></trkpt><trkpt lat="37.8691910946152" lon="14.916094804040414"><ele>827.0</ele><time>2026-04-29T09:48:23Z</time></trkpt><trkpt lat="37.86908784558943" lon="14.91599870908158"><ele>827.0</ele><time>2026-04-29T09:48:24Z</time></trkpt><trkpt lat="37.8689813384121" lon="14.915914989444294"><ele>827.0</ele><time>2026-04-29T09:48:25Z</time></trkpt><trkpt lat="37.86888097229603" lon="14.915836097259556"><ele>827.0</ele><time>2026-04-29T09:48:26Z</time></trkpt><trkpt lat="37.86878765986272" lon="14.91575903244375"><ele>829.25</ele><time>2026-04-29T09:48:27Z</time></trkpt><trkpt lat="37.86868390386881" lon="14.915695688459028"><ele>831.5</ele><time>2026-04-29T09:48:28Z</time></trkpt><trkpt lat="37.86858802891424" lon="14.91561731236484"><ele>833.75</ele><time>2026-04-29T09:48:29Z</time></trkpt><trkpt lat="37.868499252081364" lon="14.915529534244175"><ele>836.0</ele><time>2026-04-29T09:48:30Z</time></trkpt><trkpt lat="37.86840457742253" lon="14.915461038828196"><ele>836.1999999999999</ele><time>2026-04-29T09:48:31Z</time></trkpt><trkpt lat="37.86832517316283" lon="14.915394880536534"><ele>836.4</ele><time>2026-04-29T09:48:32Z</time></trkpt><trkpt lat="37.868255991160765" lon="14.915327297205392"><ele>836.6</ele><time>2026-04-29T09:48:33Z</time></trkpt><trkpt lat="37.86818138927786" lon="14.915240125432078"><ele>836.8</ele><time>2026-04-29T09:48:34Z</time></trkpt><trkpt lat="37.86812569988321" lon="14.915149980622408"><ele>837.0</ele><time>2026-04-29T09:48:35Z</time></trkpt><trkpt lat="37.86806113224796" lon="14.915048624701425"><ele>840.4000000000001</ele><time>2026-04-29T09:48:36Z</time></trkpt><trkpt lat="37.868005691965784" lon="14.914943813786994"><ele>843.8000000000001</ele><time>2026-04-29T09:48:37Z</time></trkpt><trkpt lat="37.86797724485012" lon="14.914825133157684"><ele>847.2</ele><time>2026-04-29T09:48:38Z</time></trkpt><trkpt lat="37.867954261407874" lon="14.91469459278173"><ele>850.6</ele><time>2026-04-29T09:48:39Z</time></trkpt><trkpt lat="37.86793060132457" lon="14.914525034361727"><ele>854.0</ele><time>2026-04-29T09:48:40Z</time></trkpt><trkpt lat="37.867910607368536" lon="14.914318709836332"><ele>855.5</ele><time>2026-04-29T09:48:41Z</time></trkpt><trkpt lat="37.86789984289448" lon="14.914120385862187"><ele>857.0</ele><time>2026-04-29T09:48:42Z</time></trkpt><trkpt lat="37.86789764295152" lon="14.91394888373363"><ele>858.5</ele><time>2026-04-29T09:48:43Z</time></trkpt><trkpt lat="37.867897056616485" lon="14.913792332639574"><ele>860.0</ele><time>2026-04-29T09:48:44Z</time></trkpt><trkpt lat="37.86789808747601" lon="14.913637741407088"><ele>860.0</ele><time>2026-04-29T09:48:45Z</time></trkpt><trkpt lat="37.867899851288634" lon="14.913488063204568"><ele>860.0</ele><time>2026-04-29T09:48:46Z</time></trkpt><trkpt lat="37.867901165293205" lon="14.913341587036998"><ele>860.0</ele><time>2026-04-29T09:48:47Z</time></trkpt><trkpt lat="37.86790116529151" lon="14.91320428651305"><ele>860.0</ele><time>2026-04-29T09:48:48Z</time></trkpt><trkpt lat="37.8679038550772" lon="14.91308127400936"><ele>860.0</ele><time>2026-04-29T09:48:49Z</time></trkpt><trkpt lat="37.86790975337338" lon="14.912980845417383"><ele>860.75</ele><time>2026-04-29T09:48:50Z</time></trkpt><trkpt lat="37.86774006411244" lon="14.91285175878036"><ele>861.5</ele><time>2026-04-29T09:48:52Z</time></trkpt><trkpt lat="37.86763582871662" lon="14.912811976428232"><ele>862.25</ele><time>2026-04-29T09:48:53Z</time></trkpt><trkpt lat="37.86752261265253" lon="14.912762191518814"><ele>863.0</ele><time>2026-04-29T09:48:54Z</time></trkpt><trkpt lat="37.86740542325136" lon="14.912718791826347"><ele>861.25</ele><time>2026-04-29T09:48:55Z</time></trkpt><trkpt lat="37.867265678644586" lon="14.912698932806808"><ele>859.5</ele><time>2026-04-29T09:48:56Z</time></trkpt><trkpt lat="37.86711409931466" lon="14.912692057729265"><ele>857.75</ele><time>2026-04-29T09:48:57Z</time></trkpt><trkpt lat="37.86697679685311" lon="14.912706060115053"><ele>856.0</ele><time>2026-04-29T09:48:58Z</time></trkpt><trkpt lat="37.866859188650125" lon="14.912743213732961"><ele>855.8</ele><time>2026-04-29T09:48:59Z</time></trkpt><trkpt lat="37.86675127020104" lon="14.912722375518522"><ele>855.5999999999999</ele><time>2026-04-29T09:49:00Z</time></trkpt><trkpt lat="37.86664687345698" lon="14.912696750132747"><ele>855.4</ele><time>2026-04-29T09:49:01Z</time></trkpt><trkpt lat="37.8665374108078" lon="14.912663131230962"><ele>855.2</ele><time>2026-04-29T09:49:02Z</time></trkpt><trkpt lat="37.866421843800026" lon="14.912638935560462"><ele>855.0</ele><time>2026-04-29T09:49:03Z</time></trkpt><trkpt lat="37.866311925077994" lon="14.91266526263071"><ele>855.0</ele><time>2026-04-29T09:49:04Z</time></trkpt><trkpt lat="37.86620892236704" lon="14.912690825103349"><ele>855.0</ele><time>2026-04-29T09:49:05Z</time></trkpt><trkpt lat="37.86612002333624" lon="14.912743827516188"><ele>855.0</ele><time>2026-04-29T09:49:06Z</time></trkpt><trkpt lat="37.866040240947015" lon="14.912801256239348"><ele>855.0</ele><time>2026-04-29T09:49:07Z</time></trkpt><trkpt lat="37.86595732143611" lon="14.912813463592103"><ele>855.0</ele><time>2026-04-29T09:49:08Z</time></trkpt><trkpt lat="37.86589395874693" lon="14.912851997591357"><ele>855.0</ele><time>2026-04-29T09:49:09Z</time></trkpt><trkpt lat="37.865802023560434" lon="14.912838757275386"><ele>855.0</ele><time>2026-04-29T09:49:11Z</time></trkpt><trkpt lat="37.865667626395435" lon="14.912749555695672"><ele>855.0</ele><time>2026-04-29T09:49:13Z</time></trkpt><trkpt lat="37.86579128665028" lon="14.9125665680109"><ele>855.0</ele><time>2026-04-29T09:49:14Z</time></trkpt><trkpt lat="37.86583868971113" lon="14.912434281672153"><ele>855.0</ele><time>2026-04-29T09:49:15Z</time></trkpt><trkpt lat="37.86589277803581" lon="14.912291584063647"><ele>855.0</ele><time>2026-04-29T09:49:16Z</time></trkpt><trkpt lat="37.86594589350527" lon="14.912133739751871"><ele>855.0</ele><time>2026-04-29T09:49:17Z</time></trkpt><trkpt lat="37.8660062035792" lon="14.911959123806525"><ele>855.0</ele><time>2026-04-29T09:49:18Z</time></trkpt><trkpt lat="37.86607238899611" lon="14.911770528653491"><ele>854.6666666666667</ele><time>2026-04-29T09:49:19Z</time></trkpt><trkpt lat="37.86613723290653" lon="14.911571938843778"><ele>854.3333333333334</ele><time>2026-04-29T09:49:20Z</time></trkpt><trkpt lat="37.86620348136956" lon="14.911369795978363"><ele>854.0</ele><time>2026-04-29T09:49:21Z</time></trkpt><trkpt lat="37.86627370880804" lon="14.911160996286123"><ele>854.0</ele><time>2026-04-29T09:49:22Z</time></trkpt><trkpt lat="37.86634295711806" lon="14.910951649954415"><ele>854.0</ele><time>2026-04-29T09:49:23Z</time></trkpt><trkpt lat="37.866409687104834" lon="14.910748232823098"><ele>854.0</ele><time>2026-04-29T09:49:24Z</time></trkpt><trkpt lat="37.86647712159598" lon="14.910544452025157"><ele>855.0</ele><time>2026-04-29T09:49:25Z</time></trkpt><trkpt lat="37.86654378282241" lon="14.910341683918984"><ele>856.0</ele><time>2026-04-29T09:49:26Z</time></trkpt><trkpt lat="37.86661847543486" lon="14.91012359694077"><ele>857.0</ele><time>2026-04-29T09:49:26.999Z</time></trkpt><trkpt lat="37.86670252304957" lon="14.90988131397652"><ele>856.6666666666667</ele><time>2026-04-29T09:49:27.999Z</time></trkpt><trkpt lat="37.866784750136546" lon="14.909637364521613"><ele>856.3333333333333</ele><time>2026-04-29T09:49:28.999Z</time></trkpt><trkpt lat="37.86686516332794" lon="14.909390484986439"><ele>856.0</ele><time>2026-04-29T09:49:29.999Z</time></trkpt><trkpt lat="37.866936912161975" lon="14.909168970299183"><ele>856.6666666666666</ele><time>2026-04-29T09:49:30.999Z</time></trkpt><trkpt lat="37.867004883113545" lon="14.908968849398219"><ele>857.3333333333333</ele><time>2026-04-29T09:49:31.999Z</time></trkpt><trkpt lat="37.86707072454522" lon="14.908781480078865"><ele>858.0</ele><time>2026-04-29T09:49:32.999Z</time></trkpt><trkpt lat="37.867137709877504" lon="14.908586181059855"><ele>859.6666666666667</ele><time>2026-04-29T09:49:33.999Z</time></trkpt><trkpt lat="37.867211397275526" lon="14.90835702561218"><ele>861.3333333333334</ele><time>2026-04-29T09:49:34.999Z</time></trkpt><trkpt lat="37.867288470345216" lon="14.908127196094776"><ele>863.0</ele><time>2026-04-29T09:49:35.999Z</time></trkpt><trkpt lat="37.86737128878901" lon="14.90788969190853"><ele>863.0</ele><time>2026-04-29T09:49:36.999Z</time></trkpt><trkpt lat="37.867453699542516" lon="14.907645018711092"><ele>863.0</ele><time>2026-04-29T09:49:37.999Z</time></trkpt><trkpt lat="37.86752928366385" lon="14.907389084576856"><ele>863.0</ele><time>2026-04-29T09:49:38.999Z</time></trkpt><trkpt lat="37.867612402230485" lon="14.90712917072435"><ele>862.5</ele><time>2026-04-29T09:49:39.999Z</time></trkpt><trkpt lat="37.86766746423571" lon="14.906846680771302"><ele>862.0</ele><time>2026-04-29T09:49:40.999Z</time></trkpt><trkpt lat="37.867708270924645" lon="14.906559054523292"><ele>862.0</ele><time>2026-04-29T09:49:41.999Z</time></trkpt><trkpt lat="37.86771683850316" lon="14.906265227765154"><ele>862.0</ele><time>2026-04-29T09:49:42.999Z</time></trkpt><trkpt lat="37.86773483188475" lon="14.905974321126568"><ele>861.6666666666666</ele><time>2026-04-29T09:49:43.999Z</time></trkpt><trkpt lat="37.86774704195125" lon="14.905694633348308"><ele>861.3333333333333</ele><time>2026-04-29T09:49:44.999Z</time></trkpt><trkpt lat="37.86775848654212" lon="14.905420970325771"><ele>861.0</ele><time>2026-04-29T09:49:45.999Z</time></trkpt><trkpt lat="37.86777150726541" lon="14.905152603011837"><ele>861.0</ele><time>2026-04-29T09:49:46.999Z</time></trkpt><trkpt lat="37.86778836999233" lon="14.904889371197608"><ele>861.0</ele><time>2026-04-29T09:49:47.999Z</time></trkpt><trkpt lat="37.8678058431093" lon="14.904626182103824"><ele>861.0</ele><time>2026-04-29T09:49:48.999Z</time></trkpt><trkpt lat="37.86782073793327" lon="14.904359413309372"><ele>860.3333333333333</ele><time>2026-04-29T09:49:49.999Z</time></trkpt><trkpt lat="37.867833970571525" lon="14.904087464680398"><ele>859.6666666666666</ele><time>2026-04-29T09:49:50.999Z</time></trkpt><trkpt lat="37.8678455705959" lon="14.903804213019697"><ele>859.0</ele><time>2026-04-29T09:49:51.999Z</time></trkpt><trkpt lat="37.86785982154702" lon="14.903514842330777"><ele>859.5</ele><time>2026-04-29T09:49:52.999Z</time></trkpt><trkpt lat="37.867876910259305" lon="14.903220521302812"><ele>860.0</ele><time>2026-04-29T09:49:53.999Z</time></trkpt><trkpt lat="37.867894323843316" lon="14.90292421332712"><ele>860.0</ele><time>2026-04-29T09:49:54.999Z</time></trkpt><trkpt lat="37.86791080191837" lon="14.902624603486409"><ele>860.0</ele><time>2026-04-29T09:49:55.999Z</time></trkpt><trkpt lat="37.867926180432406" lon="14.902321561490556"><ele>860.5</ele><time>2026-04-29T09:49:56.999Z</time></trkpt><trkpt lat="37.867942198321316" lon="14.902016724396782"><ele>861.0</ele><time>2026-04-29T09:49:57.999Z</time></trkpt><trkpt lat="37.86795772669658" lon="14.901711061531502"><ele>862.5</ele><time>2026-04-29T09:49:58.999Z</time></trkpt><trkpt lat="37.86797504463823" lon="14.90140492291923"><ele>864.0</ele><time>2026-04-29T09:49:59.999Z</time></trkpt><trkpt lat="37.86799293411281" lon="14.901100168556152"><ele>865.0</ele><time>2026-04-29T09:50:00.999Z</time></trkpt><trkpt lat="37.86800967992111" lon="14.900805068509477"><ele>866.0</ele><time>2026-04-29T09:50:01.999Z</time></trkpt><trkpt lat="37.86802414278768" lon="14.90051985883811"><ele>866.0</ele><time>2026-04-29T09:50:02.999Z</time></trkpt><trkpt lat="37.86803745696182" lon="14.900241882618113"><ele>866.0</ele><time>2026-04-29T09:50:03.999Z</time></trkpt><trkpt lat="37.868050226970674" lon="14.899967305388843"><ele>866.0</ele><time>2026-04-29T09:50:04.999Z</time></trkpt><trkpt lat="37.868063024477436" lon="14.899695988198095"><ele>865.0</ele><time>2026-04-29T09:50:05.999Z</time></trkpt><trkpt lat="37.86807730369981" lon="14.899426717165595"><ele>864.0</ele><time>2026-04-29T09:50:06.999Z</time></trkpt><trkpt lat="37.868092502482305" lon="14.899158937174196"><ele>863.0</ele><time>2026-04-29T09:50:07.999Z</time></trkpt><trkpt lat="37.86810929184512" lon="14.898893256833787"><ele>862.6666666666667</ele><time>2026-04-29T09:50:08.999Z</time></trkpt><trkpt lat="37.86812469956136" lon="14.898626366498203"><ele>862.3333333333333</ele><time>2026-04-29T09:50:09.999Z</time></trkpt><trkpt lat="37.86813665378516" lon="14.898358714552725"><ele>862.0</ele><time>2026-04-29T09:50:10.999Z</time></trkpt><trkpt lat="37.86814890615317" lon="14.898086600239843"><ele>862.0</ele><time>2026-04-29T09:50:11.999Z</time></trkpt><trkpt lat="37.86816339736004" lon="14.89781298055315"><ele>862.0</ele><time>2026-04-29T09:50:12.999Z</time></trkpt><trkpt lat="37.86817954647104" lon="14.897538408538377"><ele>862.0</ele><time>2026-04-29T09:50:13.999Z</time></trkpt><trkpt lat="37.86819701921819" lon="14.897262478351308"><ele>862.6666666666666</ele><time>2026-04-29T09:50:14.999Z</time></trkpt><trkpt lat="37.86821332396678" lon="14.896987352765148"><ele>863.3333333333333</ele><time>2026-04-29T09:50:15.999Z</time></trkpt><trkpt lat="37.868226266609874" lon="14.896712717567569"><ele>864.0</ele><time>2026-04-29T09:50:16.999Z</time></trkpt><trkpt lat="37.868237466308294" lon="14.89644040623586"><ele>865.0</ele><time>2026-04-29T09:50:17.999Z</time></trkpt><trkpt lat="37.86824831133247" lon="14.896172681714075"><ele>866.0</ele><time>2026-04-29T09:50:18.999Z</time></trkpt><trkpt lat="37.868259576575504" lon="14.895911324609092"><ele>867.0</ele><time>2026-04-29T09:50:19.999Z</time></trkpt><trkpt lat="37.86827043204103" lon="14.895658761014644"><ele>868.3333333333333</ele><time>2026-04-29T09:50:20.999Z</time></trkpt><trkpt lat="37.86828674928089" lon="14.89540866074909"><ele>869.6666666666666</ele><time>2026-04-29T09:50:21.999Z</time></trkpt><trkpt lat="37.86831944581774" lon="14.895163067080247"><ele>871.0</ele><time>2026-04-29T09:50:22.999Z</time></trkpt><trkpt lat="37.86836862454651" lon="14.894923819495663"><ele>871.3333333333333</ele><time>2026-04-29T09:50:23.999Z</time></trkpt><trkpt lat="37.868434391534855" lon="14.894692058017853"><ele>871.6666666666667</ele><time>2026-04-29T09:50:24.999Z</time></trkpt><trkpt lat="37.8685141296061" lon="14.894465629270776"><ele>872.0</ele><time>2026-04-29T09:50:25.999Z</time></trkpt><trkpt lat="37.86861248140606" lon="14.894243462658208"><ele>873.0</ele><time>2026-04-29T09:50:26.999Z</time></trkpt><trkpt lat="37.86872743994211" lon="14.894023721313118"><ele>874.0</ele><time>2026-04-29T09:50:27.999Z</time></trkpt><trkpt lat="37.868849560560285" lon="14.893803354021733"><ele>875.0</ele><time>2026-04-29T09:50:28.999Z</time></trkpt><trkpt lat="37.868968302585046" lon="14.893574166502852"><ele>875.3333333333334</ele><time>2026-04-29T09:50:29.999Z</time></trkpt><trkpt lat="37.86908400529061" lon="14.893340634028656"><ele>875.6666666666667</ele><time>2026-04-29T09:50:30.999Z</time></trkpt><trkpt lat="37.86920584029839" lon="14.893105749575078"><ele>876.0</ele><time>2026-04-29T09:50:31.999Z</time></trkpt><trkpt lat="37.86933059608218" lon="14.892870377618529"><ele>876.0</ele><time>2026-04-29T09:50:32.999Z</time></trkpt><trkpt lat="37.86945453032098" lon="14.892637518241456"><ele>876.0</ele><time>2026-04-29T09:50:33.999Z</time></trkpt><trkpt lat="37.86957084439824" lon="14.89240851176708"><ele>876.0</ele><time>2026-04-29T09:50:34.999Z</time></trkpt><trkpt lat="37.86968121059373" lon="14.89218363458758"><ele>876.6666666666667</ele><time>2026-04-29T09:50:35.999Z</time></trkpt><trkpt lat="37.86978386114941" lon="14.891956187196207"><ele>877.3333333333334</ele><time>2026-04-29T09:50:36.999Z</time></trkpt><trkpt lat="37.869880388473" lon="14.891723688744875"><ele>878.0</ele><time>2026-04-29T09:50:37.999Z</time></trkpt><trkpt lat="37.86997041491417" lon="14.89149563479982"><ele>878.3333333333334</ele><time>2026-04-29T09:50:38.999Z</time></trkpt><trkpt lat="37.870058625311735" lon="14.8912710768727"><ele>878.6666666666667</ele><time>2026-04-29T09:50:39.999Z</time></trkpt><trkpt lat="37.87014745470992" lon="14.891049335131914"><ele>879.0</ele><time>2026-04-29T09:50:40.999Z</time></trkpt><trkpt lat="37.870222819610504" lon="14.890823667696633"><ele>879.0</ele><time>2026-04-29T09:50:41.999Z</time></trkpt><trkpt lat="37.870274385170184" lon="14.890580381213192"><ele>879.0</ele><time>2026-04-29T09:50:42.999Z</time></trkpt><trkpt lat="37.87030499281473" lon="14.890326123657418"><ele>879.0</ele><time>2026-04-29T09:50:43.999Z</time></trkpt><trkpt lat="37.87031770368258" lon="14.890064928861527"><ele>879.0</ele><time>2026-04-29T09:50:44.999Z</time></trkpt><trkpt lat="37.870303011062106" lon="14.889798115526018"><ele>879.0</ele><time>2026-04-29T09:50:45.999Z</time></trkpt><trkpt lat="37.870256376914796" lon="14.889534447518027"><ele>879.0</ele><time>2026-04-29T09:50:46.999Z</time></trkpt><trkpt lat="37.870179868816585" lon="14.889279541409515"><ele>876.0</ele><time>2026-04-29T09:50:47.999Z</time></trkpt><trkpt lat="37.870078886692475" lon="14.889038935559261"><ele>873.0</ele><time>2026-04-29T09:50:48.999Z</time></trkpt><trkpt lat="37.86994619996987" lon="14.888820562164481"><ele>870.0</ele><time>2026-04-29T09:50:49.999Z</time></trkpt><trkpt lat="37.86981177688766" lon="14.888605439649687"><ele>869.0</ele><time>2026-04-29T09:50:50.999Z</time></trkpt><trkpt lat="37.869686421103225" lon="14.888389852314512"><ele>868.0</ele><time>2026-04-29T09:50:51.999Z</time></trkpt><trkpt lat="37.86957000429326" lon="14.888184986094616"><ele>867.0</ele><time>2026-04-29T09:50:52.999Z</time></trkpt><trkpt lat="37.86945265470938" lon="14.88798375852459"><ele>867.0</ele><time>2026-04-29T09:50:53.999Z</time></trkpt><trkpt lat="37.86933386992844" lon="14.887781402364102"><ele>867.0</ele><time>2026-04-29T09:50:54.999Z</time></trkpt><trkpt lat="37.869215576098526" lon="14.88757750755008"><ele>867.0</ele><time>2026-04-29T09:50:55.999Z</time></trkpt><trkpt lat="37.86910020499452" lon="14.887373781562005"><ele>868.3333333333333</ele><time>2026-04-29T09:50:56.999Z</time></trkpt><trkpt lat="37.868986141094986" lon="14.887166175655912"><ele>869.6666666666666</ele><time>2026-04-29T09:50:57.999Z</time></trkpt><trkpt lat="37.86887185464058" lon="14.886954348457646"><ele>871.0</ele><time>2026-04-29T09:50:58.999Z</time></trkpt><trkpt lat="37.868752781498394" lon="14.886743047401708"><ele>871.0</ele><time>2026-04-29T09:51:00Z</time></trkpt><trkpt lat="37.86863385000001" lon="14.886529029256831"><ele>871.0</ele><time>2026-04-29T09:51:01Z</time></trkpt><trkpt lat="37.86851423027416" lon="14.886309520608044"><ele>871.0</ele><time>2026-04-29T09:51:02Z</time></trkpt><trkpt lat="37.86839532499954" lon="14.886077929352139"><ele>871.0</ele><time>2026-04-29T09:51:03Z</time></trkpt><trkpt lat="37.86828416995525" lon="14.885837632975441"><ele>871.0</ele><time>2026-04-29T09:51:04Z</time></trkpt><trkpt lat="37.868176021530566" lon="14.885594319398612"><ele>871.0</ele><time>2026-04-29T09:51:05Z</time></trkpt><trkpt lat="37.8680669087275" lon="14.885350339649335"><ele>871.0</ele><time>2026-04-29T09:51:06Z</time></trkpt><trkpt lat="37.86795861050762" lon="14.885105031474033"><ele>871.0</ele><time>2026-04-29T09:51:07Z</time></trkpt><trkpt lat="37.86784962943692" lon="14.884862015995456"><ele>871.0</ele><time>2026-04-29T09:51:08Z</time></trkpt><trkpt lat="37.86773921465108" lon="14.88462072478867"><ele>871.3333333333333</ele><time>2026-04-29T09:51:09Z</time></trkpt><trkpt lat="37.8676276396672" lon="14.884382093178852"><ele>871.6666666666667</ele><time>2026-04-29T09:51:10Z</time></trkpt><trkpt lat="37.86751652084973" lon="14.884144523223076"><ele>872.0</ele><time>2026-04-29T09:51:11Z</time></trkpt><trkpt lat="37.867413799384344" lon="14.883914027551857"><ele>872.6666666666667</ele><time>2026-04-29T09:51:12Z</time></trkpt><trkpt lat="37.86731790036984" lon="14.883690117199317"><ele>873.3333333333333</ele><time>2026-04-29T09:51:13Z</time></trkpt><trkpt lat="37.867219470615446" lon="14.883474121600317"><ele>874.0</ele><time>2026-04-29T09:51:14Z</time></trkpt><trkpt lat="37.86712626011293" lon="14.883275269343233"><ele>874.3333333333333</ele><time>2026-04-29T09:51:15Z</time></trkpt><trkpt lat="37.867043965000256" lon="14.883090153699893"><ele>874.6666666666667</ele><time>2026-04-29T09:51:16Z</time></trkpt><trkpt lat="37.86696170996447" lon="14.882908057692378"><ele>875.0</ele><time>2026-04-29T09:51:17Z</time></trkpt><trkpt lat="37.866880430380036" lon="14.882735546575475"><ele>874.6666666666667</ele><time>2026-04-29T09:51:18Z</time></trkpt><trkpt lat="37.86679830906192" lon="14.882567750365945"><ele>874.3333333333333</ele><time>2026-04-29T09:51:19Z</time></trkpt><trkpt lat="37.86671714363154" lon="14.882396018027265"><ele>874.0</ele><time>2026-04-29T09:51:20Z</time></trkpt><trkpt lat="37.86663862326066" lon="14.882214962570378"><ele>874.6666666666666</ele><time>2026-04-29T09:51:21Z</time></trkpt><trkpt lat="37.86655882413476" lon="14.882024912511698"><ele>875.3333333333333</ele><time>2026-04-29T09:51:22Z</time></trkpt><trkpt lat="37.866472582313165" lon="14.881829277793662"><ele>876.0</ele><time>2026-04-29T09:51:23Z</time></trkpt><trkpt lat="37.86638174733453" lon="14.881628238013327"><ele>876.0</ele><time>2026-04-29T09:51:24Z</time></trkpt><trkpt lat="37.866286813851396" lon="14.881423195739663"><ele>876.0</ele><time>2026-04-29T09:51:25Z</time></trkpt><trkpt lat="37.86619166006211" lon="14.881217417730964"><ele>876.0</ele><time>2026-04-29T09:51:26Z</time></trkpt><trkpt lat="37.866096663166275" lon="14.88100669509096"><ele>876.0</ele><time>2026-04-29T09:51:27Z</time></trkpt><trkpt lat="37.86599853467735" lon="14.880791024982011"><ele>876.0</ele><time>2026-04-29T09:51:28Z</time></trkpt><trkpt lat="37.86589605296005" lon="14.880568509405707"><ele>876.0</ele><time>2026-04-29T09:51:29Z</time></trkpt><trkpt lat="37.86578923095059" lon="14.88034241079773"><ele>876.3333333333333</ele><time>2026-04-29T09:51:30Z</time></trkpt><trkpt lat="37.86568421838715" lon="14.880118114417172"><ele>876.6666666666666</ele><time>2026-04-29T09:51:31Z</time></trkpt><trkpt lat="37.86558199028766" lon="14.879889893182337"><ele>877.0</ele><time>2026-04-29T09:51:32Z</time></trkpt><trkpt lat="37.86547901958198" lon="14.879661304621601"><ele>877.0</ele><time>2026-04-29T09:51:33Z</time></trkpt><trkpt lat="37.865375860350596" lon="14.879435196770192"><ele>877.0</ele><time>2026-04-29T09:51:34Z</time></trkpt><trkpt lat="37.865277720728336" lon="14.879219932758113"><ele>877.0</ele><time>2026-04-29T09:51:35Z</time></trkpt><trkpt lat="37.865180113638004" lon="14.879008662747438"><ele>877.6666666666666</ele><time>2026-04-29T09:51:36Z</time></trkpt><trkpt lat="37.86508400588836" lon="14.878798074973927"><ele>878.3333333333333</ele><time>2026-04-29T09:51:37Z</time></trkpt><trkpt lat="37.86498718893308" lon="14.878583173102841"><ele>879.0</ele><time>2026-04-29T09:51:38Z</time></trkpt><trkpt lat="37.86488943519198" lon="14.878364939627708"><ele>880.3333333333333</ele><time>2026-04-29T09:51:39Z</time></trkpt><trkpt lat="37.864791616458696" lon="14.878143202554927"><ele>881.6666666666666</ele><time>2026-04-29T09:51:40Z</time></trkpt><trkpt lat="37.86469738597938" lon="14.877916325971285"><ele>883.0</ele><time>2026-04-29T09:51:41Z</time></trkpt><trkpt lat="37.86460878244356" lon="14.877684270715324"><ele>884.0</ele><time>2026-04-29T09:51:42Z</time></trkpt><trkpt lat="37.864523625123915" lon="14.877446904068682"><ele>885.0</ele><time>2026-04-29T09:51:43Z</time></trkpt><trkpt lat="37.86444230001508" lon="14.877203238984483"><ele>886.0</ele><time>2026-04-29T09:51:44Z</time></trkpt><trkpt lat="37.86436394904147" lon="14.876953639348102"><ele>886.0</ele><time>2026-04-29T09:51:45Z</time></trkpt><trkpt lat="37.86428731973263" lon="14.876702117834515"><ele>886.0</ele><time>2026-04-29T09:51:46Z</time></trkpt><trkpt lat="37.86420973732389" lon="14.876452746453609"><ele>886.0</ele><time>2026-04-29T09:51:47Z</time></trkpt><trkpt lat="37.86413032326469" lon="14.87620304301188"><ele>884.0</ele><time>2026-04-29T09:51:48Z</time></trkpt><trkpt lat="37.86405087790274" lon="14.875956247660504"><ele>882.0</ele><time>2026-04-29T09:51:49Z</time></trkpt><trkpt lat="37.86397247594346" lon="14.875711967960374"><ele>880.0</ele><time>2026-04-29T09:51:50Z</time></trkpt><trkpt lat="37.86389453336239" lon="14.875468434073527"><ele>880.0</ele><time>2026-04-29T09:51:51Z</time></trkpt><trkpt lat="37.86381674128422" lon="14.87522392327821"><ele>880.0</ele><time>2026-04-29T09:51:52Z</time></trkpt><trkpt lat="37.86373781630463" lon="14.874977069846668"><ele>880.0</ele><time>2026-04-29T09:51:53Z</time></trkpt><trkpt lat="37.86365760768864" lon="14.87472762165077"><ele>880.0</ele><time>2026-04-29T09:51:54Z</time></trkpt><trkpt lat="37.86357589171885" lon="14.87447661168488"><ele>880.0</ele><time>2026-04-29T09:51:55Z</time></trkpt><trkpt lat="37.86349473200836" lon="14.874221293101803"><ele>880.0</ele><time>2026-04-29T09:51:56Z</time></trkpt><trkpt lat="37.86341307762294" lon="14.873962334583464"><ele>880.0</ele><time>2026-04-29T09:51:57Z</time></trkpt><trkpt lat="37.86332973512457" lon="14.873700331310062"><ele>880.0</ele><time>2026-04-29T09:51:58Z</time></trkpt><trkpt lat="37.863245349167364" lon="14.873435438617514"><ele>880.0</ele><time>2026-04-29T09:51:59Z</time></trkpt><trkpt lat="37.86315894250689" lon="14.87316931936474"><ele>880.5</ele><time>2026-04-29T09:52:00Z</time></trkpt><trkpt lat="37.86307128382485" lon="14.872902919280119"><ele>881.0</ele><time>2026-04-29T09:52:01Z</time></trkpt><trkpt lat="37.862983824243635" lon="14.872635893051932"><ele>881.0</ele><time>2026-04-29T09:52:02Z</time></trkpt><trkpt lat="37.86289603073761" lon="14.87236876613775"><ele>881.0</ele><time>2026-04-29T09:52:03Z</time></trkpt><trkpt lat="37.862809159829276" lon="14.872103379516947"><ele>881.0</ele><time>2026-04-29T09:52:04Z</time></trkpt><trkpt lat="37.862724775018606" lon="14.871837303219714"><ele>881.0</ele><time>2026-04-29T09:52:05Z</time></trkpt><trkpt lat="37.86264278062639" lon="14.87157007778842"><ele>880.5</ele><time>2026-04-29T09:52:06Z</time></trkpt><trkpt lat="37.862560300563935" lon="14.871303919423784"><ele>880.0</ele><time>2026-04-29T09:52:07Z</time></trkpt><trkpt lat="37.8624750324566" lon="14.871041051497803"><ele>880.3333333333333</ele><time>2026-04-29T09:52:08Z</time></trkpt><trkpt lat="37.86238904684547" lon="14.870779004989956"><ele>880.6666666666667</ele><time>2026-04-29T09:52:09Z</time></trkpt><trkpt lat="37.86230401770312" lon="14.87051828905024"><ele>881.0</ele><time>2026-04-29T09:52:10Z</time></trkpt><trkpt lat="37.86222023419788" lon="14.870259632049597"><ele>882.0</ele><time>2026-04-29T09:52:11Z</time></trkpt><trkpt lat="37.86213764985432" lon="14.87000337180339"><ele>883.0</ele><time>2026-04-29T09:52:12Z</time></trkpt><trkpt lat="37.86205605475833" lon="14.869749919925164"><ele>884.0</ele><time>2026-04-29T09:52:13Z</time></trkpt><trkpt lat="37.86197615141857" lon="14.869499824802737"><ele>883.0</ele><time>2026-04-29T09:52:14Z</time></trkpt><trkpt lat="37.86189824167347" lon="14.869252092294314"><ele>882.0</ele><time>2026-04-29T09:52:15Z</time></trkpt><trkpt lat="37.86182840014976" lon="14.869002503820933"><ele>881.0</ele><time>2026-04-29T09:52:16Z</time></trkpt><trkpt lat="37.861764618173844" lon="14.868750260278288"><ele>881.0</ele><time>2026-04-29T09:52:17Z</time></trkpt><trkpt lat="37.861705480318086" lon="14.868496284559537"><ele>881.0</ele><time>2026-04-29T09:52:18Z</time></trkpt><trkpt lat="37.861648235363894" lon="14.868240685924654"><ele>881.0</ele><time>2026-04-29T09:52:19Z</time></trkpt><trkpt lat="37.86159226200594" lon="14.867983017372536"><ele>882.3333333333334</ele><time>2026-04-29T09:52:20Z</time></trkpt><trkpt lat="37.861535735565624" lon="14.867723722174874"><ele>883.6666666666667</ele><time>2026-04-29T09:52:21Z</time></trkpt><trkpt lat="37.861483658154306" lon="14.867463894252694"><ele>885.0</ele><time>2026-04-29T09:52:22Z</time></trkpt><trkpt lat="37.8614415064621" lon="14.867201600300055"><ele>885.0</ele><time>2026-04-29T09:52:23Z</time></trkpt><trkpt lat="37.86141388137539" lon="14.86693625968036"><ele>885.0</ele><time>2026-04-29T09:52:24Z</time></trkpt><trkpt lat="37.86139969049467" lon="14.866664641454078"><ele>885.0</ele><time>2026-04-29T09:52:25Z</time></trkpt><trkpt lat="37.86139501828314" lon="14.866387672168075"><ele>884.3333333333333</ele><time>2026-04-29T09:52:26Z</time></trkpt><trkpt lat="37.86139075619402" lon="14.866108956585403"><ele>883.6666666666666</ele><time>2026-04-29T09:52:27Z</time></trkpt><trkpt lat="37.86138354531154" lon="14.865830222583579"><ele>883.0</ele><time>2026-04-29T09:52:28Z</time></trkpt><trkpt lat="37.86137411941654" lon="14.865549945850182"><ele>882.3333333333333</ele><time>2026-04-29T09:52:29Z</time></trkpt><trkpt lat="37.86136259840625" lon="14.865267195201993"><ele>881.6666666666667</ele><time>2026-04-29T09:52:30Z</time></trkpt><trkpt lat="37.86134996022928" lon="14.864982552867948"><ele>881.0</ele><time>2026-04-29T09:52:31Z</time></trkpt><trkpt lat="37.861338123444064" lon="14.864696434066902"><ele>880.5</ele><time>2026-04-29T09:52:32Z</time></trkpt><trkpt lat="37.861328059574845" lon="14.864411922032307"><ele>880.0</ele><time>2026-04-29T09:52:33Z</time></trkpt><trkpt lat="37.86131935296414" lon="14.864126519065607"><ele>879.0</ele><time>2026-04-29T09:52:34Z</time></trkpt><trkpt lat="37.861311350806" lon="14.863837759268755"><ele>878.0</ele><time>2026-04-29T09:52:35Z</time></trkpt><trkpt lat="37.86130241541095" lon="14.863549494156072"><ele>876.5</ele><time>2026-04-29T09:52:36Z</time></trkpt><trkpt lat="37.86129249218007" lon="14.863261103572986"><ele>875.0</ele><time>2026-04-29T09:52:37Z</time></trkpt><trkpt lat="37.861279726491915" lon="14.862974957016508"><ele>875.0</ele><time>2026-04-29T09:52:38Z</time></trkpt><trkpt lat="37.86126838103677" lon="14.862692076984633"><ele>875.0</ele><time>2026-04-29T09:52:39Z</time></trkpt><trkpt lat="37.86126016006856" lon="14.862409616757036"><ele>875.0</ele><time>2026-04-29T09:52:40Z</time></trkpt><trkpt lat="37.86125157900119" lon="14.862125571948122"><ele>874.6666666666667</ele><time>2026-04-29T09:52:41Z</time></trkpt><trkpt lat="37.86124183671407" lon="14.861840705208309"><ele>874.3333333333333</ele><time>2026-04-29T09:52:42Z</time></trkpt><trkpt lat="37.86123241507764" lon="14.861558240198562"><ele>874.0</ele><time>2026-04-29T09:52:43Z</time></trkpt><trkpt lat="37.86122140577216" lon="14.861277904131269"><ele>874.0</ele><time>2026-04-29T09:52:44Z</time></trkpt><trkpt lat="37.86120297460827" lon="14.86100050739709"><ele>874.0</ele><time>2026-04-29T09:52:45Z</time></trkpt><trkpt lat="37.86116717105049" lon="14.860727668178608"><ele>874.0</ele><time>2026-04-29T09:52:46Z</time></trkpt><trkpt lat="37.86111359327874" lon="14.860458801795943"><ele>873.0</ele><time>2026-04-29T09:52:47Z</time></trkpt><trkpt lat="37.861044639065234" lon="14.860194734782112"><ele>872.0</ele><time>2026-04-29T09:52:48Z</time></trkpt><trkpt lat="37.86096175722759" lon="14.859935727236122"><ele>871.0</ele><time>2026-04-29T09:52:49Z</time></trkpt><trkpt lat="37.86086231889095" lon="14.85968482393555"><ele>870.3333333333333</ele><time>2026-04-29T09:52:50Z</time></trkpt><trkpt lat="37.86074795727457" lon="14.85944431814239"><ele>869.6666666666667</ele><time>2026-04-29T09:52:51Z</time></trkpt><trkpt lat="37.86062440850934" lon="14.859210327434422"><ele>869.0</ele><time>2026-04-29T09:52:52Z</time></trkpt><trkpt lat="37.86049671346587" lon="14.85897703436465"><ele>868.0</ele><time>2026-04-29T09:52:53Z</time></trkpt><trkpt lat="37.86036570379077" lon="14.858743617148729"><ele>867.0</ele><time>2026-04-29T09:52:54Z</time></trkpt><trkpt lat="37.86023647674866" lon="14.858508768479753"><ele>867.0</ele><time>2026-04-29T09:52:55Z</time></trkpt><trkpt lat="37.860108982581885" lon="14.858271586254915"><ele>867.0</ele><time>2026-04-29T09:52:56Z</time></trkpt><trkpt lat="37.85998129865843" lon="14.85803560162536"><ele>867.0</ele><time>2026-04-29T09:52:57Z</time></trkpt><trkpt lat="37.85985344929351" lon="14.857799696019502"><ele>867.0</ele><time>2026-04-29T09:52:58Z</time></trkpt><trkpt lat="37.85972480572063" lon="14.857564086996621"><ele>867.0</ele><time>2026-04-29T09:52:59Z</time></trkpt><trkpt lat="37.85959585803864" lon="14.857327312191213"><ele>867.0</ele><time>2026-04-29T09:53:00Z</time></trkpt><trkpt lat="37.85946845251115" lon="14.857090087363854"><ele>867.0</ele><time>2026-04-29T09:53:01Z</time></trkpt><trkpt lat="37.85934129316187" lon="14.856852332321939"><ele>867.0</ele><time>2026-04-29T09:53:02Z</time></trkpt><trkpt lat="37.85921383364766" lon="14.856614642813096"><ele>866.0</ele><time>2026-04-29T09:53:03Z</time></trkpt><trkpt lat="37.85908482300631" lon="14.85637866677597"><ele>865.0</ele><time>2026-04-29T09:53:04Z</time></trkpt><trkpt lat="37.8589581918299" lon="14.856145678784413"><ele>864.0</ele><time>2026-04-29T09:53:05Z</time></trkpt><trkpt lat="37.85883543013781" lon="14.855916637341627"><ele>863.0</ele><time>2026-04-29T09:53:06Z</time></trkpt><trkpt lat="37.858716931657355" lon="14.855691168064624"><ele>862.0</ele><time>2026-04-29T09:53:07Z</time></trkpt><trkpt lat="37.858598552201215" lon="14.855468472312975"><ele>862.0</ele><time>2026-04-29T09:53:08Z</time></trkpt><trkpt lat="37.858479825550255" lon="14.855248225879071"><ele>862.0</ele><time>2026-04-29T09:53:09Z</time></trkpt><trkpt lat="37.85836232018759" lon="14.855027787633446"><ele>862.0</ele><time>2026-04-29T09:53:10Z</time></trkpt><trkpt lat="37.858246074581864" lon="14.854803824289633"><ele>861.3333333333333</ele><time>2026-04-29T09:53:11Z</time></trkpt><trkpt lat="37.858124704292486" lon="14.854579316398421"><ele>860.6666666666667</ele><time>2026-04-29T09:53:12Z</time></trkpt><trkpt lat="37.85800136710087" lon="14.85435398865921"><ele>860.0</ele><time>2026-04-29T09:53:13Z</time></trkpt><trkpt lat="37.8578794753123" lon="14.854127196162272"><ele>859.3333333333334</ele><time>2026-04-29T09:53:14Z</time></trkpt><trkpt lat="37.85775825836647" lon="14.853902422353707"><ele>858.6666666666667</ele><time>2026-04-29T09:53:15Z</time></trkpt><trkpt lat="37.85763656397906" lon="14.853676384722103"><ele>858.0</ele><time>2026-04-29T09:53:16Z</time></trkpt><trkpt lat="37.85751547646675" lon="14.85344880342245"><ele>857.3333333333333</ele><time>2026-04-29T09:53:17Z</time></trkpt><trkpt lat="37.85739271051297" lon="14.853221327832566"><ele>856.6666666666666</ele><time>2026-04-29T09:53:18Z</time></trkpt><trkpt lat="37.85726784538514" lon="14.852990147589514"><ele>856.0</ele><time>2026-04-29T09:53:19Z</time></trkpt><trkpt lat="37.85714188569303" lon="14.852755117719665"><ele>854.6666666666666</ele><time>2026-04-29T09:53:20Z</time></trkpt><trkpt lat="37.85701563362874" lon="14.852521573361148"><ele>853.3333333333333</ele><time>2026-04-29T09:53:21Z</time></trkpt><trkpt lat="37.85689011994754" lon="14.852287652411336"><ele>852.0</ele><time>2026-04-29T09:53:22Z</time></trkpt><trkpt lat="37.85676569665952" lon="14.85205545083564"><ele>851.6666666666667</ele><time>2026-04-29T09:53:23Z</time></trkpt><trkpt lat="37.856642692430135" lon="14.851829486168747"><ele>851.3333333333334</ele><time>2026-04-29T09:53:24Z</time></trkpt><trkpt lat="37.85652473548587" lon="14.851608982653566"><ele>851.0</ele><time>2026-04-29T09:53:25Z</time></trkpt><trkpt lat="37.85640757744336" lon="14.851389668338795"><ele>851.0</ele><time>2026-04-29T09:53:26Z</time></trkpt><trkpt lat="37.85628971780261" lon="14.851172892328249"><ele>851.0</ele><time>2026-04-29T09:53:27Z</time></trkpt><trkpt lat="37.85617317432356" lon="14.850954021025933"><ele>851.0</ele><time>2026-04-29T09:53:28Z</time></trkpt><trkpt lat="37.85605722837225" lon="14.850733219737068"><ele>851.0</ele><time>2026-04-29T09:53:29Z</time></trkpt><trkpt lat="37.85593875512254" lon="14.85051078097955"><ele>851.0</ele><time>2026-04-29T09:53:30Z</time></trkpt><trkpt lat="37.855818092370036" lon="14.850289281337318"><ele>851.0</ele><time>2026-04-29T09:53:31Z</time></trkpt><trkpt lat="37.85569713566754" lon="14.850064904212248"><ele>850.3333333333334</ele><time>2026-04-29T09:53:32Z</time></trkpt><trkpt lat="37.85557722437066" lon="14.84983984301245"><ele>849.6666666666667</ele><time>2026-04-29T09:53:33Z</time></trkpt><trkpt lat="37.85545571670483" lon="14.849613925945361"><ele>849.0</ele><time>2026-04-29T09:53:34Z</time></trkpt><trkpt lat="37.85533352800353" lon="14.849387063843485"><ele>847.6666666666667</ele><time>2026-04-29T09:53:35Z</time></trkpt><trkpt lat="37.855211741733925" lon="14.849157800137991"><ele>846.3333333333334</ele><time>2026-04-29T09:53:36Z</time></trkpt><trkpt lat="37.855090419440806" lon="14.84892736596962"><ele>845.0</ele><time>2026-04-29T09:53:37Z</time></trkpt><trkpt lat="37.85496685545881" lon="14.848698234982109"><ele>845.0</ele><time>2026-04-29T09:53:38Z</time></trkpt><trkpt lat="37.854842301230704" lon="14.848470381586944"><ele>845.0</ele><time>2026-04-29T09:53:39Z</time></trkpt><trkpt lat="37.85471641755988" lon="14.848239154809734"><ele>845.0</ele><time>2026-04-29T09:53:40Z</time></trkpt><trkpt lat="37.854591613934474" lon="14.84800665697701"><ele>844.3333333333334</ele><time>2026-04-29T09:53:41Z</time></trkpt><trkpt lat="37.85446723069011" lon="14.847772759031164"><ele>843.6666666666667</ele><time>2026-04-29T09:53:42Z</time></trkpt><trkpt lat="37.85434348997018" lon="14.84753754773076"><ele>843.0</ele><time>2026-04-29T09:53:43Z</time></trkpt><trkpt lat="37.85421801121716" lon="14.847304535968638"><ele>843.0</ele><time>2026-04-29T09:53:44Z</time></trkpt><trkpt lat="37.85409067083066" lon="14.847072839423841"><ele>843.0</ele><time>2026-04-29T09:53:45Z</time></trkpt><trkpt lat="37.85396287508183" lon="14.84684131771301"><ele>843.0</ele><time>2026-04-29T09:53:46Z</time></trkpt><trkpt lat="37.85383560135523" lon="14.846609413178372"><ele>842.3333333333333</ele><time>2026-04-29T09:53:47Z</time></trkpt><trkpt lat="37.853709674071304" lon="14.846375556653562"><ele>841.6666666666666</ele><time>2026-04-29T09:53:48Z</time></trkpt><trkpt lat="37.85358381246894" lon="14.846141349079632"><ele>841.0</ele><time>2026-04-29T09:53:49Z</time></trkpt><trkpt lat="37.85345753088052" lon="14.845908303033443"><ele>841.5</ele><time>2026-04-29T09:53:50Z</time></trkpt><trkpt lat="37.853329913254385" lon="14.845674862973873"><ele>842.0</ele><time>2026-04-29T09:53:51Z</time></trkpt><trkpt lat="37.85320259248016" lon="14.845438826098018"><ele>842.0</ele><time>2026-04-29T09:53:52Z</time></trkpt><trkpt lat="37.85307636728191" lon="14.845200171315646"><ele>842.0</ele><time>2026-04-29T09:53:53Z</time></trkpt><trkpt lat="37.85295043292732" lon="14.844961231355402"><ele>841.0</ele><time>2026-04-29T09:53:54Z</time></trkpt><trkpt lat="37.85282486916536" lon="14.844721355461637"><ele>840.0</ele><time>2026-04-29T09:53:55Z</time></trkpt><trkpt lat="37.852697584079735" lon="14.844485521126296"><ele>838.3333333333333</ele><time>2026-04-29T09:53:56Z</time></trkpt><trkpt lat="37.852571382504316" lon="14.844259933388438"><ele>836.6666666666666</ele><time>2026-04-29T09:53:57Z</time></trkpt><trkpt lat="37.85245335243293" lon="14.844045243740384"><ele>835.0</ele><time>2026-04-29T09:53:58Z</time></trkpt><trkpt lat="37.85234405777626" lon="14.84383621343259"><ele>835.0</ele><time>2026-04-29T09:53:59Z</time></trkpt><trkpt lat="37.852235741710565" lon="14.843629318425139"><ele>835.0</ele><time>2026-04-29T09:54:00Z</time></trkpt><trkpt lat="37.85212435012169" lon="14.843421213737194"><ele>835.0</ele><time>2026-04-29T09:54:01Z</time></trkpt><trkpt lat="37.85201249978358" lon="14.843216029308998"><ele>834.6666666666666</ele><time>2026-04-29T09:54:02Z</time></trkpt><trkpt lat="37.85190203333541" lon="14.843014110897462"><ele>834.3333333333333</ele><time>2026-04-29T09:54:03Z</time></trkpt><trkpt lat="37.85179737034167" lon="14.842817550012207"><ele>834.0</ele><time>2026-04-29T09:54:04Z</time></trkpt><trkpt lat="37.85169463460211" lon="14.84262505585972"><ele>832.6666666666667</ele><time>2026-04-29T09:54:05Z</time></trkpt><trkpt lat="37.85158982513708" lon="14.842427492759848"><ele>831.3333333333334</ele><time>2026-04-29T09:54:06Z</time></trkpt><trkpt lat="37.85148488636776" lon="14.842229422212275"><ele>830.0</ele><time>2026-04-29T09:54:07Z</time></trkpt><trkpt lat="37.85137583290431" lon="14.842029303649538"><ele>830.0</ele><time>2026-04-29T09:54:08Z</time></trkpt><trkpt lat="37.85126883421164" lon="14.84183148969976"><ele>830.0</ele><time>2026-04-29T09:54:09Z</time></trkpt><trkpt lat="37.85116167109181" lon="14.841630121932875"><ele>830.0</ele><time>2026-04-29T09:54:10Z</time></trkpt><trkpt lat="37.851055675615896" lon="14.841431754276675"><ele>829.3333333333334</ele><time>2026-04-29T09:54:11Z</time></trkpt><trkpt lat="37.85094700666043" lon="14.841234193433367"><ele>828.6666666666667</ele><time>2026-04-29T09:54:12Z</time></trkpt><trkpt lat="37.850835951108664" lon="14.841035829592956"><ele>828.0</ele><time>2026-04-29T09:54:13Z</time></trkpt><trkpt lat="37.8507261697783" lon="14.840832860478379"><ele>827.3333333333333</ele><time>2026-04-29T09:54:14Z</time></trkpt><trkpt lat="37.85062104510964" lon="14.840613114985874"><ele>826.6666666666666</ele><time>2026-04-29T09:54:15Z</time></trkpt><trkpt lat="37.85053033426445" lon="14.840378497693616"><ele>826.0</ele><time>2026-04-29T09:54:16Z</time></trkpt><trkpt lat="37.8504566901319" lon="14.840129701157277"><ele>825.6666666666666</ele><time>2026-04-29T09:54:17Z</time></trkpt><trkpt lat="37.85039153541112" lon="14.83986874133198"><ele>825.3333333333333</ele><time>2026-04-29T09:54:18Z</time></trkpt><trkpt lat="37.85032796749163" lon="14.839604248635201"><ele>825.0</ele><time>2026-04-29T09:54:19Z</time></trkpt><trkpt lat="37.85026424191929" lon="14.8393494806208"><ele>824.6666666666667</ele><time>2026-04-29T09:54:20Z</time></trkpt><trkpt lat="37.85020441437979" lon="14.839107361770683"><ele>824.3333333333334</ele><time>2026-04-29T09:54:21Z</time></trkpt><trkpt lat="37.85014984736759" lon="14.838878813021246"><ele>824.0</ele><time>2026-04-29T09:54:22Z</time></trkpt><trkpt lat="37.85009979002818" lon="14.838660805025047"><ele>823.3333333333334</ele><time>2026-04-29T09:54:23Z</time></trkpt><trkpt lat="37.850052183824936" lon="14.838449062441132"><ele>822.6666666666667</ele><time>2026-04-29T09:54:24Z</time></trkpt><trkpt lat="37.850001450155254" lon="14.83823426285535"><ele>822.0</ele><time>2026-04-29T09:54:25Z</time></trkpt><trkpt lat="37.84995000394513" lon="14.838015156715569"><ele>822.0</ele><time>2026-04-29T09:54:26Z</time></trkpt><trkpt lat="37.84989756188183" lon="14.837797351905285"><ele>822.0</ele><time>2026-04-29T09:54:27Z</time></trkpt><trkpt lat="37.8498448477807" lon="14.837574782610181"><ele>822.0</ele><time>2026-04-29T09:54:28Z</time></trkpt><trkpt lat="37.84978960184567" lon="14.837339568643149"><ele>822.0</ele><time>2026-04-29T09:54:29Z</time></trkpt><trkpt lat="37.84973172909084" lon="14.837096264201936"><ele>822.0</ele><time>2026-04-29T09:54:30Z</time></trkpt><trkpt lat="37.849675294572066" lon="14.83686110381857"><ele>822.0</ele><time>2026-04-29T09:54:31Z</time></trkpt><trkpt lat="37.84962121979825" lon="14.836637572230291"><ele>821.6666666666667</ele><time>2026-04-29T09:54:32Z</time></trkpt><trkpt lat="37.849566695710195" lon="14.836407610834938"><ele>821.3333333333334</ele><time>2026-04-29T09:54:33Z</time></trkpt><trkpt lat="37.84951059113642" lon="14.836172915394155"><ele>821.0</ele><time>2026-04-29T09:54:34Z</time></trkpt><trkpt lat="37.84945198159326" lon="14.835931853961965"><ele>821.0</ele><time>2026-04-29T09:54:35Z</time></trkpt><trkpt lat="37.84938875897191" lon="14.835680275445078"><ele>821.0</ele><time>2026-04-29T09:54:36Z</time></trkpt><trkpt lat="37.84932062903616" lon="14.835411806970871"><ele>821.0</ele><time>2026-04-29T09:54:37Z</time></trkpt><trkpt lat="37.849253028444956" lon="14.835131003683733"><ele>818.0</ele><time>2026-04-29T09:54:38Z</time></trkpt><trkpt lat="37.849185398507494" lon="14.834845122221205"><ele>815.0</ele><time>2026-04-29T09:54:39Z</time></trkpt><trkpt lat="37.849117384181774" lon="14.834558720736064"><ele>815.5</ele><time>2026-04-29T09:54:40Z</time></trkpt><trkpt lat="37.84904990457353" lon="14.834274816455611"><ele>816.0</ele><time>2026-04-29T09:54:41Z</time></trkpt><trkpt lat="37.84898579995177" lon="14.833996257685696"><ele>816.0</ele><time>2026-04-29T09:54:42Z</time></trkpt><trkpt lat="37.84892311410452" lon="14.83372160371159"><ele>816.0</ele><time>2026-04-29T09:54:43Z</time></trkpt><trkpt lat="37.848860499323216" lon="14.833452795913544"><ele>816.0</ele><time>2026-04-29T09:54:44Z</time></trkpt><trkpt lat="37.84878883341226" lon="14.833190933543989"><ele>816.6666666666667</ele><time>2026-04-29T09:54:45Z</time></trkpt><trkpt lat="37.84870791107021" lon="14.8329386512976"><ele>817.3333333333334</ele><time>2026-04-29T09:54:46Z</time></trkpt><trkpt lat="37.84862515633719" lon="14.832696359665045"><ele>818.0</ele><time>2026-04-29T09:54:47Z</time></trkpt><trkpt lat="37.8485465854955" lon="14.832462504827939"><ele>818.0</ele><time>2026-04-29T09:54:48Z</time></trkpt><trkpt lat="37.84847279448674" lon="14.832235278983307"><ele>818.0</ele><time>2026-04-29T09:54:49Z</time></trkpt><trkpt lat="37.8484027919006" lon="14.83201921006284"><ele>818.0</ele><time>2026-04-29T09:54:50Z</time></trkpt><trkpt lat="37.848333338137955" lon="14.831811324734291"><ele>815.0</ele><time>2026-04-29T09:54:51Z</time></trkpt><trkpt lat="37.8482594073873" lon="14.831604227097218"><ele>812.0</ele><time>2026-04-29T09:54:52Z</time></trkpt><trkpt lat="37.84818414121057" lon="14.83139696754767"><ele>809.0</ele><time>2026-04-29T09:54:53Z</time></trkpt><trkpt lat="37.84811399184824" lon="14.831192851873995"><ele>809.0</ele><time>2026-04-29T09:54:54Z</time></trkpt><trkpt lat="37.84805071072233" lon="14.830990222585152"><ele>809.0</ele><time>2026-04-29T09:54:55Z</time></trkpt><trkpt lat="37.847995068754834" lon="14.830787830499782"><ele>809.0</ele><time>2026-04-29T09:54:56Z</time></trkpt><trkpt lat="37.84794735160617" lon="14.830585885630347"><ele>808.3333333333334</ele><time>2026-04-29T09:54:57Z</time></trkpt><trkpt lat="37.847917134329926" lon="14.830382384814003"><ele>807.6666666666667</ele><time>2026-04-29T09:54:58Z</time></trkpt><trkpt lat="37.84790079993209" lon="14.830179048759065"><ele>807.0</ele><time>2026-04-29T09:54:59Z</time></trkpt><trkpt lat="37.847894789684055" lon="14.829975861049746"><ele>807.0</ele><time>2026-04-29T09:55:00Z</time></trkpt><trkpt lat="37.84790294952954" lon="14.829777000298481"><ele>807.0</ele><time>2026-04-29T09:55:01Z</time></trkpt><trkpt lat="37.84791835324246" lon="14.829567768092922"><ele>807.0</ele><time>2026-04-29T09:55:02Z</time></trkpt><trkpt lat="37.847933177483156" lon="14.829349435032826"><ele>805.3333333333333</ele><time>2026-04-29T09:55:03Z</time></trkpt><trkpt lat="37.847945741169355" lon="14.82910942129031"><ele>803.6666666666666</ele><time>2026-04-29T09:55:04Z</time></trkpt><trkpt lat="37.84796713383886" lon="14.828853015908031"><ele>802.0</ele><time>2026-04-29T09:55:05Z</time></trkpt><trkpt lat="37.847993464979005" lon="14.82858624217737"><ele>798.5</ele><time>2026-04-29T09:55:06Z</time></trkpt><trkpt lat="37.848025860720306" lon="14.828309185690225"><ele>795.0</ele><time>2026-04-29T09:55:07Z</time></trkpt><trkpt lat="37.84806059288672" lon="14.82802306392785"><ele>795.0</ele><time>2026-04-29T09:55:08Z</time></trkpt><trkpt lat="37.84809137065514" lon="14.82773772132775"><ele>795.0</ele><time>2026-04-29T09:55:09Z</time></trkpt><trkpt lat="37.848120525531314" lon="14.827461997165438"><ele>795.0</ele><time>2026-04-29T09:55:10Z</time></trkpt><trkpt lat="37.84814826422212" lon="14.82719311489676"><ele>793.3333333333333</ele><time>2026-04-29T09:55:11Z</time></trkpt><trkpt lat="37.848171928671164" lon="14.826930106598228"><ele>791.6666666666666</ele><time>2026-04-29T09:55:12Z</time></trkpt><trkpt lat="37.84819329280205" lon="14.82666516374212"><ele>790.0</ele><time>2026-04-29T09:55:13Z</time></trkpt><trkpt lat="37.84821697600873" lon="14.826396586483684"><ele>788.6666666666666</ele><time>2026-04-29T09:55:14Z</time></trkpt><trkpt lat="37.848244816857466" lon="14.826127288692032"><ele>787.3333333333333</ele><time>2026-04-29T09:55:15Z</time></trkpt><trkpt lat="37.84827375294347" lon="14.82585469170642"><ele>786.0</ele><time>2026-04-29T09:55:16Z</time></trkpt><trkpt lat="37.84830079695757" lon="14.825589980518789"><ele>783.6666666666667</ele><time>2026-04-29T09:55:17Z</time></trkpt><trkpt lat="37.84832402327671" lon="14.825330193297509"><ele>781.3333333333334</ele><time>2026-04-29T09:55:18Z</time></trkpt><trkpt lat="37.848345125519394" lon="14.825073370607678"><ele>779.0</ele><time>2026-04-29T09:55:19Z</time></trkpt><trkpt lat="37.84836732308137" lon="14.824813405816386"><ele>777.0</ele><time>2026-04-29T09:55:20Z</time></trkpt><trkpt lat="37.848392204892676" lon="14.824546610770184"><ele>775.0</ele><time>2026-04-29T09:55:21Z</time></trkpt><trkpt lat="37.848419911399766" lon="14.824273560674367"><ele>773.0</ele><time>2026-04-29T09:55:22Z</time></trkpt><trkpt lat="37.848447188966205" lon="14.824001600233526"><ele>770.6666666666667</ele><time>2026-04-29T09:55:23Z</time></trkpt><trkpt lat="37.8484749834434" lon="14.823731738439598"><ele>768.3333333333334</ele><time>2026-04-29T09:55:24Z</time></trkpt><trkpt lat="37.84850183046105" lon="14.82347291724779"><ele>766.0</ele><time>2026-04-29T09:55:25Z</time></trkpt><trkpt lat="37.84852611977711" lon="14.823216627433188"><ele>765.3333333333334</ele><time>2026-04-29T09:55:26Z</time></trkpt><trkpt lat="37.84854854861769" lon="14.822960066779403"><ele>764.6666666666666</ele><time>2026-04-29T09:55:27Z</time></trkpt><trkpt lat="37.84856962402026" lon="14.82270921516183"><ele>764.0</ele><time>2026-04-29T09:55:28Z</time></trkpt><trkpt lat="37.848591302475185" lon="14.822460506856745"><ele>763.6666666666666</ele><time>2026-04-29T09:55:29Z</time></trkpt><trkpt lat="37.848613994314405" lon="14.822207792071934"><ele>763.3333333333334</ele><time>2026-04-29T09:55:30Z</time></trkpt><trkpt lat="37.84863779128189" lon="14.821954322081066"><ele>763.0</ele><time>2026-04-29T09:55:31Z</time></trkpt><trkpt lat="37.84866104019243" lon="14.82170738804693"><ele>762.0</ele><time>2026-04-29T09:55:32Z</time></trkpt><trkpt lat="37.84867835512442" lon="14.821462832930013"><ele>761.0</ele><time>2026-04-29T09:55:33Z</time></trkpt><trkpt lat="37.848680494566416" lon="14.821219148549698"><ele>760.0</ele><time>2026-04-29T09:55:34Z</time></trkpt><trkpt lat="37.84865792232857" lon="14.820981179539734"><ele>757.0</ele><time>2026-04-29T09:55:35Z</time></trkpt><trkpt lat="37.84861492107112" lon="14.820744391436198"><ele>754.0</ele><time>2026-04-29T09:55:36Z</time></trkpt><trkpt lat="37.848550869903384" lon="14.820509415454199"><ele>751.0</ele><time>2026-04-29T09:55:37Z</time></trkpt><trkpt lat="37.84846849195448" lon="14.820264178002308"><ele>753.0</ele><time>2026-04-29T09:55:38Z</time></trkpt><trkpt lat="37.84835973161533" lon="14.8200122330055"><ele>755.0</ele><time>2026-04-29T09:55:39Z</time></trkpt><trkpt lat="37.848245690172696" lon="14.819765667984147"><ele>755.0</ele><time>2026-04-29T09:55:40Z</time></trkpt><trkpt lat="37.848138852491786" lon="14.819529260305446"><ele>755.0</ele><time>2026-04-29T09:55:41Z</time></trkpt><trkpt lat="37.84803856032473" lon="14.81929849651992"><ele>755.0</ele><time>2026-04-29T09:55:42Z</time></trkpt><trkpt lat="37.84793464416117" lon="14.819062476430867"><ele>753.3333333333333</ele><time>2026-04-29T09:55:43Z</time></trkpt><trkpt lat="37.847829750267366" lon="14.818841088404456"><ele>751.6666666666666</ele><time>2026-04-29T09:55:44Z</time></trkpt><trkpt lat="37.847723706765436" lon="14.818628243540337"><ele>750.0</ele><time>2026-04-29T09:55:45Z</time></trkpt><trkpt lat="37.8476223987823" lon="14.818417426247338"><ele>749.0</ele><time>2026-04-29T09:55:46Z</time></trkpt><trkpt lat="37.8475267605962" lon="14.818211058714857"><ele>748.0</ele><time>2026-04-29T09:55:47Z</time></trkpt><trkpt lat="37.847437439285855" lon="14.818016984648827"><ele>747.0</ele><time>2026-04-29T09:55:48Z</time></trkpt><trkpt lat="37.84735595375947" lon="14.817827888983581"><ele>744.0</ele><time>2026-04-29T09:55:49Z</time></trkpt><trkpt lat="37.847290982820695" lon="14.81763039928335"><ele>741.0</ele><time>2026-04-29T09:55:50Z</time></trkpt><trkpt lat="37.84725900661409" lon="14.817424095867493"><ele>738.0</ele><time>2026-04-29T09:55:51Z</time></trkpt><trkpt lat="37.847267937229496" lon="14.81721193916661"><ele>738.0</ele><time>2026-04-29T09:55:52Z</time></trkpt><trkpt lat="37.84732643783936" lon="14.817014060662933"><ele>738.0</ele><time>2026-04-29T09:55:53Z</time></trkpt><trkpt lat="37.84743688018747" lon="14.81684469885973"><ele>738.0</ele><time>2026-04-29T09:55:54Z</time></trkpt><trkpt lat="37.84754946679378" lon="14.816663719056706"><ele>733.3333333333334</ele><time>2026-04-29T09:55:55Z</time></trkpt><trkpt lat="37.847669393145615" lon="14.816491929924544"><ele>728.6666666666667</ele><time>2026-04-29T09:55:56Z</time></trkpt><trkpt lat="37.84777743586999" lon="14.816306649791121"><ele>724.0</ele><time>2026-04-29T09:55:57Z</time></trkpt><trkpt lat="37.847884796208106" lon="14.816118636610815"><ele>725.0</ele><time>2026-04-29T09:55:58Z</time></trkpt><trkpt lat="37.847985591285884" lon="14.815936776301765"><ele>726.0</ele><time>2026-04-29T09:55:59Z</time></trkpt><trkpt lat="37.84807835803315" lon="14.815753450267339"><ele>727.0</ele><time>2026-04-29T09:56:00Z</time></trkpt><trkpt lat="37.84816488097536" lon="14.815559082134733"><ele>727.0</ele><time>2026-04-29T09:56:01Z</time></trkpt><trkpt lat="37.848245384896764" lon="14.815346870549362"><ele>727.0</ele><time>2026-04-29T09:56:02Z</time></trkpt><trkpt lat="37.848324383433244" lon="14.815120969948968"><ele>727.0</ele><time>2026-04-29T09:56:03Z</time></trkpt><trkpt lat="37.84840110358341" lon="14.814890443902414"><ele>723.0</ele><time>2026-04-29T09:56:04Z</time></trkpt><trkpt lat="37.84847097826907" lon="14.814669338516735"><ele>719.0</ele><time>2026-04-29T09:56:05Z</time></trkpt><trkpt lat="37.84853627956643" lon="14.814456078955008"><ele>715.0</ele><time>2026-04-29T09:56:06Z</time></trkpt><trkpt lat="37.84859382367597" lon="14.814246352662291"><ele>715.0</ele><time>2026-04-29T09:56:07Z</time></trkpt><trkpt lat="37.848650426090195" lon="14.814041699903077"><ele>715.0</ele><time>2026-04-29T09:56:08Z</time></trkpt><trkpt lat="37.848702906199776" lon="14.813835318087332"><ele>715.0</ele><time>2026-04-29T09:56:09Z</time></trkpt><trkpt lat="37.848740715928955" lon="14.813624230050776"><ele>714.6666666666667</ele><time>2026-04-29T09:56:10Z</time></trkpt><trkpt lat="37.84874503544649" lon="14.813403236644804"><ele>714.3333333333334</ele><time>2026-04-29T09:56:11Z</time></trkpt><trkpt lat="37.84871674654624" lon="14.813185821126632"><ele>714.0</ele><time>2026-04-29T09:56:12Z</time></trkpt><trkpt lat="37.848656149219025" lon="14.812978765634991"><ele>714.0</ele><time>2026-04-29T09:56:13Z</time></trkpt><trkpt lat="37.84855975850139" lon="14.812780668507749"><ele>714.0</ele><time>2026-04-29T09:56:14Z</time></trkpt><trkpt lat="37.84843479152913" lon="14.812612541941927"><ele>714.0</ele><time>2026-04-29T09:56:15Z</time></trkpt><trkpt lat="37.848289978976304" lon="14.812473753930924"><ele>716.0</ele><time>2026-04-29T09:56:16Z</time></trkpt><trkpt lat="37.84813702631442" lon="14.812363710520229"><ele>718.0</ele><time>2026-04-29T09:56:17Z</time></trkpt><trkpt lat="37.847984797896075" lon="14.812260870912453"><ele>720.0</ele><time>2026-04-29T09:56:18Z</time></trkpt><trkpt lat="37.84784650457186" lon="14.81214529229481"><ele>720.0</ele><time>2026-04-29T09:56:19Z</time></trkpt><trkpt lat="37.84772571533691" lon="14.812008606849938"><ele>720.0</ele><time>2026-04-29T09:56:20Z</time></trkpt><trkpt lat="37.847625656361394" lon="14.811840693674268"><ele>720.0</ele><time>2026-04-29T09:56:21Z</time></trkpt><trkpt lat="37.847548758412636" lon="14.811646312517498"><ele>720.0</ele><time>2026-04-29T09:56:22Z</time></trkpt><trkpt lat="37.847507539471486" lon="14.811440154566238"><ele>720.0</ele><time>2026-04-29T09:56:23Z</time></trkpt><trkpt lat="37.84749972251307" lon="14.811230671337531"><ele>720.0</ele><time>2026-04-29T09:56:24Z</time></trkpt><trkpt lat="37.84752408403494" lon="14.81102237043509"><ele>719.0</ele><time>2026-04-29T09:56:25Z</time></trkpt><trkpt lat="37.84760176753938" lon="14.81083310258914"><ele>718.0</ele><time>2026-04-29T09:56:26Z</time></trkpt><trkpt lat="37.84769839490448" lon="14.810660144376639"><ele>717.0</ele><time>2026-04-29T09:56:27Z</time></trkpt><trkpt lat="37.847807896346865" lon="14.810476499023393"><ele>712.6666666666666</ele><time>2026-04-29T09:56:28Z</time></trkpt><trkpt lat="37.8479167447707" lon="14.810287070860936"><ele>708.3333333333333</ele><time>2026-04-29T09:56:29Z</time></trkpt><trkpt lat="37.84802970834182" lon="14.810109556527967"><ele>704.0</ele><time>2026-04-29T09:56:30Z</time></trkpt><trkpt lat="37.84813788973963" lon="14.809927720001891"><ele>704.0</ele><time>2026-04-29T09:56:31Z</time></trkpt><trkpt lat="37.84824649204115" lon="14.80975311452188"><ele>704.0</ele><time>2026-04-29T09:56:32Z</time></trkpt><trkpt lat="37.84834811670825" lon="14.809579663789654"><ele>704.0</ele><time>2026-04-29T09:56:33Z</time></trkpt><trkpt lat="37.84844679597195" lon="14.809411371162485"><ele>700.0</ele><time>2026-04-29T09:56:34Z</time></trkpt><trkpt lat="37.84854167507903" lon="14.80925333878939"><ele>696.0</ele><time>2026-04-29T09:56:35Z</time></trkpt><trkpt lat="37.84862837005912" lon="14.809096828554054"><ele>692.0</ele><time>2026-04-29T09:56:36Z</time></trkpt><trkpt lat="37.84870215662456" lon="14.80892185375302"><ele>692.0</ele><time>2026-04-29T09:56:37Z</time></trkpt><trkpt lat="37.84875037460739" lon="14.808725537414254"><ele>692.0</ele><time>2026-04-29T09:56:38Z</time></trkpt><trkpt lat="37.84876010609049" lon="14.808507881276315"><ele>692.0</ele><time>2026-04-29T09:56:39Z</time></trkpt><trkpt lat="37.84873359764301" lon="14.808295265422977"><ele>690.3333333333333</ele><time>2026-04-29T09:56:40Z</time></trkpt><trkpt lat="37.84867543135001" lon="14.808097024667926"><ele>688.6666666666666</ele><time>2026-04-29T09:56:41Z</time></trkpt><trkpt lat="37.848585913032636" lon="14.807926615916243"><ele>687.0</ele><time>2026-04-29T09:56:42Z</time></trkpt><trkpt lat="37.84846464775019" lon="14.807784480507307"><ele>689.3333333333334</ele><time>2026-04-29T09:56:43Z</time></trkpt><trkpt lat="37.84832934212173" lon="14.807676698570441"><ele>691.6666666666667</ele><time>2026-04-29T09:56:44Z</time></trkpt><trkpt lat="37.848177845901226" lon="14.807600649172599"><ele>694.0</ele><time>2026-04-29T09:56:45Z</time></trkpt><trkpt lat="37.84801442608742" lon="14.807566073212302"><ele>694.0</ele><time>2026-04-29T09:56:46Z</time></trkpt><trkpt lat="37.84785539804236" lon="14.807573636643111"><ele>694.0</ele><time>2026-04-29T09:56:47Z</time></trkpt><trkpt lat="37.84769585636027" lon="14.807630753885013"><ele>694.0</ele><time>2026-04-29T09:56:48Z</time></trkpt><trkpt lat="37.84754527572852" lon="14.807713106386133"><ele>696.25</ele><time>2026-04-29T09:56:49Z</time></trkpt><trkpt lat="37.84740385645049" lon="14.807779329350945"><ele>698.5</ele><time>2026-04-29T09:56:50Z</time></trkpt><trkpt lat="37.847262195011055" lon="14.80782177468976"><ele>700.75</ele><time>2026-04-29T09:56:51Z</time></trkpt><trkpt lat="37.84711729971344" lon="14.807814244251277"><ele>703.0</ele><time>2026-04-29T09:56:52Z</time></trkpt><trkpt lat="37.8469813230209" lon="14.807770569235077"><ele>703.0</ele><time>2026-04-29T09:56:53Z</time></trkpt><trkpt lat="37.84686505360537" lon="14.807664572415579"><ele>703.0</ele><time>2026-04-29T09:56:54Z</time></trkpt><trkpt lat="37.846775761055426" lon="14.807522085933064"><ele>703.0</ele><time>2026-04-29T09:56:55Z</time></trkpt><trkpt lat="37.84673339066224" lon="14.807348392016086"><ele>703.0</ele><time>2026-04-29T09:56:56Z</time></trkpt><trkpt lat="37.8467295242031" lon="14.807156883286138"><ele>699.6666666666667</ele><time>2026-04-29T09:56:57Z</time></trkpt><trkpt lat="37.84672250097246" lon="14.806949416997549"><ele>696.3333333333334</ele><time>2026-04-29T09:56:58Z</time></trkpt><trkpt lat="37.84673531362202" lon="14.806752902486028"><ele>693.0</ele><time>2026-04-29T09:56:59Z</time></trkpt><trkpt lat="37.84673762022543" lon="14.806570619695878"><ele>692.25</ele><time>2026-04-29T09:57:00Z</time></trkpt><trkpt lat="37.846738471171314" lon="14.806394737263721"><ele>691.5</ele><time>2026-04-29T09:57:01Z</time></trkpt><trkpt lat="37.846736628122294" lon="14.806219290513337"><ele>690.75</ele><time>2026-04-29T09:57:02Z</time></trkpt><trkpt lat="37.84672289356574" lon="14.80604144309183"><ele>690.0</ele><time>2026-04-29T09:57:03Z</time></trkpt><trkpt lat="37.8466878094641" lon="14.805858818194412"><ele>688.3333333333334</ele><time>2026-04-29T09:57:04Z</time></trkpt><trkpt lat="37.84663692088375" lon="14.805673545837132"><ele>686.6666666666667</ele><time>2026-04-29T09:57:05Z</time></trkpt><trkpt lat="37.84657422312259" lon="14.805491792408812"><ele>685.0</ele><time>2026-04-29T09:57:06Z</time></trkpt><trkpt lat="37.84649932987031" lon="14.805318322210324"><ele>682.6666666666667</ele><time>2026-04-29T09:57:07Z</time></trkpt><trkpt lat="37.846412846503895" lon="14.805151379591221"><ele>680.3333333333334</ele><time>2026-04-29T09:57:08Z</time></trkpt><trkpt lat="37.846326841277474" lon="14.804990124295141"><ele>678.0</ele><time>2026-04-29T09:57:09Z</time></trkpt><trkpt lat="37.84624638770802" lon="14.80481881052283"><ele>678.0</ele><time>2026-04-29T09:57:10Z</time></trkpt><trkpt lat="37.846164665983395" lon="14.804646348987792"><ele>678.0</ele><time>2026-04-29T09:57:11Z</time></trkpt><trkpt lat="37.846077432419065" lon="14.80446906783226"><ele>678.0</ele><time>2026-04-29T09:57:12Z</time></trkpt><trkpt lat="37.84598653474976" lon="14.804288101318603"><ele>678.3333333333334</ele><time>2026-04-29T09:57:13Z</time></trkpt><trkpt lat="37.845892631719046" lon="14.804100431074966"><ele>678.6666666666667</ele><time>2026-04-29T09:57:14Z</time></trkpt><trkpt lat="37.84579853267432" lon="14.803908846391016"><ele>679.0</ele><time>2026-04-29T09:57:15Z</time></trkpt><trkpt lat="37.84569922010373" lon="14.803713687876783"><ele>679.0</ele><time>2026-04-29T09:57:16Z</time></trkpt><trkpt lat="37.84558344716786" lon="14.803525145596371"><ele>679.0</ele><time>2026-04-29T09:57:17Z</time></trkpt><trkpt lat="37.84544088699069" lon="14.803350176818027"><ele>679.0</ele><time>2026-04-29T09:57:18Z</time></trkpt><trkpt lat="37.84527087540336" lon="14.803189512173894"><ele>680.0</ele><time>2026-04-29T09:57:19Z</time></trkpt><trkpt lat="37.84510284145698" lon="14.803034405279764"><ele>681.0</ele><time>2026-04-29T09:57:20Z</time></trkpt><trkpt lat="37.844939229106274" lon="14.802899783477606"><ele>682.0</ele><time>2026-04-29T09:57:21Z</time></trkpt><trkpt lat="37.84477936897814" lon="14.802758753304444"><ele>676.3333333333334</ele><time>2026-04-29T09:57:22Z</time></trkpt><trkpt lat="37.84462554643964" lon="14.802612703964524"><ele>670.6666666666666</ele><time>2026-04-29T09:57:23Z</time></trkpt><trkpt lat="37.84447353255109" lon="14.802471477007172"><ele>665.0</ele><time>2026-04-29T09:57:24Z</time></trkpt><trkpt lat="37.844314564554175" lon="14.802332692192016"><ele>668.0</ele><time>2026-04-29T09:57:25Z</time></trkpt><trkpt lat="37.84415113693236" lon="14.802193111981822"><ele>671.0</ele><time>2026-04-29T09:57:26Z</time></trkpt><trkpt lat="37.84398869624188" lon="14.802055005418582"><ele>674.0</ele><time>2026-04-29T09:57:27Z</time></trkpt><trkpt lat="37.84382952734752" lon="14.801905258334028"><ele>673.0</ele><time>2026-04-29T09:57:28Z</time></trkpt><trkpt lat="37.843673393020545" lon="14.801742567888587"><ele>672.0</ele><time>2026-04-29T09:57:29Z</time></trkpt><trkpt lat="37.843527526405865" lon="14.80156363534547"><ele>671.0</ele><time>2026-04-29T09:57:30Z</time></trkpt><trkpt lat="37.84339097069195" lon="14.80138173539063"><ele>671.0</ele><time>2026-04-29T09:57:31Z</time></trkpt><trkpt lat="37.843256653284506" lon="14.801212772169144"><ele>671.0</ele><time>2026-04-29T09:57:32Z</time></trkpt><trkpt lat="37.84311810224992" lon="14.801065408295962"><ele>671.0</ele><time>2026-04-29T09:57:33Z</time></trkpt><trkpt lat="37.84297055180176" lon="14.80094644196041"><ele>667.3333333333333</ele><time>2026-04-29T09:57:34Z</time></trkpt><trkpt lat="37.84279958146551" lon="14.800868395449923"><ele>663.6666666666666</ele><time>2026-04-29T09:57:35Z</time></trkpt><trkpt lat="37.8426089062694" lon="14.800815300946551"><ele>660.0</ele><time>2026-04-29T09:57:36Z</time></trkpt><trkpt lat="37.84241946941147" lon="14.80075658881657"><ele>660.0</ele><time>2026-04-29T09:57:37Z</time></trkpt><trkpt lat="37.84223331631607" lon="14.800691124470951"><ele>660.0</ele><time>2026-04-29T09:57:38Z</time></trkpt><trkpt lat="37.84204434112298" lon="14.800633991888242"><ele>660.0</ele><time>2026-04-29T09:57:39Z</time></trkpt><trkpt lat="37.841861157396224" lon="14.800578637376324"><ele>660.6666666666666</ele><time>2026-04-29T09:57:40Z</time></trkpt><trkpt lat="37.84168626194964" lon="14.800522198806119"><ele>661.3333333333333</ele><time>2026-04-29T09:57:41Z</time></trkpt><trkpt lat="37.84151767087214" lon="14.800469590157673"><ele>662.0</ele><time>2026-04-29T09:57:42Z</time></trkpt><trkpt lat="37.8413450723757" lon="14.800418382780627"><ele>662.0</ele><time>2026-04-29T09:57:43Z</time></trkpt><trkpt lat="37.84116810909604" lon="14.800377014245921"><ele>662.0</ele><time>2026-04-29T09:57:44Z</time></trkpt><trkpt lat="37.84098823549697" lon="14.8003495952897"><ele>662.0</ele><time>2026-04-29T09:57:45Z</time></trkpt><trkpt lat="37.84080763629978" lon="14.800330449767644"><ele>661.3333333333333</ele><time>2026-04-29T09:57:46Z</time></trkpt><trkpt lat="37.84062777904841" lon="14.800322887792623"><ele>660.6666666666666</ele><time>2026-04-29T09:57:47Z</time></trkpt><trkpt lat="37.8404474588885" lon="14.800321323871165"><ele>660.0</ele><time>2026-04-29T09:57:48Z</time></trkpt><trkpt lat="37.840268763640076" lon="14.800319165668427"><ele>658.3333333333334</ele><time>2026-04-29T09:57:49Z</time></trkpt><trkpt lat="37.840089334502196" lon="14.800334583389224"><ele>656.6666666666667</ele><time>2026-04-29T09:57:50Z</time></trkpt><trkpt lat="37.83991076978457" lon="14.800352349881196"><ele>655.0</ele><time>2026-04-29T09:57:51Z</time></trkpt><trkpt lat="37.83973199730124" lon="14.800369826992295"><ele>655.0</ele><time>2026-04-29T09:57:52Z</time></trkpt><trkpt lat="37.839556161582" lon="14.80039272766981"><ele>655.0</ele><time>2026-04-29T09:57:53Z</time></trkpt><trkpt lat="37.83938676497369" lon="14.800414381733574"><ele>655.0</ele><time>2026-04-29T09:57:54Z</time></trkpt><trkpt lat="37.83922188631563" lon="14.800428318872374"><ele>653.6666666666667</ele><time>2026-04-29T09:57:55Z</time></trkpt><trkpt lat="37.83905839705587" lon="14.800445079586494"><ele>652.3333333333334</ele><time>2026-04-29T09:57:56Z</time></trkpt><trkpt lat="37.83889109455065" lon="14.800466251556895"><ele>651.0</ele><time>2026-04-29T09:57:57Z</time></trkpt><trkpt lat="37.83872367927857" lon="14.80048477634306"><ele>651.0</ele><time>2026-04-29T09:57:58Z</time></trkpt><trkpt lat="37.83855594095734" lon="14.800501679650184"><ele>651.0</ele><time>2026-04-29T09:57:59Z</time></trkpt><trkpt lat="37.838388238869136" lon="14.800516264429204"><ele>651.0</ele><time>2026-04-29T09:58:00Z</time></trkpt><trkpt lat="37.83822139261977" lon="14.800504743596411"><ele>649.6666666666666</ele><time>2026-04-29T09:58:01Z</time></trkpt><trkpt lat="37.83806080903051" lon="14.800459217220636"><ele>648.3333333333333</ele><time>2026-04-29T09:58:02Z</time></trkpt><trkpt lat="37.83790774113081" lon="14.800362535419062"><ele>647.0</ele><time>2026-04-29T09:58:03Z</time></trkpt><trkpt lat="37.83776433167851" lon="14.800233634829075"><ele>646.0</ele><time>2026-04-29T09:58:04Z</time></trkpt><trkpt lat="37.83763124913163" lon="14.800067630092979"><ele>645.0</ele><time>2026-04-29T09:58:05Z</time></trkpt><trkpt lat="37.83751080986523" lon="14.799873735020489"><ele>644.0</ele><time>2026-04-29T09:58:06Z</time></trkpt><trkpt lat="37.83739813895808" lon="14.79967053920412"><ele>644.0</ele><time>2026-04-29T09:58:07Z</time></trkpt><trkpt lat="37.83727866217954" lon="14.799478753209506"><ele>644.0</ele><time>2026-04-29T09:58:08Z</time></trkpt><trkpt lat="37.837158142389555" lon="14.799291789762268"><ele>644.0</ele><time>2026-04-29T09:58:09Z</time></trkpt><trkpt lat="37.83704182830784" lon="14.799100210635764"><ele>644.3333333333333</ele><time>2026-04-29T09:58:10Z</time></trkpt><trkpt lat="37.83692855013631" lon="14.798910956902272"><ele>644.6666666666666</ele><time>2026-04-29T09:58:11Z</time></trkpt><trkpt lat="37.83682166339383" lon="14.798732550940123"><ele>645.0</ele><time>2026-04-29T09:58:12Z</time></trkpt><trkpt lat="37.83670722336346" lon="14.798553686468187"><ele>642.6666666666666</ele><time>2026-04-29T09:58:13Z</time></trkpt><trkpt lat="37.83659564406368" lon="14.798373098596336"><ele>640.3333333333333</ele><time>2026-04-29T09:58:14Z</time></trkpt><trkpt lat="37.83648716798236" lon="14.798191878237104"><ele>638.0</ele><time>2026-04-29T09:58:15Z</time></trkpt><trkpt lat="37.836377647699564" lon="14.798014805929991"><ele>638.0</ele><time>2026-04-29T09:58:16Z</time></trkpt><trkpt lat="37.83627289435841" lon="14.797844381501386"><ele>638.0</ele><time>2026-04-29T09:58:17Z</time></trkpt><trkpt lat="37.83616598559561" lon="14.797679177386309"><ele>638.0</ele><time>2026-04-29T09:58:18Z</time></trkpt><trkpt lat="37.83606172274242" lon="14.797518071653633"><ele>638.6666666666666</ele><time>2026-04-29T09:58:19Z</time></trkpt><trkpt lat="37.8359630201093" lon="14.797354951170739"><ele>639.3333333333334</ele><time>2026-04-29T09:58:20Z</time></trkpt><trkpt lat="37.83586248742813" lon="14.797197301995162"><ele>640.0</ele><time>2026-04-29T09:58:21Z</time></trkpt><trkpt lat="37.83576405966889" lon="14.797042417243878"><ele>640.0</ele><time>2026-04-29T09:58:22Z</time></trkpt><trkpt lat="37.835666596297926" lon="14.796893963007854"><ele>640.0</ele><time>2026-04-29T09:58:23Z</time></trkpt><trkpt lat="37.83554835336266" lon="14.796778343096687"><ele>640.0</ele><time>2026-04-29T09:58:24Z</time></trkpt><trkpt lat="37.835416405362004" lon="14.796689498802852"><ele>637.75</ele><time>2026-04-29T09:58:25Z</time></trkpt><trkpt lat="37.835278530852335" lon="14.79661651211341"><ele>635.5</ele><time>2026-04-29T09:58:26Z</time></trkpt><trkpt lat="37.83514165553515" lon="14.796547979511134"><ele>633.25</ele><time>2026-04-29T09:58:27Z</time></trkpt><trkpt lat="37.83500769729566" lon="14.796484137061121"><ele>631.0</ele><time>2026-04-29T09:58:28Z</time></trkpt><trkpt lat="37.83487651650105" lon="14.796417797078584"><ele>631.0</ele><time>2026-04-29T09:58:29Z</time></trkpt><trkpt lat="37.83474248639021" lon="14.796358842891829"><ele>631.0</ele><time>2026-04-29T09:58:30Z</time></trkpt><trkpt lat="37.83460437023629" lon="14.796325679491504"><ele>631.0</ele><time>2026-04-29T09:58:31Z</time></trkpt><trkpt lat="37.834470877269574" lon="14.796272432745472"><ele>631.0</ele><time>2026-04-29T09:58:32Z</time></trkpt><trkpt lat="37.83433838916767" lon="14.796237632461525"><ele>631.5</ele><time>2026-04-29T09:58:33Z</time></trkpt><trkpt lat="37.834210674030494" lon="14.796223421668927"><ele>632.0</ele><time>2026-04-29T09:58:34Z</time></trkpt><trkpt lat="37.83409034174292" lon="14.796180534552061"><ele>632.5</ele><time>2026-04-29T09:58:35Z</time></trkpt><trkpt lat="37.8339690423573" lon="14.796124520215738"><ele>633.0</ele><time>2026-04-29T09:58:36Z</time></trkpt><trkpt lat="37.83386215635502" lon="14.796037698851057"><ele>628.0</ele><time>2026-04-29T09:58:37Z</time></trkpt><trkpt lat="37.83377028980254" lon="14.79590507834756"><ele>623.0</ele><time>2026-04-29T09:58:38Z</time></trkpt><trkpt lat="37.833725798561254" lon="14.795719294959767"><ele>618.0</ele><time>2026-04-29T09:58:39Z</time></trkpt><trkpt lat="37.833683408738686" lon="14.795512966903177"><ele>618.0</ele><time>2026-04-29T09:58:40Z</time></trkpt><trkpt lat="37.83362569848745" lon="14.795298043161994"><ele>618.0</ele><time>2026-04-29T09:58:41Z</time></trkpt><trkpt lat="37.8335902215242" lon="14.795064714115284"><ele>618.0</ele><time>2026-04-29T09:58:42Z</time></trkpt><trkpt lat="37.83354104363511" lon="14.794834965023064"><ele>617.0</ele><time>2026-04-29T09:58:43Z</time></trkpt><trkpt lat="37.83348967489367" lon="14.794607415709876"><ele>616.0</ele><time>2026-04-29T09:58:44Z</time></trkpt><trkpt lat="37.83343902876086" lon="14.794390793623245"><ele>615.0</ele><time>2026-04-29T09:58:45Z</time></trkpt><trkpt lat="37.83340982835531" lon="14.79416837912775"><ele>614.0</ele><time>2026-04-29T09:58:46Z</time></trkpt><trkpt lat="37.83336146940858" lon="14.793931001326209"><ele>613.0</ele><time>2026-04-29T09:58:47Z</time></trkpt><trkpt lat="37.833309769980865" lon="14.793677503530294"><ele>612.0</ele><time>2026-04-29T09:58:48Z</time></trkpt><trkpt lat="37.83325714902996" lon="14.793419957018848"><ele>612.0</ele><time>2026-04-29T09:58:49Z</time></trkpt><trkpt lat="37.83320369927371" lon="14.7931571210334"><ele>612.0</ele><time>2026-04-29T09:58:50Z</time></trkpt><trkpt lat="37.83314998789139" lon="14.792892702772455"><ele>612.0</ele><time>2026-04-29T09:58:51Z</time></trkpt><trkpt lat="37.83309143331755" lon="14.7926064563843"><ele>614.5</ele><time>2026-04-29T09:58:52Z</time></trkpt><trkpt lat="37.833032855907916" lon="14.792316861717833"><ele>617.0</ele><time>2026-04-29T09:58:53Z</time></trkpt><trkpt lat="37.83297941027585" lon="14.792053374585253"><ele>617.0</ele><time>2026-04-29T09:58:54Z</time></trkpt><trkpt lat="37.83292966531831" lon="14.791813146031403"><ele>617.0</ele><time>2026-04-29T09:58:55Z</time></trkpt><trkpt lat="37.832885541027444" lon="14.791583966808949"><ele>617.0</ele><time>2026-04-29T09:58:56Z</time></trkpt><trkpt lat="37.83284507434953" lon="14.791368607062747"><ele>617.0</ele><time>2026-04-29T09:58:57Z</time></trkpt><trkpt lat="37.83284452898624" lon="14.791149700447136"><ele>617.0</ele><time>2026-04-29T09:58:58Z</time></trkpt><trkpt lat="37.832893512652475" lon="14.790930962906732"><ele>617.0</ele><time>2026-04-29T09:58:59Z</time></trkpt><trkpt lat="37.83295401932141" lon="14.790718267629774"><ele>616.6666666666666</ele><time>2026-04-29T09:59:00Z</time></trkpt><trkpt lat="37.833037064773094" lon="14.7905222994936"><ele>616.3333333333334</ele><time>2026-04-29T09:59:01Z</time></trkpt><trkpt lat="37.8331500553952" lon="14.790348317966991"><ele>616.0</ele><time>2026-04-29T09:59:02Z</time></trkpt><trkpt lat="37.83328873383085" lon="14.790184284494925"><ele>617.6666666666667</ele><time>2026-04-29T09:59:03Z</time></trkpt><trkpt lat="37.833433286349205" lon="14.790015623048028"><ele>619.3333333333334</ele><time>2026-04-29T09:59:04Z</time></trkpt><trkpt lat="37.83357499800718" lon="14.7898332312939"><ele>621.0</ele><time>2026-04-29T09:59:05Z</time></trkpt><trkpt lat="37.833735568806105" lon="14.789674931653495"><ele>621.0</ele><time>2026-04-29T09:59:06Z</time></trkpt><trkpt lat="37.83390429092505" lon="14.789544485147132"><ele>621.0</ele><time>2026-04-29T09:59:07Z</time></trkpt><trkpt lat="37.834076584408585" lon="14.789452163192946"><ele>621.0</ele><time>2026-04-29T09:59:08Z</time></trkpt><trkpt lat="37.83423696399639" lon="14.789414537699102"><ele>621.8</ele><time>2026-04-29T09:59:09Z</time></trkpt><trkpt lat="37.834363182233325" lon="14.789406374739118"><ele>622.6</ele><time>2026-04-29T09:59:10Z</time></trkpt><trkpt lat="37.834465170817865" lon="14.789370366821633"><ele>623.4</ele><time>2026-04-29T09:59:11Z</time></trkpt><trkpt lat="37.8345384064089" lon="14.789279039105573"><ele>624.2</ele><time>2026-04-29T09:59:12Z</time></trkpt><trkpt lat="37.834599915751674" lon="14.789185206975636"><ele>625.0</ele><time>2026-04-29T09:59:13Z</time></trkpt><trkpt lat="37.8345507040781" lon="14.789037677164206"><ele>627.25</ele><time>2026-04-29T09:59:14Z</time></trkpt><trkpt lat="37.834453520939995" lon="14.78895389462079"><ele>629.5</ele><time>2026-04-29T09:59:15Z</time></trkpt><trkpt lat="37.83432592939165" lon="14.788937842389386"><ele>631.75</ele><time>2026-04-29T09:59:16Z</time></trkpt><trkpt lat="37.83418877178643" lon="14.788963089423692"><ele>634.0</ele><time>2026-04-29T09:59:17Z</time></trkpt><trkpt lat="37.83404320754604" lon="14.788987408356983"><ele>634.6666666666667</ele><time>2026-04-29T09:59:18Z</time></trkpt><trkpt lat="37.83388185837378" lon="14.78899119654504"><ele>635.3333333333334</ele><time>2026-04-29T09:59:19Z</time></trkpt><trkpt lat="37.833701395561384" lon="14.788976181159425"><ele>636.0</ele><time>2026-04-29T09:59:20Z</time></trkpt><trkpt lat="37.83350481176417" lon="14.788948924584597"><ele>636.3333333333334</ele><time>2026-04-29T09:59:21Z</time></trkpt><trkpt lat="37.83330557428268" lon="14.788896264080966"><ele>636.6666666666667</ele><time>2026-04-29T09:59:22Z</time></trkpt><trkpt lat="37.833112653795894" lon="14.788822088173875"><ele>637.0</ele><time>2026-04-29T09:59:23Z</time></trkpt><trkpt lat="37.83292346661118" lon="14.788732470628462"><ele>637.0</ele><time>2026-04-29T09:59:24Z</time></trkpt><trkpt lat="37.8327508067438" lon="14.788609460259499"><ele>637.0</ele><time>2026-04-29T09:59:25Z</time></trkpt><trkpt lat="37.83257016931887" lon="14.788493360653316"><ele>637.0</ele><time>2026-04-29T09:59:26Z</time></trkpt><trkpt lat="37.83239699495499" lon="14.788320474240198"><ele>641.0</ele><time>2026-04-29T09:59:27Z</time></trkpt><trkpt lat="37.83224763824781" lon="14.788132885955813"><ele>645.0</ele><time>2026-04-29T09:59:28Z</time></trkpt><trkpt lat="37.83211804059963" lon="14.787925684595818"><ele>649.0</ele><time>2026-04-29T09:59:29Z</time></trkpt><trkpt lat="37.83203153549083" lon="14.787686464889362"><ele>655.3333333333334</ele><time>2026-04-29T09:59:30Z</time></trkpt><trkpt lat="37.831955919260864" lon="14.787449697897681"><ele>661.6666666666666</ele><time>2026-04-29T09:59:31Z</time></trkpt><trkpt lat="37.83189363598328" lon="14.787202274573282"><ele>668.0</ele><time>2026-04-29T09:59:32Z</time></trkpt><trkpt lat="37.831820396505286" lon="14.78697356564865"><ele>665.3333333333333</ele><time>2026-04-29T09:59:33Z</time></trkpt><trkpt lat="37.83172613354323" lon="14.78677950320426"><ele>662.6666666666666</ele><time>2026-04-29T09:59:34Z</time></trkpt><trkpt lat="37.83158363887399" lon="14.786626353315718"><ele>660.0</ele><time>2026-04-29T09:59:35Z</time></trkpt><trkpt lat="37.83141036994131" lon="14.786492767902285"><ele>660.0</ele><time>2026-04-29T09:59:36Z</time></trkpt><trkpt lat="37.831255872712994" lon="14.786350271727"><ele>660.0</ele><time>2026-04-29T09:59:37Z</time></trkpt><trkpt lat="37.83112255706476" lon="14.786169603835672"><ele>660.0</ele><time>2026-04-29T09:59:38Z</time></trkpt><trkpt lat="37.83101278545586" lon="14.785952079023085"><ele>659.6666666666666</ele><time>2026-04-29T09:59:39Z</time></trkpt><trkpt lat="37.83090841215294" lon="14.785734576285058"><ele>659.3333333333333</ele><time>2026-04-29T09:59:40Z</time></trkpt><trkpt lat="37.83081748756482" lon="14.785505288101348"><ele>659.0</ele><time>2026-04-29T09:59:41Z</time></trkpt><trkpt lat="37.83074072816331" lon="14.785256105970726"><ele>662.3333333333333</ele><time>2026-04-29T09:59:42Z</time></trkpt><trkpt lat="37.830665634204514" lon="14.785004431769012"><ele>665.6666666666666</ele><time>2026-04-29T09:59:43Z</time></trkpt><trkpt lat="37.83057887577435" lon="14.784758865228747"><ele>669.0</ele><time>2026-04-29T09:59:44Z</time></trkpt><trkpt lat="37.83050837947977" lon="14.784508928524534"><ele>671.3333333333334</ele><time>2026-04-29T09:59:45Z</time></trkpt><trkpt lat="37.83043713061219" lon="14.784273801655837"><ele>673.6666666666667</ele><time>2026-04-29T09:59:46Z</time></trkpt><trkpt lat="37.8303656146422" lon="14.78404846044825"><ele>676.0</ele><time>2026-04-29T09:59:47Z</time></trkpt><trkpt lat="37.83031816328371" lon="14.783816090583413"><ele>676.0</ele><time>2026-04-29T09:59:48Z</time></trkpt><trkpt lat="37.830274527400064" lon="14.783567391184455"><ele>676.0</ele><time>2026-04-29T09:59:49Z</time></trkpt><trkpt lat="37.83025978973976" lon="14.783324159050565"><ele>676.0</ele><time>2026-04-29T09:59:50Z</time></trkpt><trkpt lat="37.83024598769204" lon="14.783102342657294"><ele>676.3333333333334</ele><time>2026-04-29T09:59:51Z</time></trkpt><trkpt lat="37.83021328775592" lon="14.782903716063313"><ele>676.6666666666666</ele><time>2026-04-29T09:59:52Z</time></trkpt><trkpt lat="37.8301232999196" lon="14.782751475771882"><ele>677.0</ele><time>2026-04-29T09:59:53Z</time></trkpt><trkpt lat="37.82998834060565" lon="14.782643495659581"><ele>677.0</ele><time>2026-04-29T09:59:54Z</time></trkpt><trkpt lat="37.82982886355661" lon="14.782553474398288"><ele>677.0</ele><time>2026-04-29T09:59:55Z</time></trkpt><trkpt lat="37.829666745660674" lon="14.782490535618534"><ele>677.0</ele><time>2026-04-29T09:59:56Z</time></trkpt><trkpt lat="37.829505771740095" lon="14.782481999251079"><ele>677.0</ele><time>2026-04-29T09:59:57Z</time></trkpt><trkpt lat="37.82936085807933" lon="14.782537052011115"><ele>677.0</ele><time>2026-04-29T09:59:58Z</time></trkpt><trkpt lat="37.82924036339367" lon="14.782653870630634"><ele>677.0</ele><time>2026-04-29T09:59:59Z</time></trkpt><trkpt lat="37.82913970443785" lon="14.782825893765267"><ele>677.3333333333333</ele><time>2026-04-29T10:00:00Z</time></trkpt><trkpt lat="37.82905308941502" lon="14.783026896810103"><ele>677.6666666666666</ele><time>2026-04-29T10:00:01Z</time></trkpt><trkpt lat="37.82893723383648" lon="14.783210899833964"><ele>678.0</ele><time>2026-04-29T10:00:02Z</time></trkpt><trkpt lat="37.828827488266484" lon="14.783394455131713"><ele>676.6666666666666</ele><time>2026-04-29T10:00:03Z</time></trkpt><trkpt lat="37.82873206699862" lon="14.7835780718987"><ele>675.3333333333333</ele><time>2026-04-29T10:00:04Z</time></trkpt><trkpt lat="37.828624029648914" lon="14.783749251563341"><ele>674.0</ele><time>2026-04-29T10:00:05Z</time></trkpt><trkpt lat="37.8285180290936" lon="14.783925866770081"><ele>677.0</ele><time>2026-04-29T10:00:06Z</time></trkpt><trkpt lat="37.828412288745426" lon="14.78410936930344"><ele>680.0</ele><time>2026-04-29T10:00:07Z</time></trkpt><trkpt lat="37.82830163392397" lon="14.784299580387374"><ele>683.0</ele><time>2026-04-29T10:00:08Z</time></trkpt><trkpt lat="37.828195706182626" lon="14.78447788646167"><ele>683.0</ele><time>2026-04-29T10:00:09Z</time></trkpt><trkpt lat="37.82810266527523" lon="14.784635278692104"><ele>683.0</ele><time>2026-04-29T10:00:10Z</time></trkpt><trkpt lat="37.82802473594808" lon="14.784750179521653"><ele>683.0</ele><time>2026-04-29T10:00:11Z</time></trkpt><trkpt lat="37.827926233164895" lon="14.784822284235668"><ele>683.0</ele><time>2026-04-29T10:00:12Z</time></trkpt><trkpt lat="37.827820902383905" lon="14.784826025420715"><ele>683.0</ele><time>2026-04-29T10:00:13Z</time></trkpt><trkpt lat="37.827727080633146" lon="14.78474549690738"><ele>683.0</ele><time>2026-04-29T10:00:14Z</time></trkpt><trkpt lat="37.82765964625948" lon="14.784615810247816"><ele>683.0</ele><time>2026-04-29T10:00:15Z</time></trkpt><trkpt lat="37.82764082752017" lon="14.784455190840594"><ele>683.0</ele><time>2026-04-29T10:00:16Z</time></trkpt><trkpt lat="37.82770984133364" lon="14.784309108041487"><ele>683.3333333333333</ele><time>2026-04-29T10:00:17Z</time></trkpt><trkpt lat="37.82773961710083" lon="14.784133811927148"><ele>683.6666666666666</ele><time>2026-04-29T10:00:18Z</time></trkpt><trkpt lat="37.827813885823495" lon="14.783954988469807"><ele>684.0</ele><time>2026-04-29T10:00:19Z</time></trkpt><trkpt lat="37.827860160081194" lon="14.783748616771978"><ele>684.0</ele><time>2026-04-29T10:00:20Z</time></trkpt><trkpt lat="37.82792403320594" lon="14.78354971967667"><ele>684.0</ele><time>2026-04-29T10:00:21Z</time></trkpt><trkpt lat="37.827973996551016" lon="14.783350822987963"><ele>684.0</ele><time>2026-04-29T10:00:22Z</time></trkpt><trkpt lat="37.82804856767172" lon="14.783166352480437"><ele>687.3333333333334</ele><time>2026-04-29T10:00:23Z</time></trkpt><trkpt lat="37.82811741884093" lon="14.78299495909626"><ele>690.6666666666667</ele><time>2026-04-29T10:00:24Z</time></trkpt><trkpt lat="37.82819018128845" lon="14.782823626520557"><ele>694.0</ele><time>2026-04-29T10:00:25Z</time></trkpt><trkpt lat="37.82824245028125" lon="14.782652509026779"><ele>695.5</ele><time>2026-04-29T10:00:26Z</time></trkpt><trkpt lat="37.82824522763922" lon="14.782468425096136"><ele>697.0</ele><time>2026-04-29T10:00:27Z</time></trkpt><trkpt lat="37.82818556172838" lon="14.782290049231944"><ele>698.5</ele><time>2026-04-29T10:00:28Z</time></trkpt><trkpt lat="37.82808559205583" lon="14.782165253834327"><ele>700.0</ele><time>2026-04-29T10:00:29Z</time></trkpt><trkpt lat="37.82795387928033" lon="14.782104798861798"><ele>700.0</ele><time>2026-04-29T10:00:30Z</time></trkpt><trkpt lat="37.82780712059245" lon="14.782102584120397"><ele>700.0</ele><time>2026-04-29T10:00:31Z</time></trkpt><trkpt lat="37.827671718330706" lon="14.782153547884018"><ele>700.0</ele><time>2026-04-29T10:00:32Z</time></trkpt><trkpt lat="37.82756078643894" lon="14.782259611388431"><ele>700.0</ele><time>2026-04-29T10:00:33Z</time></trkpt><trkpt lat="37.82748472163686" lon="14.782415560714549"><ele>702.0</ele><time>2026-04-29T10:00:34Z</time></trkpt><trkpt lat="37.82745711711598" lon="14.78259962421021"><ele>704.0</ele><time>2026-04-29T10:00:35Z</time></trkpt><trkpt lat="37.82743427420121" lon="14.782789958720098"><ele>706.0</ele><time>2026-04-29T10:00:36Z</time></trkpt><trkpt lat="37.8274023361308" lon="14.782960680698851"><ele>708.0</ele><time>2026-04-29T10:00:37Z</time></trkpt><trkpt lat="37.82737084332339" lon="14.783113770030775"><ele>708.0</ele><time>2026-04-29T10:00:38Z</time></trkpt><trkpt lat="37.827337541937695" lon="14.783233809815643"><ele>708.0</ele><time>2026-04-29T10:00:39Z</time></trkpt><trkpt lat="37.82728870212318" lon="14.783322369006855"><ele>708.0</ele><time>2026-04-29T10:00:40Z</time></trkpt><trkpt lat="37.827191745104976" lon="14.78333331202911"><ele>708.0</ele><time>2026-04-29T10:00:41Z</time></trkpt><trkpt lat="37.82710456139741" lon="14.783283697733774"><ele>708.0</ele><time>2026-04-29T10:00:42Z</time></trkpt><trkpt lat="37.82704515380101" lon="14.783175045942444"><ele>708.0</ele><time>2026-04-29T10:00:43Z</time></trkpt><trkpt lat="37.82704120635599" lon="14.783031704191187"><ele>708.0</ele><time>2026-04-29T10:00:44Z</time></trkpt><trkpt lat="37.827114420263804" lon="14.782899882127047"><ele>708.0</ele><time>2026-04-29T10:00:45Z</time></trkpt><trkpt lat="37.82718464645802" lon="14.78273790726202"><ele>708.0</ele><time>2026-04-29T10:00:46Z</time></trkpt><trkpt lat="37.827231264424746" lon="14.78257156040524"><ele>709.5</ele><time>2026-04-29T10:00:47Z</time></trkpt><trkpt lat="37.82724589547495" lon="14.782401999535553"><ele>711.0</ele><time>2026-04-29T10:00:48Z</time></trkpt><trkpt lat="37.82724141105134" lon="14.782218235113504"><ele>712.5</ele><time>2026-04-29T10:00:49Z</time></trkpt><trkpt lat="37.82723580940264" lon="14.7820168618413"><ele>714.0</ele><time>2026-04-29T10:00:50Z</time></trkpt><trkpt lat="37.827226642397704" lon="14.781800168159043"><ele>714.6666666666666</ele><time>2026-04-29T10:00:51Z</time></trkpt><trkpt lat="37.82721784851113" lon="14.781577061036764"><ele>715.3333333333333</ele><time>2026-04-29T10:00:52Z</time></trkpt><trkpt lat="37.827202195413655" lon="14.7813561293924"><ele>716.0</ele><time>2026-04-29T10:00:53Z</time></trkpt><trkpt lat="37.82718833247765" lon="14.781142212818812"><ele>716.3333333333333</ele><time>2026-04-29T10:00:54Z</time></trkpt><trkpt lat="37.827164466072745" lon="14.780924314812781"><ele>716.6666666666666</ele><time>2026-04-29T10:00:55Z</time></trkpt><trkpt lat="37.82714586899604" lon="14.780700766259445"><ele>717.0</ele><time>2026-04-29T10:00:56Z</time></trkpt><trkpt lat="37.827129932928315" lon="14.780469980445108"><ele>717.0</ele><time>2026-04-29T10:00:57Z</time></trkpt><trkpt lat="37.82712033481568" lon="14.780228765426163"><ele>717.0</ele><time>2026-04-29T10:00:58Z</time></trkpt><trkpt lat="37.82712852886355" lon="14.779956338846704"><ele>717.0</ele><time>2026-04-29T10:00:59Z</time></trkpt><trkpt lat="37.82713928379912" lon="14.779680515407188"><ele>719.3333333333334</ele><time>2026-04-29T10:01:00Z</time></trkpt><trkpt lat="37.82714706822997" lon="14.77943737619499"><ele>721.6666666666667</ele><time>2026-04-29T10:01:01Z</time></trkpt><trkpt lat="37.82715750284061" lon="14.779230074462372"><ele>724.0</ele><time>2026-04-29T10:01:02Z</time></trkpt><trkpt lat="37.82717822584593" lon="14.779053043695216"><ele>727.0</ele><time>2026-04-29T10:01:03Z</time></trkpt><trkpt lat="37.827228576307334" lon="14.778908747738837"><ele>730.0</ele><time>2026-04-29T10:01:04Z</time></trkpt><trkpt lat="37.82732261633814" lon="14.77880899256379"><ele>733.0</ele><time>2026-04-29T10:01:05Z</time></trkpt><trkpt lat="37.82744452903933" lon="14.778775218332777"><ele>736.0</ele><time>2026-04-29T10:01:06Z</time></trkpt><trkpt lat="37.827592740772246" lon="14.778771773022324"><ele>734.3333333333334</ele><time>2026-04-29T10:01:07Z</time></trkpt><trkpt lat="37.82775051746132" lon="14.778761730174667"><ele>732.6666666666666</ele><time>2026-04-29T10:01:08Z</time></trkpt><trkpt lat="37.827896935626875" lon="14.778729816842956"><ele>731.0</ele><time>2026-04-29T10:01:09Z</time></trkpt><trkpt lat="37.8280455372388" lon="14.778700586964401"><ele>731.0</ele><time>2026-04-29T10:01:10Z</time></trkpt><trkpt lat="37.82820010586366" lon="14.77868482392702"><ele>731.0</ele><time>2026-04-29T10:01:11Z</time></trkpt><trkpt lat="37.82835676196593" lon="14.778666515841296"><ele>731.0</ele><time>2026-04-29T10:01:12Z</time></trkpt><trkpt lat="37.82851442662523" lon="14.77863956967364"><ele>728.0</ele><time>2026-04-29T10:01:13Z</time></trkpt><trkpt lat="37.82866791809806" lon="14.77861230893044"><ele>725.0</ele><time>2026-04-29T10:01:14Z</time></trkpt><trkpt lat="37.828815203362446" lon="14.778571015193927"><ele>722.0</ele><time>2026-04-29T10:01:15Z</time></trkpt><trkpt lat="37.82896488861976" lon="14.77848194682068"><ele>726.6666666666666</ele><time>2026-04-29T10:01:16Z</time></trkpt><trkpt lat="37.82909088322822" lon="14.778360443396204"><ele>731.3333333333334</ele><time>2026-04-29T10:01:17Z</time></trkpt><trkpt lat="37.82921695340238" lon="14.778258217244606"><ele>736.0</ele><time>2026-04-29T10:01:18Z</time></trkpt><trkpt lat="37.82937118135947" lon="14.77821014935516"><ele>736.0</ele><time>2026-04-29T10:01:19Z</time></trkpt><trkpt lat="37.82955182742797" lon="14.77822366278208"><ele>736.0</ele><time>2026-04-29T10:01:20Z</time></trkpt><trkpt lat="37.82971283112961" lon="14.77824501283741"><ele>736.0</ele><time>2026-04-29T10:01:21Z</time></trkpt><trkpt lat="37.82984779345748" lon="14.778248102690705"><ele>736.0</ele><time>2026-04-29T10:01:22Z</time></trkpt><trkpt lat="37.829976206868956" lon="14.77822237474353"><ele>736.0</ele><time>2026-04-29T10:01:23Z</time></trkpt><trkpt lat="37.83010163751794" lon="14.778130306171176"><ele>736.0</ele><time>2026-04-29T10:01:24Z</time></trkpt><trkpt lat="37.830202604976385" lon="14.777998751980007"><ele>736.0</ele><time>2026-04-29T10:01:25Z</time></trkpt><trkpt lat="37.83025432286621" lon="14.77783040328212"><ele>743.0</ele><time>2026-04-29T10:01:26Z</time></trkpt><trkpt lat="37.83027968284068" lon="14.777644196657532"><ele>750.0</ele><time>2026-04-29T10:01:27Z</time></trkpt><trkpt lat="37.8302678483314" lon="14.777443917505634"><ele>757.0</ele><time>2026-04-29T10:01:28Z</time></trkpt><trkpt lat="37.830225886770805" lon="14.777236237712364"><ele>757.0</ele><time>2026-04-29T10:01:29Z</time></trkpt><trkpt lat="37.83020352841045" lon="14.77703269530653"><ele>757.0</ele><time>2026-04-29T10:01:30Z</time></trkpt><trkpt lat="37.83020521869916" lon="14.776826671094852"><ele>757.0</ele><time>2026-04-29T10:01:31Z</time></trkpt><trkpt lat="37.83023725128671" lon="14.776626894880886"><ele>757.0</ele><time>2026-04-29T10:01:32Z</time></trkpt><trkpt lat="37.83029970058263" lon="14.776420064180531"><ele>757.0</ele><time>2026-04-29T10:01:33Z</time></trkpt><trkpt lat="37.83039299620521" lon="14.7762265852902"><ele>757.0</ele><time>2026-04-29T10:01:34Z</time></trkpt><trkpt lat="37.83050097101402" lon="14.776046452895804"><ele>755.0</ele><time>2026-04-29T10:01:35Z</time></trkpt><trkpt lat="37.83063598140698" lon="14.775885519575379"><ele>753.0</ele><time>2026-04-29T10:01:36Z</time></trkpt><trkpt lat="37.83077163239409" lon="14.775736240661224"><ele>751.0</ele><time>2026-04-29T10:01:37Z</time></trkpt><trkpt lat="37.830900312545005" lon="14.775596720145488"><ele>756.3333333333334</ele><time>2026-04-29T10:01:38Z</time></trkpt><trkpt lat="37.831005301056756" lon="14.77544860816476"><ele>761.6666666666666</ele><time>2026-04-29T10:01:39Z</time></trkpt><trkpt lat="37.83108125369817" lon="14.775264720893832"><ele>767.0</ele><time>2026-04-29T10:01:40Z</time></trkpt><trkpt lat="37.83110868712109" lon="14.77504730548851"><ele>767.0</ele><time>2026-04-29T10:01:41Z</time></trkpt><trkpt lat="37.831092430402116" lon="14.774813249361964"><ele>767.0</ele><time>2026-04-29T10:01:42Z</time></trkpt><trkpt lat="37.83108368622018" lon="14.774587519826367"><ele>767.0</ele><time>2026-04-29T10:01:43Z</time></trkpt><trkpt lat="37.831068942203444" lon="14.774361238698178"><ele>769.0</ele><time>2026-04-29T10:01:44Z</time></trkpt><trkpt lat="37.83104108000744" lon="14.774139861977368"><ele>771.0</ele><time>2026-04-29T10:01:45Z</time></trkpt><trkpt lat="37.831011443309976" lon="14.773921530462701"><ele>773.0</ele><time>2026-04-29T10:01:46Z</time></trkpt><trkpt lat="37.83099197321106" lon="14.773709603249204"><ele>774.3333333333334</ele><time>2026-04-29T10:01:47Z</time></trkpt><trkpt lat="37.83098081295484" lon="14.773515080132707"><ele>775.6666666666667</ele><time>2026-04-29T10:01:48Z</time></trkpt><trkpt lat="37.83099407581275" lon="14.773312408618997"><ele>777.0</ele><time>2026-04-29T10:01:49Z</time></trkpt><trkpt lat="37.831048979255335" lon="14.773091949876733"><ele>777.0</ele><time>2026-04-29T10:01:50Z</time></trkpt><trkpt lat="37.8311381292918" lon="14.772862430323515"><ele>777.0</ele><time>2026-04-29T10:01:51Z</time></trkpt><trkpt lat="37.83118120169355" lon="14.77263991571563"><ele>777.0</ele><time>2026-04-29T10:01:52Z</time></trkpt><trkpt lat="37.8311909058463" lon="14.772402462917"><ele>777.0</ele><time>2026-04-29T10:01:53Z</time></trkpt><trkpt lat="37.831181270708356" lon="14.772169437390273"><ele>777.0</ele><time>2026-04-29T10:01:54Z</time></trkpt><trkpt lat="37.831186393136356" lon="14.771930273118985"><ele>777.0</ele><time>2026-04-29T10:01:55Z</time></trkpt><trkpt lat="37.831208873048865" lon="14.771704959924556"><ele>777.0</ele><time>2026-04-29T10:01:56Z</time></trkpt><trkpt lat="37.83123749045716" lon="14.771509477962988"><ele>777.0</ele><time>2026-04-29T10:01:57Z</time></trkpt><trkpt lat="37.831267170931284" lon="14.771341573783468"><ele>777.0</ele><time>2026-04-29T10:01:58Z</time></trkpt><trkpt lat="37.83129618032964" lon="14.771188401628745"><ele>777.0</ele><time>2026-04-29T10:01:59Z</time></trkpt><trkpt lat="37.83131854733626" lon="14.771049789186877"><ele>777.1666666666666</ele><time>2026-04-29T10:02:00Z</time></trkpt><trkpt lat="37.83133487012069" lon="14.770921003345372"><ele>777.3333333333333</ele><time>2026-04-29T10:02:01Z</time></trkpt><trkpt lat="37.83135059752614" lon="14.770817374758181"><ele>777.5</ele><time>2026-04-29T10:02:02Z</time></trkpt><trkpt lat="37.83136500927194" lon="14.77073574405438"><ele>777.6666666666666</ele><time>2026-04-29T10:02:03Z</time></trkpt><trkpt lat="37.831398249025696" lon="14.770636230629293"><ele>777.8333333333333</ele><time>2026-04-29T10:02:05Z</time></trkpt><trkpt lat="37.831415038097575" lon="14.770540555945725"><ele>778.0</ele><time>2026-04-29T10:02:47Z</time></trkpt><trkpt lat="37.831439368211505" lon="14.7704136563372"><ele>778.0</ele><time>2026-04-29T10:02:49Z</time></trkpt><trkpt lat="37.83145653237347" lon="14.770300995486718"><ele>778.0</ele><time>2026-04-29T10:02:51Z</time></trkpt><trkpt lat="37.83146822157819" lon="14.770202141381242"><ele>778.0</ele><time>2026-04-29T10:02:53Z</time></trkpt><trkpt lat="37.83148140647693" lon="14.770043330793357"><ele>778.0</ele><time>2026-04-29T10:02:55Z</time></trkpt><trkpt lat="37.831509949345396" lon="14.769892750873154"><ele>778.0</ele><time>2026-04-29T10:02:57Z</time></trkpt><trkpt lat="37.83152653837211" lon="14.769802659224995"><ele>777.8571428571429</ele><time>2026-04-29T10:02:58Z</time></trkpt><trkpt lat="37.831543375751515" lon="14.769708312818707"><ele>777.7142857142857</ele><time>2026-04-29T10:02:59Z</time></trkpt><trkpt lat="37.83155938840488" lon="14.769619897523333"><ele>777.5714285714286</ele><time>2026-04-29T10:03:00Z</time></trkpt><trkpt lat="37.83157342499549" lon="14.769524863758283"><ele>777.4285714285714</ele><time>2026-04-29T10:03:01Z</time></trkpt><trkpt lat="37.831588501103134" lon="14.76943422067136"><ele>777.2857142857142</ele><time>2026-04-29T10:03:02Z</time></trkpt><trkpt lat="37.831615913085784" lon="14.76935465488394"><ele>777.1428571428571</ele><time>2026-04-29T10:03:03Z</time></trkpt><trkpt lat="37.83165887904626" lon="14.76929317916214"><ele>777.0</ele><time>2026-04-29T10:03:04Z</time></trkpt><trkpt lat="37.831724362967925" lon="14.769249967641844"><ele>775.7142857142857</ele><time>2026-04-29T10:03:05Z</time></trkpt><trkpt lat="37.831793686716935" lon="14.769228027517821"><ele>774.4285714285714</ele><time>2026-04-29T10:03:06Z</time></trkpt><trkpt lat="37.83186918292777" lon="14.769231307436051"><ele>773.1428571428571</ele><time>2026-04-29T10:03:07Z</time></trkpt><trkpt lat="37.83194379600268" lon="14.769231933559729"><ele>771.8571428571429</ele><time>2026-04-29T10:03:08Z</time></trkpt><trkpt lat="37.83201568450833" lon="14.769227308281666"><ele>770.5714285714286</ele><time>2026-04-29T10:03:09Z</time></trkpt><trkpt lat="37.8320860795763" lon="14.769221749508631"><ele>769.2857142857142</ele><time>2026-04-29T10:03:10Z</time></trkpt><trkpt lat="37.83216588852174" lon="14.769218847153809"><ele>768.0</ele><time>2026-04-29T10:03:11Z</time></trkpt><trkpt lat="37.832253288984404" lon="14.769214887858935"><ele>768.0</ele><time>2026-04-29T10:03:12Z</time></trkpt><trkpt lat="37.83234966585989" lon="14.769216887850805"><ele>768.0</ele><time>2026-04-29T10:03:13Z</time></trkpt><trkpt lat="37.832444769565825" lon="14.769217933904452"><ele>768.0</ele><time>2026-04-29T10:03:14Z</time></trkpt><trkpt lat="37.83253101915317" lon="14.769214258403519"><ele>768.0</ele><time>2026-04-29T10:03:15Z</time></trkpt><trkpt lat="37.83261410246888" lon="14.769213540526684"><ele>768.0</ele><time>2026-04-29T10:03:16Z</time></trkpt><trkpt lat="37.83270571566635" lon="14.769247467097708"><ele>769.0</ele><time>2026-04-29T10:03:17Z</time></trkpt><trkpt lat="37.83280758256105" lon="14.769253215470453"><ele>770.0</ele><time>2026-04-29T10:03:18Z</time></trkpt><trkpt lat="37.83290965035321" lon="14.769288241032068"><ele>771.0</ele><time>2026-04-29T10:03:19Z</time></trkpt><trkpt lat="37.83300843437828" lon="14.76931886826948"><ele>772.0</ele><time>2026-04-29T10:03:20Z</time></trkpt><trkpt lat="37.833102655133864" lon="14.76934191707689"><ele>773.0</ele><time>2026-04-29T10:03:21Z</time></trkpt><trkpt lat="37.83319479814868" lon="14.769361284049246"><ele>773.0</ele><time>2026-04-29T10:03:22Z</time></trkpt><trkpt lat="37.83328904964478" lon="14.769364118197393"><ele>773.0</ele><time>2026-04-29T10:03:23Z</time></trkpt><trkpt lat="37.83338504380554" lon="14.769335045009283"><ele>773.0</ele><time>2026-04-29T10:03:24Z</time></trkpt><trkpt lat="37.83347314487815" lon="14.76927167263883"><ele>773.0</ele><time>2026-04-29T10:03:25Z</time></trkpt><trkpt lat="37.833563550669496" lon="14.769181618652468"><ele>773.0</ele><time>2026-04-29T10:03:26Z</time></trkpt><trkpt lat="37.83366299253363" lon="14.769065919559862"><ele>777.6666666666667</ele><time>2026-04-29T10:03:27Z</time></trkpt><trkpt lat="37.83378440179164" lon="14.768929574578449"><ele>782.3333333333333</ele><time>2026-04-29T10:03:28Z</time></trkpt><trkpt lat="37.83393073799569" lon="14.76878331487384"><ele>787.0</ele><time>2026-04-29T10:03:29Z</time></trkpt><trkpt lat="37.83409353491051" lon="14.768670157968506"><ele>787.0</ele><time>2026-04-29T10:03:30Z</time></trkpt><trkpt lat="37.83425449560111" lon="14.768564783683916"><ele>787.0</ele><time>2026-04-29T10:03:31Z</time></trkpt><trkpt lat="37.83439723122268" lon="14.768390288766293"><ele>787.0</ele><time>2026-04-29T10:03:32Z</time></trkpt><trkpt lat="37.83453053045312" lon="14.768154143674328"><ele>787.6666666666666</ele><time>2026-04-29T10:03:33Z</time></trkpt><trkpt lat="37.83467233182136" lon="14.767915552366109"><ele>788.3333333333333</ele><time>2026-04-29T10:03:34Z</time></trkpt><trkpt lat="37.834811175247886" lon="14.767718952595253"><ele>789.0</ele><time>2026-04-29T10:03:35Z</time></trkpt><trkpt lat="37.834946221370906" lon="14.767541840066544"><ele>791.6666666666667</ele><time>2026-04-29T10:03:36Z</time></trkpt><trkpt lat="37.83506783175791" lon="14.767375005843718"><ele>794.3333333333334</ele><time>2026-04-29T10:03:37Z</time></trkpt><trkpt lat="37.835160287410595" lon="14.767185230144461"><ele>797.0</ele><time>2026-04-29T10:03:38Z</time></trkpt><trkpt lat="37.83520720226055" lon="14.76695638317605"><ele>799.0</ele><time>2026-04-29T10:03:39Z</time></trkpt><trkpt lat="37.835217052273194" lon="14.766676805266068"><ele>801.0</ele><time>2026-04-29T10:03:40Z</time></trkpt><trkpt lat="37.835222930888996" lon="14.766371864961794"><ele>801.0</ele><time>2026-04-29T10:03:41Z</time></trkpt><trkpt lat="37.83524034349359" lon="14.766122366313995"><ele>801.0</ele><time>2026-04-29T10:03:42Z</time></trkpt><trkpt lat="37.83525311845454" lon="14.765923995621732"><ele>801.0</ele><time>2026-04-29T10:03:43Z</time></trkpt><trkpt lat="37.83524969086242" lon="14.765756025584556"><ele>799.5</ele><time>2026-04-29T10:03:44Z</time></trkpt><trkpt lat="37.835200363984576" lon="14.765602853024376"><ele>798.0</ele><time>2026-04-29T10:03:45Z</time></trkpt><trkpt lat="37.83509736198656" lon="14.765481246304766"><ele>796.5</ele><time>2026-04-29T10:03:46Z</time></trkpt><trkpt lat="37.83494343726327" lon="14.76539969245856"><ele>795.0</ele><time>2026-04-29T10:03:47Z</time></trkpt><trkpt lat="37.83475027394716" lon="14.765340087596982"><ele>786.0</ele><time>2026-04-29T10:03:48Z</time></trkpt><trkpt lat="37.8345261887362" lon="14.765307310467842"><ele>777.0</ele><time>2026-04-29T10:03:49Z</time></trkpt><trkpt lat="37.834286267256374" lon="14.765285961102375"><ele>774.6666666666667</ele><time>2026-04-29T10:03:50Z</time></trkpt><trkpt lat="37.83409342847896" lon="14.76526280507228"><ele>772.3333333333334</ele><time>2026-04-29T10:03:51Z</time></trkpt><trkpt lat="37.83394276000465" lon="14.765227735983679"><ele>770.0</ele><time>2026-04-29T10:03:52Z</time></trkpt><trkpt lat="37.8338069573579" lon="14.765154810498013"><ele>773.6666666666667</ele><time>2026-04-29T10:03:53Z</time></trkpt><trkpt lat="37.83367865752935" lon="14.765028104140027"><ele>777.3333333333333</ele><time>2026-04-29T10:03:54Z</time></trkpt><trkpt lat="37.833541180930546" lon="14.764839038073632"><ele>781.0</ele><time>2026-04-29T10:03:55Z</time></trkpt><trkpt lat="37.83338491619077" lon="14.764634613060334"><ele>781.0</ele><time>2026-04-29T10:03:56Z</time></trkpt><trkpt lat="37.833213348471055" lon="14.764446350617124"><ele>781.0</ele><time>2026-04-29T10:03:57Z</time></trkpt><trkpt lat="37.833009340464365" lon="14.764294843376097"><ele>784.0</ele><time>2026-04-29T10:03:58Z</time></trkpt><trkpt lat="37.83278146889742" lon="14.764156241403674"><ele>787.0</ele><time>2026-04-29T10:03:59Z</time></trkpt><trkpt lat="37.832573885086084" lon="14.764022616872793"><ele>787.0</ele><time>2026-04-29T10:04:00Z</time></trkpt><trkpt lat="37.832395778393234" lon="14.763899121676033"><ele>787.0</ele><time>2026-04-29T10:04:01Z</time></trkpt><trkpt lat="37.832250435864616" lon="14.763799433869092"><ele>787.0</ele><time>2026-04-29T10:04:02Z</time></trkpt><trkpt lat="37.83213820542338" lon="14.763694113116"><ele>787.0</ele><time>2026-04-29T10:04:03Z</time></trkpt><trkpt lat="37.832054153122286" lon="14.763538251094012"><ele>787.0</ele><time>2026-04-29T10:04:04Z</time></trkpt><trkpt lat="37.83202803314189" lon="14.763335892009893"><ele>787.0</ele><time>2026-04-29T10:04:05Z</time></trkpt><trkpt lat="37.83203452098197" lon="14.763110356138045"><ele>791.3333333333333</ele><time>2026-04-29T10:04:06Z</time></trkpt><trkpt lat="37.83205030175483" lon="14.762869353268766"><ele>795.6666666666667</ele><time>2026-04-29T10:04:07Z</time></trkpt><trkpt lat="37.83205602058723" lon="14.762662049827265"><ele>800.0</ele><time>2026-04-29T10:04:08Z</time></trkpt><trkpt lat="37.83200632405447" lon="14.762503298156677"><ele>799.0</ele><time>2026-04-29T10:04:09Z</time></trkpt><trkpt lat="37.83190651308041" lon="14.762395432549377"><ele>798.0</ele><time>2026-04-29T10:04:10Z</time></trkpt><trkpt lat="37.831773304519864" lon="14.76231654589063"><ele>797.0</ele><time>2026-04-29T10:04:11Z</time></trkpt><trkpt lat="37.831624654082276" lon="14.762230369753599"><ele>796.0</ele><time>2026-04-29T10:04:12Z</time></trkpt><trkpt lat="37.831355072837226" lon="14.761996216685121"><ele>796.0</ele><time>2026-04-29T10:04:14Z</time></trkpt><trkpt lat="37.831260476516725" lon="14.761869522456594"><ele>796.0</ele><time>2026-04-29T10:04:15Z</time></trkpt><trkpt lat="37.83120021057093" lon="14.761698294822265"><ele>796.0</ele><time>2026-04-29T10:04:16Z</time></trkpt><trkpt lat="37.831176009594586" lon="14.76151277349518"><ele>796.0</ele><time>2026-04-29T10:04:17Z</time></trkpt><trkpt lat="37.831209370662435" lon="14.761346070340272"><ele>798.75</ele><time>2026-04-29T10:04:18Z</time></trkpt><trkpt lat="37.831291504729876" lon="14.76120004614205"><ele>801.5</ele><time>2026-04-29T10:04:19Z</time></trkpt><trkpt lat="37.8314150833341" lon="14.761085337437207"><ele>804.25</ele><time>2026-04-29T10:04:20Z</time></trkpt><trkpt lat="37.831558159702226" lon="14.76104327843041"><ele>807.0</ele><time>2026-04-29T10:04:21Z</time></trkpt><trkpt lat="37.83170840012872" lon="14.761091038478508"><ele>809.5</ele><time>2026-04-29T10:04:22Z</time></trkpt><trkpt lat="37.831853705001976" lon="14.761115166845224"><ele>812.0</ele><time>2026-04-29T10:04:23Z</time></trkpt><trkpt lat="37.83197603690554" lon="14.761131631511343"><ele>814.5</ele><time>2026-04-29T10:04:24Z</time></trkpt><trkpt lat="37.83208967000675" lon="14.761081705274366"><ele>817.0</ele><time>2026-04-29T10:04:25Z</time></trkpt><trkpt lat="37.832191032511744" lon="14.760965039302368"><ele>817.25</ele><time>2026-04-29T10:04:26Z</time></trkpt><trkpt lat="37.83226328062808" lon="14.760806513046107"><ele>817.5</ele><time>2026-04-29T10:04:27Z</time></trkpt><trkpt lat="37.83230365226483" lon="14.760635134958301"><ele>817.75</ele><time>2026-04-29T10:04:28Z</time></trkpt><trkpt lat="37.8323486249006" lon="14.76047679105404"><ele>818.0</ele><time>2026-04-29T10:04:29Z</time></trkpt><trkpt lat="37.83241719027988" lon="14.760332702349931"><ele>817.6666666666667</ele><time>2026-04-29T10:04:30Z</time></trkpt><trkpt lat="37.832509467752786" lon="14.760193229403054"><ele>817.3333333333333</ele><time>2026-04-29T10:04:31Z</time></trkpt><trkpt lat="37.83262611864335" lon="14.760068372824339"><ele>817.0</ele><time>2026-04-29T10:04:32Z</time></trkpt><trkpt lat="37.83276031283548" lon="14.75995531886755"><ele>820.75</ele><time>2026-04-29T10:04:33Z</time></trkpt><trkpt lat="37.83288466414897" lon="14.759852761694239"><ele>824.5</ele><time>2026-04-29T10:04:34Z</time></trkpt><trkpt lat="37.8329899561095" lon="14.759752068195535"><ele>828.25</ele><time>2026-04-29T10:04:35Z</time></trkpt><trkpt lat="37.83306231630559" lon="14.759617320439373"><ele>832.0</ele><time>2026-04-29T10:04:36Z</time></trkpt><trkpt lat="37.83309141279125" lon="14.759458673327893"><ele>831.75</ele><time>2026-04-29T10:04:37Z</time></trkpt><trkpt lat="37.83307845946853" lon="14.759289885241921"><ele>831.5</ele><time>2026-04-29T10:04:38Z</time></trkpt><trkpt lat="37.83302079005683" lon="14.759125196425035"><ele>831.25</ele><time>2026-04-29T10:04:39Z</time></trkpt><trkpt lat="37.83295725980908" lon="14.758963120793666"><ele>831.0</ele><time>2026-04-29T10:04:40Z</time></trkpt><trkpt lat="37.832921443566946" lon="14.758795880948803"><ele>831.0</ele><time>2026-04-29T10:04:41Z</time></trkpt><trkpt lat="37.83288753209128" lon="14.758615900788328"><ele>831.0</ele><time>2026-04-29T10:04:42Z</time></trkpt><trkpt lat="37.832864499151086" lon="14.758428616646565"><ele>831.0</ele><time>2026-04-29T10:04:43Z</time></trkpt><trkpt lat="37.83287983027256" lon="14.75822403086089"><ele>831.3333333333333</ele><time>2026-04-29T10:04:44Z</time></trkpt><trkpt lat="37.8329245072034" lon="14.758010484062956"><ele>831.6666666666666</ele><time>2026-04-29T10:04:45Z</time></trkpt><trkpt lat="37.83297299359456" lon="14.757806154678857"><ele>832.0</ele><time>2026-04-29T10:04:46Z</time></trkpt><trkpt lat="37.833013265908114" lon="14.757601163587575"><ele>832.0</ele><time>2026-04-29T10:04:47Z</time></trkpt><trkpt lat="37.83305491226185" lon="14.757387494779397"><ele>832.0</ele><time>2026-04-29T10:04:48Z</time></trkpt><trkpt lat="37.83309262998025" lon="14.757153567914177"><ele>832.0</ele><time>2026-04-29T10:04:49Z</time></trkpt><trkpt lat="37.83313407600438" lon="14.756906052196715"><ele>831.3333333333333</ele><time>2026-04-29T10:04:50Z</time></trkpt><trkpt lat="37.8331812838549" lon="14.756666165373105"><ele>830.6666666666667</ele><time>2026-04-29T10:04:51Z</time></trkpt><trkpt lat="37.833217402029845" lon="14.756438369381769"><ele>830.0</ele><time>2026-04-29T10:04:52Z</time></trkpt><trkpt lat="37.8332342893789" lon="14.756213361724534"><ele>832.0</ele><time>2026-04-29T10:04:53Z</time></trkpt><trkpt lat="37.83318908834028" lon="14.755994682287938"><ele>834.0</ele><time>2026-04-29T10:04:54Z</time></trkpt><trkpt lat="37.833094882053786" lon="14.755785466587122"><ele>836.0</ele><time>2026-04-29T10:04:55Z</time></trkpt><trkpt lat="37.83299897159401" lon="14.755583062857147"><ele>836.0</ele><time>2026-04-29T10:04:56Z</time></trkpt><trkpt lat="37.832928975304846" lon="14.75538959199773"><ele>836.0</ele><time>2026-04-29T10:04:57Z</time></trkpt><trkpt lat="37.83286925617209" lon="14.755187635029424"><ele>836.0</ele><time>2026-04-29T10:04:58Z</time></trkpt><trkpt lat="37.832834521115274" lon="14.754966895852784"><ele>840.6666666666667</ele><time>2026-04-29T10:04:59Z</time></trkpt><trkpt lat="37.83282656565245" lon="14.754734032780373"><ele>845.3333333333333</ele><time>2026-04-29T10:05:00Z</time></trkpt><trkpt lat="37.83280874942783" lon="14.754523585686638"><ele>850.0</ele><time>2026-04-29T10:05:01Z</time></trkpt><trkpt lat="37.832784915141794" lon="14.754326161768356"><ele>850.3333333333333</ele><time>2026-04-29T10:05:02Z</time></trkpt><trkpt lat="37.83275511328" lon="14.754122019512527"><ele>850.6666666666667</ele><time>2026-04-29T10:05:03Z</time></trkpt><trkpt lat="37.83270844344247" lon="14.753922899005033"><ele>851.0</ele><time>2026-04-29T10:05:04Z</time></trkpt><trkpt lat="37.83265211670393" lon="14.753747157472226"><ele>850.25</ele><time>2026-04-29T10:05:05Z</time></trkpt><trkpt lat="37.832583289660015" lon="14.753599569830476"><ele>849.5</ele><time>2026-04-29T10:05:06Z</time></trkpt><trkpt lat="37.8324712077652" lon="14.75349472201665"><ele>848.75</ele><time>2026-04-29T10:05:07Z</time></trkpt><trkpt lat="37.83231285303749" lon="14.753424309955562"><ele>848.0</ele><time>2026-04-29T10:05:08Z</time></trkpt><trkpt lat="37.83216978735336" lon="14.753341376069063"><ele>848.0</ele><time>2026-04-29T10:05:09Z</time></trkpt><trkpt lat="37.83206131871144" lon="14.75321316003381"><ele>848.0</ele><time>2026-04-29T10:05:10Z</time></trkpt><trkpt lat="37.83198942602996" lon="14.753032464519292"><ele>848.0</ele><time>2026-04-29T10:05:11Z</time></trkpt><trkpt lat="37.83195534647542" lon="14.752818251176773"><ele>852.3333333333334</ele><time>2026-04-29T10:05:12Z</time></trkpt><trkpt lat="37.83192738688102" lon="14.752589914900549"><ele>856.6666666666667</ele><time>2026-04-29T10:05:13Z</time></trkpt><trkpt lat="37.83188992146402" lon="14.752357829305419"><ele>861.0</ele><time>2026-04-29T10:05:14Z</time></trkpt><trkpt lat="37.831844252518415" lon="14.752135011959593"><ele>853.3333333333333</ele><time>2026-04-29T10:05:15Z</time></trkpt><trkpt lat="37.83180429439692" lon="14.751933088046382"><ele>845.6666666666666</ele><time>2026-04-29T10:05:16Z</time></trkpt><trkpt lat="37.8317615170939" lon="14.75173743760799"><ele>838.0</ele><time>2026-04-29T10:05:17Z</time></trkpt><trkpt lat="37.8316854835803" lon="14.75155339643617"><ele>838.0</ele><time>2026-04-29T10:05:18Z</time></trkpt><trkpt lat="37.83157503941781" lon="14.751415056074384"><ele>838.0</ele><time>2026-04-29T10:05:19Z</time></trkpt><trkpt lat="37.83142683157896" lon="14.75130391859762"><ele>838.0</ele><time>2026-04-29T10:05:20Z</time></trkpt><trkpt lat="37.831274521423886" lon="14.751192545261844"><ele>838.0</ele><time>2026-04-29T10:05:21Z</time></trkpt><trkpt lat="37.83113432395935" lon="14.751070302624475"><ele>838.0</ele><time>2026-04-29T10:05:22Z</time></trkpt><trkpt lat="37.831012836841715" lon="14.750964074966266"><ele>838.0</ele><time>2026-04-29T10:05:23Z</time></trkpt><trkpt lat="37.8309021457141" lon="14.750852665153687"><ele>839.6666666666666</ele><time>2026-04-29T10:05:24Z</time></trkpt><trkpt lat="37.83079472036801" lon="14.75071506288452"><ele>841.3333333333333</ele><time>2026-04-29T10:05:25Z</time></trkpt><trkpt lat="37.83068391600111" lon="14.750575753508251"><ele>843.0</ele><time>2026-04-29T10:05:26Z</time></trkpt><trkpt lat="37.83057724324843" lon="14.750437696808982"><ele>843.0</ele><time>2026-04-29T10:05:27Z</time></trkpt><trkpt lat="37.83049911085814" lon="14.750306498495997"><ele>843.0</ele><time>2026-04-29T10:05:28Z</time></trkpt><trkpt lat="37.83045092364159" lon="14.750159931891218"><ele>843.0</ele><time>2026-04-29T10:05:29Z</time></trkpt><trkpt lat="37.83044878888842" lon="14.750015068175998"><ele>843.0</ele><time>2026-04-29T10:05:30Z</time></trkpt><trkpt lat="37.83049059616016" lon="14.749867032429934"><ele>846.3333333333333</ele><time>2026-04-29T10:05:31Z</time></trkpt><trkpt lat="37.830571620838846" lon="14.749712158377275"><ele>849.6666666666666</ele><time>2026-04-29T10:05:32Z</time></trkpt><trkpt lat="37.83067322424548" lon="14.74955370540633"><ele>853.0</ele><time>2026-04-29T10:05:33Z</time></trkpt><trkpt lat="37.830769981514926" lon="14.749376095552787"><ele>853.3333333333333</ele><time>2026-04-29T10:05:34Z</time></trkpt><trkpt lat="37.830844563847116" lon="14.749163474297053"><ele>853.6666666666667</ele><time>2026-04-29T10:05:35Z</time></trkpt><trkpt lat="37.830887115758046" lon="14.748951548725943"><ele>854.0</ele><time>2026-04-29T10:05:36Z</time></trkpt><trkpt lat="37.83090737962296" lon="14.748734971571016"><ele>854.3333333333334</ele><time>2026-04-29T10:05:37Z</time></trkpt><trkpt lat="37.83092821766454" lon="14.748524645631534"><ele>854.6666666666667</ele><time>2026-04-29T10:05:38Z</time></trkpt><trkpt lat="37.830930787150784" lon="14.748315935257825"><ele>855.0</ele><time>2026-04-29T10:05:39Z</time></trkpt><trkpt lat="37.83089719886467" lon="14.748111237509947"><ele>855.0</ele><time>2026-04-29T10:05:40Z</time></trkpt><trkpt lat="37.830840829974015" lon="14.74790764802896"><ele>855.0</ele><time>2026-04-29T10:05:41Z</time></trkpt><trkpt lat="37.83076465282355" lon="14.74771739007278"><ele>855.0</ele><time>2026-04-29T10:05:42Z</time></trkpt><trkpt lat="37.83068023781438" lon="14.747538180790778"><ele>857.0</ele><time>2026-04-29T10:05:43Z</time></trkpt><trkpt lat="37.83059740650795" lon="14.747372874478474"><ele>859.0</ele><time>2026-04-29T10:05:44Z</time></trkpt><trkpt lat="37.83048964080544" lon="14.747224721169774"><ele>861.0</ele><time>2026-04-29T10:05:45Z</time></trkpt><trkpt lat="37.830351784006645" lon="14.747085933007439"><ele>861.0</ele><time>2026-04-29T10:05:46Z</time></trkpt><trkpt lat="37.830193247816226" lon="14.746961443863919"><ele>861.0</ele><time>2026-04-29T10:05:47Z</time></trkpt><trkpt lat="37.8300390590631" lon="14.746849357181079"><ele>861.0</ele><time>2026-04-29T10:05:48Z</time></trkpt><trkpt lat="37.82991214270407" lon="14.746729622768363"><ele>862.6666666666667</ele><time>2026-04-29T10:05:49Z</time></trkpt><trkpt lat="37.829797335704086" lon="14.74657772506085"><ele>864.3333333333334</ele><time>2026-04-29T10:05:50Z</time></trkpt><trkpt lat="37.82970896088188" lon="14.74641765787249"><ele>866.0</ele><time>2026-04-29T10:05:51Z</time></trkpt><trkpt lat="37.829632146107556" lon="14.746263898913748"><ele>866.0</ele><time>2026-04-29T10:05:52Z</time></trkpt><trkpt lat="37.829560640255345" lon="14.746102515384226"><ele>866.0</ele><time>2026-04-29T10:05:53Z</time></trkpt><trkpt lat="37.829502117878654" lon="14.74593016663997"><ele>866.0</ele><time>2026-04-29T10:05:54Z</time></trkpt><trkpt lat="37.829478698576835" lon="14.745743998600965"><ele>866.0</ele><time>2026-04-29T10:05:55Z</time></trkpt><trkpt lat="37.829493292915394" lon="14.745546982701216"><ele>870.3333333333334</ele><time>2026-04-29T10:05:56Z</time></trkpt><trkpt lat="37.82953837031093" lon="14.745329043499417"><ele>874.6666666666667</ele><time>2026-04-29T10:05:57Z</time></trkpt><trkpt lat="37.82960127227367" lon="14.745104940421927"><ele>879.0</ele><time>2026-04-29T10:05:58Z</time></trkpt><trkpt lat="37.82966419669563" lon="14.74487004495964"><ele>878.6666666666667</ele><time>2026-04-29T10:05:59Z</time></trkpt><trkpt lat="37.82971817572555" lon="14.744653097021883"><ele>878.3333333333334</ele><time>2026-04-29T10:06:00Z</time></trkpt><trkpt lat="37.82976300789708" lon="14.744463996871474"><ele>878.0</ele><time>2026-04-29T10:06:01Z</time></trkpt><trkpt lat="37.82978034178724" lon="14.74428945691554"><ele>878.0</ele><time>2026-04-29T10:06:02Z</time></trkpt><trkpt lat="37.82974304367529" lon="14.744112105425486"><ele>878.0</ele><time>2026-04-29T10:06:03Z</time></trkpt><trkpt lat="37.82965454542822" lon="14.743935700316122"><ele>878.0</ele><time>2026-04-29T10:06:04Z</time></trkpt><trkpt lat="37.82954286579866" lon="14.74376023360797"><ele>878.0</ele><time>2026-04-29T10:06:05Z</time></trkpt><trkpt lat="37.82945621806175" lon="14.743598465772548"><ele>878.0</ele><time>2026-04-29T10:06:06Z</time></trkpt><trkpt lat="37.829379731864364" lon="14.743434787899504"><ele>878.0</ele><time>2026-04-29T10:06:07Z</time></trkpt><trkpt lat="37.82932110072802" lon="14.743253891455318"><ele>874.3333333333334</ele><time>2026-04-29T10:06:08Z</time></trkpt><trkpt lat="37.82929503816736" lon="14.743056397488228"><ele>870.6666666666667</ele><time>2026-04-29T10:06:09Z</time></trkpt><trkpt lat="37.82929172326231" lon="14.742845152978276"><ele>867.0</ele><time>2026-04-29T10:06:10Z</time></trkpt><trkpt lat="37.829289786287006" lon="14.742638988039939"><ele>867.0</ele><time>2026-04-29T10:06:11Z</time></trkpt><trkpt lat="37.82929392984781" lon="14.742444451773519"><ele>867.0</ele><time>2026-04-29T10:06:12Z</time></trkpt><trkpt lat="37.82932942179385" lon="14.742239468428707"><ele>867.0</ele><time>2026-04-29T10:06:13Z</time></trkpt><trkpt lat="37.82939339222251" lon="14.74202535122361"><ele>873.0</ele><time>2026-04-29T10:06:14Z</time></trkpt><trkpt lat="37.829464139403946" lon="14.741802636365167"><ele>879.0</ele><time>2026-04-29T10:06:15Z</time></trkpt><trkpt lat="37.829529157619554" lon="14.741579320771798"><ele>885.0</ele><time>2026-04-29T10:06:16Z</time></trkpt><trkpt lat="37.829567953012216" lon="14.741346930011408"><ele>885.0</ele><time>2026-04-29T10:06:17Z</time></trkpt><trkpt lat="37.82956451217094" lon="14.741110456768713"><ele>885.0</ele><time>2026-04-29T10:06:18Z</time></trkpt><trkpt lat="37.82953819430192" lon="14.740882640299072"><ele>885.0</ele><time>2026-04-29T10:06:19Z</time></trkpt><trkpt lat="37.82951019297593" lon="14.740661608802746"><ele>885.6666666666667</ele><time>2026-04-29T10:06:20Z</time></trkpt><trkpt lat="37.82948795058054" lon="14.740435073791081"><ele>886.3333333333334</ele><time>2026-04-29T10:06:21Z</time></trkpt><trkpt lat="37.82946898624169" lon="14.740203262897596"><ele>887.0</ele><time>2026-04-29T10:06:22Z</time></trkpt><trkpt lat="37.82945235479924" lon="14.739967332689323"><ele>888.6666666666667</ele><time>2026-04-29T10:06:23Z</time></trkpt><trkpt lat="37.82943332958562" lon="14.739726790845435"><ele>890.3333333333333</ele><time>2026-04-29T10:06:24Z</time></trkpt><trkpt lat="37.829409406150596" lon="14.739501260669927"><ele>892.0</ele><time>2026-04-29T10:06:25Z</time></trkpt><trkpt lat="37.82936810642481" lon="14.739300132536066"><ele>888.0</ele><time>2026-04-29T10:06:26Z</time></trkpt><trkpt lat="37.829293702634786" lon="14.739121121680725"><ele>884.0</ele><time>2026-04-29T10:06:27Z</time></trkpt><trkpt lat="37.82918423720849" lon="14.738986923558999"><ele>880.0</ele><time>2026-04-29T10:06:28Z</time></trkpt><trkpt lat="37.82904719913708" lon="14.738884865417296"><ele>880.0</ele><time>2026-04-29T10:06:29Z</time></trkpt><trkpt lat="37.82887108918207" lon="14.738833374768136"><ele>880.0</ele><time>2026-04-29T10:06:30Z</time></trkpt><trkpt lat="37.82869471471266" lon="14.73877152474081"><ele>880.0</ele><time>2026-04-29T10:06:31Z</time></trkpt><trkpt lat="37.82854537565066" lon="14.738734609475104"><ele>881.0</ele><time>2026-04-29T10:06:32Z</time></trkpt><trkpt lat="37.82841610167065" lon="14.738713157683971"><ele>882.0</ele><time>2026-04-29T10:06:33Z</time></trkpt><trkpt lat="37.8283081902413" lon="14.738622028885374"><ele>883.0</ele><time>2026-04-29T10:06:34Z</time></trkpt><trkpt lat="37.82823712546918" lon="14.738498084930741"><ele>884.0</ele><time>2026-04-29T10:06:35Z</time></trkpt><trkpt lat="37.82820149855057" lon="14.738344172779488"><ele>884.0</ele><time>2026-04-29T10:06:36Z</time></trkpt><trkpt lat="37.8281934606444" lon="14.738153361840483"><ele>884.0</ele><time>2026-04-29T10:06:37Z</time></trkpt><trkpt lat="37.82819603794132" lon="14.737950702222449"><ele>884.0</ele><time>2026-04-29T10:06:38Z</time></trkpt><trkpt lat="37.828203608520326" lon="14.737739204829547"><ele>886.3333333333334</ele><time>2026-04-29T10:06:39Z</time></trkpt><trkpt lat="37.828202743888255" lon="14.73754185971128"><ele>888.6666666666667</ele><time>2026-04-29T10:06:40Z</time></trkpt><trkpt lat="37.82820725203761" lon="14.73734597315951"><ele>891.0</ele><time>2026-04-29T10:06:41Z</time></trkpt><trkpt lat="37.828243366388065" lon="14.737155687013614"><ele>891.0</ele><time>2026-04-29T10:06:42Z</time></trkpt><trkpt lat="37.828317458060575" lon="14.736968216708691"><ele>891.0</ele><time>2026-04-29T10:06:43Z</time></trkpt><trkpt lat="37.8284044014605" lon="14.7367790200687"><ele>891.0</ele><time>2026-04-29T10:06:44Z</time></trkpt><trkpt lat="37.82849316182434" lon="14.736586831585697"><ele>895.0</ele><time>2026-04-29T10:06:45Z</time></trkpt><trkpt lat="37.828585302657245" lon="14.73638924910039"><ele>899.0</ele><time>2026-04-29T10:06:46Z</time></trkpt><trkpt lat="37.82868270603672" lon="14.736196948499742"><ele>903.0</ele><time>2026-04-29T10:06:47Z</time></trkpt><trkpt lat="37.82879603844252" lon="14.73601214221542"><ele>903.0</ele><time>2026-04-29T10:06:48Z</time></trkpt><trkpt lat="37.82893039198985" lon="14.735854829320386"><ele>903.0</ele><time>2026-04-29T10:06:49Z</time></trkpt><trkpt lat="37.82908589357446" lon="14.73573573498022"><ele>903.0</ele><time>2026-04-29T10:06:50Z</time></trkpt><trkpt lat="37.82925079461558" lon="14.735646211185431"><ele>909.0</ele><time>2026-04-29T10:06:51Z</time></trkpt><trkpt lat="37.82941046761736" lon="14.735552286729835"><ele>915.0</ele><time>2026-04-29T10:06:52Z</time></trkpt><trkpt lat="37.82955610504115" lon="14.735420653409312"><ele>921.0</ele><time>2026-04-29T10:06:53Z</time></trkpt><trkpt lat="37.829688659792815" lon="14.735253316049569"><ele>918.3333333333333</ele><time>2026-04-29T10:06:54Z</time></trkpt><trkpt lat="37.82980623289272" lon="14.735059167187782"><ele>915.6666666666666</ele><time>2026-04-29T10:06:55Z</time></trkpt><trkpt lat="37.82990940627479" lon="14.73485787188605"><ele>913.0</ele><time>2026-04-29T10:06:56Z</time></trkpt><trkpt lat="37.8300098130169" lon="14.73466754746652"><ele>913.0</ele><time>2026-04-29T10:06:57Z</time></trkpt><trkpt lat="37.83010412824558" lon="14.734473334014377"><ele>913.0</ele><time>2026-04-29T10:06:58Z</time></trkpt><trkpt lat="37.83017506566095" lon="14.734258698531232"><ele>913.0</ele><time>2026-04-29T10:06:59Z</time></trkpt><trkpt lat="37.83023202097188" lon="14.734050302344885"><ele>918.0</ele><time>2026-04-29T10:07:00Z</time></trkpt><trkpt lat="37.830299005680274" lon="14.733862992302376"><ele>923.0</ele><time>2026-04-29T10:07:01Z</time></trkpt><trkpt lat="37.8303492852488" lon="14.73367911185623"><ele>928.0</ele><time>2026-04-29T10:07:02Z</time></trkpt><trkpt lat="37.83035879077739" lon="14.7334659280807"><ele>928.6666666666666</ele><time>2026-04-29T10:07:03Z</time></trkpt><trkpt lat="37.83034778351154" lon="14.733231232203527"><ele>929.3333333333333</ele><time>2026-04-29T10:07:04Z</time></trkpt><trkpt lat="37.830342935391286" lon="14.73300481072197"><ele>930.0</ele><time>2026-04-29T10:07:05Z</time></trkpt><trkpt lat="37.830344325157924" lon="14.732804179790417"><ele>931.5</ele><time>2026-04-29T10:07:06Z</time></trkpt><trkpt lat="37.83034532117199" lon="14.732624730194889"><ele>933.0</ele><time>2026-04-29T10:07:07Z</time></trkpt><trkpt lat="37.830327157344456" lon="14.732464317102838"><ele>934.5</ele><time>2026-04-29T10:07:08Z</time></trkpt><trkpt lat="37.83026827058023" lon="14.732330263047576"><ele>936.0</ele><time>2026-04-29T10:07:09Z</time></trkpt><trkpt lat="37.83016315516935" lon="14.732240241300723"><ele>931.75</ele><time>2026-04-29T10:07:10Z</time></trkpt><trkpt lat="37.830029180878626" lon="14.732198601724539"><ele>927.5</ele><time>2026-04-29T10:07:11Z</time></trkpt><trkpt lat="37.829885572464136" lon="14.732178493502227"><ele>923.25</ele><time>2026-04-29T10:07:12Z</time></trkpt><trkpt lat="37.82977075827822" lon="14.732148533010232"><ele>919.0</ele><time>2026-04-29T10:07:13Z</time></trkpt><trkpt lat="37.82967866453577" lon="14.732095453180056"><ele>918.9999999999999</ele><time>2026-04-29T10:07:14Z</time></trkpt><trkpt lat="37.82962161021658" lon="14.732030692141256"><ele>919.0</ele><time>2026-04-29T10:07:15Z</time></trkpt><trkpt lat="37.82959041884025" lon="14.731929105215745"><ele>919.0</ele><time>2026-04-29T10:07:17Z</time></trkpt><trkpt lat="37.82956171988349" lon="14.731848925466588"><ele>919.0</ele><time>2026-04-29T10:07:21Z</time></trkpt><trkpt lat="37.82954737620506" lon="14.731752616163995"><ele>918.9999999999999</ele><time>2026-04-29T10:07:24Z</time></trkpt><trkpt lat="37.82953252815795" lon="14.731652920292927"><ele>919.0</ele><time>2026-04-29T10:07:26Z</time></trkpt><trkpt lat="37.82938184816079" lon="14.731658278769867"><ele>918.1428571428571</ele><time>2026-04-29T10:07:27Z</time></trkpt><trkpt lat="37.829317753353976" lon="14.7316606855221"><ele>917.2857142857142</ele><time>2026-04-29T10:07:28Z</time></trkpt><trkpt lat="37.829244766308015" lon="14.73167364107507"><ele>916.4285714285713</ele><time>2026-04-29T10:07:29Z</time></trkpt><trkpt lat="37.82917445045498" lon="14.73170274153747"><ele>915.5714285714284</ele><time>2026-04-29T10:07:30Z</time></trkpt><trkpt lat="37.82910236353906" lon="14.731721190690168"><ele>914.7142857142857</ele><time>2026-04-29T10:07:31Z</time></trkpt><trkpt lat="37.82903113891394" lon="14.73172561166249"><ele>913.8571428571427</ele><time>2026-04-29T10:07:32Z</time></trkpt><trkpt lat="37.8289618162277" lon="14.731723071877704"><ele>912.9999999999999</ele><time>2026-04-29T10:07:33Z</time></trkpt><trkpt lat="37.8288379898264" lon="14.731651137450243"><ele>912.9999999999999</ele><time>2026-04-29T10:07:35Z</time></trkpt><trkpt lat="37.82877184258467" lon="14.731617262921224"><ele>913.0</ele><time>2026-04-29T10:07:36Z</time></trkpt><trkpt lat="37.828709053625886" lon="14.73160398114324"><ele>912.9999999999999</ele><time>2026-04-29T10:07:37Z</time></trkpt><trkpt lat="37.828643839682385" lon="14.731596994925823"><ele>912.9999999999999</ele><time>2026-04-29T10:07:38Z</time></trkpt><trkpt lat="37.82858126271303" lon="14.73156538713924"><ele>913.0</ele><time>2026-04-29T10:07:39Z</time></trkpt><trkpt lat="37.828511417042755" lon="14.731561358188042"><ele>912.9999999999999</ele><time>2026-04-29T10:07:40Z</time></trkpt><trkpt lat="37.828443970210365" lon="14.73152485075749"><ele>912.9999999999999</ele><time>2026-04-29T10:07:41Z</time></trkpt><trkpt lat="37.82837800221032" lon="14.731483246788542"><ele>910.2</ele><time>2026-04-29T10:07:42Z</time></trkpt><trkpt lat="37.82828779597441" lon="14.731381996280971"><ele>907.4</ele><time>2026-04-29T10:07:44Z</time></trkpt><trkpt lat="37.828237189729045" lon="14.731222668292025"><ele>904.6000000000001</ele><time>2026-04-29T10:07:46Z</time></trkpt><trkpt lat="37.828219137146796" lon="14.731115568656422"><ele>901.8000000000001</ele><time>2026-04-29T10:07:47Z</time></trkpt><trkpt lat="37.828201433342244" lon="14.731010115003306"><ele>899.0</ele><time>2026-04-29T10:07:48Z</time></trkpt><trkpt lat="37.828191888192066" lon="14.730905042622906"><ele>897.5000000000001</ele><time>2026-04-29T10:07:49Z</time></trkpt><trkpt lat="37.8282008663016" lon="14.730800589652125"><ele>896.0</ele><time>2026-04-29T10:07:50Z</time></trkpt><trkpt lat="37.82821095397951" lon="14.730693246133129"><ele>894.5</ele><time>2026-04-29T10:07:51Z</time></trkpt><trkpt lat="37.828220269747845" lon="14.730584994760358"><ele>893.0</ele><time>2026-04-29T10:07:52Z</time></trkpt><trkpt lat="37.828215980467476" lon="14.73047654237843"><ele>891.5000000000001</ele><time>2026-04-29T10:07:53Z</time></trkpt><trkpt lat="37.82821202634133" lon="14.730380397220795"><ele>890.0</ele><time>2026-04-29T10:07:54Z</time></trkpt><trkpt lat="37.82822077629644" lon="14.730295500545857"><ele>887.5714285714286</ele><time>2026-04-29T10:07:55Z</time></trkpt><trkpt lat="37.8282477568999" lon="14.730208724530225"><ele>885.1428571428571</ele><time>2026-04-29T10:07:56Z</time></trkpt><trkpt lat="37.82828283360979" lon="14.730113767529742"><ele>882.7142857142857</ele><time>2026-04-29T10:07:57Z</time></trkpt><trkpt lat="37.828319769445635" lon="14.73002908164625"><ele>880.2857142857142</ele><time>2026-04-29T10:07:58Z</time></trkpt><trkpt lat="37.828352614281535" lon="14.729956356595087"><ele>877.8571428571429</ele><time>2026-04-29T10:07:59Z</time></trkpt><trkpt lat="37.82837321404729" lon="14.729878947388945"><ele>875.4285714285713</ele><time>2026-04-29T10:08:00Z</time></trkpt><trkpt lat="37.8283745267873" lon="14.72979651698968"><ele>873.0</ele><time>2026-04-29T10:08:01Z</time></trkpt><trkpt lat="37.82833531007933" lon="14.729680494594577"><ele>873.0</ele><time>2026-04-29T10:08:03Z</time></trkpt><trkpt lat="37.82826584067956" lon="14.729561813745345"><ele>873.0</ele><time>2026-04-29T10:08:05Z</time></trkpt><trkpt lat="37.82816494631348" lon="14.729561375224511"><ele>873.0</ele><time>2026-04-29T10:08:06Z</time></trkpt><trkpt lat="37.82810204080048" lon="14.729526665482263"><ele>873.0</ele><time>2026-04-29T10:08:07Z</time></trkpt><trkpt lat="37.82804140412281" lon="14.729488338471189"><ele>873.0</ele><time>2026-04-29T10:08:08Z</time></trkpt><trkpt lat="37.82793518699885" lon="14.72939425576983"><ele>871.5714285714286</ele><time>2026-04-29T10:08:10Z</time></trkpt><trkpt lat="37.82787575676714" lon="14.729358598231205"><ele>870.1428571428571</ele><time>2026-04-29T10:08:11Z</time></trkpt><trkpt lat="37.82782335186994" lon="14.72931019318981"><ele>868.7142857142858</ele><time>2026-04-29T10:08:12Z</time></trkpt><trkpt lat="37.82775650618866" lon="14.72928586210522"><ele>867.2857142857142</ele><time>2026-04-29T10:08:13Z</time></trkpt><trkpt lat="37.827683234101485" lon="14.729282252738615"><ele>865.8571428571429</ele><time>2026-04-29T10:08:14Z</time></trkpt><trkpt lat="37.827611486618785" lon="14.72928583200348"><ele>864.4285714285714</ele><time>2026-04-29T10:08:15Z</time></trkpt><trkpt lat="37.827536431750595" lon="14.729300723431525"><ele>863.0</ele><time>2026-04-29T10:08:16Z</time></trkpt><trkpt lat="37.827464812892885" lon="14.729284118865307"><ele>860.6666666666667</ele><time>2026-04-29T10:08:17Z</time></trkpt><trkpt lat="37.82739241579286" lon="14.729278628483492"><ele>858.3333333333334</ele><time>2026-04-29T10:08:18Z</time></trkpt><trkpt lat="37.827311107912905" lon="14.729279943044101"><ele>856.0</ele><time>2026-04-29T10:08:19Z</time></trkpt><trkpt lat="37.82723411162115" lon="14.729270418113773"><ele>853.6666666666667</ele><time>2026-04-29T10:08:20Z</time></trkpt><trkpt lat="37.82716109890264" lon="14.72927998922511"><ele>851.3333333333334</ele><time>2026-04-29T10:08:21Z</time></trkpt><trkpt lat="37.82709458804257" lon="14.729255483449124"><ele>849.0</ele><time>2026-04-29T10:08:22Z</time></trkpt><trkpt lat="37.8269805682514" lon="14.729227467941511"><ele>849.0</ele><time>2026-04-29T10:08:24Z</time></trkpt><trkpt lat="37.82691506077015" lon="14.729201017358074"><ele>849.0</ele><time>2026-04-29T10:08:25Z</time></trkpt><trkpt lat="37.82681553834574" lon="14.729132717543921"><ele>849.0</ele><time>2026-04-29T10:08:27Z</time></trkpt><trkpt lat="37.8267546071385" lon="14.729064643998703"><ele>849.0</ele><time>2026-04-29T10:08:29Z</time></trkpt><trkpt lat="37.826700283334176" lon="14.728941585584773"><ele>849.0</ele><time>2026-04-29T10:08:31Z</time></trkpt><trkpt lat="37.82663615087517" lon="14.728862260107213"><ele>846.6</ele><time>2026-04-29T10:08:32Z</time></trkpt><trkpt lat="37.82655224042092" lon="14.728820975109883"><ele>844.2</ele><time>2026-04-29T10:08:33Z</time></trkpt><trkpt lat="37.826441553069216" lon="14.728821655914377"><ele>841.8000000000001</ele><time>2026-04-29T10:08:34Z</time></trkpt><trkpt lat="37.82632330235348" lon="14.728846660290634"><ele>839.4000000000001</ele><time>2026-04-29T10:08:35Z</time></trkpt><trkpt lat="37.82622469079347" lon="14.72885718152108"><ele>837.0</ele><time>2026-04-29T10:08:36Z</time></trkpt><trkpt lat="37.82613125442372" lon="14.72885651001647"><ele>837.0</ele><time>2026-04-29T10:08:37Z</time></trkpt><trkpt lat="37.82604058798075" lon="14.72883794122881"><ele>837.0</ele><time>2026-04-29T10:08:38Z</time></trkpt><trkpt lat="37.82595322860597" lon="14.72883513903191"><ele>837.0</ele><time>2026-04-29T10:08:39Z</time></trkpt><trkpt lat="37.82588030284528" lon="14.728849420902632"><ele>837.0</ele><time>2026-04-29T10:08:40Z</time></trkpt><trkpt lat="37.82572856430618" lon="14.728848049076648"><ele>837.0</ele><time>2026-04-29T10:08:42Z</time></trkpt><trkpt lat="37.8256536008106" lon="14.728819876685295"><ele>834.6666666666666</ele><time>2026-04-29T10:08:43Z</time></trkpt><trkpt lat="37.825584669165146" lon="14.72886859920647"><ele>832.3333333333333</ele><time>2026-04-29T10:08:44Z</time></trkpt><trkpt lat="37.82552060744413" lon="14.728897180942836"><ele>830.0</ele><time>2026-04-29T10:08:45Z</time></trkpt><trkpt lat="37.825401520474216" lon="14.728936330118652"><ele>827.6666666666666</ele><time>2026-04-29T10:08:47Z</time></trkpt><trkpt lat="37.82533163731949" lon="14.728962770649089"><ele>825.3333333333333</ele><time>2026-04-29T10:08:48Z</time></trkpt><trkpt lat="37.825267900853106" lon="14.728982531753847"><ele>823.0</ele><time>2026-04-29T10:08:49Z</time></trkpt><trkpt lat="37.82519482303861" lon="14.729021797369613"><ele>819.6666666666666</ele><time>2026-04-29T10:08:50Z</time></trkpt><trkpt lat="37.82512642716504" lon="14.7290528796967"><ele>816.3333333333333</ele><time>2026-04-29T10:08:51Z</time></trkpt><trkpt lat="37.82505491261559" lon="14.72906824608331"><ele>813.0</ele><time>2026-04-29T10:08:52Z</time></trkpt><trkpt lat="37.82499310507573" lon="14.729131878540105"><ele>809.6666666666667</ele><time>2026-04-29T10:08:53Z</time></trkpt><trkpt lat="37.82491658126893" lon="14.72916911407002"><ele>806.3333333333334</ele><time>2026-04-29T10:08:54Z</time></trkpt><trkpt lat="37.8248213876306" lon="14.729192386475257"><ele>803.0</ele><time>2026-04-29T10:08:55Z</time></trkpt><trkpt lat="37.82472989537311" lon="14.729187688030366"><ele>803.0</ele><time>2026-04-29T10:08:56Z</time></trkpt><trkpt lat="37.824640616955236" lon="14.72917393075271"><ele>803.0</ele><time>2026-04-29T10:08:57Z</time></trkpt><trkpt lat="37.82453806004738" lon="14.729174013568956"><ele>803.0</ele><time>2026-04-29T10:08:58Z</time></trkpt><trkpt lat="37.824425897423666" lon="14.72918537657581"><ele>803.0</ele><time>2026-04-29T10:08:59Z</time></trkpt><trkpt lat="37.82430749038583" lon="14.729208475820759"><ele>803.0</ele><time>2026-04-29T10:09:00Z</time></trkpt><trkpt lat="37.8241777448418" lon="14.729255028574453"><ele>800.8</ele><time>2026-04-29T10:09:01Z</time></trkpt><trkpt lat="37.82407594954848" lon="14.729299055894655"><ele>798.5999999999999</ele><time>2026-04-29T10:09:02Z</time></trkpt><trkpt lat="37.82401575193424" lon="14.72932457502452"><ele>796.4000000000001</ele><time>2026-04-29T10:09:03Z</time></trkpt><trkpt lat="37.82391439325757" lon="14.729335394487386"><ele>794.2</ele><time>2026-04-29T10:09:05Z</time></trkpt><trkpt lat="37.82383160355507" lon="14.729236116848401"><ele>792.0</ele><time>2026-04-29T10:09:06Z</time></trkpt><trkpt lat="37.82374063741679" lon="14.729171033372404"><ele>792.0</ele><time>2026-04-29T10:09:07Z</time></trkpt><trkpt lat="37.82366266686887" lon="14.729126227831761"><ele>792.0</ele><time>2026-04-29T10:09:08Z</time></trkpt><trkpt lat="37.82359463797677" lon="14.729100754841399"><ele>792.0</ele><time>2026-04-29T10:09:09Z</time></trkpt><trkpt lat="37.82352017010384" lon="14.729087996773023"><ele>792.0</ele><time>2026-04-29T10:09:10Z</time></trkpt><trkpt lat="37.823443761792014" lon="14.72908282605775"><ele>792.0</ele><time>2026-04-29T10:09:11Z</time></trkpt><trkpt lat="37.82338111397291" lon="14.729072264098201"><ele>792.0</ele><time>2026-04-29T10:09:12Z</time></trkpt><trkpt lat="37.823319785011705" lon="14.72904472286867"><ele>792.0</ele><time>2026-04-29T10:09:13Z</time></trkpt><trkpt lat="37.823262922201806" lon="14.72899788078943"><ele>791.3333333333334</ele><time>2026-04-29T10:09:14Z</time></trkpt><trkpt lat="37.823194559545975" lon="14.728953814984242"><ele>790.6666666666667</ele><time>2026-04-29T10:09:15Z</time></trkpt><trkpt lat="37.82311455572304" lon="14.728916121665133"><ele>790.0</ele><time>2026-04-29T10:09:16Z</time></trkpt><trkpt lat="37.82303024342431" lon="14.72888195712841"><ele>789.3333333333334</ele><time>2026-04-29T10:09:17Z</time></trkpt><trkpt lat="37.822951031894576" lon="14.728873166808544"><ele>788.6666666666667</ele><time>2026-04-29T10:09:18Z</time></trkpt><trkpt lat="37.82288537598572" lon="14.72887568756336"><ele>788.0</ele><time>2026-04-29T10:09:19Z</time></trkpt><trkpt lat="37.82280865804214" lon="14.728875191334176"><ele>788.0</ele><time>2026-04-29T10:09:21Z</time></trkpt><trkpt lat="37.822724673456136" lon="14.729047134200153"><ele>788.0</ele><time>2026-04-29T10:09:26Z</time></trkpt><trkpt lat="37.82272325062924" lon="14.729143451151682"><ele>788.0</ele><time>2026-04-29T10:09:27Z</time></trkpt><trkpt lat="37.82272677726591" lon="14.72926908842108"><ele>788.0</ele><time>2026-04-29T10:09:28Z</time></trkpt><trkpt lat="37.822758405323505" lon="14.729345133698063"><ele>788.0</ele><time>2026-04-29T10:09:30Z</time></trkpt><trkpt lat="37.822767856591526" lon="14.729449371097429"><ele>788.8333333333334</ele><time>2026-04-29T10:09:32Z</time></trkpt><trkpt lat="37.822781835269296" lon="14.729602081214985"><ele>789.6666666666667</ele><time>2026-04-29T10:09:34Z</time></trkpt><trkpt lat="37.8227898512494" lon="14.72969140996545"><ele>790.5</ele><time>2026-04-29T10:09:35Z</time></trkpt><trkpt lat="37.82275735580332" lon="14.729785884830164"><ele>791.3333333333333</ele><time>2026-04-29T10:09:36Z</time></trkpt><trkpt lat="37.8227592343534" lon="14.729895407294118"><ele>792.1666666666666</ele><time>2026-04-29T10:09:37Z</time></trkpt><trkpt lat="37.82275306177058" lon="14.72999966519103"><ele>793.0</ele><time>2026-04-29T10:09:38Z</time></trkpt><trkpt lat="37.82274309792805" lon="14.73009439731078"><ele>792.9999999999999</ele><time>2026-04-29T10:09:39Z</time></trkpt><trkpt lat="37.82273660278082" lon="14.730182383278226"><ele>793.0</ele><time>2026-04-29T10:09:40Z</time></trkpt><trkpt lat="37.82275900944651" lon="14.730311609477148"><ele>793.0</ele><time>2026-04-29T10:09:42Z</time></trkpt><trkpt lat="37.82285880795071" lon="14.730365320478004"><ele>793.0</ele><time>2026-04-29T10:09:43Z</time></trkpt><trkpt lat="37.82290938397696" lon="14.730431420917322"><ele>792.9999999999999</ele><time>2026-04-29T10:09:44Z</time></trkpt><trkpt lat="37.8229236197622" lon="14.730535383172791"><ele>793.0</ele><time>2026-04-29T10:09:45Z</time></trkpt><trkpt lat="37.822915940783396" lon="14.730622584447866"><ele>792.6666666666666</ele><time>2026-04-29T10:09:46Z</time></trkpt><trkpt lat="37.82291115130372" lon="14.730715539346626"><ele>792.3333333333333</ele><time>2026-04-29T10:09:47Z</time></trkpt><trkpt lat="37.82287555338033" lon="14.730879252543131"><ele>792.0</ele><time>2026-04-29T10:09:49Z</time></trkpt><trkpt lat="37.82285185003495" lon="14.730957518328907"><ele>791.6666666666667</ele><time>2026-04-29T10:09:50Z</time></trkpt><trkpt lat="37.82281151609715" lon="14.731020096743752"><ele>791.3333333333334</ele><time>2026-04-29T10:09:51Z</time></trkpt><trkpt lat="37.82276114362592" lon="14.731097484356669"><ele>791.0</ele><time>2026-04-29T10:09:52Z</time></trkpt><trkpt lat="37.822726350890285" lon="14.731177604147248"><ele>792.4</ele><time>2026-04-29T10:09:53Z</time></trkpt><trkpt lat="37.822729946429" lon="14.73127425303639"><ele>793.8</ele><time>2026-04-29T10:09:54Z</time></trkpt><trkpt lat="37.822711556672694" lon="14.73140793863284"><ele>795.1999999999999</ele><time>2026-04-29T10:09:56Z</time></trkpt><trkpt lat="37.82266506545536" lon="14.731555163141081"><ele>796.5999999999999</ele><time>2026-04-29T10:09:58Z</time></trkpt><trkpt lat="37.82263203497315" lon="14.731654785354724"><ele>798.0</ele><time>2026-04-29T10:09:59Z</time></trkpt><trkpt lat="37.82258987360967" lon="14.73177065468849"><ele>792.2</ele><time>2026-04-29T10:10:00Z</time></trkpt><trkpt lat="37.82255141343638" lon="14.73190335444292"><ele>786.4</ele><time>2026-04-29T10:10:01Z</time></trkpt><trkpt lat="37.82249731116824" lon="14.732022846907746"><ele>780.6</ele><time>2026-04-29T10:10:02Z</time></trkpt><trkpt lat="37.82245421661064" lon="14.732133375088738"><ele>774.8000000000001</ele><time>2026-04-29T10:10:03Z</time></trkpt><trkpt lat="37.82240691265091" lon="14.732236896734834"><ele>769.0</ele><time>2026-04-29T10:10:04Z</time></trkpt><trkpt lat="37.82236233284521" lon="14.732309420048479"><ele>769.0</ele><time>2026-04-29T10:10:05Z</time></trkpt><trkpt lat="37.82227413066122" lon="14.732409674797383"><ele>769.0</ele><time>2026-04-29T10:10:07Z</time></trkpt><trkpt lat="37.82222344636413" lon="14.732502075826968"><ele>769.0</ele><time>2026-04-29T10:10:09Z</time></trkpt><trkpt lat="37.82220877954691" lon="14.732653284991793"><ele>769.0</ele><time>2026-04-29T10:10:11Z</time></trkpt><trkpt lat="37.82220986444244" lon="14.73274457416065"><ele>769.0</ele><time>2026-04-29T10:10:12Z</time></trkpt><trkpt lat="37.822225481566704" lon="14.732846038218964"><ele>766.8333333333333</ele><time>2026-04-29T10:10:13Z</time></trkpt><trkpt lat="37.82224962130803" lon="14.732942933646074"><ele>764.6666666666666</ele><time>2026-04-29T10:10:14Z</time></trkpt><trkpt lat="37.822257712474205" lon="14.733045329929197"><ele>762.5</ele><time>2026-04-29T10:10:15Z</time></trkpt><trkpt lat="37.82226656524323" lon="14.733152904540663"><ele>760.3333333333333</ele><time>2026-04-29T10:10:16Z</time></trkpt><trkpt lat="37.82227924321615" lon="14.733253381962111"><ele>758.1666666666666</ele><time>2026-04-29T10:10:17Z</time></trkpt><trkpt lat="37.8222950846155" lon="14.733354354213152"><ele>756.0</ele><time>2026-04-29T10:10:18Z</time></trkpt><trkpt lat="37.8223271832965" lon="14.733457266825802"><ele>753.4</ele><time>2026-04-29T10:10:19Z</time></trkpt><trkpt lat="37.82234007432115" lon="14.733574876690755"><ele>750.8</ele><time>2026-04-29T10:10:20Z</time></trkpt><trkpt lat="37.82232858156269" lon="14.733687152948109"><ele>748.1999999999999</ele><time>2026-04-29T10:10:21Z</time></trkpt><trkpt lat="37.82232024479425" lon="14.73379524739155"><ele>745.5999999999999</ele><time>2026-04-29T10:10:22Z</time></trkpt><trkpt lat="37.82228714174892" lon="14.733919609767561"><ele>743.0</ele><time>2026-04-29T10:10:23Z</time></trkpt><trkpt lat="37.82230656688669" lon="14.734062334257747"><ele>743.0</ele><time>2026-04-29T10:10:24Z</time></trkpt><trkpt lat="37.82236942400615" lon="14.734150718220858"><ele>743.0</ele><time>2026-04-29T10:10:25Z</time></trkpt><trkpt lat="37.822391736813685" lon="14.734230847463982"><ele>743.0</ele><time>2026-04-29T10:10:26Z</time></trkpt><trkpt lat="37.8223555993353" lon="14.734303020086578"><ele>743.0</ele><time>2026-04-29T10:10:27Z</time></trkpt><trkpt lat="37.822314128116815" lon="14.734443957668534"><ele>743.0</ele><time>2026-04-29T10:10:29Z</time></trkpt><trkpt lat="37.822272160425925" lon="14.734585024328902"><ele>740.8</ele><time>2026-04-29T10:10:31Z</time></trkpt><trkpt lat="37.82223334020679" lon="14.73471911760127"><ele>738.5999999999999</ele><time>2026-04-29T10:10:33Z</time></trkpt><trkpt lat="37.82218143103937" lon="14.734816415152807"><ele>736.4000000000001</ele><time>2026-04-29T10:10:35Z</time></trkpt><trkpt lat="37.82209258393127" lon="14.734870554293064"><ele>734.2</ele><time>2026-04-29T10:10:38Z</time></trkpt><trkpt lat="37.821973584916414" lon="14.734810508331213"><ele>732.0</ele><time>2026-04-29T10:10:40Z</time></trkpt><trkpt lat="37.821870970302186" lon="14.734812566590026"><ele>729.6666666666666</ele><time>2026-04-29T10:10:42Z</time></trkpt><trkpt lat="37.82181075829363" lon="14.734858468505523"><ele>727.3333333333334</ele><time>2026-04-29T10:10:43Z</time></trkpt><trkpt lat="37.82172906991235" lon="14.734921333935992"><ele>725.0</ele><time>2026-04-29T10:10:45Z</time></trkpt><trkpt lat="37.821621239748296" lon="14.734905797520613"><ele>722.6666666666667</ele><time>2026-04-29T10:10:47Z</time></trkpt><trkpt lat="37.82154391532681" lon="14.73486723310917"><ele>720.3333333333334</ele><time>2026-04-29T10:10:48Z</time></trkpt><trkpt lat="37.821471171543095" lon="14.73483645545383"><ele>718.0</ele><time>2026-04-29T10:10:49Z</time></trkpt><trkpt lat="37.82135186315269" lon="14.734848055658972"><ele>718.0</ele><time>2026-04-29T10:10:51Z</time></trkpt><trkpt lat="37.8212747952213" lon="14.734891287154444"><ele>718.0</ele><time>2026-04-29T10:10:52Z</time></trkpt><trkpt lat="37.82120783061652" lon="14.734923090491847"><ele>718.0</ele><time>2026-04-29T10:10:53Z</time></trkpt><trkpt lat="37.82111966200123" lon="14.734958092737546"><ele>718.0</ele><time>2026-04-29T10:10:55Z</time></trkpt><trkpt lat="37.82101064867237" lon="14.735009276654308"><ele>718.0</ele><time>2026-04-29T10:10:57Z</time></trkpt><trkpt lat="37.82097362276869" lon="14.735084673669363"><ele>718.0</ele><time>2026-04-29T10:10:58Z</time></trkpt><trkpt lat="37.820911155686474" lon="14.7351459600758"><ele>718.0</ele><time>2026-04-29T10:11:00Z</time></trkpt><trkpt lat="37.82084724593853" lon="14.735155957949393"><ele>718.0</ele><time>2026-04-29T10:11:51Z</time></trkpt><trkpt lat="37.82100016768933" lon="14.735009640108391"><ele>718.0</ele><time>2026-04-29T10:12:13Z</time></trkpt><trkpt lat="37.82097134830535" lon="14.73493322216709"><ele>718.0</ele><time>2026-04-29T10:12:15Z</time></trkpt><trkpt lat="37.82091010047185" lon="14.73491417551808"><ele>718.0</ele><time>2026-04-29T10:12:35Z</time></trkpt><trkpt lat="37.82083863602316" lon="14.734908205253495"><ele>715.4</ele><time>2026-04-29T10:12:50Z</time></trkpt><trkpt lat="37.82074673405988" lon="14.734889743702691"><ele>712.8</ele><time>2026-04-29T10:12:52Z</time></trkpt><trkpt lat="37.820631759094056" lon="14.734848429620437"><ele>710.2</ele><time>2026-04-29T10:12:54Z</time></trkpt><trkpt lat="37.820513714232455" lon="14.734807983190365"><ele>707.6</ele><time>2026-04-29T10:12:56Z</time></trkpt><trkpt lat="37.820443342560615" lon="14.734810571558894"><ele>705.0</ele><time>2026-04-29T10:12:57Z</time></trkpt><trkpt lat="37.820382257096604" lon="14.734835698227245"><ele>705.0</ele><time>2026-04-29T10:12:58Z</time></trkpt><trkpt lat="37.820316018002735" lon="14.734861763052866"><ele>705.0</ele><time>2026-04-29T10:12:59Z</time></trkpt><trkpt lat="37.82025250746356" lon="14.734880019310456"><ele>705.0</ele><time>2026-04-29T10:13:00Z</time></trkpt><trkpt lat="37.82012271610099" lon="14.734870567475426"><ele>705.0</ele><time>2026-04-29T10:13:02Z</time></trkpt><trkpt lat="37.82005785968398" lon="14.734850800621551"><ele>705.0</ele><time>2026-04-29T10:13:03Z</time></trkpt><trkpt lat="37.81995084685318" lon="14.734807460058116"><ele>705.0</ele><time>2026-04-29T10:13:05Z</time></trkpt><trkpt lat="37.819851372447694" lon="14.734715494224488"><ele>702.6666666666666</ele><time>2026-04-29T10:13:07Z</time></trkpt><trkpt lat="37.81979738749721" lon="14.734633943689799"><ele>700.3333333333334</ele><time>2026-04-29T10:13:08Z</time></trkpt><trkpt lat="37.81974176900331" lon="14.734535473477855"><ele>698.0</ele><time>2026-04-29T10:13:09Z</time></trkpt><trkpt lat="37.81968306862594" lon="14.734449110508697"><ele>695.6666666666667</ele><time>2026-04-29T10:13:10Z</time></trkpt><trkpt lat="37.81963462889654" lon="14.734376460141593"><ele>693.3333333333334</ele><time>2026-04-29T10:13:11Z</time></trkpt><trkpt lat="37.819582968386094" lon="14.73430054946734"><ele>691.0</ele><time>2026-04-29T10:13:12Z</time></trkpt><trkpt lat="37.81953960377003" lon="14.734228707951766"><ele>691.0</ele><time>2026-04-29T10:13:13Z</time></trkpt><trkpt lat="37.81950272729398" lon="14.734155807269435"><ele>691.0</ele><time>2026-04-29T10:13:14Z</time></trkpt><trkpt lat="37.81943924888099" lon="14.734021804827359"><ele>691.0</ele><time>2026-04-29T10:13:16Z</time></trkpt><trkpt lat="37.81940305825057" lon="14.733870009357567"><ele>691.0</ele><time>2026-04-29T10:13:18Z</time></trkpt><trkpt lat="37.81937924132454" lon="14.733792683955121"><ele>691.0</ele><time>2026-04-29T10:13:19Z</time></trkpt><trkpt lat="37.81935274348749" lon="14.73371898355672"><ele>691.0</ele><time>2026-04-29T10:13:20Z</time></trkpt><trkpt lat="37.819322348213106" lon="14.733641288697738"><ele>688.5</ele><time>2026-04-29T10:13:21Z</time></trkpt><trkpt lat="37.81929980174246" lon="14.733554131940979"><ele>686.0</ele><time>2026-04-29T10:13:22Z</time></trkpt><trkpt lat="37.81928553670983" lon="14.73345653091437"><ele>683.5</ele><time>2026-04-29T10:13:23Z</time></trkpt><trkpt lat="37.81926746873893" lon="14.73337115832152"><ele>681.0</ele><time>2026-04-29T10:13:24Z</time></trkpt><trkpt lat="37.819201877563806" lon="14.733277520112097"><ele>678.5</ele><time>2026-04-29T10:13:26Z</time></trkpt><trkpt lat="37.81911631318159" lon="14.73318225370625"><ele>676.0</ele><time>2026-04-29T10:13:28Z</time></trkpt><trkpt lat="37.819025946852726" lon="14.733112924434636"><ele>676.0</ele><time>2026-04-29T10:13:30Z</time></trkpt><trkpt lat="37.81896234462603" lon="14.733123515767288"><ele>676.0</ele><time>2026-04-29T10:13:31Z</time></trkpt><trkpt lat="37.81889144587132" lon="14.733168998296957"><ele>676.0</ele><time>2026-04-29T10:13:32Z</time></trkpt><trkpt lat="37.818811074064016" lon="14.733216267946043"><ele>676.0</ele><time>2026-04-29T10:13:33Z</time></trkpt><trkpt lat="37.818720563539976" lon="14.733235156513647"><ele>676.0</ele><time>2026-04-29T10:13:34Z</time></trkpt><trkpt lat="37.81864401439146" lon="14.733229631281318"><ele>676.0</ele><time>2026-04-29T10:13:35Z</time></trkpt><trkpt lat="37.818565623619826" lon="14.733226736506335"><ele>676.0</ele><time>2026-04-29T10:13:36Z</time></trkpt><trkpt lat="37.81850112937531" lon="14.7332329010367"><ele>676.0</ele><time>2026-04-29T10:13:37Z</time></trkpt><trkpt lat="37.8183821176771" lon="14.733240544081335"><ele>676.0</ele><time>2026-04-29T10:13:39Z</time></trkpt><trkpt lat="37.81827465875044" lon="14.733270356490745"><ele>676.0</ele><time>2026-04-29T10:13:41Z</time></trkpt><trkpt lat="37.81819772758284" lon="14.733278209141794"><ele>676.0</ele><time>2026-04-29T10:13:43Z</time></trkpt><trkpt lat="37.818106283041885" lon="14.733241857014136"><ele>674.1999999999999</ele><time>2026-04-29T10:13:45Z</time></trkpt><trkpt lat="37.8180142652759" lon="14.733117992351142"><ele>672.4</ele><time>2026-04-29T10:13:47Z</time></trkpt><trkpt lat="37.81798543898695" lon="14.73302108292577"><ele>670.6</ele><time>2026-04-29T10:13:48Z</time></trkpt><trkpt lat="37.81795264187881" lon="14.732931768698705"><ele>668.8</ele><time>2026-04-29T10:13:49Z</time></trkpt><trkpt lat="37.81788654084802" lon="14.732799202132757"><ele>667.0</ele><time>2026-04-29T10:13:51Z</time></trkpt><trkpt lat="37.817825256718685" lon="14.732651152413371"><ele>667.0</ele><time>2026-04-29T10:13:53Z</time></trkpt><trkpt lat="37.81778327792298" lon="14.73257172681911"><ele>667.0</ele><time>2026-04-29T10:13:54Z</time></trkpt><trkpt lat="37.81773586680186" lon="14.732505874745721"><ele>667.0</ele><time>2026-04-29T10:13:55Z</time></trkpt><trkpt lat="37.81767455643787" lon="14.732449763745773"><ele>667.0</ele><time>2026-04-29T10:13:56Z</time></trkpt><trkpt lat="37.81760564394207" lon="14.732385863376262"><ele>667.0</ele><time>2026-04-29T10:13:57Z</time></trkpt><trkpt lat="37.81753841034131" lon="14.732321124133339"><ele>667.0</ele><time>2026-04-29T10:13:58Z</time></trkpt><trkpt lat="37.81746969743742" lon="14.732255103240679"><ele>666.8333333333334</ele><time>2026-04-29T10:13:59Z</time></trkpt><trkpt lat="37.81739891915244" lon="14.732186215971804"><ele>666.6666666666667</ele><time>2026-04-29T10:13:59.999Z</time></trkpt><trkpt lat="37.81734152399586" lon="14.73212810148221"><ele>666.5</ele><time>2026-04-29T10:14:00.999Z</time></trkpt><trkpt lat="37.81729363295411" lon="14.732072091700799"><ele>666.3333333333334</ele><time>2026-04-29T10:14:01.999Z</time></trkpt><trkpt lat="37.81725419800577" lon="14.731999311902545"><ele>666.1666666666666</ele><time>2026-04-29T10:14:02.999Z</time></trkpt><trkpt lat="37.8172209537992" lon="14.731915827637996"><ele>666.0</ele><time>2026-04-29T10:14:03.999Z</time></trkpt><trkpt lat="37.817183801615435" lon="14.73182090231529"><ele>666.0</ele><time>2026-04-29T10:14:04.999Z</time></trkpt><trkpt lat="37.817150154599524" lon="14.73171982206953"><ele>666.0</ele><time>2026-04-29T10:14:05.999Z</time></trkpt><trkpt lat="37.817107066689026" lon="14.731594281381012"><ele>666.0</ele><time>2026-04-29T10:14:06.999Z</time></trkpt><trkpt lat="37.81706172996869" lon="14.731482064521181"><ele>666.0</ele><time>2026-04-29T10:14:07.999Z</time></trkpt><trkpt lat="37.817013604847595" lon="14.731380570840189"><ele>666.0</ele><time>2026-04-29T10:14:08.999Z</time></trkpt><trkpt lat="37.81695804517176" lon="14.731280618638461"><ele>666.0</ele><time>2026-04-29T10:14:09.999Z</time></trkpt><trkpt lat="37.81689855738208" lon="14.731178469471736"><ele>666.0</ele><time>2026-04-29T10:14:10.999Z</time></trkpt><trkpt lat="37.816835978584606" lon="14.731086579590022"><ele>666.0</ele><time>2026-04-29T10:14:11.999Z</time></trkpt><trkpt lat="37.81676227469207" lon="14.730991549296792"><ele>666.0</ele><time>2026-04-29T10:14:13Z</time></trkpt><trkpt lat="37.81668935775155" lon="14.730881038139485"><ele>666.0</ele><time>2026-04-29T10:14:14Z</time></trkpt><trkpt lat="37.816629585147524" lon="14.730774963081736"><ele>666.4</ele><time>2026-04-29T10:14:15Z</time></trkpt><trkpt lat="37.81658652376548" lon="14.730679315836335"><ele>666.8</ele><time>2026-04-29T10:14:16Z</time></trkpt><trkpt lat="37.81655057604506" lon="14.730580266227973"><ele>667.1999999999999</ele><time>2026-04-29T10:14:17Z</time></trkpt><trkpt lat="37.81651295526096" lon="14.730471467410743"><ele>667.5999999999999</ele><time>2026-04-29T10:14:18Z</time></trkpt><trkpt lat="37.81647864310333" lon="14.730352625298584"><ele>668.0</ele><time>2026-04-29T10:14:19Z</time></trkpt><trkpt lat="37.81644163520714" lon="14.730217864019606"><ele>668.0</ele><time>2026-04-29T10:14:20Z</time></trkpt><trkpt lat="37.81639589443934" lon="14.730071600344445"><ele>668.0</ele><time>2026-04-29T10:14:21Z</time></trkpt><trkpt lat="37.816363140065114" lon="14.729935918621601"><ele>668.0</ele><time>2026-04-29T10:14:22Z</time></trkpt><trkpt lat="37.816335669971686" lon="14.729796275457302"><ele>668.0</ele><time>2026-04-29T10:14:23Z</time></trkpt><trkpt lat="37.816312548839996" lon="14.729659723404135"><ele>668.0</ele><time>2026-04-29T10:14:24Z</time></trkpt><trkpt lat="37.81628837303832" lon="14.729522310979782"><ele>668.0</ele><time>2026-04-29T10:14:25Z</time></trkpt><trkpt lat="37.81627480422473" lon="14.729363489568145"><ele>668.0</ele><time>2026-04-29T10:14:26Z</time></trkpt><trkpt lat="37.816268804496914" lon="14.729193085310115"><ele>668.0</ele><time>2026-04-29T10:14:27Z</time></trkpt><trkpt lat="37.81626508553463" lon="14.729025760742726"><ele>668.2</ele><time>2026-04-29T10:14:28Z</time></trkpt><trkpt lat="37.81625695714222" lon="14.728878471801341"><ele>668.4</ele><time>2026-04-29T10:14:29Z</time></trkpt><trkpt lat="37.81623891576118" lon="14.728740740461216"><ele>668.6</ele><time>2026-04-29T10:14:30Z</time></trkpt><trkpt lat="37.81621818076581" lon="14.728613755138003"><ele>668.8000000000001</ele><time>2026-04-29T10:14:31Z</time></trkpt><trkpt lat="37.81620397845392" lon="14.72848054344008"><ele>669.0</ele><time>2026-04-29T10:14:32Z</time></trkpt><trkpt lat="37.81620823805076" lon="14.728347712551134"><ele>669.25</ele><time>2026-04-29T10:14:33Z</time></trkpt><trkpt lat="37.81622165704829" lon="14.728217094900174"><ele>669.5</ele><time>2026-04-29T10:14:34Z</time></trkpt><trkpt lat="37.81624058734075" lon="14.728085444524234"><ele>669.75</ele><time>2026-04-29T10:14:35Z</time></trkpt><trkpt lat="37.816273248397714" lon="14.727949394567414"><ele>670.0</ele><time>2026-04-29T10:14:36Z</time></trkpt><trkpt lat="37.81632323790741" lon="14.727796992439403"><ele>670.25</ele><time>2026-04-29T10:14:37Z</time></trkpt><trkpt lat="37.816370742281855" lon="14.727624461007093"><ele>670.5</ele><time>2026-04-29T10:14:38Z</time></trkpt><trkpt lat="37.81640787261003" lon="14.72744909766241"><ele>670.75</ele><time>2026-04-29T10:14:39Z</time></trkpt><trkpt lat="37.816433642495745" lon="14.727267300631523"><ele>671.0</ele><time>2026-04-29T10:14:40Z</time></trkpt><trkpt lat="37.816457031789085" lon="14.727093791566816"><ele>671.0</ele><time>2026-04-29T10:14:41Z</time></trkpt><trkpt lat="37.81645940287164" lon="14.726930702641656"><ele>671.0</ele><time>2026-04-29T10:14:42Z</time></trkpt><trkpt lat="37.81646537387721" lon="14.726768860581117"><ele>671.0</ele><time>2026-04-29T10:14:43Z</time></trkpt><trkpt lat="37.8164832518088" lon="14.726625150639565"><ele>671.0</ele><time>2026-04-29T10:14:44Z</time></trkpt><trkpt lat="37.81647981063482" lon="14.726477223202597"><ele>671.0</ele><time>2026-04-29T10:14:45Z</time></trkpt><trkpt lat="37.81652559800818" lon="14.726339363591558"><ele>671.0</ele><time>2026-04-29T10:14:46Z</time></trkpt><trkpt lat="37.81651164036338" lon="14.726185334548745"><ele>671.0</ele><time>2026-04-29T10:14:47Z</time></trkpt><trkpt lat="37.816530965629696" lon="14.726017815746618"><ele>671.0</ele><time>2026-04-29T10:14:48Z</time></trkpt><trkpt lat="37.81655256165522" lon="14.725826475541714"><ele>671.6666666666666</ele><time>2026-04-29T10:14:49Z</time></trkpt><trkpt lat="37.81657417900245" lon="14.725634946546908"><ele>672.3333333333334</ele><time>2026-04-29T10:14:50Z</time></trkpt><trkpt lat="37.81661294017539" lon="14.725447164320201"><ele>673.0</ele><time>2026-04-29T10:14:51Z</time></trkpt><trkpt lat="37.81663027739195" lon="14.72525974985588"><ele>673.5</ele><time>2026-04-29T10:14:52Z</time></trkpt><trkpt lat="37.81664267731558" lon="14.725087916750159"><ele>674.0</ele><time>2026-04-29T10:14:53Z</time></trkpt><trkpt lat="37.816653466935165" lon="14.724929446411437"><ele>674.5</ele><time>2026-04-29T10:14:54Z</time></trkpt><trkpt lat="37.8166624035255" lon="14.724780158509203"><ele>675.0</ele><time>2026-04-29T10:14:55Z</time></trkpt><trkpt lat="37.816679097954406" lon="14.724626343379859"><ele>675.0</ele><time>2026-04-29T10:14:56Z</time></trkpt><trkpt lat="37.81669991639077" lon="14.724465101763792"><ele>675.0</ele><time>2026-04-29T10:14:57Z</time></trkpt><trkpt lat="37.8167291719689" lon="14.724299400101367"><ele>675.0</ele><time>2026-04-29T10:14:58Z</time></trkpt><trkpt lat="37.816733371789596" lon="14.724131405203543"><ele>675.0</ele><time>2026-04-29T10:14:59Z</time></trkpt><trkpt lat="37.816763540926445" lon="14.72397219439242"><ele>675.0</ele><time>2026-04-29T10:15:00Z</time></trkpt><trkpt lat="37.81677247464373" lon="14.723797387997308"><ele>675.0</ele><time>2026-04-29T10:15:01Z</time></trkpt><trkpt lat="37.81678259701269" lon="14.723621523085624"><ele>675.0</ele><time>2026-04-29T10:15:02Z</time></trkpt><trkpt lat="37.81679606198759" lon="14.723437185246262"><ele>675.0</ele><time>2026-04-29T10:15:03Z</time></trkpt><trkpt lat="37.816812464843196" lon="14.723251384751372"><ele>675.5</ele><time>2026-04-29T10:15:04Z</time></trkpt><trkpt lat="37.81683482159425" lon="14.723077352707854"><ele>676.0</ele><time>2026-04-29T10:15:05Z</time></trkpt><trkpt lat="37.8168306218109" lon="14.7229115615282"><ele>676.5</ele><time>2026-04-29T10:15:06Z</time></trkpt><trkpt lat="37.81684183582293" lon="14.722773959736635"><ele>677.0</ele><time>2026-04-29T10:15:07Z</time></trkpt><trkpt lat="37.81685957830433" lon="14.722630149149879"><ele>677.0</ele><time>2026-04-29T10:15:08Z</time></trkpt><trkpt lat="37.816879487129945" lon="14.722464380817218"><ele>677.0</ele><time>2026-04-29T10:15:09Z</time></trkpt><trkpt lat="37.8168926087506" lon="14.722292260780327"><ele>677.0</ele><time>2026-04-29T10:15:10Z</time></trkpt><trkpt lat="37.81690140389638" lon="14.72212803877159"><ele>677.0</ele><time>2026-04-29T10:15:11Z</time></trkpt><trkpt lat="37.816910539530944" lon="14.72196600426105"><ele>677.25</ele><time>2026-04-29T10:15:12Z</time></trkpt><trkpt lat="37.81692179109921" lon="14.721808044064456"><ele>677.5</ele><time>2026-04-29T10:15:13Z</time></trkpt><trkpt lat="37.81693542150163" lon="14.72165130240817"><ele>677.75</ele><time>2026-04-29T10:15:14Z</time></trkpt><trkpt lat="37.816947741650196" lon="14.72149531850138"><ele>678.0</ele><time>2026-04-29T10:15:15Z</time></trkpt><trkpt lat="37.81695123051919" lon="14.721343680876785"><ele>678.0</ele><time>2026-04-29T10:15:16Z</time></trkpt><trkpt lat="37.81695139296029" lon="14.7211880443706"><ele>678.0</ele><time>2026-04-29T10:15:17Z</time></trkpt><trkpt lat="37.81696297550493" lon="14.721019120298294"><ele>678.0</ele><time>2026-04-29T10:15:18Z</time></trkpt><trkpt lat="37.81698191877363" lon="14.720834196011328"><ele>678.0</ele><time>2026-04-29T10:15:19Z</time></trkpt><trkpt lat="37.8169964758411" lon="14.720640174731576"><ele>678.6666666666666</ele><time>2026-04-29T10:15:20Z</time></trkpt><trkpt lat="37.8169966212523" lon="14.72043790121061"><ele>679.3333333333333</ele><time>2026-04-29T10:15:21Z</time></trkpt><trkpt lat="37.817025829465756" lon="14.72023873720204"><ele>680.0</ele><time>2026-04-29T10:15:22Z</time></trkpt><trkpt lat="37.81704293653878" lon="14.720056898805522"><ele>680.75</ele><time>2026-04-29T10:15:23Z</time></trkpt><trkpt lat="37.81705205811333" lon="14.719869077460134"><ele>681.5</ele><time>2026-04-29T10:15:24Z</time></trkpt><trkpt lat="37.81705600673477" lon="14.7196902408404"><ele>682.25</ele><time>2026-04-29T10:15:25Z</time></trkpt><trkpt lat="37.81704923339237" lon="14.719523304925454"><ele>683.0</ele><time>2026-04-29T10:15:26Z</time></trkpt><trkpt lat="37.817050329134695" lon="14.719362837314241"><ele>684.0</ele><time>2026-04-29T10:15:27Z</time></trkpt><trkpt lat="37.817060473979105" lon="14.719203905399374"><ele>685.0</ele><time>2026-04-29T10:15:28Z</time></trkpt><trkpt lat="37.81705414519801" lon="14.719022171667712"><ele>686.0</ele><time>2026-04-29T10:15:29Z</time></trkpt><trkpt lat="37.81706003366597" lon="14.718837717309963"><ele>687.0</ele><time>2026-04-29T10:15:30Z</time></trkpt><trkpt lat="37.81704858200462" lon="14.718645824861973"><ele>687.25</ele><time>2026-04-29T10:15:31Z</time></trkpt><trkpt lat="37.817027656431364" lon="14.718474126522077"><ele>687.5</ele><time>2026-04-29T10:15:32Z</time></trkpt><trkpt lat="37.816981254771555" lon="14.718323948842329"><ele>687.75</ele><time>2026-04-29T10:15:33Z</time></trkpt><trkpt lat="37.81694501160215" lon="14.718160402743951"><ele>688.0</ele><time>2026-04-29T10:15:34Z</time></trkpt><trkpt lat="37.81691486156052" lon="14.717993514841831"><ele>688.0</ele><time>2026-04-29T10:15:35Z</time></trkpt><trkpt lat="37.81685038132575" lon="14.717840816588259"><ele>688.0</ele><time>2026-04-29T10:15:36Z</time></trkpt><trkpt lat="37.81678870158734" lon="14.717685758713966"><ele>688.0</ele><time>2026-04-29T10:15:37Z</time></trkpt><trkpt lat="37.81671784578348" lon="14.717526546895991"><ele>688.0</ele><time>2026-04-29T10:15:38Z</time></trkpt><trkpt lat="37.81664669372832" lon="14.717365131403536"><ele>686.5</ele><time>2026-04-29T10:15:39Z</time></trkpt><trkpt lat="37.81657556642003" lon="14.717198645925926"><ele>685.0</ele><time>2026-04-29T10:15:40Z</time></trkpt><trkpt lat="37.81650499483907" lon="14.71703346083546"><ele>683.5</ele><time>2026-04-29T10:15:41Z</time></trkpt><trkpt lat="37.81643374272315" lon="14.716866678302647"><ele>682.0</ele><time>2026-04-29T10:15:42Z</time></trkpt><trkpt lat="37.816362926535625" lon="14.716701967412272"><ele>682.0</ele><time>2026-04-29T10:15:43Z</time></trkpt><trkpt lat="37.816290657757825" lon="14.716533497256261"><ele>682.0</ele><time>2026-04-29T10:15:44Z</time></trkpt><trkpt lat="37.8162280879548" lon="14.716343832017882"><ele>682.0</ele><time>2026-04-29T10:15:45Z</time></trkpt><trkpt lat="37.81614167764553" lon="14.71615885183809"><ele>682.3333333333334</ele><time>2026-04-29T10:15:46Z</time></trkpt><trkpt lat="37.816063361520236" lon="14.715973991549888"><ele>682.6666666666666</ele><time>2026-04-29T10:15:47Z</time></trkpt><trkpt lat="37.81598966899735" lon="14.715795934903781"><ele>683.0</ele><time>2026-04-29T10:15:48Z</time></trkpt><trkpt lat="37.81591527387612" lon="14.715623800431043"><ele>682.3333333333333</ele><time>2026-04-29T10:15:49Z</time></trkpt><trkpt lat="37.81584116828333" lon="14.715456033174235"><ele>681.6666666666666</ele><time>2026-04-29T10:15:50Z</time></trkpt><trkpt lat="37.81576977281113" lon="14.715281230123766"><ele>681.0</ele><time>2026-04-29T10:15:51Z</time></trkpt><trkpt lat="37.81567604990665" lon="14.71510934671117"><ele>681.0</ele><time>2026-04-29T10:15:52Z</time></trkpt><trkpt lat="37.81559780453249" lon="14.71493248810533"><ele>681.0</ele><time>2026-04-29T10:15:53Z</time></trkpt><trkpt lat="37.81553277801668" lon="14.714750845792281"><ele>681.0</ele><time>2026-04-29T10:15:54Z</time></trkpt><trkpt lat="37.81545094382725" lon="14.714587495887974"><ele>681.0</ele><time>2026-04-29T10:15:55Z</time></trkpt><trkpt lat="37.81536701234335" lon="14.71441232699333"><ele>681.0</ele><time>2026-04-29T10:15:56Z</time></trkpt><trkpt lat="37.81528480314771" lon="14.714227394076168"><ele>681.0</ele><time>2026-04-29T10:15:57Z</time></trkpt><trkpt lat="37.8152089967789" lon="14.71404035635487"><ele>681.0</ele><time>2026-04-29T10:15:58Z</time></trkpt><trkpt lat="37.81513477056723" lon="14.713854519654024"><ele>681.0</ele><time>2026-04-29T10:15:59Z</time></trkpt><trkpt lat="37.81506364865797" lon="14.713681159111044"><ele>681.0</ele><time>2026-04-29T10:16:00Z</time></trkpt><trkpt lat="37.8149897416192" lon="14.713509459373764"><ele>681.6666666666666</ele><time>2026-04-29T10:16:01Z</time></trkpt><trkpt lat="37.81491384195852" lon="14.713332502499538"><ele>682.3333333333333</ele><time>2026-04-29T10:16:02Z</time></trkpt><trkpt lat="37.81483391632715" lon="14.71315276726661"><ele>683.0</ele><time>2026-04-29T10:16:03Z</time></trkpt><trkpt lat="37.81475486388215" lon="14.712974028665618"><ele>683.0</ele><time>2026-04-29T10:16:04Z</time></trkpt><trkpt lat="37.81467911429104" lon="14.712798370177087"><ele>683.0</ele><time>2026-04-29T10:16:05Z</time></trkpt><trkpt lat="37.81460308520166" lon="14.712625839545678"><ele>683.0</ele><time>2026-04-29T10:16:06Z</time></trkpt><trkpt lat="37.814523800852335" lon="14.712441653498354"><ele>683.0</ele><time>2026-04-29T10:16:07Z</time></trkpt><trkpt lat="37.81444617519022" lon="14.712251310915144"><ele>683.0</ele><time>2026-04-29T10:16:08Z</time></trkpt><trkpt lat="37.81434383160299" lon="14.712055507429156"><ele>683.0</ele><time>2026-04-29T10:16:09Z</time></trkpt><trkpt lat="37.814249958620614" lon="14.711842732686943"><ele>683.6666666666666</ele><time>2026-04-29T10:16:10Z</time></trkpt><trkpt lat="37.81417259153274" lon="14.71162637807274"><ele>684.3333333333334</ele><time>2026-04-29T10:16:11Z</time></trkpt><trkpt lat="37.814084388202104" lon="14.711422835954224"><ele>685.0</ele><time>2026-04-29T10:16:12Z</time></trkpt><trkpt lat="37.813998578264005" lon="14.711221558662503"><ele>685.6666666666667</ele><time>2026-04-29T10:16:13Z</time></trkpt><trkpt lat="37.813900315605295" lon="14.711031493543091"><ele>686.3333333333334</ele><time>2026-04-29T10:16:14Z</time></trkpt><trkpt lat="37.813819066494204" lon="14.71084020866157"><ele>687.0</ele><time>2026-04-29T10:16:15Z</time></trkpt><trkpt lat="37.813737905671324" lon="14.71064932850629"><ele>687.0</ele><time>2026-04-29T10:16:16Z</time></trkpt><trkpt lat="37.813654551868154" lon="14.71045467341714"><ele>687.0</ele><time>2026-04-29T10:16:17Z</time></trkpt><trkpt lat="37.81357298568974" lon="14.710264562480061"><ele>687.0</ele><time>2026-04-29T10:16:18Z</time></trkpt><trkpt lat="37.813507569282336" lon="14.710076680573316"><ele>686.3333333333334</ele><time>2026-04-29T10:16:19Z</time></trkpt><trkpt lat="37.81342758632128" lon="14.709902149351823"><ele>685.6666666666667</ele><time>2026-04-29T10:16:20Z</time></trkpt><trkpt lat="37.813346488518164" lon="14.709714593675068"><ele>685.0</ele><time>2026-04-29T10:16:21Z</time></trkpt><trkpt lat="37.81324981602421" lon="14.709536478618217"><ele>685.6666666666667</ele><time>2026-04-29T10:16:22Z</time></trkpt><trkpt lat="37.8131726644612" lon="14.709362730818304"><ele>686.3333333333334</ele><time>2026-04-29T10:16:23Z</time></trkpt><trkpt lat="37.813096419546305" lon="14.709189907766914"><ele>687.0</ele><time>2026-04-29T10:16:24Z</time></trkpt><trkpt lat="37.8130202268253" lon="14.709012599039124"><ele>687.0</ele><time>2026-04-29T10:16:25Z</time></trkpt><trkpt lat="37.81294419557646" lon="14.708835666079864"><ele>687.0</ele><time>2026-04-29T10:16:26Z</time></trkpt><trkpt lat="37.812868529646" lon="14.708659583234175"><ele>687.0</ele><time>2026-04-29T10:16:27Z</time></trkpt><trkpt lat="37.81278696788008" lon="14.70846978017619"><ele>687.0</ele><time>2026-04-29T10:16:28Z</time></trkpt><trkpt lat="37.81270422236788" lon="14.708277222414072"><ele>687.0</ele><time>2026-04-29T10:16:29Z</time></trkpt><trkpt lat="37.81261891247927" lon="14.708078696995072"><ele>687.0</ele><time>2026-04-29T10:16:30Z</time></trkpt><trkpt lat="37.812534890892444" lon="14.707884771739437"><ele>687.6666666666666</ele><time>2026-04-29T10:16:31Z</time></trkpt><trkpt lat="37.81247063629251" lon="14.707694283226898"><ele>688.3333333333333</ele><time>2026-04-29T10:16:32Z</time></trkpt><trkpt lat="37.81239324043998" lon="14.707524702881889"><ele>689.0</ele><time>2026-04-29T10:16:33Z</time></trkpt><trkpt lat="37.81231432890262" lon="14.707347147279046"><ele>689.0</ele><time>2026-04-29T10:16:34Z</time></trkpt><trkpt lat="37.81223427872464" lon="14.70716098853666"><ele>689.0</ele><time>2026-04-29T10:16:35Z</time></trkpt><trkpt lat="37.812161232804975" lon="14.706992619985323"><ele>689.0</ele><time>2026-04-29T10:16:36Z</time></trkpt><trkpt lat="37.81208890668598" lon="14.706829072898286"><ele>688.75</ele><time>2026-04-29T10:16:37Z</time></trkpt><trkpt lat="37.812030179588795" lon="14.70666277228741"><ele>688.5</ele><time>2026-04-29T10:16:38Z</time></trkpt><trkpt lat="37.81198232583308" lon="14.706489721016888"><ele>688.25</ele><time>2026-04-29T10:16:39Z</time></trkpt><trkpt lat="37.81195126292065" lon="14.706310725707363"><ele>688.0</ele><time>2026-04-29T10:16:40Z</time></trkpt><trkpt lat="37.81192636280656" lon="14.70613596017314"><ele>688.5</ele><time>2026-04-29T10:16:41Z</time></trkpt><trkpt lat="37.81190975194187" lon="14.705961588056674"><ele>689.0</ele><time>2026-04-29T10:16:42Z</time></trkpt><trkpt lat="37.811897370855604" lon="14.7057845683497"><ele>689.5</ele><time>2026-04-29T10:16:43Z</time></trkpt><trkpt lat="37.81188780754998" lon="14.70560680849215"><ele>690.0</ele><time>2026-04-29T10:16:44Z</time></trkpt><trkpt lat="37.81187769901279" lon="14.705418200023141"><ele>690.0</ele><time>2026-04-29T10:16:45Z</time></trkpt><trkpt lat="37.81186447341881" lon="14.705233539303777"><ele>690.0</ele><time>2026-04-29T10:16:46Z</time></trkpt><trkpt lat="37.81184920413848" lon="14.705052790449198"><ele>690.0</ele><time>2026-04-29T10:16:47Z</time></trkpt><trkpt lat="37.81183013609005" lon="14.704853058830384"><ele>690.0</ele><time>2026-04-29T10:16:48Z</time></trkpt><trkpt lat="37.81181239298451" lon="14.704659866771904"><ele>690.3333333333334</ele><time>2026-04-29T10:16:49Z</time></trkpt><trkpt lat="37.811797503079724" lon="14.704461718170352"><ele>690.6666666666667</ele><time>2026-04-29T10:16:50Z</time></trkpt><trkpt lat="37.81177936079391" lon="14.704248661408018"><ele>691.0</ele><time>2026-04-29T10:16:51Z</time></trkpt><trkpt lat="37.811761490846855" lon="14.704032215643728"><ele>691.0</ele><time>2026-04-29T10:16:52Z</time></trkpt><trkpt lat="37.81173690838156" lon="14.703819424834835"><ele>691.0</ele><time>2026-04-29T10:16:53Z</time></trkpt><trkpt lat="37.811708902933894" lon="14.7036132902158"><ele>691.0</ele><time>2026-04-29T10:16:54Z</time></trkpt><trkpt lat="37.81168056476436" lon="14.703409434450895"><ele>691.0</ele><time>2026-04-29T10:16:55Z</time></trkpt><trkpt lat="37.81164777736789" lon="14.703209328124483"><ele>691.0</ele><time>2026-04-29T10:16:56Z</time></trkpt><trkpt lat="37.81161152375447" lon="14.703036788493094"><ele>691.0</ele><time>2026-04-29T10:16:57Z</time></trkpt><trkpt lat="37.81157319015231" lon="14.702895089309665"><ele>691.0</ele><time>2026-04-29T10:16:58Z</time></trkpt><trkpt lat="37.8115234913539" lon="14.702766425315938"><ele>691.6666666666667</ele><time>2026-04-29T10:16:59Z</time></trkpt><trkpt lat="37.81144763843964" lon="14.702616971307224"><ele>692.3333333333334</ele><time>2026-04-29T10:17:00Z</time></trkpt><trkpt lat="37.8113565571909" lon="14.702454433880174"><ele>693.0</ele><time>2026-04-29T10:17:01Z</time></trkpt><trkpt lat="37.81123298154392" lon="14.702290711474523"><ele>693.0</ele><time>2026-04-29T10:17:02Z</time></trkpt><trkpt lat="37.811123599244794" lon="14.70211961459824"><ele>693.0</ele><time>2026-04-29T10:17:03Z</time></trkpt><trkpt lat="37.81101805889382" lon="14.701954527330395"><ele>693.0</ele><time>2026-04-29T10:17:04Z</time></trkpt><trkpt lat="37.810922947125874" lon="14.701774579629777"><ele>692.6666666666666</ele><time>2026-04-29T10:17:05Z</time></trkpt><trkpt lat="37.81080965418479" lon="14.701617812476739"><ele>692.3333333333333</ele><time>2026-04-29T10:17:06Z</time></trkpt><trkpt lat="37.8107001459033" lon="14.701479361963125"><ele>692.0</ele><time>2026-04-29T10:17:07Z</time></trkpt><trkpt lat="37.81059126048191" lon="14.701354525651983"><ele>692.0</ele><time>2026-04-29T10:17:08Z</time></trkpt><trkpt lat="37.81046191596109" lon="14.701263703240857"><ele>692.0</ele><time>2026-04-29T10:17:09Z</time></trkpt><trkpt lat="37.81033494340503" lon="14.701158938082296"><ele>692.0</ele><time>2026-04-29T10:17:10Z</time></trkpt><trkpt lat="37.810198099991936" lon="14.701057261208199"><ele>692.3333333333333</ele><time>2026-04-29T10:17:11Z</time></trkpt><trkpt lat="37.81006351178317" lon="14.700961919811707"><ele>692.6666666666666</ele><time>2026-04-29T10:17:12Z</time></trkpt><trkpt lat="37.809923092356996" lon="14.700867369734882"><ele>693.0</ele><time>2026-04-29T10:17:13Z</time></trkpt><trkpt lat="37.80979044649441" lon="14.700761229663994"><ele>693.0</ele><time>2026-04-29T10:17:14Z</time></trkpt><trkpt lat="37.80964477063078" lon="14.70066668597026"><ele>693.0</ele><time>2026-04-29T10:17:15Z</time></trkpt><trkpt lat="37.809504639561204" lon="14.700567346309663"><ele>693.0</ele><time>2026-04-29T10:17:16Z</time></trkpt><trkpt lat="37.80936322073071" lon="14.700465506653593"><ele>693.6666666666666</ele><time>2026-04-29T10:17:17Z</time></trkpt><trkpt lat="37.809212741174505" lon="14.700362184474248"><ele>694.3333333333333</ele><time>2026-04-29T10:17:18Z</time></trkpt><trkpt lat="37.80905680881924" lon="14.700260824393373"><ele>695.0</ele><time>2026-04-29T10:17:19Z</time></trkpt><trkpt lat="37.80890093292131" lon="14.70016087805676"><ele>695.0</ele><time>2026-04-29T10:17:20Z</time></trkpt><trkpt lat="37.80875376832771" lon="14.700057074014438"><ele>695.0</ele><time>2026-04-29T10:17:21Z</time></trkpt><trkpt lat="37.808619661379645" lon="14.699952091741805"><ele>695.0</ele><time>2026-04-29T10:17:22Z</time></trkpt><trkpt lat="37.808498128413234" lon="14.699850491576615"><ele>695.0</ele><time>2026-04-29T10:17:23Z</time></trkpt><trkpt lat="37.80838568033516" lon="14.699742562899532"><ele>695.0</ele><time>2026-04-29T10:17:24Z</time></trkpt><trkpt lat="37.80827367354661" lon="14.699609292994992"><ele>695.0</ele><time>2026-04-29T10:17:25Z</time></trkpt><trkpt lat="37.80817026931035" lon="14.699459744473907"><ele>695.0</ele><time>2026-04-29T10:17:26Z</time></trkpt><trkpt lat="37.80807493731636" lon="14.699292622152198"><ele>695.0</ele><time>2026-04-29T10:17:27Z</time></trkpt><trkpt lat="37.80798230785239" lon="14.699116401794829"><ele>695.0</ele><time>2026-04-29T10:17:28Z</time></trkpt><trkpt lat="37.80788912013751" lon="14.698937844726107"><ele>695.0</ele><time>2026-04-29T10:17:29Z</time></trkpt><trkpt lat="37.80780082042897" lon="14.698784475156952"><ele>695.0</ele><time>2026-04-29T10:17:30Z</time></trkpt><trkpt lat="37.807729012527346" lon="14.698664602557848"><ele>695.0</ele><time>2026-04-29T10:17:31Z</time></trkpt><trkpt lat="37.8076767313327" lon="14.698564020160319"><ele>695.0</ele><time>2026-04-29T10:17:32Z</time></trkpt><trkpt lat="37.80762132609586" lon="14.698497980334459"><ele>695.0</ele><time>2026-04-29T10:17:33Z</time></trkpt><trkpt lat="37.80757448211401" lon="14.69841447585704"><ele>695.6</ele><time>2026-04-29T10:18:26Z</time></trkpt><trkpt lat="37.80750121576605" lon="14.698291114106528"><ele>696.2</ele><time>2026-04-29T10:18:28Z</time></trkpt><trkpt lat="37.80745543341484" lon="14.698211232530666"><ele>696.8</ele><time>2026-04-29T10:18:29Z</time></trkpt><trkpt lat="37.8073933951955" lon="14.698086345792412"><ele>697.4</ele><time>2026-04-29T10:18:30Z</time></trkpt><trkpt lat="37.807320350391215" lon="14.697953080185389"><ele>698.0</ele><time>2026-04-29T10:18:31Z</time></trkpt><trkpt lat="37.80724137586575" lon="14.697800301914368"><ele>699.25</ele><time>2026-04-29T10:18:32Z</time></trkpt><trkpt lat="37.807162388467376" lon="14.69764314159279"><ele>700.5</ele><time>2026-04-29T10:18:33Z</time></trkpt><trkpt lat="37.807092035821135" lon="14.69751316181615"><ele>701.75</ele><time>2026-04-29T10:18:34Z</time></trkpt><trkpt lat="37.80701902154353" lon="14.697390340396847"><ele>703.0</ele><time>2026-04-29T10:18:35Z</time></trkpt><trkpt lat="37.806942011658464" lon="14.697257906473906"><ele>703.0</ele><time>2026-04-29T10:18:36Z</time></trkpt><trkpt lat="37.806879729986505" lon="14.697124494245198"><ele>703.0</ele><time>2026-04-29T10:18:37Z</time></trkpt><trkpt lat="37.80681469834211" lon="14.697015164565865"><ele>703.0</ele><time>2026-04-29T10:18:38Z</time></trkpt><trkpt lat="37.80674255450133" lon="14.696888506761026"><ele>703.0</ele><time>2026-04-29T10:18:39Z</time></trkpt><trkpt lat="37.80668416510256" lon="14.696741789638018"><ele>702.4</ele><time>2026-04-29T10:18:40Z</time></trkpt><trkpt lat="37.80661993100427" lon="14.696627788101608"><ele>701.8</ele><time>2026-04-29T10:18:41Z</time></trkpt><trkpt lat="37.80656335564141" lon="14.696526292881689"><ele>701.2</ele><time>2026-04-29T10:18:42Z</time></trkpt><trkpt lat="37.80650347784357" lon="14.69640612935854"><ele>700.6</ele><time>2026-04-29T10:18:43Z</time></trkpt><trkpt lat="37.80643615577846" lon="14.696274186105725"><ele>700.0</ele><time>2026-04-29T10:18:44Z</time></trkpt><trkpt lat="37.80634978194207" lon="14.696121393497293"><ele>701.75</ele><time>2026-04-29T10:18:45Z</time></trkpt><trkpt lat="37.80626743984315" lon="14.695976198913204"><ele>703.5</ele><time>2026-04-29T10:18:46Z</time></trkpt><trkpt lat="37.80618091388897" lon="14.69583215512542"><ele>705.25</ele><time>2026-04-29T10:18:47Z</time></trkpt><trkpt lat="37.80609494003252" lon="14.695676759698332"><ele>707.0</ele><time>2026-04-29T10:18:48Z</time></trkpt><trkpt lat="37.80600595224863" lon="14.695507902234281"><ele>705.5</ele><time>2026-04-29T10:18:49Z</time></trkpt><trkpt lat="37.805915569896236" lon="14.695364461091879"><ele>704.0</ele><time>2026-04-29T10:18:50Z</time></trkpt><trkpt lat="37.805837376765275" lon="14.695223612349329"><ele>702.5</ele><time>2026-04-29T10:18:51Z</time></trkpt><trkpt lat="37.80575272136919" lon="14.69507165838034"><ele>701.0</ele><time>2026-04-29T10:18:52Z</time></trkpt><trkpt lat="37.80567604202334" lon="14.694913540966729"><ele>701.0</ele><time>2026-04-29T10:18:53Z</time></trkpt><trkpt lat="37.80561902648615" lon="14.694753945943457"><ele>701.0</ele><time>2026-04-29T10:18:54Z</time></trkpt><trkpt lat="37.805566404015565" lon="14.694646202167835"><ele>701.0</ele><time>2026-04-29T10:18:55Z</time></trkpt><trkpt lat="37.80553002328211" lon="14.694573609709915"><ele>701.0</ele><time>2026-04-29T10:18:56Z</time></trkpt><trkpt lat="37.80548667409506" lon="14.694489900103754"><ele>701.0</ele><time>2026-04-29T10:18:57Z</time></trkpt><trkpt lat="37.8054283439227" lon="14.69439638730382"><ele>701.0</ele><time>2026-04-29T10:18:58Z</time></trkpt><trkpt lat="37.805353182604556" lon="14.69433655167423"><ele>701.0</ele><time>2026-04-29T10:18:59Z</time></trkpt><trkpt lat="37.80528414226547" lon="14.694258073212124"><ele>701.0</ele><time>2026-04-29T10:19:00Z</time></trkpt><trkpt lat="37.80519925447519" lon="14.694159811993392"><ele>701.0</ele><time>2026-04-29T10:19:01Z</time></trkpt><trkpt lat="37.80511098616307" lon="14.69401301777597"><ele>701.0</ele><time>2026-04-29T10:19:02Z</time></trkpt><trkpt lat="37.80500761090033" lon="14.693891523379664"><ele>701.0</ele><time>2026-04-29T10:19:03Z</time></trkpt><trkpt lat="37.804903448632835" lon="14.693806411078901"><ele>701.0</ele><time>2026-04-29T10:19:04Z</time></trkpt><trkpt lat="37.804806568317474" lon="14.693730641307832"><ele>701.0</ele><time>2026-04-29T10:19:05Z</time></trkpt><trkpt lat="37.80470049969086" lon="14.693650266366067"><ele>701.0</ele><time>2026-04-29T10:19:06Z</time></trkpt><trkpt lat="37.8045769644118" lon="14.693561363954043"><ele>701.5</ele><time>2026-04-29T10:19:07Z</time></trkpt><trkpt lat="37.80446032872705" lon="14.693459907849624"><ele>702.0</ele><time>2026-04-29T10:19:08Z</time></trkpt><trkpt lat="37.80434259757396" lon="14.693389572197438"><ele>702.5</ele><time>2026-04-29T10:19:09Z</time></trkpt><trkpt lat="37.80423237803257" lon="14.693319131354237"><ele>703.0</ele><time>2026-04-29T10:19:10Z</time></trkpt><trkpt lat="37.8041051963568" lon="14.693233922328472"><ele>703.0</ele><time>2026-04-29T10:19:11Z</time></trkpt><trkpt lat="37.80396576278653" lon="14.693139301810353"><ele>703.0</ele><time>2026-04-29T10:19:12Z</time></trkpt><trkpt lat="37.80380854744167" lon="14.693041129338512"><ele>703.0</ele><time>2026-04-29T10:19:13Z</time></trkpt><trkpt lat="37.80363942835697" lon="14.692948852954862"><ele>703.0</ele><time>2026-04-29T10:19:14Z</time></trkpt><trkpt lat="37.80347906040986" lon="14.692863034705935"><ele>703.0</ele><time>2026-04-29T10:19:15Z</time></trkpt><trkpt lat="37.80333448761242" lon="14.69277520313528"><ele>703.0</ele><time>2026-04-29T10:19:16Z</time></trkpt><trkpt lat="37.80320850271296" lon="14.692680706099676"><ele>703.0</ele><time>2026-04-29T10:19:17Z</time></trkpt><trkpt lat="37.803091669212044" lon="14.692581677318378"><ele>703.0</ele><time>2026-04-29T10:19:18Z</time></trkpt><trkpt lat="37.80298369230364" lon="14.692486121293879"><ele>703.0</ele><time>2026-04-29T10:19:19Z</time></trkpt><trkpt lat="37.80287554584958" lon="14.692376876588696"><ele>703.0</ele><time>2026-04-29T10:19:20Z</time></trkpt><trkpt lat="37.802764551837264" lon="14.692246001113649"><ele>703.0</ele><time>2026-04-29T10:19:21Z</time></trkpt><trkpt lat="37.80265489096711" lon="14.692104879260139"><ele>703.0</ele><time>2026-04-29T10:19:22Z</time></trkpt><trkpt lat="37.802536427665814" lon="14.691946223022896"><ele>703.0</ele><time>2026-04-29T10:19:23Z</time></trkpt><trkpt lat="37.80240375051814" lon="14.691772495605811"><ele>703.3333333333334</ele><time>2026-04-29T10:19:24Z</time></trkpt><trkpt lat="37.80227376929176" lon="14.691600660063788"><ele>703.6666666666666</ele><time>2026-04-29T10:19:25Z</time></trkpt><trkpt lat="37.80215215046917" lon="14.69144126195769"><ele>704.0</ele><time>2026-04-29T10:19:26Z</time></trkpt><trkpt lat="37.80203752089847" lon="14.691287611857117"><ele>704.0</ele><time>2026-04-29T10:19:27Z</time></trkpt><trkpt lat="37.80192709294491" lon="14.691137141927523"><ele>704.0</ele><time>2026-04-29T10:19:28Z</time></trkpt><trkpt lat="37.80181833253074" lon="14.690996699143152"><ele>704.0</ele><time>2026-04-29T10:19:29Z</time></trkpt><trkpt lat="37.801705339444105" lon="14.690849215086589"><ele>704.6666666666666</ele><time>2026-04-29T10:19:30Z</time></trkpt><trkpt lat="37.80159122823954" lon="14.69069955416062"><ele>705.3333333333334</ele><time>2026-04-29T10:19:31Z</time></trkpt><trkpt lat="37.801472692250286" lon="14.690546943688707"><ele>706.0</ele><time>2026-04-29T10:19:32Z</time></trkpt><trkpt lat="37.80135745266914" lon="14.690394462441539"><ele>706.0</ele><time>2026-04-29T10:19:33Z</time></trkpt><trkpt lat="37.80124717195505" lon="14.690248458691874"><ele>706.0</ele><time>2026-04-29T10:19:34Z</time></trkpt><trkpt lat="37.801134826944974" lon="14.69009875810326"><ele>706.0</ele><time>2026-04-29T10:19:35Z</time></trkpt><trkpt lat="37.801025362960054" lon="14.689952467552992"><ele>706.3333333333334</ele><time>2026-04-29T10:19:36Z</time></trkpt><trkpt lat="37.800919470470035" lon="14.68980509590619"><ele>706.6666666666666</ele><time>2026-04-29T10:19:37Z</time></trkpt><trkpt lat="37.80081100962033" lon="14.68966319370388"><ele>707.0</ele><time>2026-04-29T10:19:38Z</time></trkpt><trkpt lat="37.80070298399035" lon="14.689527381600278"><ele>707.3333333333333</ele><time>2026-04-29T10:19:39Z</time></trkpt><trkpt lat="37.80060168165531" lon="14.689396277976229"><ele>707.6666666666666</ele><time>2026-04-29T10:19:40Z</time></trkpt><trkpt lat="37.80049714522355" lon="14.689247478674703"><ele>708.0</ele><time>2026-04-29T10:19:41Z</time></trkpt><trkpt lat="37.80038289137887" lon="14.689099651399305"><ele>708.0</ele><time>2026-04-29T10:19:42Z</time></trkpt><trkpt lat="37.800269475406786" lon="14.688954004899413"><ele>708.0</ele><time>2026-04-29T10:19:43Z</time></trkpt><trkpt lat="37.80016635336175" lon="14.68881282548938"><ele>708.0</ele><time>2026-04-29T10:19:44Z</time></trkpt><trkpt lat="37.80007115047433" lon="14.688680712354877"><ele>708.5</ele><time>2026-04-29T10:19:45Z</time></trkpt><trkpt lat="37.79997015838311" lon="14.688553632894212"><ele>709.0</ele><time>2026-04-29T10:19:46Z</time></trkpt><trkpt lat="37.79986737243082" lon="14.68843490294601"><ele>709.5</ele><time>2026-04-29T10:19:47Z</time></trkpt><trkpt lat="37.79976720949555" lon="14.688321088265083"><ele>710.0</ele><time>2026-04-29T10:19:48Z</time></trkpt><trkpt lat="37.79966321678148" lon="14.688197682260887"><ele>710.0</ele><time>2026-04-29T10:19:49Z</time></trkpt><trkpt lat="37.79955656227298" lon="14.68807745701306"><ele>710.0</ele><time>2026-04-29T10:19:50Z</time></trkpt><trkpt lat="37.79943190769387" lon="14.687941068647193"><ele>710.0</ele><time>2026-04-29T10:19:51Z</time></trkpt><trkpt lat="37.7992937757068" lon="14.687809541735355"><ele>711.0</ele><time>2026-04-29T10:19:52Z</time></trkpt><trkpt lat="37.79915352336001" lon="14.687673834174905"><ele>712.0</ele><time>2026-04-29T10:19:53Z</time></trkpt><trkpt lat="37.79900677779166" lon="14.687540846966767"><ele>713.0</ele><time>2026-04-29T10:19:54Z</time></trkpt><trkpt lat="37.79887104036539" lon="14.687421839954856"><ele>713.0</ele><time>2026-04-29T10:19:55Z</time></trkpt><trkpt lat="37.79873368539679" lon="14.687296138079317"><ele>713.0</ele><time>2026-04-29T10:19:56Z</time></trkpt><trkpt lat="37.79860401516188" lon="14.687169907257285"><ele>713.0</ele><time>2026-04-29T10:19:57Z</time></trkpt><trkpt lat="37.79847362999875" lon="14.687044380234692"><ele>711.6666666666666</ele><time>2026-04-29T10:19:58Z</time></trkpt><trkpt lat="37.79834230427635" lon="14.686921520798148"><ele>710.3333333333334</ele><time>2026-04-29T10:19:59Z</time></trkpt><trkpt lat="37.79820991363226" lon="14.686800364220325"><ele>709.0</ele><time>2026-04-29T10:20:00Z</time></trkpt><trkpt lat="37.79808362512767" lon="14.686673923771362"><ele>709.0</ele><time>2026-04-29T10:20:01Z</time></trkpt><trkpt lat="37.79795220985138" lon="14.686545182056166"><ele>709.0</ele><time>2026-04-29T10:20:02Z</time></trkpt><trkpt lat="37.79781739461025" lon="14.686417757460212"><ele>709.0</ele><time>2026-04-29T10:20:03Z</time></trkpt><trkpt lat="37.797681617331875" lon="14.686290601558772"><ele>708.6666666666667</ele><time>2026-04-29T10:20:04Z</time></trkpt><trkpt lat="37.797550966317765" lon="14.686161382507542"><ele>708.3333333333334</ele><time>2026-04-29T10:20:05Z</time></trkpt><trkpt lat="37.79742176012282" lon="14.68604022822931"><ele>708.0</ele><time>2026-04-29T10:20:06Z</time></trkpt><trkpt lat="37.79729422798934" lon="14.685922736701766"><ele>708.5</ele><time>2026-04-29T10:20:07Z</time></trkpt><trkpt lat="37.797172077203" lon="14.68581849884136"><ele>709.0</ele><time>2026-04-29T10:20:08Z</time></trkpt><trkpt lat="37.797063612789366" lon="14.685708446168197"><ele>709.5</ele><time>2026-04-29T10:20:09Z</time></trkpt><trkpt lat="37.79695492207435" lon="14.685580237225375"><ele>710.0</ele><time>2026-04-29T10:20:10Z</time></trkpt><trkpt lat="37.79684413428816" lon="14.685444553508784"><ele>710.3333333333333</ele><time>2026-04-29T10:20:11Z</time></trkpt><trkpt lat="37.79673650371182" lon="14.685295681509944"><ele>710.6666666666666</ele><time>2026-04-29T10:20:12Z</time></trkpt><trkpt lat="37.79662920571746" lon="14.685137000669796"><ele>711.0</ele><time>2026-04-29T10:20:13Z</time></trkpt><trkpt lat="37.79652463151642" lon="14.684982808337887"><ele>711.0</ele><time>2026-04-29T10:20:14Z</time></trkpt><trkpt lat="37.796423088236835" lon="14.684820579915185"><ele>711.0</ele><time>2026-04-29T10:20:15Z</time></trkpt><trkpt lat="37.79632977289571" lon="14.684648889649935"><ele>711.0</ele><time>2026-04-29T10:20:16Z</time></trkpt><trkpt lat="37.79624711529254" lon="14.684472759426946"><ele>711.3333333333334</ele><time>2026-04-29T10:20:17Z</time></trkpt><trkpt lat="37.796167024478095" lon="14.684299195449809"><ele>711.6666666666667</ele><time>2026-04-29T10:20:18Z</time></trkpt><trkpt lat="37.79608620711872" lon="14.684127043676133"><ele>712.0</ele><time>2026-04-29T10:20:19Z</time></trkpt><trkpt lat="37.796010280494755" lon="14.683967297826706"><ele>711.6666666666667</ele><time>2026-04-29T10:20:20Z</time></trkpt><trkpt lat="37.795934958546226" lon="14.683806770926957"><ele>711.3333333333334</ele><time>2026-04-29T10:20:21Z</time></trkpt><trkpt lat="37.7958546615091" lon="14.68363547344569"><ele>711.0</ele><time>2026-04-29T10:20:22Z</time></trkpt><trkpt lat="37.79577319239362" lon="14.683466833201477"><ele>711.5</ele><time>2026-04-29T10:20:23Z</time></trkpt><trkpt lat="37.79569478062157" lon="14.68331776535072"><ele>712.0</ele><time>2026-04-29T10:20:24Z</time></trkpt><trkpt lat="37.795622157211874" lon="14.683184473838757"><ele>712.5</ele><time>2026-04-29T10:20:25Z</time></trkpt><trkpt lat="37.79556044752859" lon="14.683055832658964"><ele>713.0</ele><time>2026-04-29T10:20:26Z</time></trkpt><trkpt lat="37.79550733456155" lon="14.682929492458243"><ele>713.0</ele><time>2026-04-29T10:20:27Z</time></trkpt><trkpt lat="37.795466947148306" lon="14.682800903055078"><ele>713.0</ele><time>2026-04-29T10:20:28Z</time></trkpt><trkpt lat="37.795442160176336" lon="14.682663362601492"><ele>713.0</ele><time>2026-04-29T10:20:29Z</time></trkpt><trkpt lat="37.79542259889034" lon="14.682519615394662"><ele>713.0</ele><time>2026-04-29T10:20:30Z</time></trkpt><trkpt lat="37.79541180827209" lon="14.682376671647667"><ele>713.5</ele><time>2026-04-29T10:20:31Z</time></trkpt><trkpt lat="37.79541684903987" lon="14.68221902610844"><ele>714.0</ele><time>2026-04-29T10:20:32Z</time></trkpt><trkpt lat="37.795434904049486" lon="14.682040396127762"><ele>714.5</ele><time>2026-04-29T10:20:33Z</time></trkpt><trkpt lat="37.79546516664872" lon="14.681849054122887"><ele>715.0</ele><time>2026-04-29T10:20:34Z</time></trkpt><trkpt lat="37.79549633533771" lon="14.68165362727865"><ele>715.6666666666667</ele><time>2026-04-29T10:20:35Z</time></trkpt><trkpt lat="37.79553839778269" lon="14.681451538249062"><ele>716.3333333333334</ele><time>2026-04-29T10:20:36Z</time></trkpt><trkpt lat="37.79558108391647" lon="14.681241489872491"><ele>717.0</ele><time>2026-04-29T10:20:37Z</time></trkpt><trkpt lat="37.795616104455625" lon="14.68104766307049"><ele>717.3333333333334</ele><time>2026-04-29T10:20:38Z</time></trkpt><trkpt lat="37.79565409812483" lon="14.680844013655165"><ele>717.6666666666667</ele><time>2026-04-29T10:20:39Z</time></trkpt><trkpt lat="37.795688820842265" lon="14.680635339240208"><ele>718.0</ele><time>2026-04-29T10:20:40Z</time></trkpt><trkpt lat="37.795724117018395" lon="14.680422619725869"><ele>718.3333333333334</ele><time>2026-04-29T10:20:41Z</time></trkpt><trkpt lat="37.795761674009896" lon="14.68022366401595"><ele>718.6666666666666</ele><time>2026-04-29T10:20:42Z</time></trkpt><trkpt lat="37.795789997164384" lon="14.680041589543547"><ele>719.0</ele><time>2026-04-29T10:20:43Z</time></trkpt><trkpt lat="37.79582101922232" lon="14.679849644547854"><ele>719.0</ele><time>2026-04-29T10:20:44Z</time></trkpt><trkpt lat="37.795851892221094" lon="14.679648327272316"><ele>719.0</ele><time>2026-04-29T10:20:45Z</time></trkpt><trkpt lat="37.79588228995694" lon="14.679461227234382"><ele>719.0</ele><time>2026-04-29T10:20:46Z</time></trkpt><trkpt lat="37.795907427340175" lon="14.679296364680054"><ele>719.0</ele><time>2026-04-29T10:20:47Z</time></trkpt><trkpt lat="37.79593160522689" lon="14.67914033499647"><ele>719.4000000000001</ele><time>2026-04-29T10:20:48Z</time></trkpt><trkpt lat="37.79596339396127" lon="14.679005912555617"><ele>719.8</ele><time>2026-04-29T10:20:49Z</time></trkpt><trkpt lat="37.796010926813864" lon="14.678884512197625"><ele>720.2</ele><time>2026-04-29T10:20:50Z</time></trkpt><trkpt lat="37.79606356089378" lon="14.678784679309056"><ele>720.5999999999999</ele><time>2026-04-29T10:20:51Z</time></trkpt><trkpt lat="37.7961309106267" lon="14.678758038295358"><ele>721.0</ele><time>2026-04-29T10:20:52Z</time></trkpt><trkpt lat="37.796191190138714" lon="14.678716264487532"><ele>721.0</ele><time>2026-04-29T10:20:54Z</time></trkpt><trkpt lat="37.79611255881754" lon="14.678518432743196"><ele>721.0</ele><time>2026-04-29T10:20:56Z</time></trkpt><trkpt lat="37.79610645060358" lon="14.678428351633247"><ele>721.0</ele><time>2026-04-29T10:20:57Z</time></trkpt><trkpt lat="37.79606277041803" lon="14.678330971836033"><ele>721.0</ele><time>2026-04-29T10:20:59Z</time></trkpt><trkpt lat="37.79599953781131" lon="14.67830036426924"><ele>721.0</ele><time>2026-04-29T10:21:08Z</time></trkpt><trkpt lat="37.79592677197353" lon="14.67828851512919"><ele>721.0</ele><time>2026-04-29T10:21:17Z</time></trkpt><trkpt lat="37.79585898788445" lon="14.678227173346524"><ele>721.0</ele><time>2026-04-29T10:21:23Z</time></trkpt><trkpt lat="37.79581972122669" lon="14.678076974143622"><ele>721.0</ele><time>2026-04-29T10:21:25Z</time></trkpt><trkpt lat="37.79580378216487" lon="14.67795271413908"><ele>721.0</ele><time>2026-04-29T10:21:26Z</time></trkpt><trkpt lat="37.79578222860188" lon="14.677809417350035"><ele>721.0</ele><time>2026-04-29T10:21:27Z</time></trkpt><trkpt lat="37.795757031472014" lon="14.677650680362081"><ele>721.0</ele><time>2026-04-29T10:21:28Z</time></trkpt><trkpt lat="37.79572686235331" lon="14.677462654092864"><ele>721.0</ele><time>2026-04-29T10:21:29Z</time></trkpt><trkpt lat="37.79570606789393" lon="14.677300342033766"><ele>721.0</ele><time>2026-04-29T10:21:30Z</time></trkpt><trkpt lat="37.79568947169347" lon="14.677115017220643"><ele>721.0</ele><time>2026-04-29T10:21:31Z</time></trkpt><trkpt lat="37.795685090143756" lon="14.67694084758407"><ele>721.0</ele><time>2026-04-29T10:21:32Z</time></trkpt><trkpt lat="37.79567565959542" lon="14.676772657585955"><ele>721.0</ele><time>2026-04-29T10:21:33Z</time></trkpt><trkpt lat="37.795671457637425" lon="14.676586509087365"><ele>721.0</ele><time>2026-04-29T10:21:34Z</time></trkpt><trkpt lat="37.79566885320566" lon="14.676399760534245"><ele>721.0</ele><time>2026-04-29T10:21:35Z</time></trkpt><trkpt lat="37.7956680179981" lon="14.676203702430486"><ele>720.75</ele><time>2026-04-29T10:21:36Z</time></trkpt><trkpt lat="37.79567181305306" lon="14.676028788317824"><ele>720.5</ele><time>2026-04-29T10:21:37Z</time></trkpt><trkpt lat="37.79567437020897" lon="14.67585915158814"><ele>720.25</ele><time>2026-04-29T10:21:38Z</time></trkpt><trkpt lat="37.795668837711055" lon="14.675690308285214"><ele>720.0</ele><time>2026-04-29T10:21:39Z</time></trkpt><trkpt lat="37.795664487487635" lon="14.675529260781165"><ele>720.0</ele><time>2026-04-29T10:21:40Z</time></trkpt><trkpt lat="37.79567302696143" lon="14.675361704510891"><ele>720.0</ele><time>2026-04-29T10:21:41Z</time></trkpt><trkpt lat="37.795700683209915" lon="14.675184564946292"><ele>720.0</ele><time>2026-04-29T10:21:42Z</time></trkpt><trkpt lat="37.79574138954874" lon="14.675008867863188"><ele>720.0</ele><time>2026-04-29T10:21:43Z</time></trkpt><trkpt lat="37.795797244645335" lon="14.674830375697884"><ele>720.3333333333334</ele><time>2026-04-29T10:21:44Z</time></trkpt><trkpt lat="37.79586160027613" lon="14.674620391407524"><ele>720.6666666666667</ele><time>2026-04-29T10:21:45Z</time></trkpt><trkpt lat="37.795924800666725" lon="14.674396130476152"><ele>721.0</ele><time>2026-04-29T10:21:46Z</time></trkpt><trkpt lat="37.79598737790123" lon="14.674185573905907"><ele>722.0</ele><time>2026-04-29T10:21:47Z</time></trkpt><trkpt lat="37.79603889199599" lon="14.673998596104887"><ele>723.0</ele><time>2026-04-29T10:21:48Z</time></trkpt><trkpt lat="37.796090193138006" lon="14.67382423300959"><ele>724.0</ele><time>2026-04-29T10:21:49Z</time></trkpt><trkpt lat="37.79614124962995" lon="14.673663408349592"><ele>725.0</ele><time>2026-04-29T10:21:50Z</time></trkpt><trkpt lat="37.79620714574707" lon="14.673525342810107"><ele>725.0</ele><time>2026-04-29T10:21:51Z</time></trkpt><trkpt lat="37.79630908235325" lon="14.673375830708244"><ele>725.0</ele><time>2026-04-29T10:21:52Z</time></trkpt><trkpt lat="37.79641763670866" lon="14.673231963565232"><ele>725.0</ele><time>2026-04-29T10:21:53Z</time></trkpt><trkpt lat="37.796519349224255" lon="14.673115085932967"><ele>725.0</ele><time>2026-04-29T10:21:54Z</time></trkpt><trkpt lat="37.79663399356597" lon="14.673028049367213"><ele>725.0</ele><time>2026-04-29T10:21:55Z</time></trkpt><trkpt lat="37.79677906105987" lon="14.6729654556489"><ele>725.0</ele><time>2026-04-29T10:21:56Z</time></trkpt><trkpt lat="37.79693642199988" lon="14.67286656465698"><ele>724.6666666666666</ele><time>2026-04-29T10:21:57Z</time></trkpt><trkpt lat="37.79710019662839" lon="14.672782105402133"><ele>724.3333333333334</ele><time>2026-04-29T10:21:58Z</time></trkpt><trkpt lat="37.79725749693285" lon="14.672708226274567"><ele>724.0</ele><time>2026-04-29T10:21:59Z</time></trkpt><trkpt lat="37.79741163264899" lon="14.67262578579927"><ele>724.0</ele><time>2026-04-29T10:22:00Z</time></trkpt><trkpt lat="37.79756328689564" lon="14.672530672778246"><ele>724.0</ele><time>2026-04-29T10:22:01Z</time></trkpt><trkpt lat="37.79770579534682" lon="14.67244721662354"><ele>724.0</ele><time>2026-04-29T10:22:02Z</time></trkpt><trkpt lat="37.79782509865722" lon="14.672368136755146"><ele>724.5</ele><time>2026-04-29T10:22:03Z</time></trkpt><trkpt lat="37.79793102598745" lon="14.67229321636663"><ele>725.0</ele><time>2026-04-29T10:22:04Z</time></trkpt><trkpt lat="37.79804652004587" lon="14.672199528208186"><ele>725.5</ele><time>2026-04-29T10:22:05Z</time></trkpt><trkpt lat="37.79816876099205" lon="14.672088814325162"><ele>726.0</ele><time>2026-04-29T10:22:06Z</time></trkpt><trkpt lat="37.798279328951466" lon="14.67197908089941"><ele>726.25</ele><time>2026-04-29T10:22:07Z</time></trkpt><trkpt lat="37.79838290261792" lon="14.67186117948468"><ele>726.5</ele><time>2026-04-29T10:22:08Z</time></trkpt><trkpt lat="37.79848072990256" lon="14.671734676098396"><ele>726.75</ele><time>2026-04-29T10:22:09Z</time></trkpt><trkpt lat="37.79857290526511" lon="14.67158532498418"><ele>727.0</ele><time>2026-04-29T10:22:10Z</time></trkpt><trkpt lat="37.79867222231875" lon="14.67142697030659"><ele>729.3333333333334</ele><time>2026-04-29T10:22:11Z</time></trkpt><trkpt lat="37.79877721055162" lon="14.67126410587812"><ele>731.6666666666666</ele><time>2026-04-29T10:22:12Z</time></trkpt><trkpt lat="37.79886586690928" lon="14.671103977601918"><ele>734.0</ele><time>2026-04-29T10:22:13Z</time></trkpt><trkpt lat="37.79893913911962" lon="14.67093639475387"><ele>734.0</ele><time>2026-04-29T10:22:14Z</time></trkpt><trkpt lat="37.79901680194785" lon="14.670744136677795"><ele>734.0</ele><time>2026-04-29T10:22:15Z</time></trkpt><trkpt lat="37.79909540236214" lon="14.670549179730632"><ele>734.0</ele><time>2026-04-29T10:22:16Z</time></trkpt><trkpt lat="37.799161760715904" lon="14.670356048309129"><ele>733.6666666666666</ele><time>2026-04-29T10:22:17Z</time></trkpt><trkpt lat="37.799222235628086" lon="14.670158549628397"><ele>733.3333333333334</ele><time>2026-04-29T10:22:18Z</time></trkpt><trkpt lat="37.79927299995005" lon="14.669970572871181"><ele>733.0</ele><time>2026-04-29T10:22:19Z</time></trkpt><trkpt lat="37.79931481877632" lon="14.669793332355452"><ele>737.6666666666667</ele><time>2026-04-29T10:22:20Z</time></trkpt><trkpt lat="37.79935175750974" lon="14.669601255166913"><ele>742.3333333333334</ele><time>2026-04-29T10:22:21Z</time></trkpt><trkpt lat="37.79938148539713" lon="14.669401859107841"><ele>747.0</ele><time>2026-04-29T10:22:22Z</time></trkpt><trkpt lat="37.7994107566853" lon="14.669194491078187"><ele>747.0</ele><time>2026-04-29T10:22:23Z</time></trkpt><trkpt lat="37.7994122313207" lon="14.66900774584306"><ele>747.0</ele><time>2026-04-29T10:22:24Z</time></trkpt><trkpt lat="37.79943418714742" lon="14.668822569405648"><ele>747.0</ele><time>2026-04-29T10:22:25Z</time></trkpt><trkpt lat="37.79944226474182" lon="14.668648301686957"><ele>747.0</ele><time>2026-04-29T10:22:26Z</time></trkpt><trkpt lat="37.79944640343832" lon="14.66848313453849"><ele>744.0</ele><time>2026-04-29T10:22:27Z</time></trkpt><trkpt lat="37.79944966036858" lon="14.668321854983905"><ele>741.0</ele><time>2026-04-29T10:22:28Z</time></trkpt><trkpt lat="37.799464158242465" lon="14.668140583585192"><ele>738.0</ele><time>2026-04-29T10:22:29Z</time></trkpt><trkpt lat="37.799469215377705" lon="14.667954650883281"><ele>735.0</ele><time>2026-04-29T10:22:30Z</time></trkpt><trkpt lat="37.79948054950621" lon="14.667753256744204"><ele>734.0</ele><time>2026-04-29T10:22:31Z</time></trkpt><trkpt lat="37.79948659742759" lon="14.667555422244863"><ele>733.0</ele><time>2026-04-29T10:22:32Z</time></trkpt><trkpt lat="37.79949051537967" lon="14.667367314505771"><ele>732.0</ele><time>2026-04-29T10:22:33Z</time></trkpt><trkpt lat="37.79948586961052" lon="14.667182805117315"><ele>732.0</ele><time>2026-04-29T10:22:34Z</time></trkpt><trkpt lat="37.799494271688324" lon="14.666990611704225"><ele>732.0</ele><time>2026-04-29T10:22:35Z</time></trkpt><trkpt lat="37.79950602702555" lon="14.666793294403286"><ele>732.0</ele><time>2026-04-29T10:22:36Z</time></trkpt><trkpt lat="37.799517751094236" lon="14.666596503829982"><ele>732.3333333333334</ele><time>2026-04-29T10:22:37Z</time></trkpt><trkpt lat="37.799529429090896" lon="14.666400487157189"><ele>732.6666666666667</ele><time>2026-04-29T10:22:38Z</time></trkpt><trkpt lat="37.79954024541132" lon="14.666218933835255"><ele>733.0</ele><time>2026-04-29T10:22:39Z</time></trkpt><trkpt lat="37.799624304413065" lon="14.666052371796846"><ele>733.0</ele><time>2026-04-29T10:22:40Z</time></trkpt><trkpt lat="37.79966173466473" lon="14.665883594146491"><ele>733.0</ele><time>2026-04-29T10:22:41Z</time></trkpt><trkpt lat="37.79969766088703" lon="14.665712508420022"><ele>733.0</ele><time>2026-04-29T10:22:42Z</time></trkpt><trkpt lat="37.799747450124585" lon="14.665526850824302"><ele>733.0</ele><time>2026-04-29T10:22:43Z</time></trkpt><trkpt lat="37.79980949523621" lon="14.665324948499151"><ele>732.6666666666667</ele><time>2026-04-29T10:22:44Z</time></trkpt><trkpt lat="37.799871372199135" lon="14.665102325095232"><ele>732.3333333333334</ele><time>2026-04-29T10:22:45Z</time></trkpt><trkpt lat="37.79992532668068" lon="14.664873784748375"><ele>732.0</ele><time>2026-04-29T10:22:46Z</time></trkpt><trkpt lat="37.799988364394416" lon="14.664665169256985"><ele>732.0</ele><time>2026-04-29T10:22:47Z</time></trkpt><trkpt lat="37.80004770753529" lon="14.664457622700494"><ele>732.0</ele><time>2026-04-29T10:22:48Z</time></trkpt><trkpt lat="37.80009447637625" lon="14.664265632693143"><ele>732.0</ele><time>2026-04-29T10:22:49Z</time></trkpt><trkpt lat="37.800141241230705" lon="14.664076351487063"><ele>731.6666666666666</ele><time>2026-04-29T10:22:50Z</time></trkpt><trkpt lat="37.800195847413555" lon="14.663878106927639"><ele>731.3333333333333</ele><time>2026-04-29T10:22:51Z</time></trkpt><trkpt lat="37.80025082381489" lon="14.66369766995058"><ele>731.0</ele><time>2026-04-29T10:22:52Z</time></trkpt><trkpt lat="37.80029877752118" lon="14.663521271042095"><ele>731.5</ele><time>2026-04-29T10:22:53Z</time></trkpt><trkpt lat="37.800341535199706" lon="14.663343884442336"><ele>732.0</ele><time>2026-04-29T10:22:54Z</time></trkpt><trkpt lat="37.800383813652054" lon="14.66317568635241"><ele>732.5</ele><time>2026-04-29T10:22:55Z</time></trkpt><trkpt lat="37.80042979448889" lon="14.662994396419709"><ele>733.0</ele><time>2026-04-29T10:22:56Z</time></trkpt><trkpt lat="37.80048485456451" lon="14.662810921967568"><ele>733.3333333333334</ele><time>2026-04-29T10:22:57Z</time></trkpt><trkpt lat="37.800543986287124" lon="14.662627816062258"><ele>733.6666666666666</ele><time>2026-04-29T10:22:58Z</time></trkpt><trkpt lat="37.80060790215118" lon="14.662449647197716"><ele>734.0</ele><time>2026-04-29T10:22:59Z</time></trkpt><trkpt lat="37.800668032617125" lon="14.662282122591376"><ele>734.0</ele><time>2026-04-29T10:23:00Z</time></trkpt><trkpt lat="37.800721535832" lon="14.662113411919764"><ele>734.0</ele><time>2026-04-29T10:23:01Z</time></trkpt><trkpt lat="37.800768758936265" lon="14.661942145194034"><ele>734.0</ele><time>2026-04-29T10:23:02Z</time></trkpt><trkpt lat="37.80081331035476" lon="14.661766598527091"><ele>734.0</ele><time>2026-04-29T10:23:03Z</time></trkpt><trkpt lat="37.80086095785243" lon="14.661591798565686"><ele>733.3333333333333</ele><time>2026-04-29T10:23:04Z</time></trkpt><trkpt lat="37.80092493924568" lon="14.661398134036768"><ele>732.6666666666666</ele><time>2026-04-29T10:23:05Z</time></trkpt><trkpt lat="37.800985330746805" lon="14.66121719255604"><ele>732.0</ele><time>2026-04-29T10:23:06Z</time></trkpt><trkpt lat="37.80104032427638" lon="14.661043134106176"><ele>733.0</ele><time>2026-04-29T10:23:07Z</time></trkpt><trkpt lat="37.801091955393694" lon="14.66087050650161"><ele>734.0</ele><time>2026-04-29T10:23:08Z</time></trkpt><trkpt lat="37.8011454148884" lon="14.660695415579726"><ele>735.0</ele><time>2026-04-29T10:23:09Z</time></trkpt><trkpt lat="37.801194055560245" lon="14.6605253337037"><ele>736.0</ele><time>2026-04-29T10:23:10Z</time></trkpt><trkpt lat="37.80124517028679" lon="14.660349157023893"><ele>736.25</ele><time>2026-04-29T10:23:11Z</time></trkpt><trkpt lat="37.80130046231483" lon="14.660174967876623"><ele>736.5</ele><time>2026-04-29T10:23:12Z</time></trkpt><trkpt lat="37.801353780435264" lon="14.659998496176605"><ele>736.75</ele><time>2026-04-29T10:23:13Z</time></trkpt><trkpt lat="37.80141764166351" lon="14.659834804144522"><ele>737.0</ele><time>2026-04-29T10:23:14Z</time></trkpt><trkpt lat="37.801492929674" lon="14.65967523746958"><ele>737.0</ele><time>2026-04-29T10:23:15Z</time></trkpt><trkpt lat="37.80157456295458" lon="14.659523488890377"><ele>737.0</ele><time>2026-04-29T10:23:16Z</time></trkpt><trkpt lat="37.80166799803424" lon="14.659359919138362"><ele>737.0</ele><time>2026-04-29T10:23:17Z</time></trkpt><trkpt lat="37.801780426434" lon="14.659186874777477"><ele>736.6666666666666</ele><time>2026-04-29T10:23:18Z</time></trkpt><trkpt lat="37.80189161044412" lon="14.659023822485711"><ele>736.3333333333334</ele><time>2026-04-29T10:23:19Z</time></trkpt><trkpt lat="37.80200172357678" lon="14.658843343934446"><ele>736.0</ele><time>2026-04-29T10:23:20Z</time></trkpt><trkpt lat="37.80210125634163" lon="14.658667852463488"><ele>736.3333333333334</ele><time>2026-04-29T10:23:21Z</time></trkpt><trkpt lat="37.80219928935143" lon="14.658495605942687"><ele>736.6666666666666</ele><time>2026-04-29T10:23:22Z</time></trkpt><trkpt lat="37.8022991455813" lon="14.658322820619729"><ele>737.0</ele><time>2026-04-29T10:23:23Z</time></trkpt><trkpt lat="37.80239359780143" lon="14.658157732946222"><ele>737.0</ele><time>2026-04-29T10:23:24Z</time></trkpt><trkpt lat="37.802494820893074" lon="14.65799768180936"><ele>737.0</ele><time>2026-04-29T10:23:25Z</time></trkpt><trkpt lat="37.802605522344074" lon="14.65782742050933"><ele>737.0</ele><time>2026-04-29T10:23:26Z</time></trkpt><trkpt lat="37.802711035401146" lon="14.657658817554303"><ele>737.0</ele><time>2026-04-29T10:23:27Z</time></trkpt><trkpt lat="37.802812055436966" lon="14.657479078066846"><ele>737.0</ele><time>2026-04-29T10:23:28Z</time></trkpt><trkpt lat="37.802911191922135" lon="14.657300595645575"><ele>737.0</ele><time>2026-04-29T10:23:29Z</time></trkpt><trkpt lat="37.80301535905801" lon="14.65712470674556"><ele>737.0</ele><time>2026-04-29T10:23:30Z</time></trkpt><trkpt lat="37.80311613039816" lon="14.65696076327703"><ele>737.0</ele><time>2026-04-29T10:23:31Z</time></trkpt><trkpt lat="37.803217650371465" lon="14.656811451589602"><ele>737.0</ele><time>2026-04-29T10:23:32Z</time></trkpt><trkpt lat="37.80331702348437" lon="14.656667429036867"><ele>737.0</ele><time>2026-04-29T10:23:33Z</time></trkpt><trkpt lat="37.80341532104279" lon="14.656529207848989"><ele>737.0</ele><time>2026-04-29T10:23:34Z</time></trkpt><trkpt lat="37.80352588231059" lon="14.6563811353992"><ele>737.0</ele><time>2026-04-29T10:23:35Z</time></trkpt><trkpt lat="37.803641234869765" lon="14.65623485279716"><ele>737.3333333333333</ele><time>2026-04-29T10:23:36Z</time></trkpt><trkpt lat="37.80376569570205" lon="14.656078813699919"><ele>737.6666666666666</ele><time>2026-04-29T10:23:37Z</time></trkpt><trkpt lat="37.80388029006796" lon="14.65593796978114"><ele>738.0</ele><time>2026-04-29T10:23:38Z</time></trkpt><trkpt lat="37.80398567632602" lon="14.655799624589568"><ele>738.0</ele><time>2026-04-29T10:23:39Z</time></trkpt><trkpt lat="37.80408352197194" lon="14.65566551028013"><ele>738.0</ele><time>2026-04-29T10:23:40Z</time></trkpt><trkpt lat="37.804173720941044" lon="14.655531035839811"><ele>738.0</ele><time>2026-04-29T10:23:41Z</time></trkpt><trkpt lat="37.80425936492254" lon="14.655395815255353"><ele>738.0</ele><time>2026-04-29T10:23:42Z</time></trkpt><trkpt lat="37.80434688166961" lon="14.655252807308772"><ele>739.3333333333334</ele><time>2026-04-29T10:23:43Z</time></trkpt><trkpt lat="37.80443069968499" lon="14.655096859998809"><ele>740.6666666666667</ele><time>2026-04-29T10:23:44Z</time></trkpt><trkpt lat="37.804508878117375" lon="14.654927315902864"><ele>742.0</ele><time>2026-04-29T10:23:45Z</time></trkpt><trkpt lat="37.80457791094326" lon="14.654757599444489"><ele>742.0</ele><time>2026-04-29T10:23:46Z</time></trkpt><trkpt lat="37.80463141837037" lon="14.654600320674772"><ele>742.0</ele><time>2026-04-29T10:23:47Z</time></trkpt><trkpt lat="37.80467161334866" lon="14.654441454316446"><ele>742.0</ele><time>2026-04-29T10:23:48Z</time></trkpt><trkpt lat="37.804707724266756" lon="14.65425993897274"><ele>742.0</ele><time>2026-04-29T10:23:49Z</time></trkpt><trkpt lat="37.80473436962634" lon="14.654056068794953"><ele>742.0</ele><time>2026-04-29T10:23:50Z</time></trkpt><trkpt lat="37.80474848369104" lon="14.653846858688166"><ele>742.0</ele><time>2026-04-29T10:23:51Z</time></trkpt><trkpt lat="37.80475536714501" lon="14.653640653700817"><ele>742.0</ele><time>2026-04-29T10:23:52Z</time></trkpt><trkpt lat="37.804754545207956" lon="14.653435198838553"><ele>742.0</ele><time>2026-04-29T10:23:53Z</time></trkpt><trkpt lat="37.8047458349708" lon="14.653239622781925"><ele>742.0</ele><time>2026-04-29T10:23:54Z</time></trkpt><trkpt lat="37.80474087104356" lon="14.65303720304057"><ele>742.0</ele><time>2026-04-29T10:23:55Z</time></trkpt><trkpt lat="37.80473425586182" lon="14.652830274302449"><ele>742.3333333333334</ele><time>2026-04-29T10:23:56Z</time></trkpt><trkpt lat="37.80472649186602" lon="14.652618127437307"><ele>742.6666666666666</ele><time>2026-04-29T10:23:57Z</time></trkpt><trkpt lat="37.80471886942442" lon="14.652394476993674"><ele>743.0</ele><time>2026-04-29T10:23:58Z</time></trkpt><trkpt lat="37.80471294481322" lon="14.652179652810208"><ele>743.0</ele><time>2026-04-29T10:23:59Z</time></trkpt><trkpt lat="37.804705595800876" lon="14.651975026788923"><ele>743.0</ele><time>2026-04-29T10:24:00Z</time></trkpt><trkpt lat="37.80470092007081" lon="14.651770185599817"><ele>743.0</ele><time>2026-04-29T10:24:01Z</time></trkpt><trkpt lat="37.80469582459069" lon="14.651577947900396"><ele>743.0</ele><time>2026-04-29T10:24:02Z</time></trkpt><trkpt lat="37.804692658204836" lon="14.651398877891"><ele>743.0</ele><time>2026-04-29T10:24:03Z</time></trkpt><trkpt lat="37.80469074648292" lon="14.651207075123315"><ele>743.0</ele><time>2026-04-29T10:24:04Z</time></trkpt><trkpt lat="37.804687415987" lon="14.650997858195106"><ele>743.6666666666666</ele><time>2026-04-29T10:24:05Z</time></trkpt><trkpt lat="37.804680828246255" lon="14.650794629817621"><ele>744.3333333333334</ele><time>2026-04-29T10:24:06Z</time></trkpt><trkpt lat="37.80467479117054" lon="14.650590735783503"><ele>745.0</ele><time>2026-04-29T10:24:07Z</time></trkpt><trkpt lat="37.8046694365685" lon="14.6503818421801"><ele>746.3333333333334</ele><time>2026-04-29T10:24:08Z</time></trkpt><trkpt lat="37.80466561367406" lon="14.650172914344926"><ele>747.6666666666666</ele><time>2026-04-29T10:24:09Z</time></trkpt><trkpt lat="37.80466284850498" lon="14.649969362389964"><ele>749.0</ele><time>2026-04-29T10:24:10Z</time></trkpt><trkpt lat="37.80465835811599" lon="14.64977197969346"><ele>749.0</ele><time>2026-04-29T10:24:11Z</time></trkpt><trkpt lat="37.80464997561156" lon="14.64958282675726"><ele>749.0</ele><time>2026-04-29T10:24:12Z</time></trkpt><trkpt lat="37.80464628269899" lon="14.649399668287483"><ele>749.0</ele><time>2026-04-29T10:24:13Z</time></trkpt><trkpt lat="37.80464525110897" lon="14.649217013162437"><ele>749.0</ele><time>2026-04-29T10:24:14Z</time></trkpt><trkpt lat="37.80464326349863" lon="14.649024460484895"><ele>748.3333333333333</ele><time>2026-04-29T10:24:15Z</time></trkpt><trkpt lat="37.804632403083616" lon="14.648811172587449"><ele>747.6666666666666</ele><time>2026-04-29T10:24:16Z</time></trkpt><trkpt lat="37.80462159334857" lon="14.648591108248104"><ele>747.0</ele><time>2026-04-29T10:24:17Z</time></trkpt><trkpt lat="37.804616193351706" lon="14.648398677121696"><ele>747.0</ele><time>2026-04-29T10:24:18Z</time></trkpt><trkpt lat="37.8046168266761" lon="14.648225370322448"><ele>747.0</ele><time>2026-04-29T10:24:19Z</time></trkpt><trkpt lat="37.80462569709943" lon="14.648063015983297"><ele>747.0</ele><time>2026-04-29T10:24:20Z</time></trkpt><trkpt lat="37.80464032548774" lon="14.647903765247667"><ele>747.0</ele><time>2026-04-29T10:24:21Z</time></trkpt><trkpt lat="37.804661249154236" lon="14.64775022038245"><ele>747.5</ele><time>2026-04-29T10:24:22Z</time></trkpt><trkpt lat="37.80469794328497" lon="14.647598047962722"><ele>748.0</ele><time>2026-04-29T10:24:23Z</time></trkpt><trkpt lat="37.8047511772431" lon="14.647429652153836"><ele>748.5</ele><time>2026-04-29T10:24:24Z</time></trkpt><trkpt lat="37.80481372309194" lon="14.647259313941477"><ele>749.0</ele><time>2026-04-29T10:24:25Z</time></trkpt><trkpt lat="37.80488550034821" lon="14.647092997356646"><ele>749.0</ele><time>2026-04-29T10:24:26Z</time></trkpt><trkpt lat="37.80496325886598" lon="14.64693785555023"><ele>749.0</ele><time>2026-04-29T10:24:27Z</time></trkpt><trkpt lat="37.805047944933555" lon="14.646797328078199"><ele>749.0</ele><time>2026-04-29T10:24:28Z</time></trkpt><trkpt lat="37.80514682466133" lon="14.646650078465623"><ele>749.0</ele><time>2026-04-29T10:24:29Z</time></trkpt><trkpt lat="37.80525348542132" lon="14.646492484420676"><ele>749.0</ele><time>2026-04-29T10:24:30Z</time></trkpt><trkpt lat="37.80534827347503" lon="14.6463388745539"><ele>749.0</ele><time>2026-04-29T10:24:31Z</time></trkpt><trkpt lat="37.80544941011284" lon="14.646183126063328"><ele>749.0</ele><time>2026-04-29T10:24:32Z</time></trkpt><trkpt lat="37.8055575793774" lon="14.646035452637664"><ele>749.5</ele><time>2026-04-29T10:24:33Z</time></trkpt><trkpt lat="37.805646613550564" lon="14.645910683196108"><ele>750.0</ele><time>2026-04-29T10:24:34Z</time></trkpt><trkpt lat="37.805738867576075" lon="14.645776934067351"><ele>750.5</ele><time>2026-04-29T10:24:35Z</time></trkpt><trkpt lat="37.8058329516777" lon="14.645634340659008"><ele>751.0</ele><time>2026-04-29T10:24:36Z</time></trkpt><trkpt lat="37.80592652112325" lon="14.645466789976433"><ele>752.3333333333334</ele><time>2026-04-29T10:24:37Z</time></trkpt><trkpt lat="37.8060256453449" lon="14.645287962086945"><ele>753.6666666666666</ele><time>2026-04-29T10:24:38Z</time></trkpt><trkpt lat="37.806135399849374" lon="14.645118245894688"><ele>755.0</ele><time>2026-04-29T10:24:39Z</time></trkpt><trkpt lat="37.80624085422722" lon="14.64495794957971"><ele>755.0</ele><time>2026-04-29T10:24:40Z</time></trkpt><trkpt lat="37.8063405910049" lon="14.644796489852022"><ele>755.0</ele><time>2026-04-29T10:24:41Z</time></trkpt><trkpt lat="37.806436301367235" lon="14.644635040033927"><ele>755.0</ele><time>2026-04-29T10:24:42Z</time></trkpt><trkpt lat="37.80652795084869" lon="14.6444765684089"><ele>753.6666666666666</ele><time>2026-04-29T10:24:43Z</time></trkpt><trkpt lat="37.80660273305237" lon="14.644295048637312"><ele>752.3333333333334</ele><time>2026-04-29T10:24:44Z</time></trkpt><trkpt lat="37.806698362697524" lon="14.644122816549471"><ele>751.0</ele><time>2026-04-29T10:24:45Z</time></trkpt><trkpt lat="37.80677948495089" lon="14.643934311006921"><ele>751.0</ele><time>2026-04-29T10:24:46Z</time></trkpt><trkpt lat="37.80684550593089" lon="14.643757168750108"><ele>751.0</ele><time>2026-04-29T10:24:47Z</time></trkpt><trkpt lat="37.80690986569163" lon="14.643588234710522"><ele>751.0</ele><time>2026-04-29T10:24:48Z</time></trkpt><trkpt lat="37.806982865508644" lon="14.643404376270203"><ele>751.3333333333334</ele><time>2026-04-29T10:24:49Z</time></trkpt><trkpt lat="37.80704971736343" lon="14.643217574548432"><ele>751.6666666666666</ele><time>2026-04-29T10:24:50Z</time></trkpt><trkpt lat="37.807106336368626" lon="14.643028505702295"><ele>752.0</ele><time>2026-04-29T10:24:51Z</time></trkpt><trkpt lat="37.807160585624445" lon="14.642850744043402"><ele>751.3333333333333</ele><time>2026-04-29T10:24:52Z</time></trkpt><trkpt lat="37.807212132034415" lon="14.642659253345531"><ele>750.6666666666666</ele><time>2026-04-29T10:24:53Z</time></trkpt><trkpt lat="37.807256398638735" lon="14.642475903427979"><ele>750.0</ele><time>2026-04-29T10:24:54Z</time></trkpt><trkpt lat="37.80729978800223" lon="14.64228950680778"><ele>750.0</ele><time>2026-04-29T10:24:55Z</time></trkpt><trkpt lat="37.80734139501389" lon="14.642108511100295"><ele>750.0</ele><time>2026-04-29T10:24:56Z</time></trkpt><trkpt lat="37.8073730202765" lon="14.64194584102093"><ele>750.0</ele><time>2026-04-29T10:24:57Z</time></trkpt><trkpt lat="37.807401284522946" lon="14.641783019288313"><ele>750.0</ele><time>2026-04-29T10:24:58Z</time></trkpt><trkpt lat="37.807426729508585" lon="14.641621977183608"><ele>750.25</ele><time>2026-04-29T10:24:59Z</time></trkpt><trkpt lat="37.807450866904574" lon="14.641456174054658"><ele>750.5</ele><time>2026-04-29T10:25:00Z</time></trkpt><trkpt lat="37.80747178544448" lon="14.641285452587416"><ele>750.75</ele><time>2026-04-29T10:25:01Z</time></trkpt><trkpt lat="37.80749642949929" lon="14.64112090202045"><ele>751.0</ele><time>2026-04-29T10:25:02Z</time></trkpt><trkpt lat="37.80751094405572" lon="14.640942481182437"><ele>751.6666666666667</ele><time>2026-04-29T10:25:03Z</time></trkpt><trkpt lat="37.807522648531865" lon="14.640749909390106"><ele>752.3333333333334</ele><time>2026-04-29T10:25:04Z</time></trkpt><trkpt lat="37.807535074627275" lon="14.640556575786679"><ele>753.0</ele><time>2026-04-29T10:25:05Z</time></trkpt><trkpt lat="37.807545938331494" lon="14.640372736580057"><ele>753.25</ele><time>2026-04-29T10:25:06Z</time></trkpt><trkpt lat="37.8075624598825" lon="14.640201705912148"><ele>753.5</ele><time>2026-04-29T10:25:07Z</time></trkpt><trkpt lat="37.807575016884776" lon="14.640024544289654"><ele>753.75</ele><time>2026-04-29T10:25:08Z</time></trkpt><trkpt lat="37.80758784435119" lon="14.639843108603442"><ele>754.0</ele><time>2026-04-29T10:25:09Z</time></trkpt><trkpt lat="37.80758820841732" lon="14.639644452723974"><ele>754.3333333333334</ele><time>2026-04-29T10:25:10Z</time></trkpt><trkpt lat="37.807601681115365" lon="14.639443778507781"><ele>754.6666666666666</ele><time>2026-04-29T10:25:11Z</time></trkpt><trkpt lat="37.80761654591245" lon="14.639230242324608"><ele>755.0</ele><time>2026-04-29T10:25:12Z</time></trkpt><trkpt lat="37.80763117585263" lon="14.639040765759148"><ele>755.0</ele><time>2026-04-29T10:25:13Z</time></trkpt><trkpt lat="37.80764425563629" lon="14.638871365658918"><ele>755.0</ele><time>2026-04-29T10:25:14Z</time></trkpt><trkpt lat="37.807659263634676" lon="14.638720412310333"><ele>755.0</ele><time>2026-04-29T10:25:15Z</time></trkpt><trkpt lat="37.80769244422172" lon="14.638600806179968"><ele>755.0</ele><time>2026-04-29T10:25:16Z</time></trkpt><trkpt lat="37.8076949719066" lon="14.6385011380818"><ele>755.0</ele><time>2026-04-29T10:25:17Z</time></trkpt><trkpt lat="37.80766248229579" lon="14.638421374331983"><ele>756.0</ele><time>2026-04-29T10:25:18Z</time></trkpt><trkpt lat="37.80761416612087" lon="14.638346688634245"><ele>757.0</ele><time>2026-04-29T10:25:19Z</time></trkpt><trkpt lat="37.80756144170714" lon="14.638233990255245"><ele>758.0</ele><time>2026-04-29T10:25:20Z</time></trkpt><trkpt lat="37.807530100781506" lon="14.638122371028008"><ele>759.0</ele><time>2026-04-29T10:25:21Z</time></trkpt><trkpt lat="37.80750815723582" lon="14.638046994074164"><ele>760.0</ele><time>2026-04-29T10:25:23Z</time></trkpt><trkpt lat="37.807531999301816" lon="14.637963520572235"><ele>761.0</ele><time>2026-04-29T10:26:57Z</time></trkpt><trkpt lat="37.80761474197962" lon="14.637940009935232"><ele>760.8333333333333</ele><time>2026-04-29T10:26:59Z</time></trkpt><trkpt lat="37.80767403809348" lon="14.637912415889486"><ele>760.6666666666666</ele><time>2026-04-29T10:27:00Z</time></trkpt><trkpt lat="37.80773086002098" lon="14.637875781819535"><ele>760.5</ele><time>2026-04-29T10:27:01Z</time></trkpt><trkpt lat="37.80780939173731" lon="14.637765885856924"><ele>760.3333333333334</ele><time>2026-04-29T10:27:03Z</time></trkpt><trkpt lat="37.80789387988505" lon="14.637713733093936"><ele>760.1666666666667</ele><time>2026-04-29T10:27:05Z</time></trkpt><trkpt lat="37.807943542346415" lon="14.637640862735314"><ele>760.0</ele><time>2026-04-29T10:27:08Z</time></trkpt><trkpt lat="37.80788288686051" lon="14.637548267502751"><ele>759.8</ele><time>2026-04-29T10:27:10Z</time></trkpt><trkpt lat="37.807817353187275" lon="14.637513645281455"><ele>759.6</ele><time>2026-04-29T10:27:11Z</time></trkpt><trkpt lat="37.807735447590844" lon="14.637482976552324"><ele>759.4000000000001</ele><time>2026-04-29T10:27:12Z</time></trkpt><trkpt lat="37.80766792739273" lon="14.63745085403558"><ele>759.2</ele><time>2026-04-29T10:27:13Z</time></trkpt><trkpt lat="37.807588683464544" lon="14.637358782422577"><ele>759.0</ele><time>2026-04-29T10:27:15Z</time></trkpt><trkpt lat="37.80760706248365" lon="14.637187213919104"><ele>759.0</ele><time>2026-04-29T10:27:17Z</time></trkpt><trkpt lat="37.807641972046454" lon="14.6370460842705"><ele>759.0</ele><time>2026-04-29T10:27:18Z</time></trkpt><trkpt lat="37.80765934303344" lon="14.636886451379802"><ele>759.0</ele><time>2026-04-29T10:27:19Z</time></trkpt><trkpt lat="37.80766484243264" lon="14.636725875041336"><ele>759.0</ele><time>2026-04-29T10:27:20Z</time></trkpt><trkpt lat="37.807670519136394" lon="14.636574154229567"><ele>758.5</ele><time>2026-04-29T10:27:21Z</time></trkpt><trkpt lat="37.80768268280928" lon="14.636430180602163"><ele>758.0</ele><time>2026-04-29T10:27:22Z</time></trkpt><trkpt lat="37.80769155651205" lon="14.636255363841368"><ele>757.5</ele><time>2026-04-29T10:27:23Z</time></trkpt><trkpt lat="37.80770258353012" lon="14.636093681312037"><ele>757.0</ele><time>2026-04-29T10:27:24Z</time></trkpt><trkpt lat="37.80771330492408" lon="14.63593904376125"><ele>758.0</ele><time>2026-04-29T10:27:25Z</time></trkpt><trkpt lat="37.80772850282296" lon="14.63578717512939"><ele>759.0</ele><time>2026-04-29T10:27:26Z</time></trkpt><trkpt lat="37.80773984461586" lon="14.635626515847314"><ele>760.0</ele><time>2026-04-29T10:27:27Z</time></trkpt><trkpt lat="37.80774679641709" lon="14.635444590857386"><ele>761.0</ele><time>2026-04-29T10:27:28Z</time></trkpt><trkpt lat="37.80775886057139" lon="14.635264787287522"><ele>761.5</ele><time>2026-04-29T10:27:29Z</time></trkpt><trkpt lat="37.807767545033805" lon="14.635105126691478"><ele>762.0</ele><time>2026-04-29T10:27:30Z</time></trkpt><trkpt lat="37.80777845536202" lon="14.63493855980043"><ele>762.5</ele><time>2026-04-29T10:27:31Z</time></trkpt><trkpt lat="37.80779000151208" lon="14.634776367325648"><ele>763.0</ele><time>2026-04-29T10:27:32Z</time></trkpt><trkpt lat="37.80779553661226" lon="14.634616775808107"><ele>762.5</ele><time>2026-04-29T10:27:33Z</time></trkpt><trkpt lat="37.807806231224845" lon="14.634456506793843"><ele>762.0</ele><time>2026-04-29T10:27:34Z</time></trkpt><trkpt lat="37.807821014271234" lon="14.634289021421823"><ele>761.5</ele><time>2026-04-29T10:27:35Z</time></trkpt><trkpt lat="37.80783437749887" lon="14.63409650455072"><ele>761.0</ele><time>2026-04-29T10:27:36Z</time></trkpt><trkpt lat="37.80784326296981" lon="14.633910167096492"><ele>761.0</ele><time>2026-04-29T10:27:37Z</time></trkpt><trkpt lat="37.80785135559986" lon="14.633744354171005"><ele>761.0</ele><time>2026-04-29T10:27:38Z</time></trkpt><trkpt lat="37.80786538539232" lon="14.633565511429284"><ele>761.0</ele><time>2026-04-29T10:27:39Z</time></trkpt><trkpt lat="37.80787803961332" lon="14.63339724878384"><ele>761.0</ele><time>2026-04-29T10:27:40Z</time></trkpt><trkpt lat="37.80788926391664" lon="14.633221224006089"><ele>761.25</ele><time>2026-04-29T10:27:41Z</time></trkpt><trkpt lat="37.80789871319561" lon="14.63304776009063"><ele>761.5</ele><time>2026-04-29T10:27:42Z</time></trkpt><trkpt lat="37.80790322216322" lon="14.632864559449162"><ele>761.75</ele><time>2026-04-29T10:27:43Z</time></trkpt><trkpt lat="37.807916493357666" lon="14.632690056950821"><ele>762.0</ele><time>2026-04-29T10:27:44Z</time></trkpt><trkpt lat="37.80792163370154" lon="14.632510982878076"><ele>762.0</ele><time>2026-04-29T10:27:45Z</time></trkpt><trkpt lat="37.807930990380484" lon="14.632339079986261"><ele>762.0</ele><time>2026-04-29T10:27:46Z</time></trkpt><trkpt lat="37.807941302526025" lon="14.632149623091045"><ele>762.0</ele><time>2026-04-29T10:27:47Z</time></trkpt><trkpt lat="37.80795133464418" lon="14.631965310934842"><ele>762.0</ele><time>2026-04-29T10:27:48Z</time></trkpt><trkpt lat="37.80797738665956" lon="14.63178323521086"><ele>762.5</ele><time>2026-04-29T10:27:49Z</time></trkpt><trkpt lat="37.80798740685923" lon="14.631610699142884"><ele>763.0</ele><time>2026-04-29T10:27:50Z</time></trkpt><trkpt lat="37.80798160848006" lon="14.631444032489494"><ele>763.5</ele><time>2026-04-29T10:27:51Z</time></trkpt><trkpt lat="37.80798967381354" lon="14.631267707735955"><ele>764.0</ele><time>2026-04-29T10:27:52Z</time></trkpt><trkpt lat="37.80802311812067" lon="14.63108515177992"><ele>764.5</ele><time>2026-04-29T10:27:53Z</time></trkpt><trkpt lat="37.80804658093749" lon="14.630896035244898"><ele>765.0</ele><time>2026-04-29T10:27:54Z</time></trkpt><trkpt lat="37.80807003875314" lon="14.630728167040951"><ele>765.5</ele><time>2026-04-29T10:27:55Z</time></trkpt><trkpt lat="37.808082145579945" lon="14.63057759080233"><ele>766.0</ele><time>2026-04-29T10:27:56Z</time></trkpt><trkpt lat="37.8081030436069" lon="14.63039267868992"><ele>766.5</ele><time>2026-04-29T10:27:57Z</time></trkpt><trkpt lat="37.808140068248115" lon="14.630219335378715"><ele>767.0</ele><time>2026-04-29T10:27:58Z</time></trkpt><trkpt lat="37.808152539790285" lon="14.630067765030411"><ele>767.5</ele><time>2026-04-29T10:27:59Z</time></trkpt><trkpt lat="37.80817732195147" lon="14.629930841838592"><ele>768.0</ele><time>2026-04-29T10:28:00Z</time></trkpt><trkpt lat="37.808206995093094" lon="14.629826576457596"><ele>768.0</ele><time>2026-04-29T10:28:01Z</time></trkpt><trkpt lat="37.80827653367956" lon="14.629702942449631"><ele>768.0</ele><time>2026-04-29T10:28:03Z</time></trkpt><trkpt lat="37.80832955059528" lon="14.629750907382055"><ele>768.0</ele><time>2026-04-29T10:28:05Z</time></trkpt><trkpt lat="37.80825600460771" lon="14.62947394174898"><ele>768.0</ele><time>2026-04-29T10:28:06Z</time></trkpt><trkpt lat="37.80823641934603" lon="14.629353709993032"><ele>768.0</ele><time>2026-04-29T10:28:07Z</time></trkpt><trkpt lat="37.80822304813714" lon="14.629245848551573"><ele>768.0</ele><time>2026-04-29T10:28:08Z</time></trkpt><trkpt lat="37.80819678986867" lon="14.629154653128298"><ele>768.0</ele><time>2026-04-29T10:28:09Z</time></trkpt><trkpt lat="37.80812283144148" lon="14.629103083454781"><ele>768.0</ele><time>2026-04-29T10:28:10Z</time></trkpt><trkpt lat="37.808091430653555" lon="14.628979321804024"><ele>768.0</ele><time>2026-04-29T10:28:12Z</time></trkpt><trkpt lat="37.80807836914006" lon="14.628817130850088"><ele>768.0</ele><time>2026-04-29T10:28:14Z</time></trkpt><trkpt lat="37.80806724276128" lon="14.628693463087146"><ele>768.0</ele><time>2026-04-29T10:28:15Z</time></trkpt><trkpt lat="37.808059712353064" lon="14.628554082176107"><ele>768.0</ele><time>2026-04-29T10:28:16Z</time></trkpt><trkpt lat="37.80804636867414" lon="14.628390064111835"><ele>768.0</ele><time>2026-04-29T10:28:17Z</time></trkpt><trkpt lat="37.80802768017422" lon="14.628221288062628"><ele>768.5</ele><time>2026-04-29T10:28:18Z</time></trkpt><trkpt lat="37.80800303308061" lon="14.628054063906923"><ele>769.0</ele><time>2026-04-29T10:28:19Z</time></trkpt><trkpt lat="37.80797924908029" lon="14.627892632600243"><ele>769.5</ele><time>2026-04-29T10:28:20Z</time></trkpt><trkpt lat="37.807958194928815" lon="14.627736197884845"><ele>770.0</ele><time>2026-04-29T10:28:21Z</time></trkpt><trkpt lat="37.80793576123609" lon="14.627589848984572"><ele>771.6</ele><time>2026-04-29T10:28:22Z</time></trkpt><trkpt lat="37.80791746259363" lon="14.62745043852874"><ele>773.2</ele><time>2026-04-29T10:28:23Z</time></trkpt><trkpt lat="37.80789932780674" lon="14.627319025322727"><ele>774.8</ele><time>2026-04-29T10:28:24Z</time></trkpt><trkpt lat="37.807865972424224" lon="14.627191791122277"><ele>776.4</ele><time>2026-04-29T10:28:25Z</time></trkpt><trkpt lat="37.80784695993328" lon="14.627050549340533"><ele>778.0</ele><time>2026-04-29T10:28:26Z</time></trkpt><trkpt lat="37.80784148945485" lon="14.626887336231126"><ele>778.5</ele><time>2026-04-29T10:28:27Z</time></trkpt><trkpt lat="37.807801905556914" lon="14.626722114536935"><ele>779.0</ele><time>2026-04-29T10:28:28Z</time></trkpt><trkpt lat="37.80779127272092" lon="14.626536994940109"><ele>779.5</ele><time>2026-04-29T10:28:29Z</time></trkpt><trkpt lat="37.80775961147731" lon="14.626358718731257"><ele>780.0</ele><time>2026-04-29T10:28:30Z</time></trkpt><trkpt lat="37.807736068324466" lon="14.626193889838984"><ele>780.75</ele><time>2026-04-29T10:28:31Z</time></trkpt><trkpt lat="37.8077106906167" lon="14.626050932983233"><ele>781.5</ele><time>2026-04-29T10:28:32Z</time></trkpt><trkpt lat="37.807683049755575" lon="14.625905833665572"><ele>782.25</ele><time>2026-04-29T10:28:33Z</time></trkpt><trkpt lat="37.80765513072751" lon="14.625744328612768"><ele>783.0</ele><time>2026-04-29T10:28:34Z</time></trkpt><trkpt lat="37.80763853788445" lon="14.625576518601221"><ele>781.0</ele><time>2026-04-29T10:28:35Z</time></trkpt><trkpt lat="37.80760504361632" lon="14.62541366136542"><ele>779.0</ele><time>2026-04-29T10:28:36Z</time></trkpt><trkpt lat="37.80759012948808" lon="14.6252482746727"><ele>777.0</ele><time>2026-04-29T10:28:37Z</time></trkpt><trkpt lat="37.80756661699137" lon="14.625098790153563"><ele>775.0</ele><time>2026-04-29T10:28:38Z</time></trkpt><trkpt lat="37.80753105392246" lon="14.625005887689237"><ele>775.0</ele><time>2026-04-29T10:28:39Z</time></trkpt><trkpt lat="37.80750581464786" lon="14.624904333150443"><ele>775.0</ele><time>2026-04-29T10:28:40Z</time></trkpt><trkpt lat="37.8074862531245" lon="14.624777816702384"><ele>775.0</ele><time>2026-04-29T10:28:41Z</time></trkpt><trkpt lat="37.80747925038885" lon="14.62465717742008"><ele>775.0</ele><time>2026-04-29T10:28:42Z</time></trkpt><trkpt lat="37.80748582020186" lon="14.624536787495066"><ele>775.0</ele><time>2026-04-29T10:28:43Z</time></trkpt><trkpt lat="37.807450863325776" lon="14.62442688385028"><ele>775.2</ele><time>2026-04-29T10:28:44Z</time></trkpt><trkpt lat="37.80742204105294" lon="14.62430085303559"><ele>775.4</ele><time>2026-04-29T10:28:45Z</time></trkpt><trkpt lat="37.80740121561616" lon="14.624188696205769"><ele>775.5999999999999</ele><time>2026-04-29T10:28:46Z</time></trkpt><trkpt lat="37.80739677665066" lon="14.624068358532211"><ele>775.8</ele><time>2026-04-29T10:28:47Z</time></trkpt><trkpt lat="37.80742170858652" lon="14.623956783855"><ele>776.0</ele><time>2026-04-29T10:28:48Z</time></trkpt><trkpt lat="37.80741959036944" lon="14.623844626932017"><ele>776.0</ele><time>2026-04-29T10:28:49Z</time></trkpt><trkpt lat="37.80745033268821" lon="14.623726116378293"><ele>776.0</ele><time>2026-04-29T10:28:50Z</time></trkpt><trkpt lat="37.80744713705894" lon="14.623575947943529"><ele>776.0</ele><time>2026-04-29T10:28:51Z</time></trkpt><trkpt lat="37.80744833137372" lon="14.623448526671703"><ele>776.0</ele><time>2026-04-29T10:28:52Z</time></trkpt><trkpt lat="37.80743327412521" lon="14.62336561280602"><ele>776.0</ele><time>2026-04-29T10:28:53Z</time></trkpt><trkpt lat="37.80735732623301" lon="14.623224386872291"><ele>776.0</ele><time>2026-04-29T10:28:55Z</time></trkpt><trkpt lat="37.80731599994096" lon="14.623105477750036"><ele>776.0</ele><time>2026-04-29T10:28:56Z</time></trkpt><trkpt lat="37.80732560578381" lon="14.622981136829502"><ele>776.0</ele><time>2026-04-29T10:28:57Z</time></trkpt><trkpt lat="37.807312655433805" lon="14.622866921247311"><ele>776.0</ele><time>2026-04-29T10:28:58Z</time></trkpt><trkpt lat="37.80730953211937" lon="14.622743679324499"><ele>776.0</ele><time>2026-04-29T10:28:59Z</time></trkpt><trkpt lat="37.80731210868943" lon="14.62263735110542"><ele>776.0</ele><time>2026-04-29T10:29:00Z</time></trkpt><trkpt lat="37.80730463096621" lon="14.622500888365327"><ele>776.0</ele><time>2026-04-29T10:29:01Z</time></trkpt><trkpt lat="37.80729859845717" lon="14.622359225272282"><ele>776.0</ele><time>2026-04-29T10:29:02Z</time></trkpt><trkpt lat="37.80725696884912" lon="14.62222308629591"><ele>776.0</ele><time>2026-04-29T10:29:03Z</time></trkpt><trkpt lat="37.80722115101539" lon="14.622081060183035"><ele>777.75</ele><time>2026-04-29T10:29:04Z</time></trkpt><trkpt lat="37.807188210711836" lon="14.621944314160995"><ele>779.5</ele><time>2026-04-29T10:29:05Z</time></trkpt><trkpt lat="37.807160140084854" lon="14.621807273151477"><ele>781.25</ele><time>2026-04-29T10:29:06Z</time></trkpt><trkpt lat="37.80713226514676" lon="14.621668217232633"><ele>783.0</ele><time>2026-04-29T10:29:07Z</time></trkpt><trkpt lat="37.80709913777931" lon="14.621511850188888"><ele>783.0</ele><time>2026-04-29T10:29:08Z</time></trkpt><trkpt lat="37.807054757569084" lon="14.621294275406779"><ele>783.0</ele><time>2026-04-29T10:29:09Z</time></trkpt><trkpt lat="37.807014868200994" lon="14.621088938810498"><ele>783.0</ele><time>2026-04-29T10:29:10Z</time></trkpt><trkpt lat="37.80697876080557" lon="14.620921302095725"><ele>783.0</ele><time>2026-04-29T10:29:11Z</time></trkpt><trkpt lat="37.806940890934264" lon="14.620762177097005"><ele>783.0</ele><time>2026-04-29T10:29:12Z</time></trkpt><trkpt lat="37.80690065993866" lon="14.620600802773758"><ele>783.0</ele><time>2026-04-29T10:29:13Z</time></trkpt><trkpt lat="37.806854662386804" lon="14.620446245392323"><ele>783.0</ele><time>2026-04-29T10:29:14Z</time></trkpt><trkpt lat="37.80680685665371" lon="14.620285259110021"><ele>783.0</ele><time>2026-04-29T10:29:15Z</time></trkpt><trkpt lat="37.80679982148123" lon="14.620121491454718"><ele>783.0</ele><time>2026-04-29T10:29:16Z</time></trkpt><trkpt lat="37.806757066625586" lon="14.620004809021868"><ele>783.0</ele><time>2026-04-29T10:29:17Z</time></trkpt><trkpt lat="37.80672241481357" lon="14.619924887632942"><ele>783.0</ele><time>2026-04-29T10:29:18Z</time></trkpt><trkpt lat="37.80666777782612" lon="14.619830194845436"><ele>783.0</ele><time>2026-04-29T10:29:19Z</time></trkpt><trkpt lat="37.80662776387896" lon="14.61967694568719"><ele>783.0</ele><time>2026-04-29T10:29:20Z</time></trkpt><trkpt lat="37.8065687057896" lon="14.619532585297291"><ele>783.0</ele><time>2026-04-29T10:29:21Z</time></trkpt><trkpt lat="37.80653330223236" lon="14.619389669623256"><ele>783.0</ele><time>2026-04-29T10:29:22Z</time></trkpt><trkpt lat="37.8064824096432" lon="14.619260737684437"><ele>783.0</ele><time>2026-04-29T10:29:23Z</time></trkpt><trkpt lat="37.806431418126685" lon="14.619124253544411"><ele>785.25</ele><time>2026-04-29T10:29:24Z</time></trkpt><trkpt lat="37.80637639830358" lon="14.619006320796291"><ele>787.5</ele><time>2026-04-29T10:29:25Z</time></trkpt><trkpt lat="37.80631022129061" lon="14.618897229136843"><ele>789.75</ele><time>2026-04-29T10:29:26Z</time></trkpt><trkpt lat="37.806232563383396" lon="14.618757428581072"><ele>792.0</ele><time>2026-04-29T10:29:27Z</time></trkpt><trkpt lat="37.806191503449114" lon="14.618600204327839"><ele>793.25</ele><time>2026-04-29T10:29:28Z</time></trkpt><trkpt lat="37.80615482601697" lon="14.618442007738084"><ele>794.5</ele><time>2026-04-29T10:29:29Z</time></trkpt><trkpt lat="37.806102874880665" lon="14.618266216912762"><ele>795.75</ele><time>2026-04-29T10:29:30Z</time></trkpt><trkpt lat="37.80606161660425" lon="14.618077704459012"><ele>797.0</ele><time>2026-04-29T10:29:31Z</time></trkpt><trkpt lat="37.80602065942937" lon="14.617910398224945"><ele>794.8</ele><time>2026-04-29T10:29:32Z</time></trkpt><trkpt lat="37.80598833929722" lon="14.617778301653752"><ele>792.6</ele><time>2026-04-29T10:29:33Z</time></trkpt><trkpt lat="37.80596548492502" lon="14.617660413094837"><ele>790.4</ele><time>2026-04-29T10:29:34Z</time></trkpt><trkpt lat="37.80596461175764" lon="14.617537894736834"><ele>788.1999999999999</ele><time>2026-04-29T10:29:35Z</time></trkpt><trkpt lat="37.80595682711287" lon="14.617399446276641"><ele>786.0</ele><time>2026-04-29T10:29:36Z</time></trkpt><trkpt lat="37.80597609030748" lon="14.617247060201644"><ele>787.0</ele><time>2026-04-29T10:29:37Z</time></trkpt><trkpt lat="37.80601752670975" lon="14.61708605763342"><ele>788.0</ele><time>2026-04-29T10:29:38Z</time></trkpt><trkpt lat="37.80607709359011" lon="14.616904530575148"><ele>789.0</ele><time>2026-04-29T10:29:39Z</time></trkpt><trkpt lat="37.80614183744609" lon="14.616710124409092"><ele>789.0</ele><time>2026-04-29T10:29:40Z</time></trkpt><trkpt lat="37.80619761886866" lon="14.616536617172116"><ele>789.0</ele><time>2026-04-29T10:29:41Z</time></trkpt><trkpt lat="37.806244645479026" lon="14.616389853409641"><ele>789.0</ele><time>2026-04-29T10:29:42Z</time></trkpt><trkpt lat="37.8062840643623" lon="14.616265858129669"><ele>789.0</ele><time>2026-04-29T10:29:43Z</time></trkpt><trkpt lat="37.80633674137566" lon="14.61615695603731"><ele>787.25</ele><time>2026-04-29T10:29:44Z</time></trkpt><trkpt lat="37.806407757795405" lon="14.616063388939406"><ele>785.5</ele><time>2026-04-29T10:29:45Z</time></trkpt><trkpt lat="37.80650769797234" lon="14.615972562269219"><ele>783.75</ele><time>2026-04-29T10:29:46Z</time></trkpt><trkpt lat="37.80661083100753" lon="14.615872144780052"><ele>782.0</ele><time>2026-04-29T10:29:47Z</time></trkpt><trkpt lat="37.80668827866588" lon="14.615780052051424"><ele>782.0000000000001</ele><time>2026-04-29T10:29:48Z</time></trkpt><trkpt lat="37.80672820898237" lon="14.615716521252578"><ele>782.0</ele><time>2026-04-29T10:29:49Z</time></trkpt><trkpt lat="37.80674243805368" lon="14.615572814699"><ele>782.0</ele><time>2026-04-29T10:29:51Z</time></trkpt><trkpt lat="37.8067660630981" lon="14.615473725286064"><ele>782.0</ele><time>2026-04-29T10:29:53Z</time></trkpt><trkpt lat="37.80683360490946" lon="14.615431154761199"><ele>782.0000000000001</ele><time>2026-04-29T10:29:55Z</time></trkpt><trkpt lat="37.806857890727834" lon="14.615357159224638"><ele>782.0</ele><time>2026-04-29T10:29:57Z</time></trkpt><trkpt lat="37.80686451074684" lon="14.615207228980982"><ele>781.8333333333334</ele><time>2026-04-29T10:29:59Z</time></trkpt><trkpt lat="37.806870996958395" lon="14.61512753081925"><ele>781.6666666666667</ele><time>2026-04-29T10:30:00Z</time></trkpt><trkpt lat="37.806884678368625" lon="14.615047725154911"><ele>781.5</ele><time>2026-04-29T10:30:01Z</time></trkpt><trkpt lat="37.806869979688955" lon="14.61490695479362"><ele>781.3333333333333</ele><time>2026-04-29T10:30:03Z</time></trkpt><trkpt lat="37.80687721800063" lon="14.61475928505401"><ele>781.1666666666666</ele><time>2026-04-29T10:30:05Z</time></trkpt><trkpt lat="37.80688419788461" lon="14.61467965736886"><ele>781.0</ele><time>2026-04-29T10:30:06Z</time></trkpt><trkpt lat="37.80690878769353" lon="14.614606118806886"><ele>781.0</ele><time>2026-04-29T10:30:07Z</time></trkpt><trkpt lat="37.806960505984975" lon="14.61452708748385"><ele>781.0</ele><time>2026-04-29T10:30:09Z</time></trkpt><trkpt lat="37.807032158597394" lon="14.61446555388363"><ele>781.0</ele><time>2026-04-29T10:30:12Z</time></trkpt><trkpt lat="37.80707185147453" lon="14.614397344009744"><ele>781.0</ele><time>2026-04-29T10:30:15Z</time></trkpt><trkpt lat="37.80713624953351" lon="14.61432748216393"><ele>781.0</ele><time>2026-04-29T10:30:18Z</time></trkpt><trkpt lat="37.80726620891782" lon="14.6142490265218"><ele>781.6666666666666</ele><time>2026-04-29T10:30:20Z</time></trkpt><trkpt lat="37.80732808754451" lon="14.614207551955305"><ele>782.3333333333333</ele><time>2026-04-29T10:30:21Z</time></trkpt><trkpt lat="37.80740267818501" lon="14.614144550602719"><ele>783.0</ele><time>2026-04-29T10:30:23Z</time></trkpt><trkpt lat="37.80736879768082" lon="14.614062623704102"><ele>783.6666666666667</ele><time>2026-04-29T10:30:26Z</time></trkpt><trkpt lat="37.807321407747914" lon="14.613979717231565"><ele>784.3333333333334</ele><time>2026-04-29T10:30:28Z</time></trkpt><trkpt lat="37.80725816706128" lon="14.613904777792516"><ele>785.0</ele><time>2026-04-29T10:30:31Z</time></trkpt><trkpt lat="37.80719660043035" lon="14.613802322485945"><ele>785.0000000000001</ele><time>2026-04-29T10:30:33Z</time></trkpt><trkpt lat="37.8071538855174" lon="14.613707552378377"><ele>785.0</ele><time>2026-04-29T10:30:35Z</time></trkpt><trkpt lat="37.80719141929106" lon="14.613634007843553"><ele>785.0</ele><time>2026-04-29T10:30:38Z</time></trkpt><trkpt lat="37.807241434799245" lon="14.613556105153659"><ele>785.0</ele><time>2026-04-29T10:30:41Z</time></trkpt><trkpt lat="37.807284515892434" lon="14.613474536700343"><ele>785.0000000000001</ele><time>2026-04-29T10:30:44Z</time></trkpt><trkpt lat="37.807316761869544" lon="14.61339130827005"><ele>785.0</ele><time>2026-04-29T10:30:47Z</time></trkpt><trkpt lat="37.80735388935495" lon="14.613234879621615"><ele>784.8</ele><time>2026-04-29T10:30:49Z</time></trkpt><trkpt lat="37.80735540496397" lon="14.613074290614774"><ele>784.6</ele><time>2026-04-29T10:30:51Z</time></trkpt><trkpt lat="37.80734985185548" lon="14.612973378697601"><ele>784.4000000000001</ele><time>2026-04-29T10:30:52Z</time></trkpt><trkpt lat="37.80733633214489" lon="14.612856879779267"><ele>784.2</ele><time>2026-04-29T10:30:53Z</time></trkpt><trkpt lat="37.807320690622404" lon="14.6127557702464"><ele>784.0</ele><time>2026-04-29T10:30:54Z</time></trkpt><trkpt lat="37.80730027206379" lon="14.61266734778006"><ele>784.2857142857143</ele><time>2026-04-29T10:30:55Z</time></trkpt><trkpt lat="37.80727374375491" lon="14.612562062330072"><ele>784.5714285714286</ele><time>2026-04-29T10:30:56Z</time></trkpt><trkpt lat="37.807252129315664" lon="14.612478162766696"><ele>784.8571428571429</ele><time>2026-04-29T10:30:57Z</time></trkpt><trkpt lat="37.807219041196205" lon="14.612403437334969"><ele>785.1428571428571</ele><time>2026-04-29T10:30:58Z</time></trkpt><trkpt lat="37.80718673220013" lon="14.612324165045635"><ele>785.4285714285714</ele><time>2026-04-29T10:30:59Z</time></trkpt><trkpt lat="37.807155122826295" lon="14.612236881896377"><ele>785.7142857142858</ele><time>2026-04-29T10:31:00Z</time></trkpt><trkpt lat="37.80713580130297" lon="14.612150875501364"><ele>786.0</ele><time>2026-04-29T10:31:01Z</time></trkpt><trkpt lat="37.80712490502057" lon="14.612050131325766"><ele>786.1666666666666</ele><time>2026-04-29T10:31:02Z</time></trkpt><trkpt lat="37.80710292570962" lon="14.6119534468422"><ele>786.3333333333333</ele><time>2026-04-29T10:31:03Z</time></trkpt><trkpt lat="37.80705881398663" lon="14.611876951840907"><ele>786.5</ele><time>2026-04-29T10:31:04Z</time></trkpt><trkpt lat="37.807034850566865" lon="14.611779219138532"><ele>786.6666666666666</ele><time>2026-04-29T10:31:05Z</time></trkpt><trkpt lat="37.80699688130717" lon="14.611685503308374"><ele>786.8333333333333</ele><time>2026-04-29T10:31:06Z</time></trkpt><trkpt lat="37.80696158948559" lon="14.61157409917403"><ele>787.0</ele><time>2026-04-29T10:31:07Z</time></trkpt><trkpt lat="37.80692893681259" lon="14.61146607761796"><ele>786.9999999999999</ele><time>2026-04-29T10:31:08Z</time></trkpt><trkpt lat="37.806881634143636" lon="14.611376025093657"><ele>787.0</ele><time>2026-04-29T10:31:09Z</time></trkpt><trkpt lat="37.806820127181474" lon="14.611309707715565"><ele>787.0</ele><time>2026-04-29T10:31:10Z</time></trkpt><trkpt lat="37.80675472025375" lon="14.611255695211206"><ele>787.0</ele><time>2026-04-29T10:31:11Z</time></trkpt><trkpt lat="37.80670275219628" lon="14.61118499521056"><ele>786.9999999999999</ele><time>2026-04-29T10:31:12Z</time></trkpt><trkpt lat="37.80668567361867" lon="14.611091788190318"><ele>787.0</ele><time>2026-04-29T10:31:13Z</time></trkpt><trkpt lat="37.80670058211504" lon="14.610975934266506"><ele>788.1666666666666</ele><time>2026-04-29T10:31:14Z</time></trkpt><trkpt lat="37.80672109594133" lon="14.61087908951834"><ele>789.3333333333333</ele><time>2026-04-29T10:31:15Z</time></trkpt><trkpt lat="37.80672793940042" lon="14.610788872481777"><ele>790.5</ele><time>2026-04-29T10:31:16Z</time></trkpt><trkpt lat="37.80672579139887" lon="14.610692135365335"><ele>791.6666666666667</ele><time>2026-04-29T10:31:17Z</time></trkpt><trkpt lat="37.80670392840405" lon="14.610579675501505"><ele>792.8333333333334</ele><time>2026-04-29T10:31:18Z</time></trkpt><trkpt lat="37.80666389526181" lon="14.610466583321891"><ele>794.0</ele><time>2026-04-29T10:31:19Z</time></trkpt><trkpt lat="37.80664673746023" lon="14.610383694084817"><ele>795.1666666666667</ele><time>2026-04-29T10:31:20Z</time></trkpt><trkpt lat="37.80666626294241" lon="14.610299148840694"><ele>796.3333333333334</ele><time>2026-04-29T10:31:21Z</time></trkpt><trkpt lat="37.80671969574522" lon="14.61019753304541"><ele>797.5</ele><time>2026-04-29T10:31:22Z</time></trkpt><trkpt lat="37.80677208085959" lon="14.610119507869722"><ele>798.6666666666667</ele><time>2026-04-29T10:31:23Z</time></trkpt><trkpt lat="37.806806381109716" lon="14.61003683322828"><ele>799.8333333333334</ele><time>2026-04-29T10:31:24Z</time></trkpt><trkpt lat="37.806806389372966" lon="14.609947448705805"><ele>801.0</ele><time>2026-04-29T10:31:25Z</time></trkpt><trkpt lat="37.80676751540087" lon="14.609850542963605"><ele>801.0</ele><time>2026-04-29T10:31:26Z</time></trkpt><trkpt lat="37.80668908734592" lon="14.60976725189299"><ele>801.0</ele><time>2026-04-29T10:31:27Z</time></trkpt><trkpt lat="37.80657116591183" lon="14.609674756487937"><ele>801.0</ele><time>2026-04-29T10:31:28Z</time></trkpt><trkpt lat="37.80645168203342" lon="14.609570940884353"><ele>801.0</ele><time>2026-04-29T10:31:29Z</time></trkpt><trkpt lat="37.80635249283579" lon="14.609466604286174"><ele>801.75</ele><time>2026-04-29T10:31:30Z</time></trkpt><trkpt lat="37.806254800593905" lon="14.609357845393342"><ele>802.5</ele><time>2026-04-29T10:31:31Z</time></trkpt><trkpt lat="37.806150979246176" lon="14.609232598954906"><ele>803.25</ele><time>2026-04-29T10:31:32Z</time></trkpt><trkpt lat="37.806037896838184" lon="14.609119489943033"><ele>804.0</ele><time>2026-04-29T10:31:33Z</time></trkpt><trkpt lat="37.80594618509969" lon="14.609031558242306"><ele>805.2</ele><time>2026-04-29T10:31:34Z</time></trkpt><trkpt lat="37.80588123440134" lon="14.608938935773654"><ele>806.4000000000001</ele><time>2026-04-29T10:31:35Z</time></trkpt><trkpt lat="37.80583559942699" lon="14.60882521868249"><ele>807.6</ele><time>2026-04-29T10:31:36Z</time></trkpt><trkpt lat="37.80579277735584" lon="14.60870801221056"><ele>808.8</ele><time>2026-04-29T10:31:37Z</time></trkpt><trkpt lat="37.80574877171433" lon="14.608589993749334"><ele>810.0</ele><time>2026-04-29T10:31:38Z</time></trkpt><trkpt lat="37.8057121755028" lon="14.608459346299806"><ele>809.75</ele><time>2026-04-29T10:31:39Z</time></trkpt><trkpt lat="37.80568422071555" lon="14.608310700790831"><ele>809.5</ele><time>2026-04-29T10:31:40Z</time></trkpt><trkpt lat="37.805667414465184" lon="14.608151653987905"><ele>809.25</ele><time>2026-04-29T10:31:41Z</time></trkpt><trkpt lat="37.80564321784816" lon="14.60797699884205"><ele>809.0</ele><time>2026-04-29T10:31:42Z</time></trkpt><trkpt lat="37.80561598021383" lon="14.607807711570242"><ele>809.0</ele><time>2026-04-29T10:31:43Z</time></trkpt><trkpt lat="37.80559144252847" lon="14.607667637380219"><ele>809.0</ele><time>2026-04-29T10:31:44Z</time></trkpt><trkpt lat="37.805579832829686" lon="14.60755213118122"><ele>809.0</ele><time>2026-04-29T10:31:45Z</time></trkpt><trkpt lat="37.805567540719835" lon="14.607440382838792"><ele>809.0</ele><time>2026-04-29T10:31:46Z</time></trkpt><trkpt lat="37.80551285946317" lon="14.607338860007667"><ele>809.0</ele><time>2026-04-29T10:31:47Z</time></trkpt><trkpt lat="37.80541888420073" lon="14.607242197862261"><ele>809.0</ele><time>2026-04-29T10:31:48Z</time></trkpt><trkpt lat="37.805319985614545" lon="14.607132614097477"><ele>809.0</ele><time>2026-04-29T10:31:49Z</time></trkpt><trkpt lat="37.80523798815961" lon="14.607024534102928"><ele>809.0</ele><time>2026-04-29T10:31:50Z</time></trkpt><trkpt lat="37.805163214917165" lon="14.606919679749524"><ele>809.0</ele><time>2026-04-29T10:31:51Z</time></trkpt><trkpt lat="37.80510297624195" lon="14.606835375020191"><ele>811.4000000000001</ele><time>2026-04-29T10:31:52Z</time></trkpt><trkpt lat="37.80505987146078" lon="14.606773812980785"><ele>813.8</ele><time>2026-04-29T10:31:53Z</time></trkpt><trkpt lat="37.804949325620626" lon="14.606772882348317"><ele>816.2</ele><time>2026-04-29T10:31:55Z</time></trkpt><trkpt lat="37.80489859654719" lon="14.606866717862003"><ele>818.5999999999999</ele><time>2026-04-29T10:31:56Z</time></trkpt><trkpt lat="37.80487687359168" lon="14.606998155201591"><ele>821.0</ele><time>2026-04-29T10:31:57Z</time></trkpt><trkpt lat="37.804859772721066" lon="14.607148495567726"><ele>823.75</ele><time>2026-04-29T10:31:58Z</time></trkpt><trkpt lat="37.80480145760537" lon="14.607266079575155"><ele>826.5</ele><time>2026-04-29T10:31:59Z</time></trkpt><trkpt lat="37.80472534973678" lon="14.607371890674193"><ele>829.25</ele><time>2026-04-29T10:32:00Z</time></trkpt><trkpt lat="37.80465976346489" lon="14.607500848338423"><ele>832.0</ele><time>2026-04-29T10:32:01Z</time></trkpt><trkpt lat="37.80460717472351" lon="14.607627460241005"><ele>832.0</ele><time>2026-04-29T10:32:02Z</time></trkpt><trkpt lat="37.80456379801157" lon="14.607741439830559"><ele>832.0</ele><time>2026-04-29T10:32:03Z</time></trkpt><trkpt lat="37.804522846596335" lon="14.607845629345325"><ele>832.0</ele><time>2026-04-29T10:32:04Z</time></trkpt><trkpt lat="37.80446242469676" lon="14.607923516754179"><ele>832.0</ele><time>2026-04-29T10:32:05Z</time></trkpt><trkpt lat="37.804374516725055" lon="14.60796741446594"><ele>832.0</ele><time>2026-04-29T10:32:06Z</time></trkpt><trkpt lat="37.80426067035744" lon="14.607974757457537"><ele>834.75</ele><time>2026-04-29T10:32:07Z</time></trkpt><trkpt lat="37.80414025436628" lon="14.60797319870864"><ele>837.5</ele><time>2026-04-29T10:32:08Z</time></trkpt><trkpt lat="37.804027859448105" lon="14.607980501623366"><ele>840.25</ele><time>2026-04-29T10:32:09Z</time></trkpt><trkpt lat="37.80391628085271" lon="14.607979753828195"><ele>843.0</ele><time>2026-04-29T10:32:10Z</time></trkpt><trkpt lat="37.80379363916995" lon="14.607981048132572"><ele>843.0</ele><time>2026-04-29T10:32:11Z</time></trkpt><trkpt lat="37.803675292116246" lon="14.60798788588757"><ele>843.0</ele><time>2026-04-29T10:32:12Z</time></trkpt><trkpt lat="37.80355917088518" lon="14.60798766948953"><ele>843.0</ele><time>2026-04-29T10:32:13Z</time></trkpt><trkpt lat="37.80345653769692" lon="14.608027426783158"><ele>843.0</ele><time>2026-04-29T10:32:14Z</time></trkpt><trkpt lat="37.803392639560364" lon="14.608113236833075"><ele>843.0</ele><time>2026-04-29T10:32:15Z</time></trkpt><trkpt lat="37.80336096788066" lon="14.608223068519209"><ele>846.0</ele><time>2026-04-29T10:32:16Z</time></trkpt><trkpt lat="37.80330499580619" lon="14.608318450064512"><ele>849.0</ele><time>2026-04-29T10:32:17Z</time></trkpt><trkpt lat="37.803197995086826" lon="14.608396200850047"><ele>852.0</ele><time>2026-04-29T10:32:18Z</time></trkpt><trkpt lat="37.80307694034383" lon="14.60847543318781"><ele>855.0</ele><time>2026-04-29T10:32:19Z</time></trkpt><trkpt lat="37.802974346851634" lon="14.608534899277007"><ele>855.0</ele><time>2026-04-29T10:32:20Z</time></trkpt><trkpt lat="37.80287337289965" lon="14.608559575729815"><ele>855.0</ele><time>2026-04-29T10:32:21Z</time></trkpt><trkpt lat="37.8027547096547" lon="14.60855887871837"><ele>855.0</ele><time>2026-04-29T10:32:22Z</time></trkpt><trkpt lat="37.802635275013394" lon="14.608547352543571"><ele>855.0</ele><time>2026-04-29T10:32:23Z</time></trkpt><trkpt lat="37.80251654981231" lon="14.608520991489089"><ele>855.5</ele><time>2026-04-29T10:32:24Z</time></trkpt><trkpt lat="37.80238281569271" lon="14.608473033477017"><ele>856.0</ele><time>2026-04-29T10:32:25Z</time></trkpt><trkpt lat="37.80224773611275" lon="14.608407572287616"><ele>856.5</ele><time>2026-04-29T10:32:26Z</time></trkpt><trkpt lat="37.80212305993946" lon="14.608319588639471"><ele>857.0</ele><time>2026-04-29T10:32:27Z</time></trkpt><trkpt lat="37.80200638487267" lon="14.608192643615059"><ele>857.0</ele><time>2026-04-29T10:32:28Z</time></trkpt><trkpt lat="37.801888963908624" lon="14.608063629337055"><ele>857.0</ele><time>2026-04-29T10:32:29Z</time></trkpt><trkpt lat="37.80177361650711" lon="14.607964620795956"><ele>857.0</ele><time>2026-04-29T10:32:30Z</time></trkpt><trkpt lat="37.8016532747898" lon="14.607902023162714"><ele>857.0</ele><time>2026-04-29T10:32:31Z</time></trkpt><trkpt lat="37.80151530596928" lon="14.607872116209258"><ele>859.75</ele><time>2026-04-29T10:32:32Z</time></trkpt><trkpt lat="37.80135838237759" lon="14.60787327097876"><ele>862.5</ele><time>2026-04-29T10:32:33Z</time></trkpt><trkpt lat="37.801216128914035" lon="14.607882270624268"><ele>865.25</ele><time>2026-04-29T10:32:34Z</time></trkpt><trkpt lat="37.80111752597505" lon="14.607870228630201"><ele>868.0</ele><time>2026-04-29T10:32:35Z</time></trkpt><trkpt lat="37.8010228317501" lon="14.60784310785603"><ele>868.5</ele><time>2026-04-29T10:32:36Z</time></trkpt><trkpt lat="37.80091612477727" lon="14.607791777417507"><ele>869.0</ele><time>2026-04-29T10:32:37Z</time></trkpt><trkpt lat="37.80080111896745" lon="14.607697999856944"><ele>869.5</ele><time>2026-04-29T10:32:38Z</time></trkpt><trkpt lat="37.800698457078674" lon="14.60756666977125"><ele>870.0</ele><time>2026-04-29T10:32:39Z</time></trkpt><trkpt lat="37.80061898218086" lon="14.607415030587816"><ele>870.0</ele><time>2026-04-29T10:32:40Z</time></trkpt><trkpt lat="37.80054854448624" lon="14.607283711001674"><ele>870.0</ele><time>2026-04-29T10:32:41Z</time></trkpt><trkpt lat="37.80048844754337" lon="14.607173041848535"><ele>870.0</ele><time>2026-04-29T10:32:42Z</time></trkpt><trkpt lat="37.80040973123995" lon="14.607048818921832"><ele>870.0</ele><time>2026-04-29T10:32:43Z</time></trkpt><trkpt lat="37.800297770314025" lon="14.606913105713172"><ele>870.3333333333333</ele><time>2026-04-29T10:32:44Z</time></trkpt><trkpt lat="37.8001716817692" lon="14.60678254109126"><ele>870.6666666666666</ele><time>2026-04-29T10:32:45Z</time></trkpt><trkpt lat="37.80005478834397" lon="14.606642341670787"><ele>871.0</ele><time>2026-04-29T10:32:46Z</time></trkpt><trkpt lat="37.79996393294822" lon="14.606477466885016"><ele>871.0</ele><time>2026-04-29T10:32:47Z</time></trkpt><trkpt lat="37.799872053563384" lon="14.606314359691838"><ele>871.0</ele><time>2026-04-29T10:32:48Z</time></trkpt><trkpt lat="37.79977160711908" lon="14.606160196951445"><ele>871.0</ele><time>2026-04-29T10:32:49Z</time></trkpt><trkpt lat="37.7996711324637" lon="14.60601614088451"><ele>871.25</ele><time>2026-04-29T10:32:50Z</time></trkpt><trkpt lat="37.79956660777106" lon="14.605881451456044"><ele>871.5</ele><time>2026-04-29T10:32:51Z</time></trkpt><trkpt lat="37.79945997665201" lon="14.605750831897648"><ele>871.75</ele><time>2026-04-29T10:32:52Z</time></trkpt><trkpt lat="37.799370931496675" lon="14.605605608379388"><ele>872.0</ele><time>2026-04-29T10:32:53Z</time></trkpt><trkpt lat="37.799305806757104" lon="14.605438281380014"><ele>874.6666666666667</ele><time>2026-04-29T10:32:54Z</time></trkpt><trkpt lat="37.79924943142394" lon="14.605255880577136"><ele>877.3333333333333</ele><time>2026-04-29T10:32:55Z</time></trkpt><trkpt lat="37.7991814348226" lon="14.60507279007632"><ele>880.0</ele><time>2026-04-29T10:32:56Z</time></trkpt><trkpt lat="37.79908863615869" lon="14.604907606477479"><ele>880.0</ele><time>2026-04-29T10:32:57Z</time></trkpt><trkpt lat="37.798968953989714" lon="14.604774438523462"><ele>880.0</ele><time>2026-04-29T10:32:58Z</time></trkpt><trkpt lat="37.79885453019912" lon="14.604657093168512"><ele>880.0</ele><time>2026-04-29T10:32:59Z</time></trkpt><trkpt lat="37.79878561841918" lon="14.604535918421535"><ele>880.0</ele><time>2026-04-29T10:33:00Z</time></trkpt><trkpt lat="37.7987455313436" lon="14.604410135483866"><ele>879.75</ele><time>2026-04-29T10:33:01Z</time></trkpt><trkpt lat="37.79870239994701" lon="14.604303591201342"><ele>879.5</ele><time>2026-04-29T10:33:02Z</time></trkpt><trkpt lat="37.7986247492956" lon="14.604212654471562"><ele>879.25</ele><time>2026-04-29T10:33:03Z</time></trkpt><trkpt lat="37.798518558263986" lon="14.604137681825572"><ele>879.0</ele><time>2026-04-29T10:33:04Z</time></trkpt><trkpt lat="37.79840100362856" lon="14.604070817451449"><ele>880.5</ele><time>2026-04-29T10:33:05Z</time></trkpt><trkpt lat="37.79828385521595" lon="14.604006020184524"><ele>882.0</ele><time>2026-04-29T10:33:06Z</time></trkpt><trkpt lat="37.79816488366773" lon="14.603937198809488"><ele>883.5</ele><time>2026-04-29T10:33:07Z</time></trkpt><trkpt lat="37.79803830190505" lon="14.603874084866126"><ele>885.0</ele><time>2026-04-29T10:33:08Z</time></trkpt><trkpt lat="37.79791979440997" lon="14.603803680755066"><ele>885.0</ele><time>2026-04-29T10:33:09Z</time></trkpt><trkpt lat="37.79781779069842" lon="14.603696120377482"><ele>885.0</ele><time>2026-04-29T10:33:10Z</time></trkpt><trkpt lat="37.797716179977364" lon="14.603565386641419"><ele>885.0</ele><time>2026-04-29T10:33:11Z</time></trkpt><trkpt lat="37.79760911809254" lon="14.603420075259628"><ele>885.0</ele><time>2026-04-29T10:33:12Z</time></trkpt><trkpt lat="37.79749308403131" lon="14.603287289123434"><ele>886.6666666666667</ele><time>2026-04-29T10:33:13Z</time></trkpt><trkpt lat="37.79737734466305" lon="14.60315359973921"><ele>888.3333333333334</ele><time>2026-04-29T10:33:14Z</time></trkpt><trkpt lat="37.79726476295532" lon="14.603021013100053"><ele>890.0</ele><time>2026-04-29T10:33:15Z</time></trkpt><trkpt lat="37.79715231224577" lon="14.60289391989228"><ele>889.0</ele><time>2026-04-29T10:33:16Z</time></trkpt><trkpt lat="37.79704278723155" lon="14.602767101624918"><ele>888.0</ele><time>2026-04-29T10:33:17Z</time></trkpt><trkpt lat="37.79694207074978" lon="14.602649194054536"><ele>887.0</ele><time>2026-04-29T10:33:18Z</time></trkpt><trkpt lat="37.79684728552199" lon="14.602528021918497"><ele>886.0</ele><time>2026-04-29T10:33:19Z</time></trkpt><trkpt lat="37.796755755463366" lon="14.60239943383694"><ele>890.25</ele><time>2026-04-29T10:33:20Z</time></trkpt><trkpt lat="37.79667351736596" lon="14.602260996106061"><ele>894.5</ele><time>2026-04-29T10:33:21Z</time></trkpt><trkpt lat="37.79660477980581" lon="14.602110062979355"><ele>898.75</ele><time>2026-04-29T10:33:22Z</time></trkpt><trkpt lat="37.7965565473518" lon="14.601944635846586"><ele>903.0</ele><time>2026-04-29T10:33:23Z</time></trkpt><trkpt lat="37.796517277849304" lon="14.601774700066283"><ele>903.0</ele><time>2026-04-29T10:33:24Z</time></trkpt><trkpt lat="37.79647185936372" lon="14.6016239301714"><ele>903.0</ele><time>2026-04-29T10:33:25Z</time></trkpt><trkpt lat="37.79640962633274" lon="14.601482694006664"><ele>903.0</ele><time>2026-04-29T10:33:26Z</time></trkpt><trkpt lat="37.796311205938565" lon="14.60137162207474"><ele>903.0</ele><time>2026-04-29T10:33:27Z</time></trkpt><trkpt lat="37.79618277082582" lon="14.60129579424914"><ele>903.0</ele><time>2026-04-29T10:33:28Z</time></trkpt><trkpt lat="37.79604005743497" lon="14.601231270116436"><ele>903.0</ele><time>2026-04-29T10:33:29Z</time></trkpt><trkpt lat="37.79590166810796" lon="14.601162543308291"><ele>903.0</ele><time>2026-04-29T10:33:30Z</time></trkpt><trkpt lat="37.795766491310275" lon="14.601092559197115"><ele>903.0</ele><time>2026-04-29T10:33:31Z</time></trkpt><trkpt lat="37.79565032704113" lon="14.600968155872907"><ele>909.3333333333333</ele><time>2026-04-29T10:33:32Z</time></trkpt><trkpt lat="37.79556653753989" lon="14.600798841527556"><ele>915.6666666666666</ele><time>2026-04-29T10:33:33Z</time></trkpt><trkpt lat="37.79549254650116" lon="14.600618981071273"><ele>922.0</ele><time>2026-04-29T10:33:34Z</time></trkpt><trkpt lat="37.79541481559264" lon="14.600436276451092"><ele>921.6666666666666</ele><time>2026-04-29T10:33:35Z</time></trkpt><trkpt lat="37.795334580304534" lon="14.600249634347804"><ele>921.3333333333333</ele><time>2026-04-29T10:33:36Z</time></trkpt><trkpt lat="37.79525495585141" lon="14.600062766862344"><ele>921.0</ele><time>2026-04-29T10:33:37Z</time></trkpt><trkpt lat="37.79517586842228" lon="14.599876380211034"><ele>923.75</ele><time>2026-04-29T10:33:38Z</time></trkpt><trkpt lat="37.79510150098526" lon="14.599701117240222"><ele>926.5</ele><time>2026-04-29T10:33:39Z</time></trkpt><trkpt lat="37.795032740690246" lon="14.599539068719622"><ele>929.25</ele><time>2026-04-29T10:33:40Z</time></trkpt><trkpt lat="37.79496236686768" lon="14.599377407122631"><ele>932.0</ele><time>2026-04-29T10:33:41Z</time></trkpt><trkpt lat="37.79489296013543" lon="14.599218426571232"><ele>933.5</ele><time>2026-04-29T10:33:42Z</time></trkpt><trkpt lat="37.79482249394376" lon="14.599056928484263"><ele>935.0</ele><time>2026-04-29T10:33:43Z</time></trkpt><trkpt lat="37.794751539329376" lon="14.598892146679923"><ele>936.5</ele><time>2026-04-29T10:33:44Z</time></trkpt><trkpt lat="37.79467964007791" lon="14.598725171092784"><ele>938.0</ele><time>2026-04-29T10:33:45Z</time></trkpt><trkpt lat="37.79460649241691" lon="14.598555296333073"><ele>940.0</ele><time>2026-04-29T10:33:46Z</time></trkpt><trkpt lat="37.79453234654818" lon="14.598380483176673"><ele>942.0</ele><time>2026-04-29T10:33:47Z</time></trkpt><trkpt lat="37.79445814232922" lon="14.598202265510619"><ele>944.0</ele><time>2026-04-29T10:33:48Z</time></trkpt><trkpt lat="37.794383058997454" lon="14.598021740980164"><ele>945.5</ele><time>2026-04-29T10:33:49Z</time></trkpt><trkpt lat="37.794310588775105" lon="14.59784525330653"><ele>947.0</ele><time>2026-04-29T10:33:50Z</time></trkpt><trkpt lat="37.79424201681663" lon="14.597695153959682"><ele>948.5</ele><time>2026-04-29T10:33:51Z</time></trkpt><trkpt lat="37.79415335526704" lon="14.597580024719033"><ele>950.0</ele><time>2026-04-29T10:33:52Z</time></trkpt><trkpt lat="37.79404319723591" lon="14.597476523648885"><ele>951.6666666666667</ele><time>2026-04-29T10:33:53Z</time></trkpt><trkpt lat="37.793894751423956" lon="14.597406701133089"><ele>953.3333333333333</ele><time>2026-04-29T10:33:54Z</time></trkpt><trkpt lat="37.793748370750244" lon="14.59732065145842"><ele>955.0</ele><time>2026-04-29T10:33:55Z</time></trkpt><trkpt lat="37.79360017095902" lon="14.597229424299947"><ele>957.6666666666666</ele><time>2026-04-29T10:33:56Z</time></trkpt><trkpt lat="37.793448610276386" lon="14.597137705062707"><ele>960.3333333333333</ele><time>2026-04-29T10:33:57Z</time></trkpt><trkpt lat="37.793294404922946" lon="14.597049400735589"><ele>963.0</ele><time>2026-04-29T10:33:58Z</time></trkpt><trkpt lat="37.79314077224768" lon="14.596959709396625"><ele>964.3333333333333</ele><time>2026-04-29T10:33:59Z</time></trkpt><trkpt lat="37.792988854181594" lon="14.596874050573925"><ele>965.6666666666666</ele><time>2026-04-29T10:34:00Z</time></trkpt><trkpt lat="37.79283555575763" lon="14.596786993437243"><ele>967.0</ele><time>2026-04-29T10:34:01Z</time></trkpt><trkpt lat="37.79268483376434" lon="14.59669719606503"><ele>969.0</ele><time>2026-04-29T10:34:02Z</time></trkpt><trkpt lat="37.79253460005444" lon="14.596604111142174"><ele>971.0</ele><time>2026-04-29T10:34:03Z</time></trkpt><trkpt lat="37.792375010251845" lon="14.596533232861487"><ele>973.0</ele><time>2026-04-29T10:34:04Z</time></trkpt><trkpt lat="37.79222117707632" lon="14.596444188288777"><ele>973.0</ele><time>2026-04-29T10:34:05Z</time></trkpt><trkpt lat="37.79207446143117" lon="14.596333403162598"><ele>973.0</ele><time>2026-04-29T10:34:06Z</time></trkpt><trkpt lat="37.79192376106596" lon="14.596229382725154"><ele>973.0</ele><time>2026-04-29T10:34:07Z</time></trkpt><trkpt lat="37.791780834973444" lon="14.596108289226716"><ele>976.6666666666666</ele><time>2026-04-29T10:34:08Z</time></trkpt><trkpt lat="37.791642797050706" lon="14.595978428246719"><ele>980.3333333333333</ele><time>2026-04-29T10:34:09Z</time></trkpt><trkpt lat="37.79151157306599" lon="14.595845578924799"><ele>984.0</ele><time>2026-04-29T10:34:10Z</time></trkpt><trkpt lat="37.79137807051113" lon="14.595719438486556"><ele>984.0</ele><time>2026-04-29T10:34:11Z</time></trkpt><trkpt lat="37.79125181824146" lon="14.595593349939918"><ele>984.0</ele><time>2026-04-29T10:34:12Z</time></trkpt><trkpt lat="37.79112445210486" lon="14.595476512129936"><ele>984.0</ele><time>2026-04-29T10:34:13Z</time></trkpt><trkpt lat="37.79100172257389" lon="14.595358547774127"><ele>985.0</ele><time>2026-04-29T10:34:14Z</time></trkpt><trkpt lat="37.79088061560798" lon="14.59524190456412"><ele>986.0</ele><time>2026-04-29T10:34:15Z</time></trkpt><trkpt lat="37.79077169184458" lon="14.595143069188152"><ele>987.0</ele><time>2026-04-29T10:34:16Z</time></trkpt><trkpt lat="37.79067518623703" lon="14.595061160690834"><ele>988.0</ele><time>2026-04-29T10:34:17Z</time></trkpt><trkpt lat="37.79058892274687" lon="14.594974847999591"><ele>988.0</ele><time>2026-04-29T10:34:18Z</time></trkpt><trkpt lat="37.79049886602498" lon="14.594885071347932"><ele>988.0</ele><time>2026-04-29T10:34:19Z</time></trkpt><trkpt lat="37.79040775388725" lon="14.594801781466147"><ele>988.0</ele><time>2026-04-29T10:34:20Z</time></trkpt><trkpt lat="37.7903184922502" lon="14.594718910089746"><ele>988.0</ele><time>2026-04-29T10:34:21Z</time></trkpt><trkpt lat="37.79021645376067" lon="14.594633101394596"><ele>990.25</ele><time>2026-04-29T10:34:22Z</time></trkpt><trkpt lat="37.79010630874466" lon="14.594527024338497"><ele>992.5</ele><time>2026-04-29T10:34:23Z</time></trkpt><trkpt lat="37.78998898691997" lon="14.594408359631732"><ele>994.75</ele><time>2026-04-29T10:34:24Z</time></trkpt><trkpt lat="37.78986527669187" lon="14.594286190000808"><ele>997.0</ele><time>2026-04-29T10:34:25Z</time></trkpt><trkpt lat="37.78974208619302" lon="14.594163201065966"><ele>997.0</ele><time>2026-04-29T10:34:26Z</time></trkpt><trkpt lat="37.78962228870806" lon="14.59403484417238"><ele>997.0</ele><time>2026-04-29T10:34:27Z</time></trkpt><trkpt lat="37.789491143525694" lon="14.593924646014912"><ele>997.0</ele><time>2026-04-29T10:34:28Z</time></trkpt><trkpt lat="37.789364139354355" lon="14.593803347979792"><ele>997.3333333333333</ele><time>2026-04-29T10:34:29Z</time></trkpt><trkpt lat="37.789223341407755" lon="14.59368744771391"><ele>997.6666666666667</ele><time>2026-04-29T10:34:30Z</time></trkpt><trkpt lat="37.78905053761946" lon="14.593635564971711"><ele>998.0</ele><time>2026-04-29T10:34:31Z</time></trkpt><trkpt lat="37.78887844191346" lon="14.593594914079253"><ele>998.0</ele><time>2026-04-29T10:34:32Z</time></trkpt><trkpt lat="37.78872470075263" lon="14.593546570004825"><ele>998.0</ele><time>2026-04-29T10:34:33Z</time></trkpt><trkpt lat="37.788573593580864" lon="14.593500299707589"><ele>998.0</ele><time>2026-04-29T10:34:34Z</time></trkpt><trkpt lat="37.78842238679388" lon="14.593456678517981"><ele>1001.0</ele><time>2026-04-29T10:34:35Z</time></trkpt><trkpt lat="37.78826914262315" lon="14.593409945459905"><ele>1004.0</ele><time>2026-04-29T10:34:36Z</time></trkpt><trkpt lat="37.78811395700631" lon="14.593364521265155"><ele>1007.0</ele><time>2026-04-29T10:34:37Z</time></trkpt><trkpt lat="37.78795928435063" lon="14.593322662866003"><ele>1007.0</ele><time>2026-04-29T10:34:38Z</time></trkpt><trkpt lat="37.787809118985756" lon="14.593270019424436"><ele>1007.0</ele><time>2026-04-29T10:34:39Z</time></trkpt><trkpt lat="37.78767104974553" lon="14.59319105810698"><ele>1007.0</ele><time>2026-04-29T10:34:40Z</time></trkpt><trkpt lat="37.787556189426496" lon="14.59306058963107"><ele>1006.3333333333334</ele><time>2026-04-29T10:34:41Z</time></trkpt><trkpt lat="37.787453783477936" lon="14.592904648032968"><ele>1005.6666666666667</ele><time>2026-04-29T10:34:42Z</time></trkpt><trkpt lat="37.78737927563964" lon="14.592741962767182"><ele>1005.0</ele><time>2026-04-29T10:34:43Z</time></trkpt><trkpt lat="37.78730027360206" lon="14.592581980106194"><ele>1005.0</ele><time>2026-04-29T10:34:44Z</time></trkpt><trkpt lat="37.787197709943925" lon="14.592432413460799"><ele>1005.0</ele><time>2026-04-29T10:34:45Z</time></trkpt><trkpt lat="37.78709758991755" lon="14.592303791677047"><ele>1005.0</ele><time>2026-04-29T10:34:46Z</time></trkpt><trkpt lat="37.78700551300779" lon="14.592188624286024"><ele>1005.0</ele><time>2026-04-29T10:34:47Z</time></trkpt><trkpt lat="37.786920571584204" lon="14.592090725893955"><ele>1007.2</ele><time>2026-04-29T10:34:48Z</time></trkpt><trkpt lat="37.78682647909204" lon="14.592045227799339"><ele>1009.4</ele><time>2026-04-29T10:34:49Z</time></trkpt><trkpt lat="37.78674231824879" lon="14.591985488934291"><ele>1011.5999999999999</ele><time>2026-04-29T10:34:51Z</time></trkpt><trkpt lat="37.78668270947946" lon="14.591951870028243"><ele>1013.8</ele><time>2026-04-29T10:34:53Z</time></trkpt><trkpt lat="37.78663818199792" lon="14.591778197157454"><ele>1016.0</ele><time>2026-04-29T10:34:56Z</time></trkpt><trkpt lat="37.786650717961514" lon="14.591692187673308"><ele>1016.0</ele><time>2026-04-29T10:34:59Z</time></trkpt><trkpt lat="37.786699394524604" lon="14.591614175345104"><ele>1015.9999999999999</ele><time>2026-04-29T10:35:06Z</time></trkpt><trkpt lat="37.786730086662416" lon="14.591504755174935"><ele>1015.9999999999999</ele><time>2026-04-29T10:35:40Z</time></trkpt><trkpt lat="37.78676593951024" lon="14.59136030885054"><ele>1016.0</ele><time>2026-04-29T10:35:41Z</time></trkpt><trkpt lat="37.78683241267342" lon="14.591193904470979"><ele>1016.0</ele><time>2026-04-29T10:35:42Z</time></trkpt><trkpt lat="37.78693529502757" lon="14.591016522274115"><ele>1013.6666666666667</ele><time>2026-04-29T10:35:43Z</time></trkpt><trkpt lat="37.787034929400924" lon="14.590845363824188"><ele>1011.3333333333333</ele><time>2026-04-29T10:35:44Z</time></trkpt><trkpt lat="37.78714726573699" lon="14.590644551070818"><ele>1009.0</ele><time>2026-04-29T10:35:45Z</time></trkpt><trkpt lat="37.78724272060769" lon="14.590473895422853"><ele>1010.0</ele><time>2026-04-29T10:35:46Z</time></trkpt><trkpt lat="37.78734026492045" lon="14.590295264601394"><ele>1011.0</ele><time>2026-04-29T10:35:47Z</time></trkpt><trkpt lat="37.78744154316271" lon="14.590112466662607"><ele>1012.0</ele><time>2026-04-29T10:35:48Z</time></trkpt><trkpt lat="37.787526513954795" lon="14.589970949029007"><ele>1012.0</ele><time>2026-04-29T10:35:49Z</time></trkpt><trkpt lat="37.7875959135927" lon="14.589850339451658"><ele>1012.0</ele><time>2026-04-29T10:35:50Z</time></trkpt><trkpt lat="37.78766561011427" lon="14.589736448572825"><ele>1012.0</ele><time>2026-04-29T10:35:51Z</time></trkpt><trkpt lat="37.787739473231035" lon="14.589614091847228"><ele>1012.0</ele><time>2026-04-29T10:35:52Z</time></trkpt><trkpt lat="37.78781284754914" lon="14.589491005549968"><ele>1010.25</ele><time>2026-04-29T10:35:53Z</time></trkpt><trkpt lat="37.78789044651583" lon="14.589372447859652"><ele>1008.5</ele><time>2026-04-29T10:35:54Z</time></trkpt><trkpt lat="37.78796706666848" lon="14.589235393220982"><ele>1006.75</ele><time>2026-04-29T10:35:55Z</time></trkpt><trkpt lat="37.78806423747294" lon="14.589078091635448"><ele>1005.0</ele><time>2026-04-29T10:35:56Z</time></trkpt><trkpt lat="37.78817792695372" lon="14.58891534771352"><ele>1005.0</ele><time>2026-04-29T10:35:57Z</time></trkpt><trkpt lat="37.78827399669288" lon="14.588787081952509"><ele>1005.0</ele><time>2026-04-29T10:35:58Z</time></trkpt><trkpt lat="37.78834736275309" lon="14.588666596046616"><ele>1005.0</ele><time>2026-04-29T10:35:59Z</time></trkpt><trkpt lat="37.7884209378236" lon="14.58854867690381"><ele>1005.0</ele><time>2026-04-29T10:36:00Z</time></trkpt><trkpt lat="37.78850002899259" lon="14.588422322958715"><ele>1001.75</ele><time>2026-04-29T10:36:01Z</time></trkpt><trkpt lat="37.7885828624452" lon="14.588294294445841"><ele>998.5</ele><time>2026-04-29T10:36:02Z</time></trkpt><trkpt lat="37.788670437563944" lon="14.588157580958297"><ele>995.25</ele><time>2026-04-29T10:36:03Z</time></trkpt><trkpt lat="37.78875644934772" lon="14.588015733757597"><ele>992.0</ele><time>2026-04-29T10:36:04Z</time></trkpt><trkpt lat="37.788835476979095" lon="14.58788020355125"><ele>992.25</ele><time>2026-04-29T10:36:05Z</time></trkpt><trkpt lat="37.788903719960416" lon="14.58775460500974"><ele>992.5</ele><time>2026-04-29T10:36:06Z</time></trkpt><trkpt lat="37.78896253493294" lon="14.587626050291021"><ele>992.75</ele><time>2026-04-29T10:36:07Z</time></trkpt><trkpt lat="37.7890238185938" lon="14.587503340239243"><ele>993.0</ele><time>2026-04-29T10:36:08Z</time></trkpt><trkpt lat="37.78908580915419" lon="14.587374982377375"><ele>993.0</ele><time>2026-04-29T10:36:09Z</time></trkpt><trkpt lat="37.78915132633524" lon="14.58722922683075"><ele>993.0</ele><time>2026-04-29T10:36:10Z</time></trkpt><trkpt lat="37.78922325542147" lon="14.587067411834944"><ele>993.0</ele><time>2026-04-29T10:36:11Z</time></trkpt><trkpt lat="37.789322315842675" lon="14.586894155778385"><ele>993.0</ele><time>2026-04-29T10:36:12Z</time></trkpt><trkpt lat="37.7894249463759" lon="14.58671966293653"><ele>991.25</ele><time>2026-04-29T10:36:13Z</time></trkpt><trkpt lat="37.78950996613982" lon="14.586553527743682"><ele>989.5</ele><time>2026-04-29T10:36:14Z</time></trkpt><trkpt lat="37.7895888570961" lon="14.586398855155341"><ele>987.75</ele><time>2026-04-29T10:36:15Z</time></trkpt><trkpt lat="37.789663223827105" lon="14.586259040455777"><ele>986.0</ele><time>2026-04-29T10:36:16Z</time></trkpt><trkpt lat="37.78972278134465" lon="14.58614008069262"><ele>986.0</ele><time>2026-04-29T10:36:17Z</time></trkpt><trkpt lat="37.789768057752994" lon="14.586046383023335"><ele>985.9999999999999</ele><time>2026-04-29T10:36:18Z</time></trkpt><trkpt lat="37.78980738602912" lon="14.585967393367012"><ele>985.9999999999999</ele><time>2026-04-29T10:36:19Z</time></trkpt><trkpt lat="37.78984306661946" lon="14.5858999824354"><ele>986.0</ele><time>2026-04-29T10:36:20Z</time></trkpt><trkpt lat="37.78973275308792" lon="14.585726166394224"><ele>986.0</ele><time>2026-04-29T10:36:22Z</time></trkpt><trkpt lat="37.78967917342279" lon="14.585593909670463"><ele>986.0</ele><time>2026-04-29T10:36:23Z</time></trkpt><trkpt lat="37.78961981965715" lon="14.585476748120675"><ele>986.0</ele><time>2026-04-29T10:36:24Z</time></trkpt><trkpt lat="37.78959636486482" lon="14.585325429139422"><ele>986.0</ele><time>2026-04-29T10:36:25Z</time></trkpt><trkpt lat="37.78959658266385" lon="14.585153087413808"><ele>986.0</ele><time>2026-04-29T10:36:26Z</time></trkpt><trkpt lat="37.78958951022708" lon="14.585010503041202"><ele>986.3333333333334</ele><time>2026-04-29T10:36:27Z</time></trkpt><trkpt lat="37.78957751070065" lon="14.584905374789018"><ele>986.6666666666667</ele><time>2026-04-29T10:36:28Z</time></trkpt><trkpt lat="37.78956951383238" lon="14.584824801090802"><ele>987.0</ele><time>2026-04-29T10:36:29Z</time></trkpt><trkpt lat="37.78957134786576" lon="14.58473803276438"><ele>987.3333333333333</ele><time>2026-04-29T10:36:31Z</time></trkpt><trkpt lat="37.78956638961008" lon="14.584649087197286"><ele>987.6666666666666</ele><time>2026-04-29T10:36:35Z</time></trkpt><trkpt lat="37.7895824032621" lon="14.584529257120622"><ele>988.0</ele><time>2026-04-29T10:36:39Z</time></trkpt><trkpt lat="37.78960988592737" lon="14.58441438966191"><ele>989.75</ele><time>2026-04-29T10:36:40Z</time></trkpt><trkpt lat="37.78963714446605" lon="14.584271748379662"><ele>991.5</ele><time>2026-04-29T10:36:41Z</time></trkpt><trkpt lat="37.78966157048493" lon="14.584125048134403"><ele>993.25</ele><time>2026-04-29T10:36:42Z</time></trkpt><trkpt lat="37.789692967093956" lon="14.583952743697406"><ele>995.0</ele><time>2026-04-29T10:36:43Z</time></trkpt><trkpt lat="37.78973151008722" lon="14.583727535162947"><ele>996.0</ele><time>2026-04-29T10:36:44Z</time></trkpt><trkpt lat="37.789768049582015" lon="14.583490934368367"><ele>997.0</ele><time>2026-04-29T10:36:45Z</time></trkpt><trkpt lat="37.78979326110657" lon="14.583313153106173"><ele>998.0</ele><time>2026-04-29T10:36:46Z</time></trkpt><trkpt lat="37.78979799268406" lon="14.583157934712109"><ele>998.0</ele><time>2026-04-29T10:36:47Z</time></trkpt><trkpt lat="37.78977319256215" lon="14.582975630696536"><ele>998.0</ele><time>2026-04-29T10:36:48Z</time></trkpt><trkpt lat="37.78971915328386" lon="14.582774302639967"><ele>998.0</ele><time>2026-04-29T10:36:49Z</time></trkpt><trkpt lat="37.789669269977054" lon="14.582594417459743"><ele>998.0</ele><time>2026-04-29T10:36:50Z</time></trkpt><trkpt lat="37.78964537098044" lon="14.582415049746206"><ele>998.0</ele><time>2026-04-29T10:36:51Z</time></trkpt><trkpt lat="37.7896430786796" lon="14.582192777032075"><ele>998.0</ele><time>2026-04-29T10:36:52Z</time></trkpt><trkpt lat="37.78966525950177" lon="14.58196556214226"><ele>998.0</ele><time>2026-04-29T10:36:53Z</time></trkpt><trkpt lat="37.789694983776045" lon="14.581769218185835"><ele>998.0</ele><time>2026-04-29T10:36:54Z</time></trkpt><trkpt lat="37.78971787690168" lon="14.58159815441609"><ele>998.0</ele><time>2026-04-29T10:36:55Z</time></trkpt><trkpt lat="37.78973229369011" lon="14.581435274333073"><ele>998.0</ele><time>2026-04-29T10:36:56Z</time></trkpt><trkpt lat="37.78975842768468" lon="14.581263478416396"><ele>996.3333333333334</ele><time>2026-04-29T10:36:57Z</time></trkpt><trkpt lat="37.78980524666639" lon="14.58107031823073"><ele>994.6666666666667</ele><time>2026-04-29T10:36:58Z</time></trkpt><trkpt lat="37.78987596744855" lon="14.580885470497794"><ele>993.0</ele><time>2026-04-29T10:36:59Z</time></trkpt><trkpt lat="37.7899583371477" lon="14.5807149359618"><ele>993.0</ele><time>2026-04-29T10:37:00Z</time></trkpt><trkpt lat="37.79004522651821" lon="14.580535696465112"><ele>993.0</ele><time>2026-04-29T10:37:01Z</time></trkpt><trkpt lat="37.79012689958635" lon="14.580350018378141"><ele>993.0</ele><time>2026-04-29T10:37:02Z</time></trkpt><trkpt lat="37.79020231907612" lon="14.580167958291185"><ele>993.0</ele><time>2026-04-29T10:37:03Z</time></trkpt><trkpt lat="37.790273811811524" lon="14.579991755036039"><ele>993.0</ele><time>2026-04-29T10:37:04Z</time></trkpt><trkpt lat="37.79034631793946" lon="14.579820616605568"><ele>993.0</ele><time>2026-04-29T10:37:05Z</time></trkpt><trkpt lat="37.79041075245907" lon="14.579664086543298"><ele>993.0</ele><time>2026-04-29T10:37:06Z</time></trkpt><trkpt lat="37.79046569933595" lon="14.579515711852531"><ele>993.0</ele><time>2026-04-29T10:37:07Z</time></trkpt><trkpt lat="37.79050621188349" lon="14.579365169478027"><ele>993.0</ele><time>2026-04-29T10:37:08Z</time></trkpt><trkpt lat="37.79051857539866" lon="14.579208169218486"><ele>993.0</ele><time>2026-04-29T10:37:09Z</time></trkpt><trkpt lat="37.790498730937955" lon="14.57904153591165"><ele>993.0</ele><time>2026-04-29T10:37:10Z</time></trkpt><trkpt lat="37.79044767244599" lon="14.578865339708729"><ele>994.3333333333333</ele><time>2026-04-29T10:37:11Z</time></trkpt><trkpt lat="37.79038596709013" lon="14.57868421239177"><ele>995.6666666666666</ele><time>2026-04-29T10:37:12Z</time></trkpt><trkpt lat="37.7903203581356" lon="14.578491154549608"><ele>997.0</ele><time>2026-04-29T10:37:13Z</time></trkpt><trkpt lat="37.79025755775744" lon="14.578294514510285"><ele>997.0</ele><time>2026-04-29T10:37:14Z</time></trkpt><trkpt lat="37.79019136874111" lon="14.57810649265247"><ele>997.0</ele><time>2026-04-29T10:37:15Z</time></trkpt><trkpt lat="37.79012929385172" lon="14.577918239663028"><ele>997.0</ele><time>2026-04-29T10:37:16Z</time></trkpt><trkpt lat="37.790076805887104" lon="14.577723390196526"><ele>993.0</ele><time>2026-04-29T10:37:17Z</time></trkpt><trkpt lat="37.79004163020466" lon="14.577523365405405"><ele>989.0</ele><time>2026-04-29T10:37:18Z</time></trkpt><trkpt lat="37.79002623240363" lon="14.577317079044784"><ele>985.0</ele><time>2026-04-29T10:37:19Z</time></trkpt><trkpt lat="37.790038619633116" lon="14.577109235870367"><ele>986.0</ele><time>2026-04-29T10:37:20Z</time></trkpt><trkpt lat="37.79007246122534" lon="14.576899678420267"><ele>987.0</ele><time>2026-04-29T10:37:21Z</time></trkpt><trkpt lat="37.79011151314863" lon="14.576692245353955"><ele>988.0</ele><time>2026-04-29T10:37:22Z</time></trkpt><trkpt lat="37.79011432231325" lon="14.576477673451752"><ele>988.0</ele><time>2026-04-29T10:37:23Z</time></trkpt><trkpt lat="37.79008302978577" lon="14.5762654378989"><ele>988.0</ele><time>2026-04-29T10:37:24Z</time></trkpt><trkpt lat="37.790027854831166" lon="14.576059308003545"><ele>988.0</ele><time>2026-04-29T10:37:25Z</time></trkpt><trkpt lat="37.78995106551253" lon="14.575863654609169"><ele>990.6666666666666</ele><time>2026-04-29T10:37:26Z</time></trkpt><trkpt lat="37.78986687272067" lon="14.575678652214581"><ele>993.3333333333333</ele><time>2026-04-29T10:37:27Z</time></trkpt><trkpt lat="37.78980086078371" lon="14.575489144988865"><ele>996.0</ele><time>2026-04-29T10:37:28Z</time></trkpt><trkpt lat="37.789747755641415" lon="14.575271939817272"><ele>999.3333333333333</ele><time>2026-04-29T10:37:29Z</time></trkpt><trkpt lat="37.78971262390569" lon="14.575025668301636"><ele>1002.6666666666666</ele><time>2026-04-29T10:37:30Z</time></trkpt><trkpt lat="37.78969313225501" lon="14.574763812310184"><ele>1006.0</ele><time>2026-04-29T10:37:31Z</time></trkpt><trkpt lat="37.78968135991187" lon="14.574511831196855"><ele>1007.3333333333333</ele><time>2026-04-29T10:37:32Z</time></trkpt><trkpt lat="37.78966802110677" lon="14.57426996973562"><ele>1008.6666666666667</ele><time>2026-04-29T10:37:33Z</time></trkpt><trkpt lat="37.78966000782175" lon="14.574043997750815"><ele>1010.0</ele><time>2026-04-29T10:37:34Z</time></trkpt><trkpt lat="37.789648311792064" lon="14.573816113656505"><ele>1008.0</ele><time>2026-04-29T10:37:35Z</time></trkpt><trkpt lat="37.78962438591522" lon="14.573591531260854"><ele>1006.0</ele><time>2026-04-29T10:37:36Z</time></trkpt><trkpt lat="37.78959136289969" lon="14.573363895419355"><ele>1004.0</ele><time>2026-04-29T10:37:37Z</time></trkpt><trkpt lat="37.789547366408534" lon="14.573139552237901"><ele>1004.0</ele><time>2026-04-29T10:37:38Z</time></trkpt><trkpt lat="37.78949851364666" lon="14.572903707314147"><ele>1004.0</ele><time>2026-04-29T10:37:39Z</time></trkpt><trkpt lat="37.78944857814033" lon="14.572652145179669"><ele>1004.0</ele><time>2026-04-29T10:37:40Z</time></trkpt><trkpt lat="37.78939147515828" lon="14.572384174441634"><ele>1004.0</ele><time>2026-04-29T10:37:41Z</time></trkpt><trkpt lat="37.78932346477702" lon="14.572101883372403"><ele>1004.0</ele><time>2026-04-29T10:37:42Z</time></trkpt><trkpt lat="37.78925246409837" lon="14.57183025147665"><ele>1003.3333333333334</ele><time>2026-04-29T10:37:43Z</time></trkpt><trkpt lat="37.78918760728325" lon="14.57156903563653"><ele>1002.6666666666667</ele><time>2026-04-29T10:37:44Z</time></trkpt><trkpt lat="37.78912976759195" lon="14.571318474574916"><ele>1002.0</ele><time>2026-04-29T10:37:45Z</time></trkpt><trkpt lat="37.789072597136204" lon="14.571063782745176"><ele>998.6666666666667</ele><time>2026-04-29T10:37:46Z</time></trkpt><trkpt lat="37.78901926081001" lon="14.570806892098796"><ele>995.3333333333334</ele><time>2026-04-29T10:37:47Z</time></trkpt><trkpt lat="37.7889736889354" lon="14.570549524253785"><ele>992.0</ele><time>2026-04-29T10:37:48Z</time></trkpt><trkpt lat="37.788940981665945" lon="14.570290448080915"><ele>990.0</ele><time>2026-04-29T10:37:49Z</time></trkpt><trkpt lat="37.788918828554195" lon="14.570038427205857"><ele>988.0</ele><time>2026-04-29T10:37:50Z</time></trkpt><trkpt lat="37.788895478273204" lon="14.569802537610206"><ele>986.0</ele><time>2026-04-29T10:37:51Z</time></trkpt><trkpt lat="37.78887150253349" lon="14.569577364735958"><ele>986.0</ele><time>2026-04-29T10:37:52Z</time></trkpt><trkpt lat="37.78885210990906" lon="14.569358413766965"><ele>986.0</ele><time>2026-04-29T10:37:53Z</time></trkpt><trkpt lat="37.788829428770185" lon="14.569137514052978"><ele>986.0</ele><time>2026-04-29T10:37:54Z</time></trkpt><trkpt lat="37.788777202089776" lon="14.568921313788518"><ele>986.0</ele><time>2026-04-29T10:37:55Z</time></trkpt><trkpt lat="37.78868783816456" lon="14.568725621411975"><ele>986.0</ele><time>2026-04-29T10:37:56Z</time></trkpt><trkpt lat="37.78858400557355" lon="14.568556597696347"><ele>986.0</ele><time>2026-04-29T10:37:57Z</time></trkpt><trkpt lat="37.788494216836824" lon="14.568396603841085"><ele>988.3333333333334</ele><time>2026-04-29T10:37:58Z</time></trkpt><trkpt lat="37.788438190389094" lon="14.568218113130103"><ele>990.6666666666667</ele><time>2026-04-29T10:37:59Z</time></trkpt><trkpt lat="37.78841362700928" lon="14.568008001086483"><ele>993.0</ele><time>2026-04-29T10:38:00Z</time></trkpt><trkpt lat="37.78841816622082" lon="14.567790292175026"><ele>993.0</ele><time>2026-04-29T10:38:01Z</time></trkpt><trkpt lat="37.78842862408165" lon="14.567564235644827"><ele>993.0</ele><time>2026-04-29T10:38:02Z</time></trkpt><trkpt lat="37.78843082481772" lon="14.56735407834045"><ele>993.0</ele><time>2026-04-29T10:38:03Z</time></trkpt><trkpt lat="37.788428819906244" lon="14.56715000116056"><ele>992.0</ele><time>2026-04-29T10:38:04Z</time></trkpt><trkpt lat="37.788419178163466" lon="14.566948863627962"><ele>991.0</ele><time>2026-04-29T10:38:05Z</time></trkpt><trkpt lat="37.78838378889101" lon="14.56673372055659"><ele>990.0</ele><time>2026-04-29T10:38:06Z</time></trkpt><trkpt lat="37.788323978917724" lon="14.566508655898708"><ele>990.0</ele><time>2026-04-29T10:38:07Z</time></trkpt><trkpt lat="37.788249137113766" lon="14.566265028072886"><ele>990.0</ele><time>2026-04-29T10:38:08Z</time></trkpt><trkpt lat="37.78818136887155" lon="14.566013843913893"><ele>990.0</ele><time>2026-04-29T10:38:09Z</time></trkpt><trkpt lat="37.78810542652507" lon="14.565742439977647"><ele>990.3333333333333</ele><time>2026-04-29T10:38:10Z</time></trkpt><trkpt lat="37.78804904334627" lon="14.565492730997464"><ele>990.6666666666666</ele><time>2026-04-29T10:38:11Z</time></trkpt><trkpt lat="37.78799774914207" lon="14.565263688474866"><ele>991.0</ele><time>2026-04-29T10:38:12Z</time></trkpt><trkpt lat="37.78794667919043" lon="14.565064330059768"><ele>992.6666666666666</ele><time>2026-04-29T10:38:13Z</time></trkpt><trkpt lat="37.78787576647124" lon="14.564881669746184"><ele>994.3333333333333</ele><time>2026-04-29T10:38:14Z</time></trkpt><trkpt lat="37.78776607740828" lon="14.564721567858266"><ele>996.0</ele><time>2026-04-29T10:38:15Z</time></trkpt><trkpt lat="37.7876269346912" lon="14.564585233209131"><ele>998.0</ele><time>2026-04-29T10:38:16Z</time></trkpt><trkpt lat="37.78746745617908" lon="14.56446057972342"><ele>1000.0</ele><time>2026-04-29T10:38:17Z</time></trkpt><trkpt lat="37.78731315265466" lon="14.564331132923202"><ele>1002.0</ele><time>2026-04-29T10:38:18Z</time></trkpt><trkpt lat="37.78716628895007" lon="14.564201846267686"><ele>1002.0</ele><time>2026-04-29T10:38:19Z</time></trkpt><trkpt lat="37.78703231813297" lon="14.564080761561314"><ele>1002.0</ele><time>2026-04-29T10:38:20Z</time></trkpt><trkpt lat="37.78690773903328" lon="14.563965948892772"><ele>1002.0</ele><time>2026-04-29T10:38:21Z</time></trkpt><trkpt lat="37.78679215524198" lon="14.563857251244018"><ele>1001.3333333333333</ele><time>2026-04-29T10:38:22Z</time></trkpt><trkpt lat="37.78670935136915" lon="14.563708538489081"><ele>1000.6666666666666</ele><time>2026-04-29T10:38:23Z</time></trkpt><trkpt lat="37.786641305106166" lon="14.56352120648455"><ele>1000.0</ele><time>2026-04-29T10:38:24Z</time></trkpt><trkpt lat="37.78659342035923" lon="14.563313567187862"><ele>1000.0</ele><time>2026-04-29T10:38:25Z</time></trkpt><trkpt lat="37.78653891449667" lon="14.563095865075985"><ele>1000.0</ele><time>2026-04-29T10:38:26Z</time></trkpt><trkpt lat="37.78647940068886" lon="14.562877699528563"><ele>1000.0</ele><time>2026-04-29T10:38:27Z</time></trkpt><trkpt lat="37.78642265481668" lon="14.562668544326522"><ele>1000.6666666666666</ele><time>2026-04-29T10:38:28Z</time></trkpt><trkpt lat="37.78637022145094" lon="14.562478645936556"><ele>1001.3333333333333</ele><time>2026-04-29T10:38:29Z</time></trkpt><trkpt lat="37.786290592429545" lon="14.562309492923683"><ele>1002.0</ele><time>2026-04-29T10:38:30Z</time></trkpt><trkpt lat="37.78616565268286" lon="14.562182241379219"><ele>1001.6666666666667</ele><time>2026-04-29T10:38:31Z</time></trkpt><trkpt lat="37.78600431231366" lon="14.56210314286978"><ele>1001.3333333333334</ele><time>2026-04-29T10:38:32Z</time></trkpt><trkpt lat="37.78584244879527" lon="14.56205113323542"><ele>1001.0</ele><time>2026-04-29T10:38:33Z</time></trkpt><trkpt lat="37.78571056688816" lon="14.561990000155959"><ele>1001.0</ele><time>2026-04-29T10:38:34Z</time></trkpt><trkpt lat="37.78559569097472" lon="14.561911968663399"><ele>1001.0</ele><time>2026-04-29T10:38:35Z</time></trkpt><trkpt lat="37.78549163207728" lon="14.561791104061044"><ele>1001.0</ele><time>2026-04-29T10:38:36Z</time></trkpt><trkpt lat="37.7854097161059" lon="14.561614128372195"><ele>1001.0</ele><time>2026-04-29T10:38:37Z</time></trkpt><trkpt lat="37.78533851747146" lon="14.561408058531027"><ele>1001.0</ele><time>2026-04-29T10:38:38Z</time></trkpt><trkpt lat="37.785262433612324" lon="14.561212812343317"><ele>1001.0</ele><time>2026-04-29T10:38:39Z</time></trkpt><trkpt lat="37.78518935096559" lon="14.561034866817561"><ele>1001.0</ele><time>2026-04-29T10:38:40Z</time></trkpt><trkpt lat="37.78511723418069" lon="14.560855057963147"><ele>1000.5</ele><time>2026-04-29T10:38:41Z</time></trkpt><trkpt lat="37.785047894421346" lon="14.560680964075091"><ele>1000.0</ele><time>2026-04-29T10:38:42Z</time></trkpt><trkpt lat="37.7849826393888" lon="14.560513431072433"><ele>999.5</ele><time>2026-04-29T10:38:43Z</time></trkpt><trkpt lat="37.78491658438318" lon="14.560353961243893"><ele>999.0</ele><time>2026-04-29T10:38:44Z</time></trkpt><trkpt lat="37.78483761453999" lon="14.560210920864687"><ele>999.0</ele><time>2026-04-29T10:38:45Z</time></trkpt><trkpt lat="37.7847254881271" lon="14.560120503598021"><ele>999.0</ele><time>2026-04-29T10:38:46Z</time></trkpt><trkpt lat="37.78458953179153" lon="14.560083536598677"><ele>999.0</ele><time>2026-04-29T10:38:47Z</time></trkpt><trkpt lat="37.78444915577517" lon="14.560076170850529"><ele>999.0</ele><time>2026-04-29T10:38:48Z</time></trkpt><trkpt lat="37.784322357133945" lon="14.560071722032369"><ele>999.2</ele><time>2026-04-29T10:38:49Z</time></trkpt><trkpt lat="37.78420890890908" lon="14.5600549867854"><ele>999.4000000000001</ele><time>2026-04-29T10:38:50Z</time></trkpt><trkpt lat="37.784112317822554" lon="14.560033921611911"><ele>999.6</ele><time>2026-04-29T10:38:51Z</time></trkpt><trkpt lat="37.78402524179477" lon="14.56001054659832"><ele>999.8</ele><time>2026-04-29T10:38:52Z</time></trkpt><trkpt lat="37.783931917988745" lon="14.559976283994013"><ele>1000.0</ele><time>2026-04-29T10:38:53Z</time></trkpt><trkpt lat="37.78383885193946" lon="14.559909594955059"><ele>1000.0</ele><time>2026-04-29T10:38:54Z</time></trkpt><trkpt lat="37.783763551842235" lon="14.559805854920477"><ele>1000.0</ele><time>2026-04-29T10:38:55Z</time></trkpt><trkpt lat="37.78369656454659" lon="14.559673203682253"><ele>1000.0</ele><time>2026-04-29T10:38:56Z</time></trkpt><trkpt lat="37.78361761977225" lon="14.559524603994278"><ele>1000.0</ele><time>2026-04-29T10:38:57Z</time></trkpt><trkpt lat="37.78351120360375" lon="14.559352324327584"><ele>998.6666666666666</ele><time>2026-04-29T10:38:58Z</time></trkpt><trkpt lat="37.78340189116857" lon="14.559137581276257"><ele>997.3333333333333</ele><time>2026-04-29T10:38:59Z</time></trkpt><trkpt lat="37.78329107801554" lon="14.55893389065845"><ele>996.0</ele><time>2026-04-29T10:39:00Z</time></trkpt><trkpt lat="37.783154959668956" lon="14.558790205852496"><ele>996.0</ele><time>2026-04-29T10:39:01Z</time></trkpt><trkpt lat="37.78299387660381" lon="14.5587153488866"><ele>996.0</ele><time>2026-04-29T10:39:02Z</time></trkpt><trkpt lat="37.78281830977334" lon="14.55871204288653"><ele>996.0</ele><time>2026-04-29T10:39:03Z</time></trkpt><trkpt lat="37.78263964872795" lon="14.55875060551867"><ele>994.6666666666667</ele><time>2026-04-29T10:39:04Z</time></trkpt><trkpt lat="37.78245044823525" lon="14.558853524669084"><ele>993.3333333333334</ele><time>2026-04-29T10:39:05Z</time></trkpt><trkpt lat="37.78224903359533" lon="14.55891458219709"><ele>992.0</ele><time>2026-04-29T10:39:06Z</time></trkpt><trkpt lat="37.78205621093242" lon="14.55897589039092"><ele>992.0</ele><time>2026-04-29T10:39:07Z</time></trkpt><trkpt lat="37.78188024719215" lon="14.559004315288053"><ele>992.0</ele><time>2026-04-29T10:39:08Z</time></trkpt><trkpt lat="37.78172783199603" lon="14.559022138361728"><ele>992.0</ele><time>2026-04-29T10:39:09Z</time></trkpt><trkpt lat="37.78159604453545" lon="14.559005342714462"><ele>993.75</ele><time>2026-04-29T10:39:10Z</time></trkpt><trkpt lat="37.78148499074317" lon="14.558961878946297"><ele>995.5</ele><time>2026-04-29T10:39:11Z</time></trkpt><trkpt lat="37.78139682407211" lon="14.558869788472625"><ele>997.25</ele><time>2026-04-29T10:39:12Z</time></trkpt><trkpt lat="37.78133834814636" lon="14.558724754516003"><ele>999.0</ele><time>2026-04-29T10:39:13Z</time></trkpt><trkpt lat="37.781293280039066" lon="14.558540903023575"><ele>1000.3333333333333</ele><time>2026-04-29T10:39:14Z</time></trkpt><trkpt lat="37.781229084320394" lon="14.558352536597157"><ele>1001.6666666666666</ele><time>2026-04-29T10:39:15Z</time></trkpt><trkpt lat="37.78112010972714" lon="14.55817386657634"><ele>1003.0</ele><time>2026-04-29T10:39:16Z</time></trkpt><trkpt lat="37.780982036223264" lon="14.558016956274797"><ele>1003.0</ele><time>2026-04-29T10:39:17Z</time></trkpt><trkpt lat="37.78086052055731" lon="14.557882883694448"><ele>1003.0</ele><time>2026-04-29T10:39:18Z</time></trkpt><trkpt lat="37.78076978455682" lon="14.557736708117599"><ele>1003.0</ele><time>2026-04-29T10:39:19Z</time></trkpt><trkpt lat="37.78070660827365" lon="14.557556149147327"><ele>1006.6666666666666</ele><time>2026-04-29T10:39:20Z</time></trkpt><trkpt lat="37.78067079579886" lon="14.557345095781235"><ele>1010.3333333333333</ele><time>2026-04-29T10:39:21Z</time></trkpt><trkpt lat="37.780645065424885" lon="14.557146147167172"><ele>1014.0</ele><time>2026-04-29T10:39:22Z</time></trkpt><trkpt lat="37.78058455832217" lon="14.556981880692687"><ele>1015.6666666666667</ele><time>2026-04-29T10:39:23Z</time></trkpt><trkpt lat="37.78048025843303" lon="14.556851159737674"><ele>1017.3333333333334</ele><time>2026-04-29T10:39:24Z</time></trkpt><trkpt lat="37.78034324698773" lon="14.556761644594184"><ele>1019.0</ele><time>2026-04-29T10:39:25Z</time></trkpt><trkpt lat="37.780185310007994" lon="14.556712377476645"><ele>1017.0</ele><time>2026-04-29T10:39:26Z</time></trkpt><trkpt lat="37.78004240472794" lon="14.556664444602825"><ele>1015.0</ele><time>2026-04-29T10:39:27Z</time></trkpt><trkpt lat="37.779920525153436" lon="14.556587013033866"><ele>1013.0</ele><time>2026-04-29T10:39:28Z</time></trkpt><trkpt lat="37.779802279830605" lon="14.556477737586093"><ele>1011.0</ele><time>2026-04-29T10:39:29Z</time></trkpt><trkpt lat="37.779696767062966" lon="14.556360013997688"><ele>1011.0</ele><time>2026-04-29T10:39:30Z</time></trkpt><trkpt lat="37.77958543871803" lon="14.556217691377153"><ele>1011.0</ele><time>2026-04-29T10:39:31Z</time></trkpt><trkpt lat="37.77946768261082" lon="14.556067083381825"><ele>1011.0</ele><time>2026-04-29T10:39:32Z</time></trkpt><trkpt lat="37.77933289761423" lon="14.555940799809646"><ele>1010.6666666666667</ele><time>2026-04-29T10:39:33Z</time></trkpt><trkpt lat="37.77917531392902" lon="14.55585441754073"><ele>1010.3333333333334</ele><time>2026-04-29T10:39:34Z</time></trkpt><trkpt lat="37.77899216471577" lon="14.555808162454882"><ele>1010.0</ele><time>2026-04-29T10:39:35Z</time></trkpt><trkpt lat="37.77880493313979" lon="14.555785160224"><ele>1010.0</ele><time>2026-04-29T10:39:36Z</time></trkpt><trkpt lat="37.778646181986915" lon="14.555765066212512"><ele>1010.0</ele><time>2026-04-29T10:39:37Z</time></trkpt><trkpt lat="37.77849342506298" lon="14.555777789391295"><ele>1010.0</ele><time>2026-04-29T10:39:38Z</time></trkpt><trkpt lat="37.77833182280659" lon="14.555862312809344"><ele>1009.3333333333334</ele><time>2026-04-29T10:39:39Z</time></trkpt><trkpt lat="37.77817615539499" lon="14.556005087714357"><ele>1008.6666666666667</ele><time>2026-04-29T10:39:40Z</time></trkpt><trkpt lat="37.778018751178664" lon="14.55610917192878"><ele>1008.0</ele><time>2026-04-29T10:39:41Z</time></trkpt><trkpt lat="37.777879162928016" lon="14.556194531480605"><ele>1007.3333333333333</ele><time>2026-04-29T10:39:42Z</time></trkpt><trkpt lat="37.77772178582053" lon="14.556258862661897"><ele>1006.6666666666666</ele><time>2026-04-29T10:39:43Z</time></trkpt><trkpt lat="37.77756366863256" lon="14.55630633973413"><ele>1006.0</ele><time>2026-04-29T10:39:44Z</time></trkpt><trkpt lat="37.777425822204414" lon="14.556343147841535"><ele>1006.0</ele><time>2026-04-29T10:39:45Z</time></trkpt><trkpt lat="37.7772915047433" lon="14.556310218741165"><ele>1006.0</ele><time>2026-04-29T10:39:46Z</time></trkpt><trkpt lat="37.77715964451098" lon="14.556227093489673"><ele>1006.0</ele><time>2026-04-29T10:39:47Z</time></trkpt><trkpt lat="37.77702951227966" lon="14.556102701204084"><ele>1006.0</ele><time>2026-04-29T10:39:48Z</time></trkpt><trkpt lat="37.77690437374653" lon="14.555974305958983"><ele>1009.25</ele><time>2026-04-29T10:39:49Z</time></trkpt><trkpt lat="37.7767936267536" lon="14.555862408640316"><ele>1012.5</ele><time>2026-04-29T10:39:50Z</time></trkpt><trkpt lat="37.77668653945516" lon="14.555743772942495"><ele>1015.75</ele><time>2026-04-29T10:39:51Z</time></trkpt><trkpt lat="37.776588980420314" lon="14.555588532007532"><ele>1019.0</ele><time>2026-04-29T10:39:52Z</time></trkpt><trkpt lat="37.776500030142266" lon="14.555398766069594"><ele>1018.3333333333334</ele><time>2026-04-29T10:39:53Z</time></trkpt><trkpt lat="37.77642592295838" lon="14.555187629633421"><ele>1017.6666666666667</ele><time>2026-04-29T10:39:54Z</time></trkpt><trkpt lat="37.77635170949741" lon="14.554962684624634"><ele>1017.0</ele><time>2026-04-29T10:39:55Z</time></trkpt><trkpt lat="37.77627554502163" lon="14.554737520635719"><ele>1012.3333333333333</ele><time>2026-04-29T10:39:56Z</time></trkpt><trkpt lat="37.77620196347811" lon="14.554528509053322"><ele>1007.6666666666666</ele><time>2026-04-29T10:39:57Z</time></trkpt><trkpt lat="37.77612597700261" lon="14.55433090223845"><ele>1003.0</ele><time>2026-04-29T10:39:58Z</time></trkpt><trkpt lat="37.77605190916152" lon="14.554145614389766"><ele>1002.6666666666666</ele><time>2026-04-29T10:39:59Z</time></trkpt><trkpt lat="37.77598769115404" lon="14.55396838081536"><ele>1002.3333333333333</ele><time>2026-04-29T10:40:00Z</time></trkpt><trkpt lat="37.775923870488974" lon="14.553800808273998"><ele>1002.0</ele><time>2026-04-29T10:40:01Z</time></trkpt><trkpt lat="37.77582793376991" lon="14.553656154312446"><ele>997.3333333333333</ele><time>2026-04-29T10:40:02Z</time></trkpt><trkpt lat="37.77568436538463" lon="14.553542987045013"><ele>992.6666666666666</ele><time>2026-04-29T10:40:03Z</time></trkpt><trkpt lat="37.77553950519127" lon="14.55344568025293"><ele>988.0</ele><time>2026-04-29T10:40:04Z</time></trkpt><trkpt lat="37.77538338710717" lon="14.553362893517034"><ele>988.0</ele><time>2026-04-29T10:40:05Z</time></trkpt><trkpt lat="37.77522915331026" lon="14.553281826717344"><ele>988.0</ele><time>2026-04-29T10:40:06Z</time></trkpt><trkpt lat="37.77507881025833" lon="14.553214874011497"><ele>988.0</ele><time>2026-04-29T10:40:07Z</time></trkpt><trkpt lat="37.774916511240725" lon="14.5531916483607"><ele>988.25</ele><time>2026-04-29T10:40:08Z</time></trkpt><trkpt lat="37.774763124608675" lon="14.553203540016947"><ele>988.5</ele><time>2026-04-29T10:40:09Z</time></trkpt><trkpt lat="37.77463103483168" lon="14.55322618488642"><ele>988.75</ele><time>2026-04-29T10:40:10Z</time></trkpt><trkpt lat="37.774509359545995" lon="14.553243032770302"><ele>989.0</ele><time>2026-04-29T10:40:11Z</time></trkpt><trkpt lat="37.77439400229796" lon="14.553224125844125"><ele>987.25</ele><time>2026-04-29T10:40:12Z</time></trkpt><trkpt lat="37.774284297019555" lon="14.553155096347906"><ele>985.5</ele><time>2026-04-29T10:40:13Z</time></trkpt><trkpt lat="37.7741994082765" lon="14.553050141262737"><ele>983.75</ele><time>2026-04-29T10:40:14Z</time></trkpt><trkpt lat="37.774151514123" lon="14.552906188196255"><ele>982.0</ele><time>2026-04-29T10:40:15Z</time></trkpt><trkpt lat="37.77414017844143" lon="14.552723553302272"><ele>980.25</ele><time>2026-04-29T10:40:16Z</time></trkpt><trkpt lat="37.774150990680106" lon="14.552529219915705"><ele>978.5</ele><time>2026-04-29T10:40:17Z</time></trkpt><trkpt lat="37.77416464883008" lon="14.552347759882625"><ele>976.75</ele><time>2026-04-29T10:40:18Z</time></trkpt><trkpt lat="37.7741774693178" lon="14.552170921890848"><ele>975.0</ele><time>2026-04-29T10:40:19Z</time></trkpt><trkpt lat="37.774185934286656" lon="14.55200146067334"><ele>972.5</ele><time>2026-04-29T10:40:20Z</time></trkpt><trkpt lat="37.77419526273439" lon="14.551834559639456"><ele>970.0</ele><time>2026-04-29T10:40:21Z</time></trkpt><trkpt lat="37.774206610372524" lon="14.551672910664172"><ele>967.5</ele><time>2026-04-29T10:40:22Z</time></trkpt><trkpt lat="37.774214358756716" lon="14.55151524925798"><ele>965.0</ele><time>2026-04-29T10:40:23Z</time></trkpt><trkpt lat="37.77420553207761" lon="14.55136326363226"><ele>965.0</ele><time>2026-04-29T10:40:24Z</time></trkpt><trkpt lat="37.77415681917678" lon="14.55121877763901"><ele>965.0</ele><time>2026-04-29T10:40:25Z</time></trkpt><trkpt lat="37.774058750754705" lon="14.551088453733628"><ele>965.0</ele><time>2026-04-29T10:40:26Z</time></trkpt><trkpt lat="37.77390979423054" lon="14.551015438843486"><ele>965.0</ele><time>2026-04-29T10:40:27Z</time></trkpt><trkpt lat="37.77375964284615" lon="14.550989523400917"><ele>962.75</ele><time>2026-04-29T10:40:28Z</time></trkpt><trkpt lat="37.77361762347972" lon="14.551004536828483"><ele>960.5</ele><time>2026-04-29T10:40:29Z</time></trkpt><trkpt lat="37.773489970505274" lon="14.550999950316735"><ele>958.25</ele><time>2026-04-29T10:40:30Z</time></trkpt><trkpt lat="37.77336917914286" lon="14.550987771962122"><ele>956.0</ele><time>2026-04-29T10:40:31Z</time></trkpt><trkpt lat="37.77325157242647" lon="14.55097428459564"><ele>956.0</ele><time>2026-04-29T10:40:32Z</time></trkpt><trkpt lat="37.773137595970795" lon="14.550980745135194"><ele>956.0</ele><time>2026-04-29T10:40:33Z</time></trkpt><trkpt lat="37.773034345743646" lon="14.551040678104718"><ele>956.0</ele><time>2026-04-29T10:40:34Z</time></trkpt><trkpt lat="37.772945569122285" lon="14.551136297674937"><ele>956.0</ele><time>2026-04-29T10:40:35Z</time></trkpt><trkpt lat="37.77285884376751" lon="14.5512383459297"><ele>957.75</ele><time>2026-04-29T10:40:36Z</time></trkpt><trkpt lat="37.772796914845685" lon="14.55136358711003"><ele>959.5</ele><time>2026-04-29T10:40:37Z</time></trkpt><trkpt lat="37.77274391852254" lon="14.55149401420786"><ele>961.25</ele><time>2026-04-29T10:40:38Z</time></trkpt><trkpt lat="37.772681515036396" lon="14.551607887313137"><ele>963.0</ele><time>2026-04-29T10:40:39Z</time></trkpt><trkpt lat="37.77260688235947" lon="14.551707558949683"><ele>962.0</ele><time>2026-04-29T10:40:40Z</time></trkpt><trkpt lat="37.772510217007685" lon="14.551790446344967"><ele>961.0</ele><time>2026-04-29T10:40:41Z</time></trkpt><trkpt lat="37.77238074563782" lon="14.551874115014003"><ele>960.0</ele><time>2026-04-29T10:40:42Z</time></trkpt><trkpt lat="37.772245431017986" lon="14.551957224530751"><ele>959.0</ele><time>2026-04-29T10:40:43Z</time></trkpt><trkpt lat="37.77212843398498" lon="14.552045500696094"><ele>959.0</ele><time>2026-04-29T10:40:44Z</time></trkpt><trkpt lat="37.77201241352223" lon="14.552107733484705"><ele>959.0</ele><time>2026-04-29T10:40:45Z</time></trkpt><trkpt lat="37.771901697340084" lon="14.552172862569911"><ele>959.0</ele><time>2026-04-29T10:40:46Z</time></trkpt><trkpt lat="37.771798680247386" lon="14.552249641472663"><ele>959.0</ele><time>2026-04-29T10:40:47Z</time></trkpt><trkpt lat="37.771693835365795" lon="14.552319272098625"><ele>955.2</ele><time>2026-04-29T10:40:48Z</time></trkpt><trkpt lat="37.77160400927249" lon="14.552413390657586"><ele>951.4000000000001</ele><time>2026-04-29T10:40:49Z</time></trkpt><trkpt lat="37.7715303232363" lon="14.552493724691045"><ele>947.6</ele><time>2026-04-29T10:40:50Z</time></trkpt><trkpt lat="37.771473910974166" lon="14.552556443912831"><ele>943.8</ele><time>2026-04-29T10:40:51Z</time></trkpt><trkpt lat="37.77138404974988" lon="14.552657394180786"><ele>940.0</ele><time>2026-04-29T10:40:53Z</time></trkpt><trkpt lat="37.77130012921303" lon="14.552751670577118"><ele>940.0</ele><time>2026-04-29T10:40:55Z</time></trkpt><trkpt lat="37.77121402608934" lon="14.552848398960533"><ele>940.0</ele><time>2026-04-29T10:40:57Z</time></trkpt><trkpt lat="37.77111806970906" lon="14.552941156841413"><ele>940.0</ele><time>2026-04-29T10:40:59Z</time></trkpt><trkpt lat="37.77100970745344" lon="14.552997436775833"><ele>940.0</ele><time>2026-04-29T10:41:01Z</time></trkpt><trkpt lat="37.77094428731194" lon="14.552964768748813"><ele>940.0</ele><time>2026-04-29T10:41:02Z</time></trkpt><trkpt lat="37.77088743579073" lon="14.55291245408239"><ele>936.8333333333333</ele><time>2026-04-29T10:41:03Z</time></trkpt><trkpt lat="37.770841674227015" lon="14.552842823064308"><ele>933.6666666666666</ele><time>2026-04-29T10:41:04Z</time></trkpt><trkpt lat="37.77081447509705" lon="14.552755798391244"><ele>930.5</ele><time>2026-04-29T10:41:05Z</time></trkpt><trkpt lat="37.7708088383028" lon="14.552660263282606"><ele>927.3333333333333</ele><time>2026-04-29T10:41:06Z</time></trkpt><trkpt lat="37.77082814531673" lon="14.552557151978986"><ele>924.1666666666666</ele><time>2026-04-29T10:41:07Z</time></trkpt><trkpt lat="37.770875339829786" lon="14.552442827534701"><ele>921.0</ele><time>2026-04-29T10:41:08Z</time></trkpt><trkpt lat="37.77094040501089" lon="14.55233320750919"><ele>921.0</ele><time>2026-04-29T10:41:09Z</time></trkpt><trkpt lat="37.77100828880957" lon="14.55222949606129"><ele>920.9999999999999</ele><time>2026-04-29T10:41:10Z</time></trkpt><trkpt lat="37.77107878891289" lon="14.552125762693162"><ele>920.9999999999999</ele><time>2026-04-29T10:41:11Z</time></trkpt><trkpt lat="37.7711532089757" lon="14.55202613579361"><ele>921.0</ele><time>2026-04-29T10:41:12Z</time></trkpt><trkpt lat="37.771215614794684" lon="14.551938565996107"><ele>921.0</ele><time>2026-04-29T10:41:13Z</time></trkpt><trkpt lat="37.77126986046689" lon="14.551857314668894"><ele>922.3333333333334</ele><time>2026-04-29T10:41:14Z</time></trkpt><trkpt lat="37.77132428788515" lon="14.551777490152723"><ele>923.6666666666667</ele><time>2026-04-29T10:41:15Z</time></trkpt><trkpt lat="37.77137419563343" lon="14.551698435212012"><ele>925.0</ele><time>2026-04-29T10:41:16Z</time></trkpt><trkpt lat="37.77140799473315" lon="14.551625708627958"><ele>926.3333333333334</ele><time>2026-04-29T10:41:17Z</time></trkpt><trkpt lat="37.77144298551634" lon="14.551551045002345"><ele>927.6666666666667</ele><time>2026-04-29T10:41:18Z</time></trkpt><trkpt lat="37.77150185913214" lon="14.551421511281637"><ele>929.0</ele><time>2026-04-29T10:41:20Z</time></trkpt><trkpt lat="37.7715476431952" lon="14.55131295875439"><ele>929.0</ele><time>2026-04-29T10:41:22Z</time></trkpt><trkpt lat="37.77158483344153" lon="14.551220170751339"><ele>929.0000000000001</ele><time>2026-04-29T10:41:24Z</time></trkpt><trkpt lat="37.771610547665645" lon="14.551100720110194"><ele>929.0000000000001</ele><time>2026-04-29T10:41:26Z</time></trkpt><trkpt lat="37.77160605764631" lon="14.550952684817581"><ele>929.0</ele><time>2026-04-29T10:41:28Z</time></trkpt><trkpt lat="37.77155840544134" lon="14.550816598200184"><ele>929.0</ele><time>2026-04-29T10:41:30Z</time></trkpt><trkpt lat="37.77150999018074" lon="14.550765392090618"><ele>926.8000000000001</ele><time>2026-04-29T10:41:31Z</time></trkpt><trkpt lat="37.771449088611995" lon="14.550729472737858"><ele>924.6000000000001</ele><time>2026-04-29T10:41:32Z</time></trkpt><trkpt lat="37.77137340410665" lon="14.550715697202376"><ele>922.4</ele><time>2026-04-29T10:41:33Z</time></trkpt><trkpt lat="37.77129643520816" lon="14.5507266462167"><ele>920.2</ele><time>2026-04-29T10:41:34Z</time></trkpt><trkpt lat="37.77121087202467" lon="14.550742186926467"><ele>918.0</ele><time>2026-04-29T10:41:35Z</time></trkpt><trkpt lat="37.771093985097025" lon="14.550850695794896"><ele>915.6666666666667</ele><time>2026-04-29T10:41:36Z</time></trkpt><trkpt lat="37.77096838803782" lon="14.551017233608446"><ele>913.3333333333334</ele><time>2026-04-29T10:41:37Z</time></trkpt><trkpt lat="37.77083016779648" lon="14.551200370084405"><ele>911.0</ele><time>2026-04-29T10:41:38Z</time></trkpt><trkpt lat="37.77069290222691" lon="14.551379734060829"><ele>911.0</ele><time>2026-04-29T10:41:39Z</time></trkpt><trkpt lat="37.77058734480037" lon="14.551525117521997"><ele>911.0</ele><time>2026-04-29T10:41:40Z</time></trkpt><trkpt lat="37.770507316672166" lon="14.55165015347833"><ele>911.0</ele><time>2026-04-29T10:41:41Z</time></trkpt><trkpt lat="37.770408883144945" lon="14.551736971180716"><ele>911.0</ele><time>2026-04-29T10:41:42Z</time></trkpt><trkpt lat="37.77028423455751" lon="14.551795190456044"><ele>907.25</ele><time>2026-04-29T10:41:43Z</time></trkpt><trkpt lat="37.770120545819765" lon="14.551811202754836"><ele>903.5</ele><time>2026-04-29T10:41:44Z</time></trkpt><trkpt lat="37.76996691714116" lon="14.551808390083448"><ele>899.75</ele><time>2026-04-29T10:41:45Z</time></trkpt><trkpt lat="37.7698381763454" lon="14.551796496913662"><ele>896.0</ele><time>2026-04-29T10:41:46Z</time></trkpt><trkpt lat="37.76969069565567" lon="14.551755001083453"><ele>896.0</ele><time>2026-04-29T10:41:47Z</time></trkpt><trkpt lat="37.769523775654335" lon="14.551673642432391"><ele>896.0</ele><time>2026-04-29T10:41:48Z</time></trkpt><trkpt lat="37.76936203292233" lon="14.551557877252677"><ele>896.0</ele><time>2026-04-29T10:41:49Z</time></trkpt><trkpt lat="37.76919930542439" lon="14.551431586637865"><ele>892.6666666666667</ele><time>2026-04-29T10:41:50Z</time></trkpt><trkpt lat="37.76901818552221" lon="14.551300916409975"><ele>889.3333333333333</ele><time>2026-04-29T10:41:51Z</time></trkpt><trkpt lat="37.768839564196185" lon="14.551173846538678"><ele>886.0</ele><time>2026-04-29T10:41:52Z</time></trkpt><trkpt lat="37.76868476942684" lon="14.551064974989789"><ele>885.6666666666666</ele><time>2026-04-29T10:41:53Z</time></trkpt><trkpt lat="37.76854710746784" lon="14.550964913788324"><ele>885.3333333333333</ele><time>2026-04-29T10:41:54Z</time></trkpt><trkpt lat="37.768421996976834" lon="14.550863286992175"><ele>885.0</ele><time>2026-04-29T10:41:55Z</time></trkpt><trkpt lat="37.76831036243346" lon="14.550723896132974"><ele>882.6666666666667</ele><time>2026-04-29T10:41:56Z</time></trkpt><trkpt lat="37.76822910954405" lon="14.550519539891733"><ele>880.3333333333334</ele><time>2026-04-29T10:41:57Z</time></trkpt><trkpt lat="37.768164884138045" lon="14.550302598242444"><ele>878.0</ele><time>2026-04-29T10:41:58Z</time></trkpt><trkpt lat="37.768072479333334" lon="14.550114320811629"><ele>876.0</ele><time>2026-04-29T10:41:59Z</time></trkpt><trkpt lat="37.767920011596374" lon="14.549954722515613"><ele>874.0</ele><time>2026-04-29T10:42:00Z</time></trkpt><trkpt lat="37.76771226025159" lon="14.54981826503608"><ele>872.0</ele><time>2026-04-29T10:42:01Z</time></trkpt><trkpt lat="37.767495008161795" lon="14.549677334506484"><ele>865.5</ele><time>2026-04-29T10:42:02Z</time></trkpt><trkpt lat="37.767265845811814" lon="14.549534607966812"><ele>859.0</ele><time>2026-04-29T10:42:03Z</time></trkpt><trkpt lat="37.76704136407189" lon="14.549407349329615"><ele>856.0</ele><time>2026-04-29T10:42:04Z</time></trkpt><trkpt lat="37.766835141933115" lon="14.54929464864263"><ele>853.0</ele><time>2026-04-29T10:42:05Z</time></trkpt><trkpt lat="37.7666477553061" lon="14.549186902828001"><ele>850.0</ele><time>2026-04-29T10:42:06Z</time></trkpt><trkpt lat="37.766450738898875" lon="14.549075740837004"><ele>850.0</ele><time>2026-04-29T10:42:07Z</time></trkpt><trkpt lat="37.76626290441489" lon="14.548968904092233"><ele>850.0</ele><time>2026-04-29T10:42:08Z</time></trkpt><trkpt lat="37.766110067675804" lon="14.548878667669083"><ele>850.0</ele><time>2026-04-29T10:42:09Z</time></trkpt><trkpt lat="37.7659856621627" lon="14.548801713605561"><ele>848.25</ele><time>2026-04-29T10:42:10Z</time></trkpt><trkpt lat="37.765883532194515" lon="14.548724212478664"><ele>846.5</ele><time>2026-04-29T10:42:11Z</time></trkpt><trkpt lat="37.76580435683151" lon="14.548609613946876"><ele>844.75</ele><time>2026-04-29T10:42:12Z</time></trkpt><trkpt lat="37.7657650292423" lon="14.548437502812586"><ele>843.0</ele><time>2026-04-29T10:42:13Z</time></trkpt><trkpt lat="37.76577200541805" lon="14.548223626273005"><ele>843.0</ele><time>2026-04-29T10:42:14Z</time></trkpt><trkpt lat="37.76581222926682" lon="14.548007598491354"><ele>843.0</ele><time>2026-04-29T10:42:15Z</time></trkpt><trkpt lat="37.76584123722574" lon="14.547835629304158"><ele>843.0</ele><time>2026-04-29T10:42:16Z</time></trkpt><trkpt lat="37.76580774190441" lon="14.54768186841146"><ele>843.0</ele><time>2026-04-29T10:42:17Z</time></trkpt><trkpt lat="37.76571569032583" lon="14.547531403623346"><ele>841.3333333333333</ele><time>2026-04-29T10:42:18Z</time></trkpt><trkpt lat="37.765574030884636" lon="14.547408573098057"><ele>839.6666666666666</ele><time>2026-04-29T10:42:19Z</time></trkpt><trkpt lat="37.765374118798654" lon="14.54731433435292"><ele>838.0</ele><time>2026-04-29T10:42:20Z</time></trkpt><trkpt lat="37.76514909205794" lon="14.54721194935011"><ele>833.0</ele><time>2026-04-29T10:42:21Z</time></trkpt><trkpt lat="37.764919850651296" lon="14.547083889754568"><ele>828.0</ele><time>2026-04-29T10:42:22Z</time></trkpt><trkpt lat="37.76467530386867" lon="14.546934729601489"><ele>826.0</ele><time>2026-04-29T10:42:23Z</time></trkpt><trkpt lat="37.76443547353237" lon="14.546795761627685"><ele>824.0</ele><time>2026-04-29T10:42:24Z</time></trkpt><trkpt lat="37.7642176262446" lon="14.546674555314118"><ele>821.5</ele><time>2026-04-29T10:42:25Z</time></trkpt><trkpt lat="37.76400576032591" lon="14.546570326370176"><ele>819.0</ele><time>2026-04-29T10:42:26Z</time></trkpt><trkpt lat="37.76377933977757" lon="14.546489025958502"><ele>816.0</ele><time>2026-04-29T10:42:27Z</time></trkpt><trkpt lat="37.7635261340972" lon="14.546440789391518"><ele>813.0</ele><time>2026-04-29T10:42:28Z</time></trkpt><trkpt lat="37.76324972617928" lon="14.54641468672956"><ele>813.0</ele><time>2026-04-29T10:42:29Z</time></trkpt><trkpt lat="37.762968011619954" lon="14.546388302391065"><ele>813.0</ele><time>2026-04-29T10:42:30Z</time></trkpt><trkpt lat="37.7627182880012" lon="14.54636233206626"><ele>809.0</ele><time>2026-04-29T10:42:31Z</time></trkpt><trkpt lat="37.762493914944514" lon="14.546332300237367"><ele>805.0</ele><time>2026-04-29T10:42:32Z</time></trkpt><trkpt lat="37.762268152470725" lon="14.546289511681309"><ele>805.0</ele><time>2026-04-29T10:42:33Z</time></trkpt><trkpt lat="37.76202887178435" lon="14.546206058326499"><ele>805.0</ele><time>2026-04-29T10:42:34Z</time></trkpt><trkpt lat="37.7617792660405" lon="14.546070596837207"><ele>801.5</ele><time>2026-04-29T10:42:35Z</time></trkpt><trkpt lat="37.76152203436882" lon="14.545902219102082"><ele>798.0</ele><time>2026-04-29T10:42:36Z</time></trkpt><trkpt lat="37.761250662681185" lon="14.545723428212913"><ele>796.0</ele><time>2026-04-29T10:42:37Z</time></trkpt><trkpt lat="37.76096107141145" lon="14.545549612160505"><ele>794.0</ele><time>2026-04-29T10:42:38Z</time></trkpt><trkpt lat="37.76065874071711" lon="14.545379902753945"><ele>790.0</ele><time>2026-04-29T10:42:39Z</time></trkpt><trkpt lat="37.76036124718383" lon="14.545207477778824"><ele>786.0</ele><time>2026-04-29T10:42:40Z</time></trkpt><trkpt lat="37.76008523941912" lon="14.545041932409086"><ele>786.0</ele><time>2026-04-29T10:42:41Z</time></trkpt><trkpt lat="37.759816379309825" lon="14.544881881499888"><ele>786.0</ele><time>2026-04-29T10:42:42Z</time></trkpt><trkpt lat="37.75956030947811" lon="14.544736763960676"><ele>784.0</ele><time>2026-04-29T10:42:43Z</time></trkpt><trkpt lat="37.759317254291624" lon="14.544608487731182"><ele>782.0</ele><time>2026-04-29T10:42:44Z</time></trkpt><trkpt lat="37.75907972747143" lon="14.5444920743401"><ele>780.0</ele><time>2026-04-29T10:42:45Z</time></trkpt><trkpt lat="37.75884339394614" lon="14.544388375106386"><ele>778.0</ele><time>2026-04-29T10:42:46Z</time></trkpt><trkpt lat="37.75860858955989" lon="14.544291578463472"><ele>778.5</ele><time>2026-04-29T10:42:47Z</time></trkpt><trkpt lat="37.75836917421204" lon="14.544211825770168"><ele>779.0</ele><time>2026-04-29T10:42:48Z</time></trkpt><trkpt lat="37.7581260171559" lon="14.544172566499977"><ele>779.0</ele><time>2026-04-29T10:42:49Z</time></trkpt><trkpt lat="37.75789284818956" lon="14.544168788427376"><ele>779.0</ele><time>2026-04-29T10:42:50Z</time></trkpt><trkpt lat="37.757672204639576" lon="14.544162359421842"><ele>780.3333333333334</ele><time>2026-04-29T10:42:51Z</time></trkpt><trkpt lat="37.75746213043684" lon="14.54412969873792"><ele>781.6666666666667</ele><time>2026-04-29T10:42:52Z</time></trkpt><trkpt lat="37.75725088287152" lon="14.544053674095803"><ele>783.0</ele><time>2026-04-29T10:42:53Z</time></trkpt><trkpt lat="37.757045159050726" lon="14.54395889166452"><ele>783.0</ele><time>2026-04-29T10:42:54Z</time></trkpt><trkpt lat="37.756873322545445" lon="14.543865298095833"><ele>783.0</ele><time>2026-04-29T10:42:55Z</time></trkpt><trkpt lat="37.75672566590253" lon="14.54376107862919"><ele>783.0</ele><time>2026-04-29T10:42:56Z</time></trkpt><trkpt lat="37.756581933088825" lon="14.54361641230218"><ele>785.0</ele><time>2026-04-29T10:42:57Z</time></trkpt><trkpt lat="37.75644504075704" lon="14.543416948288076"><ele>787.0</ele><time>2026-04-29T10:42:58Z</time></trkpt><trkpt lat="37.7563079957202" lon="14.543198638264972"><ele>789.0</ele><time>2026-04-29T10:42:59Z</time></trkpt><trkpt lat="37.75616020082842" lon="14.54298218350566"><ele>786.5</ele><time>2026-04-29T10:43:00Z</time></trkpt><trkpt lat="37.755986317961394" lon="14.542784426036183"><ele>784.0</ele><time>2026-04-29T10:43:01Z</time></trkpt><trkpt lat="37.755791210744874" lon="14.542642661836236"><ele>784.0</ele><time>2026-04-29T10:43:02Z</time></trkpt><trkpt lat="37.75559576610704" lon="14.542558830995425"><ele>784.0</ele><time>2026-04-29T10:43:03Z</time></trkpt><trkpt lat="37.755412989431306" lon="14.542496531772295"><ele>784.0</ele><time>2026-04-29T10:43:04Z</time></trkpt><trkpt lat="37.75524636482648" lon="14.542423442763083"><ele>783.6666666666666</ele><time>2026-04-29T10:43:05Z</time></trkpt><trkpt lat="37.75509685790804" lon="14.542358716077372"><ele>783.3333333333333</ele><time>2026-04-29T10:43:06Z</time></trkpt><trkpt lat="37.75493751972138" lon="14.542324432715438"><ele>783.0</ele><time>2026-04-29T10:43:07Z</time></trkpt><trkpt lat="37.754785290732315" lon="14.542326838145716"><ele>783.0</ele><time>2026-04-29T10:43:08Z</time></trkpt><trkpt lat="37.7546456454935" lon="14.542302917024017"><ele>783.0</ele><time>2026-04-29T10:43:09Z</time></trkpt><trkpt lat="37.75462902149312" lon="14.542914968923176"><ele>782.5</ele><time>2026-04-29T10:43:10Z</time></trkpt><trkpt lat="37.75447813323607" lon="14.542944230715028"><ele>782.0</ele><time>2026-04-29T10:43:11Z</time></trkpt><trkpt lat="37.754325873161115" lon="14.542970068574943"><ele>781.5</ele><time>2026-04-29T10:43:12Z</time></trkpt><trkpt lat="37.75427304742425" lon="14.543019856646286"><ele>781.0</ele><time>2026-04-29T10:43:13Z</time></trkpt><trkpt lat="37.75386875512221" lon="14.542460356743055"><ele>783.3333333333333</ele><time>2026-04-29T10:43:14Z</time></trkpt><trkpt lat="37.75371018368345" lon="14.542497250901953"><ele>785.6666666666667</ele><time>2026-04-29T10:43:15Z</time></trkpt><trkpt lat="37.75355989352727" lon="14.54257229445913"><ele>788.0</ele><time>2026-04-29T10:43:16Z</time></trkpt><trkpt lat="37.753416141071234" lon="14.542669099028162"><ele>790.0</ele><time>2026-04-29T10:43:17Z</time></trkpt><trkpt lat="37.75327293455387" lon="14.542768439809063"><ele>792.0</ele><time>2026-04-29T10:43:18Z</time></trkpt><trkpt lat="37.753129698656814" lon="14.542846548622066"><ele>794.0</ele><time>2026-04-29T10:43:19Z</time></trkpt><trkpt lat="37.75298255584576" lon="14.5429046163299"><ele>794.0</ele><time>2026-04-29T10:43:20Z</time></trkpt><trkpt lat="37.75282829361151" lon="14.542933478491106"><ele>794.0</ele><time>2026-04-29T10:43:21Z</time></trkpt><trkpt lat="37.752671623336965" lon="14.542923599407175"><ele>794.0</ele><time>2026-04-29T10:43:22Z</time></trkpt><trkpt lat="37.75251494574728" lon="14.542880955034038"><ele>799.0</ele><time>2026-04-29T10:43:23Z</time></trkpt><trkpt lat="37.75235614876137" lon="14.542834013482823"><ele>804.0</ele><time>2026-04-29T10:43:24Z</time></trkpt><trkpt lat="37.752199372865384" lon="14.542805109143666"><ele>809.0</ele><time>2026-04-29T10:43:25Z</time></trkpt><trkpt lat="37.7520254320786" lon="14.54278607160306"><ele>815.0</ele><time>2026-04-29T10:43:26Z</time></trkpt><trkpt lat="37.75184452188469" lon="14.54276040976603"><ele>821.0</ele><time>2026-04-29T10:43:27Z</time></trkpt><trkpt lat="37.75166668270983" lon="14.542726920684828"><ele>827.0</ele><time>2026-04-29T10:43:28Z</time></trkpt><trkpt lat="37.751488877338915" lon="14.54269252687213"><ele>827.0</ele><time>2026-04-29T10:43:29Z</time></trkpt><trkpt lat="37.751311264740984" lon="14.542688733494494"><ele>827.0</ele><time>2026-04-29T10:43:30Z</time></trkpt><trkpt lat="37.751175966104306" lon="14.542656869962913"><ele>827.0</ele><time>2026-04-29T10:43:31Z</time></trkpt><trkpt lat="37.75103443517541" lon="14.542603984001726"><ele>821.6666666666667</ele><time>2026-04-29T10:43:32Z</time></trkpt><trkpt lat="37.750920160856445" lon="14.542491735543276"><ele>816.3333333333333</ele><time>2026-04-29T10:43:33Z</time></trkpt><trkpt lat="37.75081463867871" lon="14.542316653826884"><ele>811.0</ele><time>2026-04-29T10:43:34Z</time></trkpt><trkpt lat="37.75072270110425" lon="14.542155564313125"><ele>813.0</ele><time>2026-04-29T10:43:35Z</time></trkpt><trkpt lat="37.75064346548245" lon="14.541994831903255"><ele>815.0</ele><time>2026-04-29T10:43:36Z</time></trkpt><trkpt lat="37.750591251428624" lon="14.541831897871727"><ele>817.0</ele><time>2026-04-29T10:43:37Z</time></trkpt><trkpt lat="37.75058518622949" lon="14.541635471448354"><ele>819.0</ele><time>2026-04-29T10:43:38Z</time></trkpt><trkpt lat="37.75059683678197" lon="14.541451402299451"><ele>819.0</ele><time>2026-04-29T10:43:39Z</time></trkpt><trkpt lat="37.75054447918125" lon="14.541286988685153"><ele>819.0</ele><time>2026-04-29T10:43:40Z</time></trkpt><trkpt lat="37.75043685906161" lon="14.54113323826969"><ele>819.0</ele><time>2026-04-29T10:43:41Z</time></trkpt><trkpt lat="37.75028573877655" lon="14.541015422291258"><ele>816.6666666666667</ele><time>2026-04-29T10:43:42Z</time></trkpt><trkpt lat="37.75012860181824" lon="14.540887210430578"><ele>814.3333333333334</ele><time>2026-04-29T10:43:43Z</time></trkpt><trkpt lat="37.74999687475259" lon="14.54070466465801"><ele>812.0</ele><time>2026-04-29T10:43:44Z</time></trkpt><trkpt lat="37.74987003701361" lon="14.540547225498848"><ele>812.0</ele><time>2026-04-29T10:43:45Z</time></trkpt><trkpt lat="37.749722652588346" lon="14.540436248717267"><ele>812.0</ele><time>2026-04-29T10:43:46Z</time></trkpt><trkpt lat="37.74957845550184" lon="14.54034650877293"><ele>812.0</ele><time>2026-04-29T10:43:47Z</time></trkpt><trkpt lat="37.7494485186052" lon="14.540256129047924"><ele>812.0</ele><time>2026-04-29T10:43:48Z</time></trkpt><trkpt lat="37.749337478769036" lon="14.540125817888688"><ele>812.0</ele><time>2026-04-29T10:43:49Z</time></trkpt><trkpt lat="37.749260978784434" lon="14.539963795041361"><ele>812.0</ele><time>2026-04-29T10:43:50Z</time></trkpt><trkpt lat="37.74918548553848" lon="14.539816994098825"><ele>812.0</ele><time>2026-04-29T10:43:51Z</time></trkpt><trkpt lat="37.749076885732286" lon="14.539705358557182"><ele>812.0</ele><time>2026-04-29T10:43:52Z</time></trkpt><trkpt lat="37.748945555366724" lon="14.539661794564644"><ele>812.0</ele><time>2026-04-29T10:43:53Z</time></trkpt><trkpt lat="37.7488020117523" lon="14.53967450356043"><ele>812.0</ele><time>2026-04-29T10:43:54Z</time></trkpt><trkpt lat="37.748637640935186" lon="14.539799370429325"><ele>811.25</ele><time>2026-04-29T10:43:55Z</time></trkpt><trkpt lat="37.74849936608935" lon="14.539871686103277"><ele>810.5</ele><time>2026-04-29T10:43:56Z</time></trkpt><trkpt lat="37.7483691791993" lon="14.53992058810269"><ele>809.75</ele><time>2026-04-29T10:43:57Z</time></trkpt><trkpt lat="37.74824880364574" lon="14.539961247727069"><ele>809.0</ele><time>2026-04-29T10:43:58Z</time></trkpt><trkpt lat="37.74813854312391" lon="14.53998940553129"><ele>809.0</ele><time>2026-04-29T10:43:59Z</time></trkpt><trkpt lat="37.74802115203254" lon="14.539985868350218"><ele>809.0</ele><time>2026-04-29T10:44:00Z</time></trkpt><trkpt lat="37.74789014084765" lon="14.539931348411203"><ele>809.0</ele><time>2026-04-29T10:44:01Z</time></trkpt><trkpt lat="37.74775292652699" lon="14.539846482389997"><ele>809.0</ele><time>2026-04-29T10:44:02Z</time></trkpt><trkpt lat="37.747612307561006" lon="14.539749011986768"><ele>808.3333333333334</ele><time>2026-04-29T10:44:03Z</time></trkpt><trkpt lat="37.74747305415041" lon="14.539643283617965"><ele>807.6666666666667</ele><time>2026-04-29T10:44:04Z</time></trkpt><trkpt lat="37.74735355112505" lon="14.539521634921721"><ele>807.0</ele><time>2026-04-29T10:44:05Z</time></trkpt><trkpt lat="37.74725515861299" lon="14.539387180318398"><ele>810.6666666666667</ele><time>2026-04-29T10:44:06Z</time></trkpt><trkpt lat="37.74714377988038" lon="14.539251499335604"><ele>814.3333333333334</ele><time>2026-04-29T10:44:07Z</time></trkpt><trkpt lat="37.746999424712286" lon="14.539148450458628"><ele>818.0</ele><time>2026-04-29T10:44:08Z</time></trkpt><trkpt lat="37.74682854818613" lon="14.539095363588064"><ele>818.0</ele><time>2026-04-29T10:44:09Z</time></trkpt><trkpt lat="37.74666893967426" lon="14.539068180211562"><ele>818.0</ele><time>2026-04-29T10:44:10Z</time></trkpt><trkpt lat="37.74653313075216" lon="14.53902105775929"><ele>818.0</ele><time>2026-04-29T10:44:11Z</time></trkpt><trkpt lat="37.74642422397145" lon="14.538913690652908"><ele>818.0</ele><time>2026-04-29T10:44:12Z</time></trkpt><trkpt lat="37.74635264471956" lon="14.538773922595539"><ele>819.5</ele><time>2026-04-29T10:44:13Z</time></trkpt><trkpt lat="37.746326853889684" lon="14.538612607064385"><ele>821.0</ele><time>2026-04-29T10:44:14Z</time></trkpt><trkpt lat="37.74634407957302" lon="14.538441323989574"><ele>822.5</ele><time>2026-04-29T10:44:15Z</time></trkpt><trkpt lat="37.746404564664665" lon="14.5382667512905"><ele>824.0</ele><time>2026-04-29T10:44:16Z</time></trkpt><trkpt lat="37.74648925981111" lon="14.538112228066856"><ele>824.0</ele><time>2026-04-29T10:44:17Z</time></trkpt><trkpt lat="37.746563621707374" lon="14.537953587371232"><ele>824.0</ele><time>2026-04-29T10:44:18Z</time></trkpt><trkpt lat="37.746594090563306" lon="14.537782646224551"><ele>824.0</ele><time>2026-04-29T10:44:19Z</time></trkpt><trkpt lat="37.746580998052046" lon="14.53760590109697"><ele>824.0</ele><time>2026-04-29T10:44:20Z</time></trkpt><trkpt lat="37.746529045100914" lon="14.537442713890602"><ele>820.5</ele><time>2026-04-29T10:44:21Z</time></trkpt><trkpt lat="37.74644845575046" lon="14.537310132890813"><ele>817.0</ele><time>2026-04-29T10:44:22Z</time></trkpt><trkpt lat="37.74634087835581" lon="14.53721867456099"><ele>813.5</ele><time>2026-04-29T10:44:23Z</time></trkpt><trkpt lat="37.74620231062216" lon="14.53716159130847"><ele>810.0</ele><time>2026-04-29T10:44:24Z</time></trkpt><trkpt lat="37.74605633984663" lon="14.537107155069053"><ele>805.75</ele><time>2026-04-29T10:44:25Z</time></trkpt><trkpt lat="37.74591941507728" lon="14.537065846994949"><ele>801.5</ele><time>2026-04-29T10:44:26Z</time></trkpt><trkpt lat="37.745791772616805" lon="14.537014886314596"><ele>797.25</ele><time>2026-04-29T10:44:27Z</time></trkpt><trkpt lat="37.745667700577314" lon="14.536941217103653"><ele>793.0</ele><time>2026-04-29T10:44:28Z</time></trkpt><trkpt lat="37.7455604933525" lon="14.536818877778929"><ele>788.6666666666666</ele><time>2026-04-29T10:44:29Z</time></trkpt><trkpt lat="37.74546010053636" lon="14.536655449465805"><ele>784.3333333333333</ele><time>2026-04-29T10:44:30Z</time></trkpt><trkpt lat="37.74535527923661" lon="14.53647267991911"><ele>780.0</ele><time>2026-04-29T10:44:31Z</time></trkpt><trkpt lat="37.74527425453978" lon="14.536287004954994"><ele>779.6666666666667</ele><time>2026-04-29T10:44:32Z</time></trkpt><trkpt lat="37.74517919037419" lon="14.536117059237025"><ele>779.3333333333334</ele><time>2026-04-29T10:44:33Z</time></trkpt><trkpt lat="37.74506732731405" lon="14.535948886665906"><ele>779.0</ele><time>2026-04-29T10:44:34Z</time></trkpt><trkpt lat="37.744925027716015" lon="14.535791545061029"><ele>779.0</ele><time>2026-04-29T10:44:35Z</time></trkpt><trkpt lat="37.744770132231466" lon="14.53564177555864"><ele>779.0</ele><time>2026-04-29T10:44:36Z</time></trkpt><trkpt lat="37.74461849753204" lon="14.535495853408236"><ele>779.0</ele><time>2026-04-29T10:44:37Z</time></trkpt><trkpt lat="37.744472470600506" lon="14.535347655423612"><ele>773.6666666666667</ele><time>2026-04-29T10:44:38Z</time></trkpt><trkpt lat="37.74432966175632" lon="14.535197289832544"><ele>768.3333333333334</ele><time>2026-04-29T10:44:39Z</time></trkpt><trkpt lat="37.7441908328516" lon="14.535046559119955"><ele>763.0</ele><time>2026-04-29T10:44:40Z</time></trkpt><trkpt lat="37.74405786334859" lon="14.534902245185132"><ele>763.0</ele><time>2026-04-29T10:44:41Z</time></trkpt><trkpt lat="37.74392412973789" lon="14.5347692908086"><ele>763.0</ele><time>2026-04-29T10:44:42Z</time></trkpt><trkpt lat="37.743769418411965" lon="14.534664155375834"><ele>763.0</ele><time>2026-04-29T10:44:43Z</time></trkpt><trkpt lat="37.74358434742457" lon="14.534593064969682"><ele>759.3333333333334</ele><time>2026-04-29T10:44:44Z</time></trkpt><trkpt lat="37.743377955705014" lon="14.534558653218136"><ele>755.6666666666666</ele><time>2026-04-29T10:44:45Z</time></trkpt><trkpt lat="37.743166846846584" lon="14.534544062809502"><ele>752.0</ele><time>2026-04-29T10:44:46Z</time></trkpt><trkpt lat="37.74297180491032" lon="14.534530263316789"><ele>748.3333333333333</ele><time>2026-04-29T10:44:47Z</time></trkpt><trkpt lat="37.742788114763954" lon="14.53451715561901"><ele>744.6666666666666</ele><time>2026-04-29T10:44:48Z</time></trkpt><trkpt lat="37.74261483769178" lon="14.534503505165409"><ele>741.0</ele><time>2026-04-29T10:44:49Z</time></trkpt><trkpt lat="37.74244785037639" lon="14.534479467280928"><ele>738.0</ele><time>2026-04-29T10:44:50Z</time></trkpt><trkpt lat="37.74227885536088" lon="14.534439471735766"><ele>735.0</ele><time>2026-04-29T10:44:51Z</time></trkpt><trkpt lat="37.74210432567267" lon="14.534368221778042"><ele>732.0</ele><time>2026-04-29T10:44:52Z</time></trkpt><trkpt lat="37.74192353004839" lon="14.534306015084823"><ele>731.0</ele><time>2026-04-29T10:44:53Z</time></trkpt><trkpt lat="37.74175218953736" lon="14.534225452886325"><ele>730.0</ele><time>2026-04-29T10:44:54Z</time></trkpt><trkpt lat="37.74159241988933" lon="14.534126944812243"><ele>729.0</ele><time>2026-04-29T10:44:55Z</time></trkpt><trkpt lat="37.74143230176269" lon="14.534045063903653"><ele>729.0</ele><time>2026-04-29T10:44:56Z</time></trkpt><trkpt lat="37.74126909487266" lon="14.533960365034789"><ele>729.0</ele><time>2026-04-29T10:44:57Z</time></trkpt><trkpt lat="37.741117193968144" lon="14.533834693672027"><ele>729.0</ele><time>2026-04-29T10:44:58Z</time></trkpt><trkpt lat="37.74097253188743" lon="14.533695971978721"><ele>729.3333333333334</ele><time>2026-04-29T10:44:59Z</time></trkpt><trkpt lat="37.74083131612215" lon="14.5335655106459"><ele>729.6666666666667</ele><time>2026-04-29T10:45:00Z</time></trkpt><trkpt lat="37.7406848043369" lon="14.53345850394797"><ele>730.0</ele><time>2026-04-29T10:45:01Z</time></trkpt><trkpt lat="37.74053423955642" lon="14.533369316218243"><ele>730.0</ele><time>2026-04-29T10:45:02Z</time></trkpt><trkpt lat="37.74038087622952" lon="14.533288955460534"><ele>730.0</ele><time>2026-04-29T10:45:03Z</time></trkpt><trkpt lat="37.740233718023894" lon="14.533203900391952"><ele>730.0</ele><time>2026-04-29T10:45:04Z</time></trkpt><trkpt lat="37.74009506156531" lon="14.533103559523095"><ele>726.3333333333334</ele><time>2026-04-29T10:45:05Z</time></trkpt><trkpt lat="37.73996865986055" lon="14.53298379271638"><ele>722.6666666666666</ele><time>2026-04-29T10:45:06Z</time></trkpt><trkpt lat="37.739842721368284" lon="14.53284189870162"><ele>719.0</ele><time>2026-04-29T10:45:07Z</time></trkpt><trkpt lat="37.73971198796875" lon="14.532676151286957"><ele>719.0</ele><time>2026-04-29T10:45:08Z</time></trkpt><trkpt lat="37.73957160317722" lon="14.532503488588507"><ele>719.0</ele><time>2026-04-29T10:45:09Z</time></trkpt><trkpt lat="37.73942982316231" lon="14.532329238128579"><ele>719.0</ele><time>2026-04-29T10:45:10Z</time></trkpt><trkpt lat="37.739292463638094" lon="14.532135486694559"><ele>717.3333333333333</ele><time>2026-04-29T10:45:11Z</time></trkpt><trkpt lat="37.739176140998325" lon="14.531924687482034"><ele>715.6666666666666</ele><time>2026-04-29T10:45:12Z</time></trkpt><trkpt lat="37.73909156581518" lon="14.531712840325406"><ele>714.0</ele><time>2026-04-29T10:45:13Z</time></trkpt><trkpt lat="37.739019184024585" lon="14.531521615101823"><ele>714.0</ele><time>2026-04-29T10:45:14Z</time></trkpt><trkpt lat="37.73894140764174" lon="14.531343196775191"><ele>714.0</ele><time>2026-04-29T10:45:15Z</time></trkpt><trkpt lat="37.73886373299561" lon="14.53117845954584"><ele>714.0</ele><time>2026-04-29T10:45:16Z</time></trkpt><trkpt lat="37.738777837080754" lon="14.531016565818476"><ele>712.0</ele><time>2026-04-29T10:45:17Z</time></trkpt><trkpt lat="37.73866922353355" lon="14.530863328452961"><ele>710.0</ele><time>2026-04-29T10:45:18Z</time></trkpt><trkpt lat="37.738530522305005" lon="14.530764528231733"><ele>708.0</ele><time>2026-04-29T10:45:19Z</time></trkpt><trkpt lat="37.73839098919585" lon="14.530686882008107"><ele>705.0</ele><time>2026-04-29T10:45:20Z</time></trkpt><trkpt lat="37.73825087062829" lon="14.530633145529462"><ele>702.0</ele><time>2026-04-29T10:45:21Z</time></trkpt><trkpt lat="37.738127978309514" lon="14.530546211355238"><ele>699.0</ele><time>2026-04-29T10:45:22Z</time></trkpt><trkpt lat="37.7380040700655" lon="14.530482980935027"><ele>696.0</ele><time>2026-04-29T10:45:23Z</time></trkpt><trkpt lat="37.73787607187156" lon="14.530443656352318"><ele>696.0</ele><time>2026-04-29T10:45:24Z</time></trkpt><trkpt lat="37.7377548770046" lon="14.53041610564012"><ele>696.0</ele><time>2026-04-29T10:45:25Z</time></trkpt><trkpt lat="37.737656903992644" lon="14.530393711432122"><ele>696.0</ele><time>2026-04-29T10:45:26Z</time></trkpt><trkpt lat="37.7375757040438" lon="14.530418422566893"><ele>696.0</ele><time>2026-04-29T10:45:28Z</time></trkpt><trkpt lat="37.737499734622745" lon="14.530487783046654"><ele>696.0</ele><time>2026-04-29T10:57:51.999Z</time></trkpt><trkpt lat="37.73743574053752" lon="14.530585420768594"><ele>695.4</ele><time>2026-04-29T10:57:52.999Z</time></trkpt><trkpt lat="37.737358063690706" lon="14.53069560952251"><ele>694.8</ele><time>2026-04-29T10:57:53.999Z</time></trkpt><trkpt lat="37.73727264416822" lon="14.530775308879011"><ele>694.1999999999999</ele><time>2026-04-29T10:57:54.999Z</time></trkpt><trkpt lat="37.73721085606994" lon="14.530858905004164"><ele>693.5999999999999</ele><time>2026-04-29T10:57:55.999Z</time></trkpt><trkpt lat="37.73716683403391" lon="14.530968228408797"><ele>693.0</ele><time>2026-04-29T10:57:56.999Z</time></trkpt><trkpt lat="37.73708230670804" lon="14.531098619997124"><ele>692.0</ele><time>2026-04-29T10:57:57.999Z</time></trkpt><trkpt lat="37.7369999896296" lon="14.53122450554004"><ele>691.0</ele><time>2026-04-29T10:57:58.999Z</time></trkpt><trkpt lat="37.736923536139095" lon="14.531336879173791"><ele>690.0</ele><time>2026-04-29T10:57:59.999Z</time></trkpt><trkpt lat="37.73685185032843" lon="14.531458615414254"><ele>689.0</ele><time>2026-04-29T10:58:00.999Z</time></trkpt><trkpt lat="37.73679061127592" lon="14.531603179229437"><ele>689.0</ele><time>2026-04-29T10:58:01.999Z</time></trkpt><trkpt lat="37.73676614177837" lon="14.531758987090585"><ele>689.0</ele><time>2026-04-29T10:58:02.999Z</time></trkpt><trkpt lat="37.736783179886075" lon="14.531962454920524"><ele>689.0</ele><time>2026-04-29T10:58:03.998Z</time></trkpt><trkpt lat="37.736802928120696" lon="14.532193020131693"><ele>686.3333333333333</ele><time>2026-04-29T10:58:04.998Z</time></trkpt><trkpt lat="37.73680195042604" lon="14.5323886139209"><ele>683.6666666666666</ele><time>2026-04-29T10:58:05.998Z</time></trkpt><trkpt lat="37.73676997911682" lon="14.532558277734097"><ele>681.0</ele><time>2026-04-29T10:58:06.998Z</time></trkpt><trkpt lat="37.73670512192156" lon="14.53274494443221"><ele>679.6666666666666</ele><time>2026-04-29T10:58:07.998Z</time></trkpt><trkpt lat="37.73661756705217" lon="14.532948109419715"><ele>678.3333333333333</ele><time>2026-04-29T10:58:08.998Z</time></trkpt><trkpt lat="37.73653201352394" lon="14.533128273117883"><ele>677.0</ele><time>2026-04-29T10:58:09.998Z</time></trkpt><trkpt lat="37.73646323925064" lon="14.533278428343834"><ele>677.0</ele><time>2026-04-29T10:58:10.998Z</time></trkpt><trkpt lat="37.736419412494136" lon="14.533416093060774"><ele>677.0</ele><time>2026-04-29T10:58:11.998Z</time></trkpt><trkpt lat="37.736414031671366" lon="14.533555286255432"><ele>677.0</ele><time>2026-04-29T10:58:12.998Z</time></trkpt><trkpt lat="37.73644708066478" lon="14.533718847553516"><ele>677.0</ele><time>2026-04-29T10:58:13.999Z</time></trkpt><trkpt lat="37.736502317438365" lon="14.533912963403557"><ele>675.75</ele><time>2026-04-29T10:58:14.999Z</time></trkpt><trkpt lat="37.73654337450666" lon="14.534100622236357"><ele>674.5</ele><time>2026-04-29T10:58:15.999Z</time></trkpt><trkpt lat="37.73657774625236" lon="14.534268142637846"><ele>673.25</ele><time>2026-04-29T10:58:16.999Z</time></trkpt><trkpt lat="37.73660711213115" lon="14.534420475872647"><ele>672.0</ele><time>2026-04-29T10:58:17.999Z</time></trkpt><trkpt lat="37.73662621090881" lon="14.534563130762919"><ele>671.2</ele><time>2026-04-29T10:58:18.999Z</time></trkpt><trkpt lat="37.7366274918751" lon="14.534701874323652"><ele>670.4000000000001</ele><time>2026-04-29T10:58:19.999Z</time></trkpt><trkpt lat="37.73660163591792" lon="14.534837675329205"><ele>669.5999999999999</ele><time>2026-04-29T10:58:20.999Z</time></trkpt><trkpt lat="37.73655826822856" lon="14.53496209130215"><ele>668.8</ele><time>2026-04-29T10:58:21.999Z</time></trkpt><trkpt lat="37.73649854834075" lon="14.535050601951438"><ele>668.0</ele><time>2026-04-29T10:58:22.999Z</time></trkpt><trkpt lat="37.736416976599486" lon="14.535113894138416"><ele>668.0</ele><time>2026-04-29T10:58:23.999Z</time></trkpt><trkpt lat="37.73632762077169" lon="14.53517507687001"><ele>668.0</ele><time>2026-04-29T10:58:24.999Z</time></trkpt><trkpt lat="37.73624761194006" lon="14.535227356229303"><ele>668.0</ele><time>2026-04-29T10:58:25.999Z</time></trkpt><trkpt lat="37.73615577343843" lon="14.535266333315981"><ele>668.0</ele><time>2026-04-29T10:58:26.999Z</time></trkpt><trkpt lat="37.736054080840546" lon="14.535289793525296"><ele>668.0</ele><time>2026-04-29T10:58:27.999Z</time></trkpt><trkpt lat="37.735965356255164" lon="14.535287098979493"><ele>668.5</ele><time>2026-04-29T10:58:28.999Z</time></trkpt><trkpt lat="37.73589057404669" lon="14.53526209785622"><ele>669.0</ele><time>2026-04-29T10:58:29.999Z</time></trkpt><trkpt lat="37.73581973870694" lon="14.535251722463707"><ele>669.5</ele><time>2026-04-29T10:58:42.999Z</time></trkpt><trkpt lat="37.735747720186936" lon="14.535252425996388"><ele>670.0</ele><time>2026-04-29T10:59:45.999Z</time></trkpt><trkpt lat="37.7356438263463" lon="14.535246239229712"><ele>670.5</ele><time>2026-04-29T10:59:48.999Z</time></trkpt><trkpt lat="37.73556312453903" lon="14.53523446946361"><ele>671.0</ele><time>2026-04-29T10:59:49.999Z</time></trkpt><trkpt lat="37.735465138773556" lon="14.535213255008648"><ele>671.0</ele><time>2026-04-29T10:59:50.999Z</time></trkpt><trkpt lat="37.73537306267446" lon="14.535194849149988"><ele>671.0</ele><time>2026-04-29T10:59:51.999Z</time></trkpt><trkpt lat="37.73529453332925" lon="14.535134745363326"><ele>671.0</ele><time>2026-04-29T10:59:52.999Z</time></trkpt><trkpt lat="37.73521100959468" lon="14.535100960066726"><ele>671.0</ele><time>2026-04-29T10:59:53.999Z</time></trkpt><trkpt lat="37.73511834462718" lon="14.535090651576134"><ele>671.0</ele><time>2026-04-29T10:59:54.999Z</time></trkpt><trkpt lat="37.73503139506743" lon="14.535048150946976"><ele>669.8</ele><time>2026-04-29T10:59:55.999Z</time></trkpt><trkpt lat="37.734942822165685" lon="14.53500590537967"><ele>668.5999999999999</ele><time>2026-04-29T10:59:56.999Z</time></trkpt><trkpt lat="37.734846690243295" lon="14.534970981382218"><ele>667.4</ele><time>2026-04-29T10:59:57.999Z</time></trkpt><trkpt lat="37.734754866246774" lon="14.534953589192469"><ele>666.2</ele><time>2026-04-29T10:59:58.999Z</time></trkpt><trkpt lat="37.73465504818643" lon="14.53496188849505"><ele>665.0</ele><time>2026-04-29T10:59:59.999Z</time></trkpt><trkpt lat="37.73454911004444" lon="14.535020619102948"><ele>665.0</ele><time>2026-04-29T11:00:00.999Z</time></trkpt><trkpt lat="37.734454900848185" lon="14.535114846255933"><ele>665.0</ele><time>2026-04-29T11:00:01.999Z</time></trkpt><trkpt lat="37.73436823997622" lon="14.535205639158063"><ele>665.0</ele><time>2026-04-29T11:00:02.999Z</time></trkpt><trkpt lat="37.734269449755566" lon="14.535295229706104"><ele>665.0</ele><time>2026-04-29T11:00:03.999Z</time></trkpt><trkpt lat="37.7341701249257" lon="14.535377102129232"><ele>661.0</ele><time>2026-04-29T11:00:04.999Z</time></trkpt><trkpt lat="37.7340703505066" lon="14.53545741123961"><ele>657.0</ele><time>2026-04-29T11:00:05.999Z</time></trkpt><trkpt lat="37.7339811809009" lon="14.535542258588276"><ele>653.0</ele><time>2026-04-29T11:00:06.999Z</time></trkpt><trkpt lat="37.7339012242217" lon="14.535631407164166"><ele>649.0</ele><time>2026-04-29T11:00:07.999Z</time></trkpt><trkpt lat="37.73385311492997" lon="14.535736863332444"><ele>645.0</ele><time>2026-04-29T11:00:08.999Z</time></trkpt><trkpt lat="37.73383467843944" lon="14.535865134033257"><ele>645.0</ele><time>2026-04-29T11:00:09.999Z</time></trkpt><trkpt lat="37.733839286944324" lon="14.53601325427909"><ele>645.0</ele><time>2026-04-29T11:00:10.999Z</time></trkpt><trkpt lat="37.73385974913147" lon="14.536176914209019"><ele>645.0</ele><time>2026-04-29T11:00:11.999Z</time></trkpt><trkpt lat="37.733885203774875" lon="14.536327917095893"><ele>645.0</ele><time>2026-04-29T11:00:12.999Z</time></trkpt><trkpt lat="37.73392389575499" lon="14.536469434408879"><ele>643.25</ele><time>2026-04-29T11:00:13.999Z</time></trkpt><trkpt lat="37.7339797192448" lon="14.536604465106219"><ele>641.5</ele><time>2026-04-29T11:00:14.999Z</time></trkpt><trkpt lat="37.734056914260584" lon="14.536724060740513"><ele>639.75</ele><time>2026-04-29T11:00:15.999Z</time></trkpt><trkpt lat="37.73414765195949" lon="14.536826724701237"><ele>638.0</ele><time>2026-04-29T11:00:16.999Z</time></trkpt><trkpt lat="37.734241979315996" lon="14.536920460489736"><ele>638.0</ele><time>2026-04-29T11:00:17.999Z</time></trkpt><trkpt lat="37.73434401567462" lon="14.536992495071921"><ele>638.0</ele><time>2026-04-29T11:00:18.999Z</time></trkpt><trkpt lat="37.73445005209381" lon="14.5370436837301"><ele>638.0</ele><time>2026-04-29T11:00:19.999Z</time></trkpt><trkpt lat="37.73455667480113" lon="14.537085368774072"><ele>638.0</ele><time>2026-04-29T11:00:20.999Z</time></trkpt><trkpt lat="37.734651611699235" lon="14.537132744655635"><ele>638.0</ele><time>2026-04-29T11:00:21.999Z</time></trkpt><trkpt lat="37.73472747885067" lon="14.537190054153497"><ele>636.8333333333333</ele><time>2026-04-29T11:00:22.999Z</time></trkpt><trkpt lat="37.73477157740571" lon="14.537260334561795"><ele>635.6666666666666</ele><time>2026-04-29T11:00:24Z</time></trkpt><trkpt lat="37.734792416733555" lon="14.53734516973579"><ele>634.5</ele><time>2026-04-29T11:00:25Z</time></trkpt><trkpt lat="37.73479390829653" lon="14.537442618373774"><ele>633.3333333333334</ele><time>2026-04-29T11:00:26Z</time></trkpt><trkpt lat="37.7347695352269" lon="14.53755592018253"><ele>632.1666666666667</ele><time>2026-04-29T11:00:27Z</time></trkpt><trkpt lat="37.73471622206737" lon="14.537665656346915"><ele>631.0</ele><time>2026-04-29T11:00:28Z</time></trkpt><trkpt lat="37.73464119949539" lon="14.537763884877839"><ele>631.0</ele><time>2026-04-29T11:00:29Z</time></trkpt><trkpt lat="37.73454516733606" lon="14.53785286959259"><ele>631.0</ele><time>2026-04-29T11:00:30Z</time></trkpt><trkpt lat="37.73444051735413" lon="14.537941138129165"><ele>631.0</ele><time>2026-04-29T11:00:31Z</time></trkpt><trkpt lat="37.73435349184153" lon="14.538034491211329"><ele>631.0</ele><time>2026-04-29T11:00:32Z</time></trkpt><trkpt lat="37.734297753686015" lon="14.538130034079824"><ele>629.4</ele><time>2026-04-29T11:00:33Z</time></trkpt><trkpt lat="37.7342778328146" lon="14.53822685840618"><ele>627.8</ele><time>2026-04-29T11:00:34Z</time></trkpt><trkpt lat="37.73430884361021" lon="14.538337727105198"><ele>626.1999999999999</ele><time>2026-04-29T11:00:35Z</time></trkpt><trkpt lat="37.734380555446705" lon="14.538440273667785"><ele>624.6</ele><time>2026-04-29T11:00:36Z</time></trkpt><trkpt lat="37.73447281153558" lon="14.538519247364487"><ele>623.0</ele><time>2026-04-29T11:00:37Z</time></trkpt><trkpt lat="37.73455934876956" lon="14.538579858888307"><ele>622.75</ele><time>2026-04-29T11:00:38Z</time></trkpt><trkpt lat="37.734657785097276" lon="14.538619183002583"><ele>622.5</ele><time>2026-04-29T11:00:39Z</time></trkpt><trkpt lat="37.734771554622085" lon="14.538636806670942"><ele>622.25</ele><time>2026-04-29T11:00:40Z</time></trkpt><trkpt lat="37.734899714351805" lon="14.53863522379861"><ele>622.0</ele><time>2026-04-29T11:00:41Z</time></trkpt><trkpt lat="37.735026936330875" lon="14.538643203331747"><ele>622.0</ele><time>2026-04-29T11:00:42Z</time></trkpt><trkpt lat="37.73515000249043" lon="14.538657465234882"><ele>622.0</ele><time>2026-04-29T11:00:43Z</time></trkpt><trkpt lat="37.73527189172602" lon="14.53867507381157"><ele>622.0</ele><time>2026-04-29T11:00:44Z</time></trkpt><trkpt lat="37.73538961658616" lon="14.53869575914671"><ele>622.0</ele><time>2026-04-29T11:00:45Z</time></trkpt><trkpt lat="37.735503411416644" lon="14.538721694305321"><ele>619.6</ele><time>2026-04-29T11:00:46Z</time></trkpt><trkpt lat="37.735601361536304" lon="14.538753707569882"><ele>617.2</ele><time>2026-04-29T11:00:47Z</time></trkpt><trkpt lat="37.73567371314618" lon="14.538804710919235"><ele>614.8</ele><time>2026-04-29T11:00:48Z</time></trkpt><trkpt lat="37.735729322540664" lon="14.538890203394425"><ele>612.4</ele><time>2026-04-29T11:00:49Z</time></trkpt><trkpt lat="37.735768856098694" lon="14.53901333939969"><ele>610.0</ele><time>2026-04-29T11:00:50Z</time></trkpt><trkpt lat="37.73577956994899" lon="14.539165135163554"><ele>610.0</ele><time>2026-04-29T11:00:51Z</time></trkpt><trkpt lat="37.73576027010555" lon="14.539335044453942"><ele>610.0</ele><time>2026-04-29T11:00:52Z</time></trkpt><trkpt lat="37.7357129221799" lon="14.539508416422782"><ele>610.0</ele><time>2026-04-29T11:00:53Z</time></trkpt><trkpt lat="37.73564472249909" lon="14.539693081308648"><ele>610.0</ele><time>2026-04-29T11:00:54Z</time></trkpt><trkpt lat="37.73556938685623" lon="14.539873192244654"><ele>606.5</ele><time>2026-04-29T11:00:55Z</time></trkpt><trkpt lat="37.73550425581755" lon="14.540035496058328"><ele>603.0</ele><time>2026-04-29T11:00:56Z</time></trkpt><trkpt lat="37.73544375579688" lon="14.540177903974252"><ele>599.5</ele><time>2026-04-29T11:00:57Z</time></trkpt><trkpt lat="37.73538806733755" lon="14.540312247317452"><ele>596.0</ele><time>2026-04-29T11:00:58Z</time></trkpt><trkpt lat="37.735332130235754" lon="14.540439596924207"><ele>596.5</ele><time>2026-04-29T11:00:59Z</time></trkpt><trkpt lat="37.735265481355626" lon="14.540551884681163"><ele>597.0</ele><time>2026-04-29T11:01:00Z</time></trkpt><trkpt lat="37.735166260360785" lon="14.540630415597418"><ele>597.5</ele><time>2026-04-29T11:01:01Z</time></trkpt><trkpt lat="37.735045958725266" lon="14.540670407261453"><ele>598.0</ele><time>2026-04-29T11:01:02Z</time></trkpt><trkpt lat="37.73493025900248" lon="14.540682008608583"><ele>598.0</ele><time>2026-04-29T11:01:03Z</time></trkpt><trkpt lat="37.73483429467618" lon="14.540650948689176"><ele>598.0</ele><time>2026-04-29T11:01:04Z</time></trkpt><trkpt lat="37.73476741216332" lon="14.540560959557215"><ele>598.0</ele><time>2026-04-29T11:01:05Z</time></trkpt><trkpt lat="37.734694640606776" lon="14.54047167675443"><ele>598.0</ele><time>2026-04-29T11:01:06Z</time></trkpt><trkpt lat="37.73462605864593" lon="14.540367889067483"><ele>598.0</ele><time>2026-04-29T11:01:07Z</time></trkpt><trkpt lat="37.734563378268454" lon="14.540272165091407"><ele>599.0</ele><time>2026-04-29T11:01:08Z</time></trkpt><trkpt lat="37.734498233586514" lon="14.540192418939496"><ele>600.0</ele><time>2026-04-29T11:01:09Z</time></trkpt><trkpt lat="37.73441837346704" lon="14.540138638476671"><ele>601.0</ele><time>2026-04-29T11:01:10Z</time></trkpt><trkpt lat="37.73432758333288" lon="14.540121539397765"><ele>602.0</ele><time>2026-04-29T11:01:11Z</time></trkpt><trkpt lat="37.73422613726766" lon="14.540153489883538"><ele>603.0</ele><time>2026-04-29T11:01:12Z</time></trkpt><trkpt lat="37.734137056315475" lon="14.5402098936581"><ele>603.0</ele><time>2026-04-29T11:01:13Z</time></trkpt><trkpt lat="37.73403371187467" lon="14.54026156461719"><ele>603.0</ele><time>2026-04-29T11:01:14Z</time></trkpt><trkpt lat="37.733942453282744" lon="14.540371800468462"><ele>603.0</ele><time>2026-04-29T11:01:15Z</time></trkpt><trkpt lat="37.73387311770817" lon="14.540508039213721"><ele>603.0</ele><time>2026-04-29T11:01:16Z</time></trkpt><trkpt lat="37.733817947863145" lon="14.540651264071087"><ele>601.25</ele><time>2026-04-29T11:01:17Z</time></trkpt><trkpt lat="37.7337640237161" lon="14.540786686173794"><ele>599.5</ele><time>2026-04-29T11:01:18Z</time></trkpt><trkpt lat="37.73369756751562" lon="14.540930806151442"><ele>597.75</ele><time>2026-04-29T11:01:19Z</time></trkpt><trkpt lat="37.73363021694999" lon="14.541078109859155"><ele>596.0</ele><time>2026-04-29T11:01:20Z</time></trkpt><trkpt lat="37.73356397121034" lon="14.541218405938775"><ele>595.5</ele><time>2026-04-29T11:01:21Z</time></trkpt><trkpt lat="37.73349389362816" lon="14.541356501765238"><ele>595.0</ele><time>2026-04-29T11:01:22Z</time></trkpt><trkpt lat="37.733423117452055" lon="14.541500456358925"><ele>594.5</ele><time>2026-04-29T11:01:23Z</time></trkpt><trkpt lat="37.73335881893493" lon="14.5416497207141"><ele>594.0</ele><time>2026-04-29T11:01:24Z</time></trkpt><trkpt lat="37.7333006112655" lon="14.541794451666423"><ele>594.0</ele><time>2026-04-29T11:01:25Z</time></trkpt><trkpt lat="37.733233015285585" lon="14.54193967352681"><ele>594.0</ele><time>2026-04-29T11:01:26Z</time></trkpt><trkpt lat="37.73314590012165" lon="14.542071918334925"><ele>594.0</ele><time>2026-04-29T11:01:27Z</time></trkpt><trkpt lat="37.73304116204429" lon="14.542189133838756"><ele>594.0</ele><time>2026-04-29T11:01:28Z</time></trkpt><trkpt lat="37.732942639893324" lon="14.542290619352455"><ele>592.75</ele><time>2026-04-29T11:01:29Z</time></trkpt><trkpt lat="37.732852418868525" lon="14.542367863146644"><ele>591.5</ele><time>2026-04-29T11:01:30Z</time></trkpt><trkpt lat="37.73275918190362" lon="14.542436426662501"><ele>590.25</ele><time>2026-04-29T11:01:31Z</time></trkpt><trkpt lat="37.7326458283045" lon="14.54243347786677"><ele>589.0</ele><time>2026-04-29T11:01:32Z</time></trkpt><trkpt lat="37.732518541330336" lon="14.542425014017253"><ele>589.0</ele><time>2026-04-29T11:01:33Z</time></trkpt><trkpt lat="37.73238922941518" lon="14.542434896195156"><ele>589.0</ele><time>2026-04-29T11:01:34Z</time></trkpt><trkpt lat="37.73228264318926" lon="14.542449361810672"><ele>589.0</ele><time>2026-04-29T11:01:35Z</time></trkpt><trkpt lat="37.732196065724885" lon="14.542488150712472"><ele>589.0</ele><time>2026-04-29T11:01:36Z</time></trkpt><trkpt lat="37.73212098514872" lon="14.542523793834462"><ele>589.0</ele><time>2026-04-29T11:01:37Z</time></trkpt><trkpt lat="37.732071172598324" lon="14.542616965473593"><ele>589.0</ele><time>2026-04-29T11:01:38Z</time></trkpt><trkpt lat="37.73207814852369" lon="14.542739618130458"><ele>589.0</ele><time>2026-04-29T11:01:39Z</time></trkpt><trkpt lat="37.73215663701945" lon="14.54281707054085"><ele>589.0</ele><time>2026-04-29T11:01:40Z</time></trkpt><trkpt lat="37.7322828376156" lon="14.54274567804176"><ele>589.0</ele><time>2026-04-29T11:01:41Z</time></trkpt><trkpt lat="37.73240151718812" lon="14.542689544631207"><ele>589.0</ele><time>2026-04-29T11:01:42Z</time></trkpt><trkpt lat="37.732502660184224" lon="14.542699381253758"><ele>589.0</ele><time>2026-04-29T11:01:43Z</time></trkpt><trkpt lat="37.732580173586626" lon="14.542781346734749"><ele>589.0</ele><time>2026-04-29T11:01:44Z</time></trkpt><trkpt lat="37.73268629607086" lon="14.542858734955015"><ele>589.0</ele><time>2026-04-29T11:01:45Z</time></trkpt><trkpt lat="37.73280717249709" lon="14.54290276714712"><ele>587.3333333333334</ele><time>2026-04-29T11:01:46Z</time></trkpt><trkpt lat="37.73291547905999" lon="14.542924267874351"><ele>585.6666666666667</ele><time>2026-04-29T11:01:47Z</time></trkpt><trkpt lat="37.73299260894252" lon="14.542939017080974"><ele>584.0</ele><time>2026-04-29T11:01:48Z</time></trkpt><trkpt lat="37.73303877187041" lon="14.54300531058023"><ele>582.3333333333334</ele><time>2026-04-29T11:01:50Z</time></trkpt><trkpt lat="37.733023923264746" lon="14.543084345645163"><ele>580.6666666666666</ele><time>2026-04-29T11:01:51Z</time></trkpt><trkpt lat="37.73292085267883" lon="14.54309258476006"><ele>579.0</ele><time>2026-04-29T11:01:52Z</time></trkpt><trkpt lat="37.73280798625163" lon="14.54315677511601"><ele>578.25</ele><time>2026-04-29T11:01:53Z</time></trkpt><trkpt lat="37.73268564000819" lon="14.543196860291458"><ele>577.5</ele><time>2026-04-29T11:01:54Z</time></trkpt><trkpt lat="37.73258000609143" lon="14.543251084224057"><ele>576.75</ele><time>2026-04-29T11:01:55Z</time></trkpt><trkpt lat="37.73246568904369" lon="14.543263369080412"><ele>576.0</ele><time>2026-04-29T11:01:56Z</time></trkpt><trkpt lat="37.732352431902264" lon="14.54329942794023"><ele>576.0</ele><time>2026-04-29T11:01:57Z</time></trkpt><trkpt lat="37.732247933942254" lon="14.543367674792341"><ele>576.0</ele><time>2026-04-29T11:01:58Z</time></trkpt><trkpt lat="37.73217674593986" lon="14.543441956181866"><ele>576.0</ele><time>2026-04-29T11:01:59Z</time></trkpt><trkpt lat="37.73206033185429" lon="14.543473835098943"><ele>576.0</ele><time>2026-04-29T11:02:00Z</time></trkpt><trkpt lat="37.73191481508928" lon="14.543482217048195"><ele>575.0</ele><time>2026-04-29T11:02:01Z</time></trkpt><trkpt lat="37.73175591873951" lon="14.543490450165727"><ele>574.0</ele><time>2026-04-29T11:02:02Z</time></trkpt><trkpt lat="37.73161020421345" lon="14.543517542806775"><ele>573.0</ele><time>2026-04-29T11:02:03Z</time></trkpt><trkpt lat="37.73146198175683" lon="14.543548457597621"><ele>573.0</ele><time>2026-04-29T11:02:04Z</time></trkpt><trkpt lat="37.731286033772264" lon="14.54357558595323"><ele>573.0</ele><time>2026-04-29T11:02:05Z</time></trkpt><trkpt lat="37.73109692115016" lon="14.54360592362283"><ele>573.0</ele><time>2026-04-29T11:02:06Z</time></trkpt><trkpt lat="37.730920944125096" lon="14.543638814009784"><ele>572.5</ele><time>2026-04-29T11:02:07Z</time></trkpt><trkpt lat="37.73077274984259" lon="14.543670892875516"><ele>572.0</ele><time>2026-04-29T11:02:08Z</time></trkpt><trkpt lat="37.730639339115406" lon="14.543740651168122"><ele>571.5</ele><time>2026-04-29T11:02:09Z</time></trkpt><trkpt lat="37.730520077027755" lon="14.543850299666"><ele>571.0</ele><time>2026-04-29T11:02:10Z</time></trkpt><trkpt lat="37.73042445187094" lon="14.543992589137433"><ele>571.0</ele><time>2026-04-29T11:02:11Z</time></trkpt><trkpt lat="37.730351809240446" lon="14.544159278197279"><ele>571.0</ele><time>2026-04-29T11:02:12Z</time></trkpt><trkpt lat="37.73029350945482" lon="14.54430816146369"><ele>571.0</ele><time>2026-04-29T11:02:13Z</time></trkpt><trkpt lat="37.73024622909525" lon="14.544396073780907"><ele>571.0</ele><time>2026-04-29T11:02:14Z</time></trkpt><trkpt lat="37.73020302939624" lon="14.544456961823874"><ele>571.0</ele><time>2026-04-29T11:02:15Z</time></trkpt><trkpt lat="37.73014513472872" lon="14.544501095276589"><ele>573.5</ele><time>2026-04-29T11:02:16Z</time></trkpt><trkpt lat="37.73005234486346" lon="14.544517193572403"><ele>576.0</ele><time>2026-04-29T11:02:17Z</time></trkpt><trkpt lat="37.72992977449639" lon="14.544485676167975"><ele>578.5</ele><time>2026-04-29T11:02:18Z</time></trkpt><trkpt lat="37.72979704896141" lon="14.544468243661633"><ele>581.0</ele><time>2026-04-29T11:02:19Z</time></trkpt><trkpt lat="37.72966725818391" lon="14.544479846983906"><ele>581.0</ele><time>2026-04-29T11:02:20Z</time></trkpt><trkpt lat="37.72953732334552" lon="14.544472451152789"><ele>581.0</ele><time>2026-04-29T11:02:21Z</time></trkpt><trkpt lat="37.72938712364769" lon="14.54444701040619"><ele>581.0</ele><time>2026-04-29T11:02:22Z</time></trkpt><trkpt lat="37.72922526545348" lon="14.544381368712154"><ele>581.0</ele><time>2026-04-29T11:02:23Z</time></trkpt><trkpt lat="37.729080759715494" lon="14.544304512142947"><ele>581.0</ele><time>2026-04-29T11:02:24Z</time></trkpt><trkpt lat="37.72893910076905" lon="14.544238731352584"><ele>581.0</ele><time>2026-04-29T11:02:25Z</time></trkpt><trkpt lat="37.728810847239885" lon="14.54419203638227"><ele>581.0</ele><time>2026-04-29T11:02:26Z</time></trkpt><trkpt lat="37.7286911581783" lon="14.544157031292041"><ele>578.6666666666666</ele><time>2026-04-29T11:02:27Z</time></trkpt><trkpt lat="37.728558567993765" lon="14.544082794404328"><ele>576.3333333333334</ele><time>2026-04-29T11:02:28Z</time></trkpt><trkpt lat="37.72842766352024" lon="14.54398024907973"><ele>574.0</ele><time>2026-04-29T11:02:29Z</time></trkpt><trkpt lat="37.72828905572215" lon="14.5438659229694"><ele>574.0</ele><time>2026-04-29T11:02:30Z</time></trkpt><trkpt lat="37.72816750370285" lon="14.543762187039611"><ele>574.0</ele><time>2026-04-29T11:02:31Z</time></trkpt><trkpt lat="37.72805805994831" lon="14.543670418850878"><ele>574.0</ele><time>2026-04-29T11:02:32Z</time></trkpt><trkpt lat="37.727933296396486" lon="14.543575679798781"><ele>574.0</ele><time>2026-04-29T11:02:33Z</time></trkpt><trkpt lat="37.727789614460896" lon="14.543509845121386"><ele>575.0</ele><time>2026-04-29T11:02:34Z</time></trkpt><trkpt lat="37.72762354976602" lon="14.54343924782177"><ele>576.0</ele><time>2026-04-29T11:02:35Z</time></trkpt><trkpt lat="37.72746546688091" lon="14.543365376692021"><ele>577.0</ele><time>2026-04-29T11:02:36Z</time></trkpt><trkpt lat="37.727334642128106" lon="14.543308010685054"><ele>577.0</ele><time>2026-04-29T11:02:37Z</time></trkpt><trkpt lat="37.72721003237595" lon="14.54323504810984"><ele>577.0</ele><time>2026-04-29T11:02:38Z</time></trkpt><trkpt lat="37.72710058728373" lon="14.543162507203512"><ele>577.0</ele><time>2026-04-29T11:02:39Z</time></trkpt><trkpt lat="37.72698506617263" lon="14.543068100224582"><ele>577.0</ele><time>2026-04-29T11:02:40Z</time></trkpt><trkpt lat="37.726854575673805" lon="14.542993130801003"><ele>575.75</ele><time>2026-04-29T11:02:41Z</time></trkpt><trkpt lat="37.726739619281496" lon="14.542886377206338"><ele>574.5</ele><time>2026-04-29T11:02:42Z</time></trkpt><trkpt lat="37.726620441678605" lon="14.542781170227272"><ele>573.25</ele><time>2026-04-29T11:02:43Z</time></trkpt><trkpt lat="37.72651543233245" lon="14.542686624407946"><ele>572.0</ele><time>2026-04-29T11:02:44Z</time></trkpt><trkpt lat="37.726412980150535" lon="14.542597796683193"><ele>574.25</ele><time>2026-04-29T11:02:45Z</time></trkpt><trkpt lat="37.72630951862447" lon="14.542502629406544"><ele>576.5</ele><time>2026-04-29T11:02:46Z</time></trkpt><trkpt lat="37.72621912042712" lon="14.542402545916536"><ele>578.75</ele><time>2026-04-29T11:02:47Z</time></trkpt><trkpt lat="37.726125328419705" lon="14.542298643119677"><ele>581.0</ele><time>2026-04-29T11:02:48Z</time></trkpt><trkpt lat="37.72602369678407" lon="14.542169956269687"><ele>584.0</ele><time>2026-04-29T11:02:49Z</time></trkpt><trkpt lat="37.72592831023017" lon="14.542018361374883"><ele>587.0</ele><time>2026-04-29T11:02:50Z</time></trkpt><trkpt lat="37.72583406929205" lon="14.541867345497458"><ele>590.0</ele><time>2026-04-29T11:02:51Z</time></trkpt><trkpt lat="37.72573405812409" lon="14.541739452589052"><ele>593.0</ele><time>2026-04-29T11:02:52Z</time></trkpt><trkpt lat="37.7256218797747" lon="14.54163858717953"><ele>593.0</ele><time>2026-04-29T11:02:53Z</time></trkpt><trkpt lat="37.725493172816" lon="14.541572898701725"><ele>593.0</ele><time>2026-04-29T11:02:54Z</time></trkpt><trkpt lat="37.72534349388723" lon="14.54155492168649"><ele>593.0</ele><time>2026-04-29T11:02:55Z</time></trkpt><trkpt lat="37.725191938272985" lon="14.541576044838083"><ele>593.0</ele><time>2026-04-29T11:02:56Z</time></trkpt><trkpt lat="37.72505211118776" lon="14.541567122056374"><ele>592.6666666666666</ele><time>2026-04-29T11:02:57Z</time></trkpt><trkpt lat="37.72491125527434" lon="14.541512732945373"><ele>592.3333333333334</ele><time>2026-04-29T11:02:58Z</time></trkpt><trkpt lat="37.72477465337347" lon="14.541433995960189"><ele>592.0</ele><time>2026-04-29T11:02:59Z</time></trkpt><trkpt lat="37.72463489186171" lon="14.54135466796464"><ele>592.0</ele><time>2026-04-29T11:03:00Z</time></trkpt><trkpt lat="37.72448554951911" lon="14.541303320960836"><ele>592.0</ele><time>2026-04-29T11:03:01Z</time></trkpt><trkpt lat="37.72433165775563" lon="14.541272747231416"><ele>592.0</ele><time>2026-04-29T11:03:02Z</time></trkpt><trkpt lat="37.72417964859889" lon="14.541241530844953"><ele>597.6666666666667</ele><time>2026-04-29T11:03:03Z</time></trkpt><trkpt lat="37.72402908341377" lon="14.541189498852203"><ele>603.3333333333334</ele><time>2026-04-29T11:03:04Z</time></trkpt><trkpt lat="37.7238816976876" lon="14.5411787299145"><ele>609.0</ele><time>2026-04-29T11:03:05Z</time></trkpt><trkpt lat="37.723737951353016" lon="14.541133827188487"><ele>609.0</ele><time>2026-04-29T11:03:06Z</time></trkpt><trkpt lat="37.723600929242124" lon="14.541046317001355"><ele>609.0</ele><time>2026-04-29T11:03:07Z</time></trkpt><trkpt lat="37.723449890094" lon="14.540957805912354"><ele>609.0</ele><time>2026-04-29T11:03:08Z</time></trkpt><trkpt lat="37.723298929729225" lon="14.540873455519783"><ele>608.5</ele><time>2026-04-29T11:03:09Z</time></trkpt><trkpt lat="37.723150953696695" lon="14.540801615664682"><ele>608.0</ele><time>2026-04-29T11:03:10Z</time></trkpt><trkpt lat="37.72302063011311" lon="14.540734510987349"><ele>607.5</ele><time>2026-04-29T11:03:11Z</time></trkpt><trkpt lat="37.722914198476026" lon="14.540684962193161"><ele>607.0</ele><time>2026-04-29T11:03:12Z</time></trkpt><trkpt lat="37.72284497686723" lon="14.540627490723377"><ele>607.0</ele><time>2026-04-29T11:03:13Z</time></trkpt><trkpt lat="37.72279216253085" lon="14.540564392133575"><ele>607.0</ele><time>2026-04-29T11:03:14Z</time></trkpt><trkpt lat="37.722747552152384" lon="14.54047119947273"><ele>607.0</ele><time>2026-04-29T11:03:15Z</time></trkpt><trkpt lat="37.722716405420336" lon="14.540345346030579"><ele>607.0</ele><time>2026-04-29T11:03:16Z</time></trkpt><trkpt lat="37.72269286839887" lon="14.540200175565134"><ele>607.0</ele><time>2026-04-29T11:03:17Z</time></trkpt><trkpt lat="37.72266811676162" lon="14.54004034153623"><ele>609.0</ele><time>2026-04-29T11:03:18Z</time></trkpt><trkpt lat="37.72263476240499" lon="14.53986522217147"><ele>611.0</ele><time>2026-04-29T11:03:19Z</time></trkpt><trkpt lat="37.72258635466909" lon="14.539679734725324"><ele>613.0</ele><time>2026-04-29T11:03:20Z</time></trkpt><trkpt lat="37.72250964191956" lon="14.53950258574471"><ele>615.5</ele><time>2026-04-29T11:03:21Z</time></trkpt><trkpt lat="37.72241894148358" lon="14.539340576560495"><ele>618.0</ele><time>2026-04-29T11:03:22Z</time></trkpt><trkpt lat="37.722337441258595" lon="14.539206616020891"><ele>620.5</ele><time>2026-04-29T11:03:23Z</time></trkpt><trkpt lat="37.722254267149125" lon="14.539093540021371"><ele>623.0</ele><time>2026-04-29T11:03:24Z</time></trkpt><trkpt lat="37.722160781335496" lon="14.539004420101016"><ele>623.0</ele><time>2026-04-29T11:03:25Z</time></trkpt><trkpt lat="37.722047915381765" lon="14.538943765237311"><ele>623.0</ele><time>2026-04-29T11:03:26Z</time></trkpt><trkpt lat="37.72191639611048" lon="14.538912549168076"><ele>623.0</ele><time>2026-04-29T11:03:27Z</time></trkpt><trkpt lat="37.72176420340926" lon="14.538900481857327"><ele>623.0</ele><time>2026-04-29T11:03:28Z</time></trkpt><trkpt lat="37.72162049431823" lon="14.538851106664676"><ele>622.0</ele><time>2026-04-29T11:03:29Z</time></trkpt><trkpt lat="37.7214761876517" lon="14.538752416072025"><ele>621.0</ele><time>2026-04-29T11:03:30Z</time></trkpt><trkpt lat="37.721330267322074" lon="14.538637637083022"><ele>620.0</ele><time>2026-04-29T11:03:31Z</time></trkpt><trkpt lat="37.72119294644476" lon="14.538534266770366"><ele>621.6666666666666</ele><time>2026-04-29T11:03:32Z</time></trkpt><trkpt lat="37.721052176444026" lon="14.53843027229262"><ele>623.3333333333334</ele><time>2026-04-29T11:03:33Z</time></trkpt><trkpt lat="37.72089621767805" lon="14.538319596705302"><ele>625.0</ele><time>2026-04-29T11:03:34Z</time></trkpt><trkpt lat="37.72073279952073" lon="14.538221262540976"><ele>625.0</ele><time>2026-04-29T11:03:35Z</time></trkpt><trkpt lat="37.72057878616113" lon="14.538145162034118"><ele>625.0</ele><time>2026-04-29T11:03:36Z</time></trkpt><trkpt lat="37.72043251262885" lon="14.538062131367939"><ele>625.0</ele><time>2026-04-29T11:03:37Z</time></trkpt><trkpt lat="37.72028745123064" lon="14.53795810732232"><ele>628.6666666666667</ele><time>2026-04-29T11:03:38Z</time></trkpt><trkpt lat="37.72014664620525" lon="14.53784788626935"><ele>632.3333333333334</ele><time>2026-04-29T11:03:39Z</time></trkpt><trkpt lat="37.720004943108876" lon="14.537759782552865"><ele>636.0</ele><time>2026-04-29T11:03:40Z</time></trkpt><trkpt lat="37.719857765119556" lon="14.53769795278304"><ele>636.0</ele><time>2026-04-29T11:03:41Z</time></trkpt><trkpt lat="37.7197036754252" lon="14.537666024458872"><ele>636.0</ele><time>2026-04-29T11:03:42Z</time></trkpt><trkpt lat="37.719548864188894" lon="14.537658564912077"><ele>636.0</ele><time>2026-04-29T11:03:43Z</time></trkpt><trkpt lat="37.719404171897935" lon="14.537683668263485"><ele>635.75</ele><time>2026-04-29T11:03:44Z</time></trkpt><trkpt lat="37.71927370233843" lon="14.537716335129964"><ele>635.5</ele><time>2026-04-29T11:03:45Z</time></trkpt><trkpt lat="37.719143960920555" lon="14.53772968510292"><ele>635.25</ele><time>2026-04-29T11:03:46Z</time></trkpt><trkpt lat="37.7190045440332" lon="14.537698473580607"><ele>635.0</ele><time>2026-04-29T11:03:47Z</time></trkpt><trkpt lat="37.718867169234265" lon="14.537627544017523"><ele>635.0</ele><time>2026-04-29T11:03:48Z</time></trkpt><trkpt lat="37.71873270385645" lon="14.53751690322084"><ele>635.0</ele><time>2026-04-29T11:03:49Z</time></trkpt><trkpt lat="37.71860985337917" lon="14.537430747179352"><ele>635.0</ele><time>2026-04-29T11:03:50Z</time></trkpt><trkpt lat="37.7184917505237" lon="14.537385766078604"><ele>635.0</ele><time>2026-04-29T11:03:51Z</time></trkpt><trkpt lat="37.71835920714781" lon="14.537370757606487"><ele>635.75</ele><time>2026-04-29T11:03:52Z</time></trkpt><trkpt lat="37.718240951651715" lon="14.53735668994295"><ele>636.5</ele><time>2026-04-29T11:03:53Z</time></trkpt><trkpt lat="37.71807835507227" lon="14.537405426933299"><ele>637.25</ele><time>2026-04-29T11:03:54Z</time></trkpt><trkpt lat="37.717941610075435" lon="14.537460172511206"><ele>638.0</ele><time>2026-04-29T11:03:55Z</time></trkpt><trkpt lat="37.71782282076273" lon="14.537488141928213"><ele>636.75</ele><time>2026-04-29T11:03:56Z</time></trkpt><trkpt lat="37.71771780401526" lon="14.537476044505542"><ele>635.5</ele><time>2026-04-29T11:03:57Z</time></trkpt><trkpt lat="37.717609252637" lon="14.537415806353035"><ele>634.25</ele><time>2026-04-29T11:03:58Z</time></trkpt><trkpt lat="37.717501312928285" lon="14.537314655626748"><ele>633.0</ele><time>2026-04-29T11:03:59Z</time></trkpt><trkpt lat="37.71740469135319" lon="14.537182440478738"><ele>633.0</ele><time>2026-04-29T11:04:00Z</time></trkpt><trkpt lat="37.71732705534802" lon="14.537063661443986"><ele>633.0</ele><time>2026-04-29T11:04:01Z</time></trkpt><trkpt lat="37.71726512508025" lon="14.536965333420074"><ele>633.0</ele><time>2026-04-29T11:04:02Z</time></trkpt><trkpt lat="37.71719488151075" lon="14.536863372712899"><ele>633.0</ele><time>2026-04-29T11:04:03Z</time></trkpt><trkpt lat="37.71710030340439" lon="14.536789248390432"><ele>633.0</ele><time>2026-04-29T11:04:04Z</time></trkpt><trkpt lat="37.7169845645084" lon="14.536772518381193"><ele>633.25</ele><time>2026-04-29T11:04:05Z</time></trkpt><trkpt lat="37.716867806664496" lon="14.536777585162946"><ele>633.5</ele><time>2026-04-29T11:04:06Z</time></trkpt><trkpt lat="37.716756343416336" lon="14.536750790367064"><ele>633.75</ele><time>2026-04-29T11:04:07Z</time></trkpt><trkpt lat="37.71664543617461" lon="14.536706076155522"><ele>634.0</ele><time>2026-04-29T11:04:08Z</time></trkpt><trkpt lat="37.71654388296217" lon="14.536632996279529"><ele>634.0</ele><time>2026-04-29T11:04:09Z</time></trkpt><trkpt lat="37.71645117897855" lon="14.536571735004564"><ele>634.0</ele><time>2026-04-29T11:04:10Z</time></trkpt><trkpt lat="37.716330249277135" lon="14.536576930767197"><ele>634.0</ele><time>2026-04-29T11:04:11Z</time></trkpt><trkpt lat="37.71621715480134" lon="14.536619751149463"><ele>634.0</ele><time>2026-04-29T11:04:12Z</time></trkpt><trkpt lat="37.716110248088896" lon="14.536656586194526"><ele>634.4</ele><time>2026-04-29T11:04:13Z</time></trkpt><trkpt lat="37.716006253276696" lon="14.536655700919338"><ele>634.8</ele><time>2026-04-29T11:04:14Z</time></trkpt><trkpt lat="37.715900287450026" lon="14.53666392307018"><ele>635.2</ele><time>2026-04-29T11:04:15Z</time></trkpt><trkpt lat="37.71581024052018" lon="14.536684372344"><ele>635.6</ele><time>2026-04-29T11:04:17Z</time></trkpt><trkpt lat="37.71573495352297" lon="14.536766323146676"><ele>636.0</ele><time>2026-04-29T11:04:19Z</time></trkpt><trkpt lat="37.715703089030214" lon="14.536854585096375"><ele>636.0</ele><time>2026-04-29T11:04:21Z</time></trkpt><trkpt lat="37.71575334195276" lon="14.536980855350802"><ele>636.0</ele><time>2026-04-29T11:04:24.001Z</time></trkpt><trkpt lat="37.71581384031247" lon="14.537034393332965"><ele>636.0</ele><time>2026-04-29T11:04:25.001Z</time></trkpt><trkpt lat="37.71590729006737" lon="14.537049180616526"><ele>636.0</ele><time>2026-04-29T11:04:26.001Z</time></trkpt><trkpt lat="37.71600968926789" lon="14.5370494854084"><ele>636.0</ele><time>2026-04-29T11:04:27.001Z</time></trkpt><trkpt lat="37.716116371418984" lon="14.537071013505168"><ele>633.25</ele><time>2026-04-29T11:04:28.001Z</time></trkpt><trkpt lat="37.71624774650189" lon="14.537107264428167"><ele>630.5</ele><time>2026-04-29T11:04:29.001Z</time></trkpt><trkpt lat="37.71639529464057" lon="14.537131721890582"><ele>627.75</ele><time>2026-04-29T11:04:30.001Z</time></trkpt><trkpt lat="37.71652247247168" lon="14.537160224522085"><ele>625.0</ele><time>2026-04-29T11:04:31.001Z</time></trkpt><trkpt lat="37.71662534262297" lon="14.537177363274687"><ele>625.0</ele><time>2026-04-29T11:04:32.001Z</time></trkpt><trkpt lat="37.71672458063003" lon="14.537195180789844"><ele>625.0</ele><time>2026-04-29T11:04:33Z</time></trkpt><trkpt lat="37.71682522694974" lon="14.537218250041457"><ele>625.0</ele><time>2026-04-29T11:04:34Z</time></trkpt><trkpt lat="37.7169198106484" lon="14.537266985696352"><ele>625.0</ele><time>2026-04-29T11:04:35Z</time></trkpt><trkpt lat="37.71699978418532" lon="14.537354572038062"><ele>625.0</ele><time>2026-04-29T11:04:36Z</time></trkpt><trkpt lat="37.717047177599426" lon="14.5374921826681"><ele>624.75</ele><time>2026-04-29T11:04:37Z</time></trkpt><trkpt lat="37.71706500630512" lon="14.537672714414851"><ele>624.5</ele><time>2026-04-29T11:04:38Z</time></trkpt><trkpt lat="37.717053688508905" lon="14.53786625253133"><ele>624.25</ele><time>2026-04-29T11:04:39Z</time></trkpt><trkpt lat="37.71704338670798" lon="14.538034030794098"><ele>624.0</ele><time>2026-04-29T11:04:40Z</time></trkpt><trkpt lat="37.717037803226205" lon="14.538183837043174"><ele>624.0</ele><time>2026-04-29T11:04:41Z</time></trkpt><trkpt lat="37.717020585104194" lon="14.538328783173652"><ele>624.0</ele><time>2026-04-29T11:04:42Z</time></trkpt><trkpt lat="37.71697449029479" lon="14.538474860886964"><ele>624.0</ele><time>2026-04-29T11:04:43Z</time></trkpt><trkpt lat="37.71689312678536" lon="14.538617666648397"><ele>624.0</ele><time>2026-04-29T11:04:44Z</time></trkpt><trkpt lat="37.716783716759466" lon="14.53873953956246"><ele>620.0</ele><time>2026-04-29T11:04:45Z</time></trkpt><trkpt lat="37.716667177938916" lon="14.538850628725116"><ele>616.0</ele><time>2026-04-29T11:04:46Z</time></trkpt><trkpt lat="37.716554378057566" lon="14.538951715430613"><ele>612.0</ele><time>2026-04-29T11:04:47Z</time></trkpt><trkpt lat="37.71644153634488" lon="14.539055680158466"><ele>608.0</ele><time>2026-04-29T11:04:48Z</time></trkpt><trkpt lat="37.71632149695787" lon="14.539161300287702"><ele>608.0</ele><time>2026-04-29T11:04:49Z</time></trkpt><trkpt lat="37.716195816275146" lon="14.53925572309943"><ele>608.0</ele><time>2026-04-29T11:04:50Z</time></trkpt><trkpt lat="37.716062239806625" lon="14.539312893703205"><ele>608.0</ele><time>2026-04-29T11:04:51Z</time></trkpt><trkpt lat="37.71592198215558" lon="14.53935001865707"><ele>608.0</ele><time>2026-04-29T11:04:52Z</time></trkpt><trkpt lat="37.71577394030557" lon="14.539378246781498"><ele>608.0</ele><time>2026-04-29T11:04:53Z</time></trkpt><trkpt lat="37.715623767359375" lon="14.539407269238763"><ele>608.0</ele><time>2026-04-29T11:04:54Z</time></trkpt><trkpt lat="37.71548137395969" lon="14.539438429725948"><ele>608.0</ele><time>2026-04-29T11:04:55Z</time></trkpt><trkpt lat="37.71534495154912" lon="14.539474781693558"><ele>608.0</ele><time>2026-04-29T11:04:56Z</time></trkpt><trkpt lat="37.715198413673484" lon="14.539511262479456"><ele>608.3333333333333</ele><time>2026-04-29T11:04:57Z</time></trkpt><trkpt lat="37.71504816022558" lon="14.539544481607264"><ele>608.6666666666666</ele><time>2026-04-29T11:04:58Z</time></trkpt><trkpt lat="37.71489532866723" lon="14.53958069882119"><ele>609.0</ele><time>2026-04-29T11:04:59Z</time></trkpt><trkpt lat="37.71474435856162" lon="14.539617323128875"><ele>604.3333333333334</ele><time>2026-04-29T11:05:00Z</time></trkpt><trkpt lat="37.714595972220756" lon="14.539657023013598"><ele>599.6666666666667</ele><time>2026-04-29T11:05:01Z</time></trkpt><trkpt lat="37.71444277065571" lon="14.53967521337713"><ele>595.0</ele><time>2026-04-29T11:05:02Z</time></trkpt><trkpt lat="37.7142937479839" lon="14.539740906879137"><ele>593.6666666666667</ele><time>2026-04-29T11:05:03Z</time></trkpt><trkpt lat="37.714138267228414" lon="14.539797678477306"><ele>592.3333333333334</ele><time>2026-04-29T11:05:04Z</time></trkpt><trkpt lat="37.71398477566076" lon="14.539865564037939"><ele>591.0</ele><time>2026-04-29T11:05:05Z</time></trkpt><trkpt lat="37.713821834410346" lon="14.539919526293632"><ele>591.0</ele><time>2026-04-29T11:05:06Z</time></trkpt><trkpt lat="37.713668632252585" lon="14.539993841249824"><ele>591.0</ele><time>2026-04-29T11:05:07Z</time></trkpt><trkpt lat="37.71351415080035" lon="14.540071555051647"><ele>591.0</ele><time>2026-04-29T11:05:08Z</time></trkpt><trkpt lat="37.71335954720327" lon="14.540148266833356"><ele>589.6666666666666</ele><time>2026-04-29T11:05:09Z</time></trkpt><trkpt lat="37.713211891106575" lon="14.540241837652951"><ele>588.3333333333333</ele><time>2026-04-29T11:05:10Z</time></trkpt><trkpt lat="37.71305568549931" lon="14.540313062229794"><ele>587.0</ele><time>2026-04-29T11:05:11Z</time></trkpt><trkpt lat="37.712902295638465" lon="14.540388536676527"><ele>582.3333333333333</ele><time>2026-04-29T11:05:12Z</time></trkpt><trkpt lat="37.71275189857504" lon="14.540463981910307"><ele>577.6666666666666</ele><time>2026-04-29T11:05:13Z</time></trkpt><trkpt lat="37.71259377555122" lon="14.540517341675118"><ele>573.0</ele><time>2026-04-29T11:05:14Z</time></trkpt><trkpt lat="37.71244690608696" lon="14.540579828163171"><ele>573.0</ele><time>2026-04-29T11:05:15Z</time></trkpt><trkpt lat="37.71230333524736" lon="14.540626686660968"><ele>573.0</ele><time>2026-04-29T11:05:16Z</time></trkpt><trkpt lat="37.71216169186119" lon="14.540660269369134"><ele>573.0</ele><time>2026-04-29T11:05:17Z</time></trkpt><trkpt lat="37.7120289602293" lon="14.540615400863443"><ele>573.0</ele><time>2026-04-29T11:05:18Z</time></trkpt><trkpt lat="37.71190658356717" lon="14.540523754084589"><ele>572.0</ele><time>2026-04-29T11:05:19Z</time></trkpt><trkpt lat="37.711796674144935" lon="14.540389053276623"><ele>571.0</ele><time>2026-04-29T11:05:20Z</time></trkpt><trkpt lat="37.71169590372796" lon="14.540234877359344"><ele>570.0</ele><time>2026-04-29T11:05:21Z</time></trkpt><trkpt lat="37.71158922809988" lon="14.540078060235809"><ele>575.3333333333334</ele><time>2026-04-29T11:05:22Z</time></trkpt><trkpt lat="37.711473549353364" lon="14.539941844758543"><ele>580.6666666666667</ele><time>2026-04-29T11:05:23Z</time></trkpt><trkpt lat="37.71134106375817" lon="14.53983620721565"><ele>586.0</ele><time>2026-04-29T11:05:24Z</time></trkpt><trkpt lat="37.71118561652237" lon="14.539776978433325"><ele>581.3333333333334</ele><time>2026-04-29T11:05:25Z</time></trkpt><trkpt lat="37.7110162069788" lon="14.539756768628624"><ele>576.6666666666666</ele><time>2026-04-29T11:05:26Z</time></trkpt><trkpt lat="37.71084347784214" lon="14.539770098115156"><ele>572.0</ele><time>2026-04-29T11:05:27Z</time></trkpt><trkpt lat="37.71068404965218" lon="14.539790543019793"><ele>572.0</ele><time>2026-04-29T11:05:28Z</time></trkpt><trkpt lat="37.71053722733245" lon="14.53979099567475"><ele>572.0</ele><time>2026-04-29T11:05:29Z</time></trkpt><trkpt lat="37.71040079574159" lon="14.53978018333653"><ele>572.0</ele><time>2026-04-29T11:05:30Z</time></trkpt><trkpt lat="37.710276075693386" lon="14.539772723645068"><ele>572.0</ele><time>2026-04-29T11:05:31Z</time></trkpt><trkpt lat="37.71016072402205" lon="14.539744526605734"><ele>571.75</ele><time>2026-04-29T11:05:32Z</time></trkpt><trkpt lat="37.71004034916425" lon="14.539678822947215"><ele>571.5</ele><time>2026-04-29T11:05:33Z</time></trkpt><trkpt lat="37.709919121871714" lon="14.539573689082234"><ele>571.25</ele><time>2026-04-29T11:05:34Z</time></trkpt><trkpt lat="37.7098077117846" lon="14.539432981367474"><ele>571.0</ele><time>2026-04-29T11:05:35Z</time></trkpt><trkpt lat="37.70970864730331" lon="14.539270939832367"><ele>577.3333333333334</ele><time>2026-04-29T11:05:36Z</time></trkpt><trkpt lat="37.70962556539215" lon="14.539097614826446"><ele>583.6666666666666</ele><time>2026-04-29T11:05:37Z</time></trkpt><trkpt lat="37.70955735313516" lon="14.538920112263387"><ele>590.0</ele><time>2026-04-29T11:05:38Z</time></trkpt><trkpt lat="37.70951102175128" lon="14.538728776129542"><ele>593.6666666666666</ele><time>2026-04-29T11:05:39Z</time></trkpt><trkpt lat="37.709486035453786" lon="14.538527387528513"><ele>597.3333333333334</ele><time>2026-04-29T11:05:40Z</time></trkpt><trkpt lat="37.7094819860669" lon="14.538328626186782"><ele>601.0</ele><time>2026-04-29T11:05:41Z</time></trkpt><trkpt lat="37.709492892056254" lon="14.538139782073769"><ele>601.0</ele><time>2026-04-29T11:05:42Z</time></trkpt><trkpt lat="37.70951611576866" lon="14.53796736715715"><ele>601.0</ele><time>2026-04-29T11:05:43Z</time></trkpt><trkpt lat="37.70955128428789" lon="14.53779919559389"><ele>601.0</ele><time>2026-04-29T11:05:44Z</time></trkpt><trkpt lat="37.70958359149327" lon="14.537630471475866"><ele>601.0</ele><time>2026-04-29T11:05:45Z</time></trkpt><trkpt lat="37.709591631745226" lon="14.537463297557903"><ele>602.25</ele><time>2026-04-29T11:05:46Z</time></trkpt><trkpt lat="37.70957334111499" lon="14.537308813279521"><ele>603.5</ele><time>2026-04-29T11:05:47Z</time></trkpt><trkpt lat="37.70952813817098" lon="14.53715221149565"><ele>604.75</ele><time>2026-04-29T11:05:48Z</time></trkpt><trkpt lat="37.709445373089046" lon="14.53701599199355"><ele>606.0</ele><time>2026-04-29T11:05:49Z</time></trkpt><trkpt lat="37.709341430980764" lon="14.536900510894657"><ele>606.0</ele><time>2026-04-29T11:05:50Z</time></trkpt><trkpt lat="37.70923520777863" lon="14.536806807022126"><ele>606.0</ele><time>2026-04-29T11:05:51Z</time></trkpt><trkpt lat="37.709113955217745" lon="14.536745527369789"><ele>606.0</ele><time>2026-04-29T11:05:52Z</time></trkpt><trkpt lat="37.7089762690089" lon="14.536722784716545"><ele>606.0</ele><time>2026-04-29T11:05:53Z</time></trkpt><trkpt lat="37.708838450317366" lon="14.536743008356432"><ele>606.0</ele><time>2026-04-29T11:05:54Z</time></trkpt><trkpt lat="37.70870699758321" lon="14.536773698387126"><ele>606.0</ele><time>2026-04-29T11:05:55Z</time></trkpt><trkpt lat="37.70858033284597" lon="14.536794698131104"><ele>606.0</ele><time>2026-04-29T11:05:56Z</time></trkpt><trkpt lat="37.70846086798883" lon="14.536773195908765"><ele>606.0</ele><time>2026-04-29T11:05:57Z</time></trkpt><trkpt lat="37.70836451833168" lon="14.536786842273331"><ele>607.8</ele><time>2026-04-29T11:05:58Z</time></trkpt><trkpt lat="37.708271332093105" lon="14.536799615484258"><ele>609.6</ele><time>2026-04-29T11:05:59Z</time></trkpt><trkpt lat="37.708190711869655" lon="14.536803821995901"><ele>611.4</ele><time>2026-04-29T11:06:00Z</time></trkpt><trkpt lat="37.708094982964774" lon="14.536815368543403"><ele>613.2</ele><time>2026-04-29T11:06:01Z</time></trkpt><trkpt lat="37.70798555855044" lon="14.536783102052741"><ele>615.0</ele><time>2026-04-29T11:06:02Z</time></trkpt><trkpt lat="37.7078672822259" lon="14.536740404697133"><ele>615.0</ele><time>2026-04-29T11:06:03Z</time></trkpt><trkpt lat="37.70774647577076" lon="14.536683970390493"><ele>615.0</ele><time>2026-04-29T11:06:04Z</time></trkpt><trkpt lat="37.707628809283165" lon="14.536628212952037"><ele>615.0</ele><time>2026-04-29T11:06:05Z</time></trkpt><trkpt lat="37.70751437191473" lon="14.536584749979005"><ele>615.0</ele><time>2026-04-29T11:06:06Z</time></trkpt><trkpt lat="37.70739295928688" lon="14.536544722186514"><ele>617.25</ele><time>2026-04-29T11:06:07Z</time></trkpt><trkpt lat="37.70726385418355" lon="14.536528346800248"><ele>619.5</ele><time>2026-04-29T11:06:08Z</time></trkpt><trkpt lat="37.707132064702755" lon="14.536550597355205"><ele>621.75</ele><time>2026-04-29T11:06:09Z</time></trkpt><trkpt lat="37.70700229248621" lon="14.536596617038478"><ele>624.0</ele><time>2026-04-29T11:06:10Z</time></trkpt><trkpt lat="37.70687779148392" lon="14.536666523206073"><ele>626.75</ele><time>2026-04-29T11:06:11Z</time></trkpt><trkpt lat="37.70676045996441" lon="14.536733214747535"><ele>629.5</ele><time>2026-04-29T11:06:12Z</time></trkpt><trkpt lat="37.70665511968284" lon="14.536785473833623"><ele>632.25</ele><time>2026-04-29T11:06:13Z</time></trkpt><trkpt lat="37.70654469553737" lon="14.536827369257997"><ele>635.0</ele><time>2026-04-29T11:06:14Z</time></trkpt><trkpt lat="37.70641975713455" lon="14.536845766550204"><ele>635.0</ele><time>2026-04-29T11:06:15Z</time></trkpt><trkpt lat="37.706292359876784" lon="14.53682796089441"><ele>635.0</ele><time>2026-04-29T11:06:16Z</time></trkpt><trkpt lat="37.70616628943074" lon="14.536774508858882"><ele>635.0</ele><time>2026-04-29T11:06:17Z</time></trkpt><trkpt lat="37.706049843452455" lon="14.536693203420436"><ele>635.0</ele><time>2026-04-29T11:06:18Z</time></trkpt><trkpt lat="37.7059408272287" lon="14.53658921639413"><ele>635.5</ele><time>2026-04-29T11:06:19Z</time></trkpt><trkpt lat="37.70583786877326" lon="14.536473977000055"><ele>636.0</ele><time>2026-04-29T11:06:20Z</time></trkpt><trkpt lat="37.70572679212359" lon="14.536367864335489"><ele>636.5</ele><time>2026-04-29T11:06:21Z</time></trkpt><trkpt lat="37.70560675717393" lon="14.536296473590422"><ele>637.0</ele><time>2026-04-29T11:06:22Z</time></trkpt><trkpt lat="37.70549410112439" lon="14.536263288124566"><ele>637.0</ele><time>2026-04-29T11:06:23Z</time></trkpt><trkpt lat="37.705395838547474" lon="14.536258551721174"><ele>637.0</ele><time>2026-04-29T11:06:24Z</time></trkpt><trkpt lat="37.70532690532506" lon="14.536262949294645"><ele>637.0</ele><time>2026-04-29T11:06:25Z</time></trkpt><trkpt lat="37.705244694906945" lon="14.536243803687242"><ele>637.0</ele><time>2026-04-29T11:06:27.001Z</time></trkpt><trkpt lat="37.70523378476669" lon="14.536132317565485"><ele>637.0</ele><time>2026-04-29T11:06:29.001Z</time></trkpt><trkpt lat="37.70525122037096" lon="14.536038519938751"><ele>637.0</ele><time>2026-04-29T11:06:30.001Z</time></trkpt><trkpt lat="37.705288903998934" lon="14.53593817717436"><ele>640.0</ele><time>2026-04-29T11:06:31.001Z</time></trkpt><trkpt lat="37.70535716247237" lon="14.535873268771997"><ele>643.0</ele><time>2026-04-29T11:06:32.001Z</time></trkpt><trkpt lat="37.70544505205094" lon="14.53585060461158"><ele>646.0</ele><time>2026-04-29T11:06:33.001Z</time></trkpt><trkpt lat="37.70555428666756" lon="14.535868154523559"><ele>649.0</ele><time>2026-04-29T11:06:34.001Z</time></trkpt><trkpt lat="37.70567091029207" lon="14.535926846429751"><ele>652.0</ele><time>2026-04-29T11:06:35.001Z</time></trkpt><trkpt lat="37.70579163347541" lon="14.535987286476129"><ele>652.0</ele><time>2026-04-29T11:06:36.001Z</time></trkpt><trkpt lat="37.70590626986259" lon="14.536024543025151"><ele>652.0</ele><time>2026-04-29T11:06:37.001Z</time></trkpt><trkpt lat="37.70601272441888" lon="14.536049268475162"><ele>652.0</ele><time>2026-04-29T11:06:38.001Z</time></trkpt><trkpt lat="37.70610682306774" lon="14.536072569874623"><ele>652.0</ele><time>2026-04-29T11:06:39.001Z</time></trkpt><trkpt lat="37.7062034625226" lon="14.536078690916018"><ele>652.0</ele><time>2026-04-29T11:06:40.001Z</time></trkpt><trkpt lat="37.706321647121506" lon="14.536056202443103"><ele>652.25</ele><time>2026-04-29T11:06:41.001Z</time></trkpt><trkpt lat="37.70644740875961" lon="14.536006131970032"><ele>652.5</ele><time>2026-04-29T11:06:42.001Z</time></trkpt><trkpt lat="37.70657417455042" lon="14.535915760250719"><ele>652.75</ele><time>2026-04-29T11:06:43.001Z</time></trkpt><trkpt lat="37.70670927682659" lon="14.535818497871558"><ele>653.0</ele><time>2026-04-29T11:06:44Z</time></trkpt><trkpt lat="37.706846988563015" lon="14.535777174913338"><ele>651.8</ele><time>2026-04-29T11:06:45Z</time></trkpt><trkpt lat="37.70696565495005" lon="14.535773959377641"><ele>650.5999999999999</ele><time>2026-04-29T11:06:46Z</time></trkpt><trkpt lat="37.70703467810913" lon="14.535751753781442"><ele>649.4000000000001</ele><time>2026-04-29T11:06:47Z</time></trkpt><trkpt lat="37.70707794935504" lon="14.535682957101429"><ele>648.2</ele><time>2026-04-29T11:06:49Z</time></trkpt><trkpt lat="37.70706286202173" lon="14.535573844232676"><ele>647.0</ele><time>2026-04-29T11:06:52Z</time></trkpt><trkpt lat="37.70694325381292" lon="14.535526857631416"><ele>648.5</ele><time>2026-04-29T11:06:54Z</time></trkpt><trkpt lat="37.706830035142296" lon="14.535455941608364"><ele>650.0</ele><time>2026-04-29T11:06:55Z</time></trkpt><trkpt lat="37.70672655497718" lon="14.535416989539192"><ele>651.5</ele><time>2026-04-29T11:06:56Z</time></trkpt><trkpt lat="37.70659206799445" lon="14.535398692716338"><ele>653.0</ele><time>2026-04-29T11:06:57Z</time></trkpt><trkpt lat="37.706422248918784" lon="14.535337436436972"><ele>660.3333333333333</ele><time>2026-04-29T11:06:58Z</time></trkpt><trkpt lat="37.70623612835624" lon="14.535261809481364"><ele>667.6666666666666</ele><time>2026-04-29T11:06:59Z</time></trkpt><trkpt lat="37.7060994695744" lon="14.53522242798496"><ele>675.0</ele><time>2026-04-29T11:07:00Z</time></trkpt><trkpt lat="37.705975718442346" lon="14.535148575972801"><ele>675.0</ele><time>2026-04-29T11:07:01Z</time></trkpt><trkpt lat="37.705837731613435" lon="14.53509102352868"><ele>675.0</ele><time>2026-04-29T11:07:02Z</time></trkpt><trkpt lat="37.705705666469676" lon="14.535011293428864"><ele>675.0</ele><time>2026-04-29T11:07:03Z</time></trkpt><trkpt lat="37.705565064761295" lon="14.534954697411775"><ele>675.0</ele><time>2026-04-29T11:07:04Z</time></trkpt><trkpt lat="37.70545284294903" lon="14.534818542100767"><ele>675.0</ele><time>2026-04-29T11:07:05Z</time></trkpt><trkpt lat="37.70532203559535" lon="14.534741556315634"><ele>675.0</ele><time>2026-04-29T11:07:06Z</time></trkpt><trkpt lat="37.70517109746193" lon="14.53468456224819"><ele>675.0</ele><time>2026-04-29T11:07:07Z</time></trkpt><trkpt lat="37.70503413630681" lon="14.534628137569317"><ele>675.0</ele><time>2026-04-29T11:07:08Z</time></trkpt><trkpt lat="37.70489266092705" lon="14.534574941704006"><ele>677.5</ele><time>2026-04-29T11:07:09Z</time></trkpt><trkpt lat="37.70474708340756" lon="14.53450479681161"><ele>680.0</ele><time>2026-04-29T11:07:10Z</time></trkpt><trkpt lat="37.70460868207484" lon="14.534433484586016"><ele>682.5</ele><time>2026-04-29T11:07:11Z</time></trkpt><trkpt lat="37.70447542547453" lon="14.534367652027367"><ele>685.0</ele><time>2026-04-29T11:07:12Z</time></trkpt><trkpt lat="37.70435183988399" lon="14.53429144240434"><ele>685.4</ele><time>2026-04-29T11:07:13Z</time></trkpt><trkpt lat="37.704275842725764" lon="14.53419908362859"><ele>685.8</ele><time>2026-04-29T11:07:14Z</time></trkpt><trkpt lat="37.704229144986584" lon="14.534114143248395"><ele>686.2</ele><time>2026-04-29T11:07:16Z</time></trkpt><trkpt lat="37.70419262499643" lon="14.534005199899509"><ele>686.6</ele><time>2026-04-29T11:07:24Z</time></trkpt><trkpt lat="37.70410609647883" lon="14.533974197650005"><ele>687.0</ele><time>2026-04-29T11:07:25Z</time></trkpt><trkpt lat="37.70401778384502" lon="14.53396711608237"><ele>687.0</ele><time>2026-04-29T11:07:26Z</time></trkpt><trkpt lat="37.703900205758" lon="14.53398456570596"><ele>687.0</ele><time>2026-04-29T11:07:27Z</time></trkpt><trkpt lat="37.70379670209576" lon="14.534006092965937"><ele>687.0</ele><time>2026-04-29T11:07:28Z</time></trkpt><trkpt lat="37.70370888008461" lon="14.534019983949857"><ele>687.0</ele><time>2026-04-29T11:07:29Z</time></trkpt><trkpt lat="37.70362347616312" lon="14.534034522433954"><ele>687.0</ele><time>2026-04-29T11:07:30Z</time></trkpt><trkpt lat="37.70355120920615" lon="14.53405483750885"><ele>690.5</ele><time>2026-04-29T11:07:31Z</time></trkpt><trkpt lat="37.703464094501214" lon="14.534080026559534"><ele>694.0</ele><time>2026-04-29T11:07:32Z</time></trkpt><trkpt lat="37.703322740373615" lon="14.53403923146343"><ele>697.5</ele><time>2026-04-29T11:07:34Z</time></trkpt><trkpt lat="37.703243271089285" lon="14.533951078972656"><ele>701.0</ele><time>2026-04-29T11:07:35Z</time></trkpt><trkpt lat="37.7031933445995" lon="14.533792463736605"><ele>700.1999999999999</ele><time>2026-04-29T11:07:36Z</time></trkpt><trkpt lat="37.70313823334885" lon="14.53364425494001"><ele>699.4</ele><time>2026-04-29T11:07:37Z</time></trkpt><trkpt lat="37.70306634603908" lon="14.533506244640332"><ele>698.6</ele><time>2026-04-29T11:07:38Z</time></trkpt><trkpt lat="37.70304237480305" lon="14.53341320807418"><ele>697.8</ele><time>2026-04-29T11:07:39Z</time></trkpt><trkpt lat="37.703031630391536" lon="14.533292687282128"><ele>697.0</ele><time>2026-04-29T11:07:40Z</time></trkpt><trkpt lat="37.7030364689889" lon="14.533201535222721"><ele>697.0</ele><time>2026-04-29T11:07:41Z</time></trkpt><trkpt lat="37.70302891285412" lon="14.533117541588746"><ele>697.0</ele><time>2026-04-29T11:07:42Z</time></trkpt><trkpt lat="37.70297484546395" lon="14.53300465243753"><ele>697.0</ele><time>2026-04-29T11:07:44Z</time></trkpt><trkpt lat="37.70291289997741" lon="14.532988100017365"><ele>697.0</ele><time>2026-04-29T11:07:45Z</time></trkpt><trkpt lat="37.70284689097691" lon="14.533018138569942"><ele>697.0</ele><time>2026-04-29T11:07:46Z</time></trkpt><trkpt lat="37.70276966582233" lon="14.533038381045412"><ele>697.0</ele><time>2026-04-29T11:07:47Z</time></trkpt><trkpt lat="37.702654224909914" lon="14.533021189372107"><ele>694.0</ele><time>2026-04-29T11:07:48Z</time></trkpt><trkpt lat="37.702559208519254" lon="14.532968642864544"><ele>691.0</ele><time>2026-04-29T11:07:49Z</time></trkpt><trkpt lat="37.702475335575464" lon="14.532944514583154"><ele>688.0</ele><time>2026-04-29T11:07:50Z</time></trkpt><trkpt lat="37.702338017567094" lon="14.533087298894412"><ele>685.0</ele><time>2026-04-29T11:07:52Z</time></trkpt><trkpt lat="37.702222159032935" lon="14.53323248330173"><ele>685.0</ele><time>2026-04-29T11:07:53Z</time></trkpt><trkpt lat="37.702028875946574" lon="14.533427030876902"><ele>685.0</ele><time>2026-04-29T11:07:54Z</time></trkpt><trkpt lat="37.70187166103115" lon="14.533521051593345"><ele>685.0</ele><time>2026-04-29T11:07:55Z</time></trkpt><trkpt lat="37.70172072557585" lon="14.533607476945786"><ele>682.0</ele><time>2026-04-29T11:07:56Z</time></trkpt><trkpt lat="37.70157203620479" lon="14.533685149517506"><ele>679.0</ele><time>2026-04-29T11:07:57Z</time></trkpt><trkpt lat="37.70141868852771" lon="14.533727326204346"><ele>676.0</ele><time>2026-04-29T11:07:58Z</time></trkpt><trkpt lat="37.70126508365271" lon="14.533717713977017"><ele>676.0</ele><time>2026-04-29T11:07:59Z</time></trkpt><trkpt lat="37.70111782052908" lon="14.53372230426646"><ele>676.0</ele><time>2026-04-29T11:08:00Z</time></trkpt><trkpt lat="37.70096649495766" lon="14.533767185465596"><ele>676.0</ele><time>2026-04-29T11:08:01Z</time></trkpt><trkpt lat="37.70081503983927" lon="14.53385486990674"><ele>671.6666666666667</ele><time>2026-04-29T11:08:02Z</time></trkpt><trkpt lat="37.70066878869111" lon="14.533947810822198"><ele>667.3333333333334</ele><time>2026-04-29T11:08:03Z</time></trkpt><trkpt lat="37.700523148543375" lon="14.53402545312205"><ele>663.0</ele><time>2026-04-29T11:08:04Z</time></trkpt><trkpt lat="37.70038346812422" lon="14.534090557763536"><ele>663.0</ele><time>2026-04-29T11:08:05Z</time></trkpt><trkpt lat="37.70025004892319" lon="14.53414627324407"><ele>663.0</ele><time>2026-04-29T11:08:06Z</time></trkpt><trkpt lat="37.70011308592031" lon="14.53417523107156"><ele>663.0</ele><time>2026-04-29T11:08:07Z</time></trkpt><trkpt lat="37.699955390081655" lon="14.534156286099279"><ele>663.0</ele><time>2026-04-29T11:08:08Z</time></trkpt><trkpt lat="37.69977760261204" lon="14.534107388089675"><ele>659.0</ele><time>2026-04-29T11:08:09Z</time></trkpt><trkpt lat="37.699603025245246" lon="14.534057185552346"><ele>655.0</ele><time>2026-04-29T11:08:10Z</time></trkpt><trkpt lat="37.699444898517875" lon="14.534020766129666"><ele>651.0</ele><time>2026-04-29T11:08:11Z</time></trkpt><trkpt lat="37.69929899694914" lon="14.533993902826733"><ele>649.75</ele><time>2026-04-29T11:08:12Z</time></trkpt><trkpt lat="37.69915248896646" lon="14.533962448522624"><ele>648.5</ele><time>2026-04-29T11:08:13Z</time></trkpt><trkpt lat="37.69900851472599" lon="14.533914544643144"><ele>647.25</ele><time>2026-04-29T11:08:14Z</time></trkpt><trkpt lat="37.698883500694436" lon="14.533830263288522"><ele>646.0</ele><time>2026-04-29T11:08:15Z</time></trkpt><trkpt lat="37.6987827033182" lon="14.533712309036408"><ele>638.0</ele><time>2026-04-29T11:08:16Z</time></trkpt><trkpt lat="37.698668124395" lon="14.53362896701352"><ele>630.0</ele><time>2026-04-29T11:08:17Z</time></trkpt><trkpt lat="37.698509590891724" lon="14.53361377485196"><ele>622.0</ele><time>2026-04-29T11:08:18Z</time></trkpt><trkpt lat="37.69832895792369" lon="14.533619660248478"><ele>619.0</ele><time>2026-04-29T11:08:19Z</time></trkpt><trkpt lat="37.69816036561945" lon="14.533590176086989"><ele>616.0</ele><time>2026-04-29T11:08:20Z</time></trkpt><trkpt lat="37.69798971520858" lon="14.533528771051836"><ele>613.0</ele><time>2026-04-29T11:08:21Z</time></trkpt><trkpt lat="37.697816692569106" lon="14.533449091148377"><ele>614.6666666666667</ele><time>2026-04-29T11:08:22Z</time></trkpt><trkpt lat="37.69766103282478" lon="14.533369593836667"><ele>616.3333333333334</ele><time>2026-04-29T11:08:23Z</time></trkpt><trkpt lat="37.697524830313185" lon="14.533287572063038"><ele>618.0</ele><time>2026-04-29T11:08:24Z</time></trkpt><trkpt lat="37.69739514245751" lon="14.533184443311209"><ele>618.0</ele><time>2026-04-29T11:08:25Z</time></trkpt><trkpt lat="37.69727320162234" lon="14.53308388099035"><ele>618.0</ele><time>2026-04-29T11:08:26Z</time></trkpt><trkpt lat="37.69713341167137" lon="14.533028473349722"><ele>618.0</ele><time>2026-04-29T11:08:27Z</time></trkpt><trkpt lat="37.69696604388836" lon="14.53301516121254"><ele>617.0</ele><time>2026-04-29T11:08:28Z</time></trkpt><trkpt lat="37.69678776370414" lon="14.533015421725867"><ele>616.0</ele><time>2026-04-29T11:08:29Z</time></trkpt><trkpt lat="37.69663320916682" lon="14.533000600501797"><ele>615.0</ele><time>2026-04-29T11:08:30Z</time></trkpt><trkpt lat="37.696484639657584" lon="14.533026794523646"><ele>615.0</ele><time>2026-04-29T11:08:31Z</time></trkpt><trkpt lat="37.69636313116872" lon="14.533103133241367"><ele>615.0</ele><time>2026-04-29T11:08:32Z</time></trkpt><trkpt lat="37.69626390700526" lon="14.533171269739954"><ele>615.0</ele><time>2026-04-29T11:08:33.001Z</time></trkpt><trkpt lat="37.696151577839636" lon="14.533182307995112"><ele>615.0</ele><time>2026-04-29T11:08:34.001Z</time></trkpt><trkpt lat="37.69602337259081" lon="14.53311574115325"><ele>610.6666666666666</ele><time>2026-04-29T11:08:35.001Z</time></trkpt><trkpt lat="37.695884581472626" lon="14.53300231358118"><ele>606.3333333333333</ele><time>2026-04-29T11:08:36.001Z</time></trkpt><trkpt lat="37.695752966534286" lon="14.532866013303252"><ele>602.0</ele><time>2026-04-29T11:08:37.001Z</time></trkpt><trkpt lat="37.695632550998575" lon="14.532755078326826"><ele>598.3333333333333</ele><time>2026-04-29T11:08:38.001Z</time></trkpt><trkpt lat="37.69550696137509" lon="14.532650338604247"><ele>594.6666666666666</ele><time>2026-04-29T11:08:39.001Z</time></trkpt><trkpt lat="37.69536278864474" lon="14.532557096613933"><ele>591.0</ele><time>2026-04-29T11:08:40.001Z</time></trkpt><trkpt lat="37.69521087875007" lon="14.53249107530628"><ele>591.0</ele><time>2026-04-29T11:08:41.001Z</time></trkpt><trkpt lat="37.69506527506034" lon="14.532446237072712"><ele>591.0</ele><time>2026-04-29T11:08:42.001Z</time></trkpt><trkpt lat="37.6949204978905" lon="14.532394065281183"><ele>591.0</ele><time>2026-04-29T11:08:43.001Z</time></trkpt><trkpt lat="37.69477765737671" lon="14.532337703611871"><ele>591.0</ele><time>2026-04-29T11:08:44Z</time></trkpt><trkpt lat="37.69463144064538" lon="14.532279487064947"><ele>591.0</ele><time>2026-04-29T11:08:45Z</time></trkpt><trkpt lat="37.694490831334555" lon="14.53221552366088"><ele>591.0</ele><time>2026-04-29T11:08:46Z</time></trkpt><trkpt lat="37.69435989249184" lon="14.532157581326892"><ele>591.0</ele><time>2026-04-29T11:08:47Z</time></trkpt><trkpt lat="37.694223410500456" lon="14.532109298295762"><ele>590.0</ele><time>2026-04-29T11:08:48Z</time></trkpt><trkpt lat="37.694079735759246" lon="14.532066682384716"><ele>589.0</ele><time>2026-04-29T11:08:49Z</time></trkpt><trkpt lat="37.69392621228356" lon="14.532033157140043"><ele>588.0</ele><time>2026-04-29T11:08:50Z</time></trkpt><trkpt lat="37.69375889022682" lon="14.532037570388859"><ele>588.0</ele><time>2026-04-29T11:08:51Z</time></trkpt><trkpt lat="37.69359583761088" lon="14.532076763334452"><ele>588.0</ele><time>2026-04-29T11:08:52Z</time></trkpt><trkpt lat="37.69343352614513" lon="14.532162821874074"><ele>588.0</ele><time>2026-04-29T11:08:53Z</time></trkpt><trkpt lat="37.69328267036217" lon="14.532294633416875"><ele>585.3333333333334</ele><time>2026-04-29T11:08:54Z</time></trkpt><trkpt lat="37.693150040641164" lon="14.532456312053673"><ele>582.6666666666667</ele><time>2026-04-29T11:08:55Z</time></trkpt><trkpt lat="37.69303813663652" lon="14.532649015062916"><ele>580.0</ele><time>2026-04-29T11:08:56Z</time></trkpt><trkpt lat="37.69293214603258" lon="14.532852633602943"><ele>578.0</ele><time>2026-04-29T11:08:57Z</time></trkpt><trkpt lat="37.69282622340631" lon="14.533041839759669"><ele>576.0</ele><time>2026-04-29T11:08:58Z</time></trkpt><trkpt lat="37.69271314715174" lon="14.533221532848914"><ele>574.0</ele><time>2026-04-29T11:08:59Z</time></trkpt><trkpt lat="37.69260123236888" lon="14.533399244203709"><ele>574.0</ele><time>2026-04-29T11:09:00Z</time></trkpt><trkpt lat="37.69250237058378" lon="14.533581051885927"><ele>574.0</ele><time>2026-04-29T11:09:01Z</time></trkpt><trkpt lat="37.69241425841996" lon="14.533772920021006"><ele>574.0</ele><time>2026-04-29T11:09:02Z</time></trkpt><trkpt lat="37.69234205508972" lon="14.533964406808614"><ele>569.75</ele><time>2026-04-29T11:09:03Z</time></trkpt><trkpt lat="37.69228287497466" lon="14.534148339881874"><ele>565.5</ele><time>2026-04-29T11:09:04Z</time></trkpt><trkpt lat="37.6922239586945" lon="14.534310813759173"><ele>561.25</ele><time>2026-04-29T11:09:05Z</time></trkpt><trkpt lat="37.69216192063564" lon="14.534465728100168"><ele>557.0</ele><time>2026-04-29T11:09:06Z</time></trkpt><trkpt lat="37.6920943345409" lon="14.534612272762894"><ele>554.6666666666666</ele><time>2026-04-29T11:09:07Z</time></trkpt><trkpt lat="37.69200466132596" lon="14.534747745177208"><ele>552.3333333333334</ele><time>2026-04-29T11:09:08Z</time></trkpt><trkpt lat="37.69187325195887" lon="14.534865797322524"><ele>550.0</ele><time>2026-04-29T11:09:09Z</time></trkpt><trkpt lat="37.69171810017713" lon="14.534947087981783"><ele>550.0</ele><time>2026-04-29T11:09:10Z</time></trkpt><trkpt lat="37.691544332730146" lon="14.534982165969543"><ele>550.0</ele><time>2026-04-29T11:09:11Z</time></trkpt><trkpt lat="37.691370551594936" lon="14.53496026484327"><ele>550.0</ele><time>2026-04-29T11:09:12Z</time></trkpt><trkpt lat="37.69120760954676" lon="14.53489746914498"><ele>548.0</ele><time>2026-04-29T11:09:13Z</time></trkpt><trkpt lat="37.69107900661141" lon="14.534787838280414"><ele>546.0</ele><time>2026-04-29T11:09:14Z</time></trkpt><trkpt lat="37.69097879493871" lon="14.53465927030954"><ele>544.0</ele><time>2026-04-29T11:09:15Z</time></trkpt><trkpt lat="37.69089997567614" lon="14.534497111812694"><ele>542.0</ele><time>2026-04-29T11:09:16Z</time></trkpt><trkpt lat="37.69082361710777" lon="14.534308116600386"><ele>542.0</ele><time>2026-04-29T11:09:17Z</time></trkpt><trkpt lat="37.69075133421305" lon="14.5340868881484"><ele>542.0</ele><time>2026-04-29T11:09:18Z</time></trkpt><trkpt lat="37.69067292843317" lon="14.533861364316868"><ele>542.0</ele><time>2026-04-29T11:09:19Z</time></trkpt><trkpt lat="37.69059163129813" lon="14.53364918961401"><ele>540.0</ele><time>2026-04-29T11:09:20Z</time></trkpt><trkpt lat="37.690510352092566" lon="14.533441471980838"><ele>538.0</ele><time>2026-04-29T11:09:21Z</time></trkpt><trkpt lat="37.690432934445894" lon="14.533236646839644"><ele>536.0</ele><time>2026-04-29T11:09:22Z</time></trkpt><trkpt lat="37.6903610037319" lon="14.533033444930492"><ele>535.3333333333333</ele><time>2026-04-29T11:09:23Z</time></trkpt><trkpt lat="37.6902834584225" lon="14.532835288734553"><ele>534.6666666666666</ele><time>2026-04-29T11:09:24Z</time></trkpt><trkpt lat="37.69019016202812" lon="14.532652347271712"><ele>534.0</ele><time>2026-04-29T11:09:25Z</time></trkpt><trkpt lat="37.69007722400424" lon="14.53248260620425"><ele>531.6666666666666</ele><time>2026-04-29T11:09:26Z</time></trkpt><trkpt lat="37.68993897794873" lon="14.532322228515117"><ele>529.3333333333333</ele><time>2026-04-29T11:09:27Z</time></trkpt><trkpt lat="37.68978034009167" lon="14.532170516445479"><ele>527.0</ele><time>2026-04-29T11:09:28Z</time></trkpt><trkpt lat="37.68960224476325" lon="14.532032580520285"><ele>527.0</ele><time>2026-04-29T11:09:29Z</time></trkpt><trkpt lat="37.68942988270826" lon="14.531905817724194"><ele>527.0</ele><time>2026-04-29T11:09:30Z</time></trkpt><trkpt lat="37.68926795752438" lon="14.531782113434888"><ele>527.0</ele><time>2026-04-29T11:09:31Z</time></trkpt><trkpt lat="37.689127142361365" lon="14.531666775137825"><ele>524.5</ele><time>2026-04-29T11:09:32Z</time></trkpt><trkpt lat="37.68900363615649" lon="14.531553963539638"><ele>522.0</ele><time>2026-04-29T11:09:33Z</time></trkpt><trkpt lat="37.68889481531256" lon="14.531429796559673"><ele>519.5</ele><time>2026-04-29T11:09:34Z</time></trkpt><trkpt lat="37.6888016632093" lon="14.531282311324212"><ele>517.0</ele><time>2026-04-29T11:09:35Z</time></trkpt><trkpt lat="37.68873783716863" lon="14.531106673065887"><ele>517.0</ele><time>2026-04-29T11:09:36Z</time></trkpt><trkpt lat="37.688708254563004" lon="14.530901591246286"><ele>517.0</ele><time>2026-04-29T11:09:37Z</time></trkpt><trkpt lat="37.688715655004934" lon="14.53069261490328"><ele>517.0</ele><time>2026-04-29T11:09:38Z</time></trkpt><trkpt lat="37.688741117676" lon="14.530479263352333"><ele>513.6666666666667</ele><time>2026-04-29T11:09:39Z</time></trkpt><trkpt lat="37.688764934038964" lon="14.530275544212525"><ele>510.33333333333337</ele><time>2026-04-29T11:09:40Z</time></trkpt><trkpt lat="37.68877941012438" lon="14.530075401504366"><ele>507.0</ele><time>2026-04-29T11:09:41Z</time></trkpt><trkpt lat="37.6887947239622" lon="14.529886378272924"><ele>507.0</ele><time>2026-04-29T11:09:42Z</time></trkpt><trkpt lat="37.68879996502377" lon="14.529704106562315"><ele>507.0</ele><time>2026-04-29T11:09:43Z</time></trkpt><trkpt lat="37.68877354582428" lon="14.52952540674592"><ele>507.0</ele><time>2026-04-29T11:09:44Z</time></trkpt><trkpt lat="37.68871143886404" lon="14.529348252115437"><ele>507.0</ele><time>2026-04-29T11:09:45Z</time></trkpt><trkpt lat="37.688626484291795" lon="14.529189178028156"><ele>502.0</ele><time>2026-04-29T11:09:46Z</time></trkpt><trkpt lat="37.68850722841601" lon="14.529053208695608"><ele>497.0</ele><time>2026-04-29T11:09:47Z</time></trkpt><trkpt lat="37.68836412320973" lon="14.528941143200866"><ele>492.0</ele><time>2026-04-29T11:09:48Z</time></trkpt><trkpt lat="37.68820120297262" lon="14.528866848371315"><ele>492.0</ele><time>2026-04-29T11:09:49Z</time></trkpt><trkpt lat="37.688032079352986" lon="14.52882912154851"><ele>492.0</ele><time>2026-04-29T11:09:50Z</time></trkpt><trkpt lat="37.687864265528766" lon="14.528794249751401"><ele>492.0</ele><time>2026-04-29T11:09:51Z</time></trkpt><trkpt lat="37.68769792084321" lon="14.528737948632964"><ele>488.33333333333337</ele><time>2026-04-29T11:09:52Z</time></trkpt><trkpt lat="37.687528990011" lon="14.528677296010096"><ele>484.6666666666667</ele><time>2026-04-29T11:09:53Z</time></trkpt><trkpt lat="37.68736873590691" lon="14.52862333020557"><ele>481.0</ele><time>2026-04-29T11:09:54Z</time></trkpt><trkpt lat="37.6872170048154" lon="14.528569129400688"><ele>481.0</ele><time>2026-04-29T11:09:55Z</time></trkpt><trkpt lat="37.68705906219219" lon="14.528522709622312"><ele>481.0</ele><time>2026-04-29T11:09:56Z</time></trkpt><trkpt lat="37.68689679926355" lon="14.528477294573793"><ele>481.0</ele><time>2026-04-29T11:09:57Z</time></trkpt><trkpt lat="37.686725206651346" lon="14.528441015928415"><ele>476.6666666666667</ele><time>2026-04-29T11:09:58Z</time></trkpt><trkpt lat="37.68654799697424" lon="14.52841356771409"><ele>472.33333333333337</ele><time>2026-04-29T11:09:59Z</time></trkpt><trkpt lat="37.68636609124398" lon="14.528398550393183"><ele>468.0</ele><time>2026-04-29T11:10:00Z</time></trkpt><trkpt lat="37.686179471186676" lon="14.52839572724777"><ele>464.0</ele><time>2026-04-29T11:10:01Z</time></trkpt><trkpt lat="37.68598826625971" lon="14.528396388757626"><ele>460.0</ele><time>2026-04-29T11:10:02Z</time></trkpt><trkpt lat="37.68579429845991" lon="14.52840548249418"><ele>456.0</ele><time>2026-04-29T11:10:03Z</time></trkpt><trkpt lat="37.68559851557513" lon="14.52842103754506"><ele>456.0</ele><time>2026-04-29T11:10:04Z</time></trkpt><trkpt lat="37.68540240937557" lon="14.528438318601204"><ele>456.0</ele><time>2026-04-29T11:10:05Z</time></trkpt><trkpt lat="37.68521711084423" lon="14.528465516775865"><ele>456.0</ele><time>2026-04-29T11:10:06Z</time></trkpt><trkpt lat="37.685034271450974" lon="14.528500141116332"><ele>452.66666666666663</ele><time>2026-04-29T11:10:07Z</time></trkpt><trkpt lat="37.68485317420507" lon="14.528516816608741"><ele>449.3333333333333</ele><time>2026-04-29T11:10:08Z</time></trkpt><trkpt lat="37.6846787538722" lon="14.528547389686139"><ele>446.0</ele><time>2026-04-29T11:10:09Z</time></trkpt><trkpt lat="37.68450794131682" lon="14.528597155464468"><ele>446.66666666666663</ele><time>2026-04-29T11:10:10Z</time></trkpt><trkpt lat="37.68433839252408" lon="14.528699685327036"><ele>447.33333333333337</ele><time>2026-04-29T11:10:11Z</time></trkpt><trkpt lat="37.68418179140532" lon="14.528830390482002"><ele>448.0</ele><time>2026-04-29T11:10:12Z</time></trkpt><trkpt lat="37.684019525047006" lon="14.528967425703032"><ele>446.6666666666667</ele><time>2026-04-29T11:10:13Z</time></trkpt><trkpt lat="37.683856711626255" lon="14.529104175765472"><ele>445.33333333333337</ele><time>2026-04-29T11:10:14Z</time></trkpt><trkpt lat="37.683700992261976" lon="14.529228942618923"><ele>444.0</ele><time>2026-04-29T11:10:15Z</time></trkpt><trkpt lat="37.68355098392106" lon="14.52934751940923"><ele>444.0</ele><time>2026-04-29T11:10:16Z</time></trkpt><trkpt lat="37.68340220931552" lon="14.529456828731123"><ele>444.0</ele><time>2026-04-29T11:10:17Z</time></trkpt><trkpt lat="37.683247748935884" lon="14.52953449625126"><ele>444.0</ele><time>2026-04-29T11:10:18Z</time></trkpt><trkpt lat="37.68308411852173" lon="14.529598437599828"><ele>440.33333333333337</ele><time>2026-04-29T11:10:19Z</time></trkpt><trkpt lat="37.68291572352552" lon="14.529660947447775"><ele>436.6666666666667</ele><time>2026-04-29T11:10:20Z</time></trkpt><trkpt lat="37.68274016721577" lon="14.529725297222965"><ele>433.0</ele><time>2026-04-29T11:10:21Z</time></trkpt><trkpt lat="37.68256070740018" lon="14.529788768761843"><ele>432.6666666666667</ele><time>2026-04-29T11:10:22Z</time></trkpt><trkpt lat="37.68237485514408" lon="14.529854713667024"><ele>432.33333333333337</ele><time>2026-04-29T11:10:23Z</time></trkpt><trkpt lat="37.682185467526914" lon="14.52992643630278"><ele>432.0</ele><time>2026-04-29T11:10:24Z</time></trkpt><trkpt lat="37.68199657828459" lon="14.530000125432762"><ele>432.33333333333337</ele><time>2026-04-29T11:10:25Z</time></trkpt><trkpt lat="37.68180654508333" lon="14.530071199427079"><ele>432.6666666666667</ele><time>2026-04-29T11:10:26Z</time></trkpt><trkpt lat="37.6816159071594" lon="14.530146814875794"><ele>433.0</ele><time>2026-04-29T11:10:27Z</time></trkpt><trkpt lat="37.68143444428144" lon="14.530225083232049"><ele>433.0</ele><time>2026-04-29T11:10:28Z</time></trkpt><trkpt lat="37.68126531712757" lon="14.530313979112702"><ele>433.0</ele><time>2026-04-29T11:10:29Z</time></trkpt><trkpt lat="37.68109380646098" lon="14.530409384840366"><ele>433.0</ele><time>2026-04-29T11:10:30Z</time></trkpt><trkpt lat="37.68092254190418" lon="14.530510956523688"><ele>430.33333333333337</ele><time>2026-04-29T11:10:31Z</time></trkpt><trkpt lat="37.68075584887281" lon="14.530619863001652"><ele>427.66666666666663</ele><time>2026-04-29T11:10:32Z</time></trkpt><trkpt lat="37.6805931364407" lon="14.530738320768872"><ele>425.0</ele><time>2026-04-29T11:10:33Z</time></trkpt><trkpt lat="37.68043030756071" lon="14.5308590021004"><ele>425.0</ele><time>2026-04-29T11:10:34Z</time></trkpt><trkpt lat="37.68026879355684" lon="14.53098077309522"><ele>425.0</ele><time>2026-04-29T11:10:35Z</time></trkpt><trkpt lat="37.680107062355304" lon="14.531102740759513"><ele>425.0</ele><time>2026-04-29T11:10:36Z</time></trkpt><trkpt lat="37.67994551105296" lon="14.531223671869272"><ele>418.66666666666663</ele><time>2026-04-29T11:10:37Z</time></trkpt><trkpt lat="37.679781803717894" lon="14.531345066365878"><ele>412.33333333333337</ele><time>2026-04-29T11:10:38Z</time></trkpt><trkpt lat="37.679616563114784" lon="14.531467317454704"><ele>406.0</ele><time>2026-04-29T11:10:39Z</time></trkpt><trkpt lat="37.679445187939095" lon="14.531573790409187"><ele>405.6666666666667</ele><time>2026-04-29T11:10:40Z</time></trkpt><trkpt lat="37.67927053287011" lon="14.531657493588106"><ele>405.33333333333337</ele><time>2026-04-29T11:10:41Z</time></trkpt><trkpt lat="37.67910123237832" lon="14.531738115946117"><ele>405.0</ele><time>2026-04-29T11:10:42Z</time></trkpt><trkpt lat="37.67893540511247" lon="14.53181708437665"><ele>405.0</ele><time>2026-04-29T11:10:43Z</time></trkpt><trkpt lat="37.678769396166956" lon="14.53189559838473"><ele>405.0</ele><time>2026-04-29T11:10:44Z</time></trkpt><trkpt lat="37.678607303685254" lon="14.531972126209077"><ele>405.0</ele><time>2026-04-29T11:10:45Z</time></trkpt><trkpt lat="37.678448833258784" lon="14.532044213848279"><ele>400.66666666666663</ele><time>2026-04-29T11:10:46Z</time></trkpt><trkpt lat="37.678292157218245" lon="14.532112654525474"><ele>396.3333333333333</ele><time>2026-04-29T11:10:47Z</time></trkpt><trkpt lat="37.67813846495327" lon="14.532186338428074"><ele>392.0</ele><time>2026-04-29T11:10:48Z</time></trkpt><trkpt lat="37.67797676929828" lon="14.532192794711573"><ele>392.0</ele><time>2026-04-29T11:10:49Z</time></trkpt><trkpt lat="37.677815550943826" lon="14.532157272537603"><ele>392.0</ele><time>2026-04-29T11:10:50Z</time></trkpt><trkpt lat="37.67766120891543" lon="14.532090411803154"><ele>392.0</ele><time>2026-04-29T11:10:51Z</time></trkpt><trkpt lat="37.67751998126513" lon="14.531997245496923"><ele>391.3333333333333</ele><time>2026-04-29T11:10:52Z</time></trkpt><trkpt lat="37.67738505523938" lon="14.5318776891608"><ele>390.66666666666663</ele><time>2026-04-29T11:10:53Z</time></trkpt><trkpt lat="37.677254767601774" lon="14.531734281846589"><ele>390.0</ele><time>2026-04-29T11:10:54Z</time></trkpt><trkpt lat="37.6771198927313" lon="14.531592447998413"><ele>390.0</ele><time>2026-04-29T11:10:55Z</time></trkpt><trkpt lat="37.6769842222061" lon="14.531456626739276"><ele>390.0</ele><time>2026-04-29T11:10:56Z</time></trkpt><trkpt lat="37.67684643218034" lon="14.53131826187078"><ele>390.0</ele><time>2026-04-29T11:10:57Z</time></trkpt><trkpt lat="37.67671029375731" lon="14.531180471541639"><ele>389.66666666666663</ele><time>2026-04-29T11:10:58Z</time></trkpt><trkpt lat="37.67658138922425" lon="14.53105230713405"><ele>389.3333333333333</ele><time>2026-04-29T11:10:59Z</time></trkpt><trkpt lat="37.6764484365328" lon="14.530954135102405"><ele>389.0</ele><time>2026-04-29T11:11:00Z</time></trkpt><trkpt lat="37.67630092268327" lon="14.53089870657715"><ele>389.0</ele><time>2026-04-29T11:11:01Z</time></trkpt><trkpt lat="37.67615583952465" lon="14.530885922395981"><ele>389.0</ele><time>2026-04-29T11:11:02Z</time></trkpt><trkpt lat="37.676003732475834" lon="14.53089362338683"><ele>389.0</ele><time>2026-04-29T11:11:03Z</time></trkpt><trkpt lat="37.6758491640281" lon="14.53097657429307"><ele>386.0</ele><time>2026-04-29T11:11:04Z</time></trkpt><trkpt lat="37.67569929777795" lon="14.53108080838185"><ele>383.0</ele><time>2026-04-29T11:11:05Z</time></trkpt><trkpt lat="37.67554092544971" lon="14.531190000066294"><ele>380.0</ele><time>2026-04-29T11:11:06Z</time></trkpt><trkpt lat="37.67538019846437" lon="14.531299987406307"><ele>378.6666666666667</ele><time>2026-04-29T11:11:07Z</time></trkpt><trkpt lat="37.67521699578128" lon="14.531412658548547"><ele>377.3333333333333</ele><time>2026-04-29T11:11:08Z</time></trkpt><trkpt lat="37.67504792753984" lon="14.531532436725765"><ele>376.0</ele><time>2026-04-29T11:11:09Z</time></trkpt><trkpt lat="37.67487800823163" lon="14.53165377006419"><ele>376.0</ele><time>2026-04-29T11:11:10Z</time></trkpt><trkpt lat="37.6747107335895" lon="14.53177123979014"><ele>376.0</ele><time>2026-04-29T11:11:11Z</time></trkpt><trkpt lat="37.674542027531494" lon="14.531887751816415"><ele>376.0</ele><time>2026-04-29T11:11:12Z</time></trkpt><trkpt lat="37.674374056047675" lon="14.532006148634345"><ele>374.66666666666663</ele><time>2026-04-29T11:11:13Z</time></trkpt><trkpt lat="37.67420541516751" lon="14.53212486893633"><ele>373.3333333333333</ele><time>2026-04-29T11:11:14Z</time></trkpt><trkpt lat="37.674040679592736" lon="14.532240281140302"><ele>372.0</ele><time>2026-04-29T11:11:15Z</time></trkpt><trkpt lat="37.67387579103701" lon="14.532355373612617"><ele>372.0</ele><time>2026-04-29T11:11:16Z</time></trkpt><trkpt lat="37.673712155948046" lon="14.532469591114577"><ele>372.0</ele><time>2026-04-29T11:11:17Z</time></trkpt><trkpt lat="37.67355030823979" lon="14.532584085491568"><ele>372.0</ele><time>2026-04-29T11:11:18Z</time></trkpt><trkpt lat="37.67339059729394" lon="14.532697586182561"><ele>372.6666666666667</ele><time>2026-04-29T11:11:19Z</time></trkpt><trkpt lat="37.673235215625105" lon="14.532806518635498"><ele>373.33333333333337</ele><time>2026-04-29T11:11:20Z</time></trkpt><trkpt lat="37.67309500179458" lon="14.532904242719317"><ele>374.0</ele><time>2026-04-29T11:11:21Z</time></trkpt><trkpt lat="37.672976070229936" lon="14.532986451816278"><ele>374.0</ele><time>2026-04-29T11:11:22Z</time></trkpt><trkpt lat="37.67286845043285" lon="14.533046995947014"><ele>374.0</ele><time>2026-04-29T11:11:23Z</time></trkpt><trkpt lat="37.67275510677046" lon="14.533091348675105"><ele>374.0</ele><time>2026-04-29T11:11:24Z</time></trkpt><trkpt lat="37.6726301080157" lon="14.533042749647079"><ele>374.0</ele><time>2026-04-29T11:11:25Z</time></trkpt><trkpt lat="37.6725196346246" lon="14.532941696801057"><ele>375.0</ele><time>2026-04-29T11:11:26Z</time></trkpt><trkpt lat="37.672434962408325" lon="14.532788930001177"><ele>376.0</ele><time>2026-04-29T11:11:27Z</time></trkpt><trkpt lat="37.67238478189797" lon="14.532606384151213"><ele>377.0</ele><time>2026-04-29T11:11:28Z</time></trkpt><trkpt lat="37.67236530399865" lon="14.532400271840658"><ele>377.0</ele><time>2026-04-29T11:11:29Z</time></trkpt><trkpt lat="37.672337474290416" lon="14.532193762962764"><ele>377.0</ele><time>2026-04-29T11:11:30Z</time></trkpt><trkpt lat="37.67228445895394" lon="14.531987427606863"><ele>377.0</ele><time>2026-04-29T11:11:31Z</time></trkpt><trkpt lat="37.672241428396404" lon="14.531767053956786"><ele>378.0</ele><time>2026-04-29T11:11:32Z</time></trkpt><trkpt lat="37.67220794251793" lon="14.531535464310508"><ele>379.0</ele><time>2026-04-29T11:11:33Z</time></trkpt><trkpt lat="37.67216762605607" lon="14.531296962732373"><ele>380.0</ele><time>2026-04-29T11:11:34Z</time></trkpt><trkpt lat="37.67212016081402" lon="14.531059163819391"><ele>380.0</ele><time>2026-04-29T11:11:35Z</time></trkpt><trkpt lat="37.67207742034189" lon="14.530820639016685"><ele>380.0</ele><time>2026-04-29T11:11:36Z</time></trkpt><trkpt lat="37.672035827692945" lon="14.530582087074107"><ele>380.0</ele><time>2026-04-29T11:11:37Z</time></trkpt><trkpt lat="37.671994905043405" lon="14.530344147162326"><ele>380.0</ele><time>2026-04-29T11:11:38Z</time></trkpt><trkpt lat="37.67195572562289" lon="14.53010511967743"><ele>380.0</ele><time>2026-04-29T11:11:39Z</time></trkpt><trkpt lat="37.67191749702299" lon="14.529865449810426"><ele>380.0</ele><time>2026-04-29T11:11:40Z</time></trkpt><trkpt lat="37.671878039174885" lon="14.529630657662597"><ele>386.6666666666667</ele><time>2026-04-29T11:11:41Z</time></trkpt><trkpt lat="37.671839176679164" lon="14.529402460614772"><ele>393.33333333333337</ele><time>2026-04-29T11:11:42Z</time></trkpt><trkpt lat="37.67180666795086" lon="14.529186855269534"><ele>400.0</ele><time>2026-04-29T11:11:43Z</time></trkpt><trkpt lat="37.67177704063626" lon="14.528967290793247"><ele>400.0</ele><time>2026-04-29T11:11:44Z</time></trkpt><trkpt lat="37.67174291094295" lon="14.52875371270413"><ele>400.0</ele><time>2026-04-29T11:11:45Z</time></trkpt><trkpt lat="37.67170015742233" lon="14.5285452597591"><ele>400.0</ele><time>2026-04-29T11:11:46Z</time></trkpt><trkpt lat="37.67165277294479" lon="14.528341045798681"><ele>399.0</ele><time>2026-04-29T11:11:47Z</time></trkpt><trkpt lat="37.67160158853759" lon="14.528146532034107"><ele>398.0</ele><time>2026-04-29T11:11:48Z</time></trkpt><trkpt lat="37.67155555740662" lon="14.52796561710216"><ele>397.0</ele><time>2026-04-29T11:11:49Z</time></trkpt><trkpt lat="37.67153517844188" lon="14.527788475704435"><ele>396.40000000000003</ele><time>2026-04-29T11:11:50Z</time></trkpt><trkpt lat="37.671552091824715" lon="14.527640294240877"><ele>395.8</ele><time>2026-04-29T11:11:51Z</time></trkpt><trkpt lat="37.67156288491077" lon="14.527533867358542"><ele>395.2</ele><time>2026-04-29T11:11:52Z</time></trkpt><trkpt lat="37.67152347390186" lon="14.527456531277807"><ele>394.6</ele><time>2026-04-29T11:11:53Z</time></trkpt><trkpt lat="37.67144400713979" lon="14.527413233621285"><ele>394.0</ele><time>2026-04-29T11:11:54Z</time></trkpt><trkpt lat="37.67134988146917" lon="14.52742759836676"><ele>394.0</ele><time>2026-04-29T11:11:55Z</time></trkpt><trkpt lat="37.671273555282085" lon="14.527523792646704"><ele>394.0</ele><time>2026-04-29T11:11:56Z</time></trkpt><trkpt lat="37.67123921221656" lon="14.527648414363863"><ele>394.0</ele><time>2026-04-29T11:11:57Z</time></trkpt><trkpt lat="37.67125544069288" lon="14.527807384641841"><ele>394.0</ele><time>2026-04-29T11:11:58Z</time></trkpt><trkpt lat="37.67128612336427" lon="14.52796351167248"><ele>394.6</ele><time>2026-04-29T11:11:59Z</time></trkpt><trkpt lat="37.67129785118103" lon="14.528113044365497"><ele>395.2</ele><time>2026-04-29T11:12:00Z</time></trkpt><trkpt lat="37.67130274151431" lon="14.52823406815058"><ele>395.8</ele><time>2026-04-29T11:12:01Z</time></trkpt><trkpt lat="37.67130540806544" lon="14.528329364847727"><ele>396.40000000000003</ele><time>2026-04-29T11:12:02Z</time></trkpt><trkpt lat="37.67130589972934" lon="14.52846123620116"><ele>397.0</ele><time>2026-04-29T11:12:04Z</time></trkpt><trkpt lat="37.6712896968094" lon="14.528638490493691"><ele>397.75</ele><time>2026-04-29T11:12:06Z</time></trkpt><trkpt lat="37.67125513399745" lon="14.528766781495603"><ele>398.5</ele><time>2026-04-29T11:12:07Z</time></trkpt><trkpt lat="37.671200949279864" lon="14.528903856357008"><ele>399.25</ele><time>2026-04-29T11:12:08Z</time></trkpt><trkpt lat="37.671140379184386" lon="14.529058252986808"><ele>400.0</ele><time>2026-04-29T11:12:09Z</time></trkpt><trkpt lat="37.67109364469754" lon="14.529248648326528"><ele>405.6666666666667</ele><time>2026-04-29T11:12:10Z</time></trkpt><trkpt lat="37.671060255618976" lon="14.52946762623805"><ele>411.33333333333337</ele><time>2026-04-29T11:12:11Z</time></trkpt><trkpt lat="37.671038140644555" lon="14.529653179603228"><ele>417.0</ele><time>2026-04-29T11:12:12Z</time></trkpt><trkpt lat="37.67098903272587" lon="14.529799700410468"><ele>417.0</ele><time>2026-04-29T11:12:13Z</time></trkpt><trkpt lat="37.67097123433656" lon="14.52994879436114"><ele>417.0</ele><time>2026-04-29T11:12:14Z</time></trkpt><trkpt lat="37.67098699574813" lon="14.530102255491661"><ele>417.0</ele><time>2026-04-29T11:12:15Z</time></trkpt><trkpt lat="37.6710582255238" lon="14.530260104019096"><ele>417.0</ele><time>2026-04-29T11:12:16Z</time></trkpt><trkpt lat="37.671117578805834" lon="14.530419092551345"><ele>413.25</ele><time>2026-04-29T11:12:17Z</time></trkpt><trkpt lat="37.67117715677625" lon="14.53056442721569"><ele>409.5</ele><time>2026-04-29T11:12:18Z</time></trkpt><trkpt lat="37.67121970821669" lon="14.530710008703133"><ele>405.75</ele><time>2026-04-29T11:12:19Z</time></trkpt><trkpt lat="37.67123737908896" lon="14.5308520995962"><ele>402.0</ele><time>2026-04-29T11:12:20Z</time></trkpt><trkpt lat="37.671213584225974" lon="14.530978566914719"><ele>402.0</ele><time>2026-04-29T11:12:21Z</time></trkpt><trkpt lat="37.67116700907854" lon="14.531126216866593"><ele>402.0</ele><time>2026-04-29T11:12:22Z</time></trkpt><trkpt lat="37.671103067048016" lon="14.531277782785638"><ele>402.0</ele><time>2026-04-29T11:12:23Z</time></trkpt><trkpt lat="37.671024214124905" lon="14.531431415716346"><ele>402.0</ele><time>2026-04-29T11:12:24Z</time></trkpt><trkpt lat="37.67093391453941" lon="14.531590187414636"><ele>406.0</ele><time>2026-04-29T11:12:25Z</time></trkpt><trkpt lat="37.670838833836655" lon="14.531756110142151"><ele>410.0</ele><time>2026-04-29T11:12:26Z</time></trkpt><trkpt lat="37.67073704668276" lon="14.531933000227601"><ele>414.0</ele><time>2026-04-29T11:12:27Z</time></trkpt><trkpt lat="37.67063353012528" lon="14.532110349654921"><ele>414.0</ele><time>2026-04-29T11:12:28Z</time></trkpt><trkpt lat="37.67052392252933" lon="14.532293074004755"><ele>414.0</ele><time>2026-04-29T11:12:29Z</time></trkpt><trkpt lat="37.67041908768731" lon="14.532474655388093"><ele>414.0</ele><time>2026-04-29T11:12:30Z</time></trkpt><trkpt lat="37.670321113228766" lon="14.532648500461258"><ele>418.75</ele><time>2026-04-29T11:12:31Z</time></trkpt><trkpt lat="37.670229739448544" lon="14.532801595937126"><ele>423.5</ele><time>2026-04-29T11:12:32Z</time></trkpt><trkpt lat="37.67014454222946" lon="14.532944987278169"><ele>428.25</ele><time>2026-04-29T11:12:33Z</time></trkpt><trkpt lat="37.67007892183478" lon="14.533076278912047"><ele>433.0</ele><time>2026-04-29T11:12:34Z</time></trkpt><trkpt lat="37.670036514163996" lon="14.533226070583263"><ele>433.0</ele><time>2026-04-29T11:12:35Z</time></trkpt><trkpt lat="37.67007893271067" lon="14.533404973759353"><ele>433.0</ele><time>2026-04-29T11:12:36Z</time></trkpt><trkpt lat="37.670180228636504" lon="14.533532282736747"><ele>433.0</ele><time>2026-04-29T11:12:37Z</time></trkpt><trkpt lat="37.67023711229792" lon="14.533656501162227"><ele>433.0</ele><time>2026-04-29T11:12:38Z</time></trkpt><trkpt lat="37.67026525503611" lon="14.533774719642441"><ele>433.0</ele><time>2026-04-29T11:12:39Z</time></trkpt><trkpt lat="37.67024412619873" lon="14.53388411401992"><ele>433.0</ele><time>2026-04-29T11:12:40Z</time></trkpt><trkpt lat="37.67022626403633" lon="14.534007692125975"><ele>433.0</ele><time>2026-04-29T11:12:41Z</time></trkpt><trkpt lat="37.67013367053072" lon="14.53412434727557"><ele>433.0</ele><time>2026-04-29T11:12:42Z</time></trkpt><trkpt lat="37.670040200727726" lon="14.534239886192578"><ele>433.0</ele><time>2026-04-29T11:12:43Z</time></trkpt><trkpt lat="37.6699662795877" lon="14.534374897771679"><ele>433.0</ele><time>2026-04-29T11:12:44Z</time></trkpt><trkpt lat="37.6699106186541" lon="14.534513211582222"><ele>433.0</ele><time>2026-04-29T11:12:45Z</time></trkpt><trkpt lat="37.669864548589345" lon="14.534660461054361"><ele>433.0</ele><time>2026-04-29T11:12:46Z</time></trkpt><trkpt lat="37.66982354853818" lon="14.53483064570833"><ele>432.5</ele><time>2026-04-29T11:12:47Z</time></trkpt><trkpt lat="37.66980012142187" lon="14.535004485169226"><ele>432.0</ele><time>2026-04-29T11:12:48Z</time></trkpt><trkpt lat="37.66979036516957" lon="14.53516377223898"><ele>431.5</ele><time>2026-04-29T11:12:49Z</time></trkpt><trkpt lat="37.669784517882015" lon="14.535308817539399"><ele>431.0</ele><time>2026-04-29T11:12:50Z</time></trkpt><trkpt lat="37.66976410503721" lon="14.535451181310187"><ele>429.25</ele><time>2026-04-29T11:12:51Z</time></trkpt><trkpt lat="37.669701926679515" lon="14.535565169071045"><ele>427.5</ele><time>2026-04-29T11:12:52Z</time></trkpt><trkpt lat="37.669593465009825" lon="14.53563967289082"><ele>425.75</ele><time>2026-04-29T11:12:53Z</time></trkpt><trkpt lat="37.66945451421439" lon="14.535692417073152"><ele>424.0</ele><time>2026-04-29T11:12:54Z</time></trkpt><trkpt lat="37.669307415644056" lon="14.535754888286352"><ele>430.6666666666667</ele><time>2026-04-29T11:12:55Z</time></trkpt><trkpt lat="37.66916202697556" lon="14.535833282420825"><ele>437.33333333333337</ele><time>2026-04-29T11:12:56Z</time></trkpt><trkpt lat="37.669014052807995" lon="14.535901925667966"><ele>444.0</ele><time>2026-04-29T11:12:57Z</time></trkpt><trkpt lat="37.668867060662805" lon="14.535946006863703"><ele>444.0</ele><time>2026-04-29T11:12:58Z</time></trkpt><trkpt lat="37.66872834688795" lon="14.535968966387587"><ele>444.0</ele><time>2026-04-29T11:12:59Z</time></trkpt><trkpt lat="37.66860318924071" lon="14.535972749520605"><ele>444.0</ele><time>2026-04-29T11:13:00Z</time></trkpt><trkpt lat="37.668493238540165" lon="14.535949497032666"><ele>444.0</ele><time>2026-04-29T11:13:01Z</time></trkpt><trkpt lat="37.668396195275896" lon="14.535881097894688"><ele>445.75</ele><time>2026-04-29T11:13:02Z</time></trkpt><trkpt lat="37.66829889012993" lon="14.535775971139683"><ele>447.5</ele><time>2026-04-29T11:13:03Z</time></trkpt><trkpt lat="37.66819907475722" lon="14.535681388113238"><ele>449.25</ele><time>2026-04-29T11:13:04Z</time></trkpt><trkpt lat="37.668085095529015" lon="14.53565717723726"><ele>451.0</ele><time>2026-04-29T11:13:05Z</time></trkpt><trkpt lat="37.66797650725053" lon="14.535693460465591"><ele>451.00000000000006</ele><time>2026-04-29T11:13:06Z</time></trkpt><trkpt lat="37.66788833891505" lon="14.53575652639959"><ele>451.0</ele><time>2026-04-29T11:13:07Z</time></trkpt><trkpt lat="37.66781623287472" lon="14.535811706691732"><ele>451.0</ele><time>2026-04-29T11:13:08Z</time></trkpt><trkpt lat="37.66771824084022" lon="14.535828352464216"><ele>451.0</ele><time>2026-04-29T11:13:10Z</time></trkpt><trkpt lat="37.66768447855672" lon="14.535897834566649"><ele>451.00000000000006</ele><time>2026-04-29T11:13:12Z</time></trkpt><trkpt lat="37.66762079853728" lon="14.535891662163198"><ele>451.0</ele><time>2026-04-29T11:13:17Z</time></trkpt><trkpt lat="37.66748530044529" lon="14.535934005392004"><ele>452.20000000000005</ele><time>2026-04-29T11:13:50Z</time></trkpt><trkpt lat="37.667376411566735" lon="14.535958698895717"><ele>453.40000000000003</ele><time>2026-04-29T11:13:51Z</time></trkpt><trkpt lat="37.66727666505125" lon="14.535966332606463"><ele>454.6</ele><time>2026-04-29T11:13:52Z</time></trkpt><trkpt lat="37.66717134246856" lon="14.535945612631743"><ele>455.8</ele><time>2026-04-29T11:13:53Z</time></trkpt><trkpt lat="37.66704622723454" lon="14.535900450257952"><ele>457.0</ele><time>2026-04-29T11:13:54Z</time></trkpt><trkpt lat="37.66691774805543" lon="14.53584923622994"><ele>458.6666666666667</ele><time>2026-04-29T11:13:55Z</time></trkpt><trkpt lat="37.66676945608793" lon="14.535854374414587"><ele>460.33333333333337</ele><time>2026-04-29T11:13:56Z</time></trkpt><trkpt lat="37.666604845853676" lon="14.535910273888527"><ele>462.0</ele><time>2026-04-29T11:13:57Z</time></trkpt><trkpt lat="37.666462887636584" lon="14.535959720313913"><ele>462.0</ele><time>2026-04-29T11:13:58Z</time></trkpt><trkpt lat="37.666340093518414" lon="14.53598704902832"><ele>462.00000000000006</ele><time>2026-04-29T11:13:59Z</time></trkpt><trkpt lat="37.66623029191844" lon="14.535994394353443"><ele>462.00000000000006</ele><time>2026-04-29T11:14:00Z</time></trkpt><trkpt lat="37.66614586293994" lon="14.535960391066268"><ele>462.0</ele><time>2026-04-29T11:14:01Z</time></trkpt><trkpt lat="37.666067176016334" lon="14.535881564910301"><ele>462.0</ele><time>2026-04-29T11:14:02Z</time></trkpt><trkpt lat="37.66596979273674" lon="14.53579801744443"><ele>462.5</ele><time>2026-04-29T11:14:03Z</time></trkpt><trkpt lat="37.665854165208174" lon="14.535719308753714"><ele>463.0</ele><time>2026-04-29T11:14:04Z</time></trkpt><trkpt lat="37.665737529683284" lon="14.535628714447341"><ele>463.5</ele><time>2026-04-29T11:14:05Z</time></trkpt><trkpt lat="37.66562218102684" lon="14.535531839386953"><ele>464.0</ele><time>2026-04-29T11:14:06Z</time></trkpt><trkpt lat="37.66550222567164" lon="14.535427161682996"><ele>466.0</ele><time>2026-04-29T11:14:07Z</time></trkpt><trkpt lat="37.66538982653544" lon="14.535311801805115"><ele>468.0</ele><time>2026-04-29T11:14:08Z</time></trkpt><trkpt lat="37.66530402071101" lon="14.5351988807494"><ele>470.0</ele><time>2026-04-29T11:14:09Z</time></trkpt><trkpt lat="37.66523394271366" lon="14.535090378582646"><ele>472.0</ele><time>2026-04-29T11:14:10Z</time></trkpt><trkpt lat="37.665146214963166" lon="14.534998859514541"><ele>472.0</ele><time>2026-04-29T11:14:11Z</time></trkpt><trkpt lat="37.665025613726684" lon="14.53493599785036"><ele>472.0</ele><time>2026-04-29T11:14:12Z</time></trkpt><trkpt lat="37.664885742557864" lon="14.534894831300674"><ele>472.0</ele><time>2026-04-29T11:14:13Z</time></trkpt><trkpt lat="37.664731340976374" lon="14.534880138543208"><ele>472.0</ele><time>2026-04-29T11:14:14Z</time></trkpt><trkpt lat="37.66458803333866" lon="14.53485942711945"><ele>472.0</ele><time>2026-04-29T11:14:15Z</time></trkpt><trkpt lat="37.66444815425835" lon="14.534815709292575"><ele>472.0</ele><time>2026-04-29T11:14:16Z</time></trkpt><trkpt lat="37.66433137277864" lon="14.534742710035689"><ele>472.0</ele><time>2026-04-29T11:14:17Z</time></trkpt><trkpt lat="37.66422588248285" lon="14.534667153028126"><ele>472.0</ele><time>2026-04-29T11:14:18Z</time></trkpt><trkpt lat="37.66408470208826" lon="14.53463734099086"><ele>473.33333333333337</ele><time>2026-04-29T11:14:19Z</time></trkpt><trkpt lat="37.66391262803141" lon="14.53465768633971"><ele>474.66666666666663</ele><time>2026-04-29T11:14:20Z</time></trkpt><trkpt lat="37.663749213351245" lon="14.534698991114018"><ele>476.0</ele><time>2026-04-29T11:14:21Z</time></trkpt><trkpt lat="37.66359558158857" lon="14.534706859341867"><ele>477.75</ele><time>2026-04-29T11:14:22Z</time></trkpt><trkpt lat="37.66344591528588" lon="14.534688319570268"><ele>479.5</ele><time>2026-04-29T11:14:23Z</time></trkpt><trkpt lat="37.663310459349105" lon="14.534654895399044"><ele>481.25</ele><time>2026-04-29T11:14:24Z</time></trkpt><trkpt lat="37.66318673003928" lon="14.534629135061751"><ele>483.0</ele><time>2026-04-29T11:14:25Z</time></trkpt><trkpt lat="37.66307651505951" lon="14.534605721417881"><ele>483.0</ele><time>2026-04-29T11:14:26Z</time></trkpt><trkpt lat="37.662974963904404" lon="14.534609674709033"><ele>482.99999999999994</ele><time>2026-04-29T11:14:27Z</time></trkpt><trkpt lat="37.66288638632067" lon="14.534674320913144"><ele>482.99999999999994</ele><time>2026-04-29T11:14:28Z</time></trkpt><trkpt lat="37.6628307803306" lon="14.534790081917542"><ele>483.0</ele><time>2026-04-29T11:14:29Z</time></trkpt><trkpt lat="37.66281031125744" lon="14.53494227159142"><ele>483.0</ele><time>2026-04-29T11:14:30Z</time></trkpt><trkpt lat="37.662821853152714" lon="14.535114542686033"><ele>483.0</ele><time>2026-04-29T11:14:31Z</time></trkpt><trkpt lat="37.66286024879259" lon="14.535294832922359"><ele>483.0</ele><time>2026-04-29T11:14:32Z</time></trkpt><trkpt lat="37.662920659890936" lon="14.535460358197788"><ele>483.0</ele><time>2026-04-29T11:14:33Z</time></trkpt><trkpt lat="37.66298725340269" lon="14.535600040448623"><ele>483.0</ele><time>2026-04-29T11:14:34Z</time></trkpt><trkpt lat="37.66305217161049" lon="14.53573797630782"><ele>483.5</ele><time>2026-04-29T11:14:35Z</time></trkpt><trkpt lat="37.663096114678915" lon="14.535892301999553"><ele>484.0</ele><time>2026-04-29T11:14:36Z</time></trkpt><trkpt lat="37.6631149361889" lon="14.536043715220973"><ele>484.5</ele><time>2026-04-29T11:14:37Z</time></trkpt><trkpt lat="37.6631135793302" lon="14.536184069962138"><ele>485.0</ele><time>2026-04-29T11:14:38Z</time></trkpt><trkpt lat="37.66307217330643" lon="14.53632160030554"><ele>485.25</ele><time>2026-04-29T11:14:39Z</time></trkpt><trkpt lat="37.6629870038077" lon="14.536452224575324"><ele>485.5</ele><time>2026-04-29T11:14:40Z</time></trkpt><trkpt lat="37.66288303587692" lon="14.536572242588438"><ele>485.75</ele><time>2026-04-29T11:14:41Z</time></trkpt><trkpt lat="37.662804181223535" lon="14.536686642632578"><ele>486.0</ele><time>2026-04-29T11:14:42Z</time></trkpt><trkpt lat="37.662756448496054" lon="14.536825489905372"><ele>489.25</ele><time>2026-04-29T11:14:43Z</time></trkpt><trkpt lat="37.66272963536389" lon="14.537004878325941"><ele>492.5</ele><time>2026-04-29T11:14:44Z</time></trkpt><trkpt lat="37.66271062422138" lon="14.537187216930269"><ele>495.75</ele><time>2026-04-29T11:14:45Z</time></trkpt><trkpt lat="37.662676293494144" lon="14.537335709324056"><ele>499.0</ele><time>2026-04-29T11:14:46Z</time></trkpt><trkpt lat="37.66261813295397" lon="14.537462383428215"><ele>499.00000000000006</ele><time>2026-04-29T11:14:47Z</time></trkpt><trkpt lat="37.662576075524214" lon="14.53753700774402"><ele>499.0</ele><time>2026-04-29T11:14:48Z</time></trkpt><trkpt lat="37.6624971102637" lon="14.537508063410597"><ele>499.0</ele><time>2026-04-29T11:14:53Z</time></trkpt><trkpt lat="37.66241101788989" lon="14.53745266454665"><ele>499.0</ele><time>2026-04-29T11:14:56Z</time></trkpt><trkpt lat="37.66231323399431" lon="14.53742292284763"><ele>499.00000000000006</ele><time>2026-04-29T11:14:58Z</time></trkpt><trkpt lat="37.66224311329864" lon="14.537371080181613"><ele>499.0</ele><time>2026-04-29T11:14:59Z</time></trkpt><trkpt lat="37.66214326785748" lon="14.53731492100164"><ele>499.0</ele><time>2026-04-29T11:15:00Z</time></trkpt><trkpt lat="37.66203366577119" lon="14.537277472190604"><ele>499.0</ele><time>2026-04-29T11:15:01Z</time></trkpt><trkpt lat="37.66192799862447" lon="14.53724719649138"><ele>499.0</ele><time>2026-04-29T11:15:02Z</time></trkpt><trkpt lat="37.66183742024576" lon="14.537230455743824"><ele>499.0</ele><time>2026-04-29T11:15:03Z</time></trkpt><trkpt lat="37.66175722773539" lon="14.537229283950497"><ele>499.0</ele><time>2026-04-29T11:15:04Z</time></trkpt><trkpt lat="37.66167409856645" lon="14.537242277473537"><ele>501.79999999999995</ele><time>2026-04-29T11:15:05Z</time></trkpt><trkpt lat="37.661580145103606" lon="14.537257712602095"><ele>504.59999999999997</ele><time>2026-04-29T11:15:06Z</time></trkpt><trkpt lat="37.66147710577838" lon="14.537273228168274"><ele>507.4</ele><time>2026-04-29T11:15:07Z</time></trkpt><trkpt lat="37.6613720700872" lon="14.537290461333473"><ele>510.2</ele><time>2026-04-29T11:15:08Z</time></trkpt><trkpt lat="37.6612635050963" lon="14.53731051196045"><ele>513.0</ele><time>2026-04-29T11:15:09Z</time></trkpt><trkpt lat="37.6611409904774" lon="14.53732865212786"><ele>516.75</ele><time>2026-04-29T11:15:10Z</time></trkpt><trkpt lat="37.6610101224722" lon="14.537340034173551"><ele>520.5</ele><time>2026-04-29T11:15:11Z</time></trkpt><trkpt lat="37.66087575164129" lon="14.537334106455125"><ele>524.25</ele><time>2026-04-29T11:15:12Z</time></trkpt><trkpt lat="37.660739392132484" lon="14.537321954893086"><ele>528.0</ele><time>2026-04-29T11:15:13Z</time></trkpt><trkpt lat="37.660615540573616" lon="14.537323292036087"><ele>528.0</ele><time>2026-04-29T11:15:14Z</time></trkpt><trkpt lat="37.6605121395197" lon="14.537335646619395"><ele>528.0</ele><time>2026-04-29T11:15:15Z</time></trkpt><trkpt lat="37.66042327083975" lon="14.53734920445574"><ele>528.0</ele><time>2026-04-29T11:15:16Z</time></trkpt><trkpt lat="37.66033980347557" lon="14.537363315117858"><ele>528.0</ele><time>2026-04-29T11:15:17Z</time></trkpt><trkpt lat="37.66027313132354" lon="14.537374107672443"><ele>528.0</ele><time>2026-04-29T11:15:18Z</time></trkpt><trkpt lat="37.66017953692146" lon="14.537379448052366"><ele>528.0</ele><time>2026-04-29T11:15:20Z</time></trkpt><trkpt lat="37.66009045535537" lon="14.537320153958083"><ele>531.0</ele><time>2026-04-29T11:15:22Z</time></trkpt><trkpt lat="37.66004784576178" lon="14.537231838571282"><ele>534.0</ele><time>2026-04-29T11:15:23Z</time></trkpt><trkpt lat="37.660009460411445" lon="14.537091700854228"><ele>537.0</ele><time>2026-04-29T11:15:24Z</time></trkpt><trkpt lat="37.659996229696155" lon="14.536934805742662"><ele>540.0</ele><time>2026-04-29T11:15:25Z</time></trkpt><trkpt lat="37.660019804207145" lon="14.536784191637976"><ele>543.0</ele><time>2026-04-29T11:15:26Z</time></trkpt><trkpt lat="37.6600796810627" lon="14.536620549325278"><ele>544.0</ele><time>2026-04-29T11:15:27Z</time></trkpt><trkpt lat="37.66015421255285" lon="14.536440926670084"><ele>545.0</ele><time>2026-04-29T11:15:28Z</time></trkpt><trkpt lat="37.660221266586824" lon="14.536270108501444"><ele>546.0</ele><time>2026-04-29T11:15:29Z</time></trkpt><trkpt lat="37.660284327937816" lon="14.536105289495215"><ele>544.25</ele><time>2026-04-29T11:15:30Z</time></trkpt><trkpt lat="37.660352841404475" lon="14.535944192796569"><ele>542.5</ele><time>2026-04-29T11:15:31Z</time></trkpt><trkpt lat="37.6604330993292" lon="14.535786733108875"><ele>540.75</ele><time>2026-04-29T11:15:32Z</time></trkpt><trkpt lat="37.6605204232371" lon="14.535639356328355"><ele>539.0</ele><time>2026-04-29T11:15:33Z</time></trkpt><trkpt lat="37.660593503480584" lon="14.535513481478075"><ele>539.0</ele><time>2026-04-29T11:15:34Z</time></trkpt><trkpt lat="37.660640249618" lon="14.535398493213817"><ele>539.0</ele><time>2026-04-29T11:15:35Z</time></trkpt><trkpt lat="37.66067036340587" lon="14.535294659515259"><ele>539.0</ele><time>2026-04-29T11:15:36Z</time></trkpt><trkpt lat="37.66065714946843" lon="14.535198652416014"><ele>539.0</ele><time>2026-04-29T11:15:37Z</time></trkpt><trkpt lat="37.66060651643765" lon="14.535113294578933"><ele>539.0</ele><time>2026-04-29T11:15:38Z</time></trkpt><trkpt lat="37.66052736550267" lon="14.535069301599341"><ele>539.0</ele><time>2026-04-29T11:15:39Z</time></trkpt><trkpt lat="37.66043346031667" lon="14.535086200489237"><ele>540.25</ele><time>2026-04-29T11:15:40Z</time></trkpt><trkpt lat="37.660357615240514" lon="14.535152307170584"><ele>541.5</ele><time>2026-04-29T11:15:41Z</time></trkpt><trkpt lat="37.66028892965337" lon="14.535272405874059"><ele>542.75</ele><time>2026-04-29T11:15:42Z</time></trkpt><trkpt lat="37.66022279359661" lon="14.5354203912765"><ele>544.0</ele><time>2026-04-29T11:15:43Z</time></trkpt><trkpt lat="37.66014929772119" lon="14.535579096833342"><ele>547.0</ele><time>2026-04-29T11:15:44Z</time></trkpt><trkpt lat="37.66006336302071" lon="14.535737311034037"><ele>550.0</ele><time>2026-04-29T11:15:45Z</time></trkpt><trkpt lat="37.6599661231175" lon="14.535886053424283"><ele>553.0</ele><time>2026-04-29T11:15:46Z</time></trkpt><trkpt lat="37.659842185356986" lon="14.536010431323131"><ele>553.0</ele><time>2026-04-29T11:15:47Z</time></trkpt><trkpt lat="37.659680941933225" lon="14.536119924483238"><ele>553.0</ele><time>2026-04-29T11:15:48Z</time></trkpt><trkpt lat="37.65950648434699" lon="14.536236432621997"><ele>553.0</ele><time>2026-04-29T11:15:49Z</time></trkpt><trkpt lat="37.65932945305699" lon="14.536393581368312"><ele>554.3333333333334</ele><time>2026-04-29T11:15:50Z</time></trkpt><trkpt lat="37.65916777145218" lon="14.536567503425914"><ele>555.6666666666666</ele><time>2026-04-29T11:15:51Z</time></trkpt><trkpt lat="37.659010617379124" lon="14.536738533468414"><ele>557.0</ele><time>2026-04-29T11:15:52Z</time></trkpt><trkpt lat="37.65886626949609" lon="14.536881488116519"><ele>557.0</ele><time>2026-04-29T11:15:53Z</time></trkpt><trkpt lat="37.65873580590871" lon="14.537013843283576"><ele>557.0</ele><time>2026-04-29T11:15:54Z</time></trkpt><trkpt lat="37.65862101493386" lon="14.537138115240072"><ele>557.0</ele><time>2026-04-29T11:15:55Z</time></trkpt><trkpt lat="37.658527164163615" lon="14.537237934393175"><ele>557.0</ele><time>2026-04-29T11:15:56Z</time></trkpt><trkpt lat="37.658449701181404" lon="14.537320457161899"><ele>559.5</ele><time>2026-04-29T11:15:57Z</time></trkpt><trkpt lat="37.6583720144748" lon="14.537413126804136"><ele>562.0</ele><time>2026-04-29T11:15:58Z</time></trkpt><trkpt lat="37.658280531287424" lon="14.537535514555127"><ele>564.5</ele><time>2026-04-29T11:15:59Z</time></trkpt><trkpt lat="37.65818924073714" lon="14.537691919400926"><ele>567.0</ele><time>2026-04-29T11:16:00Z</time></trkpt><trkpt lat="37.65809788616269" lon="14.53780831913983"><ele>568.0</ele><time>2026-04-29T11:16:01Z</time></trkpt><trkpt lat="37.65798582232209" lon="14.537918881285085"><ele>569.0</ele><time>2026-04-29T11:16:02Z</time></trkpt><trkpt lat="37.65789714240843" lon="14.538018509336768"><ele>570.0</ele><time>2026-04-29T11:16:03Z</time></trkpt><trkpt lat="37.65782024589478" lon="14.538110801857465"><ele>571.0</ele><time>2026-04-29T11:16:04Z</time></trkpt><trkpt lat="37.65773945791915" lon="14.538194668091489"><ele>569.2</ele><time>2026-04-29T11:16:05Z</time></trkpt><trkpt lat="37.657656788097285" lon="14.538255680904763"><ele>567.4000000000001</ele><time>2026-04-29T11:16:06Z</time></trkpt><trkpt lat="37.657564638606615" lon="14.538280385516716"><ele>565.6</ele><time>2026-04-29T11:16:07Z</time></trkpt><trkpt lat="37.65745423976229" lon="14.538263676767407"><ele>563.8000000000001</ele><time>2026-04-29T11:16:08Z</time></trkpt><trkpt lat="37.65733294314445" lon="14.538208403424303"><ele>562.0</ele><time>2026-04-29T11:16:09Z</time></trkpt><trkpt lat="37.65722328155068" lon="14.538153422067792"><ele>562.0</ele><time>2026-04-29T11:16:10Z</time></trkpt><trkpt lat="37.657114361584306" lon="14.538084777726363"><ele>562.0</ele><time>2026-04-29T11:16:11Z</time></trkpt><trkpt lat="37.65699387369234" lon="14.537979490978213"><ele>562.0</ele><time>2026-04-29T11:16:12Z</time></trkpt><trkpt lat="37.6568802706058" lon="14.537874713945921"><ele>562.0</ele><time>2026-04-29T11:16:13Z</time></trkpt><trkpt lat="37.65676863656664" lon="14.537779785808166"><ele>564.25</ele><time>2026-04-29T11:16:14Z</time></trkpt><trkpt lat="37.65665154873781" lon="14.537677742924187"><ele>566.5</ele><time>2026-04-29T11:16:15Z</time></trkpt><trkpt lat="37.65652349702863" lon="14.537569152892685"><ele>568.75</ele><time>2026-04-29T11:16:16Z</time></trkpt><trkpt lat="37.656403921751135" lon="14.5374735065173"><ele>571.0</ele><time>2026-04-29T11:16:17Z</time></trkpt><trkpt lat="37.65629007612646" lon="14.537383106855373"><ele>571.0</ele><time>2026-04-29T11:16:18Z</time></trkpt><trkpt lat="37.65617979664779" lon="14.537296366373917"><ele>571.0</ele><time>2026-04-29T11:16:19Z</time></trkpt><trkpt lat="37.656082183101624" lon="14.537216978054063"><ele>571.0</ele><time>2026-04-29T11:16:20Z</time></trkpt><trkpt lat="37.65600259797844" lon="14.537146543572836"><ele>571.0</ele><time>2026-04-29T11:16:21Z</time></trkpt><trkpt lat="37.655960629865696" lon="14.537076546668557"><ele>571.0</ele><time>2026-04-29T11:16:22Z</time></trkpt><trkpt lat="37.655957869440115" lon="14.536985565670566"><ele>571.2</ele><time>2026-04-29T11:16:23Z</time></trkpt><trkpt lat="37.6559936084382" lon="14.536895419745138"><ele>571.4000000000001</ele><time>2026-04-29T11:16:24Z</time></trkpt><trkpt lat="37.65606509070486" lon="14.536846418148496"><ele>571.6</ele><time>2026-04-29T11:16:25Z</time></trkpt><trkpt lat="37.65615847248265" lon="14.53684064584892"><ele>571.8000000000001</ele><time>2026-04-29T11:16:26Z</time></trkpt><trkpt lat="37.656268490336586" lon="14.536848605194084"><ele>572.0</ele><time>2026-04-29T11:16:27Z</time></trkpt><trkpt lat="37.65638531293735" lon="14.536853683424017"><ele>575.25</ele><time>2026-04-29T11:16:28Z</time></trkpt><trkpt lat="37.656498253324536" lon="14.536838213253223"><ele>578.5</ele><time>2026-04-29T11:16:29Z</time></trkpt><trkpt lat="37.656611081986604" lon="14.536821144678688"><ele>581.75</ele><time>2026-04-29T11:16:30Z</time></trkpt><trkpt lat="37.65672829378446" lon="14.536814717560674"><ele>585.0</ele><time>2026-04-29T11:16:31Z</time></trkpt><trkpt lat="37.65685065513799" lon="14.536795735223025"><ele>584.5</ele><time>2026-04-29T11:16:32Z</time></trkpt><trkpt lat="37.656981775019" lon="14.536748456692344"><ele>584.0</ele><time>2026-04-29T11:16:33Z</time></trkpt><trkpt lat="37.657112303403714" lon="14.536693930558389"><ele>583.5</ele><time>2026-04-29T11:16:34Z</time></trkpt><trkpt lat="37.657221213591214" lon="14.536644699775309"><ele>583.0</ele><time>2026-04-29T11:16:35Z</time></trkpt><trkpt lat="37.65731988397768" lon="14.536599370585744"><ele>583.0</ele><time>2026-04-29T11:16:36Z</time></trkpt><trkpt lat="37.65741296348548" lon="14.536552082639751"><ele>583.0</ele><time>2026-04-29T11:16:37Z</time></trkpt><trkpt lat="37.65751280738709" lon="14.536485742067107"><ele>583.0</ele><time>2026-04-29T11:16:38Z</time></trkpt><trkpt lat="37.65759150888737" lon="14.53638040514143"><ele>583.0</ele><time>2026-04-29T11:16:39Z</time></trkpt><trkpt lat="37.6576460823055" lon="14.536220661920389"><ele>586.75</ele><time>2026-04-29T11:16:40Z</time></trkpt><trkpt lat="37.65768255544899" lon="14.53604249019016"><ele>590.5</ele><time>2026-04-29T11:16:41Z</time></trkpt><trkpt lat="37.6577130459231" lon="14.535862938679163"><ele>594.25</ele><time>2026-04-29T11:16:42Z</time></trkpt><trkpt lat="37.65773530173032" lon="14.535679690384857"><ele>598.0</ele><time>2026-04-29T11:16:43Z</time></trkpt><trkpt lat="37.657765058224044" lon="14.535508283781821"><ele>596.0</ele><time>2026-04-29T11:16:44Z</time></trkpt><trkpt lat="37.65779493583688" lon="14.535344011126972"><ele>594.0</ele><time>2026-04-29T11:16:45Z</time></trkpt><trkpt lat="37.65782210775417" lon="14.535181746946295"><ele>592.0</ele><time>2026-04-29T11:16:46Z</time></trkpt><trkpt lat="37.65785423967874" lon="14.53500968504859"><ele>590.0</ele><time>2026-04-29T11:16:47Z</time></trkpt><trkpt lat="37.65788248663287" lon="14.534828721113563"><ele>590.0</ele><time>2026-04-29T11:16:48Z</time></trkpt><trkpt lat="37.65789094862913" lon="14.534643327397275"><ele>590.0</ele><time>2026-04-29T11:16:49Z</time></trkpt><trkpt lat="37.65788192007586" lon="14.534472929587126"><ele>590.0</ele><time>2026-04-29T11:16:50Z</time></trkpt><trkpt lat="37.65786705013504" lon="14.534324473058561"><ele>590.0</ele><time>2026-04-29T11:16:51Z</time></trkpt><trkpt lat="37.65786011457343" lon="14.534183565717335"><ele>591.75</ele><time>2026-04-29T11:16:52Z</time></trkpt><trkpt lat="37.657859959217674" lon="14.534051883753733"><ele>593.5</ele><time>2026-04-29T11:16:53Z</time></trkpt><trkpt lat="37.65788075369153" lon="14.533909810699877"><ele>595.25</ele><time>2026-04-29T11:16:54Z</time></trkpt><trkpt lat="37.6579285534905" lon="14.533746242868313"><ele>597.0</ele><time>2026-04-29T11:16:55Z</time></trkpt><trkpt lat="37.65797565938237" lon="14.533594556193984"><ele>597.6666666666666</ele><time>2026-04-29T11:16:56Z</time></trkpt><trkpt lat="37.6580097996371" lon="14.533466005458502"><ele>598.3333333333334</ele><time>2026-04-29T11:16:57Z</time></trkpt><trkpt lat="37.65802361616906" lon="14.533360472642006"><ele>599.0</ele><time>2026-04-29T11:16:58Z</time></trkpt><trkpt lat="37.657989579478276" lon="14.533274687842713"><ele>599.6666666666667</ele><time>2026-04-29T11:16:59Z</time></trkpt><trkpt lat="37.65792318739306" lon="14.5332233455417"><ele>600.3333333333334</ele><time>2026-04-29T11:17:00Z</time></trkpt><trkpt lat="37.657830609852134" lon="14.533217098701208"><ele>601.0</ele><time>2026-04-29T11:17:01Z</time></trkpt><trkpt lat="37.65775640942681" lon="14.533377206028222"><ele>605.5</ele><time>2026-04-29T11:17:02Z</time></trkpt><trkpt lat="37.65770837511999" lon="14.533546411247773"><ele>610.0</ele><time>2026-04-29T11:17:03Z</time></trkpt><trkpt lat="37.65764596357651" lon="14.5337234885067"><ele>614.5</ele><time>2026-04-29T11:17:04Z</time></trkpt><trkpt lat="37.65757428673536" lon="14.533888971888985"><ele>619.0</ele><time>2026-04-29T11:17:05Z</time></trkpt><trkpt lat="37.657531869100005" lon="14.534071378342958"><ele>619.0</ele><time>2026-04-29T11:17:06Z</time></trkpt><trkpt lat="37.65751777119282" lon="14.534271772846383"><ele>619.0</ele><time>2026-04-29T11:17:07Z</time></trkpt><trkpt lat="37.65751398059881" lon="14.534463855208246"><ele>619.0</ele><time>2026-04-29T11:17:08Z</time></trkpt><trkpt lat="37.65750367860748" lon="14.534635251798779"><ele>619.0</ele><time>2026-04-29T11:17:09Z</time></trkpt><trkpt lat="37.657490175353125" lon="14.53479843654076"><ele>617.8333333333334</ele><time>2026-04-29T11:17:10Z</time></trkpt><trkpt lat="37.657475202909716" lon="14.534950870101872"><ele>616.6666666666667</ele><time>2026-04-29T11:17:11Z</time></trkpt><trkpt lat="37.65745793203359" lon="14.53507260702233"><ele>615.5</ele><time>2026-04-29T11:17:12Z</time></trkpt><trkpt lat="37.65742717747372" lon="14.535168729886953"><ele>614.3333333333334</ele><time>2026-04-29T11:17:13Z</time></trkpt><trkpt lat="37.65738395394018" lon="14.535242194541844"><ele>613.1666666666666</ele><time>2026-04-29T11:17:14Z</time></trkpt><trkpt lat="37.657325927991096" lon="14.535289717327316"><ele>612.0</ele><time>2026-04-29T11:17:15Z</time></trkpt><trkpt lat="37.65724046221091" lon="14.535274867990186"><ele>612.0</ele><time>2026-04-29T11:17:16Z</time></trkpt><trkpt lat="37.65714880023049" lon="14.535214875192004"><ele>612.0</ele><time>2026-04-29T11:17:17Z</time></trkpt><trkpt lat="37.65706091723081" lon="14.53514093922057"><ele>612.0</ele><time>2026-04-29T11:17:18Z</time></trkpt><trkpt lat="37.65698778739338" lon="14.535062481813545"><ele>612.0</ele><time>2026-04-29T11:17:19Z</time></trkpt><trkpt lat="37.656960790615884" lon="14.53498144390087"><ele>612.0</ele><time>2026-04-29T11:17:20Z</time></trkpt><trkpt lat="37.657039012092454" lon="14.534884193572568"><ele>612.0</ele><time>2026-04-29T11:17:22Z</time></trkpt><trkpt lat="37.65711379490484" lon="14.53488182593078"><ele>612.0</ele><time>2026-04-29T11:17:23Z</time></trkpt><trkpt lat="37.657207042359936" lon="14.534925887062917"><ele>612.0</ele><time>2026-04-29T11:17:24Z</time></trkpt><trkpt lat="37.657298158798135" lon="14.534942288683174"><ele>612.0</ele><time>2026-04-29T11:17:25Z</time></trkpt><trkpt lat="37.65736881735633" lon="14.53487886482741"><ele>612.0</ele><time>2026-04-29T11:17:26Z</time></trkpt><trkpt lat="37.65739191078788" lon="14.534767008589187"><ele>612.0</ele><time>2026-04-29T11:17:27Z</time></trkpt><trkpt lat="37.65736378885565" lon="14.534635078253503"><ele>613.4</ele><time>2026-04-29T11:17:28Z</time></trkpt><trkpt lat="37.65730529104357" lon="14.534517866164242"><ele>614.8000000000001</ele><time>2026-04-29T11:17:29Z</time></trkpt><trkpt lat="37.6572567610506" lon="14.534390900151259"><ele>616.2</ele><time>2026-04-29T11:17:30Z</time></trkpt><trkpt lat="37.65722540606668" lon="14.534262048951508"><ele>617.6</ele><time>2026-04-29T11:17:31Z</time></trkpt><trkpt lat="37.65718069167685" lon="14.534144123685637"><ele>619.0</ele><time>2026-04-29T11:17:32Z</time></trkpt><trkpt lat="37.65709770784484" lon="14.534058421087268"><ele>619.0</ele><time>2026-04-29T11:17:33Z</time></trkpt><trkpt lat="37.65697965324578" lon="14.534028507316116"><ele>619.0</ele><time>2026-04-29T11:17:34Z</time></trkpt><trkpt lat="37.65684823988556" lon="14.534052049277612"><ele>619.0</ele><time>2026-04-29T11:17:35Z</time></trkpt><trkpt lat="37.65671309187068" lon="14.534105276708178"><ele>619.0</ele><time>2026-04-29T11:17:36Z</time></trkpt><trkpt lat="37.65658755383335" lon="14.53415050225846"><ele>622.6</ele><time>2026-04-29T11:17:37Z</time></trkpt><trkpt lat="37.65647535997238" lon="14.53417756069603"><ele>626.2</ele><time>2026-04-29T11:17:38Z</time></trkpt><trkpt lat="37.65638794004432" lon="14.534196174971802"><ele>629.8000000000001</ele><time>2026-04-29T11:17:39Z</time></trkpt><trkpt lat="37.656281238404496" lon="14.534219640004084"><ele>633.4</ele><time>2026-04-29T11:17:41Z</time></trkpt><trkpt lat="37.65619860716602" lon="14.53417032527061"><ele>637.0</ele><time>2026-04-29T11:17:43Z</time></trkpt><trkpt lat="37.656230351304245" lon="14.53402822402923"><ele>637.0</ele><time>2026-04-29T11:17:45Z</time></trkpt><trkpt lat="37.6563169105932" lon="14.533973569870453"><ele>637.0</ele><time>2026-04-29T11:17:46Z</time></trkpt><trkpt lat="37.656429192094635" lon="14.533969937130093"><ele>637.0</ele><time>2026-04-29T11:17:47Z</time></trkpt><trkpt lat="37.656534020849776" lon="14.533975506571208"><ele>637.0</ele><time>2026-04-29T11:17:48Z</time></trkpt><trkpt lat="37.656638140915305" lon="14.533925817555021"><ele>637.0</ele><time>2026-04-29T11:17:49Z</time></trkpt><trkpt lat="37.656756794966235" lon="14.533828970459059"><ele>637.0</ele><time>2026-04-29T11:17:50Z</time></trkpt><trkpt lat="37.6568663980921" lon="14.533736116359067"><ele>637.0</ele><time>2026-04-29T11:17:51Z</time></trkpt><trkpt lat="37.65695525846386" lon="14.533653877219113"><ele>637.0</ele><time>2026-04-29T11:17:52Z</time></trkpt><trkpt lat="37.65702012170444" lon="14.533561873264015"><ele>637.0</ele><time>2026-04-29T11:17:53Z</time></trkpt><trkpt lat="37.65705629925091" lon="14.53344138937798"><ele>637.0</ele><time>2026-04-29T11:17:54Z</time></trkpt><trkpt lat="37.65706771346355" lon="14.533287647555689"><ele>636.6666666666667</ele><time>2026-04-29T11:17:55Z</time></trkpt><trkpt lat="37.65705456665886" lon="14.533104792928347"><ele>636.3333333333334</ele><time>2026-04-29T11:17:56Z</time></trkpt><trkpt lat="37.65702608694096" lon="14.532899650538193"><ele>636.0</ele><time>2026-04-29T11:17:57Z</time></trkpt><trkpt lat="37.6569988785892" lon="14.53270103810508"><ele>636.0</ele><time>2026-04-29T11:17:58Z</time></trkpt><trkpt lat="37.65699639505198" lon="14.53250464984218"><ele>636.0</ele><time>2026-04-29T11:17:59Z</time></trkpt><trkpt lat="37.65702681149632" lon="14.532304064063053"><ele>636.0</ele><time>2026-04-29T11:18:00Z</time></trkpt><trkpt lat="37.65708499306307" lon="14.532103777440446"><ele>639.3333333333334</ele><time>2026-04-29T11:18:01Z</time></trkpt><trkpt lat="37.65716744593268" lon="14.53191156721958"><ele>642.6666666666667</ele><time>2026-04-29T11:18:02Z</time></trkpt><trkpt lat="37.65726103497071" lon="14.531718014110005"><ele>646.0</ele><time>2026-04-29T11:18:03Z</time></trkpt><trkpt lat="37.65734531162176" lon="14.531515401897302"><ele>646.0</ele><time>2026-04-29T11:18:04Z</time></trkpt><trkpt lat="37.65742253105855" lon="14.531307843378324"><ele>646.0</ele><time>2026-04-29T11:18:05Z</time></trkpt><trkpt lat="37.6575015529406" lon="14.531104744625267"><ele>646.0</ele><time>2026-04-29T11:18:06Z</time></trkpt><trkpt lat="37.65758900203108" lon="14.530901748375687"><ele>648.6666666666667</ele><time>2026-04-29T11:18:07Z</time></trkpt><trkpt lat="37.65767408374609" lon="14.530701609281035"><ele>651.3333333333334</ele><time>2026-04-29T11:18:08Z</time></trkpt><trkpt lat="37.65776292508839" lon="14.530524508251933"><ele>654.0</ele><time>2026-04-29T11:18:09Z</time></trkpt><trkpt lat="37.657866134018974" lon="14.530377136253314"><ele>654.0</ele><time>2026-04-29T11:18:10Z</time></trkpt><trkpt lat="37.65798676299754" lon="14.530237294377706"><ele>654.0</ele><time>2026-04-29T11:18:11Z</time></trkpt><trkpt lat="37.65809654069921" lon="14.530093106225175"><ele>654.0</ele><time>2026-04-29T11:18:12Z</time></trkpt><trkpt lat="37.658193072003776" lon="14.529940836842457"><ele>654.0</ele><time>2026-04-29T11:18:13Z</time></trkpt><trkpt lat="37.65827557636289" lon="14.529782701944775"><ele>654.0</ele><time>2026-04-29T11:18:14Z</time></trkpt><trkpt lat="37.658334026865575" lon="14.52961048246506"><ele>654.0</ele><time>2026-04-29T11:18:15Z</time></trkpt><trkpt lat="37.65837994914287" lon="14.529437363980168"><ele>654.0</ele><time>2026-04-29T11:18:16Z</time></trkpt><trkpt lat="37.658405474696615" lon="14.52926103021985"><ele>654.25</ele><time>2026-04-29T11:18:17Z</time></trkpt><trkpt lat="37.65843107498347" lon="14.529085023425734"><ele>654.5</ele><time>2026-04-29T11:18:18Z</time></trkpt><trkpt lat="37.658435166352014" lon="14.52891740296443"><ele>654.75</ele><time>2026-04-29T11:18:19Z</time></trkpt><trkpt lat="37.65841961981864" lon="14.528751529840411"><ele>655.0</ele><time>2026-04-29T11:18:20Z</time></trkpt><trkpt lat="37.658384549245646" lon="14.528594310258987"><ele>655.0</ele><time>2026-04-29T11:18:21Z</time></trkpt><trkpt lat="37.65834556735464" lon="14.528445975095341"><ele>655.0</ele><time>2026-04-29T11:18:22Z</time></trkpt><trkpt lat="37.65830921579708" lon="14.528299140684677"><ele>655.0</ele><time>2026-04-29T11:18:23Z</time></trkpt><trkpt lat="37.65828025773903" lon="14.528151768265051"><ele>655.0</ele><time>2026-04-29T11:18:24Z</time></trkpt><trkpt lat="37.65824994743026" lon="14.52800378857669"><ele>652.2</ele><time>2026-04-29T11:18:25Z</time></trkpt><trkpt lat="37.65821113998891" lon="14.52785592030192"><ele>649.4</ele><time>2026-04-29T11:18:26Z</time></trkpt><trkpt lat="37.6581620302825" lon="14.527719372696037"><ele>646.5999999999999</ele><time>2026-04-29T11:18:27Z</time></trkpt><trkpt lat="37.658115717759486" lon="14.52760065032889"><ele>643.8</ele><time>2026-04-29T11:18:28Z</time></trkpt><trkpt lat="37.658081887386864" lon="14.527492894207192"><ele>641.0</ele><time>2026-04-29T11:18:29Z</time></trkpt><trkpt lat="37.65805895766361" lon="14.527399967449837"><ele>641.0</ele><time>2026-04-29T11:18:30Z</time></trkpt><trkpt lat="37.65805340940427" lon="14.527314149985525"><ele>641.0</ele><time>2026-04-29T11:18:31Z</time></trkpt><trkpt lat="37.658124133028224" lon="14.527182226205158"><ele>641.0</ele><time>2026-04-29T11:18:33Z</time></trkpt><trkpt lat="37.65816977411336" lon="14.527056353835825"><ele>641.0</ele><time>2026-04-29T11:18:35Z</time></trkpt><trkpt lat="37.65813846063065" lon="14.526982094351188"><ele>641.0</ele><time>2026-04-29T11:18:36Z</time></trkpt><trkpt lat="37.658070297382366" lon="14.526926257785048"><ele>639.5999999999999</ele><time>2026-04-29T11:18:37Z</time></trkpt><trkpt lat="37.658004659359364" lon="14.526872759536799"><ele>638.1999999999999</ele><time>2026-04-29T11:18:38Z</time></trkpt><trkpt lat="37.65797410403097" lon="14.526780250848468"><ele>636.8</ele><time>2026-04-29T11:18:39Z</time></trkpt><trkpt lat="37.657965587892996" lon="14.526658108478836"><ele>635.4</ele><time>2026-04-29T11:18:40Z</time></trkpt><trkpt lat="37.657957130082785" lon="14.526567906884944"><ele>634.0</ele><time>2026-04-29T11:18:41Z</time></trkpt><trkpt lat="37.65792088179074" lon="14.526418492857122"><ele>634.0</ele><time>2026-04-29T11:18:43Z</time></trkpt><trkpt lat="37.65789821779349" lon="14.52633686431693"><ele>634.0</ele><time>2026-04-29T11:18:44Z</time></trkpt><trkpt lat="37.65787299707964" lon="14.526237431496476"><ele>634.0</ele><time>2026-04-29T11:18:45Z</time></trkpt><trkpt lat="37.65784467833049" lon="14.52614105268366"><ele>634.0</ele><time>2026-04-29T11:18:46Z</time></trkpt><trkpt lat="37.65781636284585" lon="14.526038080300728"><ele>634.0</ele><time>2026-04-29T11:18:47Z</time></trkpt><trkpt lat="37.65778342981127" lon="14.52591952783415"><ele>634.0</ele><time>2026-04-29T11:18:48Z</time></trkpt><trkpt lat="37.65774813393553" lon="14.525789183777599"><ele>637.4</ele><time>2026-04-29T11:18:49Z</time></trkpt><trkpt lat="37.65771254173052" lon="14.525650898236115"><ele>640.8</ele><time>2026-04-29T11:18:50Z</time></trkpt><trkpt lat="37.657671910149176" lon="14.5255147807139"><ele>644.1999999999999</ele><time>2026-04-29T11:18:51Z</time></trkpt><trkpt lat="37.65763661355592" lon="14.525384214115636"><ele>647.5999999999999</ele><time>2026-04-29T11:18:52Z</time></trkpt><trkpt lat="37.65760275479975" lon="14.52525585844721"><ele>651.0</ele><time>2026-04-29T11:18:53Z</time></trkpt><trkpt lat="37.65757419455092" lon="14.525129031925932"><ele>651.0</ele><time>2026-04-29T11:18:54Z</time></trkpt><trkpt lat="37.65754558952258" lon="14.525003370287383"><ele>651.0</ele><time>2026-04-29T11:18:55Z</time></trkpt><trkpt lat="37.65751315230277" lon="14.524876954793982"><ele>651.0</ele><time>2026-04-29T11:18:56Z</time></trkpt><trkpt lat="37.657475643684904" lon="14.524752300840671"><ele>651.0</ele><time>2026-04-29T11:18:57Z</time></trkpt><trkpt lat="37.65744351443007" lon="14.52462539904776"><ele>651.0</ele><time>2026-04-29T11:18:58Z</time></trkpt><trkpt lat="37.65740959435088" lon="14.524491038422664"><ele>649.0</ele><time>2026-04-29T11:18:59Z</time></trkpt><trkpt lat="37.65737608459713" lon="14.524359091659324"><ele>647.0</ele><time>2026-04-29T11:19:00Z</time></trkpt><trkpt lat="37.657345556798454" lon="14.524233498009123"><ele>645.0</ele><time>2026-04-29T11:19:01Z</time></trkpt><trkpt lat="37.65731677099438" lon="14.524111225311794"><ele>643.0</ele><time>2026-04-29T11:19:02Z</time></trkpt><trkpt lat="37.65728873463419" lon="14.523996130688563"><ele>641.0</ele><time>2026-04-29T11:19:03Z</time></trkpt><trkpt lat="37.65725811103593" lon="14.52388509736256"><ele>641.0</ele><time>2026-04-29T11:19:04Z</time></trkpt><trkpt lat="37.657228250352844" lon="14.52377978996988"><ele>641.0</ele><time>2026-04-29T11:19:05Z</time></trkpt><trkpt lat="37.657202142036496" lon="14.523679496824357"><ele>641.0</ele><time>2026-04-29T11:19:06Z</time></trkpt><trkpt lat="37.65718721272831" lon="14.523583197325083"><ele>641.0</ele><time>2026-04-29T11:19:07Z</time></trkpt><trkpt lat="37.657178710025406" lon="14.523468230930128"><ele>641.0</ele><time>2026-04-29T11:19:09Z</time></trkpt><trkpt lat="37.65718516532196" lon="14.523386229447512"><ele>641.0</ele><time>2026-04-29T11:19:12Z</time></trkpt><trkpt lat="37.657204479866145" lon="14.523266684144902"><ele>640.5</ele><time>2026-04-29T11:19:14Z</time></trkpt><trkpt lat="37.65720225710703" lon="14.52318273762134"><ele>640.0</ele><time>2026-04-29T11:19:16Z</time></trkpt><trkpt lat="37.65715569999682" lon="14.523106677869698"><ele>639.5</ele><time>2026-04-29T11:21:38Z</time></trkpt><trkpt lat="37.65706535636086" lon="14.522819584791918"><ele>639.0</ele><time>2026-04-29T11:21:43Z</time></trkpt><trkpt lat="37.65702485087729" lon="14.522664287023485"><ele>639.8</ele><time>2026-04-29T11:21:45Z</time></trkpt><trkpt lat="37.65695140239271" lon="14.522556111537385"><ele>640.5999999999999</ele><time>2026-04-29T11:21:47Z</time></trkpt><trkpt lat="37.656915540098275" lon="14.522392473277751"><ele>641.4</ele><time>2026-04-29T11:21:49Z</time></trkpt><trkpt lat="37.656868257148055" lon="14.522287263611917"><ele>642.1999999999999</ele><time>2026-04-29T11:21:51Z</time></trkpt><trkpt lat="37.65682851616148" lon="14.522194105207147"><ele>643.0</ele><time>2026-04-29T11:21:53Z</time></trkpt><trkpt lat="37.656807138468345" lon="14.521966169406912"><ele>643.4</ele><time>2026-04-29T11:21:59Z</time></trkpt><trkpt lat="37.65685476677659" lon="14.521845318482654"><ele>643.8</ele><time>2026-04-29T11:22:00Z</time></trkpt><trkpt lat="37.6568620685593" lon="14.52175402417561"><ele>644.2</ele><time>2026-04-29T11:22:01Z</time></trkpt><trkpt lat="37.65686174064372" lon="14.521658528590264"><ele>644.6</ele><time>2026-04-29T11:22:02Z</time></trkpt><trkpt lat="37.656868571960956" lon="14.52152532159844"><ele>645.0</ele><time>2026-04-29T11:22:04Z</time></trkpt><trkpt lat="37.656886929666506" lon="14.52137628366953"><ele>644.8333333333334</ele><time>2026-04-29T11:22:06Z</time></trkpt><trkpt lat="37.656899282893725" lon="14.521209928095493"><ele>644.6666666666666</ele><time>2026-04-29T11:22:08Z</time></trkpt><trkpt lat="37.656901883179245" lon="14.52112328897865"><ele>644.5</ele><time>2026-04-29T11:22:09Z</time></trkpt><trkpt lat="37.65690707212229" lon="14.521036082688642"><ele>644.3333333333333</ele><time>2026-04-29T11:22:10Z</time></trkpt><trkpt lat="37.65691040931867" lon="14.52093338215293"><ele>644.1666666666666</ele><time>2026-04-29T11:22:11Z</time></trkpt><trkpt lat="37.65694628661553" lon="14.520829803680247"><ele>644.0</ele><time>2026-04-29T11:22:12Z</time></trkpt><trkpt lat="37.656980908484066" lon="14.520750744005257"><ele>644.5</ele><time>2026-04-29T11:22:13Z</time></trkpt><trkpt lat="37.65700835419685" lon="14.520678848921637"><ele>645.0</ele><time>2026-04-29T11:22:14Z</time></trkpt><trkpt lat="37.657022410706986" lon="14.520599113287053"><ele>645.5</ele><time>2026-04-29T11:22:15Z</time></trkpt><trkpt lat="37.657078310068584" lon="14.520466494292432"><ele>646.0</ele><time>2026-04-29T11:22:17Z</time></trkpt><trkpt lat="37.65712764127056" lon="14.520356625159208"><ele>646.5</ele><time>2026-04-29T11:22:19Z</time></trkpt><trkpt lat="37.657176354925255" lon="14.520246252362961"><ele>647.0</ele><time>2026-04-29T11:22:21Z</time></trkpt><trkpt lat="37.657256707293094" lon="14.520144198621464"><ele>645.2</ele><time>2026-04-29T11:22:23Z</time></trkpt><trkpt lat="37.657242757737436" lon="14.520066202014686"><ele>643.4000000000001</ele><time>2026-04-29T11:22:25Z</time></trkpt><trkpt lat="37.65715678395525" lon="14.520088130700902"><ele>641.5999999999999</ele><time>2026-04-29T11:22:27Z</time></trkpt><trkpt lat="37.65699005328553" lon="14.520106005953242"><ele>639.8</ele><time>2026-04-29T11:22:28Z</time></trkpt><trkpt lat="37.656902108804374" lon="14.5201011887648"><ele>638.0</ele><time>2026-04-29T11:22:29Z</time></trkpt><trkpt lat="37.656773871425635" lon="14.520086794453805"><ele>637.4</ele><time>2026-04-29T11:22:31Z</time></trkpt><trkpt lat="37.65670665929153" lon="14.520064429213871"><ele>636.8</ele><time>2026-04-29T11:22:32Z</time></trkpt><trkpt lat="37.65659093145858" lon="14.520026933800608"><ele>636.2</ele><time>2026-04-29T11:22:34Z</time></trkpt><trkpt lat="37.65652050301026" lon="14.520006886474874"><ele>635.6</ele><time>2026-04-29T11:22:39Z</time></trkpt><trkpt lat="37.656471714782526" lon="14.519901833420732"><ele>635.0</ele><time>2026-04-29T11:22:41Z</time></trkpt><trkpt lat="37.65646436775555" lon="14.519766829767745"><ele>635.0</ele><time>2026-04-29T11:22:43Z</time></trkpt><trkpt lat="37.65645233468751" lon="14.519655629144339"><ele>635.0</ele><time>2026-04-29T11:22:44Z</time></trkpt><trkpt lat="37.65643184766309" lon="14.519540773183238"><ele>635.0</ele><time>2026-04-29T11:22:45Z</time></trkpt><trkpt lat="37.65641866340936" lon="14.519449993935163"><ele>635.0</ele><time>2026-04-29T11:22:46Z</time></trkpt><trkpt lat="37.65642110153736" lon="14.519333744092863"><ele>635.0</ele><time>2026-04-29T11:22:47Z</time></trkpt><trkpt lat="37.65640636324677" lon="14.519235126096888"><ele>635.0</ele><time>2026-04-29T11:22:48Z</time></trkpt><trkpt lat="37.656404615184364" lon="14.519148195989663"><ele>633.0</ele><time>2026-04-29T11:22:49Z</time></trkpt><trkpt lat="37.656398723446934" lon="14.519066410389664"><ele>631.0</ele><time>2026-04-29T11:22:50Z</time></trkpt><trkpt lat="37.656387401303114" lon="14.518987486325381"><ele>629.0</ele><time>2026-04-29T11:22:51Z</time></trkpt><trkpt lat="37.65633326702246" lon="14.518860602128296"><ele>627.0</ele><time>2026-04-29T11:22:53Z</time></trkpt><trkpt lat="37.656272302370404" lon="14.518830097001"><ele>625.0</ele><time>2026-04-29T11:22:54Z</time></trkpt><trkpt lat="37.656158694293616" lon="14.51875675933531"><ele>623.0</ele><time>2026-04-29T11:22:56Z</time></trkpt><trkpt lat="37.65609800602722" lon="14.518727072496839"><ele>621.0</ele><time>2026-04-29T11:22:57Z</time></trkpt><trkpt lat="37.656005011242335" lon="14.518684457658695"><ele>619.0</ele><time>2026-04-29T11:22:59Z</time></trkpt><trkpt lat="37.65598881197482" lon="14.518596139192155"><ele>617.0</ele><time>2026-04-29T11:23:02Z</time></trkpt><trkpt lat="37.65606941374012" lon="14.51855910220297"><ele>615.0</ele><time>2026-04-29T11:23:04Z</time></trkpt><trkpt lat="37.65616308502827" lon="14.518605754094486"><ele>613.0</ele><time>2026-04-29T11:23:06Z</time></trkpt><trkpt lat="37.65622806763288" lon="14.51865661459641"><ele>611.0</ele><time>2026-04-29T11:23:07Z</time></trkpt><trkpt lat="37.6563015363293" lon="14.518690295156812"><ele>611.0000000000001</ele><time>2026-04-29T11:23:08Z</time></trkpt><trkpt lat="37.65635683557099" lon="14.518731978847756"><ele>611.0</ele><time>2026-04-29T11:23:09Z</time></trkpt><trkpt lat="37.65641446638958" lon="14.51878471125115"><ele>611.0</ele><time>2026-04-29T11:23:10Z</time></trkpt><trkpt lat="37.65647801394314" lon="14.518837126338045"><ele>611.0</ele><time>2026-04-29T11:23:11Z</time></trkpt><trkpt lat="37.65653950353405" lon="14.518888626819434"><ele>611.0</ele><time>2026-04-29T11:23:11.999Z</time></trkpt><trkpt lat="37.65660114278532" lon="14.518938848848661"><ele>611.0000000000001</ele><time>2026-04-29T11:23:12.999Z</time></trkpt><trkpt lat="37.65665925424228" lon="14.518971997210784"><ele>611.0</ele><time>2026-04-29T11:23:14Z</time></trkpt><trkpt lat="37.65677025128304" lon="14.518968656574893"><ele>611.0</ele><time>2026-04-29T11:23:16Z</time></trkpt><trkpt lat="37.656822568522976" lon="14.518921231981947"><ele>611.0</ele><time>2026-04-29T11:23:17Z</time></trkpt><trkpt lat="37.65686827047844" lon="14.518828627803341"><ele>611.0</ele><time>2026-04-29T11:23:18Z</time></trkpt><trkpt lat="37.65690113346868" lon="14.518731900276919"><ele>611.0</ele><time>2026-04-29T11:23:19Z</time></trkpt><trkpt lat="37.65692446822088" lon="14.518654365550669"><ele>611.0</ele><time>2026-04-29T11:23:20Z</time></trkpt><trkpt lat="37.656967522580125" lon="14.518523283761352"><ele>611.0</ele><time>2026-04-29T11:23:22Z</time></trkpt><trkpt lat="37.65701447870651" lon="14.51841435126469"><ele>610.3333333333333</ele><time>2026-04-29T11:23:24Z</time></trkpt><trkpt lat="37.65704595718133" lon="14.518341518753655"><ele>609.6666666666666</ele><time>2026-04-29T11:23:25Z</time></trkpt><trkpt lat="37.657078266686895" lon="14.518262796878686"><ele>609.0</ele><time>2026-04-29T11:23:26Z</time></trkpt><trkpt lat="37.65710725725036" lon="14.51818608673272"><ele>608.3333333333334</ele><time>2026-04-29T11:23:27Z</time></trkpt><trkpt lat="37.657150583069324" lon="14.518102428164049"><ele>607.6666666666667</ele><time>2026-04-29T11:23:29Z</time></trkpt><trkpt lat="37.657194092136606" lon="14.518026396369516"><ele>607.0</ele><time>2026-04-29T11:23:49Z</time></trkpt><trkpt lat="37.65722718487003" lon="14.517793386533098"><ele>606.1666666666667</ele><time>2026-04-29T11:24:23Z</time></trkpt><trkpt lat="37.65722067823982" lon="14.517670395455145"><ele>605.3333333333334</ele><time>2026-04-29T11:24:24Z</time></trkpt><trkpt lat="37.65720743428054" lon="14.517559553407171"><ele>604.5</ele><time>2026-04-29T11:24:25Z</time></trkpt><trkpt lat="37.65720121380933" lon="14.517447422639151"><ele>603.6666666666666</ele><time>2026-04-29T11:24:26Z</time></trkpt><trkpt lat="37.657185973010066" lon="14.51735836023008"><ele>602.8333333333333</ele><time>2026-04-29T11:24:27Z</time></trkpt><trkpt lat="37.65717209731989" lon="14.517235928022114"><ele>602.0</ele><time>2026-04-29T11:24:29Z</time></trkpt><trkpt lat="37.657151569656335" lon="14.517160674796534"><ele>602.8333333333333</ele><time>2026-04-29T11:24:31Z</time></trkpt><trkpt lat="37.65712728118682" lon="14.517019198653397"><ele>603.6666666666666</ele><time>2026-04-29T11:25:06Z</time></trkpt><trkpt lat="37.65711486850371" lon="14.516926411117428"><ele>604.5</ele><time>2026-04-29T11:25:07Z</time></trkpt><trkpt lat="37.65709696564952" lon="14.516839241083272"><ele>605.3333333333334</ele><time>2026-04-29T11:25:08Z</time></trkpt><trkpt lat="37.65707990583069" lon="14.51676108974127"><ele>606.1666666666667</ele><time>2026-04-29T11:25:09Z</time></trkpt><trkpt lat="37.6570654974696" lon="14.516676112986678"><ele>607.0</ele><time>2026-04-29T11:25:10Z</time></trkpt><trkpt lat="37.65705695058873" lon="14.516582840904352"><ele>607.0</ele><time>2026-04-29T11:25:11Z</time></trkpt><trkpt lat="37.657054674657836" lon="14.51648129989649"><ele>607.0</ele><time>2026-04-29T11:25:12Z</time></trkpt><trkpt lat="37.657053569534824" lon="14.516347782184758"><ele>607.0</ele><time>2026-04-29T11:25:13Z</time></trkpt><trkpt lat="37.65703826976742" lon="14.516195346600881"><ele>607.0</ele><time>2026-04-29T11:25:14Z</time></trkpt><trkpt lat="37.657023820183504" lon="14.516029868092339"><ele>607.0</ele><time>2026-04-29T11:25:15Z</time></trkpt><trkpt lat="37.65701262989434" lon="14.515872662411592"><ele>609.0</ele><time>2026-04-29T11:25:16Z</time></trkpt><trkpt lat="37.65700129519915" lon="14.51570282647311"><ele>611.0</ele><time>2026-04-29T11:25:17Z</time></trkpt><trkpt lat="37.6569896627544" lon="14.515507657140612"><ele>613.0</ele><time>2026-04-29T11:25:18Z</time></trkpt><trkpt lat="37.65697579822317" lon="14.515300598235108"><ele>614.0</ele><time>2026-04-29T11:25:19Z</time></trkpt><trkpt lat="37.65696121959823" lon="14.515118560235715"><ele>615.0</ele><time>2026-04-29T11:25:20Z</time></trkpt><trkpt lat="37.656944353483986" lon="14.514952950690425"><ele>616.0</ele><time>2026-04-29T11:25:21Z</time></trkpt><trkpt lat="37.65692711519972" lon="14.514805621621743"><ele>617.0</ele><time>2026-04-29T11:25:22Z</time></trkpt><trkpt lat="37.65690680139683" lon="14.514649611122524"><ele>615.75</ele><time>2026-04-29T11:25:23Z</time></trkpt><trkpt lat="37.65689115820288" lon="14.514480383132323"><ele>614.5</ele><time>2026-04-29T11:25:24Z</time></trkpt><trkpt lat="37.65687303918577" lon="14.514304920373764"><ele>613.25</ele><time>2026-04-29T11:25:25Z</time></trkpt><trkpt lat="37.656846160506284" lon="14.51413740526665"><ele>612.0</ele><time>2026-04-29T11:25:26Z</time></trkpt><trkpt lat="37.65681680541122" lon="14.513978905344176"><ele>612.0</ele><time>2026-04-29T11:25:27Z</time></trkpt><trkpt lat="37.65678829127088" lon="14.513836028369584"><ele>612.0</ele><time>2026-04-29T11:25:28Z</time></trkpt><trkpt lat="37.656767480287414" lon="14.513703410596387"><ele>612.0</ele><time>2026-04-29T11:25:29Z</time></trkpt><trkpt lat="37.656743830524896" lon="14.513567937490599"><ele>612.0</ele><time>2026-04-29T11:25:30Z</time></trkpt><trkpt lat="37.65671897128282" lon="14.513404786004228"><ele>611.6666666666666</ele><time>2026-04-29T11:25:31Z</time></trkpt><trkpt lat="37.656687058447275" lon="14.513218030982667"><ele>611.3333333333333</ele><time>2026-04-29T11:25:32Z</time></trkpt><trkpt lat="37.6566516999245" lon="14.513022240182428"><ele>611.0</ele><time>2026-04-29T11:25:33Z</time></trkpt><trkpt lat="37.65662039351939" lon="14.512820526560214"><ele>610.5</ele><time>2026-04-29T11:25:34Z</time></trkpt><trkpt lat="37.65659123872765" lon="14.512627049719846"><ele>610.0</ele><time>2026-04-29T11:25:35Z</time></trkpt><trkpt lat="37.65657188134102" lon="14.512452856740893"><ele>609.5</ele><time>2026-04-29T11:25:36Z</time></trkpt><trkpt lat="37.65655054954297" lon="14.512293099325001"><ele>609.0</ele><time>2026-04-29T11:25:37Z</time></trkpt><trkpt lat="37.65650837985113" lon="14.512169490082476"><ele>609.0</ele><time>2026-04-29T11:25:38Z</time></trkpt><trkpt lat="37.6564985023741" lon="14.512077857527329"><ele>609.0</ele><time>2026-04-29T11:25:39Z</time></trkpt><trkpt lat="37.65652095270989" lon="14.511999593282326"><ele>609.0</ele><time>2026-04-29T11:25:40Z</time></trkpt><trkpt lat="37.656533563822634" lon="14.51191767196826"><ele>609.0</ele><time>2026-04-29T11:25:43Z</time></trkpt><trkpt lat="37.65660387514993" lon="14.511843950792677"><ele>609.0</ele><time>2026-04-29T11:25:48Z</time></trkpt><trkpt lat="37.656642195927866" lon="14.511775624026747"><ele>609.0</ele><time>2026-04-29T11:25:50Z</time></trkpt><trkpt lat="37.656628495468425" lon="14.511643309912413"><ele>609.0</ele><time>2026-04-29T11:25:52Z</time></trkpt><trkpt lat="37.65651745540807" lon="14.51158360981274"><ele>609.0</ele><time>2026-04-29T11:25:54Z</time></trkpt><trkpt lat="37.65645212669078" lon="14.511626538062659"><ele>609.0</ele><time>2026-04-29T11:25:55Z</time></trkpt><trkpt lat="37.65639029858554" lon="14.511711999601681"><ele>609.0</ele><time>2026-04-29T11:25:56Z</time></trkpt><trkpt lat="37.65633026999313" lon="14.511812445137895"><ele>609.0</ele><time>2026-04-29T11:25:57Z</time></trkpt><trkpt lat="37.65623262392878" lon="14.51189876104567"><ele>609.0</ele><time>2026-04-29T11:25:58Z</time></trkpt><trkpt lat="37.656167528793816" lon="14.51204871904187"><ele>609.0</ele><time>2026-04-29T11:25:59Z</time></trkpt><trkpt lat="37.656099872932025" lon="14.51220498460202"><ele>609.0</ele><time>2026-04-29T11:26:00Z</time></trkpt><trkpt lat="37.65603400984835" lon="14.512354200461475"><ele>609.0</ele><time>2026-04-29T11:26:01Z</time></trkpt><trkpt lat="37.65596987135133" lon="14.512501271853948"><ele>609.5</ele><time>2026-04-29T11:26:02Z</time></trkpt><trkpt lat="37.65590731391571" lon="14.512645126022159"><ele>610.0</ele><time>2026-04-29T11:26:03Z</time></trkpt><trkpt lat="37.65584160776145" lon="14.512796220850587"><ele>610.5</ele><time>2026-04-29T11:26:04Z</time></trkpt><trkpt lat="37.65577645405584" lon="14.512946045166567"><ele>611.0</ele><time>2026-04-29T11:26:05Z</time></trkpt><trkpt lat="37.65570525349667" lon="14.513095384547986"><ele>611.0</ele><time>2026-04-29T11:26:06Z</time></trkpt><trkpt lat="37.65563774350081" lon="14.513242117228849"><ele>611.0</ele><time>2026-04-29T11:26:07Z</time></trkpt><trkpt lat="37.6555758387268" lon="14.513377124986077"><ele>611.0</ele><time>2026-04-29T11:26:08Z</time></trkpt><trkpt lat="37.65551587575129" lon="14.513510065085418"><ele>611.0</ele><time>2026-04-29T11:26:09Z</time></trkpt><trkpt lat="37.655456081136094" lon="14.513644904563874"><ele>610.0</ele><time>2026-04-29T11:26:10Z</time></trkpt><trkpt lat="37.65539628696384" lon="14.513779743053707"><ele>609.0</ele><time>2026-04-29T11:26:11Z</time></trkpt><trkpt lat="37.655338140297246" lon="14.513910159514674"><ele>608.0</ele><time>2026-04-29T11:26:12Z</time></trkpt><trkpt lat="37.65527951106575" lon="14.514039333862438"><ele>607.0</ele><time>2026-04-29T11:26:13Z</time></trkpt><trkpt lat="37.65522087290367" lon="14.514168527883154"><ele>607.4</ele><time>2026-04-29T11:26:14Z</time></trkpt><trkpt lat="37.655163076654794" lon="14.514295866966588"><ele>607.8000000000001</ele><time>2026-04-29T11:26:15Z</time></trkpt><trkpt lat="37.65510656868064" lon="14.514420367578685"><ele>608.2</ele><time>2026-04-29T11:26:16Z</time></trkpt><trkpt lat="37.65505458227496" lon="14.5145410191091"><ele>608.6</ele><time>2026-04-29T11:26:17Z</time></trkpt><trkpt lat="37.65500329617018" lon="14.514658566604488"><ele>609.0</ele><time>2026-04-29T11:26:18Z</time></trkpt><trkpt lat="37.65495379579537" lon="14.514772021214975"><ele>609.0</ele><time>2026-04-29T11:26:19Z</time></trkpt><trkpt lat="37.65490945196631" lon="14.51487365705486"><ele>609.0</ele><time>2026-04-29T11:26:20Z</time></trkpt><trkpt lat="37.654874755738845" lon="14.514952607868874"><ele>609.0</ele><time>2026-04-29T11:26:21Z</time></trkpt><trkpt lat="37.654826369347816" lon="14.515054591721137"><ele>609.0</ele><time>2026-04-29T11:26:23Z</time></trkpt><trkpt lat="37.65478581404883" lon="14.51513217575807"><ele>609.0</ele><time>2026-04-29T11:26:26Z</time></trkpt><trkpt lat="37.654801199832214" lon="14.515223656283155"><ele>609.0</ele><time>2026-04-29T11:26:28Z</time></trkpt><trkpt lat="37.65471340317909" lon="14.515320233692423"><ele>609.0</ele><time>2026-04-29T11:26:30Z</time></trkpt><trkpt lat="37.65465449764117" lon="14.515382307969434"><ele>609.0</ele><time>2026-04-29T11:26:31Z</time></trkpt><trkpt lat="37.65457086553288" lon="14.515460594985328"><ele>609.0</ele><time>2026-04-29T11:26:32Z</time></trkpt><trkpt lat="37.654459364704834" lon="14.515546063021297"><ele>609.0</ele><time>2026-04-29T11:26:33Z</time></trkpt><trkpt lat="37.65434045010807" lon="14.515618020807183"><ele>609.0</ele><time>2026-04-29T11:26:34Z</time></trkpt><trkpt lat="37.654229619723296" lon="14.515665436279948"><ele>609.0</ele><time>2026-04-29T11:26:35Z</time></trkpt><trkpt lat="37.65414008981295" lon="14.515693774195913"><ele>609.0</ele><time>2026-04-29T11:26:36Z</time></trkpt><trkpt lat="37.65407711093838" lon="14.515707455871896"><ele>609.0</ele><time>2026-04-29T11:26:37Z</time></trkpt><trkpt lat="37.65398905780985" lon="14.515727685003574"><ele>609.0</ele><time>2026-04-29T11:26:39Z</time></trkpt><trkpt lat="37.653921541506705" lon="14.515723706573908"><ele>609.0</ele><time>2026-04-29T11:26:42Z</time></trkpt><trkpt lat="37.65401787059281" lon="14.515694316345083"><ele>609.0</ele><time>2026-04-29T11:26:51Z</time></trkpt><trkpt lat="37.65410142908264" lon="14.515680886656671"><ele>609.0</ele><time>2026-04-29T11:26:52Z</time></trkpt><trkpt lat="37.654207765381244" lon="14.51566067758157"><ele>609.0</ele><time>2026-04-29T11:26:53Z</time></trkpt><trkpt lat="37.654332337524835" lon="14.515621102307316"><ele>609.0</ele><time>2026-04-29T11:26:54Z</time></trkpt><trkpt lat="37.65446015159997" lon="14.515552904350576"><ele>609.0</ele><time>2026-04-29T11:26:55Z</time></trkpt><trkpt lat="37.654579314649766" lon="14.51545854600877"><ele>609.0</ele><time>2026-04-29T11:26:56Z</time></trkpt><trkpt lat="37.65467922340754" lon="14.515356797099226"><ele>609.0</ele><time>2026-04-29T11:26:57Z</time></trkpt><trkpt lat="37.65477432851948" lon="14.515241308036437"><ele>609.0</ele><time>2026-04-29T11:26:58Z</time></trkpt><trkpt lat="37.65485846358073" lon="14.515114543862198"><ele>609.0</ele><time>2026-04-29T11:26:59Z</time></trkpt><trkpt lat="37.6549277022015" lon="14.514980953677865"><ele>609.0</ele><time>2026-04-29T11:27:00Z</time></trkpt><trkpt lat="37.65498913877424" lon="14.514830864702025"><ele>609.0</ele><time>2026-04-29T11:27:01Z</time></trkpt><trkpt lat="37.65505407606447" lon="14.5146600226343"><ele>609.0</ele><time>2026-04-29T11:27:02Z</time></trkpt><trkpt lat="37.65512923558149" lon="14.51448576599547"><ele>609.0</ele><time>2026-04-29T11:27:03Z</time></trkpt><trkpt lat="37.65520724590847" lon="14.514307309531796"><ele>608.5</ele><time>2026-04-29T11:27:04Z</time></trkpt><trkpt lat="37.655275823730335" lon="14.514137651447632"><ele>608.0</ele><time>2026-04-29T11:27:05Z</time></trkpt><trkpt lat="37.655332002192935" lon="14.513989707652417"><ele>607.5</ele><time>2026-04-29T11:27:06Z</time></trkpt><trkpt lat="37.65539367791628" lon="14.513846850678272"><ele>607.0</ele><time>2026-04-29T11:27:07Z</time></trkpt><trkpt lat="37.65547015590449" lon="14.51367873927349"><ele>608.3333333333334</ele><time>2026-04-29T11:27:08Z</time></trkpt><trkpt lat="37.655559412967975" lon="14.5134925053233"><ele>609.6666666666666</ele><time>2026-04-29T11:27:09Z</time></trkpt><trkpt lat="37.655650078407234" lon="14.513320192061492"><ele>611.0</ele><time>2026-04-29T11:27:10Z</time></trkpt><trkpt lat="37.65572736704508" lon="14.513161560494886"><ele>611.0</ele><time>2026-04-29T11:27:11Z</time></trkpt><trkpt lat="37.65579716404545" lon="14.513008127377807"><ele>611.0</ele><time>2026-04-29T11:27:12Z</time></trkpt><trkpt lat="37.65587538766073" lon="14.512856208275052"><ele>611.0</ele><time>2026-04-29T11:27:13Z</time></trkpt><trkpt lat="37.65594927862953" lon="14.512691763148615"><ele>611.0</ele><time>2026-04-29T11:27:13.999Z</time></trkpt><trkpt lat="37.65601692336867" lon="14.51252436168508"><ele>610.5</ele><time>2026-04-29T11:27:14.999Z</time></trkpt><trkpt lat="37.65608753210482" lon="14.512359017097053"><ele>610.0</ele><time>2026-04-29T11:27:15.999Z</time></trkpt><trkpt lat="37.65615203193497" lon="14.512207951199544"><ele>609.5</ele><time>2026-04-29T11:27:16.999Z</time></trkpt><trkpt lat="37.65621224204856" lon="14.512069271125743"><ele>609.0</ele><time>2026-04-29T11:27:17.999Z</time></trkpt><trkpt lat="37.656259308121356" lon="14.51195599275623"><ele>609.0</ele><time>2026-04-29T11:27:18.999Z</time></trkpt><trkpt lat="37.65630194903775" lon="14.511876726113018"><ele>609.0</ele><time>2026-04-29T11:27:19.999Z</time></trkpt><trkpt lat="37.656412658721315" lon="14.51181205475814"><ele>609.0</ele><time>2026-04-29T11:27:21.999Z</time></trkpt><trkpt lat="37.65648685279254" lon="14.511843264876077"><ele>609.0</ele><time>2026-04-29T11:27:22.999Z</time></trkpt><trkpt lat="37.65655677225448" lon="14.511873394956973"><ele>609.0</ele><time>2026-04-29T11:27:23.999Z</time></trkpt><trkpt lat="37.65664017183231" lon="14.511766589990195"><ele>609.0</ele><time>2026-04-29T11:27:26Z</time></trkpt><trkpt lat="37.65663060080991" lon="14.511682777223283"><ele>609.0</ele><time>2026-04-29T11:27:27Z</time></trkpt><trkpt lat="37.6565819679613" lon="14.511611079394125"><ele>609.0</ele><time>2026-04-29T11:27:28Z</time></trkpt><trkpt lat="37.65650301487026" lon="14.511550928253325"><ele>609.0</ele><time>2026-04-29T11:27:29Z</time></trkpt><trkpt lat="37.65642216792621" lon="14.511468568171512"><ele>609.0</ele><time>2026-04-29T11:27:30Z</time></trkpt><trkpt lat="37.656383831549434" lon="14.51134558238197"><ele>609.0</ele><time>2026-04-29T11:27:31Z</time></trkpt><trkpt lat="37.65637407577269" lon="14.51118845763047"><ele>608.4</ele><time>2026-04-29T11:27:32Z</time></trkpt><trkpt lat="37.65636530670456" lon="14.51101761378888"><ele>607.8</ele><time>2026-04-29T11:27:33Z</time></trkpt><trkpt lat="37.65635677872085" lon="14.510873114043754"><ele>607.2</ele><time>2026-04-29T11:27:34Z</time></trkpt><trkpt lat="37.65634973155847" lon="14.51076090878387"><ele>606.6</ele><time>2026-04-29T11:27:35Z</time></trkpt><trkpt lat="37.656335438832826" lon="14.510665346972006"><ele>606.0</ele><time>2026-04-29T11:27:36Z</time></trkpt><trkpt lat="37.65632151086624" lon="14.51054064306142"><ele>605.8</ele><time>2026-04-29T11:27:37Z</time></trkpt><trkpt lat="37.65630301680294" lon="14.51039113950184"><ele>605.6</ele><time>2026-04-29T11:27:38Z</time></trkpt><trkpt lat="37.65629247152051" lon="14.510234595025867"><ele>605.4</ele><time>2026-04-29T11:27:39Z</time></trkpt><trkpt lat="37.65628859971172" lon="14.510099831374948"><ele>605.2</ele><time>2026-04-29T11:27:40Z</time></trkpt><trkpt lat="37.656291953478764" lon="14.510010293212797"><ele>605.0</ele><time>2026-04-29T11:27:41Z</time></trkpt><trkpt lat="37.65628073324877" lon="14.510119139326177"><ele>605.0</ele><time>2026-04-29T11:28:19Z</time></trkpt><trkpt lat="37.656283563409524" lon="14.51025809571434"><ele>605.0</ele><time>2026-04-29T11:28:20Z</time></trkpt><trkpt lat="37.65628745649228" lon="14.51043357994192"><ele>605.0</ele><time>2026-04-29T11:28:21Z</time></trkpt><trkpt lat="37.65626842472725" lon="14.510647663082672"><ele>605.0</ele><time>2026-04-29T11:28:22Z</time></trkpt><trkpt lat="37.65634607934262" lon="14.51085325543936"><ele>605.25</ele><time>2026-04-29T11:28:23Z</time></trkpt><trkpt lat="37.656373961636994" lon="14.511049909882573"><ele>605.5</ele><time>2026-04-29T11:28:24Z</time></trkpt><trkpt lat="37.65639403509475" lon="14.511217015730288"><ele>605.75</ele><time>2026-04-29T11:28:25Z</time></trkpt><trkpt lat="37.65640387002145" lon="14.511350479552078"><ele>606.0</ele><time>2026-04-29T11:28:26Z</time></trkpt><trkpt lat="37.65641357398907" lon="14.511473575821304"><ele>606.75</ele><time>2026-04-29T11:28:27Z</time></trkpt><trkpt lat="37.656413427113584" lon="14.511601579194613"><ele>607.5</ele><time>2026-04-29T11:28:28Z</time></trkpt><trkpt lat="37.65642185330373" lon="14.51174181481542"><ele>608.25</ele><time>2026-04-29T11:28:29Z</time></trkpt><trkpt lat="37.65643999810259" lon="14.511901769266059"><ele>609.0</ele><time>2026-04-29T11:28:30Z</time></trkpt><trkpt lat="37.65646407610555" lon="14.512068884426242"><ele>609.0</ele><time>2026-04-29T11:28:31Z</time></trkpt><trkpt lat="37.656490324434586" lon="14.512234145326403"><ele>609.0</ele><time>2026-04-29T11:28:32Z</time></trkpt><trkpt lat="37.6565148282454" lon="14.512386035453135"><ele>609.0</ele><time>2026-04-29T11:28:33Z</time></trkpt><trkpt lat="37.656540643545576" lon="14.512536226196723"><ele>609.0</ele><time>2026-04-29T11:28:34Z</time></trkpt><trkpt lat="37.6565635158202" lon="14.51269883097537"><ele>609.0</ele><time>2026-04-29T11:28:35Z</time></trkpt><trkpt lat="37.65659833747461" lon="14.51286828889181"><ele>609.0</ele><time>2026-04-29T11:28:36Z</time></trkpt><trkpt lat="37.65661444787503" lon="14.513049611827626"><ele>609.0</ele><time>2026-04-29T11:28:37Z</time></trkpt><trkpt lat="37.656633073437035" lon="14.513221150191102"><ele>609.0</ele><time>2026-04-29T11:28:38Z</time></trkpt><trkpt lat="37.65665441042402" lon="14.513384277817794"><ele>609.5</ele><time>2026-04-29T11:28:39Z</time></trkpt><trkpt lat="37.65667606784161" lon="14.513533166045734"><ele>610.0</ele><time>2026-04-29T11:28:40Z</time></trkpt><trkpt lat="37.65670372168908" lon="14.513687164826171"><ele>610.5</ele><time>2026-04-29T11:28:41Z</time></trkpt><trkpt lat="37.65673717039198" lon="14.513843616403927"><ele>611.0</ele><time>2026-04-29T11:28:42Z</time></trkpt><trkpt lat="37.65676199818368" lon="14.513992745249888"><ele>611.25</ele><time>2026-04-29T11:28:43Z</time></trkpt><trkpt lat="37.65678869541838" lon="14.51413741921308"><ele>611.5</ele><time>2026-04-29T11:28:44Z</time></trkpt><trkpt lat="37.656817674942864" lon="14.514301195958364"><ele>611.75</ele><time>2026-04-29T11:28:45Z</time></trkpt><trkpt lat="37.6568410787898" lon="14.514474225038644"><ele>612.0</ele><time>2026-04-29T11:28:46Z</time></trkpt><trkpt lat="37.65685853784954" lon="14.514644277422011"><ele>611.0</ele><time>2026-04-29T11:28:47Z</time></trkpt><trkpt lat="37.65687501325386" lon="14.51481259337373"><ele>610.0</ele><time>2026-04-29T11:28:48Z</time></trkpt><trkpt lat="37.6568930135376" lon="14.51497987662004"><ele>609.0</ele><time>2026-04-29T11:28:49Z</time></trkpt><trkpt lat="37.6569075295705" lon="14.515151329814046"><ele>608.0</ele><time>2026-04-29T11:28:50Z</time></trkpt><trkpt lat="37.656926407643574" lon="14.515318936531006"><ele>606.75</ele><time>2026-04-29T11:28:51Z</time></trkpt><trkpt lat="37.65693874085714" lon="14.515483133293543"><ele>605.5</ele><time>2026-04-29T11:28:52Z</time></trkpt><trkpt lat="37.65695283384097" lon="14.51562694827084"><ele>604.25</ele><time>2026-04-29T11:28:53Z</time></trkpt><trkpt lat="37.656965174463856" lon="14.515757700852479"><ele>603.0</ele><time>2026-04-29T11:28:54Z</time></trkpt><trkpt lat="37.656927722774284" lon="14.515886880217364"><ele>603.0</ele><time>2026-04-29T11:28:55Z</time></trkpt><trkpt lat="37.65693590378397" lon="14.516004972913107"><ele>603.0</ele><time>2026-04-29T11:28:56Z</time></trkpt><trkpt lat="37.65694284350648" lon="14.516105147639779"><ele>603.0</ele><time>2026-04-29T11:28:57Z</time></trkpt><trkpt lat="37.65694912075273" lon="14.516195352396553"><ele>603.0</ele><time>2026-04-29T11:28:58Z</time></trkpt><trkpt lat="37.65700775580482" lon="14.516269943840781"><ele>603.0</ele><time>2026-04-29T11:28:59Z</time></trkpt><trkpt lat="37.657012965018126" lon="14.516407371483817"><ele>603.0</ele><time>2026-04-29T11:29:01Z</time></trkpt><trkpt lat="37.65697632028941" lon="14.516536466305036"><ele>602.8</ele><time>2026-04-29T11:29:03Z</time></trkpt><trkpt lat="37.65703103203887" lon="14.516583266434127"><ele>602.5999999999999</ele><time>2026-04-29T11:29:04Z</time></trkpt><trkpt lat="37.65703529480429" lon="14.516759933550592"><ele>602.4000000000001</ele><time>2026-04-29T11:29:15Z</time></trkpt><trkpt lat="37.657049831486695" lon="14.516843136006084"><ele>602.2</ele><time>2026-04-29T11:29:16Z</time></trkpt><trkpt lat="37.65706297670689" lon="14.5169434406007"><ele>602.0</ele><time>2026-04-29T11:29:17Z</time></trkpt><trkpt lat="37.65702839917246" lon="14.51707092376811"><ele>602.0</ele><time>2026-04-29T11:29:18Z</time></trkpt><trkpt lat="37.65709527209468" lon="14.517175487194198"><ele>602.0</ele><time>2026-04-29T11:29:18.999Z</time></trkpt><trkpt lat="37.6571232881766" lon="14.517288152991972"><ele>602.0</ele><time>2026-04-29T11:29:19.999Z</time></trkpt><trkpt lat="37.65714305692871" lon="14.51739553857522"><ele>602.0</ele><time>2026-04-29T11:29:20.999Z</time></trkpt><trkpt lat="37.657161764572706" lon="14.51750599813298"><ele>602.0</ele><time>2026-04-29T11:29:21.999Z</time></trkpt><trkpt lat="37.65717575302672" lon="14.517631887589834"><ele>602.0</ele><time>2026-04-29T11:29:22.999Z</time></trkpt><trkpt lat="37.65712438171937" lon="14.517784082760643"><ele>602.0</ele><time>2026-04-29T11:29:23.999Z</time></trkpt><trkpt lat="37.65712117988682" lon="14.51791487373318"><ele>602.0</ele><time>2026-04-29T11:29:24.999Z</time></trkpt><trkpt lat="37.657103512530036" lon="14.518019802464226"><ele>602.0</ele><time>2026-04-29T11:29:25.999Z</time></trkpt><trkpt lat="37.65706184895495" lon="14.518133351296612"><ele>602.0</ele><time>2026-04-29T11:29:26.999Z</time></trkpt><trkpt lat="37.65700661546186" lon="14.518250090043106"><ele>603.0</ele><time>2026-04-29T11:29:27.999Z</time></trkpt><trkpt lat="37.656957843880114" lon="14.518366299472547"><ele>604.0</ele><time>2026-04-29T11:29:28.999Z</time></trkpt><trkpt lat="37.65691014493917" lon="14.518481262897552"><ele>605.0</ele><time>2026-04-29T11:29:29.999Z</time></trkpt><trkpt lat="37.656870470753496" lon="14.518592182697729"><ele>606.0</ele><time>2026-04-29T11:29:30.999Z</time></trkpt><trkpt lat="37.656836576809056" lon="14.518686942273405"><ele>607.0</ele><time>2026-04-29T11:29:32Z</time></trkpt><trkpt lat="37.65680350182535" lon="14.518773421494974"><ele>607.8000000000001</ele><time>2026-04-29T11:29:33Z</time></trkpt><trkpt lat="37.65677085481416" lon="14.51885191313889"><ele>608.6</ele><time>2026-04-29T11:29:34Z</time></trkpt><trkpt lat="37.656674696196504" lon="14.518911158467452"><ele>609.4000000000001</ele><time>2026-04-29T11:29:36Z</time></trkpt><trkpt lat="37.65659758353625" lon="14.518857683469088"><ele>610.2</ele><time>2026-04-29T11:29:37Z</time></trkpt><trkpt lat="37.656517714674266" lon="14.518789997816109"><ele>611.0</ele><time>2026-04-29T11:29:38Z</time></trkpt><trkpt lat="37.65642461197667" lon="14.518715821767083"><ele>611.0</ele><time>2026-04-29T11:29:39Z</time></trkpt><trkpt lat="37.656326834732056" lon="14.518644888953883"><ele>611.0</ele><time>2026-04-29T11:29:40Z</time></trkpt><trkpt lat="37.65623781854389" lon="14.51858391170691"><ele>611.0</ele><time>2026-04-29T11:29:41Z</time></trkpt><trkpt lat="37.65615768632302" lon="14.518536313703706"><ele>611.0</ele><time>2026-04-29T11:29:42Z</time></trkpt><trkpt lat="37.656081756340754" lon="14.518519244312513"><ele>611.0</ele><time>2026-04-29T11:29:43Z</time></trkpt><trkpt lat="37.65598383965323" lon="14.518547420807657"><ele>610.4</ele><time>2026-04-29T11:29:45Z</time></trkpt><trkpt lat="37.65599551032779" lon="14.518648020348706"><ele>609.8</ele><time>2026-04-29T11:29:46Z</time></trkpt><trkpt lat="37.65610368727591" lon="14.518761034753322"><ele>609.1999999999999</ele><time>2026-04-29T11:29:48Z</time></trkpt><trkpt lat="37.6561975745231" lon="14.518804605895909"><ele>608.6</ele><time>2026-04-29T11:29:49Z</time></trkpt><trkpt lat="37.65627558525974" lon="14.518860534462991"><ele>608.0</ele><time>2026-04-29T11:29:50Z</time></trkpt><trkpt lat="37.656342594619744" lon="14.518925112379987"><ele>610.5</ele><time>2026-04-29T11:29:51Z</time></trkpt><trkpt lat="37.656388069526464" lon="14.519001150396427"><ele>613.0</ele><time>2026-04-29T11:29:52Z</time></trkpt><trkpt lat="37.65640805214097" lon="14.519079135364821"><ele>615.5</ele><time>2026-04-29T11:29:53Z</time></trkpt><trkpt lat="37.65641362713176" lon="14.519171364826247"><ele>618.0</ele><time>2026-04-29T11:29:54Z</time></trkpt><trkpt lat="37.65642212167745" lon="14.519273145151338"><ele>620.5</ele><time>2026-04-29T11:29:55Z</time></trkpt><trkpt lat="37.65643807169339" lon="14.51938253144474"><ele>623.0</ele><time>2026-04-29T11:29:56Z</time></trkpt><trkpt lat="37.656455516262106" lon="14.51949968254663"><ele>625.0</ele><time>2026-04-29T11:29:57Z</time></trkpt><trkpt lat="37.65647160761633" lon="14.519600682185914"><ele>627.0</ele><time>2026-04-29T11:29:58Z</time></trkpt><trkpt lat="37.65647789513982" lon="14.519694512428822"><ele>629.0</ele><time>2026-04-29T11:29:59Z</time></trkpt><trkpt lat="37.65645174558491" lon="14.51978752628688"><ele>631.0</ele><time>2026-04-29T11:30:00Z</time></trkpt><trkpt lat="37.65641489869303" lon="14.519880249586233"><ele>633.0</ele><time>2026-04-29T11:30:01Z</time></trkpt><trkpt lat="37.65639051947129" lon="14.51996264224198"><ele>635.0</ele><time>2026-04-29T11:30:02Z</time></trkpt><trkpt lat="37.656367446735935" lon="14.520048817891372"><ele>635.0</ele><time>2026-04-29T11:30:03Z</time></trkpt><trkpt lat="37.656343798708654" lon="14.520134475734178"><ele>635.0</ele><time>2026-04-29T11:30:04Z</time></trkpt><trkpt lat="37.656314168864775" lon="14.520224906580362"><ele>635.0</ele><time>2026-04-29T11:30:05Z</time></trkpt><trkpt lat="37.656297415867066" lon="14.520321906702822"><ele>635.0</ele><time>2026-04-29T11:30:06Z</time></trkpt><trkpt lat="37.65627398542119" lon="14.520416080110085"><ele>635.0</ele><time>2026-04-29T11:30:07Z</time></trkpt><trkpt lat="37.65624668899849" lon="14.52050657855928"><ele>635.0</ele><time>2026-04-29T11:30:08Z</time></trkpt><trkpt lat="37.65620884864333" lon="14.520585331194455"><ele>636.8</ele><time>2026-04-29T11:30:09Z</time></trkpt><trkpt lat="37.65616978389196" lon="14.520657175332827"><ele>638.6</ele><time>2026-04-29T11:30:10Z</time></trkpt><trkpt lat="37.656122892922824" lon="14.520793470699942"><ele>640.4000000000001</ele><time>2026-04-29T11:30:12Z</time></trkpt><trkpt lat="37.65608822865295" lon="14.520912444309323"><ele>642.2</ele><time>2026-04-29T11:30:14Z</time></trkpt><trkpt lat="37.656044194611376" lon="14.521033173969036"><ele>644.0</ele><time>2026-04-29T11:30:16Z</time></trkpt><trkpt lat="37.656026330664915" lon="14.521153273010313"><ele>640.3333333333333</ele><time>2026-04-29T11:30:18Z</time></trkpt><trkpt lat="37.65602837316643" lon="14.52124250904552"><ele>636.6666666666666</ele><time>2026-04-29T11:30:20Z</time></trkpt><trkpt lat="37.65599613451851" lon="14.521339820620975"><ele>633.0</ele><time>2026-04-29T11:30:23Z</time></trkpt><trkpt lat="37.65594326173672" lon="14.521428781474416"><ele>629.3333333333334</ele><time>2026-04-29T11:30:25Z</time></trkpt><trkpt lat="37.65588754861316" lon="14.521515975407457"><ele>625.6666666666667</ele><time>2026-04-29T11:30:27Z</time></trkpt><trkpt lat="37.65586233684687" lon="14.521611492897565"><ele>622.0</ele><time>2026-04-29T11:30:29Z</time></trkpt><trkpt lat="37.65585829326643" lon="14.521714604373242"><ele>622.0</ele><time>2026-04-29T11:30:32Z</time></trkpt><trkpt lat="37.65587142605388" lon="14.5218348658916"><ele>622.0</ele><time>2026-04-29T11:30:34Z</time></trkpt><trkpt lat="37.6559181350081" lon="14.52192921648761"><ele>622.0</ele><time>2026-04-29T11:30:35Z</time></trkpt><trkpt lat="37.65595019005585" lon="14.522010189943613"><ele>622.0</ele><time>2026-04-29T11:30:36Z</time></trkpt><trkpt lat="37.65598931068988" lon="14.522111473167788"><ele>622.0</ele><time>2026-04-29T11:30:37Z</time></trkpt><trkpt lat="37.65601013083761" lon="14.522243993030118"><ele>623.4</ele><time>2026-04-29T11:30:38Z</time></trkpt><trkpt lat="37.65603279306603" lon="14.522381546332126"><ele>624.8000000000001</ele><time>2026-04-29T11:30:39Z</time></trkpt><trkpt lat="37.65608544531339" lon="14.522464579662023"><ele>626.2</ele><time>2026-04-29T11:30:40Z</time></trkpt><trkpt lat="37.65611464210098" lon="14.522622113358155"><ele>627.6</ele><time>2026-04-29T11:30:42Z</time></trkpt><trkpt lat="37.65614093668694" lon="14.522715957432336"><ele>629.0</ele><time>2026-04-29T11:30:43Z</time></trkpt><trkpt lat="37.65616296547913" lon="14.52281343701141"><ele>632.2</ele><time>2026-04-29T11:30:44Z</time></trkpt><trkpt lat="37.65623271269068" lon="14.522941525248035"><ele>635.4</ele><time>2026-04-29T11:30:46Z</time></trkpt><trkpt lat="37.656301345698175" lon="14.522979041130137"><ele>638.6</ele><time>2026-04-29T11:30:47Z</time></trkpt><trkpt lat="37.656361338348866" lon="14.523019548496054"><ele>641.8</ele><time>2026-04-29T11:30:48Z</time></trkpt><trkpt lat="37.656460647844014" lon="14.523067488525687"><ele>645.0</ele><time>2026-04-29T11:30:50Z</time></trkpt><trkpt lat="37.65655683265428" lon="14.523033628308424"><ele>645.0</ele><time>2026-04-29T11:30:52Z</time></trkpt><trkpt lat="37.656544415122475" lon="14.522917251410991"><ele>645.0</ele><time>2026-04-29T11:30:54Z</time></trkpt><trkpt lat="37.656608585745566" lon="14.52291615188883"><ele>645.0</ele><time>2026-04-29T11:30:58Z</time></trkpt><trkpt lat="37.65665046654748" lon="14.523030629413903"><ele>645.0</ele><time>2026-04-29T11:31:00Z</time></trkpt><trkpt lat="37.65666720944795" lon="14.523112110360536"><ele>645.0</ele><time>2026-04-29T11:31:01Z</time></trkpt><trkpt lat="37.65668236460888" lon="14.523189710314892"><ele>645.0</ele><time>2026-04-29T11:31:02Z</time></trkpt><trkpt lat="37.65668341968907" lon="14.523273300346002"><ele>645.0</ele><time>2026-04-29T11:31:03Z</time></trkpt><trkpt lat="37.65669095276538" lon="14.523370145150452"><ele>645.0</ele><time>2026-04-29T11:31:04Z</time></trkpt><trkpt lat="37.65670469521016" lon="14.523466983173403"><ele>645.0</ele><time>2026-04-29T11:31:05Z</time></trkpt><trkpt lat="37.65671812964817" lon="14.523548108487082"><ele>645.0</ele><time>2026-04-29T11:31:06Z</time></trkpt><trkpt lat="37.65681747629591" lon="14.52348383264812"><ele>645.0</ele><time>2026-04-29T11:31:13Z</time></trkpt><trkpt lat="37.65689636009922" lon="14.523396104146716"><ele>645.0</ele><time>2026-04-29T11:31:15Z</time></trkpt><trkpt lat="37.65700788347291" lon="14.523370178760896"><ele>645.2</ele><time>2026-04-29T11:31:17Z</time></trkpt><trkpt lat="37.65711172056112" lon="14.523337811015283"><ele>645.4</ele><time>2026-04-29T11:31:19Z</time></trkpt><trkpt lat="37.65722678742975" lon="14.523208583090305"><ele>645.5999999999999</ele><time>2026-04-29T11:31:23.999Z</time></trkpt><trkpt lat="37.65723817888049" lon="14.523099823333409"><ele>645.8</ele><time>2026-04-29T11:31:24.999Z</time></trkpt><trkpt lat="37.65722857756638" lon="14.522982476585655"><ele>646.0</ele><time>2026-04-29T11:31:25.999Z</time></trkpt><trkpt lat="37.65720926869882" lon="14.52287732622456"><ele>646.0</ele><time>2026-04-29T11:31:26.999Z</time></trkpt><trkpt lat="37.65720356813608" lon="14.522789171204376"><ele>646.0</ele><time>2026-04-29T11:31:27.999Z</time></trkpt><trkpt lat="37.65715644005246" lon="14.522714282832364"><ele>646.0</ele><time>2026-04-29T11:31:28.999Z</time></trkpt><trkpt lat="37.65712085530109" lon="14.522626418407912"><ele>646.0</ele><time>2026-04-29T11:31:29.999Z</time></trkpt><trkpt lat="37.65709406496415" lon="14.522536805627809"><ele>646.0</ele><time>2026-04-29T11:31:30.999Z</time></trkpt><trkpt lat="37.657051041181276" lon="14.522454941366993"><ele>646.0</ele><time>2026-04-29T11:31:31.999Z</time></trkpt><trkpt lat="37.6570132945648" lon="14.522372204670955"><ele>646.0</ele><time>2026-04-29T11:31:32.999Z</time></trkpt><trkpt lat="37.65698656535154" lon="14.522277726710916"><ele>646.0</ele><time>2026-04-29T11:31:34.999Z</time></trkpt><trkpt lat="37.656957538077556" lon="14.522202308572242"><ele>646.0</ele><time>2026-04-29T11:31:58Z</time></trkpt><trkpt lat="37.656850281772414" lon="14.52221373578631"><ele>646.0</ele><time>2026-04-29T11:32:48Z</time></trkpt><trkpt lat="37.65684372145904" lon="14.52212128475109"><ele>646.0</ele><time>2026-04-29T11:32:57Z</time></trkpt><trkpt lat="37.65688272442363" lon="14.522042216732903"><ele>646.0</ele><time>2026-04-29T11:33:02Z</time></trkpt><trkpt lat="37.65684945813215" lon="14.521971634365366"><ele>645.8571428571429</ele><time>2026-04-29T11:33:10Z</time></trkpt><trkpt lat="37.65686270715433" lon="14.521886187269162"><ele>645.7142857142858</ele><time>2026-04-29T11:33:20.999Z</time></trkpt><trkpt lat="37.656866703345024" lon="14.521803922714756"><ele>645.5714285714287</ele><time>2026-04-29T11:33:25.999Z</time></trkpt><trkpt lat="37.656866407465465" lon="14.521723044124691"><ele>645.4285714285714</ele><time>2026-04-29T11:33:31.999Z</time></trkpt><trkpt lat="37.65689104288186" lon="14.52163692446127"><ele>645.2857142857142</ele><time>2026-04-29T11:33:40.999Z</time></trkpt><trkpt lat="37.65686005386011" lon="14.521714181480908"><ele>645.1428571428572</ele><time>2026-04-29T11:33:56Z</time></trkpt><trkpt lat="37.65684766817594" lon="14.521799843954973"><ele>645.0</ele><time>2026-04-29T11:34:03Z</time></trkpt><trkpt lat="37.65685661921821" lon="14.521880773062934"><ele>645.0</ele><time>2026-04-29T11:34:08Z</time></trkpt><trkpt lat="37.65686694435272" lon="14.521959911703421"><ele>645.0</ele><time>2026-04-29T11:34:16Z</time></trkpt><trkpt lat="37.65688095172694" lon="14.522044121435986"><ele>645.0</ele><time>2026-04-29T11:34:24.999Z</time></trkpt><trkpt lat="37.65690498112134" lon="14.522135909339394"><ele>645.0</ele><time>2026-04-29T11:34:34.999Z</time></trkpt><trkpt lat="37.656852605144365" lon="14.5219347711154"><ele>645.0</ele><time>2026-04-29T11:36:27Z</time></trkpt><trkpt lat="37.65685068026054" lon="14.521834693715482"><ele>645.0</ele><time>2026-04-29T11:36:28Z</time></trkpt><trkpt lat="37.656854924896216" lon="14.521723625094078"><ele>645.0</ele><time>2026-04-29T11:36:29Z</time></trkpt><trkpt lat="37.65686496541311" lon="14.521605471785257"><ele>645.0</ele><time>2026-04-29T11:36:30Z</time></trkpt><trkpt lat="37.65688492399484" lon="14.521483899858127"><ele>645.0</ele><time>2026-04-29T11:36:31Z</time></trkpt><trkpt lat="37.65690593796778" lon="14.52136613493135"><ele>645.0</ele><time>2026-04-29T11:36:32Z</time></trkpt><trkpt lat="37.65691922449511" lon="14.521253490995221"><ele>644.8</ele><time>2026-04-29T11:36:33Z</time></trkpt><trkpt lat="37.65692278657225" lon="14.521136284470293"><ele>644.6</ele><time>2026-04-29T11:36:34Z</time></trkpt><trkpt lat="37.6569354766584" lon="14.521009160846978"><ele>644.4000000000001</ele><time>2026-04-29T11:36:35Z</time></trkpt><trkpt lat="37.656956927292086" lon="14.52086408622267"><ele>644.2</ele><time>2026-04-29T11:36:36Z</time></trkpt><trkpt lat="37.65697740985472" lon="14.52074362156748"><ele>644.0</ele><time>2026-04-29T11:36:37Z</time></trkpt><trkpt lat="37.657044114564435" lon="14.520616582913862"><ele>644.6</ele><time>2026-04-29T11:36:38Z</time></trkpt><trkpt lat="37.65708595399323" lon="14.520499676900606"><ele>645.2</ele><time>2026-04-29T11:36:39Z</time></trkpt><trkpt lat="37.65713499227829" lon="14.520380759343519"><ele>645.8000000000001</ele><time>2026-04-29T11:36:40Z</time></trkpt><trkpt lat="37.65718455418329" lon="14.520289781752439"><ele>646.4000000000001</ele><time>2026-04-29T11:36:41Z</time></trkpt><trkpt lat="37.65722748906516" lon="14.520220620808319"><ele>647.0</ele><time>2026-04-29T11:36:42Z</time></trkpt><trkpt lat="37.65726641202546" lon="14.52011662371795"><ele>645.2</ele><time>2026-04-29T11:36:44Z</time></trkpt><trkpt lat="37.65719589198102" lon="14.520041551601198"><ele>643.4000000000001</ele><time>2026-04-29T11:36:46Z</time></trkpt><trkpt lat="37.657119289007476" lon="14.52005024425279"><ele>641.5999999999999</ele><time>2026-04-29T11:36:47Z</time></trkpt><trkpt lat="37.65701019076572" lon="14.520066121107208"><ele>639.8</ele><time>2026-04-29T11:36:48Z</time></trkpt><trkpt lat="37.656922392332625" lon="14.520050666643222"><ele>638.0</ele><time>2026-04-29T11:36:49Z</time></trkpt><trkpt lat="37.656829738373595" lon="14.520024882499538"><ele>637.4</ele><time>2026-04-29T11:36:50Z</time></trkpt><trkpt lat="37.65673665893394" lon="14.520081185199777"><ele>636.8</ele><time>2026-04-29T11:36:51Z</time></trkpt><trkpt lat="37.65664127470148" lon="14.52005391196821"><ele>636.2</ele><time>2026-04-29T11:36:52Z</time></trkpt><trkpt lat="37.65656010424381" lon="14.520034519165726"><ele>635.6</ele><time>2026-04-29T11:36:53Z</time></trkpt><trkpt lat="37.656485334745014" lon="14.5199898250726"><ele>635.0</ele><time>2026-04-29T11:36:55Z</time></trkpt><trkpt lat="37.656467324486535" lon="14.519886401320546"><ele>635.0</ele><time>2026-04-29T11:36:59Z</time></trkpt><trkpt lat="37.656450665054" lon="14.519681139840664"><ele>635.0</ele><time>2026-04-29T11:37:01Z</time></trkpt><trkpt lat="37.65644957528224" lon="14.519532018706503"><ele>635.0</ele><time>2026-04-29T11:37:02Z</time></trkpt><trkpt lat="37.65641645913849" lon="14.519394008724767"><ele>635.0</ele><time>2026-04-29T11:37:03Z</time></trkpt><trkpt lat="37.656394049760976" lon="14.519239802559063"><ele>632.6</ele><time>2026-04-29T11:37:04Z</time></trkpt><trkpt lat="37.656377093710674" lon="14.519098437672803"><ele>630.2</ele><time>2026-04-29T11:37:04.999Z</time></trkpt><trkpt lat="37.65636501905997" lon="14.518999720207912"><ele>627.8</ele><time>2026-04-29T11:37:05.999Z</time></trkpt><trkpt lat="37.65632490867624" lon="14.518906108655163"><ele>625.4</ele><time>2026-04-29T11:37:06.999Z</time></trkpt><trkpt lat="37.65634651291485" lon="14.518789978475061"><ele>623.0</ele><time>2026-04-29T11:37:07.999Z</time></trkpt><trkpt lat="37.65622238060281" lon="14.518807512967953"><ele>623.0</ele><time>2026-04-29T11:37:08.999Z</time></trkpt><trkpt lat="37.65612930435016" lon="14.518764395287642"><ele>623.0</ele><time>2026-04-29T11:37:09.999Z</time></trkpt><trkpt lat="37.65604355165151" lon="14.518713416951941"><ele>623.0</ele><time>2026-04-29T11:37:10.999Z</time></trkpt><trkpt lat="37.655987713566056" lon="14.518669139685672"><ele>623.0</ele><time>2026-04-29T11:37:11.999Z</time></trkpt><trkpt lat="37.65602787624331" lon="14.518577574718309"><ele>623.0</ele><time>2026-04-29T11:37:13.999Z</time></trkpt><trkpt lat="37.656086055808274" lon="14.518534493995228"><ele>623.0</ele><time>2026-04-29T11:37:14.999Z</time></trkpt><trkpt lat="37.65615363912705" lon="14.51855219710113"><ele>623.0</ele><time>2026-04-29T11:37:15.999Z</time></trkpt><trkpt lat="37.6562498951501" lon="14.518615229259531"><ele>623.0</ele><time>2026-04-29T11:37:16.999Z</time></trkpt><trkpt lat="37.65636414280724" lon="14.518694527471848"><ele>623.0</ele><time>2026-04-29T11:37:17.999Z</time></trkpt><trkpt lat="37.656505246357995" lon="14.518811513688009"><ele>623.0</ele><time>2026-04-29T11:37:18.999Z</time></trkpt><trkpt lat="37.65659248124638" lon="14.518888361006352"><ele>623.0</ele><time>2026-04-29T11:37:19.999Z</time></trkpt><trkpt lat="37.6566678711327" lon="14.518938944423887"><ele>623.0</ele><time>2026-04-29T11:37:20.999Z</time></trkpt><trkpt lat="37.656727676102925" lon="14.518964023702255"><ele>623.0</ele><time>2026-04-29T11:37:21.999Z</time></trkpt><trkpt lat="37.65682531498498" lon="14.51891403485832"><ele>623.0</ele><time>2026-04-29T11:37:23.999Z</time></trkpt><trkpt lat="37.6568670569625" lon="14.518835150170753"><ele>623.0</ele><time>2026-04-29T11:37:24.999Z</time></trkpt><trkpt lat="37.65689357158814" lon="14.518753037188835"><ele>623.0</ele><time>2026-04-29T11:37:25.999Z</time></trkpt><trkpt lat="37.656921979965" lon="14.518627453026479"><ele>621.0</ele><time>2026-04-29T11:37:27.999Z</time></trkpt><trkpt lat="37.656908466755944" lon="14.518543394374115"><ele>619.0</ele><time>2026-04-29T11:37:29.999Z</time></trkpt><trkpt lat="37.65694248861561" lon="14.518476451337062"><ele>617.0</ele><time>2026-04-29T11:37:32.999Z</time></trkpt><trkpt lat="37.65684803210407" lon="14.51850900152164"><ele>615.0</ele><time>2026-04-29T11:41:42.999Z</time></trkpt><trkpt lat="37.656897696796506" lon="14.518574309291479"><ele>613.0</ele><time>2026-04-29T11:41:55.999Z</time></trkpt><trkpt lat="37.65697094237959" lon="14.518565265131372"><ele>611.0</ele><time>2026-04-29T12:01:19.026Z</time></trkpt><trkpt lat="37.65685632426264" lon="14.518415877840361"><ele>611.0</ele><time>2026-04-29T12:01:23.032Z</time></trkpt><trkpt lat="37.65692370300199" lon="14.518520590565714"><ele>611.0</ele><time>2026-04-29T12:03:15.999Z</time></trkpt><trkpt lat="37.656858749211395" lon="14.518510071389239"><ele>611.0</ele><time>2026-04-29T12:21:05.999Z</time></trkpt><trkpt lat="37.65691289751214" lon="14.518452419395468"><ele>611.0</ele><time>2026-04-29T12:27:56.999Z</time></trkpt><trkpt lat="37.65695291133133" lon="14.518381249583616"><ele>611.0</ele><time>2026-04-29T12:27:58.999Z</time></trkpt><trkpt lat="37.65699896898571" lon="14.518281559961641"><ele>611.0</ele><time>2026-04-29T12:28:00.999Z</time></trkpt><trkpt lat="37.65705077250268" lon="14.518165385739687"><ele>610.2</ele><time>2026-04-29T12:28:02.999Z</time></trkpt><trkpt lat="37.6571145872484" lon="14.518019189043985"><ele>609.4000000000001</ele><time>2026-04-29T12:28:04.999Z</time></trkpt><trkpt lat="37.65713834750574" lon="14.517914199108311"><ele>608.6</ele><time>2026-04-29T12:28:05.999Z</time></trkpt><trkpt lat="37.65714696261282" lon="14.517792354780914"><ele>607.8000000000001</ele><time>2026-04-29T12:28:06.999Z</time></trkpt><trkpt lat="37.657140966125326" lon="14.517667966015685"><ele>607.0</ele><time>2026-04-29T12:28:07.999Z</time></trkpt><trkpt lat="37.657128153448966" lon="14.517546487038022"><ele>607.0</ele><time>2026-04-29T12:28:08.999Z</time></trkpt><trkpt lat="37.65711300407637" lon="14.517428663590422"><ele>607.0</ele><time>2026-04-29T12:28:09.999Z</time></trkpt><trkpt lat="37.657099677272065" lon="14.517312530391568"><ele>607.0</ele><time>2026-04-29T12:28:10.999Z</time></trkpt><trkpt lat="37.65708379230293" lon="14.517190862327471"><ele>607.0</ele><time>2026-04-29T12:28:11.999Z</time></trkpt><trkpt lat="37.65706531775563" lon="14.517058165992852"><ele>607.0</ele><time>2026-04-29T12:28:12.999Z</time></trkpt><trkpt lat="37.65704843785676" lon="14.516919034339468"><ele>607.0</ele><time>2026-04-29T12:28:13.999Z</time></trkpt><trkpt lat="37.65703148621217" lon="14.516772103352926"><ele>607.0</ele><time>2026-04-29T12:28:14.999Z</time></trkpt><trkpt lat="37.65701932375099" lon="14.516626508482766"><ele>607.0</ele><time>2026-04-29T12:28:15.999Z</time></trkpt><trkpt lat="37.65700869869693" lon="14.516479826422707"><ele>607.0</ele><time>2026-04-29T12:28:16.999Z</time></trkpt><trkpt lat="37.65699808946251" lon="14.51633230453947"><ele>606.0</ele><time>2026-04-29T12:28:17.999Z</time></trkpt><trkpt lat="37.65698634974721" lon="14.51617933319403"><ele>605.0</ele><time>2026-04-29T12:28:18.999Z</time></trkpt><trkpt lat="37.656973137555944" lon="14.51601739693694"><ele>604.0</ele><time>2026-04-29T12:28:19.999Z</time></trkpt><trkpt lat="37.65696055284313" lon="14.515849823772914"><ele>603.0</ele><time>2026-04-29T12:28:20.999Z</time></trkpt><trkpt lat="37.65695004316986" lon="14.515681025181847"><ele>603.0</ele><time>2026-04-29T12:28:21.999Z</time></trkpt><trkpt lat="37.656935247986404" lon="14.515521259053601"><ele>603.0</ele><time>2026-04-29T12:28:22.999Z</time></trkpt><trkpt lat="37.65692328465503" lon="14.51536883456854"><ele>603.0</ele><time>2026-04-29T12:28:23.999Z</time></trkpt><trkpt lat="37.65691242245336" lon="14.515216543573441"><ele>603.0</ele><time>2026-04-29T12:28:24.999Z</time></trkpt><trkpt lat="37.65689991065624" lon="14.515063614741564"><ele>604.25</ele><time>2026-04-29T12:28:25.999Z</time></trkpt><trkpt lat="37.65689001067001" lon="14.514904224281526"><ele>605.5</ele><time>2026-04-29T12:28:26.999Z</time></trkpt><trkpt lat="37.65687652048813" lon="14.514738501336259"><ele>606.75</ele><time>2026-04-29T12:28:27.999Z</time></trkpt><trkpt lat="37.656858260550024" lon="14.514580508492706"><ele>608.0</ele><time>2026-04-29T12:28:28.999Z</time></trkpt><trkpt lat="37.65682646308476" lon="14.514438826897976"><ele>609.0</ele><time>2026-04-29T12:28:29.999Z</time></trkpt><trkpt lat="37.65682062820727" lon="14.514302083223148"><ele>610.0</ele><time>2026-04-29T12:28:31Z</time></trkpt><trkpt lat="37.65680000334327" lon="14.514151221166138"><ele>611.0</ele><time>2026-04-29T12:28:32Z</time></trkpt><trkpt lat="37.65676977576368" lon="14.514008161271322"><ele>612.0</ele><time>2026-04-29T12:28:33Z</time></trkpt><trkpt lat="37.6567414711465" lon="14.513874195666425"><ele>611.75</ele><time>2026-04-29T12:28:34Z</time></trkpt><trkpt lat="37.656718384088975" lon="14.513735106339249"><ele>611.5</ele><time>2026-04-29T12:28:35Z</time></trkpt><trkpt lat="37.65669723071336" lon="14.51359378015152"><ele>611.25</ele><time>2026-04-29T12:28:36Z</time></trkpt><trkpt lat="37.65667247000575" lon="14.513444522267996"><ele>611.0</ele><time>2026-04-29T12:28:37Z</time></trkpt><trkpt lat="37.65664495981955" lon="14.513291966924596"><ele>611.0</ele><time>2026-04-29T12:28:38Z</time></trkpt><trkpt lat="37.656618031144454" lon="14.513137538806246"><ele>611.0</ele><time>2026-04-29T12:28:39Z</time></trkpt><trkpt lat="37.65659384588696" lon="14.512988863805049"><ele>611.0</ele><time>2026-04-29T12:28:40Z</time></trkpt><trkpt lat="37.65657109788342" lon="14.512849787658547"><ele>611.0</ele><time>2026-04-29T12:28:41Z</time></trkpt><trkpt lat="37.65655175040666" lon="14.512714843458326"><ele>610.6</ele><time>2026-04-29T12:28:42Z</time></trkpt><trkpt lat="37.65653469502844" lon="14.51258538699578"><ele>610.2</ele><time>2026-04-29T12:28:43Z</time></trkpt><trkpt lat="37.65651897733098" lon="14.512463512533719"><ele>609.8</ele><time>2026-04-29T12:28:44Z</time></trkpt><trkpt lat="37.65650590702614" lon="14.51234581428409"><ele>609.4</ele><time>2026-04-29T12:28:45Z</time></trkpt><trkpt lat="37.65649253089131" lon="14.512235976553443"><ele>609.0</ele><time>2026-04-29T12:28:46Z</time></trkpt><trkpt lat="37.656479187016366" lon="14.512130443356037"><ele>609.0</ele><time>2026-04-29T12:28:47Z</time></trkpt><trkpt lat="37.656480693250366" lon="14.512040630659094"><ele>609.0</ele><time>2026-04-29T12:28:48Z</time></trkpt><trkpt lat="37.65653618721469" lon="14.51191148520195"><ele>609.0</ele><time>2026-04-29T12:28:50Z</time></trkpt><trkpt lat="37.656647046110876" lon="14.511910200449604"><ele>609.0</ele><time>2026-04-29T12:28:52Z</time></trkpt><trkpt lat="37.656674804678175" lon="14.512009009533864"><ele>609.0</ele><time>2026-04-29T12:28:53Z</time></trkpt><trkpt lat="37.656736594623766" lon="14.51211038880728"><ele>609.0</ele><time>2026-04-29T12:28:54Z</time></trkpt><trkpt lat="37.6568084929381" lon="14.512217065706807"><ele>609.0</ele><time>2026-04-29T12:28:55Z</time></trkpt><trkpt lat="37.65688626331897" lon="14.512332455097498"><ele>609.0</ele><time>2026-04-29T12:28:56Z</time></trkpt><trkpt lat="37.6569681002299" lon="14.5124538780827"><ele>609.0</ele><time>2026-04-29T12:28:57Z</time></trkpt><trkpt lat="37.657051518423806" lon="14.512579018487866"><ele>612.0</ele><time>2026-04-29T12:28:58Z</time></trkpt><trkpt lat="37.657137350520316" lon="14.512709340420002"><ele>615.0</ele><time>2026-04-29T12:28:59Z</time></trkpt><trkpt lat="37.65721857752429" lon="14.512845435484216"><ele>618.0</ele><time>2026-04-29T12:29:00Z</time></trkpt><trkpt lat="37.657288430635425" lon="14.512987350001401"><ele>621.0</ele><time>2026-04-29T12:29:01Z</time></trkpt><trkpt lat="37.6573524682703" lon="14.51314026979791"><ele>621.25</ele><time>2026-04-29T12:29:02Z</time></trkpt><trkpt lat="37.65740152620931" lon="14.51330249418511"><ele>621.5</ele><time>2026-04-29T12:29:03Z</time></trkpt><trkpt lat="37.65744272799921" lon="14.513469160285773"><ele>621.75</ele><time>2026-04-29T12:29:04Z</time></trkpt><trkpt lat="37.6574826815126" lon="14.513640063265013"><ele>622.0</ele><time>2026-04-29T12:29:05Z</time></trkpt><trkpt lat="37.657525860647375" lon="14.513814363258314"><ele>621.5</ele><time>2026-04-29T12:29:06Z</time></trkpt><trkpt lat="37.65757053842821" lon="14.513989935471411"><ele>621.0</ele><time>2026-04-29T12:29:07Z</time></trkpt><trkpt lat="37.65761081534654" lon="14.514167144092125"><ele>620.5</ele><time>2026-04-29T12:29:08Z</time></trkpt><trkpt lat="37.6576504332263" lon="14.514345596358005"><ele>620.0</ele><time>2026-04-29T12:29:09Z</time></trkpt><trkpt lat="37.657691397223964" lon="14.514519694062107"><ele>619.25</ele><time>2026-04-29T12:29:10Z</time></trkpt><trkpt lat="37.65773155829506" lon="14.514677828761561"><ele>618.5</ele><time>2026-04-29T12:29:11Z</time></trkpt><trkpt lat="37.6577710687589" lon="14.514841293615556"><ele>617.75</ele><time>2026-04-29T12:29:12Z</time></trkpt><trkpt lat="37.65781139280095" lon="14.51500953647754"><ele>617.0</ele><time>2026-04-29T12:29:13Z</time></trkpt><trkpt lat="37.657849973087025" lon="14.515176325680896"><ele>619.0</ele><time>2026-04-29T12:29:14Z</time></trkpt><trkpt lat="37.657885357948714" lon="14.515334834773837"><ele>621.0</ele><time>2026-04-29T12:29:15Z</time></trkpt><trkpt lat="37.65791971536258" lon="14.515475481725142"><ele>623.0</ele><time>2026-04-29T12:29:16Z</time></trkpt><trkpt lat="37.657952724878676" lon="14.515599601866537"><ele>625.0</ele><time>2026-04-29T12:29:17Z</time></trkpt><trkpt lat="37.65799174096293" lon="14.515715330975816"><ele>625.0</ele><time>2026-04-29T12:29:18Z</time></trkpt><trkpt lat="37.658058515131756" lon="14.515825551188325"><ele>625.0</ele><time>2026-04-29T12:29:19Z</time></trkpt><trkpt lat="37.6581449721397" lon="14.515903129823606"><ele>625.0</ele><time>2026-04-29T12:29:20Z</time></trkpt><trkpt lat="37.658253753640935" lon="14.515915386380744"><ele>625.0</ele><time>2026-04-29T12:29:21Z</time></trkpt><trkpt lat="37.65835093911042" lon="14.515914021986998"><ele>625.0</ele><time>2026-04-29T12:29:22Z</time></trkpt><trkpt lat="37.65844935823458" lon="14.51587409984509"><ele>625.0</ele><time>2026-04-29T12:29:23Z</time></trkpt><trkpt lat="37.65854606085284" lon="14.515800186707086"><ele>625.0</ele><time>2026-04-29T12:29:24Z</time></trkpt><trkpt lat="37.65863978735752" lon="14.515704555734551"><ele>625.0</ele><time>2026-04-29T12:29:25Z</time></trkpt><trkpt lat="37.65871147021896" lon="14.515597467124508"><ele>625.0</ele><time>2026-04-29T12:29:26Z</time></trkpt><trkpt lat="37.658781806012755" lon="14.515484673797163"><ele>626.0</ele><time>2026-04-29T12:29:27Z</time></trkpt><trkpt lat="37.65885911631124" lon="14.51538085651304"><ele>627.0</ele><time>2026-04-29T12:29:28Z</time></trkpt><trkpt lat="37.65893506229941" lon="14.515281740102427"><ele>628.0</ele><time>2026-04-29T12:29:29Z</time></trkpt><trkpt lat="37.659005936741565" lon="14.515190828484478"><ele>629.0</ele><time>2026-04-29T12:29:30Z</time></trkpt><trkpt lat="37.65907476157197" lon="14.515117865916011"><ele>630.0</ele><time>2026-04-29T12:29:31Z</time></trkpt><trkpt lat="37.65915620114067" lon="14.51506789235542"><ele>630.0</ele><time>2026-04-29T12:29:32Z</time></trkpt><trkpt lat="37.65925204670945" lon="14.515048922870223"><ele>630.0</ele><time>2026-04-29T12:29:33Z</time></trkpt><trkpt lat="37.659348877678326" lon="14.51506576461809"><ele>630.0</ele><time>2026-04-29T12:29:34Z</time></trkpt><trkpt lat="37.659444309621385" lon="14.515118143340958"><ele>630.0</ele><time>2026-04-29T12:29:35Z</time></trkpt><trkpt lat="37.65953112301155" lon="14.515194197309714"><ele>630.0</ele><time>2026-04-29T12:29:36Z</time></trkpt><trkpt lat="37.65956932142556" lon="14.515321389393328"><ele>628.6</ele><time>2026-04-29T12:29:37Z</time></trkpt><trkpt lat="37.65959442055643" lon="14.515441939755931"><ele>627.2</ele><time>2026-04-29T12:29:38Z</time></trkpt><trkpt lat="37.65961442000804" lon="14.515574185434492"><ele>625.8</ele><time>2026-04-29T12:29:39Z</time></trkpt><trkpt lat="37.65955300853728" lon="14.515704232003642"><ele>624.4</ele><time>2026-04-29T12:29:40Z</time></trkpt><trkpt lat="37.65950265338469" lon="14.515842122031357"><ele>623.0</ele><time>2026-04-29T12:29:41Z</time></trkpt><trkpt lat="37.659452888468905" lon="14.515984080904953"><ele>623.0</ele><time>2026-04-29T12:29:42Z</time></trkpt><trkpt lat="37.6594048660746" lon="14.516121086977522"><ele>623.0</ele><time>2026-04-29T12:29:43Z</time></trkpt><trkpt lat="37.659357294964366" lon="14.51625680550789"><ele>623.0</ele><time>2026-04-29T12:29:44Z</time></trkpt><trkpt lat="37.659311161964446" lon="14.516391067938397"><ele>623.0</ele><time>2026-04-29T12:29:45Z</time></trkpt><trkpt lat="37.65926501842721" lon="14.516525082088055"><ele>621.5</ele><time>2026-04-29T12:29:46Z</time></trkpt><trkpt lat="37.65921913812758" lon="14.516658331714035"><ele>620.0</ele><time>2026-04-29T12:29:47Z</time></trkpt><trkpt lat="37.659173214082834" lon="14.51679170838975"><ele>618.5</ele><time>2026-04-29T12:29:48Z</time></trkpt><trkpt lat="37.65912582065633" lon="14.516925952558848"><ele>617.0</ele><time>2026-04-29T12:29:49Z</time></trkpt><trkpt lat="37.65908082559679" lon="14.517061367466278"><ele>616.25</ele><time>2026-04-29T12:29:50Z</time></trkpt><trkpt lat="37.65903587391929" lon="14.517196328429236"><ele>615.5</ele><time>2026-04-29T12:29:51Z</time></trkpt><trkpt lat="37.65899250303545" lon="14.517332220354625"><ele>614.75</ele><time>2026-04-29T12:29:52Z</time></trkpt><trkpt lat="37.65895555672071" lon="14.517469484786332"><ele>614.0</ele><time>2026-04-29T12:29:53Z</time></trkpt><trkpt lat="37.6589269410794" lon="14.51761578522144"><ele>614.0</ele><time>2026-04-29T12:29:54Z</time></trkpt><trkpt lat="37.65890567904681" lon="14.517770741608699"><ele>614.0</ele><time>2026-04-29T12:29:55Z</time></trkpt><trkpt lat="37.6588838308499" lon="14.517929067537361"><ele>614.0</ele><time>2026-04-29T12:29:56Z</time></trkpt><trkpt lat="37.658892505476096" lon="14.518104022419854"><ele>614.0</ele><time>2026-04-29T12:29:57Z</time></trkpt><trkpt lat="37.658870255083706" lon="14.518272463735022"><ele>613.25</ele><time>2026-04-29T12:29:58Z</time></trkpt><trkpt lat="37.65884918435668" lon="14.518447078242415"><ele>612.5</ele><time>2026-04-29T12:29:59Z</time></trkpt><trkpt lat="37.65882739716849" lon="14.518613378602488"><ele>611.75</ele><time>2026-04-29T12:30:00Z</time></trkpt><trkpt lat="37.6587722882353" lon="14.518776141918266"><ele>611.0</ele><time>2026-04-29T12:30:01.001Z</time></trkpt><trkpt lat="37.65875061675089" lon="14.51894643646684"><ele>610.0</ele><time>2026-04-29T12:30:02Z</time></trkpt><trkpt lat="37.65872892538386" lon="14.519117072043244"><ele>609.0</ele><time>2026-04-29T12:30:03Z</time></trkpt><trkpt lat="37.65870634794692" lon="14.51928428024857"><ele>608.0</ele><time>2026-04-29T12:30:04Z</time></trkpt><trkpt lat="37.65871257276568" lon="14.519457235596022"><ele>607.0</ele><time>2026-04-29T12:30:05Z</time></trkpt><trkpt lat="37.658689340389344" lon="14.51962371099863"><ele>605.75</ele><time>2026-04-29T12:30:06Z</time></trkpt><trkpt lat="37.6586669427114" lon="14.519790076218637"><ele>604.5</ele><time>2026-04-29T12:30:07Z</time></trkpt><trkpt lat="37.6586422578414" lon="14.519950828975656"><ele>603.25</ele><time>2026-04-29T12:30:08Z</time></trkpt><trkpt lat="37.65860436474907" lon="14.520103716165272"><ele>602.0</ele><time>2026-04-29T12:30:09Z</time></trkpt><trkpt lat="37.65850926540398" lon="14.520211993555582"><ele>605.25</ele><time>2026-04-29T12:30:10Z</time></trkpt><trkpt lat="37.65845238151782" lon="14.520343580309362"><ele>608.5</ele><time>2026-04-29T12:30:11Z</time></trkpt><trkpt lat="37.658392909402124" lon="14.520477245929397"><ele>611.75</ele><time>2026-04-29T12:30:12Z</time></trkpt><trkpt lat="37.658332895869975" lon="14.52061178176412"><ele>615.0</ele><time>2026-04-29T12:30:13Z</time></trkpt><trkpt lat="37.65827313020966" lon="14.520746682255508"><ele>615.0</ele><time>2026-04-29T12:30:14Z</time></trkpt><trkpt lat="37.65821686025369" lon="14.52088587741274"><ele>615.0</ele><time>2026-04-29T12:30:15Z</time></trkpt><trkpt lat="37.658166408533305" lon="14.52103504673285"><ele>615.0</ele><time>2026-04-29T12:30:16Z</time></trkpt><trkpt lat="37.65813375020731" lon="14.52119619970522"><ele>615.0</ele><time>2026-04-29T12:30:17Z</time></trkpt><trkpt lat="37.65812565382013" lon="14.52136182396218"><ele>614.0</ele><time>2026-04-29T12:30:18Z</time></trkpt><trkpt lat="37.65812253559682" lon="14.521523174870648"><ele>613.0</ele><time>2026-04-29T12:30:19Z</time></trkpt><trkpt lat="37.65812213344592" lon="14.5216858213543"><ele>612.0</ele><time>2026-04-29T12:30:20Z</time></trkpt><trkpt lat="37.658122133447435" lon="14.52184575119367"><ele>611.0</ele><time>2026-04-29T12:30:21Z</time></trkpt><trkpt lat="37.65811548045141" lon="14.521991909341196"><ele>609.5</ele><time>2026-04-29T12:30:22Z</time></trkpt><trkpt lat="37.658077978628775" lon="14.52212544547786"><ele>608.0</ele><time>2026-04-29T12:30:23Z</time></trkpt><trkpt lat="37.65802422161632" lon="14.522259585004159"><ele>606.5</ele><time>2026-04-29T12:30:24Z</time></trkpt><trkpt lat="37.65796684359113" lon="14.522397022363707"><ele>605.0</ele><time>2026-04-29T12:30:25Z</time></trkpt><trkpt lat="37.65790881019262" lon="14.52253153388507"><ele>605.0</ele><time>2026-04-29T12:30:26Z</time></trkpt><trkpt lat="37.657861082980446" lon="14.522652794685621"><ele>605.0</ele><time>2026-04-29T12:30:27Z</time></trkpt><trkpt lat="37.65782272561605" lon="14.522756024422709"><ele>605.0</ele><time>2026-04-29T12:30:28Z</time></trkpt><trkpt lat="37.65781901153796" lon="14.522863145699977"><ele>605.0</ele><time>2026-04-29T12:30:29Z</time></trkpt><trkpt lat="37.657796334905775" lon="14.522942706659851"><ele>605.0</ele><time>2026-04-29T12:30:30Z</time></trkpt><trkpt lat="37.657773481721456" lon="14.523068805495297"><ele>605.0</ele><time>2026-04-29T12:30:32Z</time></trkpt><trkpt lat="37.657777263720966" lon="14.523165896559643"><ele>605.0</ele><time>2026-04-29T12:30:35Z</time></trkpt><trkpt lat="37.65784629502194" lon="14.52320594094729"><ele>605.0</ele><time>2026-04-29T12:30:39Z</time></trkpt><trkpt lat="37.657891235964065" lon="14.523123215831676"><ele>605.0</ele><time>2026-04-29T12:31:17Z</time></trkpt><trkpt lat="37.657902150216735" lon="14.523035359557213"><ele>605.0</ele><time>2026-04-29T12:38:09.001Z</time></trkpt><trkpt lat="37.65785757428959" lon="14.522906130688968"><ele>605.0</ele><time>2026-04-29T12:38:11.001Z</time></trkpt><trkpt lat="37.65787001334276" lon="14.522803982306014"><ele>605.0</ele><time>2026-04-29T12:38:12.001Z</time></trkpt><trkpt lat="37.6579176924957" lon="14.522683999539543"><ele>605.0</ele><time>2026-04-29T12:38:13.001Z</time></trkpt><trkpt lat="37.65798103817297" lon="14.522553901264718"><ele>605.0</ele><time>2026-04-29T12:38:14.001Z</time></trkpt><trkpt lat="37.65803316927178" lon="14.522436123797446"><ele>605.0</ele><time>2026-04-29T12:38:15.001Z</time></trkpt><trkpt lat="37.658074461827134" lon="14.522324319317246"><ele>605.0</ele><time>2026-04-29T12:38:16.001Z</time></trkpt><trkpt lat="37.65811291426866" lon="14.522218010160863"><ele>605.0</ele><time>2026-04-29T12:38:17.001Z</time></trkpt><trkpt lat="37.65815114864699" lon="14.522116778230055"><ele>605.0</ele><time>2026-04-29T12:38:18.001Z</time></trkpt><trkpt lat="37.65818162265149" lon="14.522014238155196"><ele>605.0</ele><time>2026-04-29T12:38:19.001Z</time></trkpt><trkpt lat="37.658197975134996" lon="14.521910116672396"><ele>605.0</ele><time>2026-04-29T12:38:20.001Z</time></trkpt><trkpt lat="37.658198473084674" lon="14.521808012858603"><ele>605.0</ele><time>2026-04-29T12:38:21.001Z</time></trkpt><trkpt lat="37.65819165197947" lon="14.521712143882837"><ele>605.0</ele><time>2026-04-29T12:38:22.001Z</time></trkpt><trkpt lat="37.65818682203343" lon="14.52162252673933"><ele>606.0</ele><time>2026-04-29T12:38:23.001Z</time></trkpt><trkpt lat="37.65818863596673" lon="14.521528552226354"><ele>607.0</ele><time>2026-04-29T12:38:24.001Z</time></trkpt><trkpt lat="37.65819221201956" lon="14.521408944483534"><ele>608.0</ele><time>2026-04-29T12:38:25.001Z</time></trkpt><trkpt lat="37.65819839564245" lon="14.521287757781984"><ele>609.0</ele><time>2026-04-29T12:38:26Z</time></trkpt><trkpt lat="37.658207022994496" lon="14.521178198801927"><ele>610.0</ele><time>2026-04-29T12:38:27Z</time></trkpt><trkpt lat="37.65821902557297" lon="14.521077605431064"><ele>611.0</ele><time>2026-04-29T12:38:28Z</time></trkpt><trkpt lat="37.65824458917844" lon="14.520984834291006"><ele>611.8</ele><time>2026-04-29T12:38:29Z</time></trkpt><trkpt lat="37.65827186782497" lon="14.52089548104652"><ele>612.6</ele><time>2026-04-29T12:38:30Z</time></trkpt><trkpt lat="37.65829762925213" lon="14.520809634440804"><ele>613.4</ele><time>2026-04-29T12:38:31Z</time></trkpt><trkpt lat="37.658335432195294" lon="14.520716393201802"><ele>614.2</ele><time>2026-04-29T12:38:32Z</time></trkpt><trkpt lat="37.65838834207081" lon="14.520600825326243"><ele>615.0</ele><time>2026-04-29T12:38:33Z</time></trkpt><trkpt lat="37.65845521726092" lon="14.520457454890698"><ele>615.0</ele><time>2026-04-29T12:38:34Z</time></trkpt><trkpt lat="37.658525031841535" lon="14.520297364619527"><ele>615.0</ele><time>2026-04-29T12:38:35Z</time></trkpt><trkpt lat="37.65859254546169" lon="14.5201333236987"><ele>615.0</ele><time>2026-04-29T12:38:36Z</time></trkpt><trkpt lat="37.65865042701138" lon="14.519950495375282"><ele>615.0</ele><time>2026-04-29T12:38:37Z</time></trkpt><trkpt lat="37.65868828051388" lon="14.519754243517596"><ele>612.3333333333334</ele><time>2026-04-29T12:38:38Z</time></trkpt><trkpt lat="37.658715445947884" lon="14.519545220160353"><ele>609.6666666666667</ele><time>2026-04-29T12:38:39Z</time></trkpt><trkpt lat="37.65874081355861" lon="14.519326425976809"><ele>607.0</ele><time>2026-04-29T12:38:40Z</time></trkpt><trkpt lat="37.65877261798671" lon="14.519107563594423"><ele>607.0</ele><time>2026-04-29T12:38:41Z</time></trkpt><trkpt lat="37.65880852202601" lon="14.518888987674663"><ele>607.0</ele><time>2026-04-29T12:38:42Z</time></trkpt><trkpt lat="37.65884057732125" lon="14.518669982545047"><ele>607.0</ele><time>2026-04-29T12:38:43Z</time></trkpt><trkpt lat="37.65886806317254" lon="14.5184499175738"><ele>608.3333333333334</ele><time>2026-04-29T12:38:44Z</time></trkpt><trkpt lat="37.658890343048725" lon="14.518230904843122"><ele>609.6666666666666</ele><time>2026-04-29T12:38:45Z</time></trkpt><trkpt lat="37.65891265167482" lon="14.51803115406464"><ele>611.0</ele><time>2026-04-29T12:38:46Z</time></trkpt><trkpt lat="37.65893863992806" lon="14.517853713687407"><ele>611.75</ele><time>2026-04-29T12:38:47Z</time></trkpt><trkpt lat="37.65896853009012" lon="14.517681905743185"><ele>612.5</ele><time>2026-04-29T12:38:48Z</time></trkpt><trkpt lat="37.65900441745325" lon="14.51750804977248"><ele>613.25</ele><time>2026-04-29T12:38:49Z</time></trkpt><trkpt lat="37.65904914604082" lon="14.517335601508432"><ele>614.0</ele><time>2026-04-29T12:38:50Z</time></trkpt><trkpt lat="37.65910161595933" lon="14.517169262138488"><ele>615.0</ele><time>2026-04-29T12:38:51Z</time></trkpt><trkpt lat="37.659164113599076" lon="14.517004304980047"><ele>616.0</ele><time>2026-04-29T12:38:52Z</time></trkpt><trkpt lat="37.65923204418343" lon="14.516828521998015"><ele>617.0</ele><time>2026-04-29T12:38:53Z</time></trkpt><trkpt lat="37.65930107944923" lon="14.5166306232936"><ele>617.0</ele><time>2026-04-29T12:38:54Z</time></trkpt><trkpt lat="37.65936604516534" lon="14.516429229933216"><ele>617.0</ele><time>2026-04-29T12:38:55Z</time></trkpt><trkpt lat="37.659409477810684" lon="14.516279266750965"><ele>617.0</ele><time>2026-04-29T12:38:56Z</time></trkpt><trkpt lat="37.65944051994324" lon="14.516165007237316"><ele>617.0</ele><time>2026-04-29T12:38:58Z</time></trkpt><trkpt lat="37.65949366914964" lon="14.516097574495774"><ele>620.0</ele><time>2026-04-29T12:39:00Z</time></trkpt><trkpt lat="37.65941487449608" lon="14.516128520767028"><ele>623.0</ele><time>2026-04-29T12:39:05Z</time></trkpt><trkpt lat="37.65890846042692" lon="14.516068409783188"><ele>623.0</ele><time>2026-04-29T12:39:06Z</time></trkpt><trkpt lat="37.6588657465007" lon="14.51623023721805"><ele>623.0</ele><time>2026-04-29T12:39:07Z</time></trkpt><trkpt lat="37.658819425993926" lon="14.51640572814155"><ele>623.0</ele><time>2026-04-29T12:39:08Z</time></trkpt><trkpt lat="37.65878124034783" lon="14.516550399173802"><ele>623.0</ele><time>2026-04-29T12:39:09Z</time></trkpt><trkpt lat="37.65920268180236" lon="14.516830013695314"><ele>621.8</ele><time>2026-04-29T12:39:10Z</time></trkpt><trkpt lat="37.65912167758572" lon="14.516876234883023"><ele>620.5999999999999</ele><time>2026-04-29T12:39:12Z</time></trkpt><trkpt lat="37.65904576497697" lon="14.516832569420298"><ele>619.4000000000001</ele><time>2026-04-29T12:39:13Z</time></trkpt><trkpt lat="37.65896320619961" lon="14.516735397053068"><ele>618.2</ele><time>2026-04-29T12:39:14Z</time></trkpt><trkpt lat="37.65888584465174" lon="14.516645268589485"><ele>617.0</ele><time>2026-04-29T12:39:15Z</time></trkpt><trkpt lat="37.65881180981631" lon="14.51660108986292"><ele>617.0</ele><time>2026-04-29T12:39:16Z</time></trkpt><trkpt lat="37.65871086785116" lon="14.516575327768031"><ele>617.0</ele><time>2026-04-29T12:39:17Z</time></trkpt><trkpt lat="37.65858882679836" lon="14.516553263642017"><ele>617.0</ele><time>2026-04-29T12:39:18Z</time></trkpt><trkpt lat="37.658470723689796" lon="14.516544026418446"><ele>617.0</ele><time>2026-04-29T12:39:19Z</time></trkpt><trkpt lat="37.65837213787202" lon="14.516557353024046"><ele>617.0</ele><time>2026-04-29T12:39:20Z</time></trkpt><trkpt lat="37.658299817650125" lon="14.516581570905656"><ele>616.1666666666666</ele><time>2026-04-29T12:39:21Z</time></trkpt><trkpt lat="37.65823586235416" lon="14.516664066398882"><ele>615.3333333333333</ele><time>2026-04-29T12:39:22Z</time></trkpt><trkpt lat="37.658150091582094" lon="14.51674122632242"><ele>614.5</ele><time>2026-04-29T12:39:23Z</time></trkpt><trkpt lat="37.65808289357384" lon="14.516808373192593"><ele>613.6666666666666</ele><time>2026-04-29T12:39:25Z</time></trkpt><trkpt lat="37.65802252847442" lon="14.516847711911023"><ele>612.8333333333334</ele><time>2026-04-29T12:39:41Z</time></trkpt><trkpt lat="37.65798638109697" lon="14.516931981968916"><ele>612.0</ele><time>2026-04-29T12:39:44Z</time></trkpt><trkpt lat="37.65795029416725" lon="14.517024211340942"><ele>610.8333333333334</ele><time>2026-04-29T12:39:46Z</time></trkpt><trkpt lat="37.65791831444053" lon="14.517104667861712"><ele>609.6666666666666</ele><time>2026-04-29T12:39:48Z</time></trkpt><trkpt lat="37.65787569606079" lon="14.517182810996212"><ele>608.5</ele><time>2026-04-29T12:39:50Z</time></trkpt><trkpt lat="37.657828581151996" lon="14.517257643204417"><ele>607.3333333333333</ele><time>2026-04-29T12:39:52Z</time></trkpt><trkpt lat="37.65779216644294" lon="14.517360210113434"><ele>606.1666666666666</ele><time>2026-04-29T12:39:54Z</time></trkpt><trkpt lat="37.65774265837876" lon="14.517424719007936"><ele>605.0</ele><time>2026-04-29T12:39:56Z</time></trkpt><trkpt lat="37.657811120375435" lon="14.517363463404266"><ele>605.0</ele><time>2026-04-29T12:40:27Z</time></trkpt><trkpt lat="37.65784121122358" lon="14.517250905389854"><ele>605.0</ele><time>2026-04-29T12:40:28Z</time></trkpt><trkpt lat="37.65788126193166" lon="14.517138242189507"><ele>605.0</ele><time>2026-04-29T12:40:29Z</time></trkpt><trkpt lat="37.65792791007399" lon="14.51703788879548"><ele>605.0</ele><time>2026-04-29T12:40:30Z</time></trkpt><trkpt lat="37.65797083194825" lon="14.516954365582333"><ele>605.0</ele><time>2026-04-29T12:40:31Z</time></trkpt><trkpt lat="37.658026799020284" lon="14.516867615692666"><ele>605.0</ele><time>2026-04-29T12:40:33Z</time></trkpt><trkpt lat="37.65795456272013" lon="14.516985082295967"><ele>605.0</ele><time>2026-04-29T12:42:02Z</time></trkpt><trkpt lat="37.65792429793717" lon="14.51707134672033"><ele>605.0</ele><time>2026-04-29T12:42:03Z</time></trkpt><trkpt lat="37.65787933752223" lon="14.517136911477293"><ele>605.0</ele><time>2026-04-29T12:42:04Z</time></trkpt><trkpt lat="37.65782474948934" lon="14.517185544949127"><ele>605.0</ele><time>2026-04-29T12:42:05Z</time></trkpt><trkpt lat="37.65779110154601" lon="14.517254413142002"><ele>605.0</ele><time>2026-04-29T12:42:06Z</time></trkpt><trkpt lat="37.657759287317695" lon="14.517323504909475"><ele>604.5</ele><time>2026-04-29T12:42:07Z</time></trkpt><trkpt lat="37.65772199478628" lon="14.517426686381498"><ele>604.0</ele><time>2026-04-29T12:42:09Z</time></trkpt><trkpt lat="37.65765446236521" lon="14.517382782740711"><ele>603.5</ele><time>2026-04-29T12:42:11Z</time></trkpt><trkpt lat="37.6575859971577" lon="14.517329702583552"><ele>603.0</ele><time>2026-04-29T12:42:12Z</time></trkpt><trkpt lat="37.65751031054145" lon="14.517271023854383"><ele>602.5</ele><time>2026-04-29T12:42:13Z</time></trkpt><trkpt lat="37.657444025450275" lon="14.517220811003744"><ele>602.0</ele><time>2026-04-29T12:42:14Z</time></trkpt><trkpt lat="37.65738383283372" lon="14.517174882038503"><ele>602.0</ele><time>2026-04-29T12:42:15Z</time></trkpt><trkpt lat="37.65732897039422" lon="14.517133020264499"><ele>602.0</ele><time>2026-04-29T12:42:16Z</time></trkpt><trkpt lat="37.65724031839703" lon="14.51707776402206"><ele>602.0</ele><time>2026-04-29T12:42:18Z</time></trkpt><trkpt lat="37.657184598982184" lon="14.517035532617049"><ele>602.0</ele><time>2026-04-29T12:42:20Z</time></trkpt><trkpt lat="37.65713356589699" lon="14.5169817318625"><ele>602.0</ele><time>2026-04-29T12:42:23Z</time></trkpt><trkpt lat="37.65706368138788" lon="14.51688953358968"><ele>602.0</ele><time>2026-04-29T12:42:39Z</time></trkpt><trkpt lat="37.657009582845085" lon="14.516838732296016"><ele>601.0</ele><time>2026-04-29T12:42:40Z</time></trkpt><trkpt lat="37.65694783544355" lon="14.51682048528423"><ele>600.0</ele><time>2026-04-29T12:42:41Z</time></trkpt><trkpt lat="37.656829118715976" lon="14.516799730386943"><ele>599.0</ele><time>2026-04-29T12:42:43Z</time></trkpt><trkpt lat="37.65676551203808" lon="14.516789844737335"><ele>598.0</ele><time>2026-04-29T12:42:44Z</time></trkpt><trkpt lat="37.65664782471885" lon="14.516748061981765"><ele>597.0</ele><time>2026-04-29T12:42:46Z</time></trkpt><trkpt lat="37.65653585562262" lon="14.516716974281884"><ele>597.0</ele><time>2026-04-29T12:42:48Z</time></trkpt><trkpt lat="37.65645394308757" lon="14.51667770920508"><ele>597.0</ele><time>2026-04-29T12:42:51Z</time></trkpt><trkpt lat="37.65637124376536" lon="14.51664381707074"><ele>597.0</ele><time>2026-04-29T12:42:53Z</time></trkpt><trkpt lat="37.65625858702132" lon="14.51661066121096"><ele>597.0</ele><time>2026-04-29T12:42:55Z</time></trkpt><trkpt lat="37.656161739515525" lon="14.516575720236109"><ele>597.0</ele><time>2026-04-29T12:42:57Z</time></trkpt><trkpt lat="37.65606947582279" lon="14.516530890735321"><ele>596.6</ele><time>2026-04-29T12:42:59Z</time></trkpt><trkpt lat="37.65594750113782" lon="14.516499234372487"><ele>596.2</ele><time>2026-04-29T12:43:01Z</time></trkpt><trkpt lat="37.6558847359964" lon="14.516491652484806"><ele>595.8</ele><time>2026-04-29T12:43:02Z</time></trkpt><trkpt lat="37.655820720453164" lon="14.51649414653596"><ele>595.4</ele><time>2026-04-29T12:43:03Z</time></trkpt><trkpt lat="37.655705324277385" lon="14.516475003522116"><ele>595.0</ele><time>2026-04-29T12:43:05Z</time></trkpt><trkpt lat="37.65562374566257" lon="14.516485806986383"><ele>595.0</ele><time>2026-04-29T12:43:07Z</time></trkpt><trkpt lat="37.65551193879331" lon="14.516514450878487"><ele>595.0</ele><time>2026-04-29T12:43:09Z</time></trkpt><trkpt lat="37.655445894337866" lon="14.51654871279409"><ele>595.0</ele><time>2026-04-29T12:43:10Z</time></trkpt><trkpt lat="37.65539399536652" lon="14.516606613929369"><ele>595.0</ele><time>2026-04-29T12:43:11Z</time></trkpt><trkpt lat="37.65533921910977" lon="14.516649577348462"><ele>595.0</ele><time>2026-04-29T12:43:12Z</time></trkpt><trkpt lat="37.65528230203124" lon="14.516688942447223"><ele>595.0</ele><time>2026-04-29T12:43:13Z</time></trkpt><trkpt lat="37.65520244878928" lon="14.516790160364058"><ele>595.5</ele><time>2026-04-29T12:43:15Z</time></trkpt><trkpt lat="37.65512479883119" lon="14.516885777914633"><ele>596.0</ele><time>2026-04-29T12:43:17Z</time></trkpt><trkpt lat="37.655058458688096" lon="14.516986616487696"><ele>596.5</ele><time>2026-04-29T12:43:19Z</time></trkpt><trkpt lat="37.65501427583377" lon="14.517047513773935"><ele>597.0</ele><time>2026-04-29T12:43:20Z</time></trkpt><trkpt lat="37.654970140484764" lon="14.517109362906446"><ele>597.5</ele><time>2026-04-29T12:43:21Z</time></trkpt><trkpt lat="37.6549270388067" lon="14.517171856345128"><ele>598.0</ele><time>2026-04-29T12:43:22Z</time></trkpt><trkpt lat="37.6548958064508" lon="14.517278205937128"><ele>598.0</ele><time>2026-04-29T12:43:23Z</time></trkpt><trkpt lat="37.654835130540626" lon="14.51736889009894"><ele>598.0</ele><time>2026-04-29T12:43:24Z</time></trkpt><trkpt lat="37.65477669993447" lon="14.517453915326296"><ele>598.0</ele><time>2026-04-29T12:43:25Z</time></trkpt><trkpt lat="37.65472695058767" lon="14.517520972767922"><ele>598.0</ele><time>2026-04-29T12:43:26Z</time></trkpt><trkpt lat="37.65465069272598" lon="14.517557161298283"><ele>598.0</ele><time>2026-04-29T12:43:27Z</time></trkpt><trkpt lat="37.65459241731538" lon="14.517630880322946"><ele>598.0</ele><time>2026-04-29T12:43:28Z</time></trkpt><trkpt lat="37.654536865073695" lon="14.517707602562096"><ele>598.0</ele><time>2026-04-29T12:43:29Z</time></trkpt><trkpt lat="37.65448782133861" lon="14.517784220346487"><ele>598.0</ele><time>2026-04-29T12:43:30Z</time></trkpt><trkpt lat="37.65441924597212" lon="14.517891351108013"><ele>598.0</ele><time>2026-04-29T12:43:32Z</time></trkpt><trkpt lat="37.654350218775846" lon="14.517938924553"><ele>598.0</ele><time>2026-04-29T12:43:35Z</time></trkpt><trkpt lat="37.65429129772708" lon="14.517841378429635"><ele>598.0</ele><time>2026-04-29T12:43:37Z</time></trkpt><trkpt lat="37.654211120997964" lon="14.517805310056529"><ele>598.0</ele><time>2026-04-29T12:43:39Z</time></trkpt><trkpt lat="37.654134772370774" lon="14.5177957167476"><ele>597.5</ele><time>2026-04-29T12:43:40Z</time></trkpt><trkpt lat="37.654051412607735" lon="14.517853928450243"><ele>597.0</ele><time>2026-04-29T12:43:41Z</time></trkpt><trkpt lat="37.6539760512084" lon="14.517895190471501"><ele>596.5</ele><time>2026-04-29T12:43:42Z</time></trkpt><trkpt lat="37.65389504762317" lon="14.517927906897242"><ele>596.0</ele><time>2026-04-29T12:43:43Z</time></trkpt><trkpt lat="37.653820859315225" lon="14.517976371412011"><ele>595.5</ele><time>2026-04-29T12:43:44Z</time></trkpt><trkpt lat="37.65374671144922" lon="14.518002671494818"><ele>595.0</ele><time>2026-04-29T12:43:45Z</time></trkpt><trkpt lat="37.653681797768876" lon="14.518032981733354"><ele>592.5</ele><time>2026-04-29T12:43:46Z</time></trkpt><trkpt lat="37.65361220360909" lon="14.51806486869847"><ele>590.0</ele><time>2026-04-29T12:43:47Z</time></trkpt><trkpt lat="37.653527085632156" lon="14.51807395939058"><ele>587.5</ele><time>2026-04-29T12:43:48Z</time></trkpt><trkpt lat="37.65343820653112" lon="14.518105174606184"><ele>585.0</ele><time>2026-04-29T12:43:49Z</time></trkpt><trkpt lat="37.653345809156406" lon="14.518149756048482"><ele>582.5</ele><time>2026-04-29T12:43:50Z</time></trkpt><trkpt lat="37.65325925272335" lon="14.518200412784651"><ele>580.0</ele><time>2026-04-29T12:43:51Z</time></trkpt><trkpt lat="37.65318287408521" lon="14.51824915327603"><ele>580.0</ele><time>2026-04-29T12:43:52Z</time></trkpt><trkpt lat="37.65311368077946" lon="14.518294616704244"><ele>580.0</ele><time>2026-04-29T12:43:53Z</time></trkpt><trkpt lat="37.65305132882111" lon="14.518335585024705"><ele>580.0</ele><time>2026-04-29T12:43:54Z</time></trkpt><trkpt lat="37.652986384555376" lon="14.518378256559679"><ele>580.0</ele><time>2026-04-29T12:43:55Z</time></trkpt><trkpt lat="37.65292353395831" lon="14.518445069849982"><ele>580.0</ele><time>2026-04-29T12:43:56Z</time></trkpt><trkpt lat="37.65285777708411" lon="14.518501332934957"><ele>580.0</ele><time>2026-04-29T12:43:57Z</time></trkpt><trkpt lat="37.65278624027214" lon="14.518552485556736"><ele>578.0</ele><time>2026-04-29T12:43:58Z</time></trkpt><trkpt lat="37.65270778602004" lon="14.518593454155312"><ele>576.0</ele><time>2026-04-29T12:43:59Z</time></trkpt><trkpt lat="37.65261750834324" lon="14.518632075179267"><ele>574.0</ele><time>2026-04-29T12:44:00Z</time></trkpt><trkpt lat="37.65251907137035" lon="14.51867578615055"><ele>572.0</ele><time>2026-04-29T12:44:01Z</time></trkpt><trkpt lat="37.65241985182626" lon="14.518717604236144"><ele>570.0</ele><time>2026-04-29T12:44:02Z</time></trkpt><trkpt lat="37.65232985650385" lon="14.51875374365916"><ele>567.3333333333334</ele><time>2026-04-29T12:44:03Z</time></trkpt><trkpt lat="37.6522462941571" lon="14.518782521255483"><ele>564.6666666666666</ele><time>2026-04-29T12:44:04Z</time></trkpt><trkpt lat="37.65215960100926" lon="14.518799481116602"><ele>562.0</ele><time>2026-04-29T12:44:05Z</time></trkpt><trkpt lat="37.652071229515556" lon="14.518793979018971"><ele>559.3333333333333</ele><time>2026-04-29T12:44:06Z</time></trkpt><trkpt lat="37.65197900072731" lon="14.518789741379186"><ele>556.6666666666666</ele><time>2026-04-29T12:44:07Z</time></trkpt><trkpt lat="37.651897686083096" lon="14.518796150386276"><ele>554.0</ele><time>2026-04-29T12:44:08Z</time></trkpt><trkpt lat="37.65182100670914" lon="14.518813762754673"><ele>552.8</ele><time>2026-04-29T12:44:09Z</time></trkpt><trkpt lat="37.651759496319535" lon="14.518843764225622"><ele>551.5999999999999</ele><time>2026-04-29T12:44:10Z</time></trkpt><trkpt lat="37.65164928363495" lon="14.518950662780096"><ele>550.4</ele><time>2026-04-29T12:44:12Z</time></trkpt><trkpt lat="37.65162347617827" lon="14.519057267374897"><ele>549.1999999999999</ele><time>2026-04-29T12:44:13Z</time></trkpt><trkpt lat="37.65164521872217" lon="14.51917055488778"><ele>548.0</ele><time>2026-04-29T12:44:14Z</time></trkpt><trkpt lat="37.65167313330651" lon="14.519259222963532"><ele>548.0</ele><time>2026-04-29T12:44:15Z</time></trkpt><trkpt lat="37.65170286466419" lon="14.519338415334138"><ele>548.0</ele><time>2026-04-29T12:44:16Z</time></trkpt><trkpt lat="37.651759975994125" lon="14.519409717359594"><ele>548.0</ele><time>2026-04-29T12:44:17Z</time></trkpt><trkpt lat="37.651923639457564" lon="14.519315729907236"><ele>548.0</ele><time>2026-04-29T12:44:19Z</time></trkpt><trkpt lat="37.65200392842049" lon="14.519258093920678"><ele>548.0</ele><time>2026-04-29T12:44:20Z</time></trkpt><trkpt lat="37.65208435945124" lon="14.519223787954866"><ele>549.1999999999999</ele><time>2026-04-29T12:44:21Z</time></trkpt><trkpt lat="37.65216526688055" lon="14.519279539353208"><ele>550.4</ele><time>2026-04-29T12:44:22Z</time></trkpt><trkpt lat="37.6522559903378" lon="14.519300980084548"><ele>551.5999999999999</ele><time>2026-04-29T12:44:23Z</time></trkpt><trkpt lat="37.652353319076155" lon="14.51932319431344"><ele>552.8</ele><time>2026-04-29T12:44:24Z</time></trkpt><trkpt lat="37.65244619406031" lon="14.51932630899695"><ele>554.0</ele><time>2026-04-29T12:44:25Z</time></trkpt><trkpt lat="37.652541275210694" lon="14.519344241369453"><ele>554.0</ele><time>2026-04-29T12:44:26Z</time></trkpt><trkpt lat="37.65263359908188" lon="14.51936267528521"><ele>554.0</ele><time>2026-04-29T12:44:27Z</time></trkpt><trkpt lat="37.65272487457845" lon="14.51937609055995"><ele>554.0</ele><time>2026-04-29T12:44:28Z</time></trkpt><trkpt lat="37.6528156335698" lon="14.519378808919459"><ele>554.0</ele><time>2026-04-29T12:44:29Z</time></trkpt><trkpt lat="37.65289501260677" lon="14.519397088996767"><ele>554.0</ele><time>2026-04-29T12:44:30Z</time></trkpt><trkpt lat="37.65299127119964" lon="14.519467167279581"><ele>551.8</ele><time>2026-04-29T12:44:32Z</time></trkpt><trkpt lat="37.652977036648004" lon="14.519575821709521"><ele>549.5999999999999</ele><time>2026-04-29T12:44:34Z</time></trkpt><trkpt lat="37.652851068434316" lon="14.519636299879801"><ele>547.4</ele><time>2026-04-29T12:44:36Z</time></trkpt><trkpt lat="37.65276714526272" lon="14.519703598572086"><ele>545.1999999999999</ele><time>2026-04-29T12:44:37Z</time></trkpt><trkpt lat="37.65265506382372" lon="14.519724381613623"><ele>543.0</ele><time>2026-04-29T12:44:38Z</time></trkpt><trkpt lat="37.6525572273713" lon="14.519790337504228"><ele>543.0</ele><time>2026-04-29T12:44:39Z</time></trkpt><trkpt lat="37.652473301005976" lon="14.519867316205952"><ele>543.0</ele><time>2026-04-29T12:44:40Z</time></trkpt><trkpt lat="37.65239492839765" lon="14.519939617442377"><ele>543.0</ele><time>2026-04-29T12:44:41Z</time></trkpt><trkpt lat="37.652314365844084" lon="14.520014853833366"><ele>543.0</ele><time>2026-04-29T12:44:42Z</time></trkpt><trkpt lat="37.652224044899825" lon="14.520099203467087"><ele>543.0</ele><time>2026-04-29T12:44:43Z</time></trkpt><trkpt lat="37.65212134569156" lon="14.520187489639367"><ele>543.0</ele><time>2026-04-29T12:44:44Z</time></trkpt><trkpt lat="37.65201370327361" lon="14.520282021733825"><ele>543.0</ele><time>2026-04-29T12:44:45Z</time></trkpt><trkpt lat="37.65188679650228" lon="14.520335444132938"><ele>543.0</ele><time>2026-04-29T12:44:46Z</time></trkpt><trkpt lat="37.65174870472163" lon="14.520356443817741"><ele>543.0</ele><time>2026-04-29T12:44:47Z</time></trkpt><trkpt lat="37.65160355862035" lon="14.52035273838718"><ele>541.0</ele><time>2026-04-29T12:44:48Z</time></trkpt><trkpt lat="37.651467612189904" lon="14.520346130752218"><ele>539.0</ele><time>2026-04-29T12:44:49Z</time></trkpt><trkpt lat="37.65134315301081" lon="14.520347817923433"><ele>537.0</ele><time>2026-04-29T12:44:50Z</time></trkpt><trkpt lat="37.65123740489264" lon="14.520354278885577"><ele>535.0</ele><time>2026-04-29T12:44:51Z</time></trkpt><trkpt lat="37.65114992699737" lon="14.520369145604374"><ele>533.0</ele><time>2026-04-29T12:44:52Z</time></trkpt><trkpt lat="37.65106010328453" lon="14.520409075147253"><ele>531.0</ele><time>2026-04-29T12:44:53Z</time></trkpt><trkpt lat="37.65097189548922" lon="14.520473352190676"><ele>529.0</ele><time>2026-04-29T12:44:54Z</time></trkpt><trkpt lat="37.65088767925956" lon="14.520548102815969"><ele>527.0</ele><time>2026-04-29T12:44:55Z</time></trkpt><trkpt lat="37.65080830634285" lon="14.520626394321882"><ele>525.0</ele><time>2026-04-29T12:44:56Z</time></trkpt><trkpt lat="37.65073591913406" lon="14.52070352705729"><ele>525.0</ele><time>2026-04-29T12:44:57Z</time></trkpt><trkpt lat="37.650664703554924" lon="14.520776649697032"><ele>525.0</ele><time>2026-04-29T12:44:58Z</time></trkpt><trkpt lat="37.650581089164156" lon="14.520838447998726"><ele>525.0</ele><time>2026-04-29T12:44:59Z</time></trkpt><trkpt lat="37.65052421774745" lon="14.52093519349837"><ele>525.0</ele><time>2026-04-29T12:45:00Z</time></trkpt><trkpt lat="37.650487348503326" lon="14.521051939369862"><ele>525.0</ele><time>2026-04-29T12:45:01Z</time></trkpt><trkpt lat="37.65047214257278" lon="14.52114138999649"><ele>528.4</ele><time>2026-04-29T12:45:02Z</time></trkpt><trkpt lat="37.650470244422515" lon="14.52124975732274"><ele>531.8</ele><time>2026-04-29T12:45:04Z</time></trkpt><trkpt lat="37.6504710669857" lon="14.521337907428771"><ele>535.2</ele><time>2026-04-29T12:45:06Z</time></trkpt><trkpt lat="37.6504744534331" lon="14.521443072064109"><ele>538.6</ele><time>2026-04-29T12:45:09Z</time></trkpt><trkpt lat="37.650477356688405" lon="14.521529489259047"><ele>542.0</ele><time>2026-04-29T12:45:24Z</time></trkpt><trkpt lat="37.650557170653016" lon="14.521369360889722"><ele>542.0</ele><time>2026-04-29T12:45:29Z</time></trkpt><trkpt lat="37.650540538174624" lon="14.521284175660595"><ele>542.0</ele><time>2026-04-29T12:45:30Z</time></trkpt><trkpt lat="37.65053687523367" lon="14.521178810838904"><ele>542.0</ele><time>2026-04-29T12:45:31Z</time></trkpt><trkpt lat="37.65055324919043" lon="14.52106072380713"><ele>542.0</ele><time>2026-04-29T12:45:32Z</time></trkpt><trkpt lat="37.65059677500054" lon="14.520938657743814"><ele>542.0</ele><time>2026-04-29T12:45:33Z</time></trkpt><trkpt lat="37.650661639202276" lon="14.520820930735683"><ele>537.75</ele><time>2026-04-29T12:45:34Z</time></trkpt><trkpt lat="37.65075757470904" lon="14.520713684445047"><ele>533.5</ele><time>2026-04-29T12:45:35Z</time></trkpt><trkpt lat="37.65086368846074" lon="14.520616417415274"><ele>529.25</ele><time>2026-04-29T12:45:36Z</time></trkpt><trkpt lat="37.65097180017887" lon="14.52053503884998"><ele>525.0</ele><time>2026-04-29T12:45:37Z</time></trkpt><trkpt lat="37.651076376922994" lon="14.520462073293391"><ele>527.0</ele><time>2026-04-29T12:45:38Z</time></trkpt><trkpt lat="37.65118142835873" lon="14.520411125366916"><ele>529.0</ele><time>2026-04-29T12:45:39Z</time></trkpt><trkpt lat="37.65129155153132" lon="14.520387850756233"><ele>531.0</ele><time>2026-04-29T12:45:40Z</time></trkpt><trkpt lat="37.65140307423853" lon="14.520384740879251"><ele>533.0</ele><time>2026-04-29T12:45:41Z</time></trkpt><trkpt lat="37.651514106703594" lon="14.52039090438738"><ele>535.0</ele><time>2026-04-29T12:45:42Z</time></trkpt><trkpt lat="37.65160950458399" lon="14.520395337639238"><ele>535.0</ele><time>2026-04-29T12:45:43Z</time></trkpt><trkpt lat="37.65168417353413" lon="14.520390871725928"><ele>535.0</ele><time>2026-04-29T12:45:44Z</time></trkpt><trkpt lat="37.65177255759541" lon="14.520388699253834"><ele>535.0</ele><time>2026-04-29T12:45:46Z</time></trkpt><trkpt lat="37.651776330346365" lon="14.520263914468318"><ele>535.0</ele><time>2026-04-29T12:45:51Z</time></trkpt><trkpt lat="37.65163500481108" lon="14.520246781343571"><ele>535.0</ele><time>2026-04-29T12:45:53Z</time></trkpt><trkpt lat="37.651531599019386" lon="14.52022366659741"><ele>535.0</ele><time>2026-04-29T12:45:54Z</time></trkpt><trkpt lat="37.6514313158282" lon="14.520209963406685"><ele>535.0</ele><time>2026-04-29T12:45:55Z</time></trkpt><trkpt lat="37.65131359422328" lon="14.520223141808247"><ele>535.0</ele><time>2026-04-29T12:45:56Z</time></trkpt><trkpt lat="37.651195640115596" lon="14.52022176279416"><ele>535.0</ele><time>2026-04-29T12:45:57Z</time></trkpt><trkpt lat="37.65109359992406" lon="14.520224457847066"><ele>535.0</ele><time>2026-04-29T12:45:58Z</time></trkpt><trkpt lat="37.6510036634084" lon="14.520233025701742"><ele>533.0</ele><time>2026-04-29T12:45:59Z</time></trkpt><trkpt lat="37.65092600753435" lon="14.520250632307421"><ele>531.0</ele><time>2026-04-29T12:46:00Z</time></trkpt><trkpt lat="37.6508563829616" lon="14.520337058087446"><ele>529.0</ele><time>2026-04-29T12:46:01Z</time></trkpt><trkpt lat="37.65078439913943" lon="14.520400978828418"><ele>527.0</ele><time>2026-04-29T12:46:02Z</time></trkpt><trkpt lat="37.65069425921135" lon="14.520443514263334"><ele>525.0</ele><time>2026-04-29T12:46:03Z</time></trkpt><trkpt lat="37.65058553522954" lon="14.52050092274958"><ele>525.0</ele><time>2026-04-29T12:46:04Z</time></trkpt><trkpt lat="37.65048309461781" lon="14.52056339561098"><ele>525.0</ele><time>2026-04-29T12:46:05Z</time></trkpt><trkpt lat="37.650386835765424" lon="14.520643409886798"><ele>525.0</ele><time>2026-04-29T12:46:06Z</time></trkpt><trkpt lat="37.6503155461956" lon="14.52072837149095"><ele>525.0</ele><time>2026-04-29T12:46:07Z</time></trkpt><trkpt lat="37.65026753825839" lon="14.520821108970694"><ele>525.0</ele><time>2026-04-29T12:46:08Z</time></trkpt><trkpt lat="37.65026258955786" lon="14.520974230195103"><ele>521.6</ele><time>2026-04-29T12:46:09Z</time></trkpt><trkpt lat="37.65026525985335" lon="14.52112794894096"><ele>518.2</ele><time>2026-04-29T12:46:10Z</time></trkpt><trkpt lat="37.65026457638455" lon="14.52125924551536"><ele>514.8</ele><time>2026-04-29T12:46:11Z</time></trkpt><trkpt lat="37.65024339168664" lon="14.521355545076268"><ele>511.4</ele><time>2026-04-29T12:46:12Z</time></trkpt><trkpt lat="37.650214406622375" lon="14.521462524595353"><ele>508.0</ele><time>2026-04-29T12:46:13Z</time></trkpt><trkpt lat="37.650174472112106" lon="14.52155317657879"><ele>507.6666666666667</ele><time>2026-04-29T12:46:14Z</time></trkpt><trkpt lat="37.650112340790535" lon="14.52161266742296"><ele>507.33333333333337</ele><time>2026-04-29T12:46:15Z</time></trkpt><trkpt lat="37.65004314090676" lon="14.521701330865788"><ele>507.0</ele><time>2026-04-29T12:46:16Z</time></trkpt><trkpt lat="37.64998440677265" lon="14.521784394010455"><ele>506.66666666666663</ele><time>2026-04-29T12:46:17Z</time></trkpt><trkpt lat="37.649926469865726" lon="14.521868553799743"><ele>506.3333333333333</ele><time>2026-04-29T12:46:18Z</time></trkpt><trkpt lat="37.64987059515979" lon="14.521949718017682"><ele>506.0</ele><time>2026-04-29T12:46:19Z</time></trkpt><trkpt lat="37.6498229264046" lon="14.52202133218931"><ele>506.0</ele><time>2026-04-29T12:46:20Z</time></trkpt><trkpt lat="37.64976169560323" lon="14.522102414437349"><ele>506.0</ele><time>2026-04-29T12:46:22Z</time></trkpt><trkpt lat="37.6497899209406" lon="14.52196466372716"><ele>506.0</ele><time>2026-04-29T12:46:27Z</time></trkpt><trkpt lat="37.64985001688442" lon="14.521861134429775"><ele>506.0</ele><time>2026-04-29T12:46:28Z</time></trkpt><trkpt lat="37.64988285793606" lon="14.521769594237751"><ele>506.0</ele><time>2026-04-29T12:46:29Z</time></trkpt><trkpt lat="37.64989567234765" lon="14.521641920318086"><ele>506.0</ele><time>2026-04-29T12:46:31Z</time></trkpt><trkpt lat="37.649841703861824" lon="14.521576844942526"><ele>506.0</ele><time>2026-04-29T12:46:33Z</time></trkpt><trkpt lat="37.64975435243299" lon="14.521531815861527"><ele>506.0</ele><time>2026-04-29T12:46:35Z</time></trkpt><trkpt lat="37.649661406566516" lon="14.521543966760857"><ele>506.0</ele><time>2026-04-29T12:46:37Z</time></trkpt><trkpt lat="37.64958549406949" lon="14.521633551821552"><ele>506.0</ele><time>2026-04-29T12:46:38Z</time></trkpt><trkpt lat="37.64950330568018" lon="14.521722869140355"><ele>507.25</ele><time>2026-04-29T12:46:39Z</time></trkpt><trkpt lat="37.649413726411865" lon="14.521787993683894"><ele>508.5</ele><time>2026-04-29T12:46:40Z</time></trkpt><trkpt lat="37.64932508257743" lon="14.521864743842558"><ele>509.75</ele><time>2026-04-29T12:46:41Z</time></trkpt><trkpt lat="37.64923793236935" lon="14.52195442525747"><ele>511.0</ele><time>2026-04-29T12:46:42Z</time></trkpt><trkpt lat="37.64913587505398" lon="14.52204940159617"><ele>505.6</ele><time>2026-04-29T12:46:43Z</time></trkpt><trkpt lat="37.64904224021747" lon="14.522135503747599"><ele>500.20000000000005</ele><time>2026-04-29T12:46:44Z</time></trkpt><trkpt lat="37.64896783229063" lon="14.52221163381978"><ele>494.79999999999995</ele><time>2026-04-29T12:46:45Z</time></trkpt><trkpt lat="37.64891172792094" lon="14.522279613894542"><ele>489.4</ele><time>2026-04-29T12:46:46Z</time></trkpt><trkpt lat="37.64885416590955" lon="14.522347580137902"><ele>484.0</ele><time>2026-04-29T12:46:47Z</time></trkpt><trkpt lat="37.64877337496679" lon="14.522434973131322"><ele>484.0</ele><time>2026-04-29T12:46:48Z</time></trkpt><trkpt lat="37.6486869625606" lon="14.52252635600223"><ele>484.0</ele><time>2026-04-29T12:46:49Z</time></trkpt><trkpt lat="37.64861491833946" lon="14.522602544223858"><ele>484.0</ele><time>2026-04-29T12:46:50Z</time></trkpt><trkpt lat="37.64853336463905" lon="14.522683897033426"><ele>484.0</ele><time>2026-04-29T12:46:51Z</time></trkpt><trkpt lat="37.648436226369085" lon="14.522774866212448"><ele>484.0</ele><time>2026-04-29T12:46:52Z</time></trkpt><trkpt lat="37.64833961742124" lon="14.522858182725212"><ele>484.50000000000006</ele><time>2026-04-29T12:46:53Z</time></trkpt><trkpt lat="37.64826243078459" lon="14.522914987543517"><ele>485.0</ele><time>2026-04-29T12:46:54Z</time></trkpt><trkpt lat="37.64818858727456" lon="14.52296171628792"><ele>485.5</ele><time>2026-04-29T12:46:55Z</time></trkpt><trkpt lat="37.64812139069642" lon="14.522994171760741"><ele>486.0</ele><time>2026-04-29T12:46:56Z</time></trkpt><trkpt lat="37.648055264369624" lon="14.523004757387055"><ele>486.50000000000006</ele><time>2026-04-29T12:46:57Z</time></trkpt><trkpt lat="37.647956568592136" lon="14.522984792629687"><ele>487.0</ele><time>2026-04-29T12:46:58Z</time></trkpt><trkpt lat="37.64783944534996" lon="14.522942892723945"><ele>488.6</ele><time>2026-04-29T12:46:59Z</time></trkpt><trkpt lat="37.647730513033224" lon="14.522915266418734"><ele>490.20000000000005</ele><time>2026-04-29T12:47:00Z</time></trkpt><trkpt lat="37.647647810246596" lon="14.52286247008761"><ele>491.8</ele><time>2026-04-29T12:47:01Z</time></trkpt><trkpt lat="37.64757959667553" lon="14.522797245122494"><ele>493.4</ele><time>2026-04-29T12:47:02Z</time></trkpt><trkpt lat="37.64751147110271" lon="14.522689414266242"><ele>495.0</ele><time>2026-04-29T12:47:03Z</time></trkpt><trkpt lat="37.64743425069185" lon="14.522571580316871"><ele>496.2</ele><time>2026-04-29T12:47:04Z</time></trkpt><trkpt lat="37.64735918389445" lon="14.522481575600612"><ele>497.4</ele><time>2026-04-29T12:47:05Z</time></trkpt><trkpt lat="37.64728805556644" lon="14.522406854447183"><ele>498.6</ele><time>2026-04-29T12:47:06Z</time></trkpt><trkpt lat="37.64721278441538" lon="14.522336228514206"><ele>499.8</ele><time>2026-04-29T12:47:07Z</time></trkpt><trkpt lat="37.64713529245829" lon="14.522266208859042"><ele>501.0</ele><time>2026-04-29T12:47:08Z</time></trkpt><trkpt lat="37.64705830010875" lon="14.522194634190935"><ele>501.0</ele><time>2026-04-29T12:47:09Z</time></trkpt><trkpt lat="37.646982051064526" lon="14.522126124545185"><ele>501.0</ele><time>2026-04-29T12:47:10Z</time></trkpt><trkpt lat="37.646906402959786" lon="14.5220558094038"><ele>501.0</ele><time>2026-04-29T12:47:11Z</time></trkpt><trkpt lat="37.64682830675163" lon="14.521979795048878"><ele>501.0</ele><time>2026-04-29T12:47:12Z</time></trkpt><trkpt lat="37.64674467029202" lon="14.521911329610264"><ele>501.0</ele><time>2026-04-29T12:47:13Z</time></trkpt><trkpt lat="37.646665284581005" lon="14.521851103419612"><ele>497.4</ele><time>2026-04-29T12:47:14Z</time></trkpt><trkpt lat="37.64659586500431" lon="14.521778764045349"><ele>493.8</ele><time>2026-04-29T12:47:15Z</time></trkpt><trkpt lat="37.64653503184605" lon="14.521687506545826"><ele>490.19999999999993</ele><time>2026-04-29T12:47:16Z</time></trkpt><trkpt lat="37.64647587184988" lon="14.521604341569253"><ele>486.59999999999997</ele><time>2026-04-29T12:47:17Z</time></trkpt><trkpt lat="37.646397688920544" lon="14.52152344468849"><ele>483.0</ele><time>2026-04-29T12:47:18Z</time></trkpt><trkpt lat="37.646285581393066" lon="14.521459455648149"><ele>483.0</ele><time>2026-04-29T12:47:19Z</time></trkpt><trkpt lat="37.646181168218995" lon="14.521397064131829"><ele>483.0</ele><time>2026-04-29T12:47:20Z</time></trkpt><trkpt lat="37.64607853654706" lon="14.521327866166759"><ele>483.0</ele><time>2026-04-29T12:47:21Z</time></trkpt><trkpt lat="37.645968869527316" lon="14.521254691744492"><ele>483.0</ele><time>2026-04-29T12:47:22Z</time></trkpt><trkpt lat="37.64585625602143" lon="14.52118019459532"><ele>479.5</ele><time>2026-04-29T12:47:23Z</time></trkpt><trkpt lat="37.64572962098268" lon="14.521097700406045"><ele>476.0</ele><time>2026-04-29T12:47:24Z</time></trkpt><trkpt lat="37.64558935411275" lon="14.521025083752168"><ele>472.5</ele><time>2026-04-29T12:47:25Z</time></trkpt><trkpt lat="37.645453210641286" lon="14.520949970799986"><ele>469.0</ele><time>2026-04-29T12:47:26Z</time></trkpt><trkpt lat="37.64532436984337" lon="14.520884644857599"><ele>467.5</ele><time>2026-04-29T12:47:27Z</time></trkpt><trkpt lat="37.64520731692926" lon="14.520814313179217"><ele>466.0</ele><time>2026-04-29T12:47:28Z</time></trkpt><trkpt lat="37.645087380612495" lon="14.52076367670692"><ele>464.5</ele><time>2026-04-29T12:47:29Z</time></trkpt><trkpt lat="37.64497137672472" lon="14.520721866835505"><ele>463.0</ele><time>2026-04-29T12:47:30Z</time></trkpt><trkpt lat="37.64487927135576" lon="14.520688622357904"><ele>463.0</ele><time>2026-04-29T12:47:31Z</time></trkpt><trkpt lat="37.6447938169373" lon="14.520654341900274"><ele>462.99999999999994</ele><time>2026-04-29T12:47:32Z</time></trkpt><trkpt lat="37.644693269996985" lon="14.520631887698608"><ele>462.99999999999994</ele><time>2026-04-29T12:47:33Z</time></trkpt><trkpt lat="37.644574341766635" lon="14.520603505966978"><ele>463.0</ele><time>2026-04-29T12:47:34Z</time></trkpt><trkpt lat="37.64444863336734" lon="14.52057507107077"><ele>463.0</ele><time>2026-04-29T12:47:35Z</time></trkpt><trkpt lat="37.64429797213709" lon="14.520559140254749"><ele>462.25</ele><time>2026-04-29T12:47:36Z</time></trkpt><trkpt lat="37.644162124684925" lon="14.520516249478655"><ele>461.5</ele><time>2026-04-29T12:47:37Z</time></trkpt><trkpt lat="37.644022622295985" lon="14.52046071807759"><ele>460.75</ele><time>2026-04-29T12:47:38Z</time></trkpt><trkpt lat="37.64387718300003" lon="14.52038312050276"><ele>460.0</ele><time>2026-04-29T12:47:39Z</time></trkpt><trkpt lat="37.643734414897835" lon="14.520299669388676"><ele>459.25</ele><time>2026-04-29T12:47:40Z</time></trkpt><trkpt lat="37.64359354434392" lon="14.520224682169657"><ele>458.5</ele><time>2026-04-29T12:47:41Z</time></trkpt><trkpt lat="37.643455182306845" lon="14.520159578892473"><ele>457.75</ele><time>2026-04-29T12:47:42Z</time></trkpt><trkpt lat="37.64332841652221" lon="14.5201060044876"><ele>457.0</ele><time>2026-04-29T12:47:43Z</time></trkpt><trkpt lat="37.643205993066644" lon="14.520056253203986"><ele>457.0</ele><time>2026-04-29T12:47:44Z</time></trkpt><trkpt lat="37.64309337293045" lon="14.520010223528335"><ele>457.0</ele><time>2026-04-29T12:47:45Z</time></trkpt><trkpt lat="37.64298246067563" lon="14.51995143274472"><ele>457.0</ele><time>2026-04-29T12:47:46Z</time></trkpt><trkpt lat="37.64287774615141" lon="14.519884366822964"><ele>457.0</ele><time>2026-04-29T12:47:47Z</time></trkpt><trkpt lat="37.64277901722963" lon="14.519826418539077"><ele>456.50000000000006</ele><time>2026-04-29T12:47:48Z</time></trkpt><trkpt lat="37.64268771535924" lon="14.519787353384489"><ele>456.0</ele><time>2026-04-29T12:47:49Z</time></trkpt><trkpt lat="37.64260493300439" lon="14.519763110629677"><ele>455.5</ele><time>2026-04-29T12:47:50Z</time></trkpt><trkpt lat="37.64251492243766" lon="14.519753270899058"><ele>455.0</ele><time>2026-04-29T12:47:51Z</time></trkpt><trkpt lat="37.64242485155975" lon="14.519747859802681"><ele>454.50000000000006</ele><time>2026-04-29T12:47:52Z</time></trkpt><trkpt lat="37.64236101378002" lon="14.519762806862797"><ele>454.0</ele><time>2026-04-29T12:47:53Z</time></trkpt><trkpt lat="37.642280152825215" lon="14.519766031276669"><ele>454.0</ele><time>2026-04-29T12:48:04Z</time></trkpt><trkpt lat="37.64214672407785" lon="14.519801691856227"><ele>454.0</ele><time>2026-04-29T12:48:06Z</time></trkpt><trkpt lat="37.64206163842565" lon="14.519832008636621"><ele>454.0</ele><time>2026-04-29T12:48:07Z</time></trkpt><trkpt lat="37.64194836600024" lon="14.519865514506112"><ele>454.0</ele><time>2026-04-29T12:48:09Z</time></trkpt><trkpt lat="37.6419066454526" lon="14.519981578972278"><ele>454.0</ele><time>2026-04-29T12:48:11Z</time></trkpt><trkpt lat="37.641874182870076" lon="14.52008159683442"><ele>453.6</ele><time>2026-04-29T12:48:13Z</time></trkpt><trkpt lat="37.641887117694935" lon="14.520216953078984"><ele>453.2</ele><time>2026-04-29T12:48:15Z</time></trkpt><trkpt lat="37.64183030225628" lon="14.52029086386197"><ele>452.80000000000007</ele><time>2026-04-29T12:48:19Z</time></trkpt><trkpt lat="37.64173706454682" lon="14.520202071464771"><ele>452.40000000000003</ele><time>2026-04-29T12:48:22Z</time></trkpt><trkpt lat="37.64164820770873" lon="14.520132831732216"><ele>452.0</ele><time>2026-04-29T12:48:24Z</time></trkpt><trkpt lat="37.641528281040515" lon="14.520109840098185"><ele>452.0</ele><time>2026-04-29T12:48:26Z</time></trkpt><trkpt lat="37.641446913163385" lon="14.520105069962119"><ele>452.00000000000006</ele><time>2026-04-29T12:48:27Z</time></trkpt><trkpt lat="37.641364779188926" lon="14.520106774263223"><ele>452.00000000000006</ele><time>2026-04-29T12:48:28Z</time></trkpt><trkpt lat="37.641273300307425" lon="14.520104045027079"><ele>452.0</ele><time>2026-04-29T12:48:29Z</time></trkpt><trkpt lat="37.641170560635594" lon="14.520104664652516"><ele>452.0</ele><time>2026-04-29T12:48:30Z</time></trkpt><trkpt lat="37.641061969122745" lon="14.520116313321942"><ele>450.75</ele><time>2026-04-29T12:48:31Z</time></trkpt><trkpt lat="37.640936066830456" lon="14.520123661764186"><ele>449.5</ele><time>2026-04-29T12:48:32Z</time></trkpt><trkpt lat="37.640796661394596" lon="14.520125916697722"><ele>448.25</ele><time>2026-04-29T12:48:33Z</time></trkpt><trkpt lat="37.640644305756666" lon="14.520137874329496"><ele>447.0</ele><time>2026-04-29T12:48:34Z</time></trkpt><trkpt lat="37.64048149362474" lon="14.520164486242962"><ele>447.0</ele><time>2026-04-29T12:48:35Z</time></trkpt><trkpt lat="37.640308207659395" lon="14.520186096592592"><ele>447.0</ele><time>2026-04-29T12:48:36Z</time></trkpt><trkpt lat="37.64013368485411" lon="14.520228061802772"><ele>447.0</ele><time>2026-04-29T12:48:37Z</time></trkpt><trkpt lat="37.639966405277434" lon="14.520267943249113"><ele>445.0</ele><time>2026-04-29T12:48:38Z</time></trkpt><trkpt lat="37.63980827384566" lon="14.520305643643608"><ele>443.0</ele><time>2026-04-29T12:48:39Z</time></trkpt><trkpt lat="37.63965626718239" lon="14.520342411311304"><ele>441.0</ele><time>2026-04-29T12:48:40Z</time></trkpt><trkpt lat="37.63950912703298" lon="14.52037936843406"><ele>440.0</ele><time>2026-04-29T12:48:41Z</time></trkpt><trkpt lat="37.63936401817612" lon="14.520416579569964"><ele>439.0</ele><time>2026-04-29T12:48:42Z</time></trkpt><trkpt lat="37.63921905247498" lon="14.520453593366483"><ele>438.0</ele><time>2026-04-29T12:48:43Z</time></trkpt><trkpt lat="37.63907704113798" lon="14.520489852824403"><ele>437.0</ele><time>2026-04-29T12:48:44Z</time></trkpt><trkpt lat="37.63894019994589" lon="14.520522375607872"><ele>437.0</ele><time>2026-04-29T12:48:45Z</time></trkpt><trkpt lat="37.63880871308799" lon="14.520554757279074"><ele>437.0</ele><time>2026-04-29T12:48:46Z</time></trkpt><trkpt lat="37.63867784476263" lon="14.520605939074386"><ele>437.0</ele><time>2026-04-29T12:48:47Z</time></trkpt><trkpt lat="37.6385512502812" lon="14.520681821179675"><ele>437.0</ele><time>2026-04-29T12:48:48Z</time></trkpt><trkpt lat="37.638417095072114" lon="14.520774071527512"><ele>435.3333333333333</ele><time>2026-04-29T12:48:49Z</time></trkpt><trkpt lat="37.63827458634367" lon="14.520885203124138"><ele>433.66666666666663</ele><time>2026-04-29T12:48:50Z</time></trkpt><trkpt lat="37.63813675504348" lon="14.52099535666327"><ele>432.0</ele><time>2026-04-29T12:48:51Z</time></trkpt><trkpt lat="37.63800187095711" lon="14.521097851597274"><ele>432.0</ele><time>2026-04-29T12:48:52Z</time></trkpt><trkpt lat="37.63786706699343" lon="14.521198495522196"><ele>432.0</ele><time>2026-04-29T12:48:53Z</time></trkpt><trkpt lat="37.63773014659161" lon="14.521300717870918"><ele>432.0</ele><time>2026-04-29T12:48:54Z</time></trkpt><trkpt lat="37.63758571472096" lon="14.521411212980379"><ele>429.66666666666663</ele><time>2026-04-29T12:48:55Z</time></trkpt><trkpt lat="37.63744744157068" lon="14.521514124093539"><ele>427.3333333333333</ele><time>2026-04-29T12:48:56Z</time></trkpt><trkpt lat="37.63731121079831" lon="14.521585482594652"><ele>425.0</ele><time>2026-04-29T12:48:57Z</time></trkpt><trkpt lat="37.637150185030876" lon="14.521622060287685"><ele>425.0</ele><time>2026-04-29T12:48:58Z</time></trkpt><trkpt lat="37.63698524736002" lon="14.521639069164193"><ele>425.0</ele><time>2026-04-29T12:48:59Z</time></trkpt><trkpt lat="37.636828047763906" lon="14.521649696077644"><ele>425.0</ele><time>2026-04-29T12:49:00Z</time></trkpt><trkpt lat="37.636660481829914" lon="14.521660676553633"><ele>424.0</ele><time>2026-04-29T12:49:01Z</time></trkpt><trkpt lat="37.63648775045848" lon="14.521671924550942"><ele>423.0</ele><time>2026-04-29T12:49:02Z</time></trkpt><trkpt lat="37.63631850031795" lon="14.521682945857012"><ele>422.0</ele><time>2026-04-29T12:49:03Z</time></trkpt><trkpt lat="37.63614829333678" lon="14.521694231716541"><ele>420.0</ele><time>2026-04-29T12:49:04Z</time></trkpt><trkpt lat="37.63597587590478" lon="14.52170783890374"><ele>418.0</ele><time>2026-04-29T12:49:05Z</time></trkpt><trkpt lat="37.635799918154945" lon="14.521721725493212"><ele>416.0</ele><time>2026-04-29T12:49:06Z</time></trkpt><trkpt lat="37.635624546533286" lon="14.521735565826383"><ele>416.0</ele><time>2026-04-29T12:49:07Z</time></trkpt><trkpt lat="37.63545955224257" lon="14.52174888244572"><ele>416.0</ele><time>2026-04-29T12:49:08Z</time></trkpt><trkpt lat="37.63529061932394" lon="14.521762612132735"><ele>416.0</ele><time>2026-04-29T12:49:09Z</time></trkpt><trkpt lat="37.63511421041456" lon="14.521774007391912"><ele>415.0</ele><time>2026-04-29T12:49:10Z</time></trkpt><trkpt lat="37.634939275718466" lon="14.521780241250571"><ele>414.0</ele><time>2026-04-29T12:49:11Z</time></trkpt><trkpt lat="37.63477872141431" lon="14.521783665991633"><ele>413.0</ele><time>2026-04-29T12:49:12Z</time></trkpt><trkpt lat="37.63463091408647" lon="14.521725103712203"><ele>413.0</ele><time>2026-04-29T12:49:13Z</time></trkpt><trkpt lat="37.634486773962045" lon="14.521647048029173"><ele>413.0</ele><time>2026-04-29T12:49:14Z</time></trkpt><trkpt lat="37.6343366379654" lon="14.521549007593558"><ele>413.0</ele><time>2026-04-29T12:49:15Z</time></trkpt><trkpt lat="37.6341854052703" lon="14.52144961076237"><ele>411.3333333333333</ele><time>2026-04-29T12:49:16Z</time></trkpt><trkpt lat="37.634032667554486" lon="14.521350158699756"><ele>409.66666666666663</ele><time>2026-04-29T12:49:17Z</time></trkpt><trkpt lat="37.63388041141435" lon="14.52125482806603"><ele>408.0</ele><time>2026-04-29T12:49:18Z</time></trkpt><trkpt lat="37.63372812212085" lon="14.521157966059919"><ele>410.0</ele><time>2026-04-29T12:49:19Z</time></trkpt><trkpt lat="37.633577473005374" lon="14.521057968609316"><ele>412.0</ele><time>2026-04-29T12:49:20Z</time></trkpt><trkpt lat="37.6334309208949" lon="14.520959759112026"><ele>414.0</ele><time>2026-04-29T12:49:21Z</time></trkpt><trkpt lat="37.633287290601494" lon="14.520862854121802"><ele>414.0</ele><time>2026-04-29T12:49:22Z</time></trkpt><trkpt lat="37.63314838641062" lon="14.520771258568903"><ele>414.0</ele><time>2026-04-29T12:49:23Z</time></trkpt><trkpt lat="37.63301440878434" lon="14.520690625649307"><ele>414.0</ele><time>2026-04-29T12:49:24Z</time></trkpt><trkpt lat="37.632890099695636" lon="14.520614829386783"><ele>414.0</ele><time>2026-04-29T12:49:25Z</time></trkpt><trkpt lat="37.63276630430132" lon="14.520542815856816"><ele>415.0</ele><time>2026-04-29T12:49:26Z</time></trkpt><trkpt lat="37.6326242939693" lon="14.520499483292957"><ele>416.0</ele><time>2026-04-29T12:49:27Z</time></trkpt><trkpt lat="37.63247213293256" lon="14.520455421736957"><ele>417.0</ele><time>2026-04-29T12:49:28Z</time></trkpt><trkpt lat="37.6323053243047" lon="14.52046561058723"><ele>417.0</ele><time>2026-04-29T12:49:29Z</time></trkpt><trkpt lat="37.632132872277374" lon="14.520502982614275"><ele>417.0</ele><time>2026-04-29T12:49:30Z</time></trkpt><trkpt lat="37.63195611046171" lon="14.520557328456167"><ele>417.0</ele><time>2026-04-29T12:49:31Z</time></trkpt><trkpt lat="37.631778964542754" lon="14.520616398865345"><ele>416.0</ele><time>2026-04-29T12:49:32Z</time></trkpt><trkpt lat="37.631608290269874" lon="14.520675235600306"><ele>415.0</ele><time>2026-04-29T12:49:33Z</time></trkpt><trkpt lat="37.631445824555264" lon="14.520726447922687"><ele>414.0</ele><time>2026-04-29T12:49:34Z</time></trkpt><trkpt lat="37.63128440889912" lon="14.52078277282702"><ele>415.33333333333337</ele><time>2026-04-29T12:49:35Z</time></trkpt><trkpt lat="37.63112637727377" lon="14.520860344725005"><ele>416.6666666666667</ele><time>2026-04-29T12:49:36Z</time></trkpt><trkpt lat="37.6309653582862" lon="14.520947913938471"><ele>418.0</ele><time>2026-04-29T12:49:37Z</time></trkpt><trkpt lat="37.63080489157772" lon="14.521043494995126"><ele>418.0</ele><time>2026-04-29T12:49:38Z</time></trkpt><trkpt lat="37.630654178887696" lon="14.521138429028676"><ele>418.0</ele><time>2026-04-29T12:49:39Z</time></trkpt><trkpt lat="37.63051184450611" lon="14.521228085617212"><ele>418.0</ele><time>2026-04-29T12:49:40Z</time></trkpt><trkpt lat="37.630374441914974" lon="14.521310676775306"><ele>416.6666666666667</ele><time>2026-04-29T12:49:41Z</time></trkpt><trkpt lat="37.6302224446537" lon="14.52137979168725"><ele>415.33333333333337</ele><time>2026-04-29T12:49:42Z</time></trkpt><trkpt lat="37.63006227547686" lon="14.521420984648078"><ele>414.0</ele><time>2026-04-29T12:49:43Z</time></trkpt><trkpt lat="37.62990830015401" lon="14.52144328399252"><ele>414.0</ele><time>2026-04-29T12:49:44Z</time></trkpt><trkpt lat="37.62976402865621" lon="14.521472827511168"><ele>414.0</ele><time>2026-04-29T12:49:45Z</time></trkpt><trkpt lat="37.629640133950936" lon="14.52150590454393"><ele>414.0</ele><time>2026-04-29T12:49:46Z</time></trkpt><trkpt lat="37.62952798824617" lon="14.521487744545068"><ele>414.0</ele><time>2026-04-29T12:49:47Z</time></trkpt><trkpt lat="37.6294281113445" lon="14.521423226872862"><ele>413.5</ele><time>2026-04-29T12:49:48Z</time></trkpt><trkpt lat="37.629343547865794" lon="14.521308480621101"><ele>413.0</ele><time>2026-04-29T12:49:49Z</time></trkpt><trkpt lat="37.629267152429115" lon="14.521159251079997"><ele>412.5</ele><time>2026-04-29T12:49:50Z</time></trkpt><trkpt lat="37.62918364055777" lon="14.52099532490381"><ele>412.0</ele><time>2026-04-29T12:49:51Z</time></trkpt><trkpt lat="37.6290915065244" lon="14.520823586511932"><ele>416.0</ele><time>2026-04-29T12:49:52Z</time></trkpt><trkpt lat="37.62900282346494" lon="14.52065598391866"><ele>420.0</ele><time>2026-04-29T12:49:53Z</time></trkpt><trkpt lat="37.628914466264256" lon="14.520477406993583"><ele>424.0</ele><time>2026-04-29T12:49:54Z</time></trkpt><trkpt lat="37.628825978477074" lon="14.520294879251345"><ele>424.6666666666667</ele><time>2026-04-29T12:49:55Z</time></trkpt><trkpt lat="37.628733336515346" lon="14.520120047735455"><ele>425.33333333333337</ele><time>2026-04-29T12:49:56Z</time></trkpt><trkpt lat="37.62864384585691" lon="14.519948276424783"><ele>426.0</ele><time>2026-04-29T12:49:57Z</time></trkpt><trkpt lat="37.62855969871725" lon="14.519781456551964"><ele>424.66666666666663</ele><time>2026-04-29T12:49:58Z</time></trkpt><trkpt lat="37.628476086049076" lon="14.519619470233662"><ele>423.3333333333333</ele><time>2026-04-29T12:49:59Z</time></trkpt><trkpt lat="37.62838740107833" lon="14.519464787347115"><ele>422.0</ele><time>2026-04-29T12:50:00Z</time></trkpt><trkpt lat="37.62827246328343" lon="14.519335397525591"><ele>422.0</ele><time>2026-04-29T12:50:01Z</time></trkpt><trkpt lat="37.62813238143184" lon="14.51923966622954"><ele>422.0</ele><time>2026-04-29T12:50:02Z</time></trkpt><trkpt lat="37.62798048049007" lon="14.519174240053347"><ele>422.0</ele><time>2026-04-29T12:50:03Z</time></trkpt><trkpt lat="37.62783987946288" lon="14.519132229834934"><ele>422.75</ele><time>2026-04-29T12:50:04Z</time></trkpt><trkpt lat="37.62769829772608" lon="14.519121355125403"><ele>423.5</ele><time>2026-04-29T12:50:05Z</time></trkpt><trkpt lat="37.62755815357325" lon="14.519131873138504"><ele>424.25</ele><time>2026-04-29T12:50:06Z</time></trkpt><trkpt lat="37.62744117865271" lon="14.519105529223841"><ele>425.0</ele><time>2026-04-29T12:50:07Z</time></trkpt><trkpt lat="37.62735182700148" lon="14.519090504647046"><ele>424.99999999999994</ele><time>2026-04-29T12:50:08Z</time></trkpt><trkpt lat="37.627287145419885" lon="14.51905561117888"><ele>425.0</ele><time>2026-04-29T12:50:09Z</time></trkpt><trkpt lat="37.6272273393903" lon="14.519020406594096"><ele>425.0</ele><time>2026-04-29T12:50:10Z</time></trkpt><trkpt lat="37.627142602952134" lon="14.519060687304401"><ele>425.0</ele><time>2026-04-29T12:50:11Z</time></trkpt><trkpt lat="37.62702974580708" lon="14.519047162734347"><ele>424.99999999999994</ele><time>2026-04-29T12:50:13Z</time></trkpt><trkpt lat="37.62692081194871" lon="14.519039891093993"><ele>425.0</ele><time>2026-04-29T12:50:15Z</time></trkpt><trkpt lat="37.626849504878365" lon="14.51903726450253"><ele>423.8</ele><time>2026-04-29T12:50:16Z</time></trkpt><trkpt lat="37.62676458836802" lon="14.519022198726182"><ele>422.6</ele><time>2026-04-29T12:50:17Z</time></trkpt><trkpt lat="37.62666026733071" lon="14.519011165731467"><ele>421.4</ele><time>2026-04-29T12:50:18Z</time></trkpt><trkpt lat="37.62655102788707" lon="14.518963480717508"><ele>420.2</ele><time>2026-04-29T12:50:19Z</time></trkpt><trkpt lat="37.62643293677407" lon="14.51892336243866"><ele>419.0</ele><time>2026-04-29T12:50:20Z</time></trkpt><trkpt lat="37.62629799092416" lon="14.51888503272438"><ele>419.0</ele><time>2026-04-29T12:50:21Z</time></trkpt><trkpt lat="37.6261657050239" lon="14.51884228178845"><ele>419.0</ele><time>2026-04-29T12:50:22Z</time></trkpt><trkpt lat="37.62604368227236" lon="14.51879728968087"><ele>419.0</ele><time>2026-04-29T12:50:23Z</time></trkpt><trkpt lat="37.625922169438184" lon="14.518748484840367"><ele>419.0</ele><time>2026-04-29T12:50:24Z</time></trkpt><trkpt lat="37.625802582539855" lon="14.518711362527842"><ele>417.75</ele><time>2026-04-29T12:50:25Z</time></trkpt><trkpt lat="37.625675471085415" lon="14.51867110975481"><ele>416.5</ele><time>2026-04-29T12:50:26Z</time></trkpt><trkpt lat="37.625544325820975" lon="14.518683299726794"><ele>415.25</ele><time>2026-04-29T12:50:27Z</time></trkpt><trkpt lat="37.62543254971887" lon="14.518702535987877"><ele>414.0</ele><time>2026-04-29T12:50:28Z</time></trkpt><trkpt lat="37.62533161802705" lon="14.518725223892927"><ele>411.6</ele><time>2026-04-29T12:50:29Z</time></trkpt><trkpt lat="37.62523055118405" lon="14.518741936657605"><ele>409.2</ele><time>2026-04-29T12:50:30Z</time></trkpt><trkpt lat="37.62513694917421" lon="14.518749034743141"><ele>406.8</ele><time>2026-04-29T12:50:31Z</time></trkpt><trkpt lat="37.62504136918256" lon="14.518683875700559"><ele>404.40000000000003</ele><time>2026-04-29T12:50:32Z</time></trkpt><trkpt lat="37.62494831009741" lon="14.518592150718105"><ele>402.0</ele><time>2026-04-29T12:50:33Z</time></trkpt><trkpt lat="37.62484763518034" lon="14.518512440078911"><ele>402.0</ele><time>2026-04-29T12:50:34Z</time></trkpt><trkpt lat="37.62472956167522" lon="14.518452981849057"><ele>402.0</ele><time>2026-04-29T12:50:35Z</time></trkpt><trkpt lat="37.62460273559223" lon="14.518403386950908"><ele>402.0</ele><time>2026-04-29T12:50:36Z</time></trkpt><trkpt lat="37.62447893456814" lon="14.518389737117355"><ele>402.0</ele><time>2026-04-29T12:50:37Z</time></trkpt><trkpt lat="37.62436599727158" lon="14.518332649811674"><ele>401.25</ele><time>2026-04-29T12:50:38Z</time></trkpt><trkpt lat="37.6242350905566" lon="14.518329590047006"><ele>400.5</ele><time>2026-04-29T12:50:39Z</time></trkpt><trkpt lat="37.62410541113559" lon="14.51835001834272"><ele>399.75</ele><time>2026-04-29T12:50:40Z</time></trkpt><trkpt lat="37.62399290813954" lon="14.51837477736966"><ele>399.0</ele><time>2026-04-29T12:50:41Z</time></trkpt><trkpt lat="37.623891902168225" lon="14.518397174524543"><ele>399.0</ele><time>2026-04-29T12:50:42Z</time></trkpt><trkpt lat="37.6237901618719" lon="14.518421490809857"><ele>399.0</ele><time>2026-04-29T12:50:43Z</time></trkpt><trkpt lat="37.623691190015805" lon="14.518461246831725"><ele>399.0</ele><time>2026-04-29T12:50:44Z</time></trkpt><trkpt lat="37.623591928598444" lon="14.518484461811763"><ele>399.0</ele><time>2026-04-29T12:50:45Z</time></trkpt><trkpt lat="37.62348417660317" lon="14.518477686184891"><ele>399.0</ele><time>2026-04-29T12:50:46Z</time></trkpt><trkpt lat="37.623368127141546" lon="14.518470143187871"><ele>399.5</ele><time>2026-04-29T12:50:47Z</time></trkpt><trkpt lat="37.62325570032084" lon="14.518462072439974"><ele>400.0</ele><time>2026-04-29T12:50:48Z</time></trkpt><trkpt lat="37.623139154771096" lon="14.518457450292722"><ele>400.5</ele><time>2026-04-29T12:50:49Z</time></trkpt><trkpt lat="37.62301801853211" lon="14.518462798797893"><ele>401.0</ele><time>2026-04-29T12:50:50Z</time></trkpt><trkpt lat="37.622889222342465" lon="14.518471438807106"><ele>402.25</ele><time>2026-04-29T12:50:51Z</time></trkpt><trkpt lat="37.62276087124742" lon="14.518486407628856"><ele>403.5</ele><time>2026-04-29T12:50:52Z</time></trkpt><trkpt lat="37.62263744747569" lon="14.51851360747597"><ele>404.75</ele><time>2026-04-29T12:50:53Z</time></trkpt><trkpt lat="37.62253823514354" lon="14.51857197286246"><ele>406.0</ele><time>2026-04-29T12:50:54Z</time></trkpt><trkpt lat="37.62244432418912" lon="14.518631972341762"><ele>406.0</ele><time>2026-04-29T12:50:55Z</time></trkpt><trkpt lat="37.62234530649649" lon="14.518666892056919"><ele>406.0</ele><time>2026-04-29T12:50:56Z</time></trkpt><trkpt lat="37.62224380858291" lon="14.518674400273056"><ele>406.0</ele><time>2026-04-29T12:50:57Z</time></trkpt><trkpt lat="37.62212967621601" lon="14.518663385779202"><ele>406.0</ele><time>2026-04-29T12:50:58Z</time></trkpt><trkpt lat="37.62201177233485" lon="14.518672160828581"><ele>406.0</ele><time>2026-04-29T12:50:59Z</time></trkpt><trkpt lat="37.621891876505835" lon="14.518702531241884"><ele>402.25</ele><time>2026-04-29T12:51:00Z</time></trkpt><trkpt lat="37.621770121495686" lon="14.518752880071618"><ele>398.5</ele><time>2026-04-29T12:51:01Z</time></trkpt><trkpt lat="37.62165355711598" lon="14.518778104322738"><ele>394.75</ele><time>2026-04-29T12:51:02Z</time></trkpt><trkpt lat="37.62153933538578" lon="14.518782119519198"><ele>391.0</ele><time>2026-04-29T12:51:03Z</time></trkpt><trkpt lat="37.621430752301684" lon="14.518780055505456"><ele>391.0</ele><time>2026-04-29T12:51:04Z</time></trkpt><trkpt lat="37.62133441278205" lon="14.518787547529326"><ele>391.0</ele><time>2026-04-29T12:51:05Z</time></trkpt><trkpt lat="37.6212510502911" lon="14.518762693744957"><ele>391.0</ele><time>2026-04-29T12:51:06Z</time></trkpt><trkpt lat="37.62116498802718" lon="14.518719862311329"><ele>391.0</ele><time>2026-04-29T12:51:07Z</time></trkpt><trkpt lat="37.621072248602054" lon="14.518652964624692"><ele>391.0</ele><time>2026-04-29T12:51:08Z</time></trkpt><trkpt lat="37.620992803294754" lon="14.51856867866276"><ele>393.5</ele><time>2026-04-29T12:51:09Z</time></trkpt><trkpt lat="37.62091768868829" lon="14.51846467143756"><ele>396.0</ele><time>2026-04-29T12:51:10Z</time></trkpt><trkpt lat="37.62084074017076" lon="14.518340425762839"><ele>398.5</ele><time>2026-04-29T12:51:11Z</time></trkpt><trkpt lat="37.62074928450742" lon="14.518236343235085"><ele>401.0</ele><time>2026-04-29T12:51:12Z</time></trkpt><trkpt lat="37.62067641040548" lon="14.518128136356015"><ele>400.99999999999994</ele><time>2026-04-29T12:51:13Z</time></trkpt><trkpt lat="37.62059541093017" lon="14.518056216560614"><ele>401.0</ele><time>2026-04-29T12:51:14Z</time></trkpt><trkpt lat="37.62052360480346" lon="14.518002342529881"><ele>401.0</ele><time>2026-04-29T12:51:15Z</time></trkpt><trkpt lat="37.620451461392726" lon="14.517964073542668"><ele>401.0</ele><time>2026-04-29T12:51:16Z</time></trkpt><trkpt lat="37.620384730092226" lon="14.517947249968783"><ele>400.99999999999994</ele><time>2026-04-29T12:51:17Z</time></trkpt><trkpt lat="37.62031498259204" lon="14.51792526452675"><ele>401.0</ele><time>2026-04-29T12:51:18Z</time></trkpt><trkpt lat="37.620234521627545" lon="14.517935434571907"><ele>399.16666666666663</ele><time>2026-04-29T12:51:19Z</time></trkpt><trkpt lat="37.620165120888586" lon="14.517965363386628"><ele>397.3333333333333</ele><time>2026-04-29T12:51:20Z</time></trkpt><trkpt lat="37.620098218867724" lon="14.517998624923562"><ele>395.5</ele><time>2026-04-29T12:51:21Z</time></trkpt><trkpt lat="37.62000809959148" lon="14.518049409819723"><ele>393.66666666666663</ele><time>2026-04-29T12:51:22Z</time></trkpt><trkpt lat="37.61991795214824" lon="14.518078926787043"><ele>391.8333333333333</ele><time>2026-04-29T12:51:23Z</time></trkpt><trkpt lat="37.61981891461813" lon="14.51809092899214"><ele>390.0</ele><time>2026-04-29T12:51:24Z</time></trkpt><trkpt lat="37.619721731245896" lon="14.518089567820345"><ele>390.0</ele><time>2026-04-29T12:51:25Z</time></trkpt><trkpt lat="37.61962159659869" lon="14.518066879815116"><ele>390.0</ele><time>2026-04-29T12:51:26Z</time></trkpt><trkpt lat="37.619497933028775" lon="14.518049023680488"><ele>390.0</ele><time>2026-04-29T12:51:27Z</time></trkpt><trkpt lat="37.6193811140221" lon="14.518016896818356"><ele>390.0</ele><time>2026-04-29T12:51:28Z</time></trkpt><trkpt lat="37.61926893593526" lon="14.517983373245812"><ele>389.0</ele><time>2026-04-29T12:51:29Z</time></trkpt><trkpt lat="37.619163400009626" lon="14.517951754669397"><ele>388.0</ele><time>2026-04-29T12:51:30Z</time></trkpt><trkpt lat="37.61905244801622" lon="14.517952947327101"><ele>387.0</ele><time>2026-04-29T12:51:31Z</time></trkpt><trkpt lat="37.618945307255466" lon="14.517938078540354"><ele>386.0</ele><time>2026-04-29T12:51:32Z</time></trkpt><trkpt lat="37.61884043124557" lon="14.517926593066537"><ele>385.0</ele><time>2026-04-29T12:51:33Z</time></trkpt><trkpt lat="37.61873339834677" lon="14.517904714655579"><ele>386.0</ele><time>2026-04-29T12:51:34Z</time></trkpt><trkpt lat="37.61862320469005" lon="14.517880426703936"><ele>387.0</ele><time>2026-04-29T12:51:35Z</time></trkpt><trkpt lat="37.618534954975814" lon="14.517833726478418"><ele>388.0</ele><time>2026-04-29T12:51:36Z</time></trkpt><trkpt lat="37.61845484990262" lon="14.51776684565377"><ele>389.0</ele><time>2026-04-29T12:51:37Z</time></trkpt><trkpt lat="37.618358088152725" lon="14.517767077270724"><ele>390.0</ele><time>2026-04-29T12:51:38Z</time></trkpt><trkpt lat="37.61827279728449" lon="14.51775874413823"><ele>390.0</ele><time>2026-04-29T12:51:39Z</time></trkpt><trkpt lat="37.61821361527965" lon="14.517712684982085"><ele>390.0</ele><time>2026-04-29T12:51:40Z</time></trkpt><trkpt lat="37.618154857447834" lon="14.517615003108327"><ele>390.0</ele><time>2026-04-29T12:51:41Z</time></trkpt><trkpt lat="37.618081501605786" lon="14.517525256487872"><ele>390.0</ele><time>2026-04-29T12:51:42Z</time></trkpt><trkpt lat="37.617993896604766" lon="14.517470082741653"><ele>390.0</ele><time>2026-04-29T12:51:43Z</time></trkpt><trkpt lat="37.61791128855813" lon="14.517437720658771"><ele>390.0</ele><time>2026-04-29T12:51:44Z</time></trkpt><trkpt lat="37.617831729659756" lon="14.517406403942989"><ele>390.0</ele><time>2026-04-29T12:51:45Z</time></trkpt><trkpt lat="37.61776018978282" lon="14.51737265239104"><ele>390.0</ele><time>2026-04-29T12:51:46Z</time></trkpt><trkpt lat="37.617695995705134" lon="14.517336112576391"><ele>390.0</ele><time>2026-04-29T12:51:47Z</time></trkpt><trkpt lat="37.617611431135416" lon="14.51732263425518"><ele>390.0</ele><time>2026-04-29T12:51:48Z</time></trkpt><trkpt lat="37.6175162792321" lon="14.517339379203007"><ele>390.0</ele><time>2026-04-29T12:51:49Z</time></trkpt><trkpt lat="37.61742163268357" lon="14.517345312395673"><ele>390.8333333333333</ele><time>2026-04-29T12:51:50Z</time></trkpt><trkpt lat="37.617333117161195" lon="14.51737092342557"><ele>391.66666666666663</ele><time>2026-04-29T12:51:51Z</time></trkpt><trkpt lat="37.617250503792995" lon="14.517399549719562"><ele>392.5</ele><time>2026-04-29T12:51:52Z</time></trkpt><trkpt lat="37.61718703870476" lon="14.517427997204564"><ele>393.3333333333333</ele><time>2026-04-29T12:51:53Z</time></trkpt><trkpt lat="37.61712236604659" lon="14.51745922878856"><ele>394.16666666666663</ele><time>2026-04-29T12:51:54Z</time></trkpt><trkpt lat="37.617051964467976" lon="14.517489133839012"><ele>395.0</ele><time>2026-04-29T12:51:55Z</time></trkpt><trkpt lat="37.616977800735626" lon="14.517518468143242"><ele>396.8</ele><time>2026-04-29T12:51:56Z</time></trkpt><trkpt lat="37.616900400725456" lon="14.517545014474809"><ele>398.6</ele><time>2026-04-29T12:51:57Z</time></trkpt><trkpt lat="37.61681411464515" lon="14.517571284298871"><ele>400.4</ele><time>2026-04-29T12:51:58Z</time></trkpt><trkpt lat="37.61672518118146" lon="14.517594428740505"><ele>402.2</ele><time>2026-04-29T12:51:59Z</time></trkpt><trkpt lat="37.61663026727835" lon="14.51763167377338"><ele>404.0</ele><time>2026-04-29T12:52:00Z</time></trkpt><trkpt lat="37.616541591721536" lon="14.517703389940927"><ele>403.99999999999994</ele><time>2026-04-29T12:52:01Z</time></trkpt><trkpt lat="37.61646060135159" lon="14.517736876072055"><ele>404.0</ele><time>2026-04-29T12:52:02Z</time></trkpt><trkpt lat="37.61638919254086" lon="14.51777194641264"><ele>404.0</ele><time>2026-04-29T12:52:03Z</time></trkpt><trkpt lat="37.6163206831421" lon="14.517823425910244"><ele>404.0</ele><time>2026-04-29T12:52:04Z</time></trkpt><trkpt lat="37.61626303215852" lon="14.517907294990911"><ele>403.99999999999994</ele><time>2026-04-29T12:52:05Z</time></trkpt><trkpt lat="37.616204517762355" lon="14.517969595752257"><ele>404.0</ele><time>2026-04-29T12:52:06Z</time></trkpt><trkpt lat="37.616143502217554" lon="14.518023044144728"><ele>406.6</ele><time>2026-04-29T12:52:07Z</time></trkpt><trkpt lat="37.61607959380524" lon="14.518083372449587"><ele>409.2</ele><time>2026-04-29T12:52:08Z</time></trkpt><trkpt lat="37.61601122950548" lon="14.518152796537375"><ele>411.8</ele><time>2026-04-29T12:52:09Z</time></trkpt><trkpt lat="37.61596593973981" lon="14.518243415099322"><ele>414.40000000000003</ele><time>2026-04-29T12:52:10Z</time></trkpt><trkpt lat="37.61589843757652" lon="14.518315853674284"><ele>417.0</ele><time>2026-04-29T12:52:12Z</time></trkpt><trkpt lat="37.615796907054346" lon="14.518250668702848"><ele>417.0</ele><time>2026-04-29T12:52:14Z</time></trkpt><trkpt lat="37.615722895346494" lon="14.518159827970962"><ele>417.0</ele><time>2026-04-29T12:52:15Z</time></trkpt><trkpt lat="37.61562540510765" lon="14.51806884812127"><ele>417.0</ele><time>2026-04-29T12:52:16Z</time></trkpt><trkpt lat="37.61559367621972" lon="14.51790763676497"><ele>417.0</ele><time>2026-04-29T12:52:17Z</time></trkpt><trkpt lat="37.615525448710464" lon="14.517841158558095"><ele>417.0</ele><time>2026-04-29T12:52:18Z</time></trkpt><trkpt lat="37.61546248271446" lon="14.517779806837769"><ele>417.0</ele><time>2026-04-29T12:52:19Z</time></trkpt><trkpt lat="37.61538909426716" lon="14.51770829985943"><ele>417.0</ele><time>2026-04-29T12:52:20Z</time></trkpt><trkpt lat="37.615394758529845" lon="14.517601007035447"><ele>417.0</ele><time>2026-04-29T12:52:21Z</time></trkpt><trkpt lat="37.615304197654076" lon="14.517470943081225"><ele>417.0</ele><time>2026-04-29T12:52:22Z</time></trkpt><trkpt lat="37.61524041423658" lon="14.517390110318573"><ele>417.0</ele><time>2026-04-29T12:52:23Z</time></trkpt><trkpt lat="37.61515682993209" lon="14.517286041999336"><ele>421.5</ele><time>2026-04-29T12:52:25Z</time></trkpt><trkpt lat="37.61509286973922" lon="14.517213320543329"><ele>426.0</ele><time>2026-04-29T12:52:26Z</time></trkpt><trkpt lat="37.6144974635428" lon="14.517506669520108"><ele>426.0</ele><time>2026-04-29T12:52:28Z</time></trkpt><trkpt lat="37.614400855807794" lon="14.517496026616275"><ele>426.0</ele><time>2026-04-29T12:52:29Z</time></trkpt><trkpt lat="37.61431124147732" lon="14.517489954813877"><ele>426.0</ele><time>2026-04-29T12:52:30Z</time></trkpt><trkpt lat="37.61422939267269" lon="14.517485972472581"><ele>426.0</ele><time>2026-04-29T12:52:31Z</time></trkpt><trkpt lat="37.61415731837517" lon="14.517499808724377"><ele>426.0</ele><time>2026-04-29T12:52:32Z</time></trkpt><trkpt lat="37.61407405677626" lon="14.517525271043592"><ele>426.0</ele><time>2026-04-29T12:52:33Z</time></trkpt><trkpt lat="37.6139925134869" lon="14.517557478516801"><ele>426.0</ele><time>2026-04-29T12:52:34Z</time></trkpt><trkpt lat="37.61390326554327" lon="14.51760695045601"><ele>426.0</ele><time>2026-04-29T12:52:35Z</time></trkpt><trkpt lat="37.61380941423278" lon="14.517658096830738"><ele>426.0</ele><time>2026-04-29T12:52:36Z</time></trkpt><trkpt lat="37.6137135613883" lon="14.517703819724414"><ele>426.0</ele><time>2026-04-29T12:52:37Z</time></trkpt><trkpt lat="37.61360586905167" lon="14.517749441057765"><ele>426.0</ele><time>2026-04-29T12:52:38Z</time></trkpt><trkpt lat="37.613493083608105" lon="14.517801709475641"><ele>428.0</ele><time>2026-04-29T12:52:39Z</time></trkpt><trkpt lat="37.61337340890332" lon="14.517854724990904"><ele>430.0</ele><time>2026-04-29T12:52:40Z</time></trkpt><trkpt lat="37.61325935156886" lon="14.517916438092564"><ele>432.0</ele><time>2026-04-29T12:52:41Z</time></trkpt><trkpt lat="37.61314504913564" lon="14.517988698149805"><ele>434.0</ele><time>2026-04-29T12:52:42Z</time></trkpt><trkpt lat="37.613038046621035" lon="14.51807096875471"><ele>435.5</ele><time>2026-04-29T12:52:43Z</time></trkpt><trkpt lat="37.612932948357525" lon="14.518143076808702"><ele>437.0</ele><time>2026-04-29T12:52:44Z</time></trkpt><trkpt lat="37.612820616337835" lon="14.518212749135698"><ele>438.5</ele><time>2026-04-29T12:52:45Z</time></trkpt><trkpt lat="37.61271784751473" lon="14.51828238883449"><ele>440.0</ele><time>2026-04-29T12:52:46Z</time></trkpt><trkpt lat="37.61262186811515" lon="14.51836523647079"><ele>440.0</ele><time>2026-04-29T12:52:47Z</time></trkpt><trkpt lat="37.61252913422858" lon="14.518452893522488"><ele>440.0</ele><time>2026-04-29T12:52:48Z</time></trkpt><trkpt lat="37.612432085788285" lon="14.518548175274029"><ele>440.0</ele><time>2026-04-29T12:52:49Z</time></trkpt><trkpt lat="37.61232980451306" lon="14.518634294166077"><ele>440.0</ele><time>2026-04-29T12:52:50Z</time></trkpt><trkpt lat="37.6122290821537" lon="14.518709555926415"><ele>442.25</ele><time>2026-04-29T12:52:51Z</time></trkpt><trkpt lat="37.61212464725366" lon="14.518783707477004"><ele>444.5</ele><time>2026-04-29T12:52:52Z</time></trkpt><trkpt lat="37.61202562516756" lon="14.518867211481473"><ele>446.75</ele><time>2026-04-29T12:52:53Z</time></trkpt><trkpt lat="37.611923035587466" lon="14.518950985605445"><ele>449.0</ele><time>2026-04-29T12:52:54Z</time></trkpt><trkpt lat="37.61181735014179" lon="14.51904160478292"><ele>449.0</ele><time>2026-04-29T12:52:55Z</time></trkpt><trkpt lat="37.61171710636181" lon="14.519134692978914"><ele>449.0</ele><time>2026-04-29T12:52:56Z</time></trkpt><trkpt lat="37.61161358729997" lon="14.519224879886977"><ele>449.0</ele><time>2026-04-29T12:52:57Z</time></trkpt><trkpt lat="37.61152218580184" lon="14.5193141510976"><ele>449.0</ele><time>2026-04-29T12:52:58Z</time></trkpt><trkpt lat="37.611438699901505" lon="14.519405044596843"><ele>449.0</ele><time>2026-04-29T12:52:59Z</time></trkpt><trkpt lat="37.611359343100055" lon="14.519487072018363"><ele>449.0</ele><time>2026-04-29T12:53:00Z</time></trkpt><trkpt lat="37.611269596851706" lon="14.519570863125516"><ele>449.0</ele><time>2026-04-29T12:53:01Z</time></trkpt><trkpt lat="37.61118767630993" lon="14.519647975693477"><ele>449.0</ele><time>2026-04-29T12:53:02Z</time></trkpt><trkpt lat="37.61112013975309" lon="14.519713339293533"><ele>449.0</ele><time>2026-04-29T12:53:03Z</time></trkpt><trkpt lat="37.61104020946278" lon="14.519801178359373"><ele>449.8333333333333</ele><time>2026-04-29T12:53:05Z</time></trkpt><trkpt lat="37.61095652273309" lon="14.519843157417641"><ele>450.66666666666663</ele><time>2026-04-29T12:53:07Z</time></trkpt><trkpt lat="37.61088534219405" lon="14.519855523420311"><ele>451.5</ele><time>2026-04-29T12:53:08Z</time></trkpt><trkpt lat="37.61079921746455" lon="14.519875690872412"><ele>452.33333333333337</ele><time>2026-04-29T12:53:09Z</time></trkpt><trkpt lat="37.61071487911972" lon="14.519878635266288"><ele>453.1666666666667</ele><time>2026-04-29T12:53:10Z</time></trkpt><trkpt lat="37.61062981717214" lon="14.519878579499228"><ele>454.0</ele><time>2026-04-29T12:53:11Z</time></trkpt><trkpt lat="37.61054766173553" lon="14.519882638470426"><ele>454.00000000000006</ele><time>2026-04-29T12:53:12Z</time></trkpt><trkpt lat="37.610465483728504" lon="14.519894749042244"><ele>454.0</ele><time>2026-04-29T12:53:13Z</time></trkpt><trkpt lat="37.610377836898834" lon="14.519916330183863"><ele>454.0</ele><time>2026-04-29T12:53:14Z</time></trkpt><trkpt lat="37.61028837276823" lon="14.519926982742206"><ele>454.0</ele><time>2026-04-29T12:53:15Z</time></trkpt><trkpt lat="37.6101960666726" lon="14.519933940719188"><ele>454.00000000000006</ele><time>2026-04-29T12:53:16Z</time></trkpt><trkpt lat="37.610104762088554" lon="14.519944904229687"><ele>454.0</ele><time>2026-04-29T12:53:17Z</time></trkpt><trkpt lat="37.61002934423991" lon="14.519963493750547"><ele>454.6666666666667</ele><time>2026-04-29T12:53:18Z</time></trkpt><trkpt lat="37.60994963911616" lon="14.519970351694553"><ele>455.33333333333337</ele><time>2026-04-29T12:53:19Z</time></trkpt><trkpt lat="37.60987028348813" lon="14.51995913425573"><ele>456.0</ele><time>2026-04-29T12:53:20Z</time></trkpt><trkpt lat="37.60978312275" lon="14.519947712488484"><ele>456.66666666666663</ele><time>2026-04-29T12:53:21Z</time></trkpt><trkpt lat="37.60970282587786" lon="14.519945927113467"><ele>457.3333333333333</ele><time>2026-04-29T12:53:22Z</time></trkpt><trkpt lat="37.60962330975215" lon="14.519944166548589"><ele>458.0</ele><time>2026-04-29T12:53:23Z</time></trkpt><trkpt lat="37.60955840919751" lon="14.519938519892346"><ele>460.59999999999997</ele><time>2026-04-29T12:53:24Z</time></trkpt><trkpt lat="37.60945070055964" lon="14.519907371404226"><ele>463.19999999999993</ele><time>2026-04-29T12:53:26Z</time></trkpt><trkpt lat="37.609360894749095" lon="14.519913690872826"><ele>465.8</ele><time>2026-04-29T12:53:27Z</time></trkpt><trkpt lat="37.609263082046894" lon="14.519914555018119"><ele>468.4</ele><time>2026-04-29T12:53:28Z</time></trkpt><trkpt lat="37.60915844306456" lon="14.519904719943185"><ele>471.0</ele><time>2026-04-29T12:53:29Z</time></trkpt><trkpt lat="37.60905445000485" lon="14.51988811137203"><ele>471.0</ele><time>2026-04-29T12:53:30Z</time></trkpt><trkpt lat="37.60896869420062" lon="14.519864552953276"><ele>471.0</ele><time>2026-04-29T12:53:31Z</time></trkpt><trkpt lat="37.60889404187803" lon="14.519845077685842"><ele>471.0</ele><time>2026-04-29T12:53:32Z</time></trkpt><trkpt lat="37.60881883312789" lon="14.519827216890576"><ele>471.0</ele><time>2026-04-29T12:53:33Z</time></trkpt><trkpt lat="37.608734745516266" lon="14.519807603177387"><ele>471.0</ele><time>2026-04-29T12:53:34Z</time></trkpt><trkpt lat="37.60864687884391" lon="14.51978917368845"><ele>471.0</ele><time>2026-04-29T12:53:35Z</time></trkpt><trkpt lat="37.6085636296715" lon="14.51976598867996"><ele>473.1666666666667</ele><time>2026-04-29T12:53:36Z</time></trkpt><trkpt lat="37.60848341016674" lon="14.519739232375745"><ele>475.33333333333337</ele><time>2026-04-29T12:53:37Z</time></trkpt><trkpt lat="37.60840598669249" lon="14.519719182140818"><ele>477.5</ele><time>2026-04-29T12:53:38Z</time></trkpt><trkpt lat="37.608330777822594" lon="14.519716071604957"><ele>479.6666666666667</ele><time>2026-04-29T12:53:39Z</time></trkpt><trkpt lat="37.60824695165148" lon="14.519731560051262"><ele>481.83333333333337</ele><time>2026-04-29T12:53:40Z</time></trkpt><trkpt lat="37.60818339975145" lon="14.519746451399993"><ele>484.0</ele><time>2026-04-29T12:53:41Z</time></trkpt><trkpt lat="37.60811698744315" lon="14.51975478786474"><ele>484.0</ele><time>2026-04-29T12:53:42Z</time></trkpt><trkpt lat="37.60805427048533" lon="14.519762309060937"><ele>483.99999999999994</ele><time>2026-04-29T12:53:43Z</time></trkpt><trkpt lat="37.60798024513816" lon="14.519774399763762"><ele>484.0</ele><time>2026-04-29T12:53:44Z</time></trkpt><trkpt lat="37.607911039321415" lon="14.519786149419339"><ele>484.0</ele><time>2026-04-29T12:53:45Z</time></trkpt><trkpt lat="37.60784199968616" lon="14.519801015907902"><ele>483.99999999999994</ele><time>2026-04-29T12:53:46Z</time></trkpt><trkpt lat="37.6077678129187" lon="14.519812640622408"><ele>484.0</ele><time>2026-04-29T12:53:47Z</time></trkpt><trkpt lat="37.60769148472516" lon="14.519823784677081"><ele>484.0</ele><time>2026-04-29T12:53:48Z</time></trkpt><trkpt lat="37.607601757732596" lon="14.519823868396905"><ele>485.50000000000006</ele><time>2026-04-29T12:53:49Z</time></trkpt><trkpt lat="37.60752071313934" lon="14.51982491896805"><ele>487.0</ele><time>2026-04-29T12:53:50Z</time></trkpt><trkpt lat="37.607433212664006" lon="14.519857594149949"><ele>488.5</ele><time>2026-04-29T12:53:51Z</time></trkpt><trkpt lat="37.6073494806925" lon="14.519894793252975"><ele>490.0</ele><time>2026-04-29T12:53:52Z</time></trkpt><trkpt lat="37.607274243958685" lon="14.519923394258875"><ele>491.50000000000006</ele><time>2026-04-29T12:53:53Z</time></trkpt><trkpt lat="37.60720143481237" lon="14.51995046839177"><ele>493.0</ele><time>2026-04-29T12:53:54Z</time></trkpt><trkpt lat="37.6071354156058" lon="14.5199766923129"><ele>493.0</ele><time>2026-04-29T12:53:55Z</time></trkpt><trkpt lat="37.6070719347654" lon="14.519999819210021"><ele>493.0</ele><time>2026-04-29T12:53:56Z</time></trkpt><trkpt lat="37.607006456664514" lon="14.52002595826066"><ele>493.0</ele><time>2026-04-29T12:53:57Z</time></trkpt><trkpt lat="37.606936001981616" lon="14.520048105810545"><ele>493.0</ele><time>2026-04-29T12:53:58Z</time></trkpt><trkpt lat="37.60686930183787" lon="14.520088526420516"><ele>493.0</ele><time>2026-04-29T12:53:59Z</time></trkpt><trkpt lat="37.60680185681918" lon="14.520139325790517"><ele>493.0</ele><time>2026-04-29T12:54:00Z</time></trkpt><trkpt lat="37.606740786590315" lon="14.52016903752353"><ele>493.0</ele><time>2026-04-29T12:54:01Z</time></trkpt><trkpt lat="37.60667416003444" lon="14.520183027218918"><ele>494.00000000000006</ele><time>2026-04-29T12:54:02Z</time></trkpt><trkpt lat="37.60659706288478" lon="14.520205942405232"><ele>495.0</ele><time>2026-04-29T12:54:03Z</time></trkpt><trkpt lat="37.606515271062825" lon="14.520239149278412"><ele>496.0</ele><time>2026-04-29T12:54:04Z</time></trkpt><trkpt lat="37.60644360391592" lon="14.520272716444515"><ele>497.0</ele><time>2026-04-29T12:54:05Z</time></trkpt><trkpt lat="37.606369334987264" lon="14.520310499238041"><ele>498.00000000000006</ele><time>2026-04-29T12:54:06Z</time></trkpt><trkpt lat="37.606292819091685" lon="14.520352769606268"><ele>499.0</ele><time>2026-04-29T12:54:07Z</time></trkpt><trkpt lat="37.60621571084607" lon="14.520388401669024"><ele>501.6666666666667</ele><time>2026-04-29T12:54:08Z</time></trkpt><trkpt lat="37.606138137269355" lon="14.520407841147225"><ele>504.33333333333337</ele><time>2026-04-29T12:54:09Z</time></trkpt><trkpt lat="37.60607107956617" lon="14.520415216891394"><ele>507.0</ele><time>2026-04-29T12:54:10Z</time></trkpt><trkpt lat="37.60597747730669" lon="14.520421284075594"><ele>509.66666666666663</ele><time>2026-04-29T12:54:12Z</time></trkpt><trkpt lat="37.60590661868907" lon="14.520388052251516"><ele>512.3333333333333</ele><time>2026-04-29T12:54:14Z</time></trkpt><trkpt lat="37.60586647244034" lon="14.520237367904063"><ele>515.0</ele><time>2026-04-29T12:54:16Z</time></trkpt><trkpt lat="37.60584940024334" lon="14.520139282631314"><ele>515.0</ele><time>2026-04-29T12:54:17Z</time></trkpt><trkpt lat="37.60581852578561" lon="14.520040789367327"><ele>515.0</ele><time>2026-04-29T12:54:18Z</time></trkpt><trkpt lat="37.605780958416084" lon="14.519937485083814"><ele>515.0</ele><time>2026-04-29T12:54:19Z</time></trkpt><trkpt lat="37.60573606923263" lon="14.519847368643235"><ele>515.0</ele><time>2026-04-29T12:54:20Z</time></trkpt><trkpt lat="37.60568471526924" lon="14.519767898476687"><ele>515.0</ele><time>2026-04-29T12:54:21Z</time></trkpt><trkpt lat="37.60562575241405" lon="14.519687543283315"><ele>515.0</ele><time>2026-04-29T12:54:22Z</time></trkpt><trkpt lat="37.60558142930649" lon="14.519596168672537"><ele>514.7142857142858</ele><time>2026-04-29T12:54:23Z</time></trkpt><trkpt lat="37.60554974535291" lon="14.519506670581679"><ele>514.4285714285714</ele><time>2026-04-29T12:54:24Z</time></trkpt><trkpt lat="37.60552281025824" lon="14.51941893720211"><ele>514.1428571428571</ele><time>2026-04-29T12:54:25Z</time></trkpt><trkpt lat="37.6054995028626" lon="14.5193225848364"><ele>513.8571428571429</ele><time>2026-04-29T12:54:26Z</time></trkpt><trkpt lat="37.6054859977313" lon="14.519230817642423"><ele>513.5714285714286</ele><time>2026-04-29T12:54:27Z</time></trkpt><trkpt lat="37.605429983467644" lon="14.519170866590402"><ele>513.2857142857143</ele><time>2026-04-29T12:54:31Z</time></trkpt><trkpt lat="37.60539686271586" lon="14.519246796827023"><ele>513.0</ele><time>2026-04-29T12:54:33Z</time></trkpt><trkpt lat="37.605365892909994" lon="14.519347665734783"><ele>513.0</ele><time>2026-04-29T12:54:35Z</time></trkpt><trkpt lat="37.60534992663234" lon="14.519468121265843"><ele>513.0</ele><time>2026-04-29T12:54:37Z</time></trkpt><trkpt lat="37.60529898509681" lon="14.519584365101867"><ele>513.0</ele><time>2026-04-29T12:54:38Z</time></trkpt><trkpt lat="37.60527749988526" lon="14.519680116086942"><ele>513.0</ele><time>2026-04-29T12:54:39Z</time></trkpt><trkpt lat="37.60525248639027" lon="14.519800943274657"><ele>513.0</ele><time>2026-04-29T12:54:40Z</time></trkpt><trkpt lat="37.60523046242905" lon="14.519915771418908"><ele>518.6</ele><time>2026-04-29T12:54:41Z</time></trkpt><trkpt lat="37.60520901329515" lon="14.520024376495924"><ele>524.1999999999999</ele><time>2026-04-29T12:54:42Z</time></trkpt><trkpt lat="37.60518189434171" lon="14.520147391888997"><ele>529.8</ele><time>2026-04-29T12:54:43Z</time></trkpt><trkpt lat="37.60515085765828" lon="14.520263769990892"><ele>535.4</ele><time>2026-04-29T12:54:44Z</time></trkpt><trkpt lat="37.60511461262771" lon="14.520393060765384"><ele>541.0</ele><time>2026-04-29T12:54:45Z</time></trkpt><trkpt lat="37.60508281398728" lon="14.520520115817757"><ele>541.6</ele><time>2026-04-29T12:54:46Z</time></trkpt><trkpt lat="37.60505275887877" lon="14.520663654821956"><ele>542.2</ele><time>2026-04-29T12:54:47Z</time></trkpt><trkpt lat="37.60503603666495" lon="14.520791632953133"><ele>542.8</ele><time>2026-04-29T12:54:48Z</time></trkpt><trkpt lat="37.60502171027445" lon="14.520929055554994"><ele>543.4</ele><time>2026-04-29T12:54:49Z</time></trkpt><trkpt lat="37.6050111894543" lon="14.521063355694237"><ele>544.0</ele><time>2026-04-29T12:54:50Z</time></trkpt><trkpt lat="37.60499959349923" lon="14.521189271500145"><ele>544.4</ele><time>2026-04-29T12:54:51Z</time></trkpt><trkpt lat="37.60498070842136" lon="14.521305811067538"><ele>544.8</ele><time>2026-04-29T12:54:52Z</time></trkpt><trkpt lat="37.60495529845687" lon="14.521426915403245"><ele>545.2</ele><time>2026-04-29T12:54:53Z</time></trkpt><trkpt lat="37.60494374133259" lon="14.521549138623737"><ele>545.6</ele><time>2026-04-29T12:54:54Z</time></trkpt><trkpt lat="37.604942575971435" lon="14.521663546592407"><ele>546.0</ele><time>2026-04-29T12:54:55Z</time></trkpt><trkpt lat="37.60494615112482" lon="14.521772342733742"><ele>546.0</ele><time>2026-04-29T12:54:56Z</time></trkpt><trkpt lat="37.604935408673214" lon="14.521878372315138"><ele>546.0</ele><time>2026-04-29T12:54:57Z</time></trkpt><trkpt lat="37.604948260283905" lon="14.521986113640322"><ele>546.0</ele><time>2026-04-29T12:54:58Z</time></trkpt><trkpt lat="37.604913859158515" lon="14.522097916312788"><ele>546.0</ele><time>2026-04-29T12:54:59Z</time></trkpt><trkpt lat="37.60488103882417" lon="14.52222289186923"><ele>546.0</ele><time>2026-04-29T12:55:00Z</time></trkpt><trkpt lat="37.60483821053186" lon="14.522339076074983"><ele>544.6666666666666</ele><time>2026-04-29T12:55:01Z</time></trkpt><trkpt lat="37.60480749491404" lon="14.522447688930624"><ele>543.3333333333334</ele><time>2026-04-29T12:55:02Z</time></trkpt><trkpt lat="37.604780935584365" lon="14.52254294369342"><ele>542.0</ele><time>2026-04-29T12:55:03Z</time></trkpt><trkpt lat="37.604749233700176" lon="14.522631635011418"><ele>540.6666666666667</ele><time>2026-04-29T12:55:04Z</time></trkpt><trkpt lat="37.604736367505204" lon="14.522716384682441"><ele>539.3333333333334</ele><time>2026-04-29T12:55:05Z</time></trkpt><trkpt lat="37.60475638907961" lon="14.522798661224414"><ele>538.0</ele><time>2026-04-29T12:55:06Z</time></trkpt><trkpt lat="37.60478762263609" lon="14.522881332865701"><ele>537.4</ele><time>2026-04-29T12:55:07Z</time></trkpt><trkpt lat="37.60483363184592" lon="14.522958954861767"><ele>536.8</ele><time>2026-04-29T12:55:08Z</time></trkpt><trkpt lat="37.60486605182521" lon="14.523027132586346"><ele>536.2</ele><time>2026-04-29T12:55:09Z</time></trkpt><trkpt lat="37.60486445345816" lon="14.523142688140883"><ele>535.6</ele><time>2026-04-29T12:55:11Z</time></trkpt><trkpt lat="37.604806494147375" lon="14.523312269873339"><ele>535.0</ele><time>2026-04-29T12:55:13Z</time></trkpt><trkpt lat="37.6047910028706" lon="14.523404821580971"><ele>535.0</ele><time>2026-04-29T12:55:14Z</time></trkpt><trkpt lat="37.60480326275978" lon="14.523486676327233"><ele>535.0</ele><time>2026-04-29T12:55:15Z</time></trkpt><trkpt lat="37.6048340386977" lon="14.523569476002399"><ele>535.0</ele><time>2026-04-29T12:55:16Z</time></trkpt><trkpt lat="37.604856260112086" lon="14.523654227764103"><ele>535.0</ele><time>2026-04-29T12:55:17Z</time></trkpt><trkpt lat="37.604865954355574" lon="14.523740570853866"><ele>535.0</ele><time>2026-04-29T12:55:18Z</time></trkpt><trkpt lat="37.60488381489347" lon="14.523878144014304"><ele>535.0</ele><time>2026-04-29T12:55:20Z</time></trkpt><trkpt lat="37.6048851410138" lon="14.523985021907654"><ele>534.1666666666667</ele><time>2026-04-29T12:55:22Z</time></trkpt><trkpt lat="37.60489077828288" lon="14.524129261138308"><ele>533.3333333333334</ele><time>2026-04-29T12:55:24Z</time></trkpt><trkpt lat="37.604901881409155" lon="14.524213500571546"><ele>532.5</ele><time>2026-04-29T12:55:25Z</time></trkpt><trkpt lat="37.604912670608456" lon="14.52430161191457"><ele>531.6666666666666</ele><time>2026-04-29T12:55:26Z</time></trkpt><trkpt lat="37.60492368274763" lon="14.524394084891675"><ele>530.8333333333333</ele><time>2026-04-29T12:55:27Z</time></trkpt><trkpt lat="37.60494363196184" lon="14.524496124477816"><ele>530.0</ele><time>2026-04-29T12:55:28Z</time></trkpt><trkpt lat="37.60496668644196" lon="14.524583105775127"><ele>529.8</ele><time>2026-04-29T12:55:29Z</time></trkpt><trkpt lat="37.605002108898894" lon="14.524730267988637"><ele>529.6</ele><time>2026-04-29T12:55:31Z</time></trkpt><trkpt lat="37.605035113446306" lon="14.524870597739422"><ele>529.4</ele><time>2026-04-29T12:55:33Z</time></trkpt><trkpt lat="37.60505264469991" lon="14.525017562953936"><ele>529.2</ele><time>2026-04-29T12:55:35Z</time></trkpt><trkpt lat="37.60506689238539" lon="14.52509872275287"><ele>529.0</ele><time>2026-04-29T12:55:36Z</time></trkpt><trkpt lat="37.605092235646545" lon="14.525191605895658"><ele>529.0</ele><time>2026-04-29T12:55:37Z</time></trkpt><trkpt lat="37.60512221615897" lon="14.525293587581102"><ele>529.0</ele><time>2026-04-29T12:55:38Z</time></trkpt><trkpt lat="37.60515713763376" lon="14.525400503012287"><ele>529.0</ele><time>2026-04-29T12:55:39Z</time></trkpt><trkpt lat="37.60519397147486" lon="14.525493643708804"><ele>529.0</ele><time>2026-04-29T12:55:40Z</time></trkpt><trkpt lat="37.605222309827724" lon="14.525576319428431"><ele>529.0</ele><time>2026-04-29T12:55:41Z</time></trkpt><trkpt lat="37.60525229403015" lon="14.525654956874506"><ele>529.0</ele><time>2026-04-29T12:55:42Z</time></trkpt><trkpt lat="37.60529227020692" lon="14.525803212490423"><ele>529.3333333333334</ele><time>2026-04-29T12:55:44Z</time></trkpt><trkpt lat="37.60530302770366" lon="14.525883402154943"><ele>529.6666666666667</ele><time>2026-04-29T12:55:45Z</time></trkpt><trkpt lat="37.605320240775065" lon="14.526024426217889"><ele>530.0</ele><time>2026-04-29T12:55:47Z</time></trkpt><trkpt lat="37.605330362242704" lon="14.526122256017787"><ele>530.3333333333334</ele><time>2026-04-29T12:55:49Z</time></trkpt><trkpt lat="37.605328526538955" lon="14.526246650468417"><ele>530.6666666666666</ele><time>2026-04-29T12:55:51Z</time></trkpt><trkpt lat="37.60533554940439" lon="14.526327323206376"><ele>531.0</ele><time>2026-04-29T12:55:52Z</time></trkpt><trkpt lat="37.60534612599941" lon="14.526420245421399"><ele>525.4</ele><time>2026-04-29T12:55:53Z</time></trkpt><trkpt lat="37.60536908922019" lon="14.52656055497707"><ele>519.8</ele><time>2026-04-29T12:55:55Z</time></trkpt><trkpt lat="37.60540405398937" lon="14.526675198726098"><ele>514.1999999999999</ele><time>2026-04-29T12:55:57Z</time></trkpt><trkpt lat="37.60542958355685" lon="14.526788085514422"><ele>508.59999999999997</ele><time>2026-04-29T12:55:59Z</time></trkpt><trkpt lat="37.60544755748644" lon="14.526869914280708"><ele>503.0</ele><time>2026-04-29T12:56:01Z</time></trkpt><trkpt lat="37.60547895031418" lon="14.52696757161833"><ele>502.99999999999994</ele><time>2026-04-29T12:56:03Z</time></trkpt><trkpt lat="37.6054751914532" lon="14.527087367068168"><ele>503.0</ele><time>2026-04-29T12:56:05Z</time></trkpt><trkpt lat="37.60542220107798" lon="14.527203933734091"><ele>503.0</ele><time>2026-04-29T12:56:07Z</time></trkpt><trkpt lat="37.605373069484926" lon="14.527272212726423"><ele>503.0</ele><time>2026-04-29T12:56:08Z</time></trkpt><trkpt lat="37.60532490343247" lon="14.527328411225382"><ele>502.99999999999994</ele><time>2026-04-29T12:56:09Z</time></trkpt><trkpt lat="37.60527298292288" lon="14.527382872197112"><ele>503.0</ele><time>2026-04-29T12:56:10Z</time></trkpt><trkpt lat="37.60522101759079" lon="14.527444903991759"><ele>508.2</ele><time>2026-04-29T12:56:11Z</time></trkpt><trkpt lat="37.60517078774421" lon="14.527519203471575"><ele>513.4</ele><time>2026-04-29T12:56:12Z</time></trkpt><trkpt lat="37.605131993459736" lon="14.527600531828215"><ele>518.5999999999999</ele><time>2026-04-29T12:56:13.001Z</time></trkpt><trkpt lat="37.60510285926342" lon="14.52768595711794"><ele>523.8</ele><time>2026-04-29T12:56:14.001Z</time></trkpt><trkpt lat="37.60506414568058" lon="14.527824675473852"><ele>529.0</ele><time>2026-04-29T12:56:16.001Z</time></trkpt><trkpt lat="37.6050036602467" lon="14.52794442268134"><ele>529.0</ele><time>2026-04-29T12:56:18.001Z</time></trkpt><trkpt lat="37.604952650910036" lon="14.528013176403128"><ele>529.0</ele><time>2026-04-29T12:56:19.001Z</time></trkpt><trkpt lat="37.60488939314091" lon="14.528066901881799"><ele>529.0</ele><time>2026-04-29T12:56:20.001Z</time></trkpt><trkpt lat="37.60478499636558" lon="14.528125243948471"><ele>529.0</ele><time>2026-04-29T12:56:22.001Z</time></trkpt><trkpt lat="37.60468898438013" lon="14.528187582401374"><ele>529.0</ele><time>2026-04-29T12:56:24.001Z</time></trkpt><trkpt lat="37.604636553286554" lon="14.528237005746904"><ele>529.0</ele><time>2026-04-29T12:56:25.001Z</time></trkpt><trkpt lat="37.60456056805817" lon="14.52831939950807"><ele>528.3333333333334</ele><time>2026-04-29T12:56:27.001Z</time></trkpt><trkpt lat="37.604478633059045" lon="14.528407856389714"><ele>527.6666666666667</ele><time>2026-04-29T12:56:29.001Z</time></trkpt><trkpt lat="37.60439439813429" lon="14.52852609264339"><ele>527.0</ele><time>2026-04-29T12:56:31.001Z</time></trkpt><trkpt lat="37.604347686556096" lon="14.528580594047714"><ele>526.3333333333334</ele><time>2026-04-29T12:56:32.001Z</time></trkpt><trkpt lat="37.60429780836944" lon="14.52863634767668"><ele>525.6666666666666</ele><time>2026-04-29T12:56:33.001Z</time></trkpt><trkpt lat="37.60424891821043" lon="14.528687548634355"><ele>525.0</ele><time>2026-04-29T12:56:34.001Z</time></trkpt><trkpt lat="37.60415653681272" lon="14.528796389634042"><ele>521.2</ele><time>2026-04-29T12:56:36.001Z</time></trkpt><trkpt lat="37.60411108952167" lon="14.528856573315585"><ele>517.4</ele><time>2026-04-29T12:56:37.001Z</time></trkpt><trkpt lat="37.60406468652432" lon="14.528910609307744"><ele>513.6</ele><time>2026-04-29T12:56:38.001Z</time></trkpt><trkpt lat="37.603968585985015" lon="14.529008589981869"><ele>509.8</ele><time>2026-04-29T12:56:40.001Z</time></trkpt><trkpt lat="37.60386448418859" lon="14.529089169992824"><ele>506.0</ele><time>2026-04-29T12:56:42.001Z</time></trkpt><trkpt lat="37.603786535160815" lon="14.529165663645223"><ele>505.99999999999994</ele><time>2026-04-29T12:56:44.001Z</time></trkpt><trkpt lat="37.60373093096826" lon="14.529235442390844"><ele>506.0</ele><time>2026-04-29T12:56:46.001Z</time></trkpt><trkpt lat="37.603669043383775" lon="14.529292524633286"><ele>506.0</ele><time>2026-04-29T12:56:48.001Z</time></trkpt><trkpt lat="37.603603282134806" lon="14.529331033171427"><ele>506.0</ele><time>2026-04-29T12:56:51.001Z</time></trkpt><trkpt lat="37.603536015551995" lon="14.529379598990621"><ele>505.99999999999994</ele><time>2026-04-29T12:56:54.001Z</time></trkpt><trkpt lat="37.60345928074619" lon="14.529434061745741"><ele>506.0</ele><time>2026-04-29T12:56:57.001Z</time></trkpt><trkpt lat="37.60339573309778" lon="14.529467181371668"><ele>506.1428571428572</ele><time>2026-04-29T12:56:59.001Z</time></trkpt><trkpt lat="37.603327391763735" lon="14.52950257384832"><ele>506.28571428571433</ele><time>2026-04-29T12:57:02.001Z</time></trkpt><trkpt lat="37.60324900757605" lon="14.52950309189086"><ele>506.42857142857144</ele><time>2026-04-29T12:57:09.001Z</time></trkpt><trkpt lat="37.60317499742293" lon="14.52952248552745"><ele>506.5714285714286</ele><time>2026-04-29T12:57:12.001Z</time></trkpt><trkpt lat="37.6031082547435" lon="14.529545040862603"><ele>506.7142857142858</ele><time>2026-04-29T12:57:46.001Z</time></trkpt><trkpt lat="37.603047744798275" lon="14.529582010331364"><ele>506.85714285714283</ele><time>2026-04-29T12:57:48.001Z</time></trkpt><trkpt lat="37.60297144213635" lon="14.529591522298466"><ele>507.0</ele><time>2026-04-29T12:57:51.001Z</time></trkpt><trkpt lat="37.60289087343731" lon="14.52964883787775"><ele>503.1666666666667</ele><time>2026-04-29T12:57:55.001Z</time></trkpt><trkpt lat="37.602822395545886" lon="14.529676681847446"><ele>499.33333333333337</ele><time>2026-04-29T12:57:58.001Z</time></trkpt><trkpt lat="37.60275138042886" lon="14.529680443418611"><ele>495.5</ele><time>2026-04-29T12:58:01.001Z</time></trkpt><trkpt lat="37.60268581517835" lon="14.52971636721608"><ele>491.6666666666667</ele><time>2026-04-29T12:58:03.001Z</time></trkpt><trkpt lat="37.602597279990924" lon="14.529739537712473"><ele>487.83333333333337</ele><time>2026-04-29T12:58:06.001Z</time></trkpt><trkpt lat="37.60252277580969" lon="14.529780814221278"><ele>484.0</ele><time>2026-04-29T12:58:09.001Z</time></trkpt><trkpt lat="37.602467332328686" lon="14.529826351742095"><ele>484.0</ele><time>2026-04-29T12:58:11.001Z</time></trkpt><trkpt lat="37.6023109861953" lon="14.529922035723958"><ele>484.0</ele><time>2026-04-29T12:58:13.001Z</time></trkpt><trkpt lat="37.602213829489365" lon="14.530014779849822"><ele>484.0</ele><time>2026-04-29T12:58:15.001Z</time></trkpt><trkpt lat="37.602159631652476" lon="14.53006551501371"><ele>484.0</ele><time>2026-04-29T12:58:16.001Z</time></trkpt><trkpt lat="37.60210779872436" lon="14.530123392191745"><ele>484.0</ele><time>2026-04-29T12:58:17.001Z</time></trkpt><trkpt lat="37.602055011961305" lon="14.530179816791051"><ele>484.00000000000006</ele><time>2026-04-29T12:58:18.001Z</time></trkpt><trkpt lat="37.60200100900385" lon="14.530232239979064"><ele>484.0</ele><time>2026-04-29T12:58:19.001Z</time></trkpt><trkpt lat="37.60191794861856" lon="14.530295481295921"><ele>484.0</ele><time>2026-04-29T12:58:21.001Z</time></trkpt><trkpt lat="37.60183227252376" lon="14.530363860134495"><ele>484.0</ele><time>2026-04-29T12:58:23.001Z</time></trkpt><trkpt lat="37.601749228159335" lon="14.530428472538008"><ele>484.00000000000006</ele><time>2026-04-29T12:58:25.001Z</time></trkpt><trkpt lat="37.601675599296684" lon="14.530477959934712"><ele>484.0</ele><time>2026-04-29T12:58:27.001Z</time></trkpt><trkpt lat="37.60162852810137" lon="14.530553102467655"><ele>482.50000000000006</ele><time>2026-04-29T12:58:30.001Z</time></trkpt><trkpt lat="37.60154677183776" lon="14.530653065471459"><ele>481.0</ele><time>2026-04-29T12:58:32.001Z</time></trkpt><trkpt lat="37.601453409236946" lon="14.530712642316274"><ele>479.5</ele><time>2026-04-29T12:58:33.001Z</time></trkpt><trkpt lat="37.60138206420771" lon="14.530753299932153"><ele>478.0</ele><time>2026-04-29T12:58:34.001Z</time></trkpt><trkpt lat="37.601317465756296" lon="14.530786374112042"><ele>476.50000000000006</ele><time>2026-04-29T12:58:35.001Z</time></trkpt><trkpt lat="37.60125464821124" lon="14.530808909010535"><ele>475.0</ele><time>2026-04-29T12:58:36.001Z</time></trkpt><trkpt lat="37.601190805362506" lon="14.530827734437688"><ele>474.33333333333337</ele><time>2026-04-29T12:58:37.001Z</time></trkpt><trkpt lat="37.601077338110976" lon="14.53085706038812"><ele>473.6666666666667</ele><time>2026-04-29T12:58:39.001Z</time></trkpt><trkpt lat="37.60095384311765" lon="14.530886218052565"><ele>473.0</ele><time>2026-04-29T12:58:41.001Z</time></trkpt><trkpt lat="37.60088610787851" lon="14.53090873168999"><ele>472.33333333333337</ele><time>2026-04-29T12:58:42.001Z</time></trkpt><trkpt lat="37.6008223211868" lon="14.530937172458557"><ele>471.6666666666667</ele><time>2026-04-29T12:58:43.001Z</time></trkpt><trkpt lat="37.60076278305422" lon="14.53096492177196"><ele>471.0</ele><time>2026-04-29T12:58:44.001Z</time></trkpt><trkpt lat="37.60064966905515" lon="14.53103938582726"><ele>471.0</ele><time>2026-04-29T12:58:46.001Z</time></trkpt><trkpt lat="37.60058882807716" lon="14.531078135857927"><ele>471.0</ele><time>2026-04-29T12:58:47.001Z</time></trkpt><trkpt lat="37.60052537612442" lon="14.531122881001995"><ele>471.0</ele><time>2026-04-29T12:58:48.001Z</time></trkpt><trkpt lat="37.600465166955644" lon="14.531174682854443"><ele>471.0</ele><time>2026-04-29T12:58:49.001Z</time></trkpt><trkpt lat="37.60040669557925" lon="14.53122725678313"><ele>471.0</ele><time>2026-04-29T12:58:50.001Z</time></trkpt><trkpt lat="37.600317385807095" lon="14.531331360983112"><ele>471.0</ele><time>2026-04-29T12:58:52.001Z</time></trkpt><trkpt lat="37.600205110877795" lon="14.531424782147123"><ele>471.0</ele><time>2026-04-29T12:58:54.001Z</time></trkpt><trkpt lat="37.6001437418836" lon="14.531465269247905"><ele>471.0</ele><time>2026-04-29T12:58:55.001Z</time></trkpt><trkpt lat="37.60004259448902" lon="14.531543576356208"><ele>471.0</ele><time>2026-04-29T12:58:57.001Z</time></trkpt><trkpt lat="37.599954735733164" lon="14.531637831835242"><ele>471.0</ele><time>2026-04-29T12:58:59.001Z</time></trkpt><trkpt lat="37.59986314400739" lon="14.531746593918033"><ele>471.0</ele><time>2026-04-29T12:59:01.001Z</time></trkpt><trkpt lat="37.59977800717564" lon="14.53184362613082"><ele>471.0</ele><time>2026-04-29T12:59:03.001Z</time></trkpt><trkpt lat="37.59969215796837" lon="14.531942238981046"><ele>471.0</ele><time>2026-04-29T12:59:05.001Z</time></trkpt><trkpt lat="37.599584130240835" lon="14.531994715408198"><ele>471.0</ele><time>2026-04-29T12:59:07.001Z</time></trkpt><trkpt lat="37.599478659895894" lon="14.53206636957162"><ele>471.0</ele><time>2026-04-29T12:59:09.001Z</time></trkpt><trkpt lat="37.599416182988804" lon="14.532123939072472"><ele>471.0</ele><time>2026-04-29T12:59:10.001Z</time></trkpt><trkpt lat="37.599241518792276" lon="14.532026277792045"><ele>469.28571428571433</ele><time>2026-04-29T12:59:11.001Z</time></trkpt><trkpt lat="37.5991892375653" lon="14.53209166723361"><ele>467.57142857142856</ele><time>2026-04-29T12:59:12.001Z</time></trkpt><trkpt lat="37.59913399442478" lon="14.532163770418045"><ele>465.8571428571429</ele><time>2026-04-29T12:59:13.001Z</time></trkpt><trkpt lat="37.5990895828451" lon="14.532237336701682"><ele>464.14285714285717</ele><time>2026-04-29T12:59:14.001Z</time></trkpt><trkpt lat="37.59905125880008" lon="14.53231887133311"><ele>462.42857142857144</ele><time>2026-04-29T12:59:15.001Z</time></trkpt><trkpt lat="37.5990205346383" lon="14.532409658206143"><ele>460.7142857142857</ele><time>2026-04-29T12:59:16.001Z</time></trkpt><trkpt lat="37.598998356424154" lon="14.53249304608382"><ele>459.0</ele><time>2026-04-29T12:59:17.001Z</time></trkpt><trkpt lat="37.5989841050813" lon="14.532587087930548"><ele>459.0</ele><time>2026-04-29T12:59:18.001Z</time></trkpt><trkpt lat="37.598990968442884" lon="14.532692532536393"><ele>459.0</ele><time>2026-04-29T12:59:20.001Z</time></trkpt><trkpt lat="37.59896492048144" lon="14.532765260713546"><ele>459.0</ele><time>2026-04-29T12:59:21.001Z</time></trkpt><trkpt lat="37.59893431133377" lon="14.532851107241124"><ele>459.0</ele><time>2026-04-29T12:59:22.001Z</time></trkpt><trkpt lat="37.59889694882723" lon="14.532940839847427"><ele>459.0</ele><time>2026-04-29T12:59:23.001Z</time></trkpt><trkpt lat="37.598858116848625" lon="14.533023315432501"><ele>459.0</ele><time>2026-04-29T12:59:24.001Z</time></trkpt><trkpt lat="37.59881857803846" lon="14.533100936140388"><ele>458.6666666666667</ele><time>2026-04-29T12:59:25.001Z</time></trkpt><trkpt lat="37.598781223286295" lon="14.533174269227255"><ele>458.33333333333337</ele><time>2026-04-29T12:59:26.001Z</time></trkpt><trkpt lat="37.59874773356024" lon="14.533248156823179"><ele>458.0</ele><time>2026-04-29T12:59:27.001Z</time></trkpt><trkpt lat="37.59872200776725" lon="14.533409801382296"><ele>457.6666666666667</ele><time>2026-04-29T12:59:29.001Z</time></trkpt><trkpt lat="37.59871365485396" lon="14.533490702921613"><ele>457.33333333333337</ele><time>2026-04-29T12:59:30.001Z</time></trkpt><trkpt lat="37.59870448820305" lon="14.533577994658039"><ele>457.0</ele><time>2026-04-29T12:59:31.001Z</time></trkpt><trkpt lat="37.598694573875235" lon="14.533663775148213"><ele>456.4285714285715</ele><time>2026-04-29T12:59:32.001Z</time></trkpt><trkpt lat="37.59868407487703" lon="14.533750220765862"><ele>455.8571428571429</ele><time>2026-04-29T12:59:33.001Z</time></trkpt><trkpt lat="37.598673444791615" lon="14.533836083650183"><ele>455.2857142857143</ele><time>2026-04-29T12:59:34.001Z</time></trkpt><trkpt lat="37.59866003692939" lon="14.53391635378976"><ele>454.7142857142857</ele><time>2026-04-29T12:59:35.001Z</time></trkpt><trkpt lat="37.59864580749889" lon="14.534002091287068"><ele>454.1428571428571</ele><time>2026-04-29T12:59:36.001Z</time></trkpt><trkpt lat="37.5986283479407" lon="14.534087721642893"><ele>453.5714285714285</ele><time>2026-04-29T12:59:37.001Z</time></trkpt><trkpt lat="37.5986096178638" lon="14.53417145025892"><ele>452.99999999999994</ele><time>2026-04-29T12:59:38.001Z</time></trkpt><trkpt lat="37.598585382317005" lon="14.534254135071679"><ele>453.0</ele><time>2026-04-29T12:59:39.001Z</time></trkpt><trkpt lat="37.59855158462366" lon="14.534353694406011"><ele>453.0</ele><time>2026-04-29T12:59:40.001Z</time></trkpt><trkpt lat="37.59852525718714" lon="14.534455471949151"><ele>453.0</ele><time>2026-04-29T12:59:41.001Z</time></trkpt><trkpt lat="37.59850805113963" lon="14.534555715615237"><ele>453.0</ele><time>2026-04-29T12:59:42.001Z</time></trkpt><trkpt lat="37.598494186390894" lon="14.534649792429327"><ele>453.0</ele><time>2026-04-29T12:59:43.001Z</time></trkpt><trkpt lat="37.59847274485701" lon="14.534750949801293"><ele>453.0</ele><time>2026-04-29T12:59:44.001Z</time></trkpt><trkpt lat="37.59845106862423" lon="14.534851630402093"><ele>451.4</ele><time>2026-04-29T12:59:45.001Z</time></trkpt><trkpt lat="37.59842829772466" lon="14.53495558485612"><ele>449.79999999999995</ele><time>2026-04-29T12:59:46.001Z</time></trkpt><trkpt lat="37.59840436924853" lon="14.535062929509188"><ele>448.2</ele><time>2026-04-29T12:59:47.001Z</time></trkpt><trkpt lat="37.598379489107685" lon="14.535177029493312"><ele>446.6</ele><time>2026-04-29T12:59:48.001Z</time></trkpt><trkpt lat="37.59836182764748" lon="14.535297396273855"><ele>445.0</ele><time>2026-04-29T12:59:49.001Z</time></trkpt><trkpt lat="37.59835872349636" lon="14.535430369953703"><ele>443.0</ele><time>2026-04-29T12:59:50.001Z</time></trkpt><trkpt lat="37.59836144830823" lon="14.535552674798787"><ele>441.0</ele><time>2026-04-29T12:59:51.001Z</time></trkpt><trkpt lat="37.598362998159494" lon="14.535667874527773"><ele>439.0</ele><time>2026-04-29T12:59:52.001Z</time></trkpt><trkpt lat="37.59836964356165" lon="14.53579258133379"><ele>437.0</ele><time>2026-04-29T12:59:53.001Z</time></trkpt><trkpt lat="37.59835812837312" lon="14.535907437730696"><ele>435.0</ele><time>2026-04-29T12:59:54.001Z</time></trkpt><trkpt lat="37.59834650666705" lon="14.53602318937076"><ele>435.0</ele><time>2026-04-29T12:59:55.001Z</time></trkpt><trkpt lat="37.5983237427644" lon="14.536131578595404"><ele>435.0</ele><time>2026-04-29T12:59:56.001Z</time></trkpt><trkpt lat="37.59831519041352" lon="14.536250254678887"><ele>435.0</ele><time>2026-04-29T12:59:57.001Z</time></trkpt><trkpt lat="37.598306946057264" lon="14.536374976964206"><ele>435.0</ele><time>2026-04-29T12:59:58.001Z</time></trkpt><trkpt lat="37.598297557814085" lon="14.536487965415736"><ele>435.0</ele><time>2026-04-29T12:59:59.001Z</time></trkpt><trkpt lat="37.598284054827424" lon="14.536591069598401"><ele>434.1666666666667</ele><time>2026-04-29T13:00:00.001Z</time></trkpt><trkpt lat="37.598268801927006" lon="14.53669590209196"><ele>433.33333333333337</ele><time>2026-04-29T13:00:01.001Z</time></trkpt><trkpt lat="37.598250619627244" lon="14.536805929262115"><ele>432.5</ele><time>2026-04-29T13:00:02.001Z</time></trkpt><trkpt lat="37.59823083886344" lon="14.536914964698255"><ele>431.6666666666667</ele><time>2026-04-29T13:00:03.001Z</time></trkpt><trkpt lat="37.59821005516588" lon="14.537011124153842"><ele>430.83333333333337</ele><time>2026-04-29T13:00:04.001Z</time></trkpt><trkpt lat="37.598175223668385" lon="14.537094897588306"><ele>430.0</ele><time>2026-04-29T13:00:05.001Z</time></trkpt><trkpt lat="37.59813339990071" lon="14.537164117481765"><ele>429.1666666666667</ele><time>2026-04-29T13:00:06.001Z</time></trkpt><trkpt lat="37.59808349618037" lon="14.537256334788148"><ele>428.33333333333337</ele><time>2026-04-29T13:00:07.001Z</time></trkpt><trkpt lat="37.598043065575695" lon="14.537358590174057"><ele>427.5</ele><time>2026-04-29T13:00:08.001Z</time></trkpt><trkpt lat="37.59800789079201" lon="14.537451983292442"><ele>426.66666666666663</ele><time>2026-04-29T13:00:09.001Z</time></trkpt><trkpt lat="37.59797205852802" lon="14.537553058502308"><ele>425.8333333333333</ele><time>2026-04-29T13:00:10.001Z</time></trkpt><trkpt lat="37.59793703359958" lon="14.537652280922117"><ele>425.0</ele><time>2026-04-29T13:00:11.001Z</time></trkpt><trkpt lat="37.59790322039749" lon="14.537748070646591"><ele>425.0</ele><time>2026-04-29T13:00:12.001Z</time></trkpt><trkpt lat="37.5978661487423" lon="14.537858409668068"><ele>425.0</ele><time>2026-04-29T13:00:13.001Z</time></trkpt><trkpt lat="37.59783151662116" lon="14.537975465452869"><ele>425.0</ele><time>2026-04-29T13:00:14.001Z</time></trkpt><trkpt lat="37.59781796778454" lon="14.538121154454599"><ele>425.0</ele><time>2026-04-29T13:00:15.001Z</time></trkpt><trkpt lat="37.597774790764404" lon="14.538271355246728"><ele>425.0</ele><time>2026-04-29T13:00:16.001Z</time></trkpt><trkpt lat="37.59770498552616" lon="14.538398179976172"><ele>422.75</ele><time>2026-04-29T13:00:17.001Z</time></trkpt><trkpt lat="37.59766218223757" lon="14.538516478230848"><ele>420.5</ele><time>2026-04-29T13:00:18.001Z</time></trkpt><trkpt lat="37.59761688801985" lon="14.538652260244238"><ele>418.25</ele><time>2026-04-29T13:00:19.001Z</time></trkpt><trkpt lat="37.59757488264302" lon="14.538793476604459"><ele>416.0</ele><time>2026-04-29T13:00:20.001Z</time></trkpt><trkpt lat="37.5975305688231" lon="14.538946273200148"><ele>415.0</ele><time>2026-04-29T13:00:21.001Z</time></trkpt><trkpt lat="37.59748812574733" lon="14.539092648298896"><ele>414.0</ele><time>2026-04-29T13:00:22.001Z</time></trkpt><trkpt lat="37.597446699503514" lon="14.539235516612326"><ele>413.0</ele><time>2026-04-29T13:00:23.001Z</time></trkpt><trkpt lat="37.59740913157533" lon="14.539365078604467"><ele>412.0</ele><time>2026-04-29T13:00:24.001Z</time></trkpt><trkpt lat="37.59736658265003" lon="14.539502231323537"><ele>410.6</ele><time>2026-04-29T13:00:25.001Z</time></trkpt><trkpt lat="37.59731478862912" lon="14.53962611966282"><ele>409.20000000000005</ele><time>2026-04-29T13:00:26.001Z</time></trkpt><trkpt lat="37.59726499576657" lon="14.539733118920187"><ele>407.8</ele><time>2026-04-29T13:00:27.001Z</time></trkpt><trkpt lat="37.59723484589774" lon="14.539826878057472"><ele>406.4</ele><time>2026-04-29T13:00:28.001Z</time></trkpt><trkpt lat="37.597210251686874" lon="14.53990888176589"><ele>405.0</ele><time>2026-04-29T13:00:29.001Z</time></trkpt><trkpt lat="37.59717709946917" lon="14.54001942017835"><ele>405.0</ele><time>2026-04-29T13:00:31.001Z</time></trkpt><trkpt lat="37.597111085414696" lon="14.539876158779986"><ele>405.0</ele><time>2026-04-29T13:00:36.001Z</time></trkpt><trkpt lat="37.59703622598743" lon="14.539752712956309"><ele>405.0</ele><time>2026-04-29T13:00:37.001Z</time></trkpt><trkpt lat="37.596935249831894" lon="14.539615997927921"><ele>405.0</ele><time>2026-04-29T13:00:38.001Z</time></trkpt><trkpt lat="37.59685116895246" lon="14.539446320305505"><ele>404.33333333333337</ele><time>2026-04-29T13:00:39.001Z</time></trkpt><trkpt lat="37.5967427859153" lon="14.539290930725398"><ele>403.6666666666667</ele><time>2026-04-29T13:00:40.001Z</time></trkpt><trkpt lat="37.5966568288005" lon="14.539131533558914"><ele>403.0</ele><time>2026-04-29T13:00:41.001Z</time></trkpt><trkpt lat="37.59658203463754" lon="14.53897006216975"><ele>403.0</ele><time>2026-04-29T13:00:42.001Z</time></trkpt><trkpt lat="37.59651356410181" lon="14.53881116385819"><ele>403.0</ele><time>2026-04-29T13:00:43.001Z</time></trkpt><trkpt lat="37.596443064651915" lon="14.538670560959481"><ele>403.0</ele><time>2026-04-29T13:00:44.001Z</time></trkpt><trkpt lat="37.59636032252531" lon="14.538543619975322"><ele>403.0</ele><time>2026-04-29T13:00:45.001Z</time></trkpt><trkpt lat="37.596260322677665" lon="14.538433083134708"><ele>402.0</ele><time>2026-04-29T13:00:46.001Z</time></trkpt><trkpt lat="37.59614170949486" lon="14.538334945328685"><ele>401.0</ele><time>2026-04-29T13:00:47.001Z</time></trkpt><trkpt lat="37.596014283149266" lon="14.538249089628833"><ele>400.0</ele><time>2026-04-29T13:00:48.001Z</time></trkpt><trkpt lat="37.59587084021583" lon="14.538176569099424"><ele>399.0</ele><time>2026-04-29T13:00:49.001Z</time></trkpt><trkpt lat="37.59575294983245" lon="14.538078273024993"><ele>399.0</ele><time>2026-04-29T13:00:50.001Z</time></trkpt><trkpt lat="37.59564446727848" lon="14.538000987576991"><ele>399.0</ele><time>2026-04-29T13:00:51.001Z</time></trkpt><trkpt lat="37.59554938479464" lon="14.53791444211436"><ele>399.0</ele><time>2026-04-29T13:00:52.001Z</time></trkpt><trkpt lat="37.595452279971724" lon="14.537815066153042"><ele>399.0</ele><time>2026-04-29T13:00:53.001Z</time></trkpt><trkpt lat="37.595345717309925" lon="14.5377094274663"><ele>398.5</ele><time>2026-04-29T13:00:54.001Z</time></trkpt><trkpt lat="37.59524803634977" lon="14.53757894608114"><ele>398.0</ele><time>2026-04-29T13:00:55.001Z</time></trkpt><trkpt lat="37.59514655997471" lon="14.537459872066103"><ele>397.5</ele><time>2026-04-29T13:00:56.001Z</time></trkpt><trkpt lat="37.595050137469556" lon="14.53735420750454"><ele>397.0</ele><time>2026-04-29T13:00:57.001Z</time></trkpt><trkpt lat="37.594959643049755" lon="14.537241920776518"><ele>397.0</ele><time>2026-04-29T13:00:58.001Z</time></trkpt><trkpt lat="37.59485264907284" lon="14.537174446448162"><ele>397.0</ele><time>2026-04-29T13:00:59.001Z</time></trkpt><trkpt lat="37.59473517098175" lon="14.537136521151863"><ele>397.0</ele><time>2026-04-29T13:01:00.001Z</time></trkpt><trkpt lat="37.59461247492609" lon="14.537120237162226"><ele>397.0</ele><time>2026-04-29T13:01:01.001Z</time></trkpt><trkpt lat="37.59448009698872" lon="14.53711665590925"><ele>398.25</ele><time>2026-04-29T13:01:02.001Z</time></trkpt><trkpt lat="37.59434632524309" lon="14.537114973640946"><ele>399.5</ele><time>2026-04-29T13:01:03.001Z</time></trkpt><trkpt lat="37.59422996738483" lon="14.537104703471295"><ele>400.75</ele><time>2026-04-29T13:01:04.001Z</time></trkpt><trkpt lat="37.59412827618343" lon="14.537083657769104"><ele>402.0</ele><time>2026-04-29T13:01:05.001Z</time></trkpt><trkpt lat="37.594026215086195" lon="14.537040422220022"><ele>402.75</ele><time>2026-04-29T13:01:06.001Z</time></trkpt><trkpt lat="37.59392280191683" lon="14.536965854413838"><ele>403.5</ele><time>2026-04-29T13:01:07.001Z</time></trkpt><trkpt lat="37.5938143042478" lon="14.536868920775639"><ele>404.25</ele><time>2026-04-29T13:01:08.001Z</time></trkpt><trkpt lat="37.5937016328431" lon="14.536782203231958"><ele>405.0</ele><time>2026-04-29T13:01:09.001Z</time></trkpt><trkpt lat="37.593600360584624" lon="14.536688752265462"><ele>405.0</ele><time>2026-04-29T13:01:10.001Z</time></trkpt><trkpt lat="37.59350328598185" lon="14.536571422533262"><ele>405.0</ele><time>2026-04-29T13:01:11.001Z</time></trkpt><trkpt lat="37.59338838573209" lon="14.536481195582825"><ele>405.0</ele><time>2026-04-29T13:01:12.001Z</time></trkpt><trkpt lat="37.59329540986462" lon="14.536367345904036"><ele>405.0</ele><time>2026-04-29T13:01:13.001Z</time></trkpt><trkpt lat="37.59322504344982" lon="14.536222701110342"><ele>405.5</ele><time>2026-04-29T13:01:14.001Z</time></trkpt><trkpt lat="37.59314328274586" lon="14.536071741386413"><ele>406.0</ele><time>2026-04-29T13:01:15.001Z</time></trkpt><trkpt lat="37.59305071034855" lon="14.535922050914612"><ele>406.5</ele><time>2026-04-29T13:01:16.001Z</time></trkpt><trkpt lat="37.59297334005231" lon="14.535767717606744"><ele>407.0</ele><time>2026-04-29T13:01:17.001Z</time></trkpt><trkpt lat="37.59289243871514" lon="14.535623187496723"><ele>405.0</ele><time>2026-04-29T13:01:18.001Z</time></trkpt><trkpt lat="37.592812964593406" lon="14.535484818942324"><ele>403.0</ele><time>2026-04-29T13:01:19.001Z</time></trkpt><trkpt lat="37.59273948532052" lon="14.53534660831658"><ele>401.0</ele><time>2026-04-29T13:01:20.001Z</time></trkpt><trkpt lat="37.592668004120924" lon="14.535214560423537"><ele>399.0</ele><time>2026-04-29T13:01:21.001Z</time></trkpt><trkpt lat="37.59260291821019" lon="14.535085533341478"><ele>399.0</ele><time>2026-04-29T13:01:22.001Z</time></trkpt><trkpt lat="37.59254286097044" lon="14.534955876784446"><ele>399.0</ele><time>2026-04-29T13:01:23.001Z</time></trkpt><trkpt lat="37.59248807470748" lon="14.534823179022274"><ele>399.0</ele><time>2026-04-29T13:01:24.001Z</time></trkpt><trkpt lat="37.59244769793255" lon="14.534686174954825"><ele>399.0</ele><time>2026-04-29T13:01:25.001Z</time></trkpt><trkpt lat="37.59242195722191" lon="14.53454681910314"><ele>397.25</ele><time>2026-04-29T13:01:26.001Z</time></trkpt><trkpt lat="37.59240920256832" lon="14.534396051789987"><ele>395.5</ele><time>2026-04-29T13:01:27.001Z</time></trkpt><trkpt lat="37.59240688311183" lon="14.534239588758325"><ele>393.75</ele><time>2026-04-29T13:01:28.001Z</time></trkpt><trkpt lat="37.59240187428195" lon="14.534081201885995"><ele>392.0</ele><time>2026-04-29T13:01:29.001Z</time></trkpt><trkpt lat="37.59238289819769" lon="14.533922187321355"><ele>392.0</ele><time>2026-04-29T13:01:30.001Z</time></trkpt><trkpt lat="37.59235746567604" lon="14.533773425653013"><ele>392.0</ele><time>2026-04-29T13:01:31.001Z</time></trkpt><trkpt lat="37.59233486685098" lon="14.533626997632181"><ele>392.0</ele><time>2026-04-29T13:01:32.001Z</time></trkpt><trkpt lat="37.59230707157137" lon="14.53347421480429"><ele>392.0</ele><time>2026-04-29T13:01:33.001Z</time></trkpt><trkpt lat="37.592272215337765" lon="14.533320118111295"><ele>388.75</ele><time>2026-04-29T13:01:34.001Z</time></trkpt><trkpt lat="37.592237865270356" lon="14.533162850852538"><ele>385.5</ele><time>2026-04-29T13:01:35.001Z</time></trkpt><trkpt lat="37.59220007007552" lon="14.533006533630411"><ele>382.25</ele><time>2026-04-29T13:01:36.001Z</time></trkpt><trkpt lat="37.59216091158175" lon="14.532855815737921"><ele>379.0</ele><time>2026-04-29T13:01:37.001Z</time></trkpt><trkpt lat="37.592124392902406" lon="14.532708461137744"><ele>378.0</ele><time>2026-04-29T13:01:38.001Z</time></trkpt><trkpt lat="37.592092833085765" lon="14.532558083126494"><ele>377.0</ele><time>2026-04-29T13:01:39.001Z</time></trkpt><trkpt lat="37.59206517563948" lon="14.532423347782004"><ele>376.0</ele><time>2026-04-29T13:01:40.001Z</time></trkpt><trkpt lat="37.59202151283762" lon="14.532289024428207"><ele>375.0</ele><time>2026-04-29T13:01:41.001Z</time></trkpt><trkpt lat="37.59196439535964" lon="14.532151127206918"><ele>373.0</ele><time>2026-04-29T13:01:42.001Z</time></trkpt><trkpt lat="37.59188829704815" lon="14.532011649971112"><ele>371.0</ele><time>2026-04-29T13:01:43.001Z</time></trkpt><trkpt lat="37.5917993355089" lon="14.531864841037628"><ele>369.0</ele><time>2026-04-29T13:01:44.001Z</time></trkpt><trkpt lat="37.59169751554875" lon="14.531710044393892"><ele>367.0</ele><time>2026-04-29T13:01:45.001Z</time></trkpt><trkpt lat="37.5915998171833" lon="14.531558683625066"><ele>367.0</ele><time>2026-04-29T13:01:46.001Z</time></trkpt><trkpt lat="37.59150806727098" lon="14.531405466698995"><ele>367.0</ele><time>2026-04-29T13:01:47.001Z</time></trkpt><trkpt lat="37.59141134627349" lon="14.531247644619315"><ele>367.0</ele><time>2026-04-29T13:01:48.001Z</time></trkpt><trkpt lat="37.591306990995534" lon="14.531090292719325"><ele>367.66666666666663</ele><time>2026-04-29T13:01:49.001Z</time></trkpt><trkpt lat="37.591207718010864" lon="14.53093810666543"><ele>368.3333333333333</ele><time>2026-04-29T13:01:50.001Z</time></trkpt><trkpt lat="37.59110949578842" lon="14.530786734720387"><ele>369.0</ele><time>2026-04-29T13:01:51.001Z</time></trkpt><trkpt lat="37.5910097122423" lon="14.530632353491347"><ele>366.3333333333333</ele><time>2026-04-29T13:01:52.001Z</time></trkpt><trkpt lat="37.590910818846005" lon="14.530471775117455"><ele>363.66666666666663</ele><time>2026-04-29T13:01:53.001Z</time></trkpt><trkpt lat="37.59081810351811" lon="14.530313075700203"><ele>361.0</ele><time>2026-04-29T13:01:54.001Z</time></trkpt><trkpt lat="37.59072056856462" lon="14.530160520335771"><ele>360.3333333333333</ele><time>2026-04-29T13:01:55.001Z</time></trkpt><trkpt lat="37.590625560989224" lon="14.530012171202833"><ele>359.6666666666667</ele><time>2026-04-29T13:01:56.001Z</time></trkpt><trkpt lat="37.590530470219164" lon="14.529854873508231"><ele>359.0</ele><time>2026-04-29T13:01:57.001Z</time></trkpt><trkpt lat="37.5904336556421" lon="14.529693697637562"><ele>357.6666666666667</ele><time>2026-04-29T13:01:58.001Z</time></trkpt><trkpt lat="37.59033683787635" lon="14.529536070007314"><ele>356.3333333333333</ele><time>2026-04-29T13:01:59.001Z</time></trkpt><trkpt lat="37.59024394088951" lon="14.52938657992547"><ele>355.0</ele><time>2026-04-29T13:02:00.001Z</time></trkpt><trkpt lat="37.590153440936234" lon="14.529234197365989"><ele>355.0</ele><time>2026-04-29T13:02:01.001Z</time></trkpt><trkpt lat="37.59006822420167" lon="14.529087097857225"><ele>355.0</ele><time>2026-04-29T13:02:02.001Z</time></trkpt><trkpt lat="37.58999102542969" lon="14.528945066665422"><ele>355.0</ele><time>2026-04-29T13:02:03.001Z</time></trkpt><trkpt lat="37.58991348062924" lon="14.528808804206461"><ele>355.0</ele><time>2026-04-29T13:02:04.001Z</time></trkpt><trkpt lat="37.58983714698606" lon="14.528673449076088"><ele>354.5</ele><time>2026-04-29T13:02:05.001Z</time></trkpt><trkpt lat="37.58976575681152" lon="14.528527427852998"><ele>354.0</ele><time>2026-04-29T13:02:06.001Z</time></trkpt><trkpt lat="37.58971007021116" lon="14.528368476380026"><ele>353.5</ele><time>2026-04-29T13:02:07.001Z</time></trkpt><trkpt lat="37.58966328704042" lon="14.528196369220225"><ele>353.0</ele><time>2026-04-29T13:02:08.001Z</time></trkpt><trkpt lat="37.58960961502033" lon="14.528040081336815"><ele>352.0</ele><time>2026-04-29T13:02:09.001Z</time></trkpt><trkpt lat="37.58956267486931" lon="14.527878882707968"><ele>351.0</ele><time>2026-04-29T13:02:10.001Z</time></trkpt><trkpt lat="37.58952672071672" lon="14.527710580121138"><ele>350.0</ele><time>2026-04-29T13:02:11.001Z</time></trkpt><trkpt lat="37.58946999224248" lon="14.527543187609888"><ele>349.0</ele><time>2026-04-29T13:02:12.001Z</time></trkpt><trkpt lat="37.589419828537146" lon="14.527361217965721"><ele>348.25</ele><time>2026-04-29T13:02:13.001Z</time></trkpt><trkpt lat="37.589371048504304" lon="14.527186067928922"><ele>347.5</ele><time>2026-04-29T13:02:14.001Z</time></trkpt><trkpt lat="37.589334440322624" lon="14.527008222328343"><ele>346.75</ele><time>2026-04-29T13:02:15.001Z</time></trkpt><trkpt lat="37.58931610884831" lon="14.52681864055977"><ele>346.0</ele><time>2026-04-29T13:02:16.001Z</time></trkpt><trkpt lat="37.58931731638875" lon="14.526627642192107"><ele>345.25</ele><time>2026-04-29T13:02:17.001Z</time></trkpt><trkpt lat="37.5893384147441" lon="14.526443471297274"><ele>344.5</ele><time>2026-04-29T13:02:18.001Z</time></trkpt><trkpt lat="37.58932385690275" lon="14.526261150843672"><ele>343.75</ele><time>2026-04-29T13:02:19.001Z</time></trkpt><trkpt lat="37.58931567177406" lon="14.526076905444006"><ele>343.0</ele><time>2026-04-29T13:02:20.001Z</time></trkpt><trkpt lat="37.58929506746074" lon="14.525881755903201"><ele>342.66666666666663</ele><time>2026-04-29T13:02:21.001Z</time></trkpt><trkpt lat="37.589243357888186" lon="14.525686210614138"><ele>342.3333333333333</ele><time>2026-04-29T13:02:22.001Z</time></trkpt><trkpt lat="37.58918357620855" lon="14.52550309428803"><ele>342.0</ele><time>2026-04-29T13:02:23.001Z</time></trkpt><trkpt lat="37.58913355887275" lon="14.525329328725872"><ele>343.0</ele><time>2026-04-29T13:02:24.001Z</time></trkpt><trkpt lat="37.58910104866224" lon="14.525146021398022"><ele>344.0</ele><time>2026-04-29T13:02:25.001Z</time></trkpt><trkpt lat="37.589085165844416" lon="14.524953192905738"><ele>345.0</ele><time>2026-04-29T13:02:26.001Z</time></trkpt><trkpt lat="37.58907574422503" lon="14.524755771594943"><ele>345.0</ele><time>2026-04-29T13:02:27.001Z</time></trkpt><trkpt lat="37.58906473279554" lon="14.524563959158046"><ele>345.0</ele><time>2026-04-29T13:02:28.001Z</time></trkpt><trkpt lat="37.589054666763296" lon="14.524388753281718"><ele>345.0</ele><time>2026-04-29T13:02:29.001Z</time></trkpt><trkpt lat="37.58906287294023" lon="14.524220122447991"><ele>345.0</ele><time>2026-04-29T13:02:30.001Z</time></trkpt><trkpt lat="37.589081842015226" lon="14.524055742853307"><ele>345.25</ele><time>2026-04-29T13:02:31.001Z</time></trkpt><trkpt lat="37.58909616176037" lon="14.523900393525846"><ele>345.5</ele><time>2026-04-29T13:02:32.001Z</time></trkpt><trkpt lat="37.58910435688516" lon="14.523757958934466"><ele>345.75</ele><time>2026-04-29T13:02:33.001Z</time></trkpt><trkpt lat="37.58910535335906" lon="14.52361811481055"><ele>346.0</ele><time>2026-04-29T13:02:34.001Z</time></trkpt><trkpt lat="37.58910350014875" lon="14.52346914590295"><ele>346.0</ele><time>2026-04-29T13:02:35.001Z</time></trkpt><trkpt lat="37.58909850963291" lon="14.523310418058898"><ele>346.0</ele><time>2026-04-29T13:02:36.001Z</time></trkpt><trkpt lat="37.58908496985655" lon="14.523151832498758"><ele>346.0</ele><time>2026-04-29T13:02:37.001Z</time></trkpt><trkpt lat="37.58905858909319" lon="14.5230019000702"><ele>346.0</ele><time>2026-04-29T13:02:38.001Z</time></trkpt><trkpt lat="37.589019966621464" lon="14.522839322030292"><ele>345.8</ele><time>2026-04-29T13:02:39.001Z</time></trkpt><trkpt lat="37.58898256066062" lon="14.522690900089042"><ele>345.6</ele><time>2026-04-29T13:02:40.001Z</time></trkpt><trkpt lat="37.5889457375443" lon="14.522559516639758"><ele>345.4</ele><time>2026-04-29T13:02:41.001Z</time></trkpt><trkpt lat="37.58889532224991" lon="14.522449379753235"><ele>345.2</ele><time>2026-04-29T13:02:42.001Z</time></trkpt><trkpt lat="37.58882362921324" lon="14.522353052844164"><ele>345.0</ele><time>2026-04-29T13:02:43.001Z</time></trkpt><trkpt lat="37.58873127830568" lon="14.522253497349535"><ele>343.75</ele><time>2026-04-29T13:02:44.001Z</time></trkpt><trkpt lat="37.58862790894622" lon="14.522159259259467"><ele>342.5</ele><time>2026-04-29T13:02:45.001Z</time></trkpt><trkpt lat="37.58852857568392" lon="14.522066361366809"><ele>341.25</ele><time>2026-04-29T13:02:46.001Z</time></trkpt><trkpt lat="37.58844099697791" lon="14.52197773962354"><ele>340.0</ele><time>2026-04-29T13:02:47.001Z</time></trkpt><trkpt lat="37.588360025475325" lon="14.521881606883484"><ele>340.0</ele><time>2026-04-29T13:02:48.001Z</time></trkpt><trkpt lat="37.58829752319137" lon="14.521776013224775"><ele>340.0</ele><time>2026-04-29T13:02:49.001Z</time></trkpt><trkpt lat="37.58825826264476" lon="14.521667333597227"><ele>340.0</ele><time>2026-04-29T13:02:50.001Z</time></trkpt><trkpt lat="37.58823375196271" lon="14.521562364290977"><ele>340.0</ele><time>2026-04-29T13:02:51.001Z</time></trkpt><trkpt lat="37.58819798327112" lon="14.521427716664078"><ele>340.0</ele><time>2026-04-29T13:02:53.001Z</time></trkpt><trkpt lat="37.588093046051625" lon="14.521364838992803"><ele>340.0</ele><time>2026-04-29T13:02:55.001Z</time></trkpt><trkpt lat="37.58801680516995" lon="14.521320395258028"><ele>340.0</ele><time>2026-04-29T13:02:56.001Z</time></trkpt><trkpt lat="37.58792508438847" lon="14.521287000584985"><ele>340.0</ele><time>2026-04-29T13:02:57.001Z</time></trkpt><trkpt lat="37.58783218706371" lon="14.521273213241397"><ele>340.0</ele><time>2026-04-29T13:02:58.001Z</time></trkpt><trkpt lat="37.58773404269787" lon="14.521260111778275"><ele>340.0</ele><time>2026-04-29T13:02:59.001Z</time></trkpt><trkpt lat="37.58763381861651" lon="14.521244375227461"><ele>342.0</ele><time>2026-04-29T13:03:00.001Z</time></trkpt><trkpt lat="37.587542603228556" lon="14.521220850339557"><ele>344.0</ele><time>2026-04-29T13:03:01.001Z</time></trkpt><trkpt lat="37.58744779531108" lon="14.521184284886866"><ele>346.0</ele><time>2026-04-29T13:03:02.001Z</time></trkpt><trkpt lat="37.587343763356785" lon="14.521160380892503"><ele>348.0</ele><time>2026-04-29T13:03:03.001Z</time></trkpt><trkpt lat="37.58724133467185" lon="14.521152341535188"><ele>350.0</ele><time>2026-04-29T13:03:04.001Z</time></trkpt><trkpt lat="37.58714448984686" lon="14.521153155708193"><ele>350.0</ele><time>2026-04-29T13:03:05.001Z</time></trkpt><trkpt lat="37.58704925449526" lon="14.521185333585455"><ele>350.0</ele><time>2026-04-29T13:03:06.001Z</time></trkpt><trkpt lat="37.5869725424479" lon="14.521256530631177"><ele>350.0</ele><time>2026-04-29T13:03:07.001Z</time></trkpt><trkpt lat="37.5869010760078" lon="14.52133376723937"><ele>350.0</ele><time>2026-04-29T13:03:08.001Z</time></trkpt><trkpt lat="37.58682445694391" lon="14.52139711552268"><ele>350.0</ele><time>2026-04-29T13:03:09.001Z</time></trkpt><trkpt lat="37.58674108400448" lon="14.521437752770899"><ele>350.0</ele><time>2026-04-29T13:03:10.001Z</time></trkpt><trkpt lat="37.58664663909131" lon="14.521500018720957"><ele>350.0</ele><time>2026-04-29T13:03:11.001Z</time></trkpt><trkpt lat="37.58656308869236" lon="14.521558445652603"><ele>350.0</ele><time>2026-04-29T13:03:12.001Z</time></trkpt><trkpt lat="37.586478313183214" lon="14.52161952222279"><ele>350.0</ele><time>2026-04-29T13:03:13.001Z</time></trkpt><trkpt lat="37.586380130740324" lon="14.521696039127095"><ele>350.0</ele><time>2026-04-29T13:03:14.001Z</time></trkpt><trkpt lat="37.586286511786085" lon="14.521783336905157"><ele>350.0</ele><time>2026-04-29T13:03:15.001Z</time></trkpt><trkpt lat="37.58621273904304" lon="14.521866315624882"><ele>350.0</ele><time>2026-04-29T13:03:16.001Z</time></trkpt><trkpt lat="37.58614022895631" lon="14.521946477315645"><ele>350.0</ele><time>2026-04-29T13:03:17.001Z</time></trkpt><trkpt lat="37.58606308800593" lon="14.522018500028032"><ele>350.0</ele><time>2026-04-29T13:03:18.001Z</time></trkpt><trkpt lat="37.58598472510347" lon="14.522068635734733"><ele>350.0</ele><time>2026-04-29T13:03:19.001Z</time></trkpt><trkpt lat="37.58589792902636" lon="14.522111247049594"><ele>351.1666666666667</ele><time>2026-04-29T13:03:20.001Z</time></trkpt><trkpt lat="37.5858141877539" lon="14.522141912507767"><ele>352.33333333333337</ele><time>2026-04-29T13:03:21.001Z</time></trkpt><trkpt lat="37.585738463495964" lon="14.522161857279128"><ele>353.5</ele><time>2026-04-29T13:03:22.001Z</time></trkpt><trkpt lat="37.58566446321845" lon="14.522169944741512"><ele>354.6666666666667</ele><time>2026-04-29T13:03:23.001Z</time></trkpt><trkpt lat="37.585588612834314" lon="14.522163399881128"><ele>355.8333333333333</ele><time>2026-04-29T13:03:24.001Z</time></trkpt><trkpt lat="37.58552373774263" lon="14.522140017484025"><ele>357.0</ele><time>2026-04-29T13:03:25.001Z</time></trkpt><trkpt lat="37.585452953962125" lon="14.52210255164639"><ele>357.8</ele><time>2026-04-29T13:03:26.001Z</time></trkpt><trkpt lat="37.58536249869248" lon="14.522055132201494"><ele>358.6</ele><time>2026-04-29T13:03:27.001Z</time></trkpt><trkpt lat="37.58529346470601" lon="14.521976777631602"><ele>359.40000000000003</ele><time>2026-04-29T13:03:28.001Z</time></trkpt><trkpt lat="37.58524030567822" lon="14.521888835561606"><ele>360.20000000000005</ele><time>2026-04-29T13:03:29.001Z</time></trkpt><trkpt lat="37.58519687905869" lon="14.521791650687726"><ele>361.0</ele><time>2026-04-29T13:03:30.001Z</time></trkpt><trkpt lat="37.58516463737948" lon="14.521692894935375"><ele>361.3333333333333</ele><time>2026-04-29T13:03:31.001Z</time></trkpt><trkpt lat="37.58515708036911" lon="14.521595098469113"><ele>361.66666666666663</ele><time>2026-04-29T13:03:32.001Z</time></trkpt><trkpt lat="37.58517042451636" lon="14.521483556269432"><ele>362.0</ele><time>2026-04-29T13:03:33.001Z</time></trkpt><trkpt lat="37.58518562998965" lon="14.521368191351586"><ele>362.3333333333333</ele><time>2026-04-29T13:03:34.001Z</time></trkpt><trkpt lat="37.58519423075015" lon="14.521253146930897"><ele>362.6666666666667</ele><time>2026-04-29T13:03:35.001Z</time></trkpt><trkpt lat="37.58519725132501" lon="14.521133056956808"><ele>363.0</ele><time>2026-04-29T13:03:36.001Z</time></trkpt><trkpt lat="37.58519345109776" lon="14.521016024582952"><ele>363.6666666666667</ele><time>2026-04-29T13:03:37.001Z</time></trkpt><trkpt lat="37.585182338139845" lon="14.520903172852993"><ele>364.3333333333333</ele><time>2026-04-29T13:03:38.001Z</time></trkpt><trkpt lat="37.58516187120619" lon="14.520795053294552"><ele>365.0</ele><time>2026-04-29T13:03:39.001Z</time></trkpt><trkpt lat="37.58513885539662" lon="14.520692123261854"><ele>365.66666666666663</ele><time>2026-04-29T13:03:40.001Z</time></trkpt><trkpt lat="37.58514867393599" lon="14.520596112353086"><ele>366.3333333333333</ele><time>2026-04-29T13:03:41.001Z</time></trkpt><trkpt lat="37.585157118113685" lon="14.520514790637552"><ele>367.0</ele><time>2026-04-29T13:03:42.001Z</time></trkpt><trkpt lat="37.585192056073815" lon="14.520433499906222"><ele>366.0</ele><time>2026-04-29T13:03:43.001Z</time></trkpt><trkpt lat="37.585172167425426" lon="14.520336704763208"><ele>365.0</ele><time>2026-04-29T13:03:44.001Z</time></trkpt><trkpt lat="37.58517000453861" lon="14.520241464661297"><ele>364.0</ele><time>2026-04-29T13:03:45.001Z</time></trkpt><trkpt lat="37.585120312814" lon="14.520145612923237"><ele>363.0</ele><time>2026-04-29T13:03:46.001Z</time></trkpt><trkpt lat="37.58505015086826" lon="14.520050039280767"><ele>362.0</ele><time>2026-04-29T13:03:47.001Z</time></trkpt><trkpt lat="37.58496753056785" lon="14.519959402059296"><ele>362.0</ele><time>2026-04-29T13:03:48.001Z</time></trkpt><trkpt lat="37.584883271091826" lon="14.519880470183214"><ele>362.0</ele><time>2026-04-29T13:03:49.001Z</time></trkpt><trkpt lat="37.58480649325782" lon="14.519812662357403"><ele>362.0</ele><time>2026-04-29T13:03:50.001Z</time></trkpt><trkpt lat="37.584727387993" lon="14.51975569022777"><ele>362.0</ele><time>2026-04-29T13:03:51.001Z</time></trkpt><trkpt lat="37.58466685770241" lon="14.519675313359285"><ele>362.0</ele><time>2026-04-29T13:03:52.001Z</time></trkpt><trkpt lat="37.5846030941302" lon="14.519614114149032"><ele>363.5</ele><time>2026-04-29T13:03:53.001Z</time></trkpt><trkpt lat="37.584541965591306" lon="14.519543418454171"><ele>365.0</ele><time>2026-04-29T13:03:54.001Z</time></trkpt><trkpt lat="37.584484140543125" lon="14.51946394680396"><ele>366.5</ele><time>2026-04-29T13:03:55.001Z</time></trkpt><trkpt lat="37.584446659979776" lon="14.519367900776913"><ele>368.0</ele><time>2026-04-29T13:03:56.001Z</time></trkpt><trkpt lat="37.584404941163704" lon="14.519275697952795"><ele>369.5</ele><time>2026-04-29T13:03:57.001Z</time></trkpt><trkpt lat="37.58433926543272" lon="14.519192987249728"><ele>371.0</ele><time>2026-04-29T13:03:58.001Z</time></trkpt><trkpt lat="37.584263427519126" lon="14.519099289207526"><ele>371.0</ele><time>2026-04-29T13:03:59.001Z</time></trkpt><trkpt lat="37.584193588519646" lon="14.519012769902451"><ele>371.0</ele><time>2026-04-29T13:04:00.001Z</time></trkpt><trkpt lat="37.5841246055818" lon="14.518931630501404"><ele>371.0</ele><time>2026-04-29T13:04:01.001Z</time></trkpt><trkpt lat="37.58406759235024" lon="14.518848918035674"><ele>371.0</ele><time>2026-04-29T13:04:02.001Z</time></trkpt><trkpt lat="37.584011791621876" lon="14.518765864103571"><ele>371.0</ele><time>2026-04-29T13:04:03.001Z</time></trkpt><trkpt lat="37.58395268096684" lon="14.518693070574216"><ele>371.0</ele><time>2026-04-29T13:04:04.001Z</time></trkpt><trkpt lat="37.58389281900504" lon="14.518628548721011"><ele>370.0</ele><time>2026-04-29T13:04:05.001Z</time></trkpt><trkpt lat="37.58382551966113" lon="14.518577447575202"><ele>369.0</ele><time>2026-04-29T13:04:06.001Z</time></trkpt><trkpt lat="37.583768372487704" lon="14.518510457738847"><ele>368.0</ele><time>2026-04-29T13:04:07.001Z</time></trkpt><trkpt lat="37.583691042612486" lon="14.51845645424204"><ele>367.0</ele><time>2026-04-29T13:04:08.001Z</time></trkpt><trkpt lat="37.58361270594656" lon="14.518400335912306"><ele>366.0</ele><time>2026-04-29T13:04:09.001Z</time></trkpt><trkpt lat="37.58353235980045" lon="14.518365359055615"><ele>365.0</ele><time>2026-04-29T13:04:10.001Z</time></trkpt><trkpt lat="37.58347384513729" lon="14.518297980073301"><ele>365.0</ele><time>2026-04-29T13:04:11.001Z</time></trkpt><trkpt lat="37.58340743988321" lon="14.51825202674014"><ele>365.0</ele><time>2026-04-29T13:04:12.001Z</time></trkpt><trkpt lat="37.58334025648278" lon="14.51821007900233"><ele>365.0</ele><time>2026-04-29T13:04:13.001Z</time></trkpt><trkpt lat="37.58326665049521" lon="14.51817384580264"><ele>365.0</ele><time>2026-04-29T13:04:14.001Z</time></trkpt><trkpt lat="37.58319407533322" lon="14.518149266425622"><ele>365.0</ele><time>2026-04-29T13:04:15.001Z</time></trkpt><trkpt lat="37.58311783364625" lon="14.518130304536726"><ele>365.0</ele><time>2026-04-29T13:04:16.001Z</time></trkpt><trkpt lat="37.58305060305562" lon="14.518113306055373"><ele>365.0</ele><time>2026-04-29T13:04:17.001Z</time></trkpt><trkpt lat="37.582980489537306" lon="14.51808941861659"><ele>365.0</ele><time>2026-04-29T13:04:18.001Z</time></trkpt><trkpt lat="37.582913618515576" lon="14.518057968237787"><ele>365.0</ele><time>2026-04-29T13:04:19.001Z</time></trkpt><trkpt lat="37.58285085981508" lon="14.51802143858217"><ele>365.0</ele><time>2026-04-29T13:04:20.001Z</time></trkpt><trkpt lat="37.58274227071824" lon="14.517960758053919"><ele>365.0</ele><time>2026-04-29T13:04:22.001Z</time></trkpt><trkpt lat="37.582683475486505" lon="14.517902039712023"><ele>365.0</ele><time>2026-04-29T13:04:23.001Z</time></trkpt><trkpt lat="37.58262381592685" lon="14.517834310672615"><ele>362.0</ele><time>2026-04-29T13:04:24.001Z</time></trkpt><trkpt lat="37.582564689812" lon="14.517763483053185"><ele>359.0</ele><time>2026-04-29T13:04:25.001Z</time></trkpt><trkpt lat="37.58249637777509" lon="14.517690125698039"><ele>356.0</ele><time>2026-04-29T13:04:26.001Z</time></trkpt><trkpt lat="37.5824248728719" lon="14.517615832310412"><ele>353.0</ele><time>2026-04-29T13:04:27.001Z</time></trkpt><trkpt lat="37.58235654191861" lon="14.517549705766212"><ele>350.0</ele><time>2026-04-29T13:04:28.001Z</time></trkpt><trkpt lat="37.582292292384246" lon="14.517486588960239"><ele>347.0</ele><time>2026-04-29T13:04:29.001Z</time></trkpt><trkpt lat="37.5822286268785" lon="14.51742702089016"><ele>347.0</ele><time>2026-04-29T13:04:30.001Z</time></trkpt><trkpt lat="37.58215871467246" lon="14.517373261049512"><ele>347.0</ele><time>2026-04-29T13:04:31.001Z</time></trkpt><trkpt lat="37.58208960775217" lon="14.517326431298262"><ele>347.0</ele><time>2026-04-29T13:04:32.001Z</time></trkpt><trkpt lat="37.58201845420706" lon="14.517280447233565"><ele>347.0</ele><time>2026-04-29T13:04:33.001Z</time></trkpt><trkpt lat="37.58194513206385" lon="14.517243551081128"><ele>347.0</ele><time>2026-04-29T13:04:34.001Z</time></trkpt><trkpt lat="37.58186590203177" lon="14.517212128261386"><ele>347.0</ele><time>2026-04-29T13:04:35.001Z</time></trkpt><trkpt lat="37.58178754437535" lon="14.517181243329356"><ele>345.1666666666667</ele><time>2026-04-29T13:04:36.001Z</time></trkpt><trkpt lat="37.58171876609731" lon="14.517135858634683"><ele>343.33333333333337</ele><time>2026-04-29T13:04:37.001Z</time></trkpt><trkpt lat="37.581647921794946" lon="14.517070996276619"><ele>341.5</ele><time>2026-04-29T13:04:38.001Z</time></trkpt><trkpt lat="37.58157537506117" lon="14.516991841973692"><ele>339.6666666666667</ele><time>2026-04-29T13:04:39.001Z</time></trkpt><trkpt lat="37.58150234882632" lon="14.516919704021356"><ele>337.8333333333333</ele><time>2026-04-29T13:04:40.001Z</time></trkpt><trkpt lat="37.581434600193575" lon="14.516846927450786"><ele>336.0</ele><time>2026-04-29T13:04:41.001Z</time></trkpt><trkpt lat="37.58137891979867" lon="14.516771529166714"><ele>334.4</ele><time>2026-04-29T13:04:42.001Z</time></trkpt><trkpt lat="37.581324544535924" lon="14.516678552046853"><ele>332.8</ele><time>2026-04-29T13:04:43.001Z</time></trkpt><trkpt lat="37.581272973844456" lon="14.516572203396594"><ele>331.2</ele><time>2026-04-29T13:04:44.001Z</time></trkpt><trkpt lat="37.58122553215109" lon="14.516459866615609"><ele>329.59999999999997</ele><time>2026-04-29T13:04:45.001Z</time></trkpt><trkpt lat="37.58116819896509" lon="14.516352804525349"><ele>328.0</ele><time>2026-04-29T13:04:46.001Z</time></trkpt><trkpt lat="37.58109615114169" lon="14.516257701810426"><ele>325.0</ele><time>2026-04-29T13:04:47Z</time></trkpt><trkpt lat="37.58102725550744" lon="14.516166900583764"><ele>322.0</ele><time>2026-04-29T13:04:48.001Z</time></trkpt><trkpt lat="37.580956787024746" lon="14.516079056523553"><ele>319.0</ele><time>2026-04-29T13:04:49Z</time></trkpt><trkpt lat="37.580884717042984" lon="14.515999781609471"><ele>316.0</ele><time>2026-04-29T13:04:50Z</time></trkpt><trkpt lat="37.580823288300174" lon="14.515922623059312"><ele>313.0</ele><time>2026-04-29T13:04:51Z</time></trkpt><trkpt lat="37.580769928714176" lon="14.515841720234988"><ele>313.0</ele><time>2026-04-29T13:04:52Z</time></trkpt><trkpt lat="37.58072103205139" lon="14.515768298447533"><ele>313.0</ele><time>2026-04-29T13:04:53Z</time></trkpt><trkpt lat="37.580668158498" lon="14.515697716800243"><ele>313.0</ele><time>2026-04-29T13:04:54Z</time></trkpt><trkpt lat="37.58060976380965" lon="14.515638742892936"><ele>313.0</ele><time>2026-04-29T13:04:55Z</time></trkpt><trkpt lat="37.580571237804165" lon="14.515573609983711"><ele>313.0</ele><time>2026-04-29T13:04:56Z</time></trkpt><trkpt lat="37.580546367584546" lon="14.515394492206822"><ele>313.0</ele><time>2026-04-29T13:04:58Z</time></trkpt><trkpt lat="37.580546367582976" lon="14.515264989430628"><ele>313.2</ele><time>2026-04-29T13:05:00Z</time></trkpt><trkpt lat="37.58044742322277" lon="14.515288268307904"><ele>313.4</ele><time>2026-04-29T13:05:02Z</time></trkpt><trkpt lat="37.58037504634252" lon="14.515309425300272"><ele>313.59999999999997</ele><time>2026-04-29T13:05:04Z</time></trkpt><trkpt lat="37.58026758755644" lon="14.515318141113758"><ele>313.8</ele><time>2026-04-29T13:05:05Z</time></trkpt><trkpt lat="37.58013957502946" lon="14.515310702042681"><ele>314.0</ele><time>2026-04-29T13:05:06Z</time></trkpt><trkpt lat="37.58000400638793" lon="14.515304946003097"><ele>313.0</ele><time>2026-04-29T13:05:07Z</time></trkpt><trkpt lat="37.57986420739784" lon="14.515299621927255"><ele>312.0</ele><time>2026-04-29T13:05:08Z</time></trkpt><trkpt lat="37.5797289779144" lon="14.51531102831716"><ele>311.0</ele><time>2026-04-29T13:05:09Z</time></trkpt><trkpt lat="37.579598308526705" lon="14.51534307719839"><ele>310.0</ele><time>2026-04-29T13:05:10Z</time></trkpt><trkpt lat="37.5794739184047" lon="14.515358922266476"><ele>309.75</ele><time>2026-04-29T13:05:11Z</time></trkpt><trkpt lat="37.579336236027444" lon="14.515345653305273"><ele>309.5</ele><time>2026-04-29T13:05:12Z</time></trkpt><trkpt lat="37.57917789437657" lon="14.515327324528165"><ele>309.25</ele><time>2026-04-29T13:05:13Z</time></trkpt><trkpt lat="37.579038227056394" lon="14.515330665565902"><ele>309.0</ele><time>2026-04-29T13:05:14Z</time></trkpt><trkpt lat="37.578918720655835" lon="14.515359029087964"><ele>306.75</ele><time>2026-04-29T13:05:15Z</time></trkpt><trkpt lat="37.57879638306576" lon="14.515415594349964"><ele>304.5</ele><time>2026-04-29T13:05:16Z</time></trkpt><trkpt lat="37.57865256427309" lon="14.51546558320797"><ele>302.25</ele><time>2026-04-29T13:05:17Z</time></trkpt><trkpt lat="37.5785074211429" lon="14.515507377648108"><ele>300.0</ele><time>2026-04-29T13:05:18Z</time></trkpt><trkpt lat="37.57834666116108" lon="14.515549167918477"><ele>300.0</ele><time>2026-04-29T13:05:19Z</time></trkpt><trkpt lat="37.578193280728584" lon="14.515590889997172"><ele>300.0</ele><time>2026-04-29T13:05:20Z</time></trkpt><trkpt lat="37.57805737893289" lon="14.515638653051141"><ele>300.0</ele><time>2026-04-29T13:05:21Z</time></trkpt><trkpt lat="37.57794135830871" lon="14.515691528408071"><ele>300.0</ele><time>2026-04-29T13:05:22Z</time></trkpt><trkpt lat="37.577836203964225" lon="14.515728757622394"><ele>299.4</ele><time>2026-04-29T13:05:23Z</time></trkpt><trkpt lat="37.577742058238286" lon="14.515743995372302"><ele>298.8</ele><time>2026-04-29T13:05:24Z</time></trkpt><trkpt lat="37.57764076576801" lon="14.515736980514724"><ele>298.2</ele><time>2026-04-29T13:05:25Z</time></trkpt><trkpt lat="37.57752867618842" lon="14.515702025657124"><ele>297.6</ele><time>2026-04-29T13:05:26Z</time></trkpt><trkpt lat="37.57742991626677" lon="14.515650751700267"><ele>297.0</ele><time>2026-04-29T13:05:27Z</time></trkpt><trkpt lat="37.577334616718296" lon="14.515583944470862"><ele>297.0</ele><time>2026-04-29T13:05:28Z</time></trkpt><trkpt lat="37.57723746792303" lon="14.515524735955664"><ele>297.0</ele><time>2026-04-29T13:05:29Z</time></trkpt><trkpt lat="37.577135485812775" lon="14.51548025974396"><ele>297.0</ele><time>2026-04-29T13:05:30Z</time></trkpt><trkpt lat="37.57703462854952" lon="14.515429646418212"><ele>297.0</ele><time>2026-04-29T13:05:31Z</time></trkpt><trkpt lat="37.57694276319087" lon="14.51537157050782"><ele>297.0</ele><time>2026-04-29T13:05:32Z</time></trkpt><trkpt lat="37.576862122431585" lon="14.515325675730388"><ele>296.8</ele><time>2026-04-29T13:05:33Z</time></trkpt><trkpt lat="37.57679158913065" lon="14.515288831764646"><ele>296.6</ele><time>2026-04-29T13:05:34Z</time></trkpt><trkpt lat="37.57671462553787" lon="14.515251170117018"><ele>296.40000000000003</ele><time>2026-04-29T13:05:35Z</time></trkpt><trkpt lat="37.57662706072343" lon="14.515191762871225"><ele>296.2</ele><time>2026-04-29T13:05:36Z</time></trkpt><trkpt lat="37.57653080605741" lon="14.51510833122786"><ele>296.0</ele><time>2026-04-29T13:05:37Z</time></trkpt><trkpt lat="37.57642973443195" lon="14.515010407209308"><ele>296.0</ele><time>2026-04-29T13:05:38Z</time></trkpt><trkpt lat="37.576316354791466" lon="14.514910322963164"><ele>296.0</ele><time>2026-04-29T13:05:39Z</time></trkpt><trkpt lat="37.57618578070099" lon="14.514819908749198"><ele>296.0</ele><time>2026-04-29T13:05:40.001Z</time></trkpt><trkpt lat="37.576041445893146" lon="14.51474051923375"><ele>296.0</ele><time>2026-04-29T13:05:41Z</time></trkpt><trkpt lat="37.57591318547441" lon="14.51465500052603"><ele>297.0</ele><time>2026-04-29T13:05:42Z</time></trkpt><trkpt lat="37.5758078230632" lon="14.514577587427421"><ele>298.0</ele><time>2026-04-29T13:05:43.001Z</time></trkpt><trkpt lat="37.57570868383648" lon="14.514485907912233"><ele>299.0</ele><time>2026-04-29T13:05:44.001Z</time></trkpt><trkpt lat="37.57561143019929" lon="14.514382754008949"><ele>300.0</ele><time>2026-04-29T13:05:45.001Z</time></trkpt><trkpt lat="37.575502780611" lon="14.514272198630064"><ele>301.6</ele><time>2026-04-29T13:05:46.001Z</time></trkpt><trkpt lat="37.575395030114564" lon="14.514191246990094"><ele>303.2</ele><time>2026-04-29T13:05:47.001Z</time></trkpt><trkpt lat="37.57530386757601" lon="14.514119546692147"><ele>304.8</ele><time>2026-04-29T13:05:48.001Z</time></trkpt><trkpt lat="37.57522975891401" lon="14.514044986591465"><ele>306.4</ele><time>2026-04-29T13:05:49.001Z</time></trkpt><trkpt lat="37.57517085048666" lon="14.513951266906364"><ele>308.0</ele><time>2026-04-29T13:05:50.001Z</time></trkpt><trkpt lat="37.57511770823173" lon="14.51384382610949"><ele>308.8</ele><time>2026-04-29T13:05:51.001Z</time></trkpt><trkpt lat="37.57505872051419" lon="14.513724342145453"><ele>309.6</ele><time>2026-04-29T13:05:52.001Z</time></trkpt><trkpt lat="37.57498787342897" lon="14.51363881323611"><ele>310.4</ele><time>2026-04-29T13:05:53.001Z</time></trkpt><trkpt lat="37.57490654751562" lon="14.513575366235962"><ele>311.2</ele><time>2026-04-29T13:05:54.001Z</time></trkpt><trkpt lat="37.574841168467884" lon="14.513539373769353"><ele>312.0</ele><time>2026-04-29T13:05:55.001Z</time></trkpt><trkpt lat="37.574702157563465" lon="14.513619578113467"><ele>312.0</ele><time>2026-04-29T13:05:56.001Z</time></trkpt><trkpt lat="37.57466306455931" lon="14.51354611818138"><ele>312.0</ele><time>2026-04-29T13:05:59.001Z</time></trkpt><trkpt lat="37.5745716800173" lon="14.513606127245717"><ele>312.0</ele><time>2026-04-29T13:06:01.001Z</time></trkpt><trkpt lat="37.574651891590484" lon="14.513576023599144"><ele>312.0</ele><time>2026-04-29T13:06:02.001Z</time></trkpt><trkpt lat="37.57457835535461" lon="14.513698755195133"><ele>312.0</ele><time>2026-04-29T13:07:12Z</time></trkpt><trkpt lat="37.57448612505626" lon="14.513649735038163"><ele>310.0</ele><time>2026-04-29T13:10:55.999Z</time></trkpt><trkpt lat="37.574427100842726" lon="14.513568187309662"><ele>308.0</ele><time>2026-04-29T13:10:56.999Z</time></trkpt><trkpt lat="37.574348137077536" lon="14.513484432992481"><ele>306.0</ele><time>2026-04-29T13:10:57.999Z</time></trkpt><trkpt lat="37.57426590036732" lon="14.513417084391095"><ele>304.0</ele><time>2026-04-29T13:10:58.999Z</time></trkpt><trkpt lat="37.57423247883667" lon="14.51321499907055"><ele>304.0</ele><time>2026-04-29T13:10:59.999Z</time></trkpt><trkpt lat="37.57411676557348" lon="14.513154216642073"><ele>304.0</ele><time>2026-04-29T13:11:00.999Z</time></trkpt><trkpt lat="37.5739884399076" lon="14.513085342225642"><ele>304.0</ele><time>2026-04-29T13:11:01.999Z</time></trkpt><trkpt lat="37.573883466490784" lon="14.513020054841473"><ele>304.0</ele><time>2026-04-29T13:11:02.999Z</time></trkpt><trkpt lat="37.573779971854265" lon="14.512950111700837"><ele>302.25</ele><time>2026-04-29T13:11:03.999Z</time></trkpt><trkpt lat="37.573676333319945" lon="14.512874802017832"><ele>300.5</ele><time>2026-04-29T13:11:04.999Z</time></trkpt><trkpt lat="37.57356507069775" lon="14.51278288471277"><ele>298.75</ele><time>2026-04-29T13:11:05.999Z</time></trkpt><trkpt lat="37.57344200741402" lon="14.512665096110267"><ele>297.0</ele><time>2026-04-29T13:11:06.999Z</time></trkpt><trkpt lat="37.57332692800061" lon="14.512544663438174"><ele>297.0</ele><time>2026-04-29T13:11:07.999Z</time></trkpt><trkpt lat="37.57322970385083" lon="14.512434374601364"><ele>297.0</ele><time>2026-04-29T13:11:08.999Z</time></trkpt><trkpt lat="37.57311574327209" lon="14.512301525994085"><ele>297.0</ele><time>2026-04-29T13:11:09.999Z</time></trkpt><trkpt lat="37.572981054653305" lon="14.512165606295016"><ele>293.0</ele><time>2026-04-29T13:11:10.999Z</time></trkpt><trkpt lat="37.572842502251554" lon="14.512042566010365"><ele>289.0</ele><time>2026-04-29T13:11:11.999Z</time></trkpt><trkpt lat="37.57270776191968" lon="14.511937426449418"><ele>285.0</ele><time>2026-04-29T13:11:12.999Z</time></trkpt><trkpt lat="37.572592486749855" lon="14.511860081439634"><ele>285.0</ele><time>2026-04-29T13:11:13.999Z</time></trkpt><trkpt lat="37.57245853420721" lon="14.511785274396535"><ele>285.0</ele><time>2026-04-29T13:11:14.999Z</time></trkpt><trkpt lat="37.57231099172674" lon="14.511716110346285"><ele>285.0</ele><time>2026-04-29T13:11:15.999Z</time></trkpt><trkpt lat="37.57215296239164" lon="14.511648044298445"><ele>281.0</ele><time>2026-04-29T13:11:16.999Z</time></trkpt><trkpt lat="37.5719811967387" lon="14.511586558941573"><ele>277.0</ele><time>2026-04-29T13:11:17.999Z</time></trkpt><trkpt lat="37.57183399125563" lon="14.511541449155647"><ele>273.0</ele><time>2026-04-29T13:11:18.999Z</time></trkpt><trkpt lat="37.57171970286963" lon="14.51149330261227"><ele>273.0</ele><time>2026-04-29T13:11:19.999Z</time></trkpt><trkpt lat="37.57161250689416" lon="14.511438818505763"><ele>273.0</ele><time>2026-04-29T13:11:20.999Z</time></trkpt><trkpt lat="37.57150995142901" lon="14.511362406108741"><ele>273.0</ele><time>2026-04-29T13:11:21.999Z</time></trkpt><trkpt lat="37.57140036230578" lon="14.511269684185491"><ele>273.0</ele><time>2026-04-29T13:11:22.999Z</time></trkpt><trkpt lat="37.571295575533995" lon="14.511169527651246"><ele>272.4</ele><time>2026-04-29T13:11:23.999Z</time></trkpt><trkpt lat="37.57119964234551" lon="14.511071240858762"><ele>271.8</ele><time>2026-04-29T13:11:24.999Z</time></trkpt><trkpt lat="37.571116924687175" lon="14.510978821923004"><ele>271.2</ele><time>2026-04-29T13:11:25.999Z</time></trkpt><trkpt lat="37.57104647450511" lon="14.510891167391074"><ele>270.6</ele><time>2026-04-29T13:11:26.999Z</time></trkpt><trkpt lat="37.57098930744023" lon="14.510817468955267"><ele>270.0</ele><time>2026-04-29T13:11:27.999Z</time></trkpt><trkpt lat="37.570906120462496" lon="14.510735462665169"><ele>269.0</ele><time>2026-04-29T13:11:28.999Z</time></trkpt><trkpt lat="37.57083689882343" lon="14.51060864744158"><ele>268.0</ele><time>2026-04-29T13:11:29.999Z</time></trkpt><trkpt lat="37.57073587210473" lon="14.510462185653209"><ele>267.0</ele><time>2026-04-29T13:11:30.999Z</time></trkpt><trkpt lat="37.57062092629977" lon="14.510284023218082"><ele>267.0</ele><time>2026-04-29T13:11:31.999Z</time></trkpt><trkpt lat="37.57051054155956" lon="14.510101380108926"><ele>267.0</ele><time>2026-04-29T13:11:32.999Z</time></trkpt><trkpt lat="37.57040003345995" lon="14.509911209503176"><ele>267.0</ele><time>2026-04-29T13:11:33.999Z</time></trkpt><trkpt lat="37.57029243050648" lon="14.509735436611871"><ele>266.25</ele><time>2026-04-29T13:11:34.999Z</time></trkpt><trkpt lat="37.57019188646573" lon="14.50957796338718"><ele>265.5</ele><time>2026-04-29T13:11:35.999Z</time></trkpt><trkpt lat="37.57010388544692" lon="14.50944898561063"><ele>264.75</ele><time>2026-04-29T13:11:36.999Z</time></trkpt><trkpt lat="37.57003148728685" lon="14.509346189605521"><ele>264.0</ele><time>2026-04-29T13:11:37.999Z</time></trkpt><trkpt lat="37.56996817907335" lon="14.509264104353981"><ele>263.25</ele><time>2026-04-29T13:11:38.999Z</time></trkpt><trkpt lat="37.569882581541314" lon="14.509180056185153"><ele>262.5</ele><time>2026-04-29T13:11:39.999Z</time></trkpt><trkpt lat="37.56976318503237" lon="14.50908472852634"><ele>261.75</ele><time>2026-04-29T13:11:40.999Z</time></trkpt><trkpt lat="37.56961937224716" lon="14.50899392162241"><ele>261.0</ele><time>2026-04-29T13:11:41.999Z</time></trkpt><trkpt lat="37.56946914877862" lon="14.508917248875516"><ele>260.5</ele><time>2026-04-29T13:11:42.999Z</time></trkpt><trkpt lat="37.56933656910783" lon="14.508868510835853"><ele>260.0</ele><time>2026-04-29T13:11:43.999Z</time></trkpt><trkpt lat="37.56922288133653" lon="14.508820368143137"><ele>259.5</ele><time>2026-04-29T13:11:44.999Z</time></trkpt><trkpt lat="37.569091166486785" lon="14.508803724098856"><ele>259.0</ele><time>2026-04-29T13:11:45.999Z</time></trkpt><trkpt lat="37.568946559908284" lon="14.508794123170356"><ele>259.0</ele><time>2026-04-29T13:11:47Z</time></trkpt><trkpt lat="37.568808205871925" lon="14.508776617445529"><ele>259.0</ele><time>2026-04-29T13:11:48Z</time></trkpt><trkpt lat="37.5686897789087" lon="14.508757310140501"><ele>259.0</ele><time>2026-04-29T13:11:49Z</time></trkpt><trkpt lat="37.568573925647875" lon="14.508728938311053"><ele>259.0</ele><time>2026-04-29T13:11:50Z</time></trkpt><trkpt lat="37.56845948760348" lon="14.508688335178988"><ele>261.0</ele><time>2026-04-29T13:11:51Z</time></trkpt><trkpt lat="37.56834265609353" lon="14.50863934267119"><ele>263.0</ele><time>2026-04-29T13:11:52Z</time></trkpt><trkpt lat="37.568224605311975" lon="14.50858585013338"><ele>265.0</ele><time>2026-04-29T13:11:53Z</time></trkpt><trkpt lat="37.56812771699694" lon="14.508539265051958"><ele>267.0</ele><time>2026-04-29T13:11:54Z</time></trkpt><trkpt lat="37.56806630487408" lon="14.508501650523163"><ele>269.0</ele><time>2026-04-29T13:11:55Z</time></trkpt><trkpt lat="37.568010430994164" lon="14.508454299336954"><ele>269.0</ele><time>2026-04-29T13:11:56Z</time></trkpt><trkpt lat="37.567933107874275" lon="14.508371336362753"><ele>269.0</ele><time>2026-04-29T13:11:57Z</time></trkpt><trkpt lat="37.56785016074719" lon="14.508276289188439"><ele>269.0</ele><time>2026-04-29T13:11:58Z</time></trkpt><trkpt lat="37.567778554219615" lon="14.508141704300897"><ele>269.0</ele><time>2026-04-29T13:11:59Z</time></trkpt><trkpt lat="37.567703843959016" lon="14.50800745675258"><ele>267.0</ele><time>2026-04-29T13:12:00Z</time></trkpt><trkpt lat="37.56765066775028" lon="14.507894789369548"><ele>265.0</ele><time>2026-04-29T13:12:00.998Z</time></trkpt><trkpt lat="37.56759873426512" lon="14.507758824663295"><ele>263.0</ele><time>2026-04-29T13:12:01.998Z</time></trkpt><trkpt lat="37.56755008826841" lon="14.507632051680964"><ele>261.0</ele><time>2026-04-29T13:12:02.998Z</time></trkpt><trkpt lat="37.56750428808806" lon="14.507494458702677"><ele>261.0</ele><time>2026-04-29T13:12:03.998Z</time></trkpt><trkpt lat="37.56745355010823" lon="14.50732687047317"><ele>261.0</ele><time>2026-04-29T13:12:04.998Z</time></trkpt><trkpt lat="37.56739299694284" lon="14.5071589712339"><ele>261.0</ele><time>2026-04-29T13:12:05.998Z</time></trkpt><trkpt lat="37.567340106401886" lon="14.507009237950955"><ele>261.0</ele><time>2026-04-29T13:12:06.998Z</time></trkpt><trkpt lat="37.56728750341454" lon="14.506852222504175"><ele>260.6</ele><time>2026-04-29T13:12:07.998Z</time></trkpt><trkpt lat="37.56723626929926" lon="14.506706775341877"><ele>260.20000000000005</ele><time>2026-04-29T13:12:08.998Z</time></trkpt><trkpt lat="37.567179675906345" lon="14.50657188568996"><ele>259.79999999999995</ele><time>2026-04-29T13:12:09.998Z</time></trkpt><trkpt lat="37.5671217098418" lon="14.506453607903607"><ele>259.4</ele><time>2026-04-29T13:12:10.998Z</time></trkpt><trkpt lat="37.56707281455699" lon="14.506370974856154"><ele>259.0</ele><time>2026-04-29T13:12:11.998Z</time></trkpt><trkpt lat="37.56701513235044" lon="14.506322421767255"><ele>258.75</ele><time>2026-04-29T13:12:12.999Z</time></trkpt><trkpt lat="37.566925814954246" lon="14.506284719223812"><ele>258.5</ele><time>2026-04-29T13:12:13.999Z</time></trkpt><trkpt lat="37.566810001069875" lon="14.506259378417576"><ele>258.25</ele><time>2026-04-29T13:12:14.999Z</time></trkpt><trkpt lat="37.56666954508178" lon="14.506215959883328"><ele>258.0</ele><time>2026-04-29T13:12:15.999Z</time></trkpt><trkpt lat="37.566512207640805" lon="14.506188573118258"><ele>258.0</ele><time>2026-04-29T13:12:16.999Z</time></trkpt><trkpt lat="37.56633926695939" lon="14.506142448359475"><ele>258.0</ele><time>2026-04-29T13:12:17.999Z</time></trkpt><trkpt lat="37.56615619905404" lon="14.506091592656356"><ele>258.0</ele><time>2026-04-29T13:12:18.999Z</time></trkpt><trkpt lat="37.56596952807287" lon="14.50604203441686"><ele>258.3333333333333</ele><time>2026-04-29T13:12:19.999Z</time></trkpt><trkpt lat="37.565777436277024" lon="14.505991803047431"><ele>258.66666666666663</ele><time>2026-04-29T13:12:20.999Z</time></trkpt><trkpt lat="37.56557360933901" lon="14.505940721354841"><ele>259.0</ele><time>2026-04-29T13:12:21.999Z</time></trkpt><trkpt lat="37.56540602400281" lon="14.505902270527315"><ele>259.75</ele><time>2026-04-29T13:12:22.999Z</time></trkpt><trkpt lat="37.56526154470099" lon="14.505895824089714"><ele>260.5</ele><time>2026-04-29T13:12:23.999Z</time></trkpt><trkpt lat="37.565138338581555" lon="14.505876963811215"><ele>261.25</ele><time>2026-04-29T13:12:24.999Z</time></trkpt><trkpt lat="37.565027110445236" lon="14.505871432550103"><ele>262.0</ele><time>2026-04-29T13:12:25.999Z</time></trkpt><trkpt lat="37.564894150822695" lon="14.505871066971418"><ele>262.0</ele><time>2026-04-29T13:12:26.999Z</time></trkpt><trkpt lat="37.56476255663794" lon="14.505862504111155"><ele>262.0</ele><time>2026-04-29T13:12:27.999Z</time></trkpt><trkpt lat="37.56464289328361" lon="14.505870669176753"><ele>262.0</ele><time>2026-04-29T13:12:28.999Z</time></trkpt><trkpt lat="37.56449553506938" lon="14.505874160336791"><ele>262.0</ele><time>2026-04-29T13:12:29.999Z</time></trkpt><trkpt lat="37.56432377781167" lon="14.505877516065052"><ele>262.25</ele><time>2026-04-29T13:12:30.999Z</time></trkpt><trkpt lat="37.56416259454441" lon="14.505874888836397"><ele>262.5</ele><time>2026-04-29T13:12:31.999Z</time></trkpt><trkpt lat="37.56403142277404" lon="14.505858357321587"><ele>262.75</ele><time>2026-04-29T13:12:32.999Z</time></trkpt><trkpt lat="37.56392888923129" lon="14.505816869580718"><ele>263.0</ele><time>2026-04-29T13:12:33.999Z</time></trkpt><trkpt lat="37.56380378941383" lon="14.505750427860294"><ele>263.25</ele><time>2026-04-29T13:12:34.999Z</time></trkpt><trkpt lat="37.563667595031994" lon="14.505677278555858"><ele>263.5</ele><time>2026-04-29T13:12:35.999Z</time></trkpt><trkpt lat="37.56355538773898" lon="14.505580794909363"><ele>263.75</ele><time>2026-04-29T13:12:36.999Z</time></trkpt><trkpt lat="37.56345113602797" lon="14.505473427539354"><ele>264.0</ele><time>2026-04-29T13:12:37.999Z</time></trkpt><trkpt lat="37.563340825773665" lon="14.505348263360386"><ele>264.0</ele><time>2026-04-29T13:12:38.999Z</time></trkpt><trkpt lat="37.563220763948756" lon="14.505188067064832"><ele>264.0</ele><time>2026-04-29T13:12:39.999Z</time></trkpt><trkpt lat="37.56311612714448" lon="14.505048137163714"><ele>264.0</ele><time>2026-04-29T13:12:40.999Z</time></trkpt><trkpt lat="37.56303441779098" lon="14.504950033887113"><ele>264.0</ele><time>2026-04-29T13:12:41.999Z</time></trkpt><trkpt lat="37.56293983155808" lon="14.504852254526055"><ele>262.75</ele><time>2026-04-29T13:12:43Z</time></trkpt><trkpt lat="37.56283001344337" lon="14.504751487341483"><ele>261.5</ele><time>2026-04-29T13:12:44Z</time></trkpt><trkpt lat="37.56273303468977" lon="14.504666851980737"><ele>260.25</ele><time>2026-04-29T13:12:45Z</time></trkpt><trkpt lat="37.562637956810825" lon="14.504589394863702"><ele>259.0</ele><time>2026-04-29T13:12:46Z</time></trkpt><trkpt lat="37.56254562614216" lon="14.504517323908244"><ele>258.2</ele><time>2026-04-29T13:12:47Z</time></trkpt><trkpt lat="37.5624545255685" lon="14.504443424977094"><ele>257.4</ele><time>2026-04-29T13:12:48Z</time></trkpt><trkpt lat="37.56237437181388" lon="14.504368416693469"><ele>256.6</ele><time>2026-04-29T13:12:49Z</time></trkpt><trkpt lat="37.562308239720586" lon="14.504290425476578"><ele>255.8</ele><time>2026-04-29T13:12:50Z</time></trkpt><trkpt lat="37.56224313485282" lon="14.504193057988882"><ele>255.0</ele><time>2026-04-29T13:12:51Z</time></trkpt><trkpt lat="37.562179047176244" lon="14.50407706689529"><ele>255.0</ele><time>2026-04-29T13:12:52Z</time></trkpt><trkpt lat="37.56211051470825" lon="14.503940867082962"><ele>255.0</ele><time>2026-04-29T13:12:53Z</time></trkpt><trkpt lat="37.562048120869996" lon="14.503807019884936"><ele>255.0</ele><time>2026-04-29T13:12:54Z</time></trkpt><trkpt lat="37.56199407976266" lon="14.503691801283667"><ele>255.0</ele><time>2026-04-29T13:12:55Z</time></trkpt><trkpt lat="37.5619459627425" lon="14.503602304936646"><ele>255.0</ele><time>2026-04-29T13:12:56Z</time></trkpt><trkpt lat="37.561904976112" lon="14.503538719518447"><ele>252.2</ele><time>2026-04-29T13:12:57Z</time></trkpt><trkpt lat="37.561827291345274" lon="14.503497790514885"><ele>249.4</ele><time>2026-04-29T13:12:59Z</time></trkpt><trkpt lat="37.56175399902294" lon="14.503549750361781"><ele>246.60000000000002</ele><time>2026-04-29T13:13:00Z</time></trkpt><trkpt lat="37.561670223444004" lon="14.503678287046577"><ele>243.8</ele><time>2026-04-29T13:13:01Z</time></trkpt><trkpt lat="37.561568484856004" lon="14.503806518309084"><ele>241.0</ele><time>2026-04-29T13:13:02Z</time></trkpt><trkpt lat="37.561448342653435" lon="14.50395248135981"><ele>241.0</ele><time>2026-04-29T13:13:03Z</time></trkpt><trkpt lat="37.56134161187448" lon="14.504103523788912"><ele>241.0</ele><time>2026-04-29T13:13:04Z</time></trkpt><trkpt lat="37.56126294496834" lon="14.504264983751057"><ele>241.0</ele><time>2026-04-29T13:13:05Z</time></trkpt><trkpt lat="37.56119003125409" lon="14.504434598089247"><ele>240.0</ele><time>2026-04-29T13:13:06Z</time></trkpt><trkpt lat="37.561115493434" lon="14.504584292645703"><ele>239.0</ele><time>2026-04-29T13:13:07Z</time></trkpt><trkpt lat="37.56102820694104" lon="14.504753697610983"><ele>238.0</ele><time>2026-04-29T13:13:08Z</time></trkpt><trkpt lat="37.560935158046036" lon="14.504955364998606"><ele>238.0</ele><time>2026-04-29T13:13:09Z</time></trkpt><trkpt lat="37.56084475824376" lon="14.505170229167536"><ele>238.0</ele><time>2026-04-29T13:13:10Z</time></trkpt><trkpt lat="37.56075059476284" lon="14.50540363601387"><ele>238.0</ele><time>2026-04-29T13:13:11Z</time></trkpt><trkpt lat="37.560656903687864" lon="14.505635871049138"><ele>237.33333333333331</ele><time>2026-04-29T13:13:12Z</time></trkpt><trkpt lat="37.56056454532364" lon="14.505864483379549"><ele>236.66666666666669</ele><time>2026-04-29T13:13:13Z</time></trkpt><trkpt lat="37.560460322403856" lon="14.506127740750282"><ele>236.0</ele><time>2026-04-29T13:13:14Z</time></trkpt><trkpt lat="37.56035398318831" lon="14.506401269396472"><ele>236.0</ele><time>2026-04-29T13:13:15Z</time></trkpt><trkpt lat="37.56025906736899" lon="14.506641686021043"><ele>236.0</ele><time>2026-04-29T13:13:16Z</time></trkpt><trkpt lat="37.56017449927232" lon="14.506855822879132"><ele>236.0</ele><time>2026-04-29T13:13:17Z</time></trkpt><trkpt lat="37.56009465130139" lon="14.507058008006345"><ele>235.5</ele><time>2026-04-29T13:13:18Z</time></trkpt><trkpt lat="37.560018189257214" lon="14.507251619566448"><ele>235.0</ele><time>2026-04-29T13:13:19Z</time></trkpt><trkpt lat="37.55995247388617" lon="14.507418019200317"><ele>234.5</ele><time>2026-04-29T13:13:20Z</time></trkpt><trkpt lat="37.55989964303729" lon="14.507551793561126"><ele>234.0</ele><time>2026-04-29T13:13:21Z</time></trkpt><trkpt lat="37.559861233904705" lon="14.50765020132849"><ele>234.0</ele><time>2026-04-29T13:13:22Z</time></trkpt><trkpt lat="37.55978947087281" lon="14.50767792844476"><ele>233.99999999999997</ele><time>2026-04-29T13:13:25Z</time></trkpt><trkpt lat="37.559716420039656" lon="14.507621989726129"><ele>233.99999999999997</ele><time>2026-04-29T13:13:26Z</time></trkpt><trkpt lat="37.55959584258439" lon="14.50756580516967"><ele>234.0</ele><time>2026-04-29T13:13:27Z</time></trkpt><trkpt lat="37.559481068462084" lon="14.50747234661242"><ele>234.0</ele><time>2026-04-29T13:13:28Z</time></trkpt><trkpt lat="37.55938707818312" lon="14.507398294431006"><ele>234.2</ele><time>2026-04-29T13:13:29Z</time></trkpt><trkpt lat="37.55927328694343" lon="14.507312488929756"><ele>234.39999999999998</ele><time>2026-04-29T13:13:30Z</time></trkpt><trkpt lat="37.55928894519237" lon="14.507158384825594"><ele>234.6</ele><time>2026-04-29T13:13:35Z</time></trkpt><trkpt lat="37.559333234619494" lon="14.507075841938732"><ele>234.8</ele><time>2026-04-29T13:13:36Z</time></trkpt><trkpt lat="37.55937485348417" lon="14.506993381058882"><ele>235.0</ele><time>2026-04-29T13:13:37Z</time></trkpt><trkpt lat="37.55941846756294" lon="14.506892930456026"><ele>235.16666666666666</ele><time>2026-04-29T13:13:38Z</time></trkpt><trkpt lat="37.55945947570235" lon="14.50679653552293"><ele>235.33333333333331</ele><time>2026-04-29T13:13:39Z</time></trkpt><trkpt lat="37.559506675924084" lon="14.506681338348088"><ele>235.5</ele><time>2026-04-29T13:13:40Z</time></trkpt><trkpt lat="37.559551434740314" lon="14.506564366995486"><ele>235.66666666666669</ele><time>2026-04-29T13:13:41Z</time></trkpt><trkpt lat="37.55957639539971" lon="14.506457400031561"><ele>235.83333333333334</ele><time>2026-04-29T13:13:42Z</time></trkpt><trkpt lat="37.55959563505919" lon="14.50637446051612"><ele>236.0</ele><time>2026-04-29T13:13:43Z</time></trkpt><trkpt lat="37.55958919114639" lon="14.506285325547694"><ele>235.50000000000003</ele><time>2026-04-29T13:13:44Z</time></trkpt><trkpt lat="37.559581079358836" lon="14.506178795712893"><ele>235.0</ele><time>2026-04-29T13:13:45Z</time></trkpt><trkpt lat="37.55959212800113" lon="14.506090294421442"><ele>234.5</ele><time>2026-04-29T13:13:46Z</time></trkpt><trkpt lat="37.55962172936868" lon="14.506013541695655"><ele>234.0</ele><time>2026-04-29T13:13:47Z</time></trkpt><trkpt lat="37.559681758142865" lon="14.505917116310759"><ele>233.50000000000003</ele><time>2026-04-29T13:13:48Z</time></trkpt><trkpt lat="37.55973826009127" lon="14.505793656433536"><ele>233.0</ele><time>2026-04-29T13:13:49Z</time></trkpt><trkpt lat="37.55977642154847" lon="14.505666311871492"><ele>233.0</ele><time>2026-04-29T13:13:50Z</time></trkpt><trkpt lat="37.55981507248618" lon="14.505515257440504"><ele>233.0</ele><time>2026-04-29T13:13:51Z</time></trkpt><trkpt lat="37.55986181588424" lon="14.505331079001122"><ele>233.0</ele><time>2026-04-29T13:13:52Z</time></trkpt><trkpt lat="37.559911775860265" lon="14.50514714465962"><ele>233.0</ele><time>2026-04-29T13:13:53Z</time></trkpt><trkpt lat="37.55995264444947" lon="14.504985352764031"><ele>232.8</ele><time>2026-04-29T13:13:54Z</time></trkpt><trkpt lat="37.55998489616522" lon="14.504854535249784"><ele>232.60000000000002</ele><time>2026-04-29T13:13:55Z</time></trkpt><trkpt lat="37.56002468084102" lon="14.50473807741555"><ele>232.39999999999998</ele><time>2026-04-29T13:13:56Z</time></trkpt><trkpt lat="37.56007017443116" lon="14.504631363548505"><ele>232.2</ele><time>2026-04-29T13:13:57Z</time></trkpt><trkpt lat="37.56011754816878" lon="14.504525728880115"><ele>232.0</ele><time>2026-04-29T13:13:58Z</time></trkpt><trkpt lat="37.56016617001495" lon="14.504425787388868"><ele>232.0</ele><time>2026-04-29T13:13:59Z</time></trkpt><trkpt lat="37.560211861052736" lon="14.50431995535845"><ele>232.0</ele><time>2026-04-29T13:14:00Z</time></trkpt><trkpt lat="37.560255673709555" lon="14.504213119956649"><ele>232.0</ele><time>2026-04-29T13:14:01Z</time></trkpt><trkpt lat="37.560311328790625" lon="14.50410368242979"><ele>232.0</ele><time>2026-04-29T13:14:02Z</time></trkpt><trkpt lat="37.56037778511119" lon="14.504008203523716"><ele>232.0</ele><time>2026-04-29T13:14:03Z</time></trkpt><trkpt lat="37.56044490246946" lon="14.50392135122704"><ele>232.39999999999998</ele><time>2026-04-29T13:14:04Z</time></trkpt><trkpt lat="37.56050804411919" lon="14.503830253636075"><ele>232.79999999999998</ele><time>2026-04-29T13:14:05Z</time></trkpt><trkpt lat="37.560567870725535" lon="14.503745916054044"><ele>233.2</ele><time>2026-04-29T13:14:06Z</time></trkpt><trkpt lat="37.56061967776024" lon="14.503658947552648"><ele>233.6</ele><time>2026-04-29T13:14:07Z</time></trkpt><trkpt lat="37.56066679851573" lon="14.503564108982763"><ele>234.0</ele><time>2026-04-29T13:14:08Z</time></trkpt><trkpt lat="37.56071686299972" lon="14.503461691388834"><ele>234.0</ele><time>2026-04-29T13:14:09Z</time></trkpt><trkpt lat="37.560765016685366" lon="14.503361316691496"><ele>233.99999999999997</ele><time>2026-04-29T13:14:10Z</time></trkpt><trkpt lat="37.5608104508392" lon="14.50324298313816"><ele>233.99999999999997</ele><time>2026-04-29T13:14:11Z</time></trkpt><trkpt lat="37.56085043783427" lon="14.503122400035553"><ele>234.0</ele><time>2026-04-29T13:14:12Z</time></trkpt><trkpt lat="37.560895953573464" lon="14.503004965767742"><ele>234.0</ele><time>2026-04-29T13:14:13Z</time></trkpt><trkpt lat="37.560947881505065" lon="14.502890390023206"><ele>234.2</ele><time>2026-04-29T13:14:14Z</time></trkpt><trkpt lat="37.561000950837496" lon="14.502773598044982"><ele>234.39999999999998</ele><time>2026-04-29T13:14:15Z</time></trkpt><trkpt lat="37.56105181690888" lon="14.502662406718423"><ele>234.6</ele><time>2026-04-29T13:14:16Z</time></trkpt><trkpt lat="37.5611071932944" lon="14.502547332037068"><ele>234.8</ele><time>2026-04-29T13:14:17Z</time></trkpt><trkpt lat="37.56116359408695" lon="14.502421396879948"><ele>235.0</ele><time>2026-04-29T13:14:18Z</time></trkpt><trkpt lat="37.56121317748233" lon="14.502298005376073"><ele>235.4</ele><time>2026-04-29T13:14:19Z</time></trkpt><trkpt lat="37.56125974505701" lon="14.502190742431912"><ele>235.8</ele><time>2026-04-29T13:14:20Z</time></trkpt><trkpt lat="37.56130919080757" lon="14.502099809648211"><ele>236.2</ele><time>2026-04-29T13:14:21Z</time></trkpt><trkpt lat="37.561361644607224" lon="14.502005475249469"><ele>236.6</ele><time>2026-04-29T13:14:22Z</time></trkpt><trkpt lat="37.561421134581906" lon="14.501891706927736"><ele>237.0</ele><time>2026-04-29T13:14:23Z</time></trkpt><trkpt lat="37.56148225210977" lon="14.501773730007232"><ele>237.0</ele><time>2026-04-29T13:14:24Z</time></trkpt><trkpt lat="37.56153667192869" lon="14.501666495858773"><ele>237.0</ele><time>2026-04-29T13:14:25Z</time></trkpt><trkpt lat="37.56159344585682" lon="14.501551937087617"><ele>237.0</ele><time>2026-04-29T13:14:26Z</time></trkpt><trkpt lat="37.56166098836433" lon="14.501414756610231"><ele>237.0</ele><time>2026-04-29T13:14:27Z</time></trkpt><trkpt lat="37.561724351946715" lon="14.501296070278324"><ele>237.0</ele><time>2026-04-29T13:14:28Z</time></trkpt><trkpt lat="37.56177808082209" lon="14.501199227109062"><ele>237.0</ele><time>2026-04-29T13:14:29Z</time></trkpt><trkpt lat="37.56182984692843" lon="14.50111365180842"><ele>237.0</ele><time>2026-04-29T13:14:30Z</time></trkpt><trkpt lat="37.56187472073071" lon="14.501030342587484"><ele>237.0</ele><time>2026-04-29T13:14:31Z</time></trkpt><trkpt lat="37.56193376726567" lon="14.500919085531969"><ele>237.0</ele><time>2026-04-29T13:14:32Z</time></trkpt><trkpt lat="37.56199348193102" lon="14.50080438942645"><ele>237.0</ele><time>2026-04-29T13:14:33Z</time></trkpt><trkpt lat="37.56204551962939" lon="14.500694775127139"><ele>237.0</ele><time>2026-04-29T13:14:34Z</time></trkpt><trkpt lat="37.562079783617754" lon="14.500575749717166"><ele>237.0</ele><time>2026-04-29T13:14:35Z</time></trkpt><trkpt lat="37.562104200134044" lon="14.5004431545316"><ele>237.0</ele><time>2026-04-29T13:14:36Z</time></trkpt><trkpt lat="37.56211896332991" lon="14.50031201104742"><ele>237.0</ele><time>2026-04-29T13:14:37Z</time></trkpt><trkpt lat="37.56214027484634" lon="14.500203543264046"><ele>237.0</ele><time>2026-04-29T13:14:38Z</time></trkpt><trkpt lat="37.56217971339923" lon="14.500116913496539"><ele>237.0</ele><time>2026-04-29T13:14:39Z</time></trkpt><trkpt lat="37.56224808280669" lon="14.500028723464649"><ele>237.0</ele><time>2026-04-29T13:14:40Z</time></trkpt><trkpt lat="37.56229926692199" lon="14.499906012545654"><ele>237.0</ele><time>2026-04-29T13:14:41Z</time></trkpt><trkpt lat="37.56235119704938" lon="14.499766908760149"><ele>237.0</ele><time>2026-04-29T13:14:42Z</time></trkpt><trkpt lat="37.56242209208441" lon="14.499632215955092"><ele>238.0</ele><time>2026-04-29T13:14:43Z</time></trkpt><trkpt lat="37.5625093178686" lon="14.499482168740872"><ele>239.0</ele><time>2026-04-29T13:14:44Z</time></trkpt><trkpt lat="37.562587161609464" lon="14.499325458390663"><ele>240.0</ele><time>2026-04-29T13:14:45Z</time></trkpt><trkpt lat="37.56265697992043" lon="14.499173110522154"><ele>241.0</ele><time>2026-04-29T13:14:46Z</time></trkpt><trkpt lat="37.56271715232143" lon="14.499025576345153"><ele>241.0</ele><time>2026-04-29T13:14:47Z</time></trkpt><trkpt lat="37.56278404315208" lon="14.498858904890808"><ele>241.0</ele><time>2026-04-29T13:14:48Z</time></trkpt><trkpt lat="37.56285592999945" lon="14.498685536425949"><ele>241.0</ele><time>2026-04-29T13:14:49Z</time></trkpt><trkpt lat="37.562931814488174" lon="14.498515772261943"><ele>242.66666666666666</ele><time>2026-04-29T13:14:50Z</time></trkpt><trkpt lat="37.563007590487345" lon="14.498341691807795"><ele>244.33333333333331</ele><time>2026-04-29T13:14:51Z</time></trkpt><trkpt lat="37.56308628689682" lon="14.498156194480394"><ele>246.0</ele><time>2026-04-29T13:14:52Z</time></trkpt><trkpt lat="37.563172479269255" lon="14.49796784254146"><ele>245.66666666666669</ele><time>2026-04-29T13:14:53Z</time></trkpt><trkpt lat="37.563262563464036" lon="14.497780469259183"><ele>245.33333333333334</ele><time>2026-04-29T13:14:54Z</time></trkpt><trkpt lat="37.563346101326445" lon="14.497603160158626"><ele>245.0</ele><time>2026-04-29T13:14:55Z</time></trkpt><trkpt lat="37.5634266508757" lon="14.497439997227039"><ele>245.0</ele><time>2026-04-29T13:14:56Z</time></trkpt><trkpt lat="37.56349933696527" lon="14.497295046984371"><ele>245.0</ele><time>2026-04-29T13:14:57Z</time></trkpt><trkpt lat="37.563567404020276" lon="14.497161529864682"><ele>245.0</ele><time>2026-04-29T13:14:58Z</time></trkpt><trkpt lat="37.56364166330579" lon="14.497027781131456"><ele>245.0</ele><time>2026-04-29T13:14:59Z</time></trkpt><trkpt lat="37.56371926752693" lon="14.496880226205354"><ele>245.0</ele><time>2026-04-29T13:15:00Z</time></trkpt><trkpt lat="37.56379053732487" lon="14.496734053844426"><ele>245.0</ele><time>2026-04-29T13:15:01Z</time></trkpt><trkpt lat="37.563858823409944" lon="14.496604787610007"><ele>245.0</ele><time>2026-04-29T13:15:02.001Z</time></trkpt><trkpt lat="37.56392762331513" lon="14.496482768691715"><ele>245.0</ele><time>2026-04-29T13:15:03.001Z</time></trkpt><trkpt lat="37.56401001472071" lon="14.496356510770907"><ele>245.0</ele><time>2026-04-29T13:15:04.001Z</time></trkpt><trkpt lat="37.56410952084631" lon="14.49622241010333"><ele>245.0</ele><time>2026-04-29T13:15:05.001Z</time></trkpt><trkpt lat="37.56422010347643" lon="14.496076972629725"><ele>245.0</ele><time>2026-04-29T13:15:06.001Z</time></trkpt><trkpt lat="37.56432865198157" lon="14.495919800706098"><ele>245.0</ele><time>2026-04-29T13:15:07.001Z</time></trkpt><trkpt lat="37.564432540173875" lon="14.49576085164768"><ele>245.0</ele><time>2026-04-29T13:15:08.001Z</time></trkpt><trkpt lat="37.56453792898857" lon="14.495595178603223"><ele>245.0</ele><time>2026-04-29T13:15:09.001Z</time></trkpt><trkpt lat="37.56463880440371" lon="14.495426951986236"><ele>246.0</ele><time>2026-04-29T13:15:10.001Z</time></trkpt><trkpt lat="37.564733748695154" lon="14.495268907275085"><ele>247.0</ele><time>2026-04-29T13:15:11.001Z</time></trkpt><trkpt lat="37.56483020709961" lon="14.495112713625302"><ele>248.0</ele><time>2026-04-29T13:15:12.001Z</time></trkpt><trkpt lat="37.56491913587794" lon="14.494969806739194"><ele>248.0</ele><time>2026-04-29T13:15:13.001Z</time></trkpt><trkpt lat="37.56500291759171" lon="14.494827606902943"><ele>248.0</ele><time>2026-04-29T13:15:14.001Z</time></trkpt><trkpt lat="37.565085942164046" lon="14.49469210504207"><ele>248.0</ele><time>2026-04-29T13:15:15.001Z</time></trkpt><trkpt lat="37.56517103173589" lon="14.494557373282488"><ele>248.0</ele><time>2026-04-29T13:15:16.001Z</time></trkpt><trkpt lat="37.56526278131132" lon="14.494415876402025"><ele>247.75</ele><time>2026-04-29T13:15:17.001Z</time></trkpt><trkpt lat="37.56535200465626" lon="14.494274848451983"><ele>247.5</ele><time>2026-04-29T13:15:18.001Z</time></trkpt><trkpt lat="37.56543810399641" lon="14.494137207390374"><ele>247.25</ele><time>2026-04-29T13:15:19.001Z</time></trkpt><trkpt lat="37.565529784766554" lon="14.493991608560286"><ele>247.0</ele><time>2026-04-29T13:15:20.001Z</time></trkpt><trkpt lat="37.565630082232694" lon="14.493845107536185"><ele>246.0</ele><time>2026-04-29T13:15:21.001Z</time></trkpt><trkpt lat="37.56571928160626" lon="14.493709927353907"><ele>245.0</ele><time>2026-04-29T13:15:22.001Z</time></trkpt><trkpt lat="37.56581599497672" lon="14.49358154868718"><ele>244.0</ele><time>2026-04-29T13:15:23.001Z</time></trkpt><trkpt lat="37.565923583337955" lon="14.493446931392096"><ele>243.0</ele><time>2026-04-29T13:15:24.001Z</time></trkpt><trkpt lat="37.56602986565706" lon="14.493320937683883"><ele>243.0</ele><time>2026-04-29T13:15:25.001Z</time></trkpt><trkpt lat="37.56614169216813" lon="14.493174290156814"><ele>243.0</ele><time>2026-04-29T13:15:26.001Z</time></trkpt><trkpt lat="37.5662537334298" lon="14.493014706065289"><ele>243.0</ele><time>2026-04-29T13:15:27.001Z</time></trkpt><trkpt lat="37.56635846698956" lon="14.4928681869232"><ele>244.66666666666669</ele><time>2026-04-29T13:15:28.001Z</time></trkpt><trkpt lat="37.566467330918556" lon="14.492717947724167"><ele>246.33333333333334</ele><time>2026-04-29T13:15:29.001Z</time></trkpt><trkpt lat="37.566578467552326" lon="14.492571057183158"><ele>248.0</ele><time>2026-04-29T13:15:30.001Z</time></trkpt><trkpt lat="37.566691531664226" lon="14.492417345714069"><ele>248.0</ele><time>2026-04-29T13:15:31.001Z</time></trkpt><trkpt lat="37.56680237901328" lon="14.49226402986984"><ele>248.0</ele><time>2026-04-29T13:15:32.001Z</time></trkpt><trkpt lat="37.56690075769664" lon="14.4921181027575"><ele>248.0</ele><time>2026-04-29T13:15:33.001Z</time></trkpt><trkpt lat="37.56700293669275" lon="14.49197663089412"><ele>248.0</ele><time>2026-04-29T13:15:34.001Z</time></trkpt><trkpt lat="37.56710310572216" lon="14.491836526438108"><ele>248.0</ele><time>2026-04-29T13:15:35.001Z</time></trkpt><trkpt lat="37.5672055697578" lon="14.491698284577451"><ele>248.0</ele><time>2026-04-29T13:15:36.001Z</time></trkpt><trkpt lat="37.56730793450875" lon="14.491559901789332"><ele>248.0</ele><time>2026-04-29T13:15:37.001Z</time></trkpt><trkpt lat="37.56740426710953" lon="14.491427475690013"><ele>248.0</ele><time>2026-04-29T13:15:38.001Z</time></trkpt><trkpt lat="37.56749070471619" lon="14.491298672293563"><ele>248.0</ele><time>2026-04-29T13:15:39.001Z</time></trkpt><trkpt lat="37.56756073011412" lon="14.491183224154973"><ele>248.0</ele><time>2026-04-29T13:15:40.001Z</time></trkpt><trkpt lat="37.56761240894717" lon="14.491070259571558"><ele>248.0</ele><time>2026-04-29T13:15:41.001Z</time></trkpt><trkpt lat="37.56766870175203" lon="14.49096531928941"><ele>248.0</ele><time>2026-04-29T13:15:42.001Z</time></trkpt><trkpt lat="37.56773721312436" lon="14.490875004620154"><ele>248.0</ele><time>2026-04-29T13:15:43.001Z</time></trkpt><trkpt lat="37.56783386561208" lon="14.490781690886724"><ele>248.0</ele><time>2026-04-29T13:15:44.001Z</time></trkpt><trkpt lat="37.56793402647228" lon="14.490649124596361"><ele>248.0</ele><time>2026-04-29T13:15:45.001Z</time></trkpt><trkpt lat="37.568033522748415" lon="14.490501170598794"><ele>248.0</ele><time>2026-04-29T13:15:46.001Z</time></trkpt><trkpt lat="37.56814297721018" lon="14.490342339709139"><ele>248.0</ele><time>2026-04-29T13:15:47.001Z</time></trkpt><trkpt lat="37.56825344611175" lon="14.490180064897967"><ele>246.66666666666669</ele><time>2026-04-29T13:15:48.001Z</time></trkpt><trkpt lat="37.56836539543331" lon="14.490019579791738"><ele>245.33333333333331</ele><time>2026-04-29T13:15:49.001Z</time></trkpt><trkpt lat="37.56848230495963" lon="14.48985597250035"><ele>244.0</ele><time>2026-04-29T13:15:50.001Z</time></trkpt><trkpt lat="37.56859944597835" lon="14.489683884167338"><ele>245.0</ele><time>2026-04-29T13:15:51.001Z</time></trkpt><trkpt lat="37.5687242290321" lon="14.489505849290541"><ele>246.0</ele><time>2026-04-29T13:15:52.001Z</time></trkpt><trkpt lat="37.56884341275518" lon="14.48933523966713"><ele>247.0</ele><time>2026-04-29T13:15:53.001Z</time></trkpt><trkpt lat="37.568944818384054" lon="14.489192813108938"><ele>247.0</ele><time>2026-04-29T13:15:54.001Z</time></trkpt><trkpt lat="37.569033200481215" lon="14.489053663808235"><ele>247.0</ele><time>2026-04-29T13:15:55.001Z</time></trkpt><trkpt lat="37.569111702059764" lon="14.488905278520757"><ele>247.0</ele><time>2026-04-29T13:15:56.001Z</time></trkpt><trkpt lat="37.569187384655834" lon="14.4887593833649"><ele>247.0</ele><time>2026-04-29T13:15:57.001Z</time></trkpt><trkpt lat="37.56924856723752" lon="14.488634614520086"><ele>247.2</ele><time>2026-04-29T13:15:58.001Z</time></trkpt><trkpt lat="37.56931026194573" lon="14.488534667083696"><ele>247.39999999999998</ele><time>2026-04-29T13:15:59.001Z</time></trkpt><trkpt lat="37.56939358319347" lon="14.488456696353534"><ele>247.60000000000002</ele><time>2026-04-29T13:16:00.001Z</time></trkpt><trkpt lat="37.56949050058766" lon="14.4883816443824"><ele>247.8</ele><time>2026-04-29T13:16:01.001Z</time></trkpt><trkpt lat="37.56956731998541" lon="14.488277962067967"><ele>248.0</ele><time>2026-04-29T13:16:02.001Z</time></trkpt><trkpt lat="37.56963867680338" lon="14.488132887146273"><ele>248.0</ele><time>2026-04-29T13:16:03.001Z</time></trkpt><trkpt lat="37.569712165534916" lon="14.487970948293249"><ele>248.0</ele><time>2026-04-29T13:16:04.001Z</time></trkpt><trkpt lat="37.569783863398236" lon="14.487824171918456"><ele>248.0</ele><time>2026-04-29T13:16:05.001Z</time></trkpt><trkpt lat="37.569853289904316" lon="14.487677721383676"><ele>248.0</ele><time>2026-04-29T13:16:06.001Z</time></trkpt><trkpt lat="37.569916104007596" lon="14.48751907797336"><ele>247.5</ele><time>2026-04-29T13:16:07.001Z</time></trkpt><trkpt lat="37.569971786669235" lon="14.487364311689307"><ele>247.0</ele><time>2026-04-29T13:16:08.001Z</time></trkpt><trkpt lat="37.570011227916304" lon="14.487203371531347"><ele>246.5</ele><time>2026-04-29T13:16:09.001Z</time></trkpt><trkpt lat="37.57004847309183" lon="14.487033090100331"><ele>246.0</ele><time>2026-04-29T13:16:10.001Z</time></trkpt><trkpt lat="37.57008427488452" lon="14.486891396620868"><ele>246.0</ele><time>2026-04-29T13:16:11.001Z</time></trkpt><trkpt lat="37.5701318430227" lon="14.48677512215913"><ele>246.0</ele><time>2026-04-29T13:16:12.001Z</time></trkpt><trkpt lat="37.570198544260805" lon="14.486664334905358"><ele>246.0</ele><time>2026-04-29T13:16:13.001Z</time></trkpt><trkpt lat="37.570272235449316" lon="14.486532483424256"><ele>246.0</ele><time>2026-04-29T13:16:14.001Z</time></trkpt><trkpt lat="37.57033215567362" lon="14.486382255252407"><ele>248.0</ele><time>2026-04-29T13:16:15.001Z</time></trkpt><trkpt lat="37.570380745351216" lon="14.486215132148418"><ele>250.0</ele><time>2026-04-29T13:16:16.001Z</time></trkpt><trkpt lat="37.570430871759115" lon="14.486026325567426"><ele>252.0</ele><time>2026-04-29T13:16:17.001Z</time></trkpt><trkpt lat="37.570480614047476" lon="14.485835862261592"><ele>252.0</ele><time>2026-04-29T13:16:18.001Z</time></trkpt><trkpt lat="37.57052133055056" lon="14.485643863228818"><ele>252.0</ele><time>2026-04-29T13:16:19.001Z</time></trkpt><trkpt lat="37.57055824273765" lon="14.485450571965341"><ele>252.0</ele><time>2026-04-29T13:16:20.001Z</time></trkpt><trkpt lat="37.570593302050945" lon="14.485246647502324"><ele>252.0</ele><time>2026-04-29T13:16:21.001Z</time></trkpt><trkpt lat="37.57062430484769" lon="14.4850477913587"><ele>252.0</ele><time>2026-04-29T13:16:22.001Z</time></trkpt><trkpt lat="37.57065111313242" lon="14.48486425687669"><ele>252.0</ele><time>2026-04-29T13:16:23.001Z</time></trkpt><trkpt lat="37.570668493305" lon="14.484708257109"><ele>252.0</ele><time>2026-04-29T13:16:24.001Z</time></trkpt><trkpt lat="37.57067583598171" lon="14.48455191940091"><ele>252.0</ele><time>2026-04-29T13:16:25.001Z</time></trkpt><trkpt lat="37.57066201798042" lon="14.484380286914641"><ele>252.0</ele><time>2026-04-29T13:16:26.001Z</time></trkpt><trkpt lat="37.570635506546836" lon="14.484207833990668"><ele>252.0</ele><time>2026-04-29T13:16:27.001Z</time></trkpt><trkpt lat="37.570614087267096" lon="14.48406768310152"><ele>252.0</ele><time>2026-04-29T13:16:28.001Z</time></trkpt><trkpt lat="37.570616128150164" lon="14.483938026716094"><ele>252.0</ele><time>2026-04-29T13:16:29.001Z</time></trkpt><trkpt lat="37.57063780945442" lon="14.483778722384647"><ele>252.0</ele><time>2026-04-29T13:16:30.001Z</time></trkpt><trkpt lat="37.57066154767192" lon="14.483608321683722"><ele>252.0</ele><time>2026-04-29T13:16:31.001Z</time></trkpt><trkpt lat="37.570661620393096" lon="14.483433360843247"><ele>252.0</ele><time>2026-04-29T13:16:32.001Z</time></trkpt><trkpt lat="37.570647807874614" lon="14.483247872422382"><ele>251.66666666666666</ele><time>2026-04-29T13:16:33.001Z</time></trkpt><trkpt lat="37.5706343090227" lon="14.483122211870484"><ele>251.33333333333331</ele><time>2026-04-29T13:16:34.001Z</time></trkpt><trkpt lat="37.57063703194932" lon="14.483017646638245"><ele>251.0</ele><time>2026-04-29T13:16:36.001Z</time></trkpt><trkpt lat="37.5706389599775" lon="14.483106121498462"><ele>250.66666666666666</ele><time>2026-04-29T13:16:44.001Z</time></trkpt><trkpt lat="37.570706989834804" lon="14.48319012678984"><ele>250.33333333333331</ele><time>2026-04-29T13:16:46.001Z</time></trkpt><trkpt lat="37.57078659670231" lon="14.483181173790356"><ele>250.0</ele><time>2026-04-29T13:16:48.001Z</time></trkpt><trkpt lat="37.570867028810596" lon="14.483162485098823"><ele>250.0</ele><time>2026-04-29T13:16:51.001Z</time></trkpt><trkpt lat="37.571115533808346" lon="14.483140055293442"><ele>250.0</ele><time>2026-04-29T13:16:56.001Z</time></trkpt><trkpt lat="37.57120351021036" lon="14.483141194049209"><ele>250.0</ele><time>2026-04-29T13:16:57.001Z</time></trkpt><trkpt lat="37.571216248442255" lon="14.483007637415785"><ele>250.0</ele><time>2026-04-29T13:16:59.001Z</time></trkpt><trkpt lat="37.57120593595104" lon="14.48284839202623"><ele>250.0</ele><time>2026-04-29T13:17:00.001Z</time></trkpt><trkpt lat="37.57106494686928" lon="14.482667443153007"><ele>250.0</ele><time>2026-04-29T13:17:01.001Z</time></trkpt><trkpt lat="37.57105612710019" lon="14.482459027023635"><ele>250.0</ele><time>2026-04-29T13:17:02.001Z</time></trkpt><trkpt lat="37.57104585619992" lon="14.482243210513136"><ele>250.33333333333331</ele><time>2026-04-29T13:17:03.001Z</time></trkpt><trkpt lat="37.57103466063806" lon="14.482007964415484"><ele>250.66666666666669</ele><time>2026-04-29T13:17:04.001Z</time></trkpt><trkpt lat="37.57102390051476" lon="14.481781867887282"><ele>251.0</ele><time>2026-04-29T13:17:05.001Z</time></trkpt><trkpt lat="37.57101388854415" lon="14.481571492080594"><ele>251.0</ele><time>2026-04-29T13:17:06.001Z</time></trkpt><trkpt lat="37.571003555636466" lon="14.481354372546853"><ele>251.0</ele><time>2026-04-29T13:17:07.001Z</time></trkpt><trkpt lat="37.570992289956926" lon="14.48112090695715"><ele>251.0</ele><time>2026-04-29T13:17:08.001Z</time></trkpt><trkpt lat="37.57098125516768" lon="14.480897797282315"><ele>250.33333333333334</ele><time>2026-04-29T13:17:09.001Z</time></trkpt><trkpt lat="37.57097035759209" lon="14.48067516891019"><ele>249.66666666666669</ele><time>2026-04-29T13:17:10.001Z</time></trkpt><trkpt lat="37.57095910069154" lon="14.48045258323621"><ele>249.0</ele><time>2026-04-29T13:17:11.001Z</time></trkpt><trkpt lat="37.57094630450804" lon="14.480224319966386"><ele>249.0</ele><time>2026-04-29T13:17:12.001Z</time></trkpt><trkpt lat="37.57093295796431" lon="14.479986239189742"><ele>249.0</ele><time>2026-04-29T13:17:13.001Z</time></trkpt><trkpt lat="37.57091977615071" lon="14.479734054358017"><ele>249.0</ele><time>2026-04-29T13:17:14.001Z</time></trkpt><trkpt lat="37.57090812949074" lon="14.479510470581912"><ele>249.33333333333331</ele><time>2026-04-29T13:17:15.001Z</time></trkpt><trkpt lat="37.570896685780944" lon="14.479290782955394"><ele>249.66666666666666</ele><time>2026-04-29T13:17:16.001Z</time></trkpt><trkpt lat="37.57088511382809" lon="14.479068632782196"><ele>250.0</ele><time>2026-04-29T13:17:17.001Z</time></trkpt><trkpt lat="37.570875022194116" lon="14.478861723562948"><ele>250.66666666666666</ele><time>2026-04-29T13:17:18.001Z</time></trkpt><trkpt lat="37.57086574788611" lon="14.478674770139829"><ele>251.33333333333331</ele><time>2026-04-29T13:17:19.001Z</time></trkpt><trkpt lat="37.57109409910197" lon="14.478469883270233"><ele>252.0</ele><time>2026-04-29T13:17:20.001Z</time></trkpt><trkpt lat="37.571110842229054" lon="14.478279496445069"><ele>252.0</ele><time>2026-04-29T13:17:21.001Z</time></trkpt><trkpt lat="37.57113492713133" lon="14.47809308074624"><ele>252.0</ele><time>2026-04-29T13:17:22.001Z</time></trkpt><trkpt lat="37.57117418505806" lon="14.4778994310089"><ele>252.0</ele><time>2026-04-29T13:17:23.001Z</time></trkpt><trkpt lat="37.571063159879984" lon="14.477647439800595"><ele>252.33333333333331</ele><time>2026-04-29T13:17:24.001Z</time></trkpt><trkpt lat="37.57111212099187" lon="14.477450043405419"><ele>252.66666666666666</ele><time>2026-04-29T13:17:25.001Z</time></trkpt><trkpt lat="37.57116472791681" lon="14.477253044336537"><ele>253.0</ele><time>2026-04-29T13:17:26.001Z</time></trkpt><trkpt lat="37.571224219933015" lon="14.47707762516958"><ele>253.0</ele><time>2026-04-29T13:17:27.001Z</time></trkpt><trkpt lat="37.571282464097614" lon="14.47694566291799"><ele>253.0</ele><time>2026-04-29T13:17:28.001Z</time></trkpt><trkpt lat="37.57135287273056" lon="14.47683906827433"><ele>253.0</ele><time>2026-04-29T13:17:29.001Z</time></trkpt><trkpt lat="37.57146015422009" lon="14.476752426768815"><ele>253.0</ele><time>2026-04-29T13:17:30.001Z</time></trkpt><trkpt lat="37.57156939908608" lon="14.47666842372042"><ele>253.0</ele><time>2026-04-29T13:17:31.001Z</time></trkpt><trkpt lat="37.57171420664526" lon="14.476617232812968"><ele>253.0</ele><time>2026-04-29T13:17:32.001Z</time></trkpt><trkpt lat="37.57181916309498" lon="14.476521290227703"><ele>253.0</ele><time>2026-04-29T13:17:33.001Z</time></trkpt><trkpt lat="37.57193658290952" lon="14.476414057094852"><ele>253.0</ele><time>2026-04-29T13:17:34.001Z</time></trkpt><trkpt lat="37.5720237286882" lon="14.476351789043578"><ele>252.8</ele><time>2026-04-29T13:17:35.001Z</time></trkpt><trkpt lat="37.57209692908966" lon="14.476297455566334"><ele>252.60000000000002</ele><time>2026-04-29T13:17:36.001Z</time></trkpt><trkpt lat="37.5722460358911" lon="14.476395921701018"><ele>252.39999999999998</ele><time>2026-04-29T13:17:37.001Z</time></trkpt><trkpt lat="37.5723311783095" lon="14.476400594021388"><ele>252.2</ele><time>2026-04-29T13:17:38.001Z</time></trkpt><trkpt lat="37.57240250141001" lon="14.476375231806179"><ele>252.0</ele><time>2026-04-29T13:17:40.001Z</time></trkpt><trkpt lat="37.57240896776505" lon="14.47619898339289"><ele>252.0</ele><time>2026-04-29T13:17:45.001Z</time></trkpt><trkpt lat="37.57237315561448" lon="14.476101598618385"><ele>252.0</ele><time>2026-04-29T13:17:49.001Z</time></trkpt><trkpt lat="37.572281577930035" lon="14.476136844120813"><ele>252.0</ele><time>2026-04-29T13:17:52.001Z</time></trkpt><trkpt lat="37.572195963953085" lon="14.476123798953816"><ele>252.0</ele><time>2026-04-29T13:17:54.001Z</time></trkpt><trkpt lat="37.57212668330373" lon="14.476079825952368"><ele>252.0</ele><time>2026-04-29T13:17:56.001Z</time></trkpt><trkpt lat="37.57205933663088" lon="14.476013053128604"><ele>252.0</ele><time>2026-04-29T13:17:59.001Z</time></trkpt><trkpt lat="37.572075248654436" lon="14.476095301257926"><ele>252.0</ele><time>2026-04-29T13:18:10.001Z</time></trkpt><trkpt lat="37.57215455621657" lon="14.476134299345128"><ele>252.0</ele><time>2026-04-29T13:18:11.002Z</time></trkpt><trkpt lat="37.5722548795173" lon="14.476161860710366"><ele>252.0</ele><time>2026-04-29T13:18:13.002Z</time></trkpt><trkpt lat="37.572342402780045" lon="14.47615505532806"><ele>252.0</ele><time>2026-04-29T13:18:15.002Z</time></trkpt><trkpt lat="37.572279958037996" lon="14.476300898361563"><ele>252.0</ele><time>2026-04-29T13:18:21.001Z</time></trkpt><trkpt lat="37.57218502227042" lon="14.47627100351616"><ele>252.0</ele><time>2026-04-29T13:18:22.001Z</time></trkpt><trkpt lat="37.57208840103148" lon="14.476209912141208"><ele>252.0</ele><time>2026-04-29T13:18:23.001Z</time></trkpt><trkpt lat="37.57199719619445" lon="14.476123696670193"><ele>252.0</ele><time>2026-04-29T13:18:24.001Z</time></trkpt><trkpt lat="37.57191721383966" lon="14.476014193446177"><ele>252.0</ele><time>2026-04-29T13:18:25.001Z</time></trkpt><trkpt lat="37.5718432862737" lon="14.475892124136692"><ele>252.0</ele><time>2026-04-29T13:18:26.001Z</time></trkpt><trkpt lat="37.5717608820098" lon="14.475787427130783"><ele>252.0</ele><time>2026-04-29T13:18:27.001Z</time></trkpt><trkpt lat="37.57166434485019" lon="14.475710254762841"><ele>252.0</ele><time>2026-04-29T13:18:28.001Z</time></trkpt><trkpt lat="37.57155700069566" lon="14.475676014269355"><ele>252.0</ele><time>2026-04-29T13:18:29.001Z</time></trkpt><trkpt lat="37.571446693530746" lon="14.475681408547368"><ele>252.0</ele><time>2026-04-29T13:18:30.001Z</time></trkpt><trkpt lat="37.571338938357" lon="14.475722527387875"><ele>252.0</ele><time>2026-04-29T13:18:31.001Z</time></trkpt><trkpt lat="37.57123971780924" lon="14.475803755479635"><ele>252.0</ele><time>2026-04-29T13:18:32.001Z</time></trkpt><trkpt lat="37.57114968297703" lon="14.47591510633239"><ele>252.0</ele><time>2026-04-29T13:18:33.001Z</time></trkpt><trkpt lat="37.57106284710964" lon="14.476012142031744"><ele>253.25</ele><time>2026-04-29T13:18:34.001Z</time></trkpt><trkpt lat="37.57096189786655" lon="14.476081831833865"><ele>254.5</ele><time>2026-04-29T13:18:35.001Z</time></trkpt><trkpt lat="37.57084710375122" lon="14.47610539783132"><ele>255.75</ele><time>2026-04-29T13:18:36.001Z</time></trkpt><trkpt lat="37.57072745057099" lon="14.476071892612463"><ele>257.0</ele><time>2026-04-29T13:18:37.001Z</time></trkpt><trkpt lat="37.570607421772536" lon="14.476063521125578"><ele>257.0</ele><time>2026-04-29T13:18:38.001Z</time></trkpt><trkpt lat="37.57050225858513" lon="14.476034777004678"><ele>257.0</ele><time>2026-04-29T13:18:39.001Z</time></trkpt><trkpt lat="37.570401966515064" lon="14.476019091690915"><ele>257.0</ele><time>2026-04-29T13:18:40.001Z</time></trkpt><trkpt lat="37.570307889916045" lon="14.475999596312818"><ele>257.0</ele><time>2026-04-29T13:18:41.001Z</time></trkpt><trkpt lat="37.570212116795716" lon="14.47594685833524"><ele>257.0</ele><time>2026-04-29T13:18:42.001Z</time></trkpt><trkpt lat="37.57012351713209" lon="14.475861175883534"><ele>256.0</ele><time>2026-04-29T13:18:43.001Z</time></trkpt><trkpt lat="37.57003782587713" lon="14.475750477086663"><ele>255.0</ele><time>2026-04-29T13:18:44.001Z</time></trkpt><trkpt lat="37.56995107815462" lon="14.47562701811037"><ele>254.0</ele><time>2026-04-29T13:18:45.001Z</time></trkpt><trkpt lat="37.56985661007492" lon="14.475540860363296"><ele>253.0</ele><time>2026-04-29T13:18:46.001Z</time></trkpt><trkpt lat="37.56974872106262" lon="14.475501960132735"><ele>253.0</ele><time>2026-04-29T13:18:47.001Z</time></trkpt><trkpt lat="37.56964121562684" lon="14.475487518484949"><ele>253.0</ele><time>2026-04-29T13:18:48.001Z</time></trkpt><trkpt lat="37.569540449404165" lon="14.47551169963134"><ele>253.0</ele><time>2026-04-29T13:18:49.001Z</time></trkpt><trkpt lat="37.56945229055343" lon="14.475571283858187"><ele>253.0</ele><time>2026-04-29T13:18:50.001Z</time></trkpt><trkpt lat="37.56937871606944" lon="14.475647098834825"><ele>253.0</ele><time>2026-04-29T13:18:51.001Z</time></trkpt><trkpt lat="37.569313577933805" lon="14.475736831614203"><ele>251.8</ele><time>2026-04-29T13:18:52.001Z</time></trkpt><trkpt lat="37.56924867694779" lon="14.475815446687147"><ele>250.60000000000002</ele><time>2026-04-29T13:18:53.001Z</time></trkpt><trkpt lat="37.56917699193546" lon="14.47586343810546"><ele>249.39999999999998</ele><time>2026-04-29T13:18:54.001Z</time></trkpt><trkpt lat="37.56908923806813" lon="14.475890183372623"><ele>248.2</ele><time>2026-04-29T13:18:55.001Z</time></trkpt><trkpt lat="37.56899199985377" lon="14.475858567265044"><ele>247.0</ele><time>2026-04-29T13:18:56.001Z</time></trkpt><trkpt lat="37.568890926728" lon="14.475863854096517"><ele>247.0</ele><time>2026-04-29T13:18:57.001Z</time></trkpt><trkpt lat="37.56879346481315" lon="14.475843117617574"><ele>247.0</ele><time>2026-04-29T13:18:58.001Z</time></trkpt><trkpt lat="37.56868960593433" lon="14.475826202372057"><ele>247.0</ele><time>2026-04-29T13:18:59.001Z</time></trkpt><trkpt lat="37.568591599496564" lon="14.475815658770433"><ele>247.0</ele><time>2026-04-29T13:19:00.001Z</time></trkpt><trkpt lat="37.568495998655436" lon="14.475806472470053"><ele>247.0</ele><time>2026-04-29T13:19:01.001Z</time></trkpt><trkpt lat="37.56839977359917" lon="14.475796294835153"><ele>247.0</ele><time>2026-04-29T13:19:02.001Z</time></trkpt><trkpt lat="37.56829028193258" lon="14.475782190668525"><ele>247.0</ele><time>2026-04-29T13:19:03.001Z</time></trkpt><trkpt lat="37.56817060065118" lon="14.475767051968083"><ele>247.0</ele><time>2026-04-29T13:19:04.001Z</time></trkpt><trkpt lat="37.568036424640404" lon="14.475754157950666"><ele>247.0</ele><time>2026-04-29T13:19:05.001Z</time></trkpt><trkpt lat="37.567900619927144" lon="14.475719476898053"><ele>247.0</ele><time>2026-04-29T13:19:06.001Z</time></trkpt><trkpt lat="37.56775830761313" lon="14.475701918884292"><ele>247.0</ele><time>2026-04-29T13:19:07.001Z</time></trkpt><trkpt lat="37.56761395148821" lon="14.475684108711471"><ele>247.0</ele><time>2026-04-29T13:19:08.001Z</time></trkpt><trkpt lat="37.567464683532265" lon="14.475665692535669"><ele>247.0</ele><time>2026-04-29T13:19:09.001Z</time></trkpt><trkpt lat="37.56731330688587" lon="14.475665891224514"><ele>247.0</ele><time>2026-04-29T13:19:10.001Z</time></trkpt><trkpt lat="37.56715840930408" lon="14.47564010857849"><ele>247.0</ele><time>2026-04-29T13:19:11.001Z</time></trkpt><trkpt lat="37.56699999333112" lon="14.475609943988626"><ele>247.0</ele><time>2026-04-29T13:19:12.001Z</time></trkpt><trkpt lat="37.56684118233338" lon="14.475566593455381"><ele>246.66666666666666</ele><time>2026-04-29T13:19:13.001Z</time></trkpt><trkpt lat="37.56668912317084" lon="14.475499619635212"><ele>246.33333333333331</ele><time>2026-04-29T13:19:14.001Z</time></trkpt><trkpt lat="37.56654885103408" lon="14.47541997835506"><ele>246.0</ele><time>2026-04-29T13:19:15.001Z</time></trkpt><trkpt lat="37.56642322384842" lon="14.47532315924588"><ele>245.5</ele><time>2026-04-29T13:19:16.001Z</time></trkpt><trkpt lat="37.56631109763191" lon="14.47521591554422"><ele>245.0</ele><time>2026-04-29T13:19:17.001Z</time></trkpt><trkpt lat="37.566211495957056" lon="14.475102241824862"><ele>244.5</ele><time>2026-04-29T13:19:18.001Z</time></trkpt><trkpt lat="37.56612123925161" lon="14.474970156920218"><ele>244.0</ele><time>2026-04-29T13:19:19.001Z</time></trkpt><trkpt lat="37.56604210811748" lon="14.474808581937525"><ele>244.0</ele><time>2026-04-29T13:19:20.001Z</time></trkpt><trkpt lat="37.56596204179412" lon="14.474638141623926"><ele>244.0</ele><time>2026-04-29T13:19:21.001Z</time></trkpt><trkpt lat="37.565889890475134" lon="14.474449898161572"><ele>244.0</ele><time>2026-04-29T13:19:22.001Z</time></trkpt><trkpt lat="37.565820397097596" lon="14.474255011956375"><ele>244.66666666666666</ele><time>2026-04-29T13:19:23.001Z</time></trkpt><trkpt lat="37.56574723653241" lon="14.47407111956901"><ele>245.33333333333331</ele><time>2026-04-29T13:19:24.001Z</time></trkpt><trkpt lat="37.56567726072667" lon="14.473899532683996"><ele>246.0</ele><time>2026-04-29T13:19:25.001Z</time></trkpt><trkpt lat="37.565606174718745" lon="14.473724233505568"><ele>246.66666666666669</ele><time>2026-04-29T13:19:26.001Z</time></trkpt><trkpt lat="37.56554192346094" lon="14.473553583870595"><ele>247.33333333333334</ele><time>2026-04-29T13:19:27.001Z</time></trkpt><trkpt lat="37.56547427467483" lon="14.473378967656394"><ele>248.0</ele><time>2026-04-29T13:19:28.001Z</time></trkpt><trkpt lat="37.565404095439035" lon="14.473197872212099"><ele>247.66666666666669</ele><time>2026-04-29T13:19:29.001Z</time></trkpt><trkpt lat="37.56533325398998" lon="14.473011487376167"><ele>247.33333333333331</ele><time>2026-04-29T13:19:30.001Z</time></trkpt><trkpt lat="37.565254585202815" lon="14.472824255204838"><ele>247.0</ele><time>2026-04-29T13:19:31.001Z</time></trkpt><trkpt lat="37.565175188615754" lon="14.472641332822642"><ele>247.66666666666666</ele><time>2026-04-29T13:19:32.001Z</time></trkpt><trkpt lat="37.5651035336039" lon="14.47245799975161"><ele>248.33333333333331</ele><time>2026-04-29T13:19:33.001Z</time></trkpt><trkpt lat="37.56503551257329" lon="14.472271828607317"><ele>249.0</ele><time>2026-04-29T13:19:34.001Z</time></trkpt><trkpt lat="37.564971405066025" lon="14.472094235557702"><ele>249.25</ele><time>2026-04-29T13:19:35.001Z</time></trkpt><trkpt lat="37.564908334028914" lon="14.471927274321422"><ele>249.5</ele><time>2026-04-29T13:19:36.001Z</time></trkpt><trkpt lat="37.56483812452605" lon="14.471765074035165"><ele>249.75</ele><time>2026-04-29T13:19:37.001Z</time></trkpt><trkpt lat="37.56476754441295" lon="14.471601109889212"><ele>250.0</ele><time>2026-04-29T13:19:38.001Z</time></trkpt><trkpt lat="37.56469289190309" lon="14.4714413179194"><ele>250.0</ele><time>2026-04-29T13:19:39.001Z</time></trkpt><trkpt lat="37.564602488320574" lon="14.471287248845645"><ele>250.0</ele><time>2026-04-29T13:19:40.001Z</time></trkpt><trkpt lat="37.56450248626276" lon="14.47113480652523"><ele>250.0</ele><time>2026-04-29T13:19:41.001Z</time></trkpt><trkpt lat="37.56438947539027" lon="14.470985087132092"><ele>250.0</ele><time>2026-04-29T13:19:42.001Z</time></trkpt><trkpt lat="37.56425523881236" lon="14.47083374409736"><ele>250.0</ele><time>2026-04-29T13:19:43.001Z</time></trkpt><trkpt lat="37.56411187009902" lon="14.470673109353397"><ele>250.0</ele><time>2026-04-29T13:19:44.001Z</time></trkpt><trkpt lat="37.563969932677075" lon="14.470507569485445"><ele>250.0</ele><time>2026-04-29T13:19:45.001Z</time></trkpt><trkpt lat="37.563830754636164" lon="14.470340691621399"><ele>250.0</ele><time>2026-04-29T13:19:46.001Z</time></trkpt><trkpt lat="37.56369168615293" lon="14.470170470585671"><ele>250.0</ele><time>2026-04-29T13:19:47.001Z</time></trkpt><trkpt lat="37.56355500963453" lon="14.47000866216636"><ele>250.33333333333331</ele><time>2026-04-29T13:19:48.001Z</time></trkpt><trkpt lat="37.563422658883034" lon="14.469854591902251"><ele>250.66666666666669</ele><time>2026-04-29T13:19:49.001Z</time></trkpt><trkpt lat="37.563297614355385" lon="14.469712139565484"><ele>251.0</ele><time>2026-04-29T13:19:50.001Z</time></trkpt><trkpt lat="37.56318345520947" lon="14.469583784959168"><ele>251.0</ele><time>2026-04-29T13:19:51.001Z</time></trkpt><trkpt lat="37.563052921639894" lon="14.46947489715854"><ele>251.0</ele><time>2026-04-29T13:19:52.001Z</time></trkpt><trkpt lat="37.56290547842111" lon="14.469410773668153"><ele>251.0</ele><time>2026-04-29T13:19:53.001Z</time></trkpt><trkpt lat="37.56276307061841" lon="14.469381410196062"><ele>251.8</ele><time>2026-04-29T13:19:54.001Z</time></trkpt><trkpt lat="37.56262914254604" lon="14.469351877087256"><ele>252.60000000000002</ele><time>2026-04-29T13:19:55.001Z</time></trkpt><trkpt lat="37.5625128278353" lon="14.469327860841469"><ele>253.4</ele><time>2026-04-29T13:19:56.001Z</time></trkpt><trkpt lat="37.56241639081104" lon="14.469300945988456"><ele>254.2</ele><time>2026-04-29T13:19:57.001Z</time></trkpt><trkpt lat="37.56232613730771" lon="14.469274097028878"><ele>255.0</ele><time>2026-04-29T13:19:58.001Z</time></trkpt><trkpt lat="37.56224758405262" lon="14.469257701149948"><ele>255.0</ele><time>2026-04-29T13:19:59.001Z</time></trkpt><trkpt lat="37.56212864677573" lon="14.469229513283265"><ele>255.0</ele><time>2026-04-29T13:20:01.002Z</time></trkpt><trkpt lat="37.56206394163194" lon="14.469170484309716"><ele>255.0</ele><time>2026-04-29T13:20:02.002Z</time></trkpt><trkpt lat="37.56201243311279" lon="14.469094066622375"><ele>255.0</ele><time>2026-04-29T13:20:03.002Z</time></trkpt><trkpt lat="37.5619653862184" lon="14.468955022843243"><ele>255.0</ele><time>2026-04-29T13:20:05.002Z</time></trkpt><trkpt lat="37.5619431990543" lon="14.46884156303554"><ele>255.25</ele><time>2026-04-29T13:20:06.002Z</time></trkpt><trkpt lat="37.561905716182366" lon="14.468731913170163"><ele>255.5</ele><time>2026-04-29T13:20:07.002Z</time></trkpt><trkpt lat="37.561950474347455" lon="14.468572291683573"><ele>255.75</ele><time>2026-04-29T13:20:08.002Z</time></trkpt><trkpt lat="37.561999933726185" lon="14.468367827958053"><ele>256.0</ele><time>2026-04-29T13:20:09.002Z</time></trkpt><trkpt lat="37.5620560122037" lon="14.468124537924398"><ele>255.66666666666666</ele><time>2026-04-29T13:20:10.002Z</time></trkpt><trkpt lat="37.56209950774306" lon="14.467857920200322"><ele>255.33333333333331</ele><time>2026-04-29T13:20:11.002Z</time></trkpt><trkpt lat="37.56214491776084" lon="14.467587636704788"><ele>255.0</ele><time>2026-04-29T13:20:12.002Z</time></trkpt><trkpt lat="37.56219665290422" lon="14.46732532581506"><ele>254.66666666666669</ele><time>2026-04-29T13:20:13.002Z</time></trkpt><trkpt lat="37.5622494913482" lon="14.467078966118233"><ele>254.33333333333334</ele><time>2026-04-29T13:20:14.002Z</time></trkpt><trkpt lat="37.56229580424245" lon="14.466853313084261"><ele>254.0</ele><time>2026-04-29T13:20:15.002Z</time></trkpt><trkpt lat="37.56233696285353" lon="14.466644869731857"><ele>254.0</ele><time>2026-04-29T13:20:16.002Z</time></trkpt><trkpt lat="37.56237356368385" lon="14.466445301192168"><ele>254.0</ele><time>2026-04-29T13:20:17.002Z</time></trkpt><trkpt lat="37.56240578291489" lon="14.466259182746315"><ele>254.0</ele><time>2026-04-29T13:20:18.002Z</time></trkpt><trkpt lat="37.56243706249338" lon="14.466085892637608"><ele>254.0</ele><time>2026-04-29T13:20:19.002Z</time></trkpt><trkpt lat="37.562465356817896" lon="14.465931931424276"><ele>253.99999999999997</ele><time>2026-04-29T13:20:20.002Z</time></trkpt><trkpt lat="37.562484589448246" lon="14.46579631016008"><ele>253.99999999999997</ele><time>2026-04-29T13:20:21.002Z</time></trkpt><trkpt lat="37.56248708020457" lon="14.465685812578418"><ele>254.0</ele><time>2026-04-29T13:20:22.002Z</time></trkpt><trkpt lat="37.56249648578999" lon="14.465594865181806"><ele>254.0</ele><time>2026-04-29T13:20:23.002Z</time></trkpt><trkpt lat="37.56239680198947" lon="14.46551800594703"><ele>254.0</ele><time>2026-04-29T13:20:24.002Z</time></trkpt><trkpt lat="37.5623445721952" lon="14.46542468112307"><ele>253.99999999999997</ele><time>2026-04-29T13:20:25.001Z</time></trkpt><trkpt lat="37.56228000097574" lon="14.46535894397853"><ele>253.99999999999997</ele><time>2026-04-29T13:20:26.001Z</time></trkpt><trkpt lat="37.562216315786294" lon="14.465284406513142"><ele>254.0</ele><time>2026-04-29T13:20:27.001Z</time></trkpt><trkpt lat="37.56213922856597" lon="14.465196228361364"><ele>254.0</ele><time>2026-04-29T13:20:28.001Z</time></trkpt><trkpt lat="37.56204513961094" lon="14.46511849582867"><ele>255.0</ele><time>2026-04-29T13:20:29.001Z</time></trkpt><trkpt lat="37.5619813616207" lon="14.46496159994746"><ele>256.0</ele><time>2026-04-29T13:20:30.001Z</time></trkpt><trkpt lat="37.5619112685634" lon="14.464800913822451"><ele>257.0</ele><time>2026-04-29T13:20:31.001Z</time></trkpt><trkpt lat="37.56184443643799" lon="14.464608625131719"><ele>257.0</ele><time>2026-04-29T13:20:32.001Z</time></trkpt><trkpt lat="37.56177436203251" lon="14.46439032409035"><ele>257.0</ele><time>2026-04-29T13:20:33.001Z</time></trkpt><trkpt lat="37.56170593616971" lon="14.464157116114727"><ele>257.0</ele><time>2026-04-29T13:20:34.001Z</time></trkpt><trkpt lat="37.561631799933785" lon="14.463929499992936"><ele>256.0</ele><time>2026-04-29T13:20:35.001Z</time></trkpt><trkpt lat="37.56154862911747" lon="14.463690146612779"><ele>255.0</ele><time>2026-04-29T13:20:36.001Z</time></trkpt><trkpt lat="37.5614601091126" lon="14.463433999721172"><ele>254.0</ele><time>2026-04-29T13:20:37.001Z</time></trkpt><trkpt lat="37.56137159183741" lon="14.463162202581131"><ele>253.5</ele><time>2026-04-29T13:20:38.001Z</time></trkpt><trkpt lat="37.561285889505605" lon="14.462887660623437"><ele>253.0</ele><time>2026-04-29T13:20:39.001Z</time></trkpt><trkpt lat="37.561197105352825" lon="14.462611320301436"><ele>255.5</ele><time>2026-04-29T13:20:40.001Z</time></trkpt><trkpt lat="37.561101775117706" lon="14.462328198980062"><ele>258.0</ele><time>2026-04-29T13:20:41.001Z</time></trkpt><trkpt lat="37.56100167584554" lon="14.462037855176584"><ele>258.0</ele><time>2026-04-29T13:20:42.001Z</time></trkpt><trkpt lat="37.56090000662568" lon="14.46174110035383"><ele>258.0</ele><time>2026-04-29T13:20:43.001Z</time></trkpt><trkpt lat="37.5607962304904" lon="14.461439594747505"><ele>258.0</ele><time>2026-04-29T13:20:44.001Z</time></trkpt><trkpt lat="37.56069118516826" lon="14.461137388177903"><ele>258.0</ele><time>2026-04-29T13:20:45.001Z</time></trkpt><trkpt lat="37.56058968620073" lon="14.460847748483149"><ele>258.0</ele><time>2026-04-29T13:20:46.001Z</time></trkpt><trkpt lat="37.5604884858753" lon="14.460561597279769"><ele>258.0</ele><time>2026-04-29T13:20:47.001Z</time></trkpt><trkpt lat="37.560388576848275" lon="14.460275384857475"><ele>259.0</ele><time>2026-04-29T13:20:48.001Z</time></trkpt><trkpt lat="37.560290300052486" lon="14.459992890195823"><ele>260.0</ele><time>2026-04-29T13:20:49.001Z</time></trkpt><trkpt lat="37.56019337878677" lon="14.459711566179829"><ele>261.0</ele><time>2026-04-29T13:20:50.001Z</time></trkpt><trkpt lat="37.56009795082013" lon="14.459434076882093"><ele>262.0</ele><time>2026-04-29T13:20:51.001Z</time></trkpt><trkpt lat="37.56000318337866" lon="14.459158014633928"><ele>262.0</ele><time>2026-04-29T13:20:52.001Z</time></trkpt><trkpt lat="37.559912118215905" lon="14.458883352667579"><ele>262.0</ele><time>2026-04-29T13:20:53.001Z</time></trkpt><trkpt lat="37.55982183108904" lon="14.458610159092197"><ele>262.0</ele><time>2026-04-29T13:20:54.001Z</time></trkpt><trkpt lat="37.55973479687056" lon="14.458336762815852"><ele>262.0</ele><time>2026-04-29T13:20:55.001Z</time></trkpt><trkpt lat="37.55964714317752" lon="14.45806274897228"><ele>261.5</ele><time>2026-04-29T13:20:56.001Z</time></trkpt><trkpt lat="37.559555634275895" lon="14.457790327268304"><ele>261.0</ele><time>2026-04-29T13:20:57.001Z</time></trkpt><trkpt lat="37.55946334155567" lon="14.457521374603639"><ele>262.5</ele><time>2026-04-29T13:20:58.001Z</time></trkpt><trkpt lat="37.55936754507918" lon="14.457255675358596"><ele>264.0</ele><time>2026-04-29T13:20:59.001Z</time></trkpt><trkpt lat="37.559274064061746" lon="14.456990351931509"><ele>264.0</ele><time>2026-04-29T13:21:00.001Z</time></trkpt><trkpt lat="37.559175919023176" lon="14.45673088376649"><ele>264.0</ele><time>2026-04-29T13:21:01.001Z</time></trkpt><trkpt lat="37.5590696964346" lon="14.456481485797358"><ele>262.0</ele><time>2026-04-29T13:21:02.001Z</time></trkpt><trkpt lat="37.558951817667435" lon="14.45623999973985"><ele>260.0</ele><time>2026-04-29T13:21:03.001Z</time></trkpt><trkpt lat="37.55882830873305" lon="14.456003063394817"><ele>261.5</ele><time>2026-04-29T13:21:04.001Z</time></trkpt><trkpt lat="37.55869910290531" lon="14.45577069971234"><ele>263.0</ele><time>2026-04-29T13:21:05.001Z</time></trkpt><trkpt lat="37.55856307168144" lon="14.45554230532458"><ele>263.0</ele><time>2026-04-29T13:21:06.001Z</time></trkpt><trkpt lat="37.55841627938694" lon="14.455324932045032"><ele>263.0</ele><time>2026-04-29T13:21:07.001Z</time></trkpt><trkpt lat="37.55826591294927" lon="14.455124041137575"><ele>263.0</ele><time>2026-04-29T13:21:08.001Z</time></trkpt><trkpt lat="37.558111335107085" lon="14.45493582410738"><ele>263.0</ele><time>2026-04-29T13:21:09.001Z</time></trkpt><trkpt lat="37.55795217524955" lon="14.454749914397121"><ele>263.0</ele><time>2026-04-29T13:21:10.001Z</time></trkpt><trkpt lat="37.55778718423025" lon="14.454568484254084"><ele>263.0</ele><time>2026-04-29T13:21:11.001Z</time></trkpt><trkpt lat="37.55761764484647" lon="14.454396118588837"><ele>264.0</ele><time>2026-04-29T13:21:12.001Z</time></trkpt><trkpt lat="37.55745251369781" lon="14.45423625138606"><ele>265.0</ele><time>2026-04-29T13:21:13.001Z</time></trkpt><trkpt lat="37.557295096844186" lon="14.454086290823627"><ele>266.0</ele><time>2026-04-29T13:21:14.001Z</time></trkpt><trkpt lat="37.55713761651775" lon="14.453933352351838"><ele>266.0</ele><time>2026-04-29T13:21:15.001Z</time></trkpt><trkpt lat="37.556981750742985" lon="14.45378014891772"><ele>266.0</ele><time>2026-04-29T13:21:16.001Z</time></trkpt><trkpt lat="37.55682394769321" lon="14.453627445655748"><ele>266.0</ele><time>2026-04-29T13:21:17.001Z</time></trkpt><trkpt lat="37.556667339846875" lon="14.453478786857916"><ele>266.0</ele><time>2026-04-29T13:21:18.001Z</time></trkpt><trkpt lat="37.55651211810047" lon="14.453331169329212"><ele>266.0</ele><time>2026-04-29T13:21:19.001Z</time></trkpt><trkpt lat="37.55635892904314" lon="14.453189055165423"><ele>266.0</ele><time>2026-04-29T13:21:20.001Z</time></trkpt><trkpt lat="37.55620913669749" lon="14.453051344703372"><ele>266.0</ele><time>2026-04-29T13:21:21.001Z</time></trkpt><trkpt lat="37.5560630794595" lon="14.452912347105686"><ele>266.0</ele><time>2026-04-29T13:21:22.001Z</time></trkpt><trkpt lat="37.555919398142905" lon="14.452774119546827"><ele>266.0</ele><time>2026-04-29T13:21:23.001Z</time></trkpt><trkpt lat="37.55577732749412" lon="14.45263440819962"><ele>266.0</ele><time>2026-04-29T13:21:24.001Z</time></trkpt><trkpt lat="37.555634592618894" lon="14.452492417643507"><ele>266.0</ele><time>2026-04-29T13:21:25.001Z</time></trkpt><trkpt lat="37.555492136090436" lon="14.452348034644416"><ele>266.0</ele><time>2026-04-29T13:21:26.001Z</time></trkpt><trkpt lat="37.555345149711556" lon="14.452204848387515"><ele>266.33333333333337</ele><time>2026-04-29T13:21:27.001Z</time></trkpt><trkpt lat="37.55519279410071" lon="14.452064642397147"><ele>266.6666666666667</ele><time>2026-04-29T13:21:28.001Z</time></trkpt><trkpt lat="37.55503945362547" lon="14.451922356000999"><ele>267.0</ele><time>2026-04-29T13:21:29.001Z</time></trkpt><trkpt lat="37.55488705843636" lon="14.451777307613508"><ele>267.0</ele><time>2026-04-29T13:21:30.001Z</time></trkpt><trkpt lat="37.554735505906685" lon="14.451630611210042"><ele>267.0</ele><time>2026-04-29T13:21:31.001Z</time></trkpt><trkpt lat="37.554585472988755" lon="14.45149056512626"><ele>267.0</ele><time>2026-04-29T13:21:32.001Z</time></trkpt><trkpt lat="37.55443618046823" lon="14.451352360249636"><ele>267.0</ele><time>2026-04-29T13:21:33.001Z</time></trkpt><trkpt lat="37.554287318968505" lon="14.451214018491683"><ele>267.0</ele><time>2026-04-29T13:21:34.001Z</time></trkpt><trkpt lat="37.554138649954034" lon="14.451075958816467"><ele>267.0</ele><time>2026-04-29T13:21:35.001Z</time></trkpt><trkpt lat="37.553995804123524" lon="14.450937733629365"><ele>267.0</ele><time>2026-04-29T13:21:36.001Z</time></trkpt><trkpt lat="37.553854244332406" lon="14.450799038305036"><ele>267.0</ele><time>2026-04-29T13:21:37.001Z</time></trkpt><trkpt lat="37.55370901714067" lon="14.450662308016337"><ele>267.0</ele><time>2026-04-29T13:21:38.001Z</time></trkpt><trkpt lat="37.55356170867067" lon="14.450526336977253"><ele>267.0</ele><time>2026-04-29T13:21:39.001Z</time></trkpt><trkpt lat="37.55341777355247" lon="14.450386317580268"><ele>267.0</ele><time>2026-04-29T13:21:40.001Z</time></trkpt><trkpt lat="37.55327509834737" lon="14.4502469029366"><ele>267.0</ele><time>2026-04-29T13:21:41.001Z</time></trkpt><trkpt lat="37.55312852817333" lon="14.450106829741602"><ele>267.0</ele><time>2026-04-29T13:21:42.001Z</time></trkpt><trkpt lat="37.55297769767827" lon="14.449961377305648"><ele>267.0</ele><time>2026-04-29T13:21:43.001Z</time></trkpt><trkpt lat="37.552829374756826" lon="14.449814739475682"><ele>267.0</ele><time>2026-04-29T13:21:44.001Z</time></trkpt><trkpt lat="37.55268295335768" lon="14.449665890428772"><ele>267.0</ele><time>2026-04-29T13:21:45.001Z</time></trkpt><trkpt lat="37.55254106674999" lon="14.449518940357848"><ele>267.0</ele><time>2026-04-29T13:21:46.001Z</time></trkpt><trkpt lat="37.552400291259765" lon="14.44936839169927"><ele>267.0</ele><time>2026-04-29T13:21:47.001Z</time></trkpt><trkpt lat="37.5522643596626" lon="14.449208667948879"><ele>267.0</ele><time>2026-04-29T13:21:48.001Z</time></trkpt><trkpt lat="37.55213494012255" lon="14.449040938631086"><ele>267.0</ele><time>2026-04-29T13:21:49.001Z</time></trkpt><trkpt lat="37.55201013294947" lon="14.448869304720628"><ele>267.0</ele><time>2026-04-29T13:21:50.001Z</time></trkpt><trkpt lat="37.55189064550538" lon="14.448701139882141"><ele>266.6666666666667</ele><time>2026-04-29T13:21:51.001Z</time></trkpt><trkpt lat="37.55177694469569" lon="14.448531765180826"><ele>266.33333333333337</ele><time>2026-04-29T13:21:52.001Z</time></trkpt><trkpt lat="37.55167099820032" lon="14.448354337817934"><ele>266.0</ele><time>2026-04-29T13:21:53.001Z</time></trkpt><trkpt lat="37.55157177537475" lon="14.448167878590361"><ele>266.0</ele><time>2026-04-29T13:21:54.001Z</time></trkpt><trkpt lat="37.55147538396525" lon="14.447979698855512"><ele>266.0</ele><time>2026-04-29T13:21:55.001Z</time></trkpt><trkpt lat="37.55138432502742" lon="14.447790727132661"><ele>266.0</ele><time>2026-04-29T13:21:56.001Z</time></trkpt><trkpt lat="37.55130286155703" lon="14.44760088508053"><ele>266.0</ele><time>2026-04-29T13:21:57.001Z</time></trkpt><trkpt lat="37.551226350947076" lon="14.447406198223808"><ele>266.0</ele><time>2026-04-29T13:21:58.001Z</time></trkpt><trkpt lat="37.55115506250443" lon="14.447209666393183"><ele>266.0</ele><time>2026-04-29T13:21:59.001Z</time></trkpt><trkpt lat="37.55108091507834" lon="14.447012390830201"><ele>266.0</ele><time>2026-04-29T13:22:00.001Z</time></trkpt><trkpt lat="37.550996638108415" lon="14.44681649752674"><ele>266.0</ele><time>2026-04-29T13:22:01.001Z</time></trkpt><trkpt lat="37.55090719012492" lon="14.44662015154148"><ele>266.0</ele><time>2026-04-29T13:22:02.001Z</time></trkpt><trkpt lat="37.55080634015145" lon="14.44643280562716"><ele>267.0</ele><time>2026-04-29T13:22:03.001Z</time></trkpt><trkpt lat="37.550691787485036" lon="14.446251064660116"><ele>268.0</ele><time>2026-04-29T13:22:04.001Z</time></trkpt><trkpt lat="37.55057460474346" lon="14.446070368062028"><ele>269.0</ele><time>2026-04-29T13:22:05.001Z</time></trkpt><trkpt lat="37.55045119852699" lon="14.445898776081302"><ele>269.0</ele><time>2026-04-29T13:22:06.001Z</time></trkpt><trkpt lat="37.550317761191316" lon="14.445740853388148"><ele>269.0</ele><time>2026-04-29T13:22:07.001Z</time></trkpt><trkpt lat="37.55017938337949" lon="14.445598194533204"><ele>269.0</ele><time>2026-04-29T13:22:08.001Z</time></trkpt><trkpt lat="37.5500401664773" lon="14.445462695404675"><ele>268.6666666666667</ele><time>2026-04-29T13:22:09.001Z</time></trkpt><trkpt lat="37.54989574394277" lon="14.445338057527513"><ele>268.3333333333333</ele><time>2026-04-29T13:22:10.001Z</time></trkpt><trkpt lat="37.54974366602767" lon="14.445228795564546"><ele>268.0</ele><time>2026-04-29T13:22:11.001Z</time></trkpt><trkpt lat="37.54958530928222" lon="14.445127767379416"><ele>269.0</ele><time>2026-04-29T13:22:12.001Z</time></trkpt><trkpt lat="37.54942083904777" lon="14.445036037845663"><ele>270.0</ele><time>2026-04-29T13:22:13.001Z</time></trkpt><trkpt lat="37.54925366387616" lon="14.44495143340437"><ele>271.0</ele><time>2026-04-29T13:22:14.001Z</time></trkpt><trkpt lat="37.549096067317016" lon="14.444881983779702"><ele>271.0</ele><time>2026-04-29T13:22:15.001Z</time></trkpt><trkpt lat="37.54894796843233" lon="14.444822532069484"><ele>271.0</ele><time>2026-04-29T13:22:16.001Z</time></trkpt><trkpt lat="37.548809601891385" lon="14.44476743519521"><ele>271.0</ele><time>2026-04-29T13:22:17.001Z</time></trkpt><trkpt lat="37.548687128794946" lon="14.444723138761654"><ele>271.0</ele><time>2026-04-29T13:22:18.001Z</time></trkpt><trkpt lat="37.548584279210964" lon="14.444686077200506"><ele>271.16666666666663</ele><time>2026-04-29T13:22:19.001Z</time></trkpt><trkpt lat="37.54849710714526" lon="14.44465335611141"><ele>271.3333333333333</ele><time>2026-04-29T13:22:20.001Z</time></trkpt><trkpt lat="37.54841284368139" lon="14.444620935929589"><ele>271.5</ele><time>2026-04-29T13:22:21.001Z</time></trkpt><trkpt lat="37.54832987891776" lon="14.444595677742498"><ele>271.6666666666667</ele><time>2026-04-29T13:22:22.001Z</time></trkpt><trkpt lat="37.54824942142792" lon="14.44456905344458"><ele>271.83333333333337</ele><time>2026-04-29T13:22:23.001Z</time></trkpt><trkpt lat="37.54816798354336" lon="14.44454188623787"><ele>272.0</ele><time>2026-04-29T13:22:24.001Z</time></trkpt><trkpt lat="37.54808749309734" lon="14.444512786360852"><ele>271.99999999999994</ele><time>2026-04-29T13:22:25.002Z</time></trkpt><trkpt lat="37.548015862430596" lon="14.444485122902122"><ele>272.0</ele><time>2026-04-29T13:22:26.002Z</time></trkpt><trkpt lat="37.547943964308345" lon="14.444457995947257"><ele>272.0</ele><time>2026-04-29T13:22:27.002Z</time></trkpt><trkpt lat="37.54787598444216" lon="14.444430114648487"><ele>272.0</ele><time>2026-04-29T13:22:28.002Z</time></trkpt><trkpt lat="37.54781120110721" lon="14.44440823932698"><ele>272.0</ele><time>2026-04-29T13:22:29.002Z</time></trkpt><trkpt lat="37.54774936931722" lon="14.444384331579352"><ele>271.99999999999994</ele><time>2026-04-29T13:22:30.002Z</time></trkpt><trkpt lat="37.54768552854266" lon="14.444361853561437"><ele>272.0</ele><time>2026-04-29T13:22:31.001Z</time></trkpt><trkpt lat="37.54761511864512" lon="14.444337626230935"><ele>272.0</ele><time>2026-04-29T13:22:32.001Z</time></trkpt><trkpt lat="37.54754739037555" lon="14.444312915644122"><ele>272.0</ele><time>2026-04-29T13:22:33.001Z</time></trkpt><trkpt lat="37.54748194580722" lon="14.444289014519113"><ele>272.0</ele><time>2026-04-29T13:22:34.001Z</time></trkpt><trkpt lat="37.54741999337611" lon="14.444262929332744"><ele>272.0</ele><time>2026-04-29T13:22:35.001Z</time></trkpt><trkpt lat="37.54735666589336" lon="14.444238349233041"><ele>272.0</ele><time>2026-04-29T13:22:36.001Z</time></trkpt><trkpt lat="37.54723788765119" lon="14.44419359533323"><ele>272.0</ele><time>2026-04-29T13:22:38.001Z</time></trkpt><trkpt lat="37.5471755009056" lon="14.444173915054138"><ele>271.99999999999994</ele><time>2026-04-29T13:22:39.001Z</time></trkpt><trkpt lat="37.54710889816981" lon="14.444153804956322"><ele>272.0</ele><time>2026-04-29T13:22:40.001Z</time></trkpt><trkpt lat="37.54704476315045" lon="14.444126908637768"><ele>272.0</ele><time>2026-04-29T13:22:41.001Z</time></trkpt><trkpt lat="37.54698393575966" lon="14.44409903616931"><ele>272.0</ele><time>2026-04-29T13:22:42.001Z</time></trkpt><trkpt lat="37.54692167911201" lon="14.444075720932078"><ele>272.0</ele><time>2026-04-29T13:22:43.001Z</time></trkpt><trkpt lat="37.546858818541594" lon="14.444054641897118"><ele>271.99999999999994</ele><time>2026-04-29T13:22:44.001Z</time></trkpt><trkpt lat="37.54679801665504" lon="14.44403288212993"><ele>272.0</ele><time>2026-04-29T13:22:45.001Z</time></trkpt><trkpt lat="37.54667552363386" lon="14.443985284813177"><ele>272.33333333333337</ele><time>2026-04-29T13:22:47.001Z</time></trkpt><trkpt lat="37.5465976325393" lon="14.443962267613554"><ele>272.6666666666667</ele><time>2026-04-29T13:22:48.001Z</time></trkpt><trkpt lat="37.54651241847851" lon="14.443929222776307"><ele>273.0</ele><time>2026-04-29T13:22:49.001Z</time></trkpt><trkpt lat="37.54642965308493" lon="14.443900683476011"><ele>273.3333333333333</ele><time>2026-04-29T13:22:50.001Z</time></trkpt><trkpt lat="37.546338983977506" lon="14.443870479605343"><ele>273.66666666666663</ele><time>2026-04-29T13:22:51.001Z</time></trkpt><trkpt lat="37.54625408686665" lon="14.443841112351821"><ele>274.0</ele><time>2026-04-29T13:22:52.001Z</time></trkpt><trkpt lat="37.546174660041906" lon="14.443810436632942"><ele>274.0</ele><time>2026-04-29T13:22:53.001Z</time></trkpt><trkpt lat="37.54610422531859" lon="14.44378358998739"><ele>274.0</ele><time>2026-04-29T13:22:54.001Z</time></trkpt><trkpt lat="37.546006151183825" lon="14.443733270453501"><ele>274.0</ele><time>2026-04-29T13:22:56.001Z</time></trkpt><trkpt lat="37.54592813941373" lon="14.443711265798523"><ele>274.0</ele><time>2026-04-29T13:22:59.001Z</time></trkpt><trkpt lat="37.54586362094372" lon="14.443688158272334"><ele>274.0</ele><time>2026-04-29T13:23:02.001Z</time></trkpt><trkpt lat="37.545789993326814" lon="14.44365157448128"><ele>274.0</ele><time>2026-04-29T13:23:26.001Z</time></trkpt><trkpt lat="37.54570548052189" lon="14.443614104112536"><ele>274.0</ele><time>2026-04-29T13:23:30.001Z</time></trkpt><trkpt lat="37.54561592111672" lon="14.4435774028424"><ele>274.0</ele><time>2026-04-29T13:23:32.001Z</time></trkpt><trkpt lat="37.54554592500522" lon="14.443543052828142"><ele>274.0</ele><time>2026-04-29T13:23:34.001Z</time></trkpt><trkpt lat="37.54547800703182" lon="14.443533973409236"><ele>274.0</ele><time>2026-04-29T13:23:38.001Z</time></trkpt><trkpt lat="37.545417126152174" lon="14.443511751085873"><ele>274.0</ele><time>2026-04-29T13:24:28.001Z</time></trkpt><trkpt lat="37.54529036312712" lon="14.443461101010515"><ele>274.0</ele><time>2026-04-29T13:24:30.001Z</time></trkpt><trkpt lat="37.54521854957617" lon="14.443441514552498"><ele>274.0</ele><time>2026-04-29T13:24:31.001Z</time></trkpt><trkpt lat="37.54510565045606" lon="14.443409787094756"><ele>274.0</ele><time>2026-04-29T13:24:33.001Z</time></trkpt><trkpt lat="37.545002482824714" lon="14.443373954642924"><ele>274.0</ele><time>2026-04-29T13:24:35.001Z</time></trkpt><trkpt lat="37.544862077781225" lon="14.443314651388402"><ele>274.0</ele><time>2026-04-29T13:24:37.001Z</time></trkpt><trkpt lat="37.54476523113148" lon="14.443277974858226"><ele>274.0</ele><time>2026-04-29T13:24:38.001Z</time></trkpt><trkpt lat="37.54466409557013" lon="14.443241436693569"><ele>274.0</ele><time>2026-04-29T13:24:39.001Z</time></trkpt><trkpt lat="37.54456745891557" lon="14.443211375508204"><ele>274.0</ele><time>2026-04-29T13:24:40.001Z</time></trkpt><trkpt lat="37.544468369976286" lon="14.443180940873377"><ele>274.0</ele><time>2026-04-29T13:24:41.001Z</time></trkpt><trkpt lat="37.54436751748372" lon="14.44314502628542"><ele>274.0</ele><time>2026-04-29T13:24:42.001Z</time></trkpt><trkpt lat="37.54426713019853" lon="14.443103747388745"><ele>274.2</ele><time>2026-04-29T13:24:43.001Z</time></trkpt><trkpt lat="37.54416236331181" lon="14.44306395204814"><ele>274.4</ele><time>2026-04-29T13:24:44.001Z</time></trkpt><trkpt lat="37.54405995886015" lon="14.443023535919261"><ele>274.6</ele><time>2026-04-29T13:24:45.001Z</time></trkpt><trkpt lat="37.543959986269684" lon="14.442987659562332"><ele>274.8</ele><time>2026-04-29T13:24:46.001Z</time></trkpt><trkpt lat="37.543865494977084" lon="14.442956146341272"><ele>275.0</ele><time>2026-04-29T13:24:47.001Z</time></trkpt><trkpt lat="37.54375711789362" lon="14.442916815940942"><ele>275.2</ele><time>2026-04-29T13:24:48.001Z</time></trkpt><trkpt lat="37.5436499342902" lon="14.44288119703427"><ele>275.4</ele><time>2026-04-29T13:24:49.001Z</time></trkpt><trkpt lat="37.54355408029929" lon="14.442842174955754"><ele>275.6</ele><time>2026-04-29T13:24:50.001Z</time></trkpt><trkpt lat="37.5434638201403" lon="14.442803826563509"><ele>275.8</ele><time>2026-04-29T13:24:51.001Z</time></trkpt><trkpt lat="37.54335922414574" lon="14.442760853412077"><ele>276.0</ele><time>2026-04-29T13:24:52.001Z</time></trkpt><trkpt lat="37.543228609273584" lon="14.44271414671141"><ele>276.0</ele><time>2026-04-29T13:24:53.001Z</time></trkpt><trkpt lat="37.54307614863212" lon="14.442658983718283"><ele>276.0</ele><time>2026-04-29T13:24:54.001Z</time></trkpt><trkpt lat="37.54290372712828" lon="14.442592280635441"><ele>276.0</ele><time>2026-04-29T13:24:55.001Z</time></trkpt><trkpt lat="37.54271671416908" lon="14.442503599018965"><ele>276.3333333333333</ele><time>2026-04-29T13:24:56.001Z</time></trkpt><trkpt lat="37.54251603104817" lon="14.442394306341017"><ele>276.66666666666663</ele><time>2026-04-29T13:24:57.001Z</time></trkpt><trkpt lat="37.542317103619226" lon="14.44227039686673"><ele>277.0</ele><time>2026-04-29T13:24:58.001Z</time></trkpt><trkpt lat="37.54212368776076" lon="14.442136845554838"><ele>278.5</ele><time>2026-04-29T13:24:59.001Z</time></trkpt><trkpt lat="37.54192926446776" lon="14.441980423765616"><ele>280.0</ele><time>2026-04-29T13:25:00.001Z</time></trkpt><trkpt lat="37.541731133853496" lon="14.441797580668416"><ele>280.0</ele><time>2026-04-29T13:25:01.001Z</time></trkpt><trkpt lat="37.54153539860594" lon="14.441598766179384"><ele>280.0</ele><time>2026-04-29T13:25:02.001Z</time></trkpt><trkpt lat="37.54135105855756" lon="14.441386490309023"><ele>280.0</ele><time>2026-04-29T13:25:03.001Z</time></trkpt><trkpt lat="37.54118569623892" lon="14.441168635135007"><ele>280.0</ele><time>2026-04-29T13:25:04.001Z</time></trkpt><trkpt lat="37.54103460912855" lon="14.440949145059545"><ele>280.0</ele><time>2026-04-29T13:25:05.001Z</time></trkpt><trkpt lat="37.540894265136195" lon="14.440721883037313"><ele>280.0</ele><time>2026-04-29T13:25:06.001Z</time></trkpt><trkpt lat="37.54076164235685" lon="14.440479086264826"><ele>279.0</ele><time>2026-04-29T13:25:07.001Z</time></trkpt><trkpt lat="37.54063034550336" lon="14.440230768783877"><ele>278.0</ele><time>2026-04-29T13:25:08.001Z</time></trkpt><trkpt lat="37.54049126693914" lon="14.439984107049769"><ele>279.5</ele><time>2026-04-29T13:25:09.001Z</time></trkpt><trkpt lat="37.54034834174373" lon="14.439735908845073"><ele>281.0</ele><time>2026-04-29T13:25:10.001Z</time></trkpt><trkpt lat="37.540208016697" lon="14.439487063172217"><ele>282.5</ele><time>2026-04-29T13:25:11.001Z</time></trkpt><trkpt lat="37.54007238180401" lon="14.439240762854958"><ele>284.0</ele><time>2026-04-29T13:25:12.001Z</time></trkpt><trkpt lat="37.53993665820995" lon="14.438998192221385"><ele>283.0</ele><time>2026-04-29T13:25:13.001Z</time></trkpt><trkpt lat="37.539805480818885" lon="14.438758252892033"><ele>282.0</ele><time>2026-04-29T13:25:14.001Z</time></trkpt><trkpt lat="37.539672194738856" lon="14.438517460153657"><ele>283.0</ele><time>2026-04-29T13:25:15.001Z</time></trkpt><trkpt lat="37.53953985815256" lon="14.438280092292535"><ele>284.0</ele><time>2026-04-29T13:25:16.001Z</time></trkpt><trkpt lat="37.539407803309786" lon="14.438048032107018"><ele>284.6666666666667</ele><time>2026-04-29T13:25:17.001Z</time></trkpt><trkpt lat="37.539277279035154" lon="14.437820381148304"><ele>285.3333333333333</ele><time>2026-04-29T13:25:18.001Z</time></trkpt><trkpt lat="37.53914852089871" lon="14.437587380042993"><ele>286.0</ele><time>2026-04-29T13:25:19.001Z</time></trkpt><trkpt lat="37.53902722980532" lon="14.437368232981026"><ele>286.0</ele><time>2026-04-29T13:25:20.001Z</time></trkpt><trkpt lat="37.53890070875049" lon="14.437141830092042"><ele>286.0</ele><time>2026-04-29T13:25:21.001Z</time></trkpt><trkpt lat="37.53877294388305" lon="14.436913461472432"><ele>286.0</ele><time>2026-04-29T13:25:22.001Z</time></trkpt><trkpt lat="37.538649931145066" lon="14.436694087838069"><ele>286.3333333333333</ele><time>2026-04-29T13:25:23.001Z</time></trkpt><trkpt lat="37.53854077700675" lon="14.436491415004255"><ele>286.6666666666667</ele><time>2026-04-29T13:25:24.001Z</time></trkpt><trkpt lat="37.53843661213232" lon="14.436303279477976"><ele>287.0</ele><time>2026-04-29T13:25:25.001Z</time></trkpt><trkpt lat="37.53833643901272" lon="14.436131317684252"><ele>287.0</ele><time>2026-04-29T13:25:26.001Z</time></trkpt><trkpt lat="37.538232985531394" lon="14.43594389089517"><ele>287.0</ele><time>2026-04-29T13:25:27.001Z</time></trkpt><trkpt lat="37.5381276211412" lon="14.435741324016146"><ele>287.0</ele><time>2026-04-29T13:25:28.001Z</time></trkpt><trkpt lat="37.53800335087266" lon="14.4355496235408"><ele>286.33333333333337</ele><time>2026-04-29T13:25:29.001Z</time></trkpt><trkpt lat="37.53790456874222" lon="14.43534387323872"><ele>285.6666666666667</ele><time>2026-04-29T13:25:30.001Z</time></trkpt><trkpt lat="37.53779265694044" lon="14.435155614854661"><ele>285.0</ele><time>2026-04-29T13:25:31.001Z</time></trkpt><trkpt lat="37.537685928962944" lon="14.434966177395179"><ele>287.0</ele><time>2026-04-29T13:25:32.001Z</time></trkpt><trkpt lat="37.537585975503745" lon="14.434786207392207"><ele>289.0</ele><time>2026-04-29T13:25:33.001Z</time></trkpt><trkpt lat="37.53748613379003" lon="14.434604681235719"><ele>291.0</ele><time>2026-04-29T13:25:34.001Z</time></trkpt><trkpt lat="37.53738740886708" lon="14.434424584775545"><ele>291.0</ele><time>2026-04-29T13:25:35.001Z</time></trkpt><trkpt lat="37.53729134696965" lon="14.434255254932602"><ele>291.0</ele><time>2026-04-29T13:25:36.001Z</time></trkpt><trkpt lat="37.53720241608399" lon="14.434096330615246"><ele>291.0</ele><time>2026-04-29T13:25:37.001Z</time></trkpt><trkpt lat="37.53711470104871" lon="14.433935915939458"><ele>293.6666666666667</ele><time>2026-04-29T13:25:38.001Z</time></trkpt><trkpt lat="37.537024306305355" lon="14.433764125699625"><ele>296.33333333333337</ele><time>2026-04-29T13:25:39.001Z</time></trkpt><trkpt lat="37.536939195048625" lon="14.433589197501252"><ele>299.0</ele><time>2026-04-29T13:25:40.001Z</time></trkpt><trkpt lat="37.5368828078723" lon="14.433429650091458"><ele>299.0</ele><time>2026-04-29T13:25:41.001Z</time></trkpt><trkpt lat="37.536839494494096" lon="14.433246104716913"><ele>299.0</ele><time>2026-04-29T13:25:42.001Z</time></trkpt><trkpt lat="37.536783684607336" lon="14.433063887009117"><ele>299.0</ele><time>2026-04-29T13:25:43.001Z</time></trkpt><trkpt lat="37.53675825064983" lon="14.432876108585017"><ele>299.0</ele><time>2026-04-29T13:25:44.001Z</time></trkpt><trkpt lat="37.536745527384326" lon="14.432685091622764"><ele>299.0</ele><time>2026-04-29T13:25:45.001Z</time></trkpt><trkpt lat="37.53674323709" lon="14.432503688290753"><ele>299.0</ele><time>2026-04-29T13:25:46.001Z</time></trkpt><trkpt lat="37.53677908346653" lon="14.432331411891703"><ele>299.0</ele><time>2026-04-29T13:25:47.001Z</time></trkpt><trkpt lat="37.536808670847506" lon="14.43215468285195"><ele>298.6666666666667</ele><time>2026-04-29T13:25:48.001Z</time></trkpt><trkpt lat="37.53685120696938" lon="14.43196915923458"><ele>298.3333333333333</ele><time>2026-04-29T13:25:49.001Z</time></trkpt><trkpt lat="37.53689928285494" lon="14.431779387870982"><ele>298.0</ele><time>2026-04-29T13:25:50.001Z</time></trkpt><trkpt lat="37.536955111016674" lon="14.431587275677712"><ele>298.0</ele><time>2026-04-29T13:25:51.001Z</time></trkpt><trkpt lat="37.53702014636179" lon="14.431381936420973"><ele>298.0</ele><time>2026-04-29T13:25:52.001Z</time></trkpt><trkpt lat="37.53708659493502" lon="14.43116221103864"><ele>298.0</ele><time>2026-04-29T13:25:53.001Z</time></trkpt><trkpt lat="37.53715414500388" lon="14.430941077189471"><ele>294.66666666666663</ele><time>2026-04-29T13:25:54.001Z</time></trkpt><trkpt lat="37.53722513660644" lon="14.430722907147883"><ele>291.3333333333333</ele><time>2026-04-29T13:25:55.001Z</time></trkpt><trkpt lat="37.5372849970607" lon="14.430519708207674"><ele>288.0</ele><time>2026-04-29T13:25:56.001Z</time></trkpt><trkpt lat="37.53734255483214" lon="14.430327314288483"><ele>288.0</ele><time>2026-04-29T13:25:57.001Z</time></trkpt><trkpt lat="37.5373954917418" lon="14.43015152672844"><ele>288.0</ele><time>2026-04-29T13:25:58.001Z</time></trkpt><trkpt lat="37.53744687845494" lon="14.43000387596032"><ele>288.0</ele><time>2026-04-29T13:25:59.001Z</time></trkpt><trkpt lat="37.537492847747956" lon="14.429872318508702"><ele>288.0</ele><time>2026-04-29T13:26:00.001Z</time></trkpt><trkpt lat="37.537530597313875" lon="14.42975663128359"><ele>288.0</ele><time>2026-04-29T13:26:01.001Z</time></trkpt><trkpt lat="37.53756651609229" lon="14.429655506849667"><ele>288.0</ele><time>2026-04-29T13:26:02.001Z</time></trkpt><trkpt lat="37.53759360410914" lon="14.429570671028841"><ele>288.0</ele><time>2026-04-29T13:26:03.001Z</time></trkpt><trkpt lat="37.537629305082675" lon="14.42946572085187"><ele>288.0</ele><time>2026-04-29T13:26:05.001Z</time></trkpt><trkpt lat="37.537565042866284" lon="14.429446957165077"><ele>288.0</ele><time>2026-04-29T13:26:18.001Z</time></trkpt><trkpt lat="37.53751615682031" lon="14.429563081954035"><ele>288.0</ele><time>2026-04-29T13:26:19.001Z</time></trkpt><trkpt lat="37.537489924410266" lon="14.429716812844731"><ele>288.0</ele><time>2026-04-29T13:26:20.001Z</time></trkpt><trkpt lat="37.53741154883854" lon="14.429835787604743"><ele>288.0</ele><time>2026-04-29T13:26:21.001Z</time></trkpt><trkpt lat="37.53737607869491" lon="14.429945053936558"><ele>288.0</ele><time>2026-04-29T13:26:22.001Z</time></trkpt><trkpt lat="37.53734669178811" lon="14.430036039324436"><ele>288.0</ele><time>2026-04-29T13:26:23.001Z</time></trkpt><trkpt lat="37.53731119866068" lon="14.430148391041795"><ele>288.0</ele><time>2026-04-29T13:26:25.001Z</time></trkpt><trkpt lat="37.53734019226969" lon="14.430056613224263"><ele>288.0</ele><time>2026-04-29T13:29:22Z</time></trkpt><trkpt lat="37.537375893542375" lon="14.429945624097213"><ele>288.0</ele><time>2026-04-29T13:29:24Z</time></trkpt><trkpt lat="37.537417645327345" lon="14.429817028513716"><ele>288.0</ele><time>2026-04-29T13:29:26Z</time></trkpt><trkpt lat="37.53744374692029" lon="14.429736635311023"><ele>288.0</ele><time>2026-04-29T13:29:27Z</time></trkpt><trkpt lat="37.537472535222605" lon="14.429647325835662"><ele>288.0</ele><time>2026-04-29T13:29:28Z</time></trkpt><trkpt lat="37.53750145458202" lon="14.429557958822256"><ele>288.0</ele><time>2026-04-29T13:29:29Z</time></trkpt><trkpt lat="37.53755183094082" lon="14.429408343884452"><ele>287.8</ele><time>2026-04-29T13:29:30Z</time></trkpt><trkpt lat="37.53767093895139" lon="14.429310232024841"><ele>287.6</ele><time>2026-04-29T13:29:31Z</time></trkpt><trkpt lat="37.5377078205757" lon="14.429193877510041"><ele>287.4</ele><time>2026-04-29T13:29:32Z</time></trkpt><trkpt lat="37.537744756056306" lon="14.429073652657296"><ele>287.2</ele><time>2026-04-29T13:29:33Z</time></trkpt><trkpt lat="37.53777893963824" lon="14.428963013854162"><ele>287.0</ele><time>2026-04-29T13:29:34Z</time></trkpt><trkpt lat="37.53781369207147" lon="14.428859406485783"><ele>286.83333333333337</ele><time>2026-04-29T13:29:35Z</time></trkpt><trkpt lat="37.537849332182816" lon="14.428756469637607"><ele>286.6666666666667</ele><time>2026-04-29T13:29:36Z</time></trkpt><trkpt lat="37.537879599057185" lon="14.428648090932214"><ele>286.5</ele><time>2026-04-29T13:29:37Z</time></trkpt><trkpt lat="37.53790834550654" lon="14.428544495542985"><ele>286.3333333333333</ele><time>2026-04-29T13:29:38Z</time></trkpt><trkpt lat="37.537933910809464" lon="14.428445916145101"><ele>286.16666666666663</ele><time>2026-04-29T13:29:39Z</time></trkpt><trkpt lat="37.53796856560614" lon="14.428336039452414"><ele>286.0</ele><time>2026-04-29T13:29:40.001Z</time></trkpt><trkpt lat="37.5380080824052" lon="14.428213285351603"><ele>286.0</ele><time>2026-04-29T13:29:41.001Z</time></trkpt><trkpt lat="37.53804619832779" lon="14.428079423054225"><ele>286.0</ele><time>2026-04-29T13:29:42.001Z</time></trkpt><trkpt lat="37.53808945752092" lon="14.427944763886664"><ele>286.0</ele><time>2026-04-29T13:29:43.001Z</time></trkpt><trkpt lat="37.53813152600524" lon="14.427817270204217"><ele>286.0</ele><time>2026-04-29T13:29:44.001Z</time></trkpt><trkpt lat="37.53817180933832" lon="14.427685244390396"><ele>286.0</ele><time>2026-04-29T13:29:45.001Z</time></trkpt><trkpt lat="37.53821192772614" lon="14.42755363133855"><ele>286.0</ele><time>2026-04-29T13:29:46.001Z</time></trkpt><trkpt lat="37.53825144700137" lon="14.4274271344444"><ele>286.0</ele><time>2026-04-29T13:29:47.001Z</time></trkpt><trkpt lat="37.53829275880814" lon="14.427303052232043"><ele>286.0</ele><time>2026-04-29T13:29:48.001Z</time></trkpt><trkpt lat="37.53833325126971" lon="14.427175622730116"><ele>286.0</ele><time>2026-04-29T13:29:49.001Z</time></trkpt><trkpt lat="37.53837228276235" lon="14.427048732332027"><ele>286.40000000000003</ele><time>2026-04-29T13:29:50.001Z</time></trkpt><trkpt lat="37.53840905711967" lon="14.426921320680043"><ele>286.8</ele><time>2026-04-29T13:29:51.001Z</time></trkpt><trkpt lat="37.538444552044574" lon="14.426795068908083"><ele>287.20000000000005</ele><time>2026-04-29T13:29:52.001Z</time></trkpt><trkpt lat="37.53848165863375" lon="14.426671164774348"><ele>287.6</ele><time>2026-04-29T13:29:53.001Z</time></trkpt><trkpt lat="37.53852011069957" lon="14.426546235768846"><ele>288.0</ele><time>2026-04-29T13:29:54.001Z</time></trkpt><trkpt lat="37.538557297861736" lon="14.426423760697507"><ele>287.8</ele><time>2026-04-29T13:29:55.001Z</time></trkpt><trkpt lat="37.53859394879979" lon="14.426305155160593"><ele>287.6</ele><time>2026-04-29T13:29:56.001Z</time></trkpt><trkpt lat="37.53863121856447" lon="14.426189336095918"><ele>287.4</ele><time>2026-04-29T13:29:57.001Z</time></trkpt><trkpt lat="37.53867056674406" lon="14.42607283412136"><ele>287.2</ele><time>2026-04-29T13:29:58.001Z</time></trkpt><trkpt lat="37.538709210559" lon="14.42595667913043"><ele>287.0</ele><time>2026-04-29T13:29:59.001Z</time></trkpt><trkpt lat="37.538752010506165" lon="14.42584261953439"><ele>287.6</ele><time>2026-04-29T13:30:00.001Z</time></trkpt><trkpt lat="37.53880221207635" lon="14.425733601802742"><ele>288.2</ele><time>2026-04-29T13:30:01.001Z</time></trkpt><trkpt lat="37.53883291722114" lon="14.425623374283873"><ele>288.8</ele><time>2026-04-29T13:30:02.001Z</time></trkpt><trkpt lat="37.53888182216418" lon="14.425517235608506"><ele>289.4</ele><time>2026-04-29T13:30:03.001Z</time></trkpt><trkpt lat="37.53893547301385" lon="14.425428385172628"><ele>290.0</ele><time>2026-04-29T13:30:04.001Z</time></trkpt><trkpt lat="37.5389917239234" lon="14.425349247430782"><ele>290.5</ele><time>2026-04-29T13:30:05.001Z</time></trkpt><trkpt lat="37.53905504217048" lon="14.425274283792241"><ele>291.0</ele><time>2026-04-29T13:30:06.001Z</time></trkpt><trkpt lat="37.539112371908125" lon="14.425212113112861"><ele>291.5</ele><time>2026-04-29T13:30:07.001Z</time></trkpt><trkpt lat="37.5392004066191" lon="14.425138681074547"><ele>292.0</ele><time>2026-04-29T13:30:09.001Z</time></trkpt><trkpt lat="37.53920473498708" lon="14.425045652992528"><ele>292.5</ele><time>2026-04-29T13:30:10.001Z</time></trkpt><trkpt lat="37.53919155014232" lon="14.424929425876023"><ele>293.0</ele><time>2026-04-29T13:30:11.001Z</time></trkpt><trkpt lat="37.539167531257846" lon="14.424792522867737"><ele>293.25</ele><time>2026-04-29T13:30:12.001Z</time></trkpt><trkpt lat="37.53913293012342" lon="14.42464175064809"><ele>293.5</ele><time>2026-04-29T13:30:13.001Z</time></trkpt><trkpt lat="37.53909804649638" lon="14.42449006431016"><ele>293.75</ele><time>2026-04-29T13:30:14.001Z</time></trkpt><trkpt lat="37.53907585603458" lon="14.424341883388143"><ele>294.0</ele><time>2026-04-29T13:30:15.001Z</time></trkpt><trkpt lat="37.53906246270016" lon="14.424186401105676"><ele>294.0</ele><time>2026-04-29T13:30:16.001Z</time></trkpt><trkpt lat="37.539051093314725" lon="14.424032053188924"><ele>294.0</ele><time>2026-04-29T13:30:17.001Z</time></trkpt><trkpt lat="37.53904090421295" lon="14.42388345690017"><ele>294.0</ele><time>2026-04-29T13:30:18.001Z</time></trkpt><trkpt lat="37.539031373578084" lon="14.423735611212267"><ele>294.0</ele><time>2026-04-29T13:30:19.001Z</time></trkpt><trkpt lat="37.539021389202276" lon="14.42358720422879"><ele>294.25</ele><time>2026-04-29T13:30:20.001Z</time></trkpt><trkpt lat="37.53901050764218" lon="14.423441623741422"><ele>294.5</ele><time>2026-04-29T13:30:21.001Z</time></trkpt><trkpt lat="37.53900164437766" lon="14.42330026576708"><ele>294.75</ele><time>2026-04-29T13:30:22.001Z</time></trkpt><trkpt lat="37.53899231326766" lon="14.423153127551393"><ele>295.0</ele><time>2026-04-29T13:30:23.001Z</time></trkpt><trkpt lat="37.53898337701266" lon="14.423006013231563"><ele>295.75</ele><time>2026-04-29T13:30:24.001Z</time></trkpt><trkpt lat="37.538975020369676" lon="14.422864059406672"><ele>296.5</ele><time>2026-04-29T13:30:25.001Z</time></trkpt><trkpt lat="37.538964631128486" lon="14.422719058337869"><ele>297.25</ele><time>2026-04-29T13:30:26.001Z</time></trkpt><trkpt lat="37.53895229451923" lon="14.422572490864633"><ele>298.0</ele><time>2026-04-29T13:30:27.001Z</time></trkpt><trkpt lat="37.53894498048384" lon="14.422425618765752"><ele>298.0</ele><time>2026-04-29T13:30:28.001Z</time></trkpt><trkpt lat="37.53893536160237" lon="14.42227517568194"><ele>298.0</ele><time>2026-04-29T13:30:29.001Z</time></trkpt><trkpt lat="37.538924259468494" lon="14.422124365218748"><ele>298.0</ele><time>2026-04-29T13:30:30.001Z</time></trkpt><trkpt lat="37.53891407075679" lon="14.421973336394224"><ele>298.0</ele><time>2026-04-29T13:30:31.001Z</time></trkpt><trkpt lat="37.53890629906273" lon="14.421823762366694"><ele>298.25</ele><time>2026-04-29T13:30:32.001Z</time></trkpt><trkpt lat="37.53889779239514" lon="14.42168024927292"><ele>298.5</ele><time>2026-04-29T13:30:33.001Z</time></trkpt><trkpt lat="37.53888861739913" lon="14.421536166773608"><ele>298.75</ele><time>2026-04-29T13:30:34.001Z</time></trkpt><trkpt lat="37.53888320438927" lon="14.42138530089197"><ele>299.0</ele><time>2026-04-29T13:30:35.001Z</time></trkpt><trkpt lat="37.53888423062921" lon="14.421225396309994"><ele>299.75</ele><time>2026-04-29T13:30:36.001Z</time></trkpt><trkpt lat="37.53889306269628" lon="14.42106152466744"><ele>300.5</ele><time>2026-04-29T13:30:37.001Z</time></trkpt><trkpt lat="37.538903590928484" lon="14.420892516181013"><ele>301.25</ele><time>2026-04-29T13:30:38.001Z</time></trkpt><trkpt lat="37.53891879631059" lon="14.420718995719845"><ele>302.0</ele><time>2026-04-29T13:30:39.001Z</time></trkpt><trkpt lat="37.53893775499577" lon="14.420537356579995"><ele>302.25</ele><time>2026-04-29T13:30:40.001Z</time></trkpt><trkpt lat="37.538952009554116" lon="14.420357881345769"><ele>302.5</ele><time>2026-04-29T13:30:41.001Z</time></trkpt><trkpt lat="37.53896582651225" lon="14.420172313717353"><ele>302.75</ele><time>2026-04-29T13:30:42.001Z</time></trkpt><trkpt lat="37.53897917013109" lon="14.41998143240078"><ele>303.0</ele><time>2026-04-29T13:30:43.001Z</time></trkpt><trkpt lat="37.53899222565716" lon="14.419787152648137"><ele>303.0</ele><time>2026-04-29T13:30:44.001Z</time></trkpt><trkpt lat="37.53900596731693" lon="14.419589642601398"><ele>303.0</ele><time>2026-04-29T13:30:45.001Z</time></trkpt><trkpt lat="37.53902000187902" lon="14.419390435659244"><ele>303.0</ele><time>2026-04-29T13:30:46.001Z</time></trkpt><trkpt lat="37.539034165006065" lon="14.419186243819954"><ele>303.0</ele><time>2026-04-29T13:30:47.001Z</time></trkpt><trkpt lat="37.539044973899976" lon="14.418977894923396"><ele>303.0</ele><time>2026-04-29T13:30:48.001Z</time></trkpt><trkpt lat="37.53905470000509" lon="14.418768185875589"><ele>303.0</ele><time>2026-04-29T13:30:49.001Z</time></trkpt><trkpt lat="37.53906399187123" lon="14.418555384251922"><ele>302.6666666666667</ele><time>2026-04-29T13:30:50.001Z</time></trkpt><trkpt lat="37.539074727447186" lon="14.41833919052756"><ele>302.33333333333337</ele><time>2026-04-29T13:30:51.001Z</time></trkpt><trkpt lat="37.539084945494395" lon="14.418126113800842"><ele>302.0</ele><time>2026-04-29T13:30:52.001Z</time></trkpt><trkpt lat="37.53909393985489" lon="14.417917490440264"><ele>303.0</ele><time>2026-04-29T13:30:53.001Z</time></trkpt><trkpt lat="37.53910590489282" lon="14.41771565590189"><ele>304.0</ele><time>2026-04-29T13:30:54.001Z</time></trkpt><trkpt lat="37.53911365423299" lon="14.417513131538232"><ele>305.0</ele><time>2026-04-29T13:30:55Z</time></trkpt><trkpt lat="37.5391212597973" lon="14.417314129358097"><ele>304.6666666666667</ele><time>2026-04-29T13:30:56Z</time></trkpt><trkpt lat="37.53912540185159" lon="14.417117213319102"><ele>304.3333333333333</ele><time>2026-04-29T13:30:57Z</time></trkpt><trkpt lat="37.53912312132931" lon="14.416916313272674"><ele>304.0</ele><time>2026-04-29T13:30:58Z</time></trkpt><trkpt lat="37.5391085748378" lon="14.416710887761075"><ele>304.0</ele><time>2026-04-29T13:30:59Z</time></trkpt><trkpt lat="37.53908836382869" lon="14.41650320237853"><ele>304.0</ele><time>2026-04-29T13:31:00Z</time></trkpt><trkpt lat="37.539061483282346" lon="14.416294283736221"><ele>304.0</ele><time>2026-04-29T13:31:01Z</time></trkpt><trkpt lat="37.53902949141176" lon="14.416083004467692"><ele>304.3333333333333</ele><time>2026-04-29T13:31:02Z</time></trkpt><trkpt lat="37.5389989265661" lon="14.415873788160585"><ele>304.6666666666667</ele><time>2026-04-29T13:31:03Z</time></trkpt><trkpt lat="37.53896766202297" lon="14.415663647154718"><ele>305.0</ele><time>2026-04-29T13:31:04Z</time></trkpt><trkpt lat="37.5389360590217" lon="14.4154520324165"><ele>305.0</ele><time>2026-04-29T13:31:05Z</time></trkpt><trkpt lat="37.53890423408582" lon="14.415240202023838"><ele>305.0</ele><time>2026-04-29T13:31:06Z</time></trkpt><trkpt lat="37.53887188418684" lon="14.415030307591715"><ele>305.0</ele><time>2026-04-29T13:31:07Z</time></trkpt><trkpt lat="37.53884055376481" lon="14.414821156495613"><ele>305.0</ele><time>2026-04-29T13:31:08Z</time></trkpt><trkpt lat="37.5388108439915" lon="14.41461326662053"><ele>305.0</ele><time>2026-04-29T13:31:09Z</time></trkpt><trkpt lat="37.53878004877787" lon="14.41440485808533"><ele>305.0</ele><time>2026-04-29T13:31:10Z</time></trkpt><trkpt lat="37.53874655620675" lon="14.414198465202965"><ele>305.0</ele><time>2026-04-29T13:31:11Z</time></trkpt><trkpt lat="37.53871270754046" lon="14.413992067894121"><ele>305.0</ele><time>2026-04-29T13:31:12Z</time></trkpt><trkpt lat="37.53868076332361" lon="14.413787868109166"><ele>305.0</ele><time>2026-04-29T13:31:13Z</time></trkpt><trkpt lat="37.53864968375567" lon="14.413591036518767"><ele>305.0</ele><time>2026-04-29T13:31:14Z</time></trkpt><trkpt lat="37.53861765012083" lon="14.41340865390654"><ele>305.0</ele><time>2026-04-29T13:31:15Z</time></trkpt><trkpt lat="37.53858402282843" lon="14.413235119723863"><ele>305.0</ele><time>2026-04-29T13:31:16Z</time></trkpt><trkpt lat="37.53855075865725" lon="14.413079591017935"><ele>305.0</ele><time>2026-04-29T13:31:17Z</time></trkpt><trkpt lat="37.5385176324887" lon="14.412956824389404"><ele>304.83333333333337</ele><time>2026-04-29T13:31:18Z</time></trkpt><trkpt lat="37.53848977928972" lon="14.412862860255025"><ele>304.6666666666667</ele><time>2026-04-29T13:31:19Z</time></trkpt><trkpt lat="37.538470625568074" lon="14.412786947441878"><ele>304.5</ele><time>2026-04-29T13:31:20Z</time></trkpt><trkpt lat="37.53847112965945" lon="14.41268519271972"><ele>304.3333333333333</ele><time>2026-04-29T13:31:22Z</time></trkpt><trkpt lat="37.53845747216942" lon="14.412585225788654"><ele>304.16666666666663</ele><time>2026-04-29T13:31:25Z</time></trkpt><trkpt lat="37.53839803020502" lon="14.412536988488784"><ele>304.0</ele><time>2026-04-29T13:36:54.001Z</time></trkpt><trkpt lat="37.53840357553953" lon="14.412407853414372"><ele>304.0</ele><time>2026-04-29T13:36:56.001Z</time></trkpt><trkpt lat="37.53841797654438" lon="14.412303851482767"><ele>304.0</ele><time>2026-04-29T13:36:57.001Z</time></trkpt><trkpt lat="37.53842912614411" lon="14.412172181593675"><ele>304.0</ele><time>2026-04-29T13:36:58.001Z</time></trkpt><trkpt lat="37.53843318005906" lon="14.412017439028784"><ele>304.0</ele><time>2026-04-29T13:36:59.001Z</time></trkpt><trkpt lat="37.538426069850615" lon="14.411844958415914"><ele>304.0</ele><time>2026-04-29T13:37:00.001Z</time></trkpt><trkpt lat="37.5384192277643" lon="14.411651104379818"><ele>305.3333333333333</ele><time>2026-04-29T13:37:01.001Z</time></trkpt><trkpt lat="37.53841333953192" lon="14.411457831258348"><ele>306.6666666666667</ele><time>2026-04-29T13:37:02.001Z</time></trkpt><trkpt lat="37.53840433637972" lon="14.411272810085944"><ele>308.0</ele><time>2026-04-29T13:37:03.001Z</time></trkpt><trkpt lat="37.53839060833707" lon="14.411080012971087"><ele>308.0</ele><time>2026-04-29T13:37:04.001Z</time></trkpt><trkpt lat="37.53838029400724" lon="14.410904216989145"><ele>308.0</ele><time>2026-04-29T13:37:05.001Z</time></trkpt><trkpt lat="37.538374547280874" lon="14.41074428165967"><ele>308.0</ele><time>2026-04-29T13:37:06.001Z</time></trkpt><trkpt lat="37.53837621231227" lon="14.41059392626362"><ele>308.0</ele><time>2026-04-29T13:37:07.001Z</time></trkpt><trkpt lat="37.538380564772815" lon="14.410451815264377"><ele>308.0</ele><time>2026-04-29T13:37:08.001Z</time></trkpt><trkpt lat="37.538390057034164" lon="14.410316366408919"><ele>308.0</ele><time>2026-04-29T13:37:09.001Z</time></trkpt><trkpt lat="37.53840901175713" lon="14.410190639433536"><ele>308.0</ele><time>2026-04-29T13:37:10.001Z</time></trkpt><trkpt lat="37.5384361922562" lon="14.410070465456956"><ele>308.0</ele><time>2026-04-29T13:37:11.001Z</time></trkpt><trkpt lat="37.53847296942139" lon="14.409960753886343"><ele>308.0</ele><time>2026-04-29T13:37:12.001Z</time></trkpt><trkpt lat="37.538519100927275" lon="14.40985034204606"><ele>308.0</ele><time>2026-04-29T13:37:13Z</time></trkpt><trkpt lat="37.53857703293555" lon="14.409722508466885"><ele>308.0</ele><time>2026-04-29T13:37:14Z</time></trkpt><trkpt lat="37.538643617852046" lon="14.409578611316027"><ele>308.0</ele><time>2026-04-29T13:37:15Z</time></trkpt><trkpt lat="37.53871911822574" lon="14.40942314521705"><ele>308.0</ele><time>2026-04-29T13:37:16Z</time></trkpt><trkpt lat="37.538798645012854" lon="14.409260696566697"><ele>307.6666666666667</ele><time>2026-04-29T13:37:17Z</time></trkpt><trkpt lat="37.53888544238238" lon="14.40908984237672"><ele>307.3333333333333</ele><time>2026-04-29T13:37:18Z</time></trkpt><trkpt lat="37.538980147716686" lon="14.408903546414022"><ele>307.0</ele><time>2026-04-29T13:37:19Z</time></trkpt><trkpt lat="37.5390852263923" lon="14.408702377319239"><ele>307.0</ele><time>2026-04-29T13:37:20Z</time></trkpt><trkpt lat="37.5392007431388" lon="14.408496150630159"><ele>307.0</ele><time>2026-04-29T13:37:21Z</time></trkpt><trkpt lat="37.539316409047416" lon="14.408299810832448"><ele>307.0</ele><time>2026-04-29T13:37:22Z</time></trkpt><trkpt lat="37.53943336016809" lon="14.408106709889864"><ele>307.66666666666663</ele><time>2026-04-29T13:37:23Z</time></trkpt><trkpt lat="37.5395568869601" lon="14.40791187808096"><ele>308.3333333333333</ele><time>2026-04-29T13:37:24Z</time></trkpt><trkpt lat="37.53968268517968" lon="14.407711216578642"><ele>309.0</ele><time>2026-04-29T13:37:25Z</time></trkpt><trkpt lat="37.53980504335036" lon="14.407501744390155"><ele>309.0</ele><time>2026-04-29T13:37:26Z</time></trkpt><trkpt lat="37.53992906224335" lon="14.407286367575894"><ele>309.0</ele><time>2026-04-29T13:37:27Z</time></trkpt><trkpt lat="37.540060180215335" lon="14.407075305597681"><ele>309.0</ele><time>2026-04-29T13:37:28Z</time></trkpt><trkpt lat="37.54019041160686" lon="14.406875835001479"><ele>309.0</ele><time>2026-04-29T13:37:29Z</time></trkpt><trkpt lat="37.540303778885495" lon="14.406687921850354"><ele>309.0</ele><time>2026-04-29T13:37:30Z</time></trkpt><trkpt lat="37.540399087574585" lon="14.40652408471649"><ele>309.0</ele><time>2026-04-29T13:37:31Z</time></trkpt><trkpt lat="37.54047931409763" lon="14.406373512402045"><ele>309.59999999999997</ele><time>2026-04-29T13:37:32Z</time></trkpt><trkpt lat="37.54053818558507" lon="14.406249187828694"><ele>310.2</ele><time>2026-04-29T13:37:33Z</time></trkpt><trkpt lat="37.54057893780162" lon="14.406140885818653"><ele>310.79999999999995</ele><time>2026-04-29T13:37:34Z</time></trkpt><trkpt lat="37.540626991539526" lon="14.40605569779529"><ele>311.4</ele><time>2026-04-29T13:37:35Z</time></trkpt><trkpt lat="37.54067431312759" lon="14.405971206962738"><ele>312.0</ele><time>2026-04-29T13:37:36Z</time></trkpt><trkpt lat="37.540600504897014" lon="14.405757069823503"><ele>312.0</ele><time>2026-04-29T13:37:37Z</time></trkpt><trkpt lat="37.54059866903646" lon="14.405593270186582"><ele>312.0</ele><time>2026-04-29T13:37:38Z</time></trkpt><trkpt lat="37.54059744371454" lon="14.4054158646991"><ele>312.0</ele><time>2026-04-29T13:37:39Z</time></trkpt><trkpt lat="37.54060423168965" lon="14.405213702176255"><ele>312.0</ele><time>2026-04-29T13:37:40Z</time></trkpt><trkpt lat="37.54061140791252" lon="14.405003078261819"><ele>312.0</ele><time>2026-04-29T13:37:41Z</time></trkpt><trkpt lat="37.54062056200351" lon="14.40480454009985"><ele>312.0</ele><time>2026-04-29T13:37:42Z</time></trkpt><trkpt lat="37.54062430699686" lon="14.404623396300265"><ele>312.0</ele><time>2026-04-29T13:37:43Z</time></trkpt><trkpt lat="37.54062680466724" lon="14.40445583000209"><ele>312.0</ele><time>2026-04-29T13:37:44Z</time></trkpt><trkpt lat="37.54062943054623" lon="14.404298659765725"><ele>312.0</ele><time>2026-04-29T13:37:45Z</time></trkpt><trkpt lat="37.54062709541671" lon="14.40413597100261"><ele>312.0</ele><time>2026-04-29T13:37:46Z</time></trkpt><trkpt lat="37.54061707417187" lon="14.403962586202848"><ele>312.0</ele><time>2026-04-29T13:37:47Z</time></trkpt><trkpt lat="37.54059475924183" lon="14.403779699882245"><ele>312.0</ele><time>2026-04-29T13:37:48Z</time></trkpt><trkpt lat="37.540557178955616" lon="14.403593604456743"><ele>312.0</ele><time>2026-04-29T13:37:49Z</time></trkpt><trkpt lat="37.540512362203806" lon="14.40340723825348"><ele>312.0</ele><time>2026-04-29T13:37:50Z</time></trkpt><trkpt lat="37.540473290456106" lon="14.403238883000345"><ele>312.0</ele><time>2026-04-29T13:37:51Z</time></trkpt><trkpt lat="37.540437320782175" lon="14.403084440818008"><ele>312.0</ele><time>2026-04-29T13:37:52Z</time></trkpt><trkpt lat="37.540397276987996" lon="14.402940975697028"><ele>312.25</ele><time>2026-04-29T13:37:53Z</time></trkpt><trkpt lat="37.54034832989614" lon="14.402803865295276"><ele>312.5</ele><time>2026-04-29T13:37:54Z</time></trkpt><trkpt lat="37.540275337282736" lon="14.402680383059725"><ele>312.75</ele><time>2026-04-29T13:37:55Z</time></trkpt><trkpt lat="37.54019247608637" lon="14.402581901594132"><ele>313.0</ele><time>2026-04-29T13:37:56Z</time></trkpt><trkpt lat="37.540123119422546" lon="14.402490864668863"><ele>313.0</ele><time>2026-04-29T13:37:57Z</time></trkpt><trkpt lat="37.54002303590526" lon="14.402456473027401"><ele>313.0</ele><time>2026-04-29T13:37:58Z</time></trkpt><trkpt lat="37.539916071604765" lon="14.402442866346398"><ele>313.0</ele><time>2026-04-29T13:37:59Z</time></trkpt><trkpt lat="37.53979298672174" lon="14.402430320683473"><ele>313.0</ele><time>2026-04-29T13:38:00Z</time></trkpt><trkpt lat="37.53966503639028" lon="14.402413292905553"><ele>312.75</ele><time>2026-04-29T13:38:01Z</time></trkpt><trkpt lat="37.53954591600868" lon="14.402386607521057"><ele>312.5</ele><time>2026-04-29T13:38:02Z</time></trkpt><trkpt lat="37.53941642193507" lon="14.402398610183514"><ele>312.25</ele><time>2026-04-29T13:38:03Z</time></trkpt><trkpt lat="37.53929334678816" lon="14.40235556280649"><ele>312.0</ele><time>2026-04-29T13:38:04Z</time></trkpt><trkpt lat="37.53916815896356" lon="14.402330257099724"><ele>312.0</ele><time>2026-04-29T13:38:05Z</time></trkpt><trkpt lat="37.539040455115824" lon="14.40230977749904"><ele>312.0</ele><time>2026-04-29T13:38:06Z</time></trkpt><trkpt lat="37.53891358190448" lon="14.40224955237927"><ele>312.0</ele><time>2026-04-29T13:38:07Z</time></trkpt><trkpt lat="37.53877189064151" lon="14.402227445657903"><ele>312.0</ele><time>2026-04-29T13:38:08Z</time></trkpt><trkpt lat="37.53863975139156" lon="14.402143543748297"><ele>312.25</ele><time>2026-04-29T13:38:09Z</time></trkpt><trkpt lat="37.538503210998556" lon="14.402083019295118"><ele>312.5</ele><time>2026-04-29T13:38:10Z</time></trkpt><trkpt lat="37.538374945743314" lon="14.401992049834911"><ele>312.75</ele><time>2026-04-29T13:38:11Z</time></trkpt><trkpt lat="37.53825360355858" lon="14.401902693078922"><ele>313.0</ele><time>2026-04-29T13:38:12Z</time></trkpt><trkpt lat="37.5381331726299" lon="14.401813891889315"><ele>313.0</ele><time>2026-04-29T13:38:13Z</time></trkpt><trkpt lat="37.538013766255055" lon="14.4017242421646"><ele>313.0</ele><time>2026-04-29T13:38:14Z</time></trkpt><trkpt lat="37.53789268464107" lon="14.401635726190621"><ele>313.0</ele><time>2026-04-29T13:38:15Z</time></trkpt><trkpt lat="37.537779037667" lon="14.401527348994097"><ele>313.0</ele><time>2026-04-29T13:38:16Z</time></trkpt><trkpt lat="37.53765450813474" lon="14.401434911291517"><ele>312.3333333333333</ele><time>2026-04-29T13:38:17Z</time></trkpt><trkpt lat="37.53752881932075" lon="14.401342160680045"><ele>311.6666666666667</ele><time>2026-04-29T13:38:18.001Z</time></trkpt><trkpt lat="37.5373990621224" lon="14.401246408179276"><ele>311.0</ele><time>2026-04-29T13:38:19.001Z</time></trkpt><trkpt lat="37.53726214994694" lon="14.401145375358142"><ele>312.0</ele><time>2026-04-29T13:38:20.001Z</time></trkpt><trkpt lat="37.5371215262067" lon="14.401042324591097"><ele>313.0</ele><time>2026-04-29T13:38:21.001Z</time></trkpt><trkpt lat="37.53697872214472" lon="14.400940619284896"><ele>314.0</ele><time>2026-04-29T13:38:22.001Z</time></trkpt><trkpt lat="37.5368340332174" lon="14.400840211734316"><ele>314.0</ele><time>2026-04-29T13:38:23.001Z</time></trkpt><trkpt lat="37.536687050014166" lon="14.40073952937351"><ele>314.0</ele><time>2026-04-29T13:38:24.001Z</time></trkpt><trkpt lat="37.53653548974905" lon="14.400631721352246"><ele>314.0</ele><time>2026-04-29T13:38:25.001Z</time></trkpt><trkpt lat="37.53638452362135" lon="14.400522912897598"><ele>313.75</ele><time>2026-04-29T13:38:26.001Z</time></trkpt><trkpt lat="37.53624543519078" lon="14.400422506670393"><ele>313.5</ele><time>2026-04-29T13:38:27.001Z</time></trkpt><trkpt lat="37.536116899295905" lon="14.400327548152683"><ele>313.25</ele><time>2026-04-29T13:38:28.001Z</time></trkpt><trkpt lat="37.53599766694392" lon="14.40023729044685"><ele>313.0</ele><time>2026-04-29T13:38:29.001Z</time></trkpt><trkpt lat="37.53590077541784" lon="14.400164471188736"><ele>313.0</ele><time>2026-04-29T13:38:30.001Z</time></trkpt><trkpt lat="37.535830484076605" lon="14.400115191749912"><ele>313.0</ele><time>2026-04-29T13:38:31.001Z</time></trkpt><trkpt lat="37.53575197970796" lon="14.400085852612643"><ele>313.0</ele><time>2026-04-29T13:38:32.001Z</time></trkpt><trkpt lat="37.53569687931664" lon="14.400020140273355"><ele>313.0</ele><time>2026-04-29T13:38:33.001Z</time></trkpt><trkpt lat="37.53565082174427" lon="14.39994075626454"><ele>313.0</ele><time>2026-04-29T13:38:34.001Z</time></trkpt><trkpt lat="37.53561814886215" lon="14.399844207946266"><ele>313.0</ele><time>2026-04-29T13:38:35.001Z</time></trkpt><trkpt lat="37.535582377939235" lon="14.399752013877006"><ele>313.0</ele><time>2026-04-29T13:38:36.001Z</time></trkpt><trkpt lat="37.535520591950814" lon="14.399671325994406"><ele>313.0</ele><time>2026-04-29T13:38:37.001Z</time></trkpt><trkpt lat="37.535449283057275" lon="14.399611838305548"><ele>313.0</ele><time>2026-04-29T13:38:38.001Z</time></trkpt><trkpt lat="37.53538631434937" lon="14.399564668878295"><ele>313.0</ele><time>2026-04-29T13:38:39.001Z</time></trkpt><trkpt lat="37.53531060987358" lon="14.399513018903557"><ele>313.0</ele><time>2026-04-29T13:38:42.001Z</time></trkpt><trkpt lat="37.53519608144233" lon="14.399446628123286"><ele>313.66666666666663</ele><time>2026-04-29T13:38:44.001Z</time></trkpt><trkpt lat="37.5351186791333" lon="14.39940460672907"><ele>314.3333333333333</ele><time>2026-04-29T13:38:45.001Z</time></trkpt><trkpt lat="37.535055202687246" lon="14.399366601710408"><ele>315.0</ele><time>2026-04-29T13:38:46.001Z</time></trkpt><trkpt lat="37.534997495979916" lon="14.399329787733576"><ele>315.6666666666667</ele><time>2026-04-29T13:38:47.001Z</time></trkpt><trkpt lat="37.53493481067177" lon="14.39928956913425"><ele>316.33333333333337</ele><time>2026-04-29T13:38:48.001Z</time></trkpt><trkpt lat="37.53485829621908" lon="14.399263664609471"><ele>317.0</ele><time>2026-04-29T13:38:49.001Z</time></trkpt><trkpt lat="37.534773831347614" lon="14.399201936782587"><ele>317.0</ele><time>2026-04-29T13:38:50.001Z</time></trkpt><trkpt lat="37.53469103041484" lon="14.399129974070476"><ele>317.0</ele><time>2026-04-29T13:38:51.001Z</time></trkpt><trkpt lat="37.53458829682708" lon="14.39906223811305"><ele>317.0</ele><time>2026-04-29T13:38:52.001Z</time></trkpt><trkpt lat="37.534487162774624" lon="14.398995556803031"><ele>317.0</ele><time>2026-04-29T13:38:53.001Z</time></trkpt><trkpt lat="37.53439600724198" lon="14.398934246782943"><ele>317.0</ele><time>2026-04-29T13:38:54.001Z</time></trkpt><trkpt lat="37.53429957061447" lon="14.398885769380723"><ele>317.6</ele><time>2026-04-29T13:38:55.001Z</time></trkpt><trkpt lat="37.534209928566455" lon="14.398824150051402"><ele>318.2</ele><time>2026-04-29T13:38:56.001Z</time></trkpt><trkpt lat="37.534131709782535" lon="14.398739038224566"><ele>318.8</ele><time>2026-04-29T13:38:57.001Z</time></trkpt><trkpt lat="37.53404807161432" lon="14.39866325740461"><ele>319.4</ele><time>2026-04-29T13:38:58.001Z</time></trkpt><trkpt lat="37.533964503566864" lon="14.398583901063958"><ele>320.0</ele><time>2026-04-29T13:38:59.001Z</time></trkpt><trkpt lat="37.533883648873385" lon="14.398506472233288"><ele>320.0</ele><time>2026-04-29T13:39:00.001Z</time></trkpt><trkpt lat="37.53380079097298" lon="14.398425389037582"><ele>320.0</ele><time>2026-04-29T13:39:01.001Z</time></trkpt><trkpt lat="37.53372032504197" lon="14.398346646630923"><ele>320.0</ele><time>2026-04-29T13:39:02.001Z</time></trkpt><trkpt lat="37.53363158861917" lon="14.398259810857947"><ele>320.0</ele><time>2026-04-29T13:39:03.001Z</time></trkpt><trkpt lat="37.53354074059644" lon="14.39816892430418"><ele>320.0</ele><time>2026-04-29T13:39:04.001Z</time></trkpt><trkpt lat="37.53346326958186" lon="14.398090953275391"><ele>320.25</ele><time>2026-04-29T13:39:05.001Z</time></trkpt><trkpt lat="37.533384928026436" lon="14.398012106088608"><ele>320.5</ele><time>2026-04-29T13:39:06.001Z</time></trkpt><trkpt lat="37.533294882649116" lon="14.397924157333224"><ele>320.75</ele><time>2026-04-29T13:39:07.001Z</time></trkpt><trkpt lat="37.53319258560907" lon="14.397829864346601"><ele>321.0</ele><time>2026-04-29T13:39:08.001Z</time></trkpt><trkpt lat="37.53308223384117" lon="14.397749213972302"><ele>321.0</ele><time>2026-04-29T13:39:09.001Z</time></trkpt><trkpt lat="37.532984889804744" lon="14.397651066151752"><ele>321.0</ele><time>2026-04-29T13:39:10.001Z</time></trkpt><trkpt lat="37.532883602977456" lon="14.397565582648085"><ele>321.0</ele><time>2026-04-29T13:39:11.001Z</time></trkpt><trkpt lat="37.53278620314765" lon="14.397488546871902"><ele>321.0</ele><time>2026-04-29T13:39:12.001Z</time></trkpt><trkpt lat="37.53271043702055" lon="14.397397317652196"><ele>321.0</ele><time>2026-04-29T13:39:13.001Z</time></trkpt><trkpt lat="37.53262072949306" lon="14.397314275291182"><ele>321.0</ele><time>2026-04-29T13:39:14.001Z</time></trkpt><trkpt lat="37.53252399321975" lon="14.397223202194464"><ele>321.0</ele><time>2026-04-29T13:39:15.001Z</time></trkpt><trkpt lat="37.53242704503204" lon="14.397131336165536"><ele>321.0</ele><time>2026-04-29T13:39:16.001Z</time></trkpt><trkpt lat="37.53233598554357" lon="14.397043676267948"><ele>321.0</ele><time>2026-04-29T13:39:17.001Z</time></trkpt><trkpt lat="37.53223478953923" lon="14.396961142402967"><ele>321.0</ele><time>2026-04-29T13:39:18.001Z</time></trkpt><trkpt lat="37.53215118418987" lon="14.396867866094302"><ele>321.0</ele><time>2026-04-29T13:39:19Z</time></trkpt><trkpt lat="37.532057752652975" lon="14.396786375740444"><ele>321.0</ele><time>2026-04-29T13:39:20Z</time></trkpt><trkpt lat="37.5319535011963" lon="14.396691635623158"><ele>321.5</ele><time>2026-04-29T13:39:21Z</time></trkpt><trkpt lat="37.531871485928285" lon="14.396586761361185"><ele>322.0</ele><time>2026-04-29T13:39:22Z</time></trkpt><trkpt lat="37.531791886666234" lon="14.396505814299191"><ele>322.5</ele><time>2026-04-29T13:39:23Z</time></trkpt><trkpt lat="37.53170759333979" lon="14.396420093786459"><ele>323.0</ele><time>2026-04-29T13:39:24Z</time></trkpt><trkpt lat="37.5316045807823" lon="14.39633600665215"><ele>323.0</ele><time>2026-04-29T13:39:25Z</time></trkpt><trkpt lat="37.531517937865175" lon="14.396241492511813"><ele>323.0</ele><time>2026-04-29T13:39:26Z</time></trkpt><trkpt lat="37.53142938022274" lon="14.396153766491508"><ele>323.0</ele><time>2026-04-29T13:39:27Z</time></trkpt><trkpt lat="37.53134116740004" lon="14.39607613584013"><ele>323.0</ele><time>2026-04-29T13:39:28Z</time></trkpt><trkpt lat="37.53126484508502" lon="14.395982223116107"><ele>323.0</ele><time>2026-04-29T13:39:29Z</time></trkpt><trkpt lat="37.531184609594774" lon="14.395904871292005"><ele>323.4</ele><time>2026-04-29T13:39:30Z</time></trkpt><trkpt lat="37.53111223164651" lon="14.395835094611902"><ele>323.79999999999995</ele><time>2026-04-29T13:39:31Z</time></trkpt><trkpt lat="37.531033129415924" lon="14.395758835305978"><ele>324.2</ele><time>2026-04-29T13:39:32Z</time></trkpt><trkpt lat="37.53094157309792" lon="14.395671729016746"><ele>324.6</ele><time>2026-04-29T13:39:33Z</time></trkpt><trkpt lat="37.53085290796102" lon="14.395587424966022"><ele>325.0</ele><time>2026-04-29T13:39:34Z</time></trkpt><trkpt lat="37.53076640622554" lon="14.39553011680355"><ele>325.0</ele><time>2026-04-29T13:39:35Z</time></trkpt><trkpt lat="37.53068834959025" lon="14.395452932257069"><ele>325.0</ele><time>2026-04-29T13:39:36Z</time></trkpt><trkpt lat="37.53059501808227" lon="14.395355351372665"><ele>325.0</ele><time>2026-04-29T13:39:37Z</time></trkpt><trkpt lat="37.53049326186947" lon="14.395261738184939"><ele>325.0</ele><time>2026-04-29T13:39:38Z</time></trkpt><trkpt lat="37.530387524047384" lon="14.395173539130052"><ele>326.0</ele><time>2026-04-29T13:39:39Z</time></trkpt><trkpt lat="37.530279664346224" lon="14.395069142614584"><ele>327.0</ele><time>2026-04-29T13:39:40Z</time></trkpt><trkpt lat="37.53016677600015" lon="14.39495742445876"><ele>328.0</ele><time>2026-04-29T13:39:41Z</time></trkpt><trkpt lat="37.530056617990574" lon="14.394850412688289"><ele>329.0</ele><time>2026-04-29T13:39:42Z</time></trkpt><trkpt lat="37.52995963922439" lon="14.394749198766194"><ele>329.0</ele><time>2026-04-29T13:39:43Z</time></trkpt><trkpt lat="37.529872726008385" lon="14.39464821854607"><ele>329.0</ele><time>2026-04-29T13:39:44Z</time></trkpt><trkpt lat="37.52979281040242" lon="14.394543204516756"><ele>329.0</ele><time>2026-04-29T13:39:45Z</time></trkpt><trkpt lat="37.529716562210815" lon="14.394430636277555"><ele>329.0</ele><time>2026-04-29T13:39:46Z</time></trkpt><trkpt lat="37.52964669221585" lon="14.39430537190763"><ele>329.0</ele><time>2026-04-29T13:39:47Z</time></trkpt><trkpt lat="37.529581765377735" lon="14.394186358608163"><ele>329.0</ele><time>2026-04-29T13:39:48Z</time></trkpt><trkpt lat="37.52951885871995" lon="14.394069818519654"><ele>329.0</ele><time>2026-04-29T13:39:49Z</time></trkpt><trkpt lat="37.52946631978042" lon="14.393977015368439"><ele>329.0</ele><time>2026-04-29T13:39:50Z</time></trkpt><trkpt lat="37.52941246475347" lon="14.393901807342406"><ele>329.0</ele><time>2026-04-29T13:39:51Z</time></trkpt><trkpt lat="37.52934312210122" lon="14.393802096488878"><ele>328.79999999999995</ele><time>2026-04-29T13:39:52Z</time></trkpt><trkpt lat="37.52929595178692" lon="14.393715040895575"><ele>328.59999999999997</ele><time>2026-04-29T13:39:53Z</time></trkpt><trkpt lat="37.529253396214" lon="14.393613715726994"><ele>328.4</ele><time>2026-04-29T13:39:54Z</time></trkpt><trkpt lat="37.52920894197384" lon="14.393517461675343"><ele>328.2</ele><time>2026-04-29T13:39:55Z</time></trkpt><trkpt lat="37.529172217555335" lon="14.393408572897737"><ele>328.0</ele><time>2026-04-29T13:39:56Z</time></trkpt><trkpt lat="37.52911900258735" lon="14.393269780551185"><ele>328.0</ele><time>2026-04-29T13:39:57.001Z</time></trkpt><trkpt lat="37.52906268561663" lon="14.393109419211902"><ele>328.0</ele><time>2026-04-29T13:39:58.001Z</time></trkpt><trkpt lat="37.52901976216038" lon="14.3929723951615"><ele>328.0</ele><time>2026-04-29T13:39:59.001Z</time></trkpt><trkpt lat="37.52898565544682" lon="14.392837704511832"><ele>328.0</ele><time>2026-04-29T13:40:00.001Z</time></trkpt><trkpt lat="37.528955594964636" lon="14.392710294304191"><ele>327.79999999999995</ele><time>2026-04-29T13:40:01.001Z</time></trkpt><trkpt lat="37.52892941713608" lon="14.392597281986268"><ele>327.6</ele><time>2026-04-29T13:40:02.001Z</time></trkpt><trkpt lat="37.528905829102435" lon="14.392482969077113"><ele>327.4</ele><time>2026-04-29T13:40:03.001Z</time></trkpt><trkpt lat="37.52887855791198" lon="14.392356908737243"><ele>327.20000000000005</ele><time>2026-04-29T13:40:04.001Z</time></trkpt><trkpt lat="37.528851477259515" lon="14.392242430499461"><ele>327.0</ele><time>2026-04-29T13:40:05.001Z</time></trkpt><trkpt lat="37.528830705158825" lon="14.392136262513006"><ele>327.0</ele><time>2026-04-29T13:40:06.001Z</time></trkpt><trkpt lat="37.52881001231357" lon="14.392036877286156"><ele>327.0</ele><time>2026-04-29T13:40:07.001Z</time></trkpt><trkpt lat="37.5287924680212" lon="14.391959422387439"><ele>327.0</ele><time>2026-04-29T13:40:08.001Z</time></trkpt><trkpt lat="37.5287756036054" lon="14.391881778471975"><ele>327.0</ele><time>2026-04-29T13:40:09.001Z</time></trkpt><trkpt lat="37.52875770972459" lon="14.391800745989057"><ele>327.0</ele><time>2026-04-29T13:40:10.001Z</time></trkpt><trkpt lat="37.52874081379144" lon="14.391717972267358"><ele>327.0</ele><time>2026-04-29T13:40:11.001Z</time></trkpt><trkpt lat="37.5287225357331" lon="14.391619682888004"><ele>327.0</ele><time>2026-04-29T13:40:12.001Z</time></trkpt><trkpt lat="37.52870377378907" lon="14.391521114336896"><ele>327.8</ele><time>2026-04-29T13:40:13.001Z</time></trkpt><trkpt lat="37.52868703681392" lon="14.391436669808941"><ele>328.6</ele><time>2026-04-29T13:40:14.001Z</time></trkpt><trkpt lat="37.528662525810724" lon="14.391308781837152"><ele>329.40000000000003</ele><time>2026-04-29T13:40:16.001Z</time></trkpt><trkpt lat="37.528639409810395" lon="14.391177324889803"><ele>330.20000000000005</ele><time>2026-04-29T13:40:18.001Z</time></trkpt><trkpt lat="37.52862202119568" lon="14.391079823772088"><ele>331.0</ele><time>2026-04-29T13:40:19.001Z</time></trkpt><trkpt lat="37.528591257017375" lon="14.390964843690172"><ele>331.0</ele><time>2026-04-29T13:40:20.001Z</time></trkpt><trkpt lat="37.52857026545572" lon="14.390829996413633"><ele>331.0</ele><time>2026-04-29T13:40:21.001Z</time></trkpt><trkpt lat="37.52854731632185" lon="14.39069216942601"><ele>331.0</ele><time>2026-04-29T13:40:22.001Z</time></trkpt><trkpt lat="37.52852537321344" lon="14.390568957025796"><ele>331.0</ele><time>2026-04-29T13:40:23.001Z</time></trkpt><trkpt lat="37.528504851398715" lon="14.390457688219998"><ele>331.0</ele><time>2026-04-29T13:40:24.001Z</time></trkpt><trkpt lat="37.528493141448166" lon="14.39033826706681"><ele>331.0</ele><time>2026-04-29T13:40:25.001Z</time></trkpt><trkpt lat="37.528475434363585" lon="14.390219987781444"><ele>331.0</ele><time>2026-04-29T13:40:26.001Z</time></trkpt><trkpt lat="37.52844394007391" lon="14.390096565920468"><ele>331.0</ele><time>2026-04-29T13:40:27.001Z</time></trkpt><trkpt lat="37.52841465755197" lon="14.389974521894874"><ele>331.0</ele><time>2026-04-29T13:40:28.001Z</time></trkpt><trkpt lat="37.52838444229077" lon="14.389843986966346"><ele>331.0</ele><time>2026-04-29T13:40:29.001Z</time></trkpt><trkpt lat="37.52835380572045" lon="14.389719254289194"><ele>331.4</ele><time>2026-04-29T13:40:30.001Z</time></trkpt><trkpt lat="37.5283299157648" lon="14.389612639765785"><ele>331.8</ele><time>2026-04-29T13:40:31.001Z</time></trkpt><trkpt lat="37.528308123712215" lon="14.389496240866068"><ele>332.2</ele><time>2026-04-29T13:40:32.001Z</time></trkpt><trkpt lat="37.528285855082814" lon="14.389364988338007"><ele>332.59999999999997</ele><time>2026-04-29T13:40:33.001Z</time></trkpt><trkpt lat="37.52825820308798" lon="14.389241202308728"><ele>333.0</ele><time>2026-04-29T13:40:34.001Z</time></trkpt><trkpt lat="37.528225260320724" lon="14.389108219090874"><ele>333.0</ele><time>2026-04-29T13:40:35.001Z</time></trkpt><trkpt lat="37.52819728749405" lon="14.38897065336763"><ele>333.0</ele><time>2026-04-29T13:40:36.001Z</time></trkpt><trkpt lat="37.5281745266672" lon="14.3888423972231"><ele>333.0</ele><time>2026-04-29T13:40:37.001Z</time></trkpt><trkpt lat="37.52815634879386" lon="14.38871927894234"><ele>333.0</ele><time>2026-04-29T13:40:38.001Z</time></trkpt><trkpt lat="37.528133078385196" lon="14.388584482123298"><ele>333.0</ele><time>2026-04-29T13:40:39.001Z</time></trkpt><trkpt lat="37.52811100497234" lon="14.388464582842833"><ele>333.5</ele><time>2026-04-29T13:40:40.001Z</time></trkpt><trkpt lat="37.52808670366847" lon="14.388358583271263"><ele>334.0</ele><time>2026-04-29T13:40:41.001Z</time></trkpt><trkpt lat="37.52806223264162" lon="14.388258986549989"><ele>334.5</ele><time>2026-04-29T13:40:42.001Z</time></trkpt><trkpt lat="37.528038560390954" lon="14.388167369325148"><ele>335.0</ele><time>2026-04-29T13:40:43.001Z</time></trkpt><trkpt lat="37.52800607274344" lon="14.388063135277243"><ele>335.5</ele><time>2026-04-29T13:40:44.001Z</time></trkpt><trkpt lat="37.52796105398732" lon="14.387941273420731"><ele>336.0</ele><time>2026-04-29T13:40:45.001Z</time></trkpt><trkpt lat="37.52790737130755" lon="14.387806287671038"><ele>337.6</ele><time>2026-04-29T13:40:46.001Z</time></trkpt><trkpt lat="37.527856713392794" lon="14.387681404124557"><ele>339.20000000000005</ele><time>2026-04-29T13:40:47.001Z</time></trkpt><trkpt lat="37.52780662740972" lon="14.387567251670804"><ele>340.79999999999995</ele><time>2026-04-29T13:40:48.001Z</time></trkpt><trkpt lat="37.527751198467804" lon="14.387449378666787"><ele>342.4</ele><time>2026-04-29T13:40:49.001Z</time></trkpt><trkpt lat="37.52768785356347" lon="14.387328279902857"><ele>344.0</ele><time>2026-04-29T13:40:50.001Z</time></trkpt><trkpt lat="37.52762451284481" lon="14.387214461617567"><ele>343.25</ele><time>2026-04-29T13:40:51.001Z</time></trkpt><trkpt lat="37.52756593758034" lon="14.387079846673647"><ele>342.5</ele><time>2026-04-29T13:40:52.001Z</time></trkpt><trkpt lat="37.52750801838883" lon="14.386926416241351"><ele>341.75</ele><time>2026-04-29T13:40:53.001Z</time></trkpt><trkpt lat="37.527446882120906" lon="14.386771151901524"><ele>341.0</ele><time>2026-04-29T13:40:54.001Z</time></trkpt><trkpt lat="37.52738581543995" lon="14.386621316573443"><ele>341.0</ele><time>2026-04-29T13:40:55.001Z</time></trkpt><trkpt lat="37.527327806938914" lon="14.386477271426013"><ele>341.0</ele><time>2026-04-29T13:40:56.001Z</time></trkpt><trkpt lat="37.52726242754209" lon="14.386326188684645"><ele>341.0</ele><time>2026-04-29T13:40:57.001Z</time></trkpt><trkpt lat="37.52719534341447" lon="14.38617322634078"><ele>341.0</ele><time>2026-04-29T13:40:58.001Z</time></trkpt><trkpt lat="37.527128440378924" lon="14.386037608658086"><ele>341.25</ele><time>2026-04-29T13:40:59.001Z</time></trkpt><trkpt lat="37.52706559237436" lon="14.38591010944871"><ele>341.5</ele><time>2026-04-29T13:41:00.001Z</time></trkpt><trkpt lat="37.52701030983742" lon="14.3857689679544"><ele>341.75</ele><time>2026-04-29T13:41:01.001Z</time></trkpt><trkpt lat="37.526962053849005" lon="14.385630741805262"><ele>342.0</ele><time>2026-04-29T13:41:02.001Z</time></trkpt><trkpt lat="37.52691339828007" lon="14.385497658198837"><ele>343.6</ele><time>2026-04-29T13:41:03.001Z</time></trkpt><trkpt lat="37.5268621999463" lon="14.385368315152926"><ele>345.20000000000005</ele><time>2026-04-29T13:41:04.001Z</time></trkpt><trkpt lat="37.52681819777103" lon="14.385245522621855"><ele>346.8</ele><time>2026-04-29T13:41:05.001Z</time></trkpt><trkpt lat="37.526786569254995" lon="14.385137117605048"><ele>348.4</ele><time>2026-04-29T13:41:06.001Z</time></trkpt><trkpt lat="37.526748574426726" lon="14.385015943268415"><ele>350.0</ele><time>2026-04-29T13:41:07.001Z</time></trkpt><trkpt lat="37.526712974557555" lon="14.3848964159422"><ele>350.0</ele><time>2026-04-29T13:41:08.001Z</time></trkpt><trkpt lat="37.52668366267393" lon="14.384779955721065"><ele>350.0</ele><time>2026-04-29T13:41:09.001Z</time></trkpt><trkpt lat="37.526657337417674" lon="14.384673866957838"><ele>350.0</ele><time>2026-04-29T13:41:10.001Z</time></trkpt><trkpt lat="37.526638285048605" lon="14.384594003429646"><ele>350.0</ele><time>2026-04-29T13:41:11.001Z</time></trkpt><trkpt lat="37.52661879414659" lon="14.384457690184583"><ele>350.0</ele><time>2026-04-29T13:41:13.001Z</time></trkpt><trkpt lat="37.526633872732866" lon="14.384354749988256"><ele>350.0</ele><time>2026-04-29T13:41:15.001Z</time></trkpt><trkpt lat="37.52664505581575" lon="14.38427227176802"><ele>349.5</ele><time>2026-04-29T13:41:17.001Z</time></trkpt><trkpt lat="37.52664667970719" lon="14.384188815296072"><ele>349.0</ele><time>2026-04-29T13:41:20.001Z</time></trkpt><trkpt lat="37.52664944272932" lon="14.38408971138285"><ele>348.5</ele><time>2026-04-29T13:41:26.001Z</time></trkpt><trkpt lat="37.52661181196742" lon="14.383955948844973"><ele>348.0</ele><time>2026-04-29T13:41:28.001Z</time></trkpt><trkpt lat="37.526589810032775" lon="14.383871996914927"><ele>347.5</ele><time>2026-04-29T13:41:29.001Z</time></trkpt><trkpt lat="37.526547827225706" lon="14.383735580846096"><ele>347.0</ele><time>2026-04-29T13:41:30.001Z</time></trkpt><trkpt lat="37.526517806630096" lon="14.383603626913997"><ele>346.8</ele><time>2026-04-29T13:41:31.001Z</time></trkpt><trkpt lat="37.52650002585471" lon="14.383483261599174"><ele>346.6</ele><time>2026-04-29T13:41:32.001Z</time></trkpt><trkpt lat="37.52649087575768" lon="14.383363090579357"><ele>346.40000000000003</ele><time>2026-04-29T13:41:33.001Z</time></trkpt><trkpt lat="37.52649093138817" lon="14.383168600723172"><ele>346.20000000000005</ele><time>2026-04-29T13:41:35.001Z</time></trkpt><trkpt lat="37.52649023944338" lon="14.383065208231784"><ele>346.0</ele><time>2026-04-29T13:41:36.001Z</time></trkpt><trkpt lat="37.52648720118964" lon="14.382983172417555"><ele>345.4</ele><time>2026-04-29T13:41:37.001Z</time></trkpt><trkpt lat="37.52644436179007" lon="14.382864909320299"><ele>344.8</ele><time>2026-04-29T13:41:39.001Z</time></trkpt><trkpt lat="37.526336237042685" lon="14.382775573239693"><ele>344.2</ele><time>2026-04-29T13:41:41.001Z</time></trkpt><trkpt lat="37.52626889901165" lon="14.382718717747146"><ele>343.59999999999997</ele><time>2026-04-29T13:41:42.001Z</time></trkpt><trkpt lat="37.526182395698314" lon="14.382653252509382"><ele>343.0</ele><time>2026-04-29T13:41:43.001Z</time></trkpt><trkpt lat="37.52609905719506" lon="14.382595254940842"><ele>344.0</ele><time>2026-04-29T13:41:44.001Z</time></trkpt><trkpt lat="37.52601859854221" lon="14.38254464647508"><ele>345.0</ele><time>2026-04-29T13:41:45.001Z</time></trkpt><trkpt lat="37.52595082850469" lon="14.382496440100551"><ele>346.0</ele><time>2026-04-29T13:41:46.001Z</time></trkpt><trkpt lat="37.52589695636339" lon="14.382431447545377"><ele>347.0</ele><time>2026-04-29T13:41:47.001Z</time></trkpt><trkpt lat="37.52584148384428" lon="14.382379077633816"><ele>348.0</ele><time>2026-04-29T13:41:48.001Z</time></trkpt><trkpt lat="37.525760912309366" lon="14.3823192919296"><ele>349.0</ele><time>2026-04-29T13:41:49.001Z</time></trkpt><trkpt lat="37.52568319898443" lon="14.38225176019121"><ele>348.3333333333333</ele><time>2026-04-29T13:41:50.001Z</time></trkpt><trkpt lat="37.525621598414205" lon="14.382179368459527"><ele>347.66666666666663</ele><time>2026-04-29T13:41:51.001Z</time></trkpt><trkpt lat="37.52556455718163" lon="14.382122889474271"><ele>347.0</ele><time>2026-04-29T13:41:52.001Z</time></trkpt><trkpt lat="37.52549775072183" lon="14.38208128022227"><ele>346.3333333333333</ele><time>2026-04-29T13:41:53.001Z</time></trkpt><trkpt lat="37.52543774966853" lon="14.382046892841675"><ele>345.6666666666667</ele><time>2026-04-29T13:41:54.001Z</time></trkpt><trkpt lat="37.52538534779851" lon="14.381980459634795"><ele>345.0</ele><time>2026-04-29T13:41:55.001Z</time></trkpt><trkpt lat="37.52533393306084" lon="14.381869582076751"><ele>346.8</ele><time>2026-04-29T13:41:56.001Z</time></trkpt><trkpt lat="37.525286997471895" lon="14.381760836524244"><ele>348.6</ele><time>2026-04-29T13:41:57.001Z</time></trkpt><trkpt lat="37.52524466774194" lon="14.381650443907969"><ele>350.4</ele><time>2026-04-29T13:41:58.001Z</time></trkpt><trkpt lat="37.525201796645455" lon="14.381528206940256"><ele>352.2</ele><time>2026-04-29T13:41:59.001Z</time></trkpt><trkpt lat="37.52515703352187" lon="14.381412092345869"><ele>354.0</ele><time>2026-04-29T13:42:00.001Z</time></trkpt><trkpt lat="37.525119786808865" lon="14.38130426687126"><ele>354.0</ele><time>2026-04-29T13:42:01.001Z</time></trkpt><trkpt lat="37.52507891471029" lon="14.381187696080245"><ele>354.0</ele><time>2026-04-29T13:42:02.001Z</time></trkpt><trkpt lat="37.52503732597212" lon="14.38106183268822"><ele>354.0</ele><time>2026-04-29T13:42:03.001Z</time></trkpt><trkpt lat="37.524990037194975" lon="14.380937151838152"><ele>354.0</ele><time>2026-04-29T13:42:04.001Z</time></trkpt><trkpt lat="37.524947456398124" lon="14.380825592383848"><ele>354.0</ele><time>2026-04-29T13:42:05.001Z</time></trkpt><trkpt lat="37.52489759513656" lon="14.380711267308728"><ele>354.0</ele><time>2026-04-29T13:42:06.001Z</time></trkpt><trkpt lat="37.5248487982199" lon="14.38059896097208"><ele>354.0</ele><time>2026-04-29T13:42:07.001Z</time></trkpt><trkpt lat="37.524805001947996" lon="14.380504967654458"><ele>354.0</ele><time>2026-04-29T13:42:08.001Z</time></trkpt><trkpt lat="37.52475824295898" lon="14.380408265628239"><ele>354.0</ele><time>2026-04-29T13:42:09.001Z</time></trkpt><trkpt lat="37.52470278207832" lon="14.380305469424856"><ele>354.0</ele><time>2026-04-29T13:42:10.001Z</time></trkpt><trkpt lat="37.52463827013797" lon="14.38019238753333"><ele>354.5</ele><time>2026-04-29T13:42:11.001Z</time></trkpt><trkpt lat="37.524556618491836" lon="14.3800615307446"><ele>355.0</ele><time>2026-04-29T13:42:12.001Z</time></trkpt><trkpt lat="37.52446515693256" lon="14.37991489965611"><ele>355.5</ele><time>2026-04-29T13:42:13.001Z</time></trkpt><trkpt lat="37.52438680095099" lon="14.3797829243249"><ele>356.0</ele><time>2026-04-29T13:42:14.001Z</time></trkpt><trkpt lat="37.524319915574154" lon="14.379660888574143"><ele>356.0</ele><time>2026-04-29T13:42:15.001Z</time></trkpt><trkpt lat="37.52426048247756" lon="14.379553280735495"><ele>356.0</ele><time>2026-04-29T13:42:16.001Z</time></trkpt><trkpt lat="37.524193667811566" lon="14.379455786908323"><ele>356.0</ele><time>2026-04-29T13:42:17.001Z</time></trkpt><trkpt lat="37.524116005791676" lon="14.379362454540619"><ele>356.0</ele><time>2026-04-29T13:42:18.001Z</time></trkpt><trkpt lat="37.524030987533116" lon="14.379275175101576"><ele>356.0</ele><time>2026-04-29T13:42:19.001Z</time></trkpt><trkpt lat="37.52394298861933" lon="14.379184863409373"><ele>356.0</ele><time>2026-04-29T13:42:20.001Z</time></trkpt><trkpt lat="37.5238296023632" lon="14.379085409919103"><ele>356.0</ele><time>2026-04-29T13:42:21.001Z</time></trkpt><trkpt lat="37.523711580798725" lon="14.378981977002125"><ele>356.0</ele><time>2026-04-29T13:42:22.001Z</time></trkpt><trkpt lat="37.523614885285035" lon="14.378900825325927"><ele>356.0</ele><time>2026-04-29T13:42:23.001Z</time></trkpt><trkpt lat="37.523544708507224" lon="14.378835194653702"><ele>356.25</ele><time>2026-04-29T13:42:24.001Z</time></trkpt><trkpt lat="37.52349436453246" lon="14.378784250244353"><ele>356.5</ele><time>2026-04-29T13:42:25.001Z</time></trkpt><trkpt lat="37.52338094566728" lon="14.37877436706722"><ele>356.75</ele><time>2026-04-29T13:42:27.001Z</time></trkpt><trkpt lat="37.523214900852246" lon="14.378806971279676"><ele>357.0</ele><time>2026-04-29T13:42:29.001Z</time></trkpt><trkpt lat="37.523106481888156" lon="14.378760124980731"><ele>357.0</ele><time>2026-04-29T13:42:30.001Z</time></trkpt><trkpt lat="37.522975255787976" lon="14.378743349285568"><ele>357.0</ele><time>2026-04-29T13:42:31.001Z</time></trkpt><trkpt lat="37.52282804266027" lon="14.378716371299005"><ele>357.0</ele><time>2026-04-29T13:42:32.001Z</time></trkpt><trkpt lat="37.52269031245985" lon="14.378692738084569"><ele>357.0</ele><time>2026-04-29T13:42:33.001Z</time></trkpt><trkpt lat="37.52257400752584" lon="14.378666799934267"><ele>356.8</ele><time>2026-04-29T13:42:34.001Z</time></trkpt><trkpt lat="37.52247578424781" lon="14.378648544363253"><ele>356.6</ele><time>2026-04-29T13:42:35.001Z</time></trkpt><trkpt lat="37.5223737067334" lon="14.378643176198345"><ele>356.40000000000003</ele><time>2026-04-29T13:42:36.001Z</time></trkpt><trkpt lat="37.52226509475433" lon="14.37866139674328"><ele>356.20000000000005</ele><time>2026-04-29T13:42:37.001Z</time></trkpt><trkpt lat="37.52216053515358" lon="14.3786449063128"><ele>356.0</ele><time>2026-04-29T13:42:38.001Z</time></trkpt><trkpt lat="37.5220670188552" lon="14.378629063036072"><ele>357.0</ele><time>2026-04-29T13:42:39.001Z</time></trkpt><trkpt lat="37.521962126403835" lon="14.37860088509536"><ele>358.0</ele><time>2026-04-29T13:42:40.001Z</time></trkpt><trkpt lat="37.521837285353996" lon="14.37856098265663"><ele>359.0</ele><time>2026-04-29T13:42:41.001Z</time></trkpt><trkpt lat="37.52171723855941" lon="14.378545167673797"><ele>360.0</ele><time>2026-04-29T13:42:42.001Z</time></trkpt><trkpt lat="37.52161580412063" lon="14.378523587726939"><ele>360.0</ele><time>2026-04-29T13:42:43.001Z</time></trkpt><trkpt lat="37.52150121126385" lon="14.3784935539189"><ele>360.0</ele><time>2026-04-29T13:42:44.001Z</time></trkpt><trkpt lat="37.52136043966521" lon="14.378509476423643"><ele>360.0</ele><time>2026-04-29T13:42:45.001Z</time></trkpt><trkpt lat="37.52122570983053" lon="14.378516401801079"><ele>360.0</ele><time>2026-04-29T13:42:46.001Z</time></trkpt><trkpt lat="37.52109604191951" lon="14.3785097947623"><ele>360.75</ele><time>2026-04-29T13:42:47.001Z</time></trkpt><trkpt lat="37.52097892732241" lon="14.378493156506128"><ele>361.5</ele><time>2026-04-29T13:42:48.001Z</time></trkpt><trkpt lat="37.520873186879584" lon="14.378465060165025"><ele>362.25</ele><time>2026-04-29T13:42:49.001Z</time></trkpt><trkpt lat="37.52075599650546" lon="14.37842631466452"><ele>363.0</ele><time>2026-04-29T13:42:50.001Z</time></trkpt><trkpt lat="37.52063856336841" lon="14.378355823292209"><ele>363.0</ele><time>2026-04-29T13:42:51.001Z</time></trkpt><trkpt lat="37.52052242332084" lon="14.378308765259103"><ele>363.0</ele><time>2026-04-29T13:42:52.001Z</time></trkpt><trkpt lat="37.520409018504616" lon="14.378274831572023"><ele>363.0</ele><time>2026-04-29T13:42:53.001Z</time></trkpt><trkpt lat="37.520309817726634" lon="14.378236352092028"><ele>363.0</ele><time>2026-04-29T13:42:54.001Z</time></trkpt><trkpt lat="37.5202315130828" lon="14.378154211718666"><ele>363.0</ele><time>2026-04-29T13:42:55.001Z</time></trkpt><trkpt lat="37.52012857752665" lon="14.378083185177426"><ele>363.75</ele><time>2026-04-29T13:42:56.001Z</time></trkpt><trkpt lat="37.52001761835739" lon="14.377978928174626"><ele>364.5</ele><time>2026-04-29T13:42:57.001Z</time></trkpt><trkpt lat="37.519888441212906" lon="14.377899002532342"><ele>365.25</ele><time>2026-04-29T13:42:58.001Z</time></trkpt><trkpt lat="37.519739663582776" lon="14.377834120721285"><ele>366.0</ele><time>2026-04-29T13:42:59.001Z</time></trkpt><trkpt lat="37.51958951636166" lon="14.377782139220633"><ele>366.75</ele><time>2026-04-29T13:43:00.001Z</time></trkpt><trkpt lat="37.51946075531864" lon="14.37770503666006"><ele>367.5</ele><time>2026-04-29T13:43:01.001Z</time></trkpt><trkpt lat="37.51933598670837" lon="14.377651386845795"><ele>368.25</ele><time>2026-04-29T13:43:02.001Z</time></trkpt><trkpt lat="37.519204534985114" lon="14.377615189295527"><ele>369.0</ele><time>2026-04-29T13:43:03.001Z</time></trkpt><trkpt lat="37.51907311788285" lon="14.377558554518517"><ele>369.0</ele><time>2026-04-29T13:43:04.001Z</time></trkpt><trkpt lat="37.51894638139526" lon="14.377488231997392"><ele>369.0</ele><time>2026-04-29T13:43:05.001Z</time></trkpt><trkpt lat="37.51881462445083" lon="14.377440889816835"><ele>369.0</ele><time>2026-04-29T13:43:06.001Z</time></trkpt><trkpt lat="37.51869090786898" lon="14.37739931795066"><ele>369.0</ele><time>2026-04-29T13:43:07.001Z</time></trkpt><trkpt lat="37.51857449540886" lon="14.377361337960776"><ele>370.4</ele><time>2026-04-29T13:43:08.001Z</time></trkpt><trkpt lat="37.518466667349315" lon="14.377320523931884"><ele>371.79999999999995</ele><time>2026-04-29T13:43:09.001Z</time></trkpt><trkpt lat="37.51835915434037" lon="14.377284468391162"><ele>373.20000000000005</ele><time>2026-04-29T13:43:10.001Z</time></trkpt><trkpt lat="37.518251433766764" lon="14.37727464492947"><ele>374.6</ele><time>2026-04-29T13:43:11.001Z</time></trkpt><trkpt lat="37.51813516732049" lon="14.377290802527254"><ele>376.0</ele><time>2026-04-29T13:43:12.001Z</time></trkpt><trkpt lat="37.51801481379963" lon="14.377330380299462"><ele>379.0</ele><time>2026-04-29T13:43:13.001Z</time></trkpt><trkpt lat="37.51788545076888" lon="14.37728451984143"><ele>382.0</ele><time>2026-04-29T13:43:14.001Z</time></trkpt><trkpt lat="37.51773757178103" lon="14.37726254995915"><ele>385.0</ele><time>2026-04-29T13:43:15.001Z</time></trkpt><trkpt lat="37.51760123607896" lon="14.377228132465254"><ele>388.0</ele><time>2026-04-29T13:43:16.001Z</time></trkpt><trkpt lat="37.517484566149754" lon="14.377195184653376"><ele>388.0</ele><time>2026-04-29T13:43:17.001Z</time></trkpt><trkpt lat="37.51737590900538" lon="14.377179135789055"><ele>388.0</ele><time>2026-04-29T13:43:18.001Z</time></trkpt><trkpt lat="37.51725329798971" lon="14.37718359803372"><ele>388.0</ele><time>2026-04-29T13:43:19.001Z</time></trkpt><trkpt lat="37.51711344072063" lon="14.377196337115542"><ele>388.0</ele><time>2026-04-29T13:43:20.001Z</time></trkpt><trkpt lat="37.516980659369494" lon="14.377216271369559"><ele>391.0</ele><time>2026-04-29T13:43:21.001Z</time></trkpt><trkpt lat="37.516860944428814" lon="14.377266943143145"><ele>394.0</ele><time>2026-04-29T13:43:22.001Z</time></trkpt><trkpt lat="37.5167443461694" lon="14.377348033951082"><ele>397.0</ele><time>2026-04-29T13:43:23.001Z</time></trkpt><trkpt lat="37.51662606474353" lon="14.37743484268959"><ele>400.0</ele><time>2026-04-29T13:43:24.001Z</time></trkpt><trkpt lat="37.5165151057772" lon="14.377519271615341"><ele>400.0</ele><time>2026-04-29T13:43:25.001Z</time></trkpt><trkpt lat="37.51641480951786" lon="14.377602006716254"><ele>400.0</ele><time>2026-04-29T13:43:26.001Z</time></trkpt><trkpt lat="37.51630907625915" lon="14.377695129908004"><ele>400.0</ele><time>2026-04-29T13:43:27.001Z</time></trkpt><trkpt lat="37.51619543584721" lon="14.377797389219516"><ele>400.0</ele><time>2026-04-29T13:43:28.001Z</time></trkpt><trkpt lat="37.51607128447084" lon="14.377894087461586"><ele>400.75</ele><time>2026-04-29T13:43:29.001Z</time></trkpt><trkpt lat="37.51595432342321" lon="14.37798004409967"><ele>401.5</ele><time>2026-04-29T13:43:30.001Z</time></trkpt><trkpt lat="37.51584913141854" lon="14.378051040089588"><ele>402.25</ele><time>2026-04-29T13:43:31.001Z</time></trkpt><trkpt lat="37.51573942291774" lon="14.378102966383825"><ele>403.0</ele><time>2026-04-29T13:43:32.001Z</time></trkpt><trkpt lat="37.51561202500761" lon="14.378128026784445"><ele>407.25</ele><time>2026-04-29T13:43:33.001Z</time></trkpt><trkpt lat="37.515476589935815" lon="14.378173747040325"><ele>411.5</ele><time>2026-04-29T13:43:34.001Z</time></trkpt><trkpt lat="37.51534010953424" lon="14.378236527570943"><ele>415.75</ele><time>2026-04-29T13:43:35.001Z</time></trkpt><trkpt lat="37.515208564311514" lon="14.378306607535748"><ele>420.0</ele><time>2026-04-29T13:43:36.001Z</time></trkpt><trkpt lat="37.51509206170926" lon="14.378374904062346"><ele>421.75</ele><time>2026-04-29T13:43:37.001Z</time></trkpt><trkpt lat="37.51498306779997" lon="14.378444766324462"><ele>423.5</ele><time>2026-04-29T13:43:38.001Z</time></trkpt><trkpt lat="37.514885109528116" lon="14.378508476054382"><ele>425.25</ele><time>2026-04-29T13:43:39.001Z</time></trkpt><trkpt lat="37.5147798382418" lon="14.378577513613584"><ele>427.0</ele><time>2026-04-29T13:43:40.001Z</time></trkpt><trkpt lat="37.51467071469519" lon="14.378656904014163"><ele>427.0</ele><time>2026-04-29T13:43:41.001Z</time></trkpt><trkpt lat="37.51457929354391" lon="14.37876315880817"><ele>427.00000000000006</ele><time>2026-04-29T13:43:42.001Z</time></trkpt><trkpt lat="37.51450930446679" lon="14.378862268530685"><ele>427.00000000000006</ele><time>2026-04-29T13:43:43.001Z</time></trkpt><trkpt lat="37.514449535309204" lon="14.378940276981107"><ele>427.0</ele><time>2026-04-29T13:43:44.001Z</time></trkpt><trkpt lat="37.51437614904733" lon="14.379000738061785"><ele>427.0</ele><time>2026-04-29T13:43:45.001Z</time></trkpt><trkpt lat="37.51427995438445" lon="14.3790137290312"><ele>431.20000000000005</ele><time>2026-04-29T13:43:46.001Z</time></trkpt><trkpt lat="37.51418670355912" lon="14.379063149376844"><ele>435.40000000000003</ele><time>2026-04-29T13:43:47.001Z</time></trkpt><trkpt lat="37.51411257852725" lon="14.379116691770403"><ele>439.59999999999997</ele><time>2026-04-29T13:43:48.001Z</time></trkpt><trkpt lat="37.514047591256755" lon="14.379177889895201"><ele>443.79999999999995</ele><time>2026-04-29T13:43:49.001Z</time></trkpt><trkpt lat="37.51397226922853" lon="14.379283740456977"><ele>448.0</ele><time>2026-04-29T13:43:50.001Z</time></trkpt><trkpt lat="37.51389413308868" lon="14.37940705102378"><ele>448.0</ele><time>2026-04-29T13:43:51.001Z</time></trkpt><trkpt lat="37.51382893482276" lon="14.379524020685846"><ele>447.99999999999994</ele><time>2026-04-29T13:43:52.001Z</time></trkpt><trkpt lat="37.513773211365205" lon="14.379611779923477"><ele>447.99999999999994</ele><time>2026-04-29T13:43:53.001Z</time></trkpt><trkpt lat="37.51371398317017" lon="14.379685570690777"><ele>448.0</ele><time>2026-04-29T13:43:54.001Z</time></trkpt><trkpt lat="37.51364609162077" lon="14.3797429109767"><ele>448.0</ele><time>2026-04-29T13:43:55.001Z</time></trkpt><trkpt lat="37.513564540437095" lon="14.379772293735009"><ele>450.1666666666667</ele><time>2026-04-29T13:43:56.001Z</time></trkpt><trkpt lat="37.51347293882457" lon="14.3797360609098"><ele>452.33333333333337</ele><time>2026-04-29T13:43:57.001Z</time></trkpt><trkpt lat="37.51336597193329" lon="14.37971157216417"><ele>454.5</ele><time>2026-04-29T13:43:58.001Z</time></trkpt><trkpt lat="37.5132779344912" lon="14.379694192918313"><ele>456.66666666666663</ele><time>2026-04-29T13:43:59.001Z</time></trkpt><trkpt lat="37.513204034492986" lon="14.379725881034979"><ele>458.8333333333333</ele><time>2026-04-29T13:44:00.001Z</time></trkpt><trkpt lat="37.513143571364076" lon="14.379762253868853"><ele>461.0</ele><time>2026-04-29T13:44:01.001Z</time></trkpt><trkpt lat="37.513062581930754" lon="14.379799068260807"><ele>460.99999999999994</ele><time>2026-04-29T13:44:02.001Z</time></trkpt><trkpt lat="37.51298262685701" lon="14.379851302568792"><ele>461.0</ele><time>2026-04-29T13:44:03.001Z</time></trkpt><trkpt lat="37.51290645604457" lon="14.379901527517715"><ele>461.0</ele><time>2026-04-29T13:44:04.001Z</time></trkpt><trkpt lat="37.512829188719174" lon="14.379954628050994"><ele>461.0</ele><time>2026-04-29T13:44:05.001Z</time></trkpt><trkpt lat="37.512751489066716" lon="14.380004965643785"><ele>460.99999999999994</ele><time>2026-04-29T13:44:06.001Z</time></trkpt><trkpt lat="37.51267259740871" lon="14.380052095730843"><ele>461.0</ele><time>2026-04-29T13:44:07.001Z</time></trkpt><trkpt lat="37.51258903445664" lon="14.380100517955755"><ele>459.8</ele><time>2026-04-29T13:44:08.001Z</time></trkpt><trkpt lat="37.512499105932974" lon="14.380152004637312"><ele>458.6</ele><time>2026-04-29T13:44:09.001Z</time></trkpt><trkpt lat="37.512415972340236" lon="14.380218322626117"><ele>457.4</ele><time>2026-04-29T13:44:10.001Z</time></trkpt><trkpt lat="37.51234453584831" lon="14.380304996902979"><ele>456.2</ele><time>2026-04-29T13:44:11.001Z</time></trkpt><trkpt lat="37.512296934938135" lon="14.380419186625382"><ele>455.0</ele><time>2026-04-29T13:44:12.001Z</time></trkpt><trkpt lat="37.51228302782724" lon="14.380540453392507"><ele>457.16666666666663</ele><time>2026-04-29T13:44:13.001Z</time></trkpt><trkpt lat="37.51229830931347" lon="14.380664673748798"><ele>459.3333333333333</ele><time>2026-04-29T13:44:14.001Z</time></trkpt><trkpt lat="37.512312332595876" lon="14.380780770229524"><ele>461.5</ele><time>2026-04-29T13:44:15.001Z</time></trkpt><trkpt lat="37.51231903263358" lon="14.380886652240942"><ele>463.66666666666663</ele><time>2026-04-29T13:44:16.001Z</time></trkpt><trkpt lat="37.5123019126461" lon="14.38098746248911"><ele>465.8333333333333</ele><time>2026-04-29T13:44:17.001Z</time></trkpt><trkpt lat="37.512264654522596" lon="14.381076499101841"><ele>468.0</ele><time>2026-04-29T13:44:18.001Z</time></trkpt><trkpt lat="37.51221706693319" lon="14.381144940028488"><ele>468.0</ele><time>2026-04-29T13:44:19.001Z</time></trkpt><trkpt lat="37.51215611210651" lon="14.38120856177294"><ele>467.99999999999994</ele><time>2026-04-29T13:44:20.001Z</time></trkpt><trkpt lat="37.51208008134532" lon="14.381273183728133"><ele>467.99999999999994</ele><time>2026-04-29T13:44:21.001Z</time></trkpt><trkpt lat="37.511994447131734" lon="14.381341321813641"><ele>468.0</ele><time>2026-04-29T13:44:22.001Z</time></trkpt><trkpt lat="37.51189029808328" lon="14.381379111843"><ele>468.0</ele><time>2026-04-29T13:44:23.001Z</time></trkpt><trkpt lat="37.51177050823077" lon="14.381418141983955"><ele>470.5</ele><time>2026-04-29T13:44:24.001Z</time></trkpt><trkpt lat="37.51165296013627" lon="14.381463235814143"><ele>473.0</ele><time>2026-04-29T13:44:25.001Z</time></trkpt><trkpt lat="37.51155665077969" lon="14.381517502012914"><ele>475.5</ele><time>2026-04-29T13:44:26.001Z</time></trkpt><trkpt lat="37.51146799124446" lon="14.38160411645677"><ele>478.0</ele><time>2026-04-29T13:44:27.001Z</time></trkpt><trkpt lat="37.511373777464996" lon="14.381706808933448"><ele>478.0</ele><time>2026-04-29T13:44:28.001Z</time></trkpt><trkpt lat="37.511279256210855" lon="14.38181684408876"><ele>478.0</ele><time>2026-04-29T13:44:29.001Z</time></trkpt><trkpt lat="37.51118408517444" lon="14.381929586840794"><ele>478.0</ele><time>2026-04-29T13:44:30.001Z</time></trkpt><trkpt lat="37.51109139107192" lon="14.382035229903785"><ele>478.0</ele><time>2026-04-29T13:44:31.001Z</time></trkpt><trkpt lat="37.510997438536606" lon="14.382129285067611"><ele>478.25</ele><time>2026-04-29T13:44:32.001Z</time></trkpt><trkpt lat="37.510895525959576" lon="14.38221073230737"><ele>478.5</ele><time>2026-04-29T13:44:33.001Z</time></trkpt><trkpt lat="37.51079696388435" lon="14.38228764766361"><ele>478.75</ele><time>2026-04-29T13:44:34.001Z</time></trkpt><trkpt lat="37.51069820031516" lon="14.382364720213651"><ele>479.0</ele><time>2026-04-29T13:44:35.001Z</time></trkpt><trkpt lat="37.51059864066991" lon="14.382442414122675"><ele>479.0</ele><time>2026-04-29T13:44:36.001Z</time></trkpt><trkpt lat="37.51050229244813" lon="14.382514152405603"><ele>479.0</ele><time>2026-04-29T13:44:37.001Z</time></trkpt><trkpt lat="37.51040869571572" lon="14.3825737317187"><ele>479.0</ele><time>2026-04-29T13:44:38.001Z</time></trkpt><trkpt lat="37.51031414600273" lon="14.382612721596887"><ele>479.0</ele><time>2026-04-29T13:44:39.001Z</time></trkpt><trkpt lat="37.510215327741456" lon="14.382609308951393"><ele>479.0</ele><time>2026-04-29T13:44:40.001Z</time></trkpt><trkpt lat="37.510116870601465" lon="14.38256569702306"><ele>479.0</ele><time>2026-04-29T13:44:41.001Z</time></trkpt><trkpt lat="37.51000635241026" lon="14.382517013756756"><ele>479.0</ele><time>2026-04-29T13:44:42.001Z</time></trkpt><trkpt lat="37.50989140371079" lon="14.38247591927502"><ele>479.0</ele><time>2026-04-29T13:44:43.001Z</time></trkpt><trkpt lat="37.50979013303176" lon="14.38244406031591"><ele>479.0</ele><time>2026-04-29T13:44:44.001Z</time></trkpt><trkpt lat="37.5096930167144" lon="14.382419626638614"><ele>479.0</ele><time>2026-04-29T13:44:45.001Z</time></trkpt><trkpt lat="37.50958356206808" lon="14.382419874991918"><ele>478.75</ele><time>2026-04-29T13:44:46.001Z</time></trkpt><trkpt lat="37.50947027397416" lon="14.382490256510136"><ele>478.5</ele><time>2026-04-29T13:44:47.001Z</time></trkpt><trkpt lat="37.50934281955058" lon="14.382535370708084"><ele>478.25</ele><time>2026-04-29T13:44:48.001Z</time></trkpt><trkpt lat="37.50923642998915" lon="14.38262026635741"><ele>478.0</ele><time>2026-04-29T13:44:49.001Z</time></trkpt><trkpt lat="37.50913857284647" lon="14.38273112860462"><ele>478.0</ele><time>2026-04-29T13:44:50.001Z</time></trkpt><trkpt lat="37.509060059664584" lon="14.382870978028535"><ele>478.0</ele><time>2026-04-29T13:44:51.001Z</time></trkpt><trkpt lat="37.50902208448237" lon="14.383032043449171"><ele>478.0</ele><time>2026-04-29T13:44:52.001Z</time></trkpt><trkpt lat="37.508991041048226" lon="14.383203104737095"><ele>478.0</ele><time>2026-04-29T13:44:53.001Z</time></trkpt><trkpt lat="37.50895871281621" lon="14.383385839678995"><ele>480.75</ele><time>2026-04-29T13:44:54.001Z</time></trkpt><trkpt lat="37.508926573728104" lon="14.38356768411955"><ele>483.5</ele><time>2026-04-29T13:44:55.001Z</time></trkpt><trkpt lat="37.50889778568031" lon="14.38373056806839"><ele>486.25</ele><time>2026-04-29T13:44:56.001Z</time></trkpt><trkpt lat="37.508869930813276" lon="14.383868688945606"><ele>489.0</ele><time>2026-04-29T13:44:57.001Z</time></trkpt><trkpt lat="37.50883341676989" lon="14.383991194332946"><ele>487.75</ele><time>2026-04-29T13:44:58.001Z</time></trkpt><trkpt lat="37.50878345774162" lon="14.384098960012937"><ele>486.5</ele><time>2026-04-29T13:44:59.001Z</time></trkpt><trkpt lat="37.508707117593524" lon="14.384182179956817"><ele>485.25</ele><time>2026-04-29T13:45:00.001Z</time></trkpt><trkpt lat="37.508616871929185" lon="14.384285343376728"><ele>484.0</ele><time>2026-04-29T13:45:01.001Z</time></trkpt><trkpt lat="37.50851874681092" lon="14.384399682989734"><ele>484.0</ele><time>2026-04-29T13:45:02.001Z</time></trkpt><trkpt lat="37.508415292981276" lon="14.384514602591118"><ele>484.0</ele><time>2026-04-29T13:45:03.001Z</time></trkpt><trkpt lat="37.50831155062333" lon="14.38462228086656"><ele>484.0</ele><time>2026-04-29T13:45:04.001Z</time></trkpt><trkpt lat="37.50821548194433" lon="14.384706904004943"><ele>484.0</ele><time>2026-04-29T13:45:05.001Z</time></trkpt><trkpt lat="37.508118263669395" lon="14.38475831425726"><ele>486.75</ele><time>2026-04-29T13:45:06.001Z</time></trkpt><trkpt lat="37.508013718134144" lon="14.384797585704321"><ele>489.5</ele><time>2026-04-29T13:45:07.001Z</time></trkpt><trkpt lat="37.50788951406092" lon="14.38478623534243"><ele>492.25</ele><time>2026-04-29T13:45:08.001Z</time></trkpt><trkpt lat="37.50775074340242" lon="14.384801659694922"><ele>495.0</ele><time>2026-04-29T13:45:09.001Z</time></trkpt><trkpt lat="37.50760970945926" lon="14.384856260367924"><ele>495.0</ele><time>2026-04-29T13:45:10.001Z</time></trkpt><trkpt lat="37.507479412839196" lon="14.38494928530066"><ele>495.0</ele><time>2026-04-29T13:45:11.001Z</time></trkpt><trkpt lat="37.50733519602953" lon="14.38500776418155"><ele>495.0</ele><time>2026-04-29T13:45:12.001Z</time></trkpt><trkpt lat="37.50718423280538" lon="14.38509215076969"><ele>493.75</ele><time>2026-04-29T13:45:13.001Z</time></trkpt><trkpt lat="37.507045746423195" lon="14.385160067632311"><ele>492.5</ele><time>2026-04-29T13:45:14.001Z</time></trkpt><trkpt lat="37.50692334760641" lon="14.385223291411924"><ele>491.25</ele><time>2026-04-29T13:45:15.001Z</time></trkpt><trkpt lat="37.50681364372033" lon="14.385285920062334"><ele>490.0</ele><time>2026-04-29T13:45:16.001Z</time></trkpt><trkpt lat="37.506708988145945" lon="14.385361301979888"><ele>490.0</ele><time>2026-04-29T13:45:17.001Z</time></trkpt><trkpt lat="37.5066117952844" lon="14.385456964980602"><ele>490.0</ele><time>2026-04-29T13:45:18.001Z</time></trkpt><trkpt lat="37.50650201981864" lon="14.38554759082162"><ele>490.0</ele><time>2026-04-29T13:45:19.001Z</time></trkpt><trkpt lat="37.50640014345869" lon="14.385634372015556"><ele>490.0</ele><time>2026-04-29T13:45:20.001Z</time></trkpt><trkpt lat="37.50630715041055" lon="14.385725500378937"><ele>491.25</ele><time>2026-04-29T13:45:21.001Z</time></trkpt><trkpt lat="37.50622794078583" lon="14.385831183627266"><ele>492.5</ele><time>2026-04-29T13:45:22.001Z</time></trkpt><trkpt lat="37.50612965496834" lon="14.385908072384542"><ele>493.75</ele><time>2026-04-29T13:45:23.001Z</time></trkpt><trkpt lat="37.506039346687324" lon="14.386013900457472"><ele>495.0</ele><time>2026-04-29T13:45:24.001Z</time></trkpt><trkpt lat="37.50592416715483" lon="14.386087800223075"><ele>495.0</ele><time>2026-04-29T13:45:25.001Z</time></trkpt><trkpt lat="37.50580416518694" lon="14.386156523023663"><ele>495.0</ele><time>2026-04-29T13:45:26.001Z</time></trkpt><trkpt lat="37.50566954510435" lon="14.386208001981275"><ele>495.0</ele><time>2026-04-29T13:45:27.001Z</time></trkpt><trkpt lat="37.50551695841923" lon="14.386257497895024"><ele>495.0</ele><time>2026-04-29T13:45:28.001Z</time></trkpt><trkpt lat="37.50535979159963" lon="14.386308085858046"><ele>496.0</ele><time>2026-04-29T13:45:29.001Z</time></trkpt><trkpt lat="37.50520982952918" lon="14.386361564729118"><ele>497.0</ele><time>2026-04-29T13:45:30.001Z</time></trkpt><trkpt lat="37.50507312233588" lon="14.386420974443306"><ele>498.0</ele><time>2026-04-29T13:45:31.001Z</time></trkpt><trkpt lat="37.50493516972014" lon="14.386484580568476"><ele>499.0</ele><time>2026-04-29T13:45:32.001Z</time></trkpt><trkpt lat="37.50480306715295" lon="14.386548550929366"><ele>499.0</ele><time>2026-04-29T13:45:33.001Z</time></trkpt><trkpt lat="37.50467095522159" lon="14.386610720411083"><ele>499.0</ele><time>2026-04-29T13:45:34.001Z</time></trkpt><trkpt lat="37.504538102282645" lon="14.386671566511048"><ele>499.0</ele><time>2026-04-29T13:45:35.001Z</time></trkpt><trkpt lat="37.504411995284265" lon="14.386729383447278"><ele>499.0</ele><time>2026-04-29T13:45:36.001Z</time></trkpt><trkpt lat="37.50428840505267" lon="14.386788454441232"><ele>500.75</ele><time>2026-04-29T13:45:37.001Z</time></trkpt><trkpt lat="37.504164535285135" lon="14.38684765902216"><ele>502.5</ele><time>2026-04-29T13:45:38.001Z</time></trkpt><trkpt lat="37.50403370906711" lon="14.386910188463315"><ele>504.25</ele><time>2026-04-29T13:45:39.001Z</time></trkpt><trkpt lat="37.5039059187664" lon="14.386971266938723"><ele>506.0</ele><time>2026-04-29T13:45:40.001Z</time></trkpt><trkpt lat="37.50378772735568" lon="14.387027739283635"><ele>506.0</ele><time>2026-04-29T13:45:41.001Z</time></trkpt><trkpt lat="37.50367994283298" lon="14.387079195050292"><ele>506.0</ele><time>2026-04-29T13:45:42.001Z</time></trkpt><trkpt lat="37.50357030897615" lon="14.387131533546855"><ele>506.0</ele><time>2026-04-29T13:45:43.001Z</time></trkpt><trkpt lat="37.50345488147928" lon="14.387184807466696"><ele>506.0</ele><time>2026-04-29T13:45:44.001Z</time></trkpt><trkpt lat="37.50333583552767" lon="14.387239055204567"><ele>507.25</ele><time>2026-04-29T13:45:45.001Z</time></trkpt><trkpt lat="37.50321437029264" lon="14.387294404882894"><ele>508.5</ele><time>2026-04-29T13:45:46.001Z</time></trkpt><trkpt lat="37.503090265072835" lon="14.387350827354107"><ele>509.75</ele><time>2026-04-29T13:45:47.001Z</time></trkpt><trkpt lat="37.50297882287658" lon="14.387401357617264"><ele>511.0</ele><time>2026-04-29T13:45:48.001Z</time></trkpt><trkpt lat="37.502893492614156" lon="14.387439662180995"><ele>511.75</ele><time>2026-04-29T13:45:49.001Z</time></trkpt><trkpt lat="37.502791177931094" lon="14.387488553025824"><ele>512.5</ele><time>2026-04-29T13:45:51.001Z</time></trkpt><trkpt lat="37.50271403931398" lon="14.387455734375454"><ele>513.25</ele><time>2026-04-29T13:45:53.001Z</time></trkpt><trkpt lat="37.50276460979368" lon="14.387166832902063"><ele>514.0</ele><time>2026-04-29T13:45:55.001Z</time></trkpt><trkpt lat="37.5027907920852" lon="14.387059131155763"><ele>514.0</ele><time>2026-04-29T13:45:56.001Z</time></trkpt><trkpt lat="37.5028089173846" lon="14.386946589388101"><ele>514.0</ele><time>2026-04-29T13:45:57.001Z</time></trkpt><trkpt lat="37.50282908277298" lon="14.386830483118294"><ele>514.0</ele><time>2026-04-29T13:45:58.001Z</time></trkpt><trkpt lat="37.502846960398855" lon="14.386713675570517"><ele>514.0</ele><time>2026-04-29T13:45:59.001Z</time></trkpt><trkpt lat="37.50286553202374" lon="14.386593001106245"><ele>514.0</ele><time>2026-04-29T13:46:00.001Z</time></trkpt><trkpt lat="37.50288717712216" lon="14.386475277440601"><ele>514.0</ele><time>2026-04-29T13:46:01.001Z</time></trkpt><trkpt lat="37.50290781556868" lon="14.38635647701709"><ele>514.0</ele><time>2026-04-29T13:46:02.001Z</time></trkpt><trkpt lat="37.502926299807" lon="14.386239917010515"><ele>514.0</ele><time>2026-04-29T13:46:03.001Z</time></trkpt><trkpt lat="37.50293626824061" lon="14.38612405169044"><ele>514.0</ele><time>2026-04-29T13:46:04.001Z</time></trkpt><trkpt lat="37.50295259025394" lon="14.386012906319113"><ele>514.0</ele><time>2026-04-29T13:46:05.001Z</time></trkpt><trkpt lat="37.50296681265123" lon="14.385898935030067"><ele>511.1666666666667</ele><time>2026-04-29T13:46:06.001Z</time></trkpt><trkpt lat="37.50297853621525" lon="14.385791958279727"><ele>508.33333333333337</ele><time>2026-04-29T13:46:07.001Z</time></trkpt><trkpt lat="37.503003217095475" lon="14.385686639255193"><ele>505.5</ele><time>2026-04-29T13:46:08.001Z</time></trkpt><trkpt lat="37.50303924314281" lon="14.385583862802003"><ele>502.66666666666663</ele><time>2026-04-29T13:46:09.001Z</time></trkpt><trkpt lat="37.50307210872717" lon="14.385481861539"><ele>499.8333333333333</ele><time>2026-04-29T13:46:10.001Z</time></trkpt><trkpt lat="37.503098572305845" lon="14.385396710436854"><ele>497.0</ele><time>2026-04-29T13:46:11.001Z</time></trkpt><trkpt lat="37.50314212273919" lon="14.38532897903709"><ele>496.16666666666663</ele><time>2026-04-29T13:46:12.001Z</time></trkpt><trkpt lat="37.5031942007675" lon="14.385254927707903"><ele>495.3333333333333</ele><time>2026-04-29T13:46:13.001Z</time></trkpt><trkpt lat="37.503245064059904" lon="14.385179337576549"><ele>494.5</ele><time>2026-04-29T13:46:14.001Z</time></trkpt><trkpt lat="37.503295027367905" lon="14.385096263006231"><ele>493.66666666666663</ele><time>2026-04-29T13:46:15.001Z</time></trkpt><trkpt lat="37.5033503704573" lon="14.385010969464364"><ele>492.8333333333333</ele><time>2026-04-29T13:46:16.001Z</time></trkpt><trkpt lat="37.503409568051175" lon="14.384929415247724"><ele>492.0</ele><time>2026-04-29T13:46:17.001Z</time></trkpt><trkpt lat="37.50346947488117" lon="14.384862566252174"><ele>492.0</ele><time>2026-04-29T13:46:18.001Z</time></trkpt><trkpt lat="37.50353210811098" lon="14.384811381766859"><ele>492.0</ele><time>2026-04-29T13:46:19.001Z</time></trkpt><trkpt lat="37.50358979134715" lon="14.384747912280593"><ele>492.0</ele><time>2026-04-29T13:46:20.001Z</time></trkpt><trkpt lat="37.50363754132015" lon="14.384665888518185"><ele>492.0</ele><time>2026-04-29T13:46:21.001Z</time></trkpt><trkpt lat="37.50368727192686" lon="14.38458386248358"><ele>492.0</ele><time>2026-04-29T13:46:22.001Z</time></trkpt><trkpt lat="37.50374475142539" lon="14.384503364395758"><ele>492.0</ele><time>2026-04-29T13:46:23.001Z</time></trkpt><trkpt lat="37.50380906244704" lon="14.384429571212232"><ele>490.0</ele><time>2026-04-29T13:46:24.001Z</time></trkpt><trkpt lat="37.50387540322356" lon="14.384358022360129"><ele>488.0</ele><time>2026-04-29T13:46:25.001Z</time></trkpt><trkpt lat="37.50395566364743" lon="14.384303836962774"><ele>486.0</ele><time>2026-04-29T13:46:26.001Z</time></trkpt><trkpt lat="37.50402586759059" lon="14.384236428623833"><ele>484.0</ele><time>2026-04-29T13:46:27.001Z</time></trkpt><trkpt lat="37.50408744436516" lon="14.384177303906775"><ele>482.0</ele><time>2026-04-29T13:46:28.001Z</time></trkpt><trkpt lat="37.50414061763124" lon="14.384116558648689"><ele>480.0</ele><time>2026-04-29T13:46:29.001Z</time></trkpt><trkpt lat="37.50420385369114" lon="14.384066159490024"><ele>480.0</ele><time>2026-04-29T13:46:30.001Z</time></trkpt><trkpt lat="37.50426708822367" lon="14.384004586827151"><ele>480.0</ele><time>2026-04-29T13:46:31.001Z</time></trkpt><trkpt lat="37.50432850403093" lon="14.383932119512835"><ele>480.0</ele><time>2026-04-29T13:46:32.001Z</time></trkpt><trkpt lat="37.50438957107642" lon="14.383852426379262"><ele>480.0</ele><time>2026-04-29T13:46:33.001Z</time></trkpt><trkpt lat="37.50444659205943" lon="14.383772348994107"><ele>480.0</ele><time>2026-04-29T13:46:34.001Z</time></trkpt><trkpt lat="37.504507413295755" lon="14.383681087066472"><ele>480.0</ele><time>2026-04-29T13:46:35.001Z</time></trkpt><trkpt lat="37.50456795568197" lon="14.383590354835427"><ele>477.2</ele><time>2026-04-29T13:46:36.001Z</time></trkpt><trkpt lat="37.504629167406854" lon="14.38349107915075"><ele>474.4</ele><time>2026-04-29T13:46:37.001Z</time></trkpt><trkpt lat="37.504688869609296" lon="14.383392142251504"><ele>471.6</ele><time>2026-04-29T13:46:38.001Z</time></trkpt><trkpt lat="37.504750631608545" lon="14.383288325097189"><ele>468.8</ele><time>2026-04-29T13:46:39.001Z</time></trkpt><trkpt lat="37.50480761384572" lon="14.383184501170701"><ele>466.0</ele><time>2026-04-29T13:46:40.001Z</time></trkpt><trkpt lat="37.50486287918823" lon="14.383075313114077"><ele>464.4</ele><time>2026-04-29T13:46:41.001Z</time></trkpt><trkpt lat="37.50491619119274" lon="14.382966685402597"><ele>462.8</ele><time>2026-04-29T13:46:42.001Z</time></trkpt><trkpt lat="37.504963534516065" lon="14.382867106049229"><ele>461.19999999999993</ele><time>2026-04-29T13:46:43.001Z</time></trkpt><trkpt lat="37.50498081643923" lon="14.38277417957238"><ele>459.59999999999997</ele><time>2026-04-29T13:46:44.001Z</time></trkpt><trkpt lat="37.505014061589364" lon="14.382634824660107"><ele>458.0</ele><time>2026-04-29T13:46:46.001Z</time></trkpt><trkpt lat="37.50497743003566" lon="14.382548548192261"><ele>458.0</ele><time>2026-04-29T13:46:47.001Z</time></trkpt><trkpt lat="37.50491327705792" lon="14.382460211269592"><ele>458.0</ele><time>2026-04-29T13:46:48.001Z</time></trkpt><trkpt lat="37.504812891316256" lon="14.38239361412487"><ele>458.0</ele><time>2026-04-29T13:46:49.001Z</time></trkpt><trkpt lat="37.504686640399186" lon="14.382323179755554"><ele>458.0</ele><time>2026-04-29T13:46:50.001Z</time></trkpt><trkpt lat="37.50452973491891" lon="14.382319363431296"><ele>456.0</ele><time>2026-04-29T13:46:51.001Z</time></trkpt><trkpt lat="37.50435952260683" lon="14.382307189253229"><ele>454.0</ele><time>2026-04-29T13:46:52.001Z</time></trkpt><trkpt lat="37.50418549522698" lon="14.382268830702614"><ele>452.0</ele><time>2026-04-29T13:46:53.001Z</time></trkpt><trkpt lat="37.504019693626674" lon="14.382249805810767"><ele>452.0</ele><time>2026-04-29T13:46:54.001Z</time></trkpt><trkpt lat="37.50387772264662" lon="14.382249667084347"><ele>452.0</ele><time>2026-04-29T13:46:55.001Z</time></trkpt><trkpt lat="37.50376363158194" lon="14.382221359842998"><ele>452.0</ele><time>2026-04-29T13:46:56.001Z</time></trkpt><trkpt lat="37.50366112730705" lon="14.38218275087444"><ele>452.0</ele><time>2026-04-29T13:46:57.001Z</time></trkpt><trkpt lat="37.50357430921989" lon="14.382107818134998"><ele>449.75</ele><time>2026-04-29T13:46:58.001Z</time></trkpt><trkpt lat="37.503490749606684" lon="14.381992727531046"><ele>447.5</ele><time>2026-04-29T13:46:59.001Z</time></trkpt><trkpt lat="37.503435008398526" lon="14.381857094666318"><ele>445.25</ele><time>2026-04-29T13:47:00.001Z</time></trkpt><trkpt lat="37.50339437443202" lon="14.38170770805548"><ele>443.0</ele><time>2026-04-29T13:47:01.001Z</time></trkpt><trkpt lat="37.50334842306383" lon="14.381550999331148"><ele>443.0</ele><time>2026-04-29T13:47:02.001Z</time></trkpt><trkpt lat="37.50330827005862" lon="14.381370591054107"><ele>443.0</ele><time>2026-04-29T13:47:03.001Z</time></trkpt><trkpt lat="37.50327697183867" lon="14.381165765518746"><ele>443.0</ele><time>2026-04-29T13:47:04.001Z</time></trkpt><trkpt lat="37.50323365390626" lon="14.380979540225301"><ele>444.5</ele><time>2026-04-29T13:47:05.001Z</time></trkpt><trkpt lat="37.503163602247405" lon="14.38083859359186"><ele>446.0</ele><time>2026-04-29T13:47:06.001Z</time></trkpt><trkpt lat="37.50305727907237" lon="14.380724614120327"><ele>447.5</ele><time>2026-04-29T13:47:07.001Z</time></trkpt><trkpt lat="37.502922389215385" lon="14.380625609972498"><ele>449.0</ele><time>2026-04-29T13:47:08.001Z</time></trkpt><trkpt lat="37.502774641309074" lon="14.38053722718237"><ele>453.25</ele><time>2026-04-29T13:47:09.001Z</time></trkpt><trkpt lat="37.50266833434162" lon="14.380449467229564"><ele>457.5</ele><time>2026-04-29T13:47:10.001Z</time></trkpt><trkpt lat="37.50259386267911" lon="14.380346331695117"><ele>461.75</ele><time>2026-04-29T13:47:11.001Z</time></trkpt><trkpt lat="37.50255684980143" lon="14.380216667860672"><ele>466.0</ele><time>2026-04-29T13:47:12.001Z</time></trkpt><trkpt lat="37.50255915648501" lon="14.380082888362393"><ele>466.0</ele><time>2026-04-29T13:47:13.001Z</time></trkpt><trkpt lat="37.50261663966468" lon="14.379946050085586"><ele>466.0</ele><time>2026-04-29T13:47:14.001Z</time></trkpt><trkpt lat="37.502723095067864" lon="14.379825667614229"><ele>466.0</ele><time>2026-04-29T13:47:15.001Z</time></trkpt><trkpt lat="37.50284767722085" lon="14.379718342480844"><ele>466.0</ele><time>2026-04-29T13:47:16.001Z</time></trkpt><trkpt lat="37.502977932789136" lon="14.37961189414564"><ele>468.75</ele><time>2026-04-29T13:47:17.001Z</time></trkpt><trkpt lat="37.503097818307616" lon="14.379520780642567"><ele>471.5</ele><time>2026-04-29T13:47:18.001Z</time></trkpt><trkpt lat="37.50318941121743" lon="14.37943210199825"><ele>474.25</ele><time>2026-04-29T13:47:19.001Z</time></trkpt><trkpt lat="37.50321709931137" lon="14.379308799065113"><ele>477.0</ele><time>2026-04-29T13:47:20.001Z</time></trkpt><trkpt lat="37.503218028610576" lon="14.37918517942556"><ele>477.0</ele><time>2026-04-29T13:47:21.001Z</time></trkpt><trkpt lat="37.50321047295554" lon="14.379046976153502"><ele>477.0</ele><time>2026-04-29T13:47:22.001Z</time></trkpt><trkpt lat="37.503132721821686" lon="14.378923845872565"><ele>477.0</ele><time>2026-04-29T13:47:23.001Z</time></trkpt><trkpt lat="37.50300269590457" lon="14.378828611158998"><ele>477.0</ele><time>2026-04-29T13:47:24.001Z</time></trkpt><trkpt lat="37.50285585814761" lon="14.378738772031918"><ele>478.5</ele><time>2026-04-29T13:47:25.001Z</time></trkpt><trkpt lat="37.50272414760591" lon="14.378627302907539"><ele>480.0</ele><time>2026-04-29T13:47:26.001Z</time></trkpt><trkpt lat="37.502626587113966" lon="14.378514922177825"><ele>481.5</ele><time>2026-04-29T13:47:27.001Z</time></trkpt><trkpt lat="37.502556305807175" lon="14.378379987679224"><ele>483.0</ele><time>2026-04-29T13:47:28.001Z</time></trkpt><trkpt lat="37.50251186532782" lon="14.378213480819063"><ele>483.0</ele><time>2026-04-29T13:47:29.001Z</time></trkpt><trkpt lat="37.50248799042762" lon="14.378025081537423"><ele>483.0</ele><time>2026-04-29T13:47:30.001Z</time></trkpt><trkpt lat="37.50246343725815" lon="14.377823528408225"><ele>483.0</ele><time>2026-04-29T13:47:31.001Z</time></trkpt><trkpt lat="37.50243019175238" lon="14.37761297079814"><ele>485.0</ele><time>2026-04-29T13:47:32.001Z</time></trkpt><trkpt lat="37.50240025735184" lon="14.377413860201932"><ele>487.0</ele><time>2026-04-29T13:47:33.001Z</time></trkpt><trkpt lat="37.50239259522508" lon="14.377241585872614"><ele>489.0</ele><time>2026-04-29T13:47:34.001Z</time></trkpt><trkpt lat="37.502384666603035" lon="14.377091162296443"><ele>491.0</ele><time>2026-04-29T13:47:35.001Z</time></trkpt><trkpt lat="37.50244186780378" lon="14.376965128336035"><ele>494.25</ele><time>2026-04-29T13:47:36.001Z</time></trkpt><trkpt lat="37.50250996209997" lon="14.376855850232433"><ele>497.5</ele><time>2026-04-29T13:47:37.001Z</time></trkpt><trkpt lat="37.50261105672899" lon="14.376753186989063"><ele>500.75</ele><time>2026-04-29T13:47:38.001Z</time></trkpt><trkpt lat="37.50272923030408" lon="14.376652561725935"><ele>504.0</ele><time>2026-04-29T13:47:39.001Z</time></trkpt><trkpt lat="37.50286531331859" lon="14.376555848208522"><ele>504.33333333333337</ele><time>2026-04-29T13:47:40.001Z</time></trkpt><trkpt lat="37.5030075359157" lon="14.376449533272806"><ele>504.6666666666667</ele><time>2026-04-29T13:47:41.001Z</time></trkpt><trkpt lat="37.503153950233006" lon="14.376325913284589"><ele>505.0</ele><time>2026-04-29T13:47:42.001Z</time></trkpt><trkpt lat="37.50329148014234" lon="14.376194508789776"><ele>507.33333333333337</ele><time>2026-04-29T13:47:43.001Z</time></trkpt><trkpt lat="37.503414462331406" lon="14.376061591047234"><ele>509.66666666666663</ele><time>2026-04-29T13:47:44.001Z</time></trkpt><trkpt lat="37.50353378074915" lon="14.375909427155324"><ele>512.0</ele><time>2026-04-29T13:47:45.001Z</time></trkpt><trkpt lat="37.503629835109344" lon="14.375711742156238"><ele>515.6666666666666</ele><time>2026-04-29T13:47:46.001Z</time></trkpt><trkpt lat="37.503750078431196" lon="14.37552269549954"><ele>519.3333333333334</ele><time>2026-04-29T13:47:47.001Z</time></trkpt><trkpt lat="37.50386210994957" lon="14.375293917398295"><ele>523.0</ele><time>2026-04-29T13:47:48.001Z</time></trkpt><trkpt lat="37.503989332474674" lon="14.375060533142452"><ele>525.0</ele><time>2026-04-29T13:47:49.001Z</time></trkpt><trkpt lat="37.50409858198762" lon="14.37486405660268"><ele>527.0</ele><time>2026-04-29T13:47:50.001Z</time></trkpt><trkpt lat="37.504196140818216" lon="14.374688268862487"><ele>529.0</ele><time>2026-04-29T13:47:51.001Z</time></trkpt><trkpt lat="37.50429587176351" lon="14.374509931377508"><ele>530.6666666666667</ele><time>2026-04-29T13:47:52.001Z</time></trkpt><trkpt lat="37.504376297218634" lon="14.374317458121533"><ele>532.3333333333334</ele><time>2026-04-29T13:47:53.001Z</time></trkpt><trkpt lat="37.504401402455144" lon="14.374105081836264"><ele>534.0</ele><time>2026-04-29T13:47:54.001Z</time></trkpt><trkpt lat="37.50442911261923" lon="14.373888382964878"><ele>537.0</ele><time>2026-04-29T13:47:55.001Z</time></trkpt><trkpt lat="37.5044528999033" lon="14.373677488912334"><ele>540.0</ele><time>2026-04-29T13:47:56.001Z</time></trkpt><trkpt lat="37.504419859263976" lon="14.373462765340431"><ele>543.0</ele><time>2026-04-29T13:47:57.001Z</time></trkpt><trkpt lat="37.5043806792988" lon="14.373238257098874"><ele>543.0</ele><time>2026-04-29T13:47:58.001Z</time></trkpt><trkpt lat="37.50434586048692" lon="14.373022878013334"><ele>543.0</ele><time>2026-04-29T13:47:59.001Z</time></trkpt><trkpt lat="37.50430176873272" lon="14.372822258158669"><ele>543.0</ele><time>2026-04-29T13:48:00.001Z</time></trkpt><trkpt lat="37.50426754500964" lon="14.372629387007855"><ele>546.3333333333334</ele><time>2026-04-29T13:48:01.001Z</time></trkpt><trkpt lat="37.50422227772756" lon="14.372453982871406"><ele>549.6666666666667</ele><time>2026-04-29T13:48:02.001Z</time></trkpt><trkpt lat="37.504121202478984" lon="14.372317171546946"><ele>553.0</ele><time>2026-04-29T13:48:03.001Z</time></trkpt><trkpt lat="37.504009000635875" lon="14.372168250076697"><ele>554.0</ele><time>2026-04-29T13:48:04.001Z</time></trkpt><trkpt lat="37.503878487455204" lon="14.372041546130443"><ele>555.0</ele><time>2026-04-29T13:48:05.001Z</time></trkpt><trkpt lat="37.50377170290388" lon="14.371913208829302"><ele>556.0</ele><time>2026-04-29T13:48:06.001Z</time></trkpt><trkpt lat="37.50367257784358" lon="14.371789056286627"><ele>556.0</ele><time>2026-04-29T13:48:07.001Z</time></trkpt><trkpt lat="37.50357630535972" lon="14.371651105646075"><ele>556.0</ele><time>2026-04-29T13:48:08.001Z</time></trkpt><trkpt lat="37.50348904488438" lon="14.371491615933357"><ele>556.0</ele><time>2026-04-29T13:48:09.001Z</time></trkpt><trkpt lat="37.503409483827134" lon="14.371306043433279"><ele>555.3333333333334</ele><time>2026-04-29T13:48:10.001Z</time></trkpt><trkpt lat="37.50334098964522" lon="14.371113633686733"><ele>554.6666666666666</ele><time>2026-04-29T13:48:11.001Z</time></trkpt><trkpt lat="37.50328187957727" lon="14.37094031200935"><ele>554.0</ele><time>2026-04-29T13:48:12.001Z</time></trkpt><trkpt lat="37.503219882851795" lon="14.370777676348231"><ele>554.0</ele><time>2026-04-29T13:48:13.001Z</time></trkpt><trkpt lat="37.503151900838425" lon="14.370624175984243"><ele>554.0</ele><time>2026-04-29T13:48:14.001Z</time></trkpt><trkpt lat="37.503086401643465" lon="14.370478542084253"><ele>554.0</ele><time>2026-04-29T13:48:15.001Z</time></trkpt><trkpt lat="37.50302391425125" lon="14.370333570139932"><ele>554.0</ele><time>2026-04-29T13:48:16.001Z</time></trkpt><trkpt lat="37.502961113618106" lon="14.370178721209994"><ele>554.0</ele><time>2026-04-29T13:48:17.001Z</time></trkpt><trkpt lat="37.50289635073895" lon="14.37001014187212"><ele>554.0</ele><time>2026-04-29T13:48:18.001Z</time></trkpt><trkpt lat="37.50283256444448" lon="14.369831738663756"><ele>554.0</ele><time>2026-04-29T13:48:19.001Z</time></trkpt><trkpt lat="37.50276487782113" lon="14.369641791082746"><ele>552.0</ele><time>2026-04-29T13:48:20.001Z</time></trkpt><trkpt lat="37.50268869698107" lon="14.36944939907578"><ele>550.0</ele><time>2026-04-29T13:48:21.001Z</time></trkpt><trkpt lat="37.50261414606707" lon="14.369267938356419"><ele>548.0</ele><time>2026-04-29T13:48:22.001Z</time></trkpt><trkpt lat="37.5025439286408" lon="14.369092298078812"><ele>548.0</ele><time>2026-04-29T13:48:23.001Z</time></trkpt><trkpt lat="37.50245872998614" lon="14.368928210507843"><ele>548.0</ele><time>2026-04-29T13:48:24.001Z</time></trkpt><trkpt lat="37.50234488664527" lon="14.36877665049373"><ele>548.0</ele><time>2026-04-29T13:48:25.001Z</time></trkpt><trkpt lat="37.5021981644274" lon="14.368641639404796"><ele>547.0</ele><time>2026-04-29T13:48:26.001Z</time></trkpt><trkpt lat="37.502024094850476" lon="14.368522492042914"><ele>546.0</ele><time>2026-04-29T13:48:27.001Z</time></trkpt><trkpt lat="37.5018563191341" lon="14.36840694596532"><ele>545.0</ele><time>2026-04-29T13:48:28.001Z</time></trkpt><trkpt lat="37.50170018330302" lon="14.368291631105638"><ele>545.0</ele><time>2026-04-29T13:48:29.001Z</time></trkpt><trkpt lat="37.50153477856234" lon="14.368174205148334"><ele>545.0</ele><time>2026-04-29T13:48:30.001Z</time></trkpt><trkpt lat="37.5013695034481" lon="14.368045784794488"><ele>545.0</ele><time>2026-04-29T13:48:31.001Z</time></trkpt><trkpt lat="37.501215005224864" lon="14.367913956562779"><ele>544.3333333333333</ele><time>2026-04-29T13:48:32.001Z</time></trkpt><trkpt lat="37.5010569264133" lon="14.367784629360912"><ele>543.6666666666666</ele><time>2026-04-29T13:48:33.001Z</time></trkpt><trkpt lat="37.50090450055148" lon="14.367665624451952"><ele>543.0</ele><time>2026-04-29T13:48:34.001Z</time></trkpt><trkpt lat="37.500756734907576" lon="14.367556981629479"><ele>543.0</ele><time>2026-04-29T13:48:35.001Z</time></trkpt><trkpt lat="37.500610604190044" lon="14.367447517126873"><ele>543.0</ele><time>2026-04-29T13:48:36.001Z</time></trkpt><trkpt lat="37.50046728521332" lon="14.367336522234513"><ele>543.0</ele><time>2026-04-29T13:48:37.001Z</time></trkpt><trkpt lat="37.50032486348373" lon="14.367224464641085"><ele>543.0</ele><time>2026-04-29T13:48:38.001Z</time></trkpt><trkpt lat="37.50018273390585" lon="14.367115407759076"><ele>543.0</ele><time>2026-04-29T13:48:39.001Z</time></trkpt><trkpt lat="37.50004127931831" lon="14.367006764997479"><ele>543.0</ele><time>2026-04-29T13:48:40.001Z</time></trkpt><trkpt lat="37.49990183133596" lon="14.366899707080155"><ele>543.0</ele><time>2026-04-29T13:48:41.001Z</time></trkpt><trkpt lat="37.49976210655602" lon="14.366793071965699"><ele>543.0</ele><time>2026-04-29T13:48:42.001Z</time></trkpt><trkpt lat="37.499625137836155" lon="14.366686494258516"><ele>543.0</ele><time>2026-04-29T13:48:43.001Z</time></trkpt><trkpt lat="37.499488309678654" lon="14.366581968764"><ele>544.0</ele><time>2026-04-29T13:48:44.001Z</time></trkpt><trkpt lat="37.499352368257995" lon="14.366473938678201"><ele>545.0</ele><time>2026-04-29T13:48:45.001Z</time></trkpt><trkpt lat="37.49921890964394" lon="14.366365719439669"><ele>546.0</ele><time>2026-04-29T13:48:46.001Z</time></trkpt><trkpt lat="37.49908376676235" lon="14.366255423251374"><ele>546.0</ele><time>2026-04-29T13:48:47.001Z</time></trkpt><trkpt lat="37.498950895127535" lon="14.366145210399056"><ele>546.0</ele><time>2026-04-29T13:48:48.001Z</time></trkpt><trkpt lat="37.49881747889265" lon="14.366028287079594"><ele>546.0</ele><time>2026-04-29T13:48:49.001Z</time></trkpt><trkpt lat="37.49868526203252" lon="14.365905241042583"><ele>545.3333333333334</ele><time>2026-04-29T13:48:50.001Z</time></trkpt><trkpt lat="37.49855740057009" lon="14.365775871243528"><ele>544.6666666666667</ele><time>2026-04-29T13:48:51.001Z</time></trkpt><trkpt lat="37.49843314083496" lon="14.365645622466426"><ele>544.0</ele><time>2026-04-29T13:48:52.001Z</time></trkpt><trkpt lat="37.498308286953005" lon="14.365514932590626"><ele>544.0</ele><time>2026-04-29T13:48:53.001Z</time></trkpt><trkpt lat="37.49818401968267" lon="14.365387169850402"><ele>544.0</ele><time>2026-04-29T13:48:54.001Z</time></trkpt><trkpt lat="37.49806037061011" lon="14.365258438080334"><ele>544.0</ele><time>2026-04-29T13:48:55.001Z</time></trkpt><trkpt lat="37.49793736457762" lon="14.365129157488614"><ele>547.0</ele><time>2026-04-29T13:48:56.001Z</time></trkpt><trkpt lat="37.49781087807882" lon="14.364998133569845"><ele>550.0</ele><time>2026-04-29T13:48:57.001Z</time></trkpt><trkpt lat="37.49768438534915" lon="14.364864262423756"><ele>553.0</ele><time>2026-04-29T13:48:58.001Z</time></trkpt><trkpt lat="37.497557865824746" lon="14.36473122470523"><ele>550.3333333333334</ele><time>2026-04-29T13:48:59.001Z</time></trkpt><trkpt lat="37.497429291396315" lon="14.364595368469345"><ele>547.6666666666666</ele><time>2026-04-29T13:49:00.001Z</time></trkpt><trkpt lat="37.49729845176306" lon="14.364456740912718"><ele>545.0</ele><time>2026-04-29T13:49:01.001Z</time></trkpt><trkpt lat="37.49717067304016" lon="14.36431535693688"><ele>548.6666666666666</ele><time>2026-04-29T13:49:02.001Z</time></trkpt><trkpt lat="37.497041332666825" lon="14.36417409964248"><ele>552.3333333333334</ele><time>2026-04-29T13:49:03.001Z</time></trkpt><trkpt lat="37.49691224396678" lon="14.364042531097748"><ele>556.0</ele><time>2026-04-29T13:49:04.001Z</time></trkpt><trkpt lat="37.49678103298247" lon="14.363916041846563"><ele>553.5</ele><time>2026-04-29T13:49:05.001Z</time></trkpt><trkpt lat="37.49666256319624" lon="14.363791285786757"><ele>551.0</ele><time>2026-04-29T13:49:06.001Z</time></trkpt><trkpt lat="37.49654767504092" lon="14.363680255443107"><ele>548.5</ele><time>2026-04-29T13:49:07.001Z</time></trkpt><trkpt lat="37.49642130442721" lon="14.363589823601371"><ele>546.0</ele><time>2026-04-29T13:49:08.001Z</time></trkpt><trkpt lat="37.49626784360417" lon="14.36352204774577"><ele>548.6666666666666</ele><time>2026-04-29T13:49:09.001Z</time></trkpt><trkpt lat="37.496090559296285" lon="14.363475511244632"><ele>551.3333333333333</ele><time>2026-04-29T13:49:10.001Z</time></trkpt><trkpt lat="37.49591030736063" lon="14.36340260901046"><ele>554.0</ele><time>2026-04-29T13:49:11.001Z</time></trkpt><trkpt lat="37.49572968872736" lon="14.36334468965419"><ele>554.0</ele><time>2026-04-29T13:49:12.001Z</time></trkpt><trkpt lat="37.49553949181079" lon="14.363290003213589"><ele>554.0</ele><time>2026-04-29T13:49:13.001Z</time></trkpt><trkpt lat="37.49535000186357" lon="14.363205972342996"><ele>554.0</ele><time>2026-04-29T13:49:14.001Z</time></trkpt><trkpt lat="37.49515672118929" lon="14.363118230698937"><ele>554.0</ele><time>2026-04-29T13:49:15.001Z</time></trkpt><trkpt lat="37.494960319927074" lon="14.363023715623726"><ele>554.0</ele><time>2026-04-29T13:49:16.001Z</time></trkpt><trkpt lat="37.494763727221795" lon="14.362929057561635"><ele>554.0</ele><time>2026-04-29T13:49:17.001Z</time></trkpt><trkpt lat="37.494571427511325" lon="14.36283774614783"><ele>557.6666666666666</ele><time>2026-04-29T13:49:18.001Z</time></trkpt><trkpt lat="37.49438259850681" lon="14.362744822684018"><ele>561.3333333333334</ele><time>2026-04-29T13:49:19.001Z</time></trkpt><trkpt lat="37.49419690103814" lon="14.362650281884862"><ele>565.0</ele><time>2026-04-29T13:49:20.001Z</time></trkpt><trkpt lat="37.4940185475874" lon="14.362545267992166"><ele>565.0</ele><time>2026-04-29T13:49:21.001Z</time></trkpt><trkpt lat="37.4938464028405" lon="14.362423173704045"><ele>565.0</ele><time>2026-04-29T13:49:22.001Z</time></trkpt><trkpt lat="37.49367615180611" lon="14.362288987399628"><ele>565.0</ele><time>2026-04-29T13:49:23.001Z</time></trkpt><trkpt lat="37.493501566201935" lon="14.362160080090309"><ele>567.6666666666667</ele><time>2026-04-29T13:49:24.001Z</time></trkpt><trkpt lat="37.493320653263225" lon="14.36204176623597"><ele>570.3333333333334</ele><time>2026-04-29T13:49:25.001Z</time></trkpt><trkpt lat="37.49314441471984" lon="14.361921993394867"><ele>573.0</ele><time>2026-04-29T13:49:26.001Z</time></trkpt><trkpt lat="37.492991077567574" lon="14.36180500608311"><ele>575.0</ele><time>2026-04-29T13:49:27.001Z</time></trkpt><trkpt lat="37.49284475330765" lon="14.36169157201105"><ele>577.0</ele><time>2026-04-29T13:49:28.001Z</time></trkpt><trkpt lat="37.492697173275104" lon="14.36157905701109"><ele>579.0</ele><time>2026-04-29T13:49:29.001Z</time></trkpt><trkpt lat="37.49254103693707" lon="14.361475216660885"><ele>579.0</ele><time>2026-04-29T13:49:30.001Z</time></trkpt><trkpt lat="37.49237760503254" lon="14.361371004892932"><ele>579.0</ele><time>2026-04-29T13:49:31.001Z</time></trkpt><trkpt lat="37.492219266843236" lon="14.36126251098614"><ele>579.0</ele><time>2026-04-29T13:49:32.001Z</time></trkpt><trkpt lat="37.492079787522776" lon="14.361154447463303"><ele>580.0</ele><time>2026-04-29T13:49:33.001Z</time></trkpt><trkpt lat="37.49196560258298" lon="14.361061870956304"><ele>581.0</ele><time>2026-04-29T13:49:34.001Z</time></trkpt><trkpt lat="37.49184835858057" lon="14.360967113812427"><ele>582.0</ele><time>2026-04-29T13:49:35.001Z</time></trkpt><trkpt lat="37.49173653644746" lon="14.360846417815505"><ele>583.0</ele><time>2026-04-29T13:49:36.001Z</time></trkpt><trkpt lat="37.49163342452996" lon="14.360706973673388"><ele>583.0</ele><time>2026-04-29T13:49:37.001Z</time></trkpt><trkpt lat="37.49152696473498" lon="14.360571942662988"><ele>583.0</ele><time>2026-04-29T13:49:38.001Z</time></trkpt><trkpt lat="37.491415566268635" lon="14.360439716696131"><ele>583.0</ele><time>2026-04-29T13:49:39.001Z</time></trkpt><trkpt lat="37.49128921644481" lon="14.360312553571923"><ele>583.0</ele><time>2026-04-29T13:49:40.001Z</time></trkpt><trkpt lat="37.49115052674623" lon="14.360196283355686"><ele>583.0</ele><time>2026-04-29T13:49:41.001Z</time></trkpt><trkpt lat="37.49099815029617" lon="14.360089948845193"><ele>583.0</ele><time>2026-04-29T13:49:42.001Z</time></trkpt><trkpt lat="37.49084085153587" lon="14.360002699431355"><ele>583.0</ele><time>2026-04-29T13:49:43.001Z</time></trkpt><trkpt lat="37.490680580826634" lon="14.359930614972477"><ele>583.0</ele><time>2026-04-29T13:49:44.001Z</time></trkpt><trkpt lat="37.490508264192414" lon="14.359869759945166"><ele>583.0</ele><time>2026-04-29T13:49:45.001Z</time></trkpt><trkpt lat="37.4903332009802" lon="14.35978815119844"><ele>584.0</ele><time>2026-04-29T13:49:46.001Z</time></trkpt><trkpt lat="37.490145425416785" lon="14.359729929689031"><ele>585.0</ele><time>2026-04-29T13:49:47.001Z</time></trkpt><trkpt lat="37.489959919655135" lon="14.359675696775154"><ele>586.0</ele><time>2026-04-29T13:49:48.001Z</time></trkpt><trkpt lat="37.489778533538555" lon="14.359628333239591"><ele>586.0</ele><time>2026-04-29T13:49:49.001Z</time></trkpt><trkpt lat="37.489593895252916" lon="14.359581501321792"><ele>586.0</ele><time>2026-04-29T13:49:50.001Z</time></trkpt><trkpt lat="37.489403461544576" lon="14.359537526801953"><ele>586.0</ele><time>2026-04-29T13:49:51.001Z</time></trkpt><trkpt lat="37.48921269396837" lon="14.35949409324515"><ele>588.0</ele><time>2026-04-29T13:49:52.001Z</time></trkpt><trkpt lat="37.48902185792574" lon="14.359450644089453"><ele>590.0</ele><time>2026-04-29T13:49:53.001Z</time></trkpt><trkpt lat="37.488830300459504" lon="14.359427895143048"><ele>592.0</ele><time>2026-04-29T13:49:54.001Z</time></trkpt><trkpt lat="37.48865123714692" lon="14.359364331594838"><ele>595.6666666666667</ele><time>2026-04-29T13:49:55.001Z</time></trkpt><trkpt lat="37.48847964935479" lon="14.359349768208821"><ele>599.3333333333334</ele><time>2026-04-29T13:49:56.001Z</time></trkpt><trkpt lat="37.488309535798486" lon="14.359390445138693"><ele>603.0</ele><time>2026-04-29T13:49:57.001Z</time></trkpt><trkpt lat="37.48813593468968" lon="14.359452213501905"><ele>603.0</ele><time>2026-04-29T13:49:58.001Z</time></trkpt><trkpt lat="37.48795567207974" lon="14.35950016852323"><ele>603.0</ele><time>2026-04-29T13:49:59.001Z</time></trkpt><trkpt lat="37.487782545510065" lon="14.359535711658856"><ele>603.0</ele><time>2026-04-29T13:50:00.001Z</time></trkpt><trkpt lat="37.48761257161114" lon="14.359551415672287"><ele>605.6666666666666</ele><time>2026-04-29T13:50:01.001Z</time></trkpt><trkpt lat="37.487439003890636" lon="14.359560666588354"><ele>608.3333333333333</ele><time>2026-04-29T13:50:02.001Z</time></trkpt><trkpt lat="37.48726426734491" lon="14.359569718264071"><ele>611.0</ele><time>2026-04-29T13:50:03.001Z</time></trkpt><trkpt lat="37.487087874114394" lon="14.359578855756581"><ele>614.0</ele><time>2026-04-29T13:50:04.001Z</time></trkpt><trkpt lat="37.4869149500697" lon="14.359585322927563"><ele>617.0</ele><time>2026-04-29T13:50:05.001Z</time></trkpt><trkpt lat="37.48675157111532" lon="14.359585330737707"><ele>620.0</ele><time>2026-04-29T13:50:06.001Z</time></trkpt><trkpt lat="37.48659647311951" lon="14.359582109883922"><ele>620.0</ele><time>2026-04-29T13:50:07.001Z</time></trkpt><trkpt lat="37.48644907507317" lon="14.359578029737175"><ele>620.0</ele><time>2026-04-29T13:50:08.001Z</time></trkpt><trkpt lat="37.48628861774692" lon="14.359573588111987"><ele>620.0</ele><time>2026-04-29T13:50:09.001Z</time></trkpt><trkpt lat="37.48612785706274" lon="14.359569138083186"><ele>623.0</ele><time>2026-04-29T13:50:10.001Z</time></trkpt><trkpt lat="37.48597363704702" lon="14.35956518202871"><ele>626.0</ele><time>2026-04-29T13:50:11.001Z</time></trkpt><trkpt lat="37.485838816460905" lon="14.35956193271506"><ele>629.0</ele><time>2026-04-29T13:50:12.001Z</time></trkpt><trkpt lat="37.48571789198215" lon="14.359559018313899"><ele>632.0</ele><time>2026-04-29T13:50:13.001Z</time></trkpt><trkpt lat="37.48560986963485" lon="14.35957169199269"><ele>632.0</ele><time>2026-04-29T13:50:14.001Z</time></trkpt><trkpt lat="37.485522791449846" lon="14.35955914550758"><ele>632.0</ele><time>2026-04-29T13:50:15.001Z</time></trkpt><trkpt lat="37.48542111256062" lon="14.35951492252137"><ele>632.0</ele><time>2026-04-29T13:50:17.001Z</time></trkpt><trkpt lat="37.4852973026922" lon="14.359375639581966"><ele>632.0</ele><time>2026-04-29T13:50:58.001Z</time></trkpt><trkpt lat="37.485254487905586" lon="14.359265300826307"><ele>633.0</ele><time>2026-04-29T13:50:59.001Z</time></trkpt><trkpt lat="37.48522890282998" lon="14.359151283974395"><ele>634.0</ele><time>2026-04-29T13:51:00.001Z</time></trkpt><trkpt lat="37.48522922948353" lon="14.359033944364374"><ele>635.0</ele><time>2026-04-29T13:51:01.001Z</time></trkpt><trkpt lat="37.48524323563779" lon="14.358891994565207"><ele>636.0</ele><time>2026-04-29T13:51:02.001Z</time></trkpt><trkpt lat="37.48524944089239" lon="14.35874494848673"><ele>637.0</ele><time>2026-04-29T13:51:03.001Z</time></trkpt><trkpt lat="37.48525249835878" lon="14.358598674969482"><ele>639.0</ele><time>2026-04-29T13:51:04.001Z</time></trkpt><trkpt lat="37.48525055542336" lon="14.35847425136709"><ele>641.0</ele><time>2026-04-29T13:51:05.001Z</time></trkpt><trkpt lat="37.48524299617344" lon="14.358384866562758"><ele>643.0</ele><time>2026-04-29T13:51:06.001Z</time></trkpt><trkpt lat="37.48521930661221" lon="14.358287181356703"><ele>645.0</ele><time>2026-04-29T13:51:08.001Z</time></trkpt><trkpt lat="37.485184748401856" lon="14.3581983767302"><ele>647.0</ele><time>2026-04-29T13:51:11.001Z</time></trkpt><trkpt lat="37.485027986831206" lon="14.358154224061497"><ele>647.0</ele><time>2026-04-29T13:51:22.001Z</time></trkpt><trkpt lat="37.48491852590225" lon="14.358125208356862"><ele>647.0</ele><time>2026-04-29T13:51:23.001Z</time></trkpt><trkpt lat="37.48480732423647" lon="14.358111848997398"><ele>647.0</ele><time>2026-04-29T13:51:24.001Z</time></trkpt><trkpt lat="37.48467992862424" lon="14.358099523860723"><ele>647.0</ele><time>2026-04-29T13:51:25.001Z</time></trkpt><trkpt lat="37.48454605485067" lon="14.358078865631523"><ele>649.3333333333333</ele><time>2026-04-29T13:51:26.001Z</time></trkpt><trkpt lat="37.4843997968673" lon="14.358053434277375"><ele>651.6666666666666</ele><time>2026-04-29T13:51:27.001Z</time></trkpt><trkpt lat="37.48423878122683" lon="14.358024107601901"><ele>654.0</ele><time>2026-04-29T13:51:28.001Z</time></trkpt><trkpt lat="37.48407098046079" lon="14.357996711737867"><ele>655.0</ele><time>2026-04-29T13:51:29.001Z</time></trkpt><trkpt lat="37.48391443362928" lon="14.35797267468535"><ele>656.0</ele><time>2026-04-29T13:51:30.001Z</time></trkpt><trkpt lat="37.48378057586685" lon="14.357943475842468"><ele>657.0</ele><time>2026-04-29T13:51:31.001Z</time></trkpt><trkpt lat="37.4836524878834" lon="14.357925180376583"><ele>658.0</ele><time>2026-04-29T13:51:32.001Z</time></trkpt><trkpt lat="37.48352413962223" lon="14.357908636737468"><ele>660.0</ele><time>2026-04-29T13:51:33.001Z</time></trkpt><trkpt lat="37.48339253977483" lon="14.357890763379157"><ele>662.0</ele><time>2026-04-29T13:51:34.001Z</time></trkpt><trkpt lat="37.483244934881704" lon="14.357873703701157"><ele>664.0</ele><time>2026-04-29T13:51:35.001Z</time></trkpt><trkpt lat="37.4830949109757" lon="14.357856887453028"><ele>666.0</ele><time>2026-04-29T13:51:36.001Z</time></trkpt><trkpt lat="37.48295314472844" lon="14.357835609064765"><ele>668.3333333333334</ele><time>2026-04-29T13:51:37.001Z</time></trkpt><trkpt lat="37.48280486614285" lon="14.357768673070973"><ele>670.6666666666667</ele><time>2026-04-29T13:51:38.001Z</time></trkpt><trkpt lat="37.48265090984737" lon="14.357756123446444"><ele>673.0</ele><time>2026-04-29T13:51:39.001Z</time></trkpt><trkpt lat="37.48250261428587" lon="14.357741218811602"><ele>673.0</ele><time>2026-04-29T13:51:40.001Z</time></trkpt><trkpt lat="37.48235716558609" lon="14.357723026409762"><ele>673.0</ele><time>2026-04-29T13:51:41.001Z</time></trkpt><trkpt lat="37.482210678965224" lon="14.357702093558112"><ele>673.0</ele><time>2026-04-29T13:51:42.001Z</time></trkpt><trkpt lat="37.482066743742635" lon="14.35768036259984"><ele>673.0</ele><time>2026-04-29T13:51:43.001Z</time></trkpt><trkpt lat="37.48194484140987" lon="14.357660142409031"><ele>675.5999999999999</ele><time>2026-04-29T13:51:44.001Z</time></trkpt><trkpt lat="37.48186236490459" lon="14.357642872383108"><ele>678.1999999999999</ele><time>2026-04-29T13:51:45.001Z</time></trkpt><trkpt lat="37.48176409372887" lon="14.357598890068004"><ele>680.8</ele><time>2026-04-29T13:51:47.001Z</time></trkpt><trkpt lat="37.481712042531555" lon="14.357492733397288"><ele>683.4</ele><time>2026-04-29T13:51:49.001Z</time></trkpt><trkpt lat="37.48172942967316" lon="14.357388581034657"><ele>686.0</ele><time>2026-04-29T13:51:50.001Z</time></trkpt><trkpt lat="37.48175374096" lon="14.357252971090006"><ele>687.0</ele><time>2026-04-29T13:51:51.001Z</time></trkpt><trkpt lat="37.481771788558945" lon="14.357096485020241"><ele>688.0</ele><time>2026-04-29T13:51:52.001Z</time></trkpt><trkpt lat="37.48178473061922" lon="14.356948515809576"><ele>689.0</ele><time>2026-04-29T13:51:53.001Z</time></trkpt><trkpt lat="37.48179562651928" lon="14.356826020236442"><ele>690.0</ele><time>2026-04-29T13:51:54.001Z</time></trkpt><trkpt lat="37.481803645246124" lon="14.35672920319167"><ele>691.0</ele><time>2026-04-29T13:51:55.001Z</time></trkpt><trkpt lat="37.48179569834552" lon="14.356641884760885"><ele>691.0</ele><time>2026-04-29T13:51:56.001Z</time></trkpt><trkpt lat="37.48176023968436" lon="14.356558542552799"><ele>691.0</ele><time>2026-04-29T13:51:57.001Z</time></trkpt><trkpt lat="37.48169902512348" lon="14.356481783466716"><ele>691.0</ele><time>2026-04-29T13:51:58.001Z</time></trkpt><trkpt lat="37.48163834760192" lon="14.356382428262467"><ele>691.0</ele><time>2026-04-29T13:51:59.001Z</time></trkpt><trkpt lat="37.48156647938094" lon="14.356283445292247"><ele>691.0</ele><time>2026-04-29T13:52:00.001Z</time></trkpt><trkpt lat="37.48150860669858" lon="14.356189636192356"><ele>691.0</ele><time>2026-04-29T13:52:01.001Z</time></trkpt><trkpt lat="37.481461385845" lon="14.356081376357285"><ele>691.0</ele><time>2026-04-29T13:52:02.001Z</time></trkpt><trkpt lat="37.4814168911297" lon="14.355961541703119"><ele>691.0</ele><time>2026-04-29T13:52:03.001Z</time></trkpt><trkpt lat="37.48138513464647" lon="14.355866784889342"><ele>691.0</ele><time>2026-04-29T13:52:04.001Z</time></trkpt><trkpt lat="37.48136621634957" lon="14.355786420681273"><ele>691.0</ele><time>2026-04-29T13:52:06.001Z</time></trkpt><trkpt lat="37.481278168025135" lon="14.355722660493"><ele>695.8</ele><time>2026-04-29T13:52:08.001Z</time></trkpt><trkpt lat="37.48121271193357" lon="14.355825136189603"><ele>700.5999999999999</ele><time>2026-04-29T13:52:09.001Z</time></trkpt><trkpt lat="37.48121517436285" lon="14.355940701027611"><ele>705.4</ele><time>2026-04-29T13:52:10.001Z</time></trkpt><trkpt lat="37.48119995970441" lon="14.356049449122722"><ele>710.2</ele><time>2026-04-29T13:52:11.001Z</time></trkpt><trkpt lat="37.48119067428798" lon="14.356168278731154"><ele>715.0</ele><time>2026-04-29T13:52:12.001Z</time></trkpt><trkpt lat="37.481186056574856" lon="14.356293197798838"><ele>714.6</ele><time>2026-04-29T13:52:13.001Z</time></trkpt><trkpt lat="37.48119145072188" lon="14.35642372923186"><ele>714.2</ele><time>2026-04-29T13:52:14.001Z</time></trkpt><trkpt lat="37.48121968999602" lon="14.35654173273017"><ele>713.8</ele><time>2026-04-29T13:52:15.001Z</time></trkpt><trkpt lat="37.48124965690045" lon="14.356632116742476"><ele>713.4</ele><time>2026-04-29T13:52:16.001Z</time></trkpt><trkpt lat="37.48120559267732" lon="14.356724908277647"><ele>713.0</ele><time>2026-04-29T13:52:19.001Z</time></trkpt><trkpt lat="37.481075747699485" lon="14.356721559538792"><ele>713.0</ele><time>2026-04-29T13:52:22.001Z</time></trkpt><trkpt lat="37.48094286587978" lon="14.356702495425534"><ele>713.0</ele><time>2026-04-29T13:52:24.001Z</time></trkpt><trkpt lat="37.48085654597874" lon="14.356717600495733"><ele>713.0</ele><time>2026-04-29T13:52:25.001Z</time></trkpt><trkpt lat="37.48077500704451" lon="14.356683181986483"><ele>713.0</ele><time>2026-04-29T13:52:26.001Z</time></trkpt><trkpt lat="37.4806915571795" lon="14.356638637185943"><ele>713.0</ele><time>2026-04-29T13:52:27.001Z</time></trkpt><trkpt lat="37.48058794434837" lon="14.356594221376685"><ele>713.0</ele><time>2026-04-29T13:52:28.001Z</time></trkpt><trkpt lat="37.48052337231216" lon="14.356548751307427"><ele>713.0</ele><time>2026-04-29T13:52:29.001Z</time></trkpt><trkpt lat="37.480468295720165" lon="14.356499861758177"><ele>713.0</ele><time>2026-04-29T13:52:30.001Z</time></trkpt><trkpt lat="37.480401123598746" lon="14.356433663998487"><ele>713.0</ele><time>2026-04-29T13:52:31.001Z</time></trkpt><trkpt lat="37.48035112036275" lon="14.356366841976834"><ele>713.0</ele><time>2026-04-29T13:52:32.001Z</time></trkpt><trkpt lat="37.48032108890922" lon="14.356296715976265"><ele>713.0</ele><time>2026-04-29T13:52:33.001Z</time></trkpt><trkpt lat="37.480312590241695" lon="14.356217307244748"><ele>713.0</ele><time>2026-04-29T13:52:34.001Z</time></trkpt><trkpt lat="37.480305803626315" lon="14.356124397133623"><ele>716.8</ele><time>2026-04-29T13:52:35.001Z</time></trkpt><trkpt lat="37.48028837213871" lon="14.356025377944182"><ele>720.5999999999999</ele><time>2026-04-29T13:52:36.001Z</time></trkpt><trkpt lat="37.48025929918426" lon="14.355922413224015"><ele>724.4000000000001</ele><time>2026-04-29T13:52:37.001Z</time></trkpt><trkpt lat="37.48022739278976" lon="14.355811022716875"><ele>728.2</ele><time>2026-04-29T13:52:38.001Z</time></trkpt><trkpt lat="37.48020301814489" lon="14.35568865256508"><ele>732.0</ele><time>2026-04-29T13:52:39.001Z</time></trkpt><trkpt lat="37.480187926954095" lon="14.35556307260304"><ele>735.5</ele><time>2026-04-29T13:52:40.001Z</time></trkpt><trkpt lat="37.48017429840188" lon="14.355428339910839"><ele>739.0</ele><time>2026-04-29T13:52:41.001Z</time></trkpt><trkpt lat="37.48014731511074" lon="14.355283694901063"><ele>742.5</ele><time>2026-04-29T13:52:42.001Z</time></trkpt><trkpt lat="37.48011489016112" lon="14.35512102013791"><ele>746.0</ele><time>2026-04-29T13:52:43.001Z</time></trkpt><trkpt lat="37.480081308126834" lon="14.354967077172343"><ele>746.0</ele><time>2026-04-29T13:52:44.001Z</time></trkpt><trkpt lat="37.48005138195457" lon="14.354839412546516"><ele>746.0</ele><time>2026-04-29T13:52:45.001Z</time></trkpt><trkpt lat="37.48002805744739" lon="14.354726014013666"><ele>746.0</ele><time>2026-04-29T13:52:46.001Z</time></trkpt><trkpt lat="37.4800005598597" lon="14.35461495422645"><ele>746.0</ele><time>2026-04-29T13:52:47.001Z</time></trkpt><trkpt lat="37.47998303287778" lon="14.354514763238127"><ele>746.0</ele><time>2026-04-29T13:52:48.001Z</time></trkpt><trkpt lat="37.479972779605234" lon="14.354421663016964"><ele>746.0</ele><time>2026-04-29T13:52:49.001Z</time></trkpt><trkpt lat="37.47997691549413" lon="14.3543204051286"><ele>747.5999999999999</ele><time>2026-04-29T13:52:50.001Z</time></trkpt><trkpt lat="37.47999668788046" lon="14.354205989787447"><ele>749.2</ele><time>2026-04-29T13:52:51.001Z</time></trkpt><trkpt lat="37.48003023221938" lon="14.354088244736623"><ele>750.8</ele><time>2026-04-29T13:52:52.001Z</time></trkpt><trkpt lat="37.480062141952146" lon="14.353971698840835"><ele>752.4000000000001</ele><time>2026-04-29T13:52:53.001Z</time></trkpt><trkpt lat="37.48008808643697" lon="14.353889442155891"><ele>754.0</ele><time>2026-04-29T13:52:54.001Z</time></trkpt><trkpt lat="37.480108858831656" lon="14.353780016321874"><ele>754.0</ele><time>2026-04-29T13:52:56.001Z</time></trkpt><trkpt lat="37.48020281079588" lon="14.353725092860747"><ele>754.0</ele><time>2026-04-29T13:54:06Z</time></trkpt><trkpt lat="37.48012998047543" lon="14.353754643499222"><ele>754.0</ele><time>2026-04-29T13:54:48Z</time></trkpt><trkpt lat="37.47999633426413" lon="14.35386179538804"><ele>754.0</ele><time>2026-04-29T13:56:20.998Z</time></trkpt><trkpt lat="37.47994816351231" lon="14.353924496473148"><ele>754.0</ele><time>2026-04-29T13:56:21.998Z</time></trkpt><trkpt lat="37.47987902703249" lon="14.354020002164711"><ele>754.0</ele><time>2026-04-29T13:56:23.998Z</time></trkpt><trkpt lat="37.479825601860256" lon="14.35408400381067"><ele>754.0</ele><time>2026-04-29T13:56:26.999Z</time></trkpt><trkpt lat="37.47993459091658" lon="14.353937217503955"><ele>754.0</ele><time>2026-04-29T13:56:48.999Z</time></trkpt><trkpt lat="37.48000459560247" lon="14.353834434068045"><ele>754.0</ele><time>2026-04-29T13:56:50.999Z</time></trkpt><trkpt lat="37.480075660267005" lon="14.35372661361844"><ele>754.0</ele><time>2026-04-29T13:56:52.999Z</time></trkpt><trkpt lat="37.48013509879112" lon="14.353603083966846"><ele>754.0</ele><time>2026-04-29T13:56:54.999Z</time></trkpt><trkpt lat="37.48018823713788" lon="14.35350889974506"><ele>754.0</ele><time>2026-04-29T13:56:56.999Z</time></trkpt><trkpt lat="37.480212580413074" lon="14.35343345540418"><ele>754.0</ele><time>2026-04-29T13:56:57.999Z</time></trkpt><trkpt lat="37.4802302065531" lon="14.353352258644644"><ele>754.0</ele><time>2026-04-29T13:56:58.999Z</time></trkpt><trkpt lat="37.480244492445514" lon="14.353262070813242"><ele>754.0</ele><time>2026-04-29T13:56:59.999Z</time></trkpt><trkpt lat="37.48025691881053" lon="14.353172563705513"><ele>754.0</ele><time>2026-04-29T13:57:00.999Z</time></trkpt><trkpt lat="37.48027199087149" lon="14.35307832831172"><ele>754.0</ele><time>2026-04-29T13:57:01.999Z</time></trkpt><trkpt lat="37.48028381609197" lon="14.352985827481389"><ele>754.0</ele><time>2026-04-29T13:57:02.999Z</time></trkpt><trkpt lat="37.480298330200725" lon="14.352897523520213"><ele>754.0</ele><time>2026-04-29T13:57:03.999Z</time></trkpt><trkpt lat="37.48031810246576" lon="14.35281085415464"><ele>754.0</ele><time>2026-04-29T13:57:04.999Z</time></trkpt><trkpt lat="37.480345612669716" lon="14.352712234240347"><ele>754.0</ele><time>2026-04-29T13:57:05.999Z</time></trkpt><trkpt lat="37.48037189045306" lon="14.352604010481985"><ele>752.1666666666667</ele><time>2026-04-29T13:57:06.999Z</time></trkpt><trkpt lat="37.48038662721921" lon="14.352497540874731"><ele>750.3333333333334</ele><time>2026-04-29T13:57:07.999Z</time></trkpt><trkpt lat="37.480398221927295" lon="14.352406735494185"><ele>748.5</ele><time>2026-04-29T13:57:08.999Z</time></trkpt><trkpt lat="37.48041861333224" lon="14.352282895644686"><ele>746.6666666666666</ele><time>2026-04-29T13:57:10.999Z</time></trkpt><trkpt lat="37.480413004640084" lon="14.352187997719051"><ele>744.8333333333333</ele><time>2026-04-29T13:57:12.999Z</time></trkpt><trkpt lat="37.480382324793446" lon="14.352055863907028"><ele>743.0</ele><time>2026-04-29T13:57:15Z</time></trkpt><trkpt lat="37.480357178943045" lon="14.351916421716528"><ele>740.5</ele><time>2026-04-29T13:57:17Z</time></trkpt><trkpt lat="37.480342695766694" lon="14.351831502923392"><ele>738.0</ele><time>2026-04-29T13:57:18Z</time></trkpt><trkpt lat="37.48033011555769" lon="14.351752535025627"><ele>735.5</ele><time>2026-04-29T13:57:19Z</time></trkpt><trkpt lat="37.48031287812303" lon="14.351608968570638"><ele>733.0</ele><time>2026-04-29T13:57:21Z</time></trkpt><trkpt lat="37.48030364895764" lon="14.351529114486246"><ele>730.5</ele><time>2026-04-29T13:57:22Z</time></trkpt><trkpt lat="37.48028975892265" lon="14.35139821026991"><ele>728.0</ele><time>2026-04-29T13:57:24Z</time></trkpt><trkpt lat="37.48027547589737" lon="14.35128745090915"><ele>726.3333333333333</ele><time>2026-04-29T13:57:26Z</time></trkpt><trkpt lat="37.480263594667534" lon="14.351163705132988"><ele>724.6666666666666</ele><time>2026-04-29T13:57:28Z</time></trkpt><trkpt lat="37.48025627177885" lon="14.351040248105623"><ele>723.0</ele><time>2026-04-29T13:57:30Z</time></trkpt><trkpt lat="37.48024631579769" lon="14.350928645152122"><ele>721.3333333333334</ele><time>2026-04-29T13:57:32Z</time></trkpt><trkpt lat="37.48023679675571" lon="14.35084400125328"><ele>719.6666666666667</ele><time>2026-04-29T13:57:34Z</time></trkpt><trkpt lat="37.480231149824625" lon="14.350736910282288"><ele>718.0</ele><time>2026-04-29T13:57:37Z</time></trkpt><trkpt lat="37.480208042247284" lon="14.350624508984726"><ele>715.8</ele><time>2026-04-29T13:57:40Z</time></trkpt><trkpt lat="37.480202291066426" lon="14.350512458225817"><ele>713.5999999999999</ele><time>2026-04-29T13:57:43Z</time></trkpt><trkpt lat="37.480180793049705" lon="14.350407511429346"><ele>711.4000000000001</ele><time>2026-04-29T13:57:46Z</time></trkpt><trkpt lat="37.48017340170745" lon="14.35032341392274"><ele>709.2</ele><time>2026-04-29T13:57:49Z</time></trkpt><trkpt lat="37.48009205446772" lon="14.350232761471757"><ele>707.0</ele><time>2026-04-29T13:59:06Z</time></trkpt><trkpt lat="37.48000264849887" lon="14.350173149286386"><ele>707.0</ele><time>2026-04-29T13:59:08Z</time></trkpt><trkpt lat="37.47992235552399" lon="14.350191047888178"><ele>707.0</ele><time>2026-04-29T13:59:20Z</time></trkpt><trkpt lat="37.47991505836442" lon="14.350270803980298"><ele>707.0</ele><time>2026-04-29T13:59:26Z</time></trkpt><trkpt lat="37.47991982710095" lon="14.350423450138008"><ele>707.0</ele><time>2026-04-29T13:59:30Z</time></trkpt><trkpt lat="37.47992475735299" lon="14.350565736146034"><ele>707.0</ele><time>2026-04-29T13:59:32Z</time></trkpt><trkpt lat="37.47992031396737" lon="14.350708381389925"><ele>708.8333333333333</ele><time>2026-04-29T13:59:34Z</time></trkpt><trkpt lat="37.47989529259967" lon="14.350847942245025"><ele>710.6666666666666</ele><time>2026-04-29T13:59:36Z</time></trkpt><trkpt lat="37.47987276188448" lon="14.35095438511707"><ele>712.5</ele><time>2026-04-29T13:59:37Z</time></trkpt><trkpt lat="37.47985410062733" lon="14.351065499206985"><ele>714.3333333333334</ele><time>2026-04-29T13:59:38.001Z</time></trkpt><trkpt lat="37.47983965692309" lon="14.351160752446303"><ele>716.1666666666667</ele><time>2026-04-29T13:59:39.001Z</time></trkpt><trkpt lat="37.47982535444636" lon="14.351260197795625"><ele>718.0</ele><time>2026-04-29T13:59:40.001Z</time></trkpt><trkpt lat="37.47980598863738" lon="14.351372950596708"><ele>719.6666666666667</ele><time>2026-04-29T13:59:41.001Z</time></trkpt><trkpt lat="37.47979556798148" lon="14.35148902617861"><ele>721.3333333333334</ele><time>2026-04-29T13:59:42.001Z</time></trkpt><trkpt lat="37.47978576521543" lon="14.351602440634121"><ele>723.0</ele><time>2026-04-29T13:59:43.001Z</time></trkpt><trkpt lat="37.47977427892331" lon="14.351707332681634"><ele>724.6666666666666</ele><time>2026-04-29T13:59:44.001Z</time></trkpt><trkpt lat="37.47975363528125" lon="14.351807211755755"><ele>726.3333333333333</ele><time>2026-04-29T13:59:45.001Z</time></trkpt><trkpt lat="37.479729029984064" lon="14.351902969347732"><ele>728.0</ele><time>2026-04-29T13:59:46.001Z</time></trkpt><trkpt lat="37.47970717467418" lon="14.351988924352383"><ele>728.0</ele><time>2026-04-29T13:59:47.001Z</time></trkpt><trkpt lat="37.47969049943998" lon="14.352071217367605"><ele>728.0</ele><time>2026-04-29T13:59:48.001Z</time></trkpt><trkpt lat="37.47967161809417" lon="14.3521592845837"><ele>728.0</ele><time>2026-04-29T13:59:49.001Z</time></trkpt><trkpt lat="37.479641196615205" lon="14.352262285384954"><ele>728.0</ele><time>2026-04-29T13:59:50.001Z</time></trkpt><trkpt lat="37.479611541865346" lon="14.352360115791376"><ele>728.0</ele><time>2026-04-29T13:59:51.001Z</time></trkpt><trkpt lat="37.479563569003865" lon="14.352478519707889"><ele>728.0</ele><time>2026-04-29T13:59:53.001Z</time></trkpt><trkpt lat="37.47944291820887" lon="14.352546500619926"><ele>729.0</ele><time>2026-04-29T13:59:55.001Z</time></trkpt><trkpt lat="37.47938703402605" lon="14.352587006335552"><ele>730.0</ele><time>2026-04-29T13:59:56.001Z</time></trkpt><trkpt lat="37.4793423715561" lon="14.352647264706931"><ele>731.0</ele><time>2026-04-29T13:59:57.001Z</time></trkpt><trkpt lat="37.47930221160882" lon="14.352714075984489"><ele>732.0</ele><time>2026-04-29T13:59:58.001Z</time></trkpt><trkpt lat="37.47925440108489" lon="14.352791771368551"><ele>733.0</ele><time>2026-04-29T13:59:59.001Z</time></trkpt><trkpt lat="37.479207124476176" lon="14.352862373087179"><ele>734.0</ele><time>2026-04-29T14:00:00.001Z</time></trkpt><trkpt lat="37.47916745185851" lon="14.352924277737133"><ele>735.0</ele><time>2026-04-29T14:00:01.001Z</time></trkpt><trkpt lat="37.47908119038995" lon="14.353040477165958"><ele>737.4</ele><time>2026-04-29T14:00:03.001Z</time></trkpt><trkpt lat="37.47899631784237" lon="14.353153833405734"><ele>739.8</ele><time>2026-04-29T14:00:05.001Z</time></trkpt><trkpt lat="37.478926190524966" lon="14.35324445001753"><ele>742.2</ele><time>2026-04-29T14:00:07.001Z</time></trkpt><trkpt lat="37.47882655087178" lon="14.3533472091845"><ele>744.6</ele><time>2026-04-29T14:00:09.001Z</time></trkpt><trkpt lat="37.47877209315386" lon="14.353389886244761"><ele>747.0</ele><time>2026-04-29T14:00:10.001Z</time></trkpt><trkpt lat="37.4787045602406" lon="14.35346511814267"><ele>747.0</ele><time>2026-04-29T14:00:12.001Z</time></trkpt><trkpt lat="37.47868417096624" lon="14.353571351797747"><ele>747.0</ele><time>2026-04-29T14:00:14.001Z</time></trkpt><trkpt lat="37.47870096822305" lon="14.353689529732454"><ele>747.0</ele><time>2026-04-29T14:00:16.001Z</time></trkpt><trkpt lat="37.47871433728568" lon="14.353781565828129"><ele>747.0</ele><time>2026-04-29T14:00:19Z</time></trkpt><trkpt lat="37.4786879961806" lon="14.353864836968842"><ele>747.0</ele><time>2026-04-29T14:00:21Z</time></trkpt><trkpt lat="37.47866336089883" lon="14.353958108312947"><ele>747.0</ele><time>2026-04-29T14:00:27Z</time></trkpt><trkpt lat="37.4786405559329" lon="14.354087866515675"><ele>749.8</ele><time>2026-04-29T14:00:32Z</time></trkpt><trkpt lat="37.478601512951066" lon="14.354236822521642"><ele>752.6</ele><time>2026-04-29T14:00:34Z</time></trkpt><trkpt lat="37.47857549051262" lon="14.354315426485261"><ele>755.4</ele><time>2026-04-29T14:00:35Z</time></trkpt><trkpt lat="37.47855717154745" lon="14.354428330624176"><ele>758.1999999999999</ele><time>2026-04-29T14:00:37Z</time></trkpt><trkpt lat="37.47845805171895" lon="14.354416968976533"><ele>761.0</ele><time>2026-04-29T14:00:56.001Z</time></trkpt><trkpt lat="37.478442090385066" lon="14.354539679905962"><ele>761.0</ele><time>2026-04-29T14:00:57.001Z</time></trkpt><trkpt lat="37.47833470679112" lon="14.354556103490129"><ele>761.0</ele><time>2026-04-29T14:00:59.001Z</time></trkpt><trkpt lat="37.478345568990854" lon="14.35465833029056"><ele>761.0</ele><time>2026-04-29T14:01:00.001Z</time></trkpt><trkpt lat="37.47828734358525" lon="14.354710345703097"><ele>761.0</ele><time>2026-04-29T14:01:01.001Z</time></trkpt><trkpt lat="37.47838131409597" lon="14.35477789601403"><ele>761.0</ele><time>2026-04-29T14:01:02.001Z</time></trkpt><trkpt lat="37.47834210260104" lon="14.354856111057241"><ele>761.0</ele><time>2026-04-29T14:01:04.001Z</time></trkpt><trkpt lat="37.47810267639112" lon="14.354651587187531"><ele>760.9999999999999</ele><time>2026-04-29T14:01:05.001Z</time></trkpt><trkpt lat="37.47803479215935" lon="14.354686365005865"><ele>761.0</ele><time>2026-04-29T14:01:09.001Z</time></trkpt><trkpt lat="37.477941855483145" lon="14.354693719463734"><ele>761.0</ele><time>2026-04-29T14:01:38.001Z</time></trkpt><trkpt lat="37.47786430624651" lon="14.354690499722011"><ele>761.0</ele><time>2026-04-29T14:01:40.001Z</time></trkpt><trkpt lat="37.47780198130937" lon="14.354716097513537"><ele>761.0</ele><time>2026-04-29T14:01:50.001Z</time></trkpt><trkpt lat="37.477738390343205" lon="14.354700822425944"><ele>760.9999999999999</ele><time>2026-04-29T14:02:00.001Z</time></trkpt><trkpt lat="37.4776715211383" lon="14.354657403693652"><ele>761.0</ele><time>2026-04-29T14:02:02.001Z</time></trkpt><trkpt lat="37.47759110430783" lon="14.354685363737017"><ele>763.3333333333333</ele><time>2026-04-29T14:02:05.001Z</time></trkpt><trkpt lat="37.47756805180824" lon="14.354806646386628"><ele>765.6666666666666</ele><time>2026-04-29T14:02:08.001Z</time></trkpt><trkpt lat="37.47760795545473" lon="14.35491592736152"><ele>768.0</ele><time>2026-04-29T14:02:10.001Z</time></trkpt><trkpt lat="37.47765189877064" lon="14.35499806193355"><ele>770.3333333333333</ele><time>2026-04-29T14:02:12.001Z</time></trkpt><trkpt lat="37.47762831402432" lon="14.355084519454332"><ele>772.6666666666666</ele><time>2026-04-29T14:02:49.001Z</time></trkpt><trkpt lat="37.47759651749382" lon="14.355164354412393"><ele>775.0</ele><time>2026-04-29T14:02:51.001Z</time></trkpt><trkpt lat="37.47759351424181" lon="14.355259059828178"><ele>775.0</ele><time>2026-04-29T14:02:53.001Z</time></trkpt><trkpt lat="37.47755249501671" lon="14.35534921056704"><ele>775.0</ele><time>2026-04-29T14:03:12.001Z</time></trkpt><trkpt lat="37.47746279697201" lon="14.355401155311176"><ele>775.0</ele><time>2026-04-29T14:03:15.001Z</time></trkpt><trkpt lat="37.47737985023275" lon="14.355507241495518"><ele>775.0</ele><time>2026-04-29T14:03:17.001Z</time></trkpt><trkpt lat="37.477321061537026" lon="14.355607763977064"><ele>775.0</ele><time>2026-04-29T14:03:19.001Z</time></trkpt><trkpt lat="37.477277475236946" lon="14.355683496149194"><ele>775.0</ele><time>2026-04-29T14:03:21.001Z</time></trkpt><trkpt lat="37.47722215402797" lon="14.355764946115285"><ele>775.0</ele><time>2026-04-29T14:03:23.001Z</time></trkpt><trkpt lat="37.47714042661942" lon="14.35589609380958"><ele>775.0</ele><time>2026-04-29T14:03:25.001Z</time></trkpt><trkpt lat="37.47708769175941" lon="14.355986409368677"><ele>775.0</ele><time>2026-04-29T14:03:26.001Z</time></trkpt><trkpt lat="37.47703597542087" lon="14.356088400390144"><ele>775.0</ele><time>2026-04-29T14:03:27.001Z</time></trkpt><trkpt lat="37.47698560515642" lon="14.356197925259053"><ele>778.2</ele><time>2026-04-29T14:03:28.001Z</time></trkpt><trkpt lat="37.476931219160306" lon="14.356307160103722"><ele>781.4</ele><time>2026-04-29T14:03:29.001Z</time></trkpt><trkpt lat="37.47687206335933" lon="14.356409436276087"><ele>784.5999999999999</ele><time>2026-04-29T14:03:30.001Z</time></trkpt><trkpt lat="37.4768129408574" lon="14.356510368266708"><ele>787.8</ele><time>2026-04-29T14:03:31.001Z</time></trkpt><trkpt lat="37.47675417252977" lon="14.35660445170602"><ele>791.0</ele><time>2026-04-29T14:03:32.001Z</time></trkpt><trkpt lat="37.47668113536094" lon="14.356703822066201"><ele>791.0</ele><time>2026-04-29T14:03:33.001Z</time></trkpt><trkpt lat="37.4766062718913" lon="14.356805209283317"><ele>791.0</ele><time>2026-04-29T14:03:34.001Z</time></trkpt><trkpt lat="37.476536535140816" lon="14.35690740247037"><ele>791.0</ele><time>2026-04-29T14:03:35.001Z</time></trkpt><trkpt lat="37.47647017986674" lon="14.357008560478302"><ele>791.0</ele><time>2026-04-29T14:03:36.001Z</time></trkpt><trkpt lat="37.47640324585648" lon="14.357112089361049"><ele>791.0</ele><time>2026-04-29T14:03:37.001Z</time></trkpt><trkpt lat="37.47633632228533" lon="14.3572130199073"><ele>790.0</ele><time>2026-04-29T14:03:38.001Z</time></trkpt><trkpt lat="37.4762714807447" lon="14.357311353132015"><ele>789.0</ele><time>2026-04-29T14:03:39.001Z</time></trkpt><trkpt lat="37.4762047356661" lon="14.357411038099059"><ele>788.0</ele><time>2026-04-29T14:03:40.001Z</time></trkpt><trkpt lat="37.47613935445811" lon="14.357503090447088"><ele>787.0</ele><time>2026-04-29T14:03:41.001Z</time></trkpt><trkpt lat="37.47607858117445" lon="14.357589502247379"><ele>786.0</ele><time>2026-04-29T14:03:42.001Z</time></trkpt><trkpt lat="37.47603742714291" lon="14.357670521612963"><ele>788.5</ele><time>2026-04-29T14:03:43.001Z</time></trkpt><trkpt lat="37.476007269729955" lon="14.357773497081743"><ele>791.0</ele><time>2026-04-29T14:03:44.001Z</time></trkpt><trkpt lat="37.4759943170024" lon="14.357877519796782"><ele>793.5</ele><time>2026-04-29T14:03:45.001Z</time></trkpt><trkpt lat="37.47597053444576" lon="14.35796360842873"><ele>796.0</ele><time>2026-04-29T14:03:46.001Z</time></trkpt><trkpt lat="37.47594116845535" lon="14.358056152382336"><ele>798.5</ele><time>2026-04-29T14:03:47.001Z</time></trkpt><trkpt lat="37.47590822644228" lon="14.358158562508049"><ele>801.0</ele><time>2026-04-29T14:03:48.001Z</time></trkpt><trkpt lat="37.475871114073385" lon="14.35827860657354"><ele>801.0</ele><time>2026-04-29T14:03:49.001Z</time></trkpt><trkpt lat="37.47583826266784" lon="14.358401090568767"><ele>801.0</ele><time>2026-04-29T14:03:50.001Z</time></trkpt><trkpt lat="37.475804906371046" lon="14.358528060695772"><ele>801.0</ele><time>2026-04-29T14:03:51.001Z</time></trkpt><trkpt lat="37.475765407281095" lon="14.358670867915285"><ele>801.0</ele><time>2026-04-29T14:03:52.001Z</time></trkpt><trkpt lat="37.4757359959723" lon="14.358810084356232"><ele>801.0</ele><time>2026-04-29T14:03:53.001Z</time></trkpt><trkpt lat="37.47571203639398" lon="14.358932336387923"><ele>801.25</ele><time>2026-04-29T14:03:54.001Z</time></trkpt><trkpt lat="37.475678846961586" lon="14.359051687828845"><ele>801.5</ele><time>2026-04-29T14:03:55.001Z</time></trkpt><trkpt lat="37.47563300693383" lon="14.359183128724895"><ele>801.75</ele><time>2026-04-29T14:03:56.001Z</time></trkpt><trkpt lat="37.475581794892435" lon="14.359342898838703"><ele>802.0</ele><time>2026-04-29T14:03:57.001Z</time></trkpt><trkpt lat="37.47552932117172" lon="14.359497875380105"><ele>802.0</ele><time>2026-04-29T14:03:58.001Z</time></trkpt><trkpt lat="37.47547983676044" lon="14.359644950798657"><ele>802.0</ele><time>2026-04-29T14:03:59.001Z</time></trkpt><trkpt lat="37.47543091982591" lon="14.359789733949308"><ele>802.0</ele><time>2026-04-29T14:04:00.001Z</time></trkpt><trkpt lat="37.475377347639004" lon="14.359932603300333"><ele>802.0</ele><time>2026-04-29T14:04:01.001Z</time></trkpt><trkpt lat="37.47532058626454" lon="14.360075043789248"><ele>803.75</ele><time>2026-04-29T14:04:02.001Z</time></trkpt><trkpt lat="37.47526307171099" lon="14.360218066934424"><ele>805.5</ele><time>2026-04-29T14:04:03.001Z</time></trkpt><trkpt lat="37.47520917119408" lon="14.360355252497088"><ele>807.25</ele><time>2026-04-29T14:04:04.001Z</time></trkpt><trkpt lat="37.47516038583951" lon="14.36048492093566"><ele>809.0</ele><time>2026-04-29T14:04:05.001Z</time></trkpt><trkpt lat="37.475115164791376" lon="14.360613286680824"><ele>809.25</ele><time>2026-04-29T14:04:06.001Z</time></trkpt><trkpt lat="37.4750695621159" lon="14.360741783346809"><ele>809.5</ele><time>2026-04-29T14:04:07.001Z</time></trkpt><trkpt lat="37.47501646038745" lon="14.360873592684255"><ele>809.75</ele><time>2026-04-29T14:04:08.001Z</time></trkpt><trkpt lat="37.47495771239002" lon="14.36100188497977"><ele>810.0</ele><time>2026-04-29T14:04:09.001Z</time></trkpt><trkpt lat="37.474907601023915" lon="14.361138615760392"><ele>810.0</ele><time>2026-04-29T14:04:10.001Z</time></trkpt><trkpt lat="37.47486847075857" lon="14.361257846247483"><ele>810.0</ele><time>2026-04-29T14:04:11.001Z</time></trkpt><trkpt lat="37.47483195275984" lon="14.361365429286298"><ele>810.0</ele><time>2026-04-29T14:04:12.001Z</time></trkpt><trkpt lat="37.47479655147644" lon="14.361462894329149"><ele>810.0</ele><time>2026-04-29T14:04:13.002Z</time></trkpt><trkpt lat="37.47476529827892" lon="14.361551171482501"><ele>810.0</ele><time>2026-04-29T14:04:14.002Z</time></trkpt><trkpt lat="37.474732619967625" lon="14.36163397392057"><ele>810.0</ele><time>2026-04-29T14:04:15.002Z</time></trkpt><trkpt lat="37.47466398985813" lon="14.361733063427657"><ele>809.6</ele><time>2026-04-29T14:04:17.002Z</time></trkpt><trkpt lat="37.474592059654334" lon="14.361749461756625"><ele>809.2</ele><time>2026-04-29T14:04:18.002Z</time></trkpt><trkpt lat="37.4744878576943" lon="14.361773921011308"><ele>808.8</ele><time>2026-04-29T14:04:19.002Z</time></trkpt><trkpt lat="37.47438325019928" lon="14.361810181527886"><ele>808.4</ele><time>2026-04-29T14:04:20.002Z</time></trkpt><trkpt lat="37.4742904779405" lon="14.36185343490383"><ele>808.0</ele><time>2026-04-29T14:04:21.002Z</time></trkpt><trkpt lat="37.47422538033283" lon="14.361893555302535"><ele>807.9999999999999</ele><time>2026-04-29T14:04:22.002Z</time></trkpt><trkpt lat="37.474121413048834" lon="14.36200714696026"><ele>808.0</ele><time>2026-04-29T14:04:24.002Z</time></trkpt><trkpt lat="37.474065994293944" lon="14.362067882643903"><ele>808.0</ele><time>2026-04-29T14:04:25.002Z</time></trkpt><trkpt lat="37.474015781882684" lon="14.362123827349015"><ele>808.0</ele><time>2026-04-29T14:04:26.002Z</time></trkpt><trkpt lat="37.47395595008754" lon="14.362183288301809"><ele>807.9999999999999</ele><time>2026-04-29T14:04:27.002Z</time></trkpt><trkpt lat="37.47389820455601" lon="14.362254655960038"><ele>808.0</ele><time>2026-04-29T14:04:28.002Z</time></trkpt><trkpt lat="37.4738409692833" lon="14.362319947328254"><ele>808.5999999999999</ele><time>2026-04-29T14:04:29.002Z</time></trkpt><trkpt lat="37.47378036577888" lon="14.362343475409435"><ele>809.1999999999999</ele><time>2026-04-29T14:04:30.001Z</time></trkpt><trkpt lat="37.47366166945325" lon="14.362348670361131"><ele>809.8</ele><time>2026-04-29T14:04:32.001Z</time></trkpt><trkpt lat="37.47359994266434" lon="14.362371361590114"><ele>810.4</ele><time>2026-04-29T14:04:33.001Z</time></trkpt><trkpt lat="37.47350372904731" lon="14.362418294730983"><ele>811.0</ele><time>2026-04-29T14:04:35.001Z</time></trkpt><trkpt lat="37.47347735617938" lon="14.362541208846592"><ele>810.9999999999999</ele><time>2026-04-29T14:04:38.001Z</time></trkpt><trkpt lat="37.47350040616747" lon="14.362665811711677"><ele>811.0</ele><time>2026-04-29T14:04:40.001Z</time></trkpt><trkpt lat="37.47350228215476" lon="14.36279747088669"><ele>811.0</ele><time>2026-04-29T14:04:42.001Z</time></trkpt><trkpt lat="37.47348500514897" lon="14.362878649395025"><ele>811.0</ele><time>2026-04-29T14:04:43.001Z</time></trkpt><trkpt lat="37.47346374241751" lon="14.362965724567509"><ele>810.9999999999999</ele><time>2026-04-29T14:04:44.001Z</time></trkpt><trkpt lat="37.47343428021724" lon="14.363044545863637"><ele>811.0</ele><time>2026-04-29T14:04:45.001Z</time></trkpt><trkpt lat="37.473399918015005" lon="14.363171521779803"><ele>811.8333333333333</ele><time>2026-04-29T14:04:47.001Z</time></trkpt><trkpt lat="37.473380413590355" lon="14.363329188489837"><ele>812.6666666666666</ele><time>2026-04-29T14:04:49.001Z</time></trkpt><trkpt lat="37.47337959065117" lon="14.363414550016167"><ele>813.5</ele><time>2026-04-29T14:04:50.001Z</time></trkpt><trkpt lat="37.47337441518512" lon="14.363495830697392"><ele>814.3333333333333</ele><time>2026-04-29T14:04:51.001Z</time></trkpt><trkpt lat="37.47335714276157" lon="14.363580128292243"><ele>815.1666666666666</ele><time>2026-04-29T14:04:52.001Z</time></trkpt><trkpt lat="37.473342044261734" lon="14.36372697388953"><ele>816.0</ele><time>2026-04-29T14:04:54.001Z</time></trkpt><trkpt lat="37.4733017316314" lon="14.363851677610851"><ele>815.3333333333334</ele><time>2026-04-29T14:04:56.001Z</time></trkpt><trkpt lat="37.47325813860179" lon="14.363938183075232"><ele>814.6666666666667</ele><time>2026-04-29T14:04:58.001Z</time></trkpt><trkpt lat="37.47321030616061" lon="14.363990739256034"><ele>814.0</ele><time>2026-04-29T14:05:03.001Z</time></trkpt><trkpt lat="37.473140385067396" lon="14.36401811925723"><ele>813.3333333333334</ele><time>2026-04-29T14:05:05.001Z</time></trkpt><trkpt lat="37.47307554081037" lon="14.36399351838857"><ele>812.6666666666667</ele><time>2026-04-29T14:05:07.001Z</time></trkpt><trkpt lat="37.473007609173074" lon="14.363931178901808"><ele>812.0</ele><time>2026-04-29T14:05:09.001Z</time></trkpt><trkpt lat="37.47293351706757" lon="14.363886694351526"><ele>811.8333333333334</ele><time>2026-04-29T14:05:11.001Z</time></trkpt><trkpt lat="37.47285552833886" lon="14.363896994953283"><ele>811.6666666666667</ele><time>2026-04-29T14:05:14.001Z</time></trkpt><trkpt lat="37.47280976512578" lon="14.363971430341461"><ele>811.5</ele><time>2026-04-29T14:05:16.001Z</time></trkpt><trkpt lat="37.47278244030733" lon="14.364059599073851"><ele>811.3333333333333</ele><time>2026-04-29T14:05:17.001Z</time></trkpt><trkpt lat="37.472746692312235" lon="14.364162173841214"><ele>811.1666666666666</ele><time>2026-04-29T14:05:18.001Z</time></trkpt><trkpt lat="37.47270290819339" lon="14.364254732325525"><ele>811.0</ele><time>2026-04-29T14:05:19.001Z</time></trkpt><trkpt lat="37.472657266068744" lon="14.364340484191706"><ele>811.0</ele><time>2026-04-29T14:05:20.001Z</time></trkpt><trkpt lat="37.47261884298216" lon="14.364412105560778"><ele>811.0</ele><time>2026-04-29T14:05:21.001Z</time></trkpt><trkpt lat="37.472561109630455" lon="14.364543246881661"><ele>811.0</ele><time>2026-04-29T14:05:23.001Z</time></trkpt><trkpt lat="37.47252820209436" lon="14.364679806054626"><ele>811.0</ele><time>2026-04-29T14:05:25.001Z</time></trkpt><trkpt lat="37.4725082051242" lon="14.364820352783573"><ele>811.0</ele><time>2026-04-29T14:05:27.001Z</time></trkpt><trkpt lat="37.47248170354598" lon="14.364966108977631"><ele>810.5714285714286</ele><time>2026-04-29T14:05:29.001Z</time></trkpt><trkpt lat="37.472458176543405" lon="14.365045673328677"><ele>810.1428571428572</ele><time>2026-04-29T14:05:30.001Z</time></trkpt><trkpt lat="37.47243151533742" lon="14.365127414689274"><ele>809.7142857142858</ele><time>2026-04-29T14:05:31.001Z</time></trkpt><trkpt lat="37.47241340448811" lon="14.365213271036847"><ele>809.2857142857142</ele><time>2026-04-29T14:05:32.001Z</time></trkpt><trkpt lat="37.472393917031035" lon="14.365297133628928"><ele>808.8571428571429</ele><time>2026-04-29T14:05:33.001Z</time></trkpt><trkpt lat="37.47235751183416" lon="14.365374610978794"><ele>808.4285714285714</ele><time>2026-04-29T14:05:34.001Z</time></trkpt><trkpt lat="37.4722976768319" lon="14.365446311139799"><ele>808.0</ele><time>2026-04-29T14:05:35.001Z</time></trkpt><trkpt lat="37.47222459979168" lon="14.365511681847005"><ele>807.4</ele><time>2026-04-29T14:05:36.001Z</time></trkpt><trkpt lat="37.47214537870122" lon="14.365580695703711"><ele>806.8</ele><time>2026-04-29T14:05:37.001Z</time></trkpt><trkpt lat="37.47205872389333" lon="14.365657739272647"><ele>806.2</ele><time>2026-04-29T14:05:38.001Z</time></trkpt><trkpt lat="37.471986461365276" lon="14.365744436623524"><ele>805.6</ele><time>2026-04-29T14:05:39.001Z</time></trkpt><trkpt lat="37.47192679582167" lon="14.365840914336685"><ele>805.0</ele><time>2026-04-29T14:05:40.001Z</time></trkpt><trkpt lat="37.47186907304519" lon="14.365932680570038"><ele>805.0</ele><time>2026-04-29T14:05:41.001Z</time></trkpt><trkpt lat="37.471798965014834" lon="14.366007129903576"><ele>805.0</ele><time>2026-04-29T14:05:42.001Z</time></trkpt><trkpt lat="37.47170927482855" lon="14.366082886637527"><ele>805.0</ele><time>2026-04-29T14:05:43.001Z</time></trkpt><trkpt lat="37.47160401344669" lon="14.366170495962379"><ele>805.0</ele><time>2026-04-29T14:05:44.001Z</time></trkpt><trkpt lat="37.47150328720714" lon="14.366262881539619"><ele>805.0</ele><time>2026-04-29T14:05:45.001Z</time></trkpt><trkpt lat="37.47141878425129" lon="14.366351846463235"><ele>805.0</ele><time>2026-04-29T14:05:46.001Z</time></trkpt><trkpt lat="37.47134826798254" lon="14.366438837879638"><ele>805.0</ele><time>2026-04-29T14:05:47.001Z</time></trkpt><trkpt lat="37.47128521568165" lon="14.366521839256121"><ele>805.0</ele><time>2026-04-29T14:05:48.001Z</time></trkpt><trkpt lat="37.4712289345604" lon="14.366598332679413"><ele>805.0</ele><time>2026-04-29T14:05:49.001Z</time></trkpt><trkpt lat="37.47117917490082" lon="14.366675466306063"><ele>804.1666666666666</ele><time>2026-04-29T14:05:50.001Z</time></trkpt><trkpt lat="37.47114716771546" lon="14.366770257048076"><ele>803.3333333333333</ele><time>2026-04-29T14:05:51.001Z</time></trkpt><trkpt lat="37.471124906429935" lon="14.36686128061913"><ele>802.5</ele><time>2026-04-29T14:05:52.001Z</time></trkpt><trkpt lat="37.47109708120989" lon="14.36695651340047"><ele>801.6666666666667</ele><time>2026-04-29T14:05:53.001Z</time></trkpt><trkpt lat="37.47107007772184" lon="14.367063905279103"><ele>800.8333333333334</ele><time>2026-04-29T14:05:54.001Z</time></trkpt><trkpt lat="37.47105215895859" lon="14.367160385648347"><ele>800.0</ele><time>2026-04-29T14:05:55.001Z</time></trkpt><trkpt lat="37.47103558726842" lon="14.367248785583447"><ele>800.0000000000001</ele><time>2026-04-29T14:05:56.001Z</time></trkpt><trkpt lat="37.47101247358011" lon="14.367325486124459"><ele>800.0</ele><time>2026-04-29T14:05:57.001Z</time></trkpt><trkpt lat="37.47097200973508" lon="14.36739137293477"><ele>800.0</ele><time>2026-04-29T14:05:58.001Z</time></trkpt><trkpt lat="37.47090862974438" lon="14.36744440908992"><ele>800.0</ele><time>2026-04-29T14:05:59.001Z</time></trkpt><trkpt lat="37.47083219636797" lon="14.367497393674556"><ele>800.0000000000001</ele><time>2026-04-29T14:06:00.001Z</time></trkpt><trkpt lat="37.47075615772478" lon="14.367544331740943"><ele>800.0</ele><time>2026-04-29T14:06:01.001Z</time></trkpt><trkpt lat="37.47068167126942" lon="14.367575290261733"><ele>800.0000000000001</ele><time>2026-04-29T14:06:02.001Z</time></trkpt><trkpt lat="37.470602908555996" lon="14.367607179788608"><ele>800.0</ele><time>2026-04-29T14:06:03.001Z</time></trkpt><trkpt lat="37.47052689296372" lon="14.36764305126862"><ele>800.0</ele><time>2026-04-29T14:06:04.001Z</time></trkpt><trkpt lat="37.47045263465506" lon="14.367689777743532"><ele>800.0</ele><time>2026-04-29T14:06:05.001Z</time></trkpt><trkpt lat="37.47038453598899" lon="14.367739686129688"><ele>800.0000000000001</ele><time>2026-04-29T14:06:06.001Z</time></trkpt><trkpt lat="37.470322758280076" lon="14.367793261946064"><ele>800.0</ele><time>2026-04-29T14:06:07.001Z</time></trkpt><trkpt lat="37.47026254485969" lon="14.36785970256562"><ele>798.4</ele><time>2026-04-29T14:06:08.001Z</time></trkpt><trkpt lat="37.47020159466353" lon="14.367948189805933"><ele>796.8</ele><time>2026-04-29T14:06:09.001Z</time></trkpt><trkpt lat="37.47014273876382" lon="14.368053046713438"><ele>795.2</ele><time>2026-04-29T14:06:10.001Z</time></trkpt><trkpt lat="37.47007853137798" lon="14.36816514303112"><ele>793.6</ele><time>2026-04-29T14:06:11.001Z</time></trkpt><trkpt lat="37.47001646525079" lon="14.368290125649715"><ele>792.0</ele><time>2026-04-29T14:06:12.001Z</time></trkpt><trkpt lat="37.46995636995106" lon="14.368430600102316"><ele>792.0</ele><time>2026-04-29T14:06:13.001Z</time></trkpt><trkpt lat="37.469887764579646" lon="14.368583177639387"><ele>792.0</ele><time>2026-04-29T14:06:14.001Z</time></trkpt><trkpt lat="37.46981372891608" lon="14.368732156109033"><ele>792.0</ele><time>2026-04-29T14:06:15.001Z</time></trkpt><trkpt lat="37.469745960770446" lon="14.368864584040907"><ele>792.0</ele><time>2026-04-29T14:06:16.001Z</time></trkpt><trkpt lat="37.469684478186885" lon="14.36899050867583"><ele>792.6</ele><time>2026-04-29T14:06:17.001Z</time></trkpt><trkpt lat="37.469639282069515" lon="14.369117992038243"><ele>793.2</ele><time>2026-04-29T14:06:18.001Z</time></trkpt><trkpt lat="37.46960388908739" lon="14.369251385395158"><ele>793.8</ele><time>2026-04-29T14:06:19.001Z</time></trkpt><trkpt lat="37.4695734815092" lon="14.36938751659216"><ele>794.4</ele><time>2026-04-29T14:06:20.001Z</time></trkpt><trkpt lat="37.46954951969423" lon="14.369525995335374"><ele>795.0</ele><time>2026-04-29T14:06:21.001Z</time></trkpt><trkpt lat="37.46952114981508" lon="14.369663553802068"><ele>794.4</ele><time>2026-04-29T14:06:22.001Z</time></trkpt><trkpt lat="37.469494770983054" lon="14.36979546324683"><ele>793.8</ele><time>2026-04-29T14:06:23.001Z</time></trkpt><trkpt lat="37.46942686870157" lon="14.369895006508708"><ele>793.2</ele><time>2026-04-29T14:06:24.001Z</time></trkpt><trkpt lat="37.46941072486692" lon="14.370011363173235"><ele>792.6</ele><time>2026-04-29T14:06:26.001Z</time></trkpt><trkpt lat="37.4693921551661" lon="14.370100515286513"><ele>792.0</ele><time>2026-04-29T14:06:29.001Z</time></trkpt><trkpt lat="37.46925629694696" lon="14.370095846234564"><ele>792.0</ele><time>2026-04-29T14:06:30.001Z</time></trkpt><trkpt lat="37.46916165430275" lon="14.37008077386597"><ele>792.0</ele><time>2026-04-29T14:06:31.001Z</time></trkpt><trkpt lat="37.46907235298296" lon="14.370050056194184"><ele>792.0</ele><time>2026-04-29T14:06:32.001Z</time></trkpt><trkpt lat="37.46898350814156" lon="14.370028942972779"><ele>792.0</ele><time>2026-04-29T14:06:33.001Z</time></trkpt><trkpt lat="37.468905669745276" lon="14.37003866664405"><ele>792.0</ele><time>2026-04-29T14:06:34.001Z</time></trkpt><trkpt lat="37.46883283237202" lon="14.370072877310001"><ele>792.0</ele><time>2026-04-29T14:06:35.001Z</time></trkpt><trkpt lat="37.468753176822624" lon="14.370130187425227"><ele>793.0</ele><time>2026-04-29T14:06:36.001Z</time></trkpt><trkpt lat="37.46867182689751" lon="14.370200857893469"><ele>794.0</ele><time>2026-04-29T14:06:37.001Z</time></trkpt><trkpt lat="37.468600907083214" lon="14.370261718922066"><ele>795.0</ele><time>2026-04-29T14:06:38.001Z</time></trkpt><trkpt lat="37.468535050372964" lon="14.370288271597037"><ele>796.0</ele><time>2026-04-29T14:06:39.001Z</time></trkpt><trkpt lat="37.46845451818308" lon="14.370286193596545"><ele>797.0</ele><time>2026-04-29T14:06:40.001Z</time></trkpt><trkpt lat="37.46834814667661" lon="14.370266286708143"><ele>798.0</ele><time>2026-04-29T14:06:41.001Z</time></trkpt><trkpt lat="37.468252807207044" lon="14.370240374139188"><ele>798.0</ele><time>2026-04-29T14:06:42.001Z</time></trkpt><trkpt lat="37.468155392333784" lon="14.370202021058484"><ele>798.0</ele><time>2026-04-29T14:06:43.001Z</time></trkpt><trkpt lat="37.4680627534228" lon="14.370158831883305"><ele>798.0</ele><time>2026-04-29T14:06:44.001Z</time></trkpt><trkpt lat="37.467978477046934" lon="14.37012762373848"><ele>798.0</ele><time>2026-04-29T14:06:45.001Z</time></trkpt><trkpt lat="37.467895033943364" lon="14.370108490992557"><ele>798.0</ele><time>2026-04-29T14:06:46.001Z</time></trkpt><trkpt lat="37.46780019607786" lon="14.370087080391293"><ele>798.6666666666666</ele><time>2026-04-29T14:06:47.001Z</time></trkpt><trkpt lat="37.467702684372576" lon="14.370069828055051"><ele>799.3333333333333</ele><time>2026-04-29T14:06:48.001Z</time></trkpt><trkpt lat="37.46761490260174" lon="14.37005043625989"><ele>800.0</ele><time>2026-04-29T14:06:49.001Z</time></trkpt><trkpt lat="37.46753548039262" lon="14.370035274882675"><ele>800.6666666666666</ele><time>2026-04-29T14:06:50.001Z</time></trkpt><trkpt lat="37.46745661794315" lon="14.370020268118825"><ele>801.3333333333333</ele><time>2026-04-29T14:06:51.001Z</time></trkpt><trkpt lat="37.4673694998241" lon="14.369993807029436"><ele>802.0</ele><time>2026-04-29T14:06:52.001Z</time></trkpt><trkpt lat="37.46727991622086" lon="14.369963743997271"><ele>801.9999999999999</ele><time>2026-04-29T14:06:53.001Z</time></trkpt><trkpt lat="37.467195333453766" lon="14.36994271695422"><ele>802.0</ele><time>2026-04-29T14:06:54.001Z</time></trkpt><trkpt lat="37.46711504348626" lon="14.369924137777717"><ele>802.0</ele><time>2026-04-29T14:06:55.001Z</time></trkpt><trkpt lat="37.4670334143949" lon="14.36990706185664"><ele>802.0</ele><time>2026-04-29T14:06:56.001Z</time></trkpt><trkpt lat="37.46694723778937" lon="14.369892139314915"><ele>801.9999999999999</ele><time>2026-04-29T14:06:57.001Z</time></trkpt><trkpt lat="37.46686188062389" lon="14.369877580209208"><ele>802.0</ele><time>2026-04-29T14:06:58.001Z</time></trkpt><trkpt lat="37.466781195817354" lon="14.369866722265826"><ele>801.8333333333333</ele><time>2026-04-29T14:06:59.001Z</time></trkpt><trkpt lat="37.466706043736515" lon="14.369867079292204"><ele>801.6666666666666</ele><time>2026-04-29T14:07:00.001Z</time></trkpt><trkpt lat="37.4666272896772" lon="14.369869824834893"><ele>801.5</ele><time>2026-04-29T14:07:01.001Z</time></trkpt><trkpt lat="37.466549493212234" lon="14.369876590438635"><ele>801.3333333333333</ele><time>2026-04-29T14:07:02.001Z</time></trkpt><trkpt lat="37.46644077675464" lon="14.369879658648317"><ele>801.1666666666666</ele><time>2026-04-29T14:07:04.001Z</time></trkpt><trkpt lat="37.46637952770369" lon="14.369902263617133"><ele>801.0</ele><time>2026-04-29T14:07:05.001Z</time></trkpt><trkpt lat="37.46630605559949" lon="14.369939802026833"><ele>800.8333333333334</ele><time>2026-04-29T14:07:06.001Z</time></trkpt><trkpt lat="37.46623200094798" lon="14.369986433590134"><ele>800.6666666666667</ele><time>2026-04-29T14:07:07.001Z</time></trkpt><trkpt lat="37.46616261097014" lon="14.370041641466962"><ele>800.5</ele><time>2026-04-29T14:07:08.001Z</time></trkpt><trkpt lat="37.46609259959547" lon="14.370102384812794"><ele>800.3333333333334</ele><time>2026-04-29T14:07:09.001Z</time></trkpt><trkpt lat="37.466023118065735" lon="14.370156839063721"><ele>800.1666666666667</ele><time>2026-04-29T14:07:10.001Z</time></trkpt><trkpt lat="37.46596033022412" lon="14.37020598329601"><ele>800.0</ele><time>2026-04-29T14:07:11.001Z</time></trkpt><trkpt lat="37.465906577770795" lon="14.370249142805116"><ele>800.0000000000001</ele><time>2026-04-29T14:07:12.001Z</time></trkpt><trkpt lat="37.46584391212513" lon="14.370350956019193"><ele>800.0</ele><time>2026-04-29T14:07:14.001Z</time></trkpt><trkpt lat="37.46582861852941" lon="14.370446871321576"><ele>800.0</ele><time>2026-04-29T14:07:15.001Z</time></trkpt><trkpt lat="37.46581637427736" lon="14.370558989867227"><ele>800.0</ele><time>2026-04-29T14:07:16.001Z</time></trkpt><trkpt lat="37.46578772041868" lon="14.370659013650645"><ele>800.0000000000001</ele><time>2026-04-29T14:07:17.001Z</time></trkpt><trkpt lat="37.46572739742337" lon="14.370748919002374"><ele>800.0</ele><time>2026-04-29T14:07:18.001Z</time></trkpt><trkpt lat="37.46567508283944" lon="14.370846512125665"><ele>800.8</ele><time>2026-04-29T14:07:19.001Z</time></trkpt><trkpt lat="37.465643508736264" lon="14.370932377594455"><ele>801.6</ele><time>2026-04-29T14:07:20.001Z</time></trkpt><trkpt lat="37.46560203517519" lon="14.37099474465451"><ele>802.4000000000001</ele><time>2026-04-29T14:07:21.001Z</time></trkpt><trkpt lat="37.46550760577505" lon="14.371006437122775"><ele>803.2</ele><time>2026-04-29T14:07:23.001Z</time></trkpt><trkpt lat="37.465413861846905" lon="14.370906133824011"><ele>804.0</ele><time>2026-04-29T14:07:25.001Z</time></trkpt><trkpt lat="37.465324053559854" lon="14.370807307216"><ele>804.8333333333334</ele><time>2026-04-29T14:07:27.001Z</time></trkpt><trkpt lat="37.465259495764315" lon="14.370792964852829"><ele>805.6666666666667</ele><time>2026-04-29T14:07:28.001Z</time></trkpt><trkpt lat="37.46517782449372" lon="14.370794159585072"><ele>806.5</ele><time>2026-04-29T14:07:29.001Z</time></trkpt><trkpt lat="37.465096310494275" lon="14.370812919623916"><ele>807.3333333333334</ele><time>2026-04-29T14:07:30.001Z</time></trkpt><trkpt lat="37.46502960417528" lon="14.370854078168223"><ele>808.1666666666667</ele><time>2026-04-29T14:07:31.001Z</time></trkpt><trkpt lat="37.46497127200151" lon="14.37090981829509"><ele>809.0</ele><time>2026-04-29T14:07:32.001Z</time></trkpt><trkpt lat="37.464917607077844" lon="14.370978073943268"><ele>809.0000000000001</ele><time>2026-04-29T14:07:33.001Z</time></trkpt><trkpt lat="37.46486427950632" lon="14.371035372100915"><ele>809.0</ele><time>2026-04-29T14:07:34.001Z</time></trkpt><trkpt lat="37.464803019544746" lon="14.371075110637326"><ele>809.0</ele><time>2026-04-29T14:07:35.001Z</time></trkpt><trkpt lat="37.46474181386219" lon="14.371111519899916"><ele>809.0</ele><time>2026-04-29T14:07:36.001Z</time></trkpt><trkpt lat="37.464632276231" lon="14.371149981669966"><ele>809.0000000000001</ele><time>2026-04-29T14:07:38.001Z</time></trkpt><trkpt lat="37.46455828924704" lon="14.371154003884557"><ele>809.0</ele><time>2026-04-29T14:07:39.001Z</time></trkpt><trkpt lat="37.464476321707174" lon="14.37115796776999"><ele>810.6666666666667</ele><time>2026-04-29T14:07:40.001Z</time></trkpt><trkpt lat="37.464397586704216" lon="14.371166760528125"><ele>812.3333333333334</ele><time>2026-04-29T14:07:41.001Z</time></trkpt><trkpt lat="37.46432178505422" lon="14.371181461001182"><ele>814.0</ele><time>2026-04-29T14:07:42.001Z</time></trkpt><trkpt lat="37.464252739191814" lon="14.371209627796203"><ele>815.6666666666667</ele><time>2026-04-29T14:07:43.001Z</time></trkpt><trkpt lat="37.46419158553551" lon="14.37124671873294"><ele>817.3333333333334</ele><time>2026-04-29T14:07:44.001Z</time></trkpt><trkpt lat="37.464080268185654" lon="14.371275754569707"><ele>819.0</ele><time>2026-04-29T14:07:46.001Z</time></trkpt><trkpt lat="37.46396137220909" lon="14.371279662802165"><ele>819.0</ele><time>2026-04-29T14:07:48.001Z</time></trkpt><trkpt lat="37.463861152242394" lon="14.371355648269438"><ele>819.0</ele><time>2026-04-29T14:07:50.001Z</time></trkpt><trkpt lat="37.463788937132726" lon="14.371379105751046"><ele>819.0</ele><time>2026-04-29T14:07:52.001Z</time></trkpt><trkpt lat="37.4636670782716" lon="14.37135745885218"><ele>819.0</ele><time>2026-04-29T14:07:54.001Z</time></trkpt><trkpt lat="37.46359427471034" lon="14.37135835191362"><ele>819.0</ele><time>2026-04-29T14:07:55.001Z</time></trkpt><trkpt lat="37.46352049701361" lon="14.371362644838843"><ele>821.0</ele><time>2026-04-29T14:07:56.001Z</time></trkpt><trkpt lat="37.46344744208915" lon="14.371364732497202"><ele>823.0</ele><time>2026-04-29T14:07:57.001Z</time></trkpt><trkpt lat="37.463337918255434" lon="14.371332581691423"><ele>825.0</ele><time>2026-04-29T14:07:59.001Z</time></trkpt><trkpt lat="37.46323281739307" lon="14.371259962382258"><ele>827.0</ele><time>2026-04-29T14:08:01.001Z</time></trkpt><trkpt lat="37.46316720750844" lon="14.371141865489427"><ele>829.0</ele><time>2026-04-29T14:08:03.001Z</time></trkpt><trkpt lat="37.46312444307151" lon="14.371047783847029"><ele>828.9999999999999</ele><time>2026-04-29T14:08:04.001Z</time></trkpt><trkpt lat="37.46307919112583" lon="14.370955815695156"><ele>829.0</ele><time>2026-04-29T14:08:05.001Z</time></trkpt><trkpt lat="37.46303233115499" lon="14.37089614891211"><ele>829.0</ele><time>2026-04-29T14:08:06.001Z</time></trkpt><trkpt lat="37.46297362150619" lon="14.370838052583158"><ele>829.0</ele><time>2026-04-29T14:08:07.001Z</time></trkpt><trkpt lat="37.46291760776624" lon="14.370793947666613"><ele>828.9999999999999</ele><time>2026-04-29T14:08:08.001Z</time></trkpt><trkpt lat="37.46285654516723" lon="14.370736903892476"><ele>829.0</ele><time>2026-04-29T14:08:10.001Z</time></trkpt><trkpt lat="37.46280906386315" lon="14.370649270263073"><ele>829.8000000000001</ele><time>2026-04-29T14:08:12.001Z</time></trkpt><trkpt lat="37.462756016592955" lon="14.37058227558796"><ele>830.6</ele><time>2026-04-29T14:08:13.001Z</time></trkpt><trkpt lat="37.46264247947964" lon="14.370513549891095"><ele>831.4</ele><time>2026-04-29T14:08:15.001Z</time></trkpt><trkpt lat="37.462562141828755" lon="14.370499520488382"><ele>832.2</ele><time>2026-04-29T14:08:16.001Z</time></trkpt><trkpt lat="37.46249887580108" lon="14.37048837624168"><ele>833.0</ele><time>2026-04-29T14:08:17.001Z</time></trkpt><trkpt lat="37.46239141128337" lon="14.37043420627177"><ele>833.0</ele><time>2026-04-29T14:08:19.001Z</time></trkpt><trkpt lat="37.46231936317267" lon="14.370389309760599"><ele>833.0</ele><time>2026-04-29T14:08:20.001Z</time></trkpt><trkpt lat="37.46224754563179" lon="14.370349314307731"><ele>833.0</ele><time>2026-04-29T14:08:21.001Z</time></trkpt><trkpt lat="37.462178605858604" lon="14.37032137649215"><ele>833.0</ele><time>2026-04-29T14:08:22.001Z</time></trkpt><trkpt lat="37.46211007409933" lon="14.370291513541753"><ele>833.0</ele><time>2026-04-29T14:08:23.001Z</time></trkpt><trkpt lat="37.462042139001234" lon="14.370259113456353"><ele>833.0</ele><time>2026-04-29T14:08:24.001Z</time></trkpt><trkpt lat="37.46197490574902" lon="14.370224150940695"><ele>833.0</ele><time>2026-04-29T14:08:25.001Z</time></trkpt><trkpt lat="37.46191202121114" lon="14.37018524038585"><ele>832.6666666666667</ele><time>2026-04-29T14:08:26.001Z</time></trkpt><trkpt lat="37.461853501041944" lon="14.370153073502278"><ele>832.3333333333334</ele><time>2026-04-29T14:08:28.001Z</time></trkpt><trkpt lat="37.46178986874379" lon="14.37017977475297"><ele>832.0</ele><time>2026-04-29T14:08:31.001Z</time></trkpt><trkpt lat="37.4617487057864" lon="14.370274616466446"><ele>831.6666666666667</ele><time>2026-04-29T14:08:33.001Z</time></trkpt><trkpt lat="37.46165748869847" lon="14.370343035848217"><ele>831.3333333333334</ele><time>2026-04-29T14:08:35.001Z</time></trkpt><trkpt lat="37.46159359185109" lon="14.370381346689761"><ele>831.0</ele><time>2026-04-29T14:08:36.001Z</time></trkpt><trkpt lat="37.461531961082514" lon="14.370419530364527"><ele>831.0</ele><time>2026-04-29T14:08:37.001Z</time></trkpt><trkpt lat="37.46141902043932" lon="14.370422300821572"><ele>831.0</ele><time>2026-04-29T14:08:39.001Z</time></trkpt><trkpt lat="37.46135032016922" lon="14.370397247867473"><ele>831.0</ele><time>2026-04-29T14:08:40.001Z</time></trkpt><trkpt lat="37.46127759326283" lon="14.370375818231775"><ele>831.0</ele><time>2026-04-29T14:08:41.001Z</time></trkpt><trkpt lat="37.46120607961073" lon="14.370356424849609"><ele>831.0</ele><time>2026-04-29T14:08:42.001Z</time></trkpt><trkpt lat="37.46113595899262" lon="14.370335871438146"><ele>831.0</ele><time>2026-04-29T14:08:43.001Z</time></trkpt><trkpt lat="37.46107080360036" lon="14.370312578227894"><ele>829.8</ele><time>2026-04-29T14:08:44.001Z</time></trkpt><trkpt lat="37.460975226627674" lon="14.370267637083503"><ele>828.5999999999999</ele><time>2026-04-29T14:08:46.001Z</time></trkpt><trkpt lat="37.46087864303622" lon="14.37030757835911"><ele>827.4</ele><time>2026-04-29T14:08:48.001Z</time></trkpt><trkpt lat="37.460789451819466" lon="14.370395895755"><ele>826.2</ele><time>2026-04-29T14:08:50.001Z</time></trkpt><trkpt lat="37.460739235241256" lon="14.370520224867654"><ele>825.0</ele><time>2026-04-29T14:08:52.001Z</time></trkpt><trkpt lat="37.46070598244483" lon="14.3706554297117"><ele>824.5</ele><time>2026-04-29T14:08:54.001Z</time></trkpt><trkpt lat="37.460658139874155" lon="14.37078564156505"><ele>824.0</ele><time>2026-04-29T14:08:56.001Z</time></trkpt><trkpt lat="37.46059745489633" lon="14.370916933881544"><ele>823.5</ele><time>2026-04-29T14:08:58.001Z</time></trkpt><trkpt lat="37.46053151053622" lon="14.371025750219726"><ele>823.0</ele><time>2026-04-29T14:09:00.001Z</time></trkpt><trkpt lat="37.460434376809594" lon="14.37112547916565"><ele>823.0</ele><time>2026-04-29T14:09:02.001Z</time></trkpt><trkpt lat="37.46038344392302" lon="14.371176789560792"><ele>823.0</ele><time>2026-04-29T14:09:03.001Z</time></trkpt><trkpt lat="37.460276364712946" lon="14.371270941894597"><ele>823.0</ele><time>2026-04-29T14:09:05.001Z</time></trkpt><trkpt lat="37.460199147243365" lon="14.371384525885826"><ele>823.0</ele><time>2026-04-29T14:09:07.001Z</time></trkpt><trkpt lat="37.4601447761195" lon="14.37151238791238"><ele>823.0</ele><time>2026-04-29T14:09:09.001Z</time></trkpt><trkpt lat="37.460111469330016" lon="14.37159772573604"><ele>822.8333333333333</ele><time>2026-04-29T14:09:10.001Z</time></trkpt><trkpt lat="37.46008348077159" lon="14.371683493674258"><ele>822.6666666666666</ele><time>2026-04-29T14:09:11.001Z</time></trkpt><trkpt lat="37.46007187288983" lon="14.371770637622348"><ele>822.5</ele><time>2026-04-29T14:09:12.001Z</time></trkpt><trkpt lat="37.46006365878954" lon="14.371900052889266"><ele>822.3333333333333</ele><time>2026-04-29T14:09:14.001Z</time></trkpt><trkpt lat="37.46005707521886" lon="14.372055709963478"><ele>822.1666666666666</ele><time>2026-04-29T14:09:16.001Z</time></trkpt><trkpt lat="37.4600567365417" lon="14.372140898589482"><ele>822.0</ele><time>2026-04-29T14:09:17.001Z</time></trkpt><trkpt lat="37.460060069717684" lon="14.37222031444764"><ele>823.4000000000001</ele><time>2026-04-29T14:09:18.001Z</time></trkpt><trkpt lat="37.460073432970084" lon="14.372369221581444"><ele>824.8000000000001</ele><time>2026-04-29T14:09:20.001Z</time></trkpt><trkpt lat="37.46009408008171" lon="14.372519998123437"><ele>826.2</ele><time>2026-04-29T14:09:22.001Z</time></trkpt><trkpt lat="37.46011558821711" lon="14.372612553010676"><ele>827.6</ele><time>2026-04-29T14:09:23.001Z</time></trkpt><trkpt lat="37.460133798536624" lon="14.372696551210032"><ele>829.0</ele><time>2026-04-29T14:09:24.001Z</time></trkpt><trkpt lat="37.460126753462276" lon="14.372841346687514"><ele>829.0</ele><time>2026-04-29T14:09:26.001Z</time></trkpt><trkpt lat="37.46006256577951" lon="14.372967424178523"><ele>829.0</ele><time>2026-04-29T14:09:28.001Z</time></trkpt><trkpt lat="37.46001650501736" lon="14.373021714212344"><ele>829.0</ele><time>2026-04-29T14:09:29.001Z</time></trkpt><trkpt lat="37.45992453578565" lon="14.373109814503433"><ele>829.0</ele><time>2026-04-29T14:09:31.001Z</time></trkpt><trkpt lat="37.45981355809008" lon="14.373167684372378"><ele>829.0</ele><time>2026-04-29T14:09:33.001Z</time></trkpt><trkpt lat="37.459711082248404" lon="14.373212117472878"><ele>830.4999999999999</ele><time>2026-04-29T14:09:35.001Z</time></trkpt><trkpt lat="37.459640331815656" lon="14.373249296836503"><ele>832.0</ele><time>2026-04-29T14:09:37.001Z</time></trkpt><trkpt lat="37.45956959429811" lon="14.373322716458626"><ele>833.5</ele><time>2026-04-29T14:09:39.001Z</time></trkpt><trkpt lat="37.45947270798745" lon="14.37337706624694"><ele>835.0</ele><time>2026-04-29T14:09:41.001Z</time></trkpt><trkpt lat="37.4594074172588" lon="14.373393572016617"><ele>836.4999999999999</ele><time>2026-04-29T14:09:42.001Z</time></trkpt><trkpt lat="37.45934683480556" lon="14.373415528009033"><ele>838.0</ele><time>2026-04-29T14:09:43.001Z</time></trkpt><trkpt lat="37.45924996796734" lon="14.3735184663379"><ele>838.4999999999999</ele><time>2026-04-29T14:09:45.001Z</time></trkpt><trkpt lat="37.45920139997406" lon="14.37360133401349"><ele>839.0</ele><time>2026-04-29T14:09:46.001Z</time></trkpt><trkpt lat="37.45915223639712" lon="14.373662451509443"><ele>839.5</ele><time>2026-04-29T14:09:47.001Z</time></trkpt><trkpt lat="37.45907196105305" lon="14.3737296879797"><ele>840.0</ele><time>2026-04-29T14:09:49.001Z</time></trkpt><trkpt lat="37.45899790523228" lon="14.373837260255273"><ele>840.4999999999999</ele><time>2026-04-29T14:09:51.001Z</time></trkpt><trkpt lat="37.458977843936644" lon="14.373917352626334"><ele>841.0</ele><time>2026-04-29T14:09:52.001Z</time></trkpt><trkpt lat="37.45890680965241" lon="14.374009699713373"><ele>843.0</ele><time>2026-04-29T14:09:54.001Z</time></trkpt><trkpt lat="37.45880269753038" lon="14.3740911799612"><ele>845.0</ele><time>2026-04-29T14:09:56.001Z</time></trkpt><trkpt lat="37.4587107087309" lon="14.37419707629607"><ele>847.0</ele><time>2026-04-29T14:09:58.001Z</time></trkpt><trkpt lat="37.45867832643293" lon="14.374267138837858"><ele>849.0</ele><time>2026-04-29T14:09:59.001Z</time></trkpt><trkpt lat="37.458654923793844" lon="14.374351640633526"><ele>851.0</ele><time>2026-04-29T14:10:00.001Z</time></trkpt><trkpt lat="37.458632987568855" lon="14.374443051374547"><ele>851.0000000000001</ele><time>2026-04-29T14:10:01.001Z</time></trkpt><trkpt lat="37.4586120090409" lon="14.374541279626229"><ele>851.0</ele><time>2026-04-29T14:10:02.001Z</time></trkpt><trkpt lat="37.458594139029444" lon="14.374636109619962"><ele>851.0</ele><time>2026-04-29T14:10:03.001Z</time></trkpt><trkpt lat="37.458573090551496" lon="14.374716348078376"><ele>851.0</ele><time>2026-04-29T14:10:04.001Z</time></trkpt><trkpt lat="37.45850749231095" lon="14.374823687744156"><ele>851.0000000000001</ele><time>2026-04-29T14:10:06.001Z</time></trkpt><trkpt lat="37.45841990271154" lon="14.374901212304845"><ele>851.0</ele><time>2026-04-29T14:10:08.001Z</time></trkpt><trkpt lat="37.45829587185707" lon="14.374942523795529"><ele>851.7142857142858</ele><time>2026-04-29T14:10:10.001Z</time></trkpt><trkpt lat="37.458222566917954" lon="14.374963406551132"><ele>852.4285714285714</ele><time>2026-04-29T14:10:11.001Z</time></trkpt><trkpt lat="37.458153735897746" lon="14.374986414391657"><ele>853.1428571428571</ele><time>2026-04-29T14:10:12.001Z</time></trkpt><trkpt lat="37.458083720516385" lon="14.37501321102062"><ele>853.8571428571429</ele><time>2026-04-29T14:10:13.001Z</time></trkpt><trkpt lat="37.45801077656797" lon="14.375041188928815"><ele>854.5714285714286</ele><time>2026-04-29T14:10:14.001Z</time></trkpt><trkpt lat="37.45794354971028" lon="14.375065926938124"><ele>855.2857142857143</ele><time>2026-04-29T14:10:15.001Z</time></trkpt><trkpt lat="37.45787739653643" lon="14.37508751973739"><ele>856.0</ele><time>2026-04-29T14:10:16.001Z</time></trkpt><trkpt lat="37.45781408564952" lon="14.37511437295005"><ele>859.0</ele><time>2026-04-29T14:10:17.001Z</time></trkpt><trkpt lat="37.4577049366268" lon="14.375171833829906"><ele>861.9999999999999</ele><time>2026-04-29T14:10:19.001Z</time></trkpt><trkpt lat="37.45761381010737" lon="14.375210893917867"><ele>864.9999999999999</ele><time>2026-04-29T14:10:21.001Z</time></trkpt><trkpt lat="37.45754619766864" lon="14.375257890102572"><ele>868.0</ele><time>2026-04-29T14:10:25.001Z</time></trkpt><trkpt lat="37.45750214511806" lon="14.375367008399724"><ele>871.0</ele><time>2026-04-29T14:10:28.001Z</time></trkpt><trkpt lat="37.457511393909606" lon="14.375447125654262"><ele>871.1666666666666</ele><time>2026-04-29T14:10:31.001Z</time></trkpt><trkpt lat="37.45751100685924" lon="14.3755668878738"><ele>871.3333333333333</ele><time>2026-04-29T14:10:33.001Z</time></trkpt><trkpt lat="37.45753142179618" lon="14.37566251724816"><ele>871.5</ele><time>2026-04-29T14:10:35.001Z</time></trkpt><trkpt lat="37.457534738785974" lon="14.375756395574202"><ele>871.6666666666667</ele><time>2026-04-29T14:10:39.001Z</time></trkpt><trkpt lat="37.45753684700532" lon="14.375883301564928"><ele>871.8333333333334</ele><time>2026-04-29T14:12:23.001Z</time></trkpt><trkpt lat="37.45749710047169" lon="14.37597342114523"><ele>872.0</ele><time>2026-04-29T14:12:27.001Z</time></trkpt><trkpt lat="37.457455225820816" lon="14.376056262282688"><ele>872.0000000000001</ele><time>2026-04-29T14:12:29.001Z</time></trkpt><trkpt lat="37.45741326915167" lon="14.376142979145866"><ele>872.0</ele><time>2026-04-29T14:12:32.001Z</time></trkpt><trkpt lat="37.45740036772144" lon="14.376230739128104"><ele>872.0</ele><time>2026-04-29T14:12:34.001Z</time></trkpt><trkpt lat="37.45740416906864" lon="14.376309975807033"><ele>872.0</ele><time>2026-04-29T14:12:36.001Z</time></trkpt><trkpt lat="37.45741533884248" lon="14.376440870262208"><ele>872.0000000000001</ele><time>2026-04-29T14:12:39.001Z</time></trkpt><trkpt lat="37.45741283212567" lon="14.376526495707235"><ele>872.0</ele><time>2026-04-29T14:12:41.001Z</time></trkpt><trkpt lat="37.457359962296685" lon="14.37662252336341"><ele>872.4000000000001</ele><time>2026-04-29T14:12:44.001Z</time></trkpt><trkpt lat="37.457255409380274" lon="14.376690894877115"><ele>872.8000000000001</ele><time>2026-04-29T14:12:46.001Z</time></trkpt><trkpt lat="37.45714092439055" lon="14.37675746232213"><ele>873.2</ele><time>2026-04-29T14:12:48.001Z</time></trkpt><trkpt lat="37.457077166751844" lon="14.376808515695245"><ele>873.6</ele><time>2026-04-29T14:12:49.001Z</time></trkpt><trkpt lat="37.457011064159595" lon="14.376856257570717"><ele>874.0</ele><time>2026-04-29T14:12:50.001Z</time></trkpt><trkpt lat="37.45691021222165" lon="14.37691780075908"><ele>873.9999999999999</ele><time>2026-04-29T14:12:52.001Z</time></trkpt><trkpt lat="37.45682931108367" lon="14.376937686213944"><ele>874.0</ele><time>2026-04-29T14:12:54Z</time></trkpt><trkpt lat="37.45674654075718" lon="14.376924432784204"><ele>874.0</ele><time>2026-04-29T14:12:56Z</time></trkpt><trkpt lat="37.4566640304634" lon="14.376857375380384"><ele>874.0</ele><time>2026-04-29T14:12:58Z</time></trkpt><trkpt lat="37.45656812840648" lon="14.376811091474648"><ele>873.9999999999999</ele><time>2026-04-29T14:13:00Z</time></trkpt><trkpt lat="37.45650301068177" lon="14.376781519990484"><ele>874.0</ele><time>2026-04-29T14:13:01Z</time></trkpt><trkpt lat="37.45642793416445" lon="14.376762478778799"><ele>873.9999999999999</ele><time>2026-04-29T14:13:02Z</time></trkpt><trkpt lat="37.45635815343333" lon="14.37675400481393"><ele>874.0</ele><time>2026-04-29T14:13:03Z</time></trkpt><trkpt lat="37.45624396934649" lon="14.376737803797992"><ele>874.0</ele><time>2026-04-29T14:13:05Z</time></trkpt><trkpt lat="37.45617424886537" lon="14.376732482584302"><ele>874.0</ele><time>2026-04-29T14:13:06Z</time></trkpt><trkpt lat="37.45610207701201" lon="14.376726410237389"><ele>873.9999999999999</ele><time>2026-04-29T14:13:07Z</time></trkpt><trkpt lat="37.45601384817277" lon="14.376695622234953"><ele>874.0</ele><time>2026-04-29T14:13:09Z</time></trkpt><trkpt lat="37.45598558958276" lon="14.37662172139578"><ele>874.6</ele><time>2026-04-29T14:13:11Z</time></trkpt><trkpt lat="37.456013096329166" lon="14.37650549898791"><ele>875.2</ele><time>2026-04-29T14:13:13Z</time></trkpt><trkpt lat="37.455986155161" lon="14.37636979599699"><ele>875.8000000000001</ele><time>2026-04-29T14:13:15Z</time></trkpt><trkpt lat="37.455904912927544" lon="14.376319573988678"><ele>876.4000000000001</ele><time>2026-04-29T14:13:17Z</time></trkpt><trkpt lat="37.455793073528554" lon="14.376293618804747"><ele>877.0</ele><time>2026-04-29T14:13:19Z</time></trkpt><trkpt lat="37.45572737333395" lon="14.376282228461749"><ele>876.9999999999999</ele><time>2026-04-29T14:13:20Z</time></trkpt><trkpt lat="37.45564921686307" lon="14.376304600865318"><ele>877.0</ele><time>2026-04-29T14:13:21Z</time></trkpt><trkpt lat="37.45557912903687" lon="14.376349759695684"><ele>877.0</ele><time>2026-04-29T14:13:22Z</time></trkpt><trkpt lat="37.45552163704106" lon="14.376418141616325"><ele>877.0</ele><time>2026-04-29T14:13:23Z</time></trkpt><trkpt lat="37.4554667801854" lon="14.376489411166485"><ele>876.9999999999999</ele><time>2026-04-29T14:13:24Z</time></trkpt><trkpt lat="37.455411345970916" lon="14.376578023550827"><ele>877.0</ele><time>2026-04-29T14:13:25Z</time></trkpt><trkpt lat="37.455358994623026" lon="14.376668725779071"><ele>879.2</ele><time>2026-04-29T14:13:26Z</time></trkpt><trkpt lat="37.455314487944996" lon="14.376751608867883"><ele>881.4000000000001</ele><time>2026-04-29T14:13:27Z</time></trkpt><trkpt lat="37.45526915714945" lon="14.376839731308865"><ele>883.5999999999999</ele><time>2026-04-29T14:13:28Z</time></trkpt><trkpt lat="37.455223753315245" lon="14.376935152315172"><ele>885.8</ele><time>2026-04-29T14:13:29Z</time></trkpt><trkpt lat="37.455173481519246" lon="14.37704185964449"><ele>888.0</ele><time>2026-04-29T14:13:30Z</time></trkpt><trkpt lat="37.45512030842913" lon="14.377151112542483"><ele>886.5999999999999</ele><time>2026-04-29T14:13:31Z</time></trkpt><trkpt lat="37.45506610267151" lon="14.37725785473677"><ele>885.1999999999999</ele><time>2026-04-29T14:13:32Z</time></trkpt><trkpt lat="37.45501247444059" lon="14.377359262909316"><ele>883.8</ele><time>2026-04-29T14:13:33Z</time></trkpt><trkpt lat="37.454946190946934" lon="14.377456712484966"><ele>882.4</ele><time>2026-04-29T14:13:34Z</time></trkpt><trkpt lat="37.454862459645874" lon="14.377558544084142"><ele>881.0</ele><time>2026-04-29T14:13:35Z</time></trkpt><trkpt lat="37.45478448993899" lon="14.377645018821726"><ele>881.0000000000001</ele><time>2026-04-29T14:13:36Z</time></trkpt><trkpt lat="37.45471882682911" lon="14.377713170474314"><ele>881.0</ele><time>2026-04-29T14:13:37Z</time></trkpt><trkpt lat="37.45466542909869" lon="14.377757794173322"><ele>881.0</ele><time>2026-04-29T14:13:38Z</time></trkpt><trkpt lat="37.45454647699469" lon="14.37781273392473"><ele>881.0</ele><time>2026-04-29T14:13:40Z</time></trkpt><trkpt lat="37.454475243047206" lon="14.377813465804714"><ele>881.0000000000001</ele><time>2026-04-29T14:13:41Z</time></trkpt><trkpt lat="37.454375814655194" lon="14.377803285479251"><ele>881.0</ele><time>2026-04-29T14:13:42Z</time></trkpt><trkpt lat="37.454251853553465" lon="14.377803904518961"><ele>882.25</ele><time>2026-04-29T14:13:43Z</time></trkpt><trkpt lat="37.45413847327948" lon="14.377786158980937"><ele>883.5</ele><time>2026-04-29T14:13:44Z</time></trkpt><trkpt lat="37.45402177633722" lon="14.377768954714563"><ele>884.75</ele><time>2026-04-29T14:13:45Z</time></trkpt><trkpt lat="37.453887434285164" lon="14.37774549991818"><ele>886.0</ele><time>2026-04-29T14:13:46Z</time></trkpt><trkpt lat="37.453762629175976" lon="14.377730322674816"><ele>886.25</ele><time>2026-04-29T14:13:47Z</time></trkpt><trkpt lat="37.45364598051128" lon="14.377727035009103"><ele>886.5</ele><time>2026-04-29T14:13:48Z</time></trkpt><trkpt lat="37.45352956087786" lon="14.377743645788454"><ele>886.75</ele><time>2026-04-29T14:13:49Z</time></trkpt><trkpt lat="37.453401744286076" lon="14.37777940215252"><ele>887.0</ele><time>2026-04-29T14:13:50Z</time></trkpt><trkpt lat="37.453270745584796" lon="14.377797342348181"><ele>887.0</ele><time>2026-04-29T14:13:51Z</time></trkpt><trkpt lat="37.453146033720586" lon="14.37783707235927"><ele>887.0</ele><time>2026-04-29T14:13:52Z</time></trkpt><trkpt lat="37.45304010682853" lon="14.377888446431173"><ele>887.0</ele><time>2026-04-29T14:13:53Z</time></trkpt><trkpt lat="37.45293700347094" lon="14.377921247122474"><ele>887.0</ele><time>2026-04-29T14:13:54Z</time></trkpt><trkpt lat="37.452834732230706" lon="14.377952837637483"><ele>885.4000000000001</ele><time>2026-04-29T14:13:55Z</time></trkpt><trkpt lat="37.45272924918198" lon="14.377973905919594"><ele>883.8000000000001</ele><time>2026-04-29T14:13:56Z</time></trkpt><trkpt lat="37.45262080222461" lon="14.37803874819567"><ele>882.2</ele><time>2026-04-29T14:13:57Z</time></trkpt><trkpt lat="37.452535812041795" lon="14.378110848824983"><ele>880.6</ele><time>2026-04-29T14:13:58Z</time></trkpt><trkpt lat="37.452466608353824" lon="14.378142288744382"><ele>879.0</ele><time>2026-04-29T14:13:59Z</time></trkpt><trkpt lat="37.4523724400601" lon="14.378162048275584"><ele>877.8000000000001</ele><time>2026-04-29T14:14:01Z</time></trkpt><trkpt lat="37.4522900111371" lon="14.378127759731498"><ele>876.6000000000001</ele><time>2026-04-29T14:14:03Z</time></trkpt><trkpt lat="37.452203411037864" lon="14.378136197667638"><ele>875.4</ele><time>2026-04-29T14:14:05Z</time></trkpt><trkpt lat="37.45212750617475" lon="14.37829359816681"><ele>874.2</ele><time>2026-04-29T14:14:06Z</time></trkpt><trkpt lat="37.45209816688878" lon="14.378374936146646"><ele>873.0</ele><time>2026-04-29T14:14:07Z</time></trkpt><trkpt lat="37.45206251120677" lon="14.378482116623093"><ele>872.0</ele><time>2026-04-29T14:14:08Z</time></trkpt><trkpt lat="37.45201637901122" lon="14.378618682212968"><ele>871.0</ele><time>2026-04-29T14:14:09Z</time></trkpt><trkpt lat="37.45197345174279" lon="14.378739269362628"><ele>870.0</ele><time>2026-04-29T14:14:10Z</time></trkpt><trkpt lat="37.451932095942006" lon="14.378852534741354"><ele>869.0</ele><time>2026-04-29T14:14:11Z</time></trkpt><trkpt lat="37.45188862585306" lon="14.37897024714995"><ele>868.0</ele><time>2026-04-29T14:14:12Z</time></trkpt><trkpt lat="37.451845361496126" lon="14.379097449412853"><ele>867.2</ele><time>2026-04-29T14:14:13Z</time></trkpt><trkpt lat="37.45180711236385" lon="14.379220494255419"><ele>866.4</ele><time>2026-04-29T14:14:14Z</time></trkpt><trkpt lat="37.45178277623281" lon="14.37935328198355"><ele>865.6000000000001</ele><time>2026-04-29T14:14:15Z</time></trkpt><trkpt lat="37.45173221979752" lon="14.379461709989316"><ele>864.8000000000001</ele><time>2026-04-29T14:14:16Z</time></trkpt><trkpt lat="37.451698872176266" lon="14.379567863506907"><ele>864.0</ele><time>2026-04-29T14:14:17Z</time></trkpt><trkpt lat="37.4516639504686" lon="14.379679027693378"><ele>863.6</ele><time>2026-04-29T14:14:18Z</time></trkpt><trkpt lat="37.45162885656219" lon="14.379793918654372"><ele>863.2</ele><time>2026-04-29T14:14:19.001Z</time></trkpt><trkpt lat="37.45160062298219" lon="14.379907416990719"><ele>862.8000000000001</ele><time>2026-04-29T14:14:20.001Z</time></trkpt><trkpt lat="37.451578704086955" lon="14.380013105447146"><ele>862.4000000000001</ele><time>2026-04-29T14:14:21.001Z</time></trkpt><trkpt lat="37.45153488139961" lon="14.380111720115377"><ele>862.0</ele><time>2026-04-29T14:14:22.001Z</time></trkpt><trkpt lat="37.451485295121294" lon="14.380223377485185"><ele>862.0</ele><time>2026-04-29T14:14:23.001Z</time></trkpt><trkpt lat="37.451432065906495" lon="14.380339281958914"><ele>862.0</ele><time>2026-04-29T14:14:24.001Z</time></trkpt><trkpt lat="37.45137243505958" lon="14.380473794562004"><ele>862.0</ele><time>2026-04-29T14:14:25.001Z</time></trkpt><trkpt lat="37.45132001341318" lon="14.380627401527606"><ele>862.0</ele><time>2026-04-29T14:14:26.001Z</time></trkpt><trkpt lat="37.45125388874823" lon="14.380779911414587"><ele>861.75</ele><time>2026-04-29T14:14:27.001Z</time></trkpt><trkpt lat="37.45118752145183" lon="14.380932364672773"><ele>861.5</ele><time>2026-04-29T14:14:28.001Z</time></trkpt><trkpt lat="37.45112709371048" lon="14.381071174311861"><ele>861.25</ele><time>2026-04-29T14:14:29.001Z</time></trkpt><trkpt lat="37.45106475681124" lon="14.381211898807909"><ele>861.0</ele><time>2026-04-29T14:14:30.001Z</time></trkpt><trkpt lat="37.451001587615956" lon="14.381354892677674"><ele>861.75</ele><time>2026-04-29T14:14:31.001Z</time></trkpt><trkpt lat="37.45093341095078" lon="14.381506475605603"><ele>862.5</ele><time>2026-04-29T14:14:32.001Z</time></trkpt><trkpt lat="37.45086709474273" lon="14.381653791615605"><ele>863.25</ele><time>2026-04-29T14:14:33.001Z</time></trkpt><trkpt lat="37.450790221693914" lon="14.381792539087993"><ele>864.0</ele><time>2026-04-29T14:14:34.001Z</time></trkpt><trkpt lat="37.45072897419649" lon="14.381939284024924"><ele>864.0</ele><time>2026-04-29T14:14:35.001Z</time></trkpt><trkpt lat="37.45067308751573" lon="14.382075041375764"><ele>864.0</ele><time>2026-04-29T14:14:36.001Z</time></trkpt><trkpt lat="37.45060738892312" lon="14.382202985513214"><ele>864.0</ele><time>2026-04-29T14:14:37.001Z</time></trkpt><trkpt lat="37.450538723578546" lon="14.382325605771136"><ele>864.0</ele><time>2026-04-29T14:14:38.001Z</time></trkpt><trkpt lat="37.45047385058924" lon="14.382453697945573"><ele>866.0</ele><time>2026-04-29T14:14:39.001Z</time></trkpt><trkpt lat="37.450415171146865" lon="14.382578678950974"><ele>868.0000000000001</ele><time>2026-04-29T14:14:40.001Z</time></trkpt><trkpt lat="37.450358339685586" lon="14.382684826753723"><ele>870.0000000000001</ele><time>2026-04-29T14:14:41.001Z</time></trkpt><trkpt lat="37.45028263807291" lon="14.382775314295541"><ele>872.0</ele><time>2026-04-29T14:14:42.001Z</time></trkpt><trkpt lat="37.450205273360766" lon="14.382878414262102"><ele>874.0</ele><time>2026-04-29T14:14:43.001Z</time></trkpt><trkpt lat="37.450128749991975" lon="14.382998164549921"><ele>873.25</ele><time>2026-04-29T14:14:44.001Z</time></trkpt><trkpt lat="37.45003348488842" lon="14.383107433945236"><ele>872.5</ele><time>2026-04-29T14:14:45.001Z</time></trkpt><trkpt lat="37.44992966545196" lon="14.383229570837504"><ele>871.75</ele><time>2026-04-29T14:14:46.001Z</time></trkpt><trkpt lat="37.44982791111596" lon="14.3833513530272"><ele>871.0</ele><time>2026-04-29T14:14:47.001Z</time></trkpt><trkpt lat="37.449730471539" lon="14.383469647044015"><ele>871.0</ele><time>2026-04-29T14:14:48.001Z</time></trkpt><trkpt lat="37.44963800984416" lon="14.383575660863887"><ele>871.0</ele><time>2026-04-29T14:14:49.001Z</time></trkpt><trkpt lat="37.44955320764992" lon="14.383675829127819"><ele>871.0</ele><time>2026-04-29T14:14:50.001Z</time></trkpt><trkpt lat="37.44948077070017" lon="14.383787395483335"><ele>871.0</ele><time>2026-04-29T14:14:51.001Z</time></trkpt><trkpt lat="37.449419860734466" lon="14.383909282579266"><ele>870.75</ele><time>2026-04-29T14:14:52.001Z</time></trkpt><trkpt lat="37.44937913616419" lon="14.38401312406136"><ele>870.5</ele><time>2026-04-29T14:14:53.001Z</time></trkpt><trkpt lat="37.4493642516988" lon="14.384098676917715"><ele>870.25</ele><time>2026-04-29T14:14:56.001Z</time></trkpt><trkpt lat="37.44924010184862" lon="14.384331360875336"><ele>870.0</ele><time>2026-04-29T14:15:02Z</time></trkpt><trkpt lat="37.44919873143501" lon="14.384451671620466"><ele>870.0</ele><time>2026-04-29T14:15:03Z</time></trkpt><trkpt lat="37.44915098526647" lon="14.384611959582367"><ele>870.0</ele><time>2026-04-29T14:15:04Z</time></trkpt><trkpt lat="37.44910668642352" lon="14.384739921664098"><ele>870.0</ele><time>2026-04-29T14:15:05Z</time></trkpt><trkpt lat="37.4490610120754" lon="14.384857096208792"><ele>870.0</ele><time>2026-04-29T14:15:06Z</time></trkpt><trkpt lat="37.44900794484358" lon="14.384960210189599"><ele>870.0</ele><time>2026-04-29T14:15:07Z</time></trkpt><trkpt lat="37.448969141261024" lon="14.3850669738818"><ele>870.1666666666666</ele><time>2026-04-29T14:15:08Z</time></trkpt><trkpt lat="37.448926685107004" lon="14.385169720485921"><ele>870.3333333333333</ele><time>2026-04-29T14:15:09Z</time></trkpt><trkpt lat="37.44888512883728" lon="14.38525801901655"><ele>870.5</ele><time>2026-04-29T14:15:10Z</time></trkpt><trkpt lat="37.448832094611696" lon="14.385344685239948"><ele>870.6666666666666</ele><time>2026-04-29T14:15:11Z</time></trkpt><trkpt lat="37.448771184006304" lon="14.385429376857884"><ele>870.8333333333333</ele><time>2026-04-29T14:15:12Z</time></trkpt><trkpt lat="37.448735464697066" lon="14.385531481908178"><ele>871.0</ele><time>2026-04-29T14:15:13Z</time></trkpt><trkpt lat="37.44869509009913" lon="14.385607397587087"><ele>870.9999999999999</ele><time>2026-04-29T14:15:14Z</time></trkpt><trkpt lat="37.44863973942145" lon="14.385709960021684"><ele>871.0</ele><time>2026-04-29T14:15:16Z</time></trkpt><trkpt lat="37.448576698748376" lon="14.385797415146524"><ele>871.0</ele><time>2026-04-29T14:15:18Z</time></trkpt><trkpt lat="37.448527550737396" lon="14.385909023668729"><ele>871.0</ele><time>2026-04-29T14:15:20Z</time></trkpt><trkpt lat="37.448481768012854" lon="14.386007335281773"><ele>870.9999999999999</ele><time>2026-04-29T14:15:23Z</time></trkpt><trkpt lat="37.44844217374754" lon="14.386072891332082"><ele>871.0</ele><time>2026-04-29T14:15:25Z</time></trkpt><trkpt lat="37.44839180716081" lon="14.386174382546393"><ele>871.0</ele><time>2026-04-29T14:15:26Z</time></trkpt><trkpt lat="37.44832471001998" lon="14.386300597893836"><ele>871.0</ele><time>2026-04-29T14:15:27Z</time></trkpt><trkpt lat="37.44824980714135" lon="14.386422730374436"><ele>871.0</ele><time>2026-04-29T14:15:28Z</time></trkpt><trkpt lat="37.44817894831001" lon="14.38654406575849"><ele>871.0</ele><time>2026-04-29T14:15:29Z</time></trkpt><trkpt lat="37.4481019720516" lon="14.38667154581274"><ele>871.0</ele><time>2026-04-29T14:15:30Z</time></trkpt><trkpt lat="37.44802367615055" lon="14.386801362334223"><ele>871.0</ele><time>2026-04-29T14:15:31Z</time></trkpt><trkpt lat="37.447944740193954" lon="14.38693269516923"><ele>871.0</ele><time>2026-04-29T14:15:32Z</time></trkpt><trkpt lat="37.44787114756036" lon="14.387059206367184"><ele>871.0</ele><time>2026-04-29T14:15:33Z</time></trkpt><trkpt lat="37.44779614059089" lon="14.387180136792212"><ele>870.75</ele><time>2026-04-29T14:15:34Z</time></trkpt><trkpt lat="37.44772193065003" lon="14.387301947353127"><ele>870.5</ele><time>2026-04-29T14:15:35Z</time></trkpt><trkpt lat="37.44765102670583" lon="14.387420807027569"><ele>870.25</ele><time>2026-04-29T14:15:36Z</time></trkpt><trkpt lat="37.44758494517854" lon="14.387533776285528"><ele>870.0</ele><time>2026-04-29T14:15:37Z</time></trkpt><trkpt lat="37.44751358861584" lon="14.387624399044116"><ele>870.0</ele><time>2026-04-29T14:15:38Z</time></trkpt><trkpt lat="37.44744746362087" lon="14.387716120756068"><ele>870.0</ele><time>2026-04-29T14:15:39Z</time></trkpt><trkpt lat="37.44738336929435" lon="14.387799042091428"><ele>870.0</ele><time>2026-04-29T14:15:40Z</time></trkpt><trkpt lat="37.44730489614843" lon="14.387891623915653"><ele>870.0</ele><time>2026-04-29T14:15:41Z</time></trkpt><trkpt lat="37.44721510818673" lon="14.387984352561725"><ele>870.0</ele><time>2026-04-29T14:15:42Z</time></trkpt><trkpt lat="37.447128865018534" lon="14.388061596683652"><ele>869.4</ele><time>2026-04-29T14:15:43Z</time></trkpt><trkpt lat="37.44703693078584" lon="14.388126910832701"><ele>868.8</ele><time>2026-04-29T14:15:44Z</time></trkpt><trkpt lat="37.446943922228265" lon="14.388184458984652"><ele>868.2</ele><time>2026-04-29T14:15:45Z</time></trkpt><trkpt lat="37.446845306666575" lon="14.388245807851634"><ele>867.6</ele><time>2026-04-29T14:15:46Z</time></trkpt><trkpt lat="37.446751178083346" lon="14.38830436673969"><ele>867.0</ele><time>2026-04-29T14:15:47Z</time></trkpt><trkpt lat="37.446660284820034" lon="14.388350817666355"><ele>867.0</ele><time>2026-04-29T14:15:48Z</time></trkpt><trkpt lat="37.446559004137114" lon="14.388393418821725"><ele>867.0</ele><time>2026-04-29T14:15:49Z</time></trkpt><trkpt lat="37.44645035130992" lon="14.388434094698262"><ele>867.0</ele><time>2026-04-29T14:15:50Z</time></trkpt><trkpt lat="37.44633079633858" lon="14.388474751338801"><ele>867.0</ele><time>2026-04-29T14:15:51Z</time></trkpt><trkpt lat="37.446202691615845" lon="14.38851431633575"><ele>865.5</ele><time>2026-04-29T14:15:52Z</time></trkpt><trkpt lat="37.44608120518914" lon="14.388550702449267"><ele>864.0</ele><time>2026-04-29T14:15:53Z</time></trkpt><trkpt lat="37.44595342459979" lon="14.388590181552614"><ele>862.5</ele><time>2026-04-29T14:15:54Z</time></trkpt><trkpt lat="37.44582449426469" lon="14.388634434890058"><ele>861.0</ele><time>2026-04-29T14:15:55Z</time></trkpt><trkpt lat="37.44569719233998" lon="14.38867931932228"><ele>861.0</ele><time>2026-04-29T14:15:56Z</time></trkpt><trkpt lat="37.44557795670007" lon="14.38871922672693"><ele>861.0</ele><time>2026-04-29T14:15:57Z</time></trkpt><trkpt lat="37.445468480206635" lon="14.388754847663199"><ele>861.0</ele><time>2026-04-29T14:15:58Z</time></trkpt><trkpt lat="37.44536796284064" lon="14.388787333740607"><ele>861.0</ele><time>2026-04-29T14:15:59Z</time></trkpt><trkpt lat="37.44526066349164" lon="14.388821678016308"><ele>859.0</ele><time>2026-04-29T14:16:00Z</time></trkpt><trkpt lat="37.445142833330294" lon="14.388856766512172"><ele>857.0</ele><time>2026-04-29T14:16:01Z</time></trkpt><trkpt lat="37.44502125719764" lon="14.388888301300566"><ele>855.0</ele><time>2026-04-29T14:16:02Z</time></trkpt><trkpt lat="37.44489838191227" lon="14.388909232562177"><ele>853.0</ele><time>2026-04-29T14:16:03Z</time></trkpt><trkpt lat="37.44476955709368" lon="14.388917670873681"><ele>853.0</ele><time>2026-04-29T14:16:04Z</time></trkpt><trkpt lat="37.4446410305952" lon="14.388921069485104"><ele>853.0</ele><time>2026-04-29T14:16:05Z</time></trkpt><trkpt lat="37.4445065382359" lon="14.388923061600444"><ele>853.0</ele><time>2026-04-29T14:16:06Z</time></trkpt><trkpt lat="37.44437174632945" lon="14.388928498868868"><ele>853.0</ele><time>2026-04-29T14:16:07Z</time></trkpt><trkpt lat="37.44424151486172" lon="14.388939913171727"><ele>851.3333333333333</ele><time>2026-04-29T14:16:08Z</time></trkpt><trkpt lat="37.4441040546846" lon="14.388955459537975"><ele>849.6666666666667</ele><time>2026-04-29T14:16:09Z</time></trkpt><trkpt lat="37.44395052383151" lon="14.388972823420596"><ele>848.0</ele><time>2026-04-29T14:16:10Z</time></trkpt><trkpt lat="37.443792202305914" lon="14.38899217024166"><ele>847.0</ele><time>2026-04-29T14:16:11Z</time></trkpt><trkpt lat="37.44363907855689" lon="14.389010573615545"><ele>846.0</ele><time>2026-04-29T14:16:12Z</time></trkpt><trkpt lat="37.44348647812416" lon="14.389024537852915"><ele>845.0</ele><time>2026-04-29T14:16:13Z</time></trkpt><trkpt lat="37.44333172984167" lon="14.389033274436054"><ele>845.0</ele><time>2026-04-29T14:16:14Z</time></trkpt><trkpt lat="37.44316686993321" lon="14.389037743530356"><ele>845.0</ele><time>2026-04-29T14:16:15Z</time></trkpt><trkpt lat="37.44300754890962" lon="14.389036552777451"><ele>845.0</ele><time>2026-04-29T14:16:16Z</time></trkpt><trkpt lat="37.44285104357712" lon="14.389049616723272"><ele>844.75</ele><time>2026-04-29T14:16:17Z</time></trkpt><trkpt lat="37.442698648141004" lon="14.38904179426807"><ele>844.5</ele><time>2026-04-29T14:16:18Z</time></trkpt><trkpt lat="37.442557364941635" lon="14.389005706224243"><ele>844.25</ele><time>2026-04-29T14:16:19Z</time></trkpt><trkpt lat="37.4424261482905" lon="14.388984202368201"><ele>844.0</ele><time>2026-04-29T14:16:20Z</time></trkpt><trkpt lat="37.442300472624964" lon="14.388963132572453"><ele>844.0</ele><time>2026-04-29T14:16:21Z</time></trkpt><trkpt lat="37.44216230935546" lon="14.388941101806232"><ele>844.0</ele><time>2026-04-29T14:16:22Z</time></trkpt><trkpt lat="37.442007161138925" lon="14.388927115408135"><ele>844.0</ele><time>2026-04-29T14:16:23Z</time></trkpt><trkpt lat="37.44184739380953" lon="14.388923695559615"><ele>843.75</ele><time>2026-04-29T14:16:24Z</time></trkpt><trkpt lat="37.441685220399904" lon="14.388933064749237"><ele>843.5</ele><time>2026-04-29T14:16:25Z</time></trkpt><trkpt lat="37.44154030883603" lon="14.388951688410401"><ele>843.25</ele><time>2026-04-29T14:16:26Z</time></trkpt><trkpt lat="37.441409028321424" lon="14.388981067794166"><ele>843.0</ele><time>2026-04-29T14:16:27Z</time></trkpt><trkpt lat="37.44125746293716" lon="14.389052329865537"><ele>843.0</ele><time>2026-04-29T14:16:28Z</time></trkpt><trkpt lat="37.44111057712963" lon="14.38913046025388"><ele>843.0</ele><time>2026-04-29T14:16:29Z</time></trkpt><trkpt lat="37.44098388014579" lon="14.389212905786577"><ele>843.0</ele><time>2026-04-29T14:16:30Z</time></trkpt><trkpt lat="37.440876818686526" lon="14.389259267327365"><ele>843.0</ele><time>2026-04-29T14:16:31Z</time></trkpt><trkpt lat="37.44079469304215" lon="14.389282224908996"><ele>843.0</ele><time>2026-04-29T14:16:32Z</time></trkpt><trkpt lat="37.44070055864527" lon="14.38927658292808"><ele>843.0</ele><time>2026-04-29T14:16:33Z</time></trkpt><trkpt lat="37.44057682163179" lon="14.389238510387827"><ele>843.0</ele><time>2026-04-29T14:16:34Z</time></trkpt><trkpt lat="37.44043168325291" lon="14.389203969481612"><ele>843.0</ele><time>2026-04-29T14:16:35Z</time></trkpt><trkpt lat="37.440277750531656" lon="14.389142634433625"><ele>842.25</ele><time>2026-04-29T14:16:36Z</time></trkpt><trkpt lat="37.44013333934793" lon="14.389082436246735"><ele>841.5</ele><time>2026-04-29T14:16:37.001Z</time></trkpt><trkpt lat="37.43999611327138" lon="14.38903506648646"><ele>840.75</ele><time>2026-04-29T14:16:38.001Z</time></trkpt><trkpt lat="37.43985044246729" lon="14.388990026166178"><ele>840.0</ele><time>2026-04-29T14:16:39.001Z</time></trkpt><trkpt lat="37.439707992410554" lon="14.388940072449772"><ele>839.25</ele><time>2026-04-29T14:16:40.001Z</time></trkpt><trkpt lat="37.43957451769143" lon="14.388894303648197"><ele>838.5</ele><time>2026-04-29T14:16:41.001Z</time></trkpt><trkpt lat="37.43944209742072" lon="14.388830087405953"><ele>837.75</ele><time>2026-04-29T14:16:42.001Z</time></trkpt><trkpt lat="37.43930211678338" lon="14.388806344159837"><ele>837.0</ele><time>2026-04-29T14:16:43.001Z</time></trkpt><trkpt lat="37.43917489061106" lon="14.388764210757534"><ele>837.5</ele><time>2026-04-29T14:16:44.001Z</time></trkpt><trkpt lat="37.43904815025871" lon="14.388727620155871"><ele>838.0</ele><time>2026-04-29T14:16:45.001Z</time></trkpt><trkpt lat="37.438915800297295" lon="14.38870961735687"><ele>838.5</ele><time>2026-04-29T14:16:46.001Z</time></trkpt><trkpt lat="37.43877696927978" lon="14.388705521818405"><ele>839.0</ele><time>2026-04-29T14:16:47.001Z</time></trkpt><trkpt lat="37.438630767014686" lon="14.388712578065938"><ele>839.0</ele><time>2026-04-29T14:16:48.001Z</time></trkpt><trkpt lat="37.43848515142642" lon="14.388696075522754"><ele>839.0</ele><time>2026-04-29T14:16:49.001Z</time></trkpt><trkpt lat="37.43833863954971" lon="14.388701307070516"><ele>839.0</ele><time>2026-04-29T14:16:50.001Z</time></trkpt><trkpt lat="37.43820084248246" lon="14.388707688975067"><ele>839.0</ele><time>2026-04-29T14:16:51.001Z</time></trkpt><trkpt lat="37.43807428767794" lon="14.388710305832367"><ele>838.2</ele><time>2026-04-29T14:16:52.001Z</time></trkpt><trkpt lat="37.43795883711319" lon="14.388706465842366"><ele>837.4000000000001</ele><time>2026-04-29T14:16:53.001Z</time></trkpt><trkpt lat="37.437868064692864" lon="14.388725656731248"><ele>836.6</ele><time>2026-04-29T14:16:54.001Z</time></trkpt><trkpt lat="37.43778673798519" lon="14.388762779899363"><ele>835.8</ele><time>2026-04-29T14:16:55.001Z</time></trkpt><trkpt lat="37.43774330324624" lon="14.388897669332948"><ele>835.0</ele><time>2026-04-29T14:16:56.001Z</time></trkpt><trkpt lat="37.43769912928109" lon="14.38900128367882"><ele>835.0</ele><time>2026-04-29T14:16:57.001Z</time></trkpt><trkpt lat="37.437644585491796" lon="14.389131500887888"><ele>835.0</ele><time>2026-04-29T14:16:58.001Z</time></trkpt><trkpt lat="37.43758857842142" lon="14.389281895267079"><ele>835.0</ele><time>2026-04-29T14:16:59.001Z</time></trkpt><trkpt lat="37.43753126530302" lon="14.389410347480057"><ele>835.0</ele><time>2026-04-29T14:17:00.001Z</time></trkpt><trkpt lat="37.437459633552535" lon="14.389542844639484"><ele>835.25</ele><time>2026-04-29T14:17:01.001Z</time></trkpt><trkpt lat="37.437373720843055" lon="14.389683410626782"><ele>835.5</ele><time>2026-04-29T14:17:02.001Z</time></trkpt><trkpt lat="37.43727798561339" lon="14.38982935387775"><ele>835.75</ele><time>2026-04-29T14:17:03.001Z</time></trkpt><trkpt lat="37.43717622687577" lon="14.389970520118347"><ele>836.0</ele><time>2026-04-29T14:17:04.001Z</time></trkpt><trkpt lat="37.43706604579969" lon="14.390107035433855"><ele>836.0</ele><time>2026-04-29T14:17:05Z</time></trkpt><trkpt lat="37.43695152055746" lon="14.390251038516062"><ele>836.0</ele><time>2026-04-29T14:17:06Z</time></trkpt><trkpt lat="37.43684944327249" lon="14.390401106850026"><ele>836.0</ele><time>2026-04-29T14:17:07Z</time></trkpt><trkpt lat="37.4367626932872" lon="14.390557113332282"><ele>836.0</ele><time>2026-04-29T14:17:08Z</time></trkpt><trkpt lat="37.43668176092083" lon="14.390721320413459"><ele>836.0</ele><time>2026-04-29T14:17:09Z</time></trkpt><trkpt lat="37.436605675137216" lon="14.390886961861325"><ele>836.0</ele><time>2026-04-29T14:17:10Z</time></trkpt><trkpt lat="37.436538051276465" lon="14.391039018618631"><ele>836.0</ele><time>2026-04-29T14:17:11Z</time></trkpt><trkpt lat="37.436472868526394" lon="14.39118915247312"><ele>835.75</ele><time>2026-04-29T14:17:12Z</time></trkpt><trkpt lat="37.43640501466091" lon="14.391345636520178"><ele>835.5</ele><time>2026-04-29T14:17:13Z</time></trkpt><trkpt lat="37.436335711763874" lon="14.391505462419989"><ele>835.25</ele><time>2026-04-29T14:17:14Z</time></trkpt><trkpt lat="37.436282092290924" lon="14.391669086302496"><ele>835.0</ele><time>2026-04-29T14:17:15Z</time></trkpt><trkpt lat="37.43620315964335" lon="14.391814896855616"><ele>835.0</ele><time>2026-04-29T14:17:16Z</time></trkpt><trkpt lat="37.436137913209436" lon="14.391975969205342"><ele>835.0</ele><time>2026-04-29T14:17:17Z</time></trkpt><trkpt lat="37.43607720882613" lon="14.392137491839145"><ele>835.0</ele><time>2026-04-29T14:17:18Z</time></trkpt><trkpt lat="37.436027018227485" lon="14.392295162571681"><ele>835.0</ele><time>2026-04-29T14:17:19Z</time></trkpt><trkpt lat="37.435983109245704" lon="14.39245875845204"><ele>835.75</ele><time>2026-04-29T14:17:20Z</time></trkpt><trkpt lat="37.4359514605321" lon="14.39262324935735"><ele>836.5</ele><time>2026-04-29T14:17:21Z</time></trkpt><trkpt lat="37.43591194198157" lon="14.392769172640213"><ele>837.25</ele><time>2026-04-29T14:17:22Z</time></trkpt><trkpt lat="37.43587312386312" lon="14.392899994282644"><ele>838.0</ele><time>2026-04-29T14:17:23Z</time></trkpt><trkpt lat="37.43580467000972" lon="14.393005298820862"><ele>838.75</ele><time>2026-04-29T14:17:24Z</time></trkpt><trkpt lat="37.43573410629011" lon="14.393109626541154"><ele>839.5</ele><time>2026-04-29T14:17:25Z</time></trkpt><trkpt lat="37.43564205224088" lon="14.393189547664685"><ele>840.25</ele><time>2026-04-29T14:17:26Z</time></trkpt><trkpt lat="37.43554934241302" lon="14.393273539950291"><ele>841.0</ele><time>2026-04-29T14:17:27Z</time></trkpt><trkpt lat="37.43545085862977" lon="14.3933583580348"><ele>841.0</ele><time>2026-04-29T14:17:28Z</time></trkpt><trkpt lat="37.43534560469674" lon="14.393448172214317"><ele>841.0</ele><time>2026-04-29T14:17:29Z</time></trkpt><trkpt lat="37.435226465824" lon="14.3935522701465"><ele>841.0</ele><time>2026-04-29T14:17:30Z</time></trkpt><trkpt lat="37.43509699784273" lon="14.393677399689137"><ele>841.0</ele><time>2026-04-29T14:17:31Z</time></trkpt><trkpt lat="37.43495666781405" lon="14.393822180322262"><ele>842.0</ele><time>2026-04-29T14:17:32Z</time></trkpt><trkpt lat="37.434821249511906" lon="14.39396160752695"><ele>843.0</ele><time>2026-04-29T14:17:33Z</time></trkpt><trkpt lat="37.43469548555541" lon="14.394096754845723"><ele>844.0</ele><time>2026-04-29T14:17:34Z</time></trkpt><trkpt lat="37.434565954931635" lon="14.394218726387754"><ele>844.0</ele><time>2026-04-29T14:17:35Z</time></trkpt><trkpt lat="37.43444229136374" lon="14.39434485958969"><ele>844.0</ele><time>2026-04-29T14:17:36Z</time></trkpt><trkpt lat="37.434320814674756" lon="14.394466032441485"><ele>844.0</ele><time>2026-04-29T14:17:37Z</time></trkpt><trkpt lat="37.434197476225556" lon="14.394569035132829"><ele>844.5</ele><time>2026-04-29T14:17:38Z</time></trkpt><trkpt lat="37.43408783016027" lon="14.394688500505142"><ele>845.0</ele><time>2026-04-29T14:17:39Z</time></trkpt><trkpt lat="37.433976467544674" lon="14.394815827799329"><ele>845.5</ele><time>2026-04-29T14:17:40Z</time></trkpt><trkpt lat="37.433865068756795" lon="14.394945053294474"><ele>846.0</ele><time>2026-04-29T14:17:41Z</time></trkpt><trkpt lat="37.43375263082949" lon="14.395078019659799"><ele>846.0</ele><time>2026-04-29T14:17:42Z</time></trkpt><trkpt lat="37.43363386079811" lon="14.395219976127413"><ele>846.0</ele><time>2026-04-29T14:17:43Z</time></trkpt><trkpt lat="37.43350548379757" lon="14.395374890123165"><ele>846.0</ele><time>2026-04-29T14:17:44Z</time></trkpt><trkpt lat="37.43337584696987" lon="14.395532509323687"><ele>846.0</ele><time>2026-04-29T14:17:45Z</time></trkpt><trkpt lat="37.43324762030482" lon="14.395688568217668"><ele>846.0</ele><time>2026-04-29T14:17:46Z</time></trkpt><trkpt lat="37.43313088176077" lon="14.395830645386809"><ele>846.0</ele><time>2026-04-29T14:17:47Z</time></trkpt><trkpt lat="37.43302855533056" lon="14.395955182175452"><ele>845.75</ele><time>2026-04-29T14:17:48Z</time></trkpt><trkpt lat="37.43293176588236" lon="14.396072980150493"><ele>845.5</ele><time>2026-04-29T14:17:49Z</time></trkpt><trkpt lat="37.43283262462549" lon="14.39619118407257"><ele>845.25</ele><time>2026-04-29T14:17:50Z</time></trkpt><trkpt lat="37.43272691968708" lon="14.396316907958992"><ele>845.0</ele><time>2026-04-29T14:17:51Z</time></trkpt><trkpt lat="37.43261389062026" lon="14.39644974484175"><ele>844.75</ele><time>2026-04-29T14:17:52Z</time></trkpt><trkpt lat="37.43250418217519" lon="14.396572488841503"><ele>844.5</ele><time>2026-04-29T14:17:53Z</time></trkpt><trkpt lat="37.43238930178837" lon="14.396694558221217"><ele>844.25</ele><time>2026-04-29T14:17:54Z</time></trkpt><trkpt lat="37.43227108736084" lon="14.396803911820085"><ele>844.0</ele><time>2026-04-29T14:17:55Z</time></trkpt><trkpt lat="37.432172213124495" lon="14.396941170009145"><ele>842.0</ele><time>2026-04-29T14:17:56Z</time></trkpt><trkpt lat="37.432121052920195" lon="14.39709662846364"><ele>840.0</ele><time>2026-04-29T14:17:57Z</time></trkpt><trkpt lat="37.43209241771119" lon="14.397238328876949"><ele>838.0</ele><time>2026-04-29T14:17:58Z</time></trkpt><trkpt lat="37.43201483311471" lon="14.397352213443632"><ele>836.0</ele><time>2026-04-29T14:17:59Z</time></trkpt><trkpt lat="37.43194574122802" lon="14.39745323231956"><ele>836.0</ele><time>2026-04-29T14:18:00Z</time></trkpt><trkpt lat="37.43186956528588" lon="14.397554530027568"><ele>836.0</ele><time>2026-04-29T14:18:01Z</time></trkpt><trkpt lat="37.43178389902983" lon="14.397658127242945"><ele>836.0</ele><time>2026-04-29T14:18:02Z</time></trkpt><trkpt lat="37.43167598243132" lon="14.397781665261869"><ele>836.0</ele><time>2026-04-29T14:18:03Z</time></trkpt><trkpt lat="37.43157678400395" lon="14.397889083101857"><ele>836.0</ele><time>2026-04-29T14:18:04Z</time></trkpt><trkpt lat="37.43148419933822" lon="14.397977145964495"><ele>836.0</ele><time>2026-04-29T14:18:05Z</time></trkpt><trkpt lat="37.43139961502005" lon="14.39804194048486"><ele>836.0</ele><time>2026-04-29T14:18:06Z</time></trkpt><trkpt lat="37.431307174343054" lon="14.398098421991259"><ele>836.0</ele><time>2026-04-29T14:18:07Z</time></trkpt><trkpt lat="37.431183290818296" lon="14.39814941639259"><ele>836.0</ele><time>2026-04-29T14:18:08Z</time></trkpt><trkpt lat="37.4310595233749" lon="14.39820170605326"><ele>836.25</ele><time>2026-04-29T14:18:09Z</time></trkpt><trkpt lat="37.43094757016338" lon="14.39827891651423"><ele>836.5</ele><time>2026-04-29T14:18:10Z</time></trkpt><trkpt lat="37.43084043211509" lon="14.398371666640907"><ele>836.75</ele><time>2026-04-29T14:18:11Z</time></trkpt><trkpt lat="37.4307392598641" lon="14.398481340726443"><ele>837.0</ele><time>2026-04-29T14:18:12Z</time></trkpt><trkpt lat="37.43063928729651" lon="14.39861263417123"><ele>837.0</ele><time>2026-04-29T14:18:13.001Z</time></trkpt><trkpt lat="37.43053887344092" lon="14.398750817295637"><ele>837.0</ele><time>2026-04-29T14:18:14.001Z</time></trkpt><trkpt lat="37.43044218987728" lon="14.39889096543437"><ele>837.0</ele><time>2026-04-29T14:18:15.001Z</time></trkpt><trkpt lat="37.4303523823546" lon="14.399045993552026"><ele>837.0</ele><time>2026-04-29T14:18:16.001Z</time></trkpt><trkpt lat="37.43026702628055" lon="14.399200084720718"><ele>837.5</ele><time>2026-04-29T14:18:17.001Z</time></trkpt><trkpt lat="37.4301834078234" lon="14.399351038886731"><ele>838.0</ele><time>2026-04-29T14:18:18.001Z</time></trkpt><trkpt lat="37.430098946963845" lon="14.399491197705016"><ele>838.5</ele><time>2026-04-29T14:18:19.001Z</time></trkpt><trkpt lat="37.430014597534935" lon="14.399619619414528"><ele>839.0</ele><time>2026-04-29T14:18:20.001Z</time></trkpt><trkpt lat="37.429935438646055" lon="14.399732505038648"><ele>839.0</ele><time>2026-04-29T14:18:21.001Z</time></trkpt><trkpt lat="37.429859060270104" lon="14.399827377199617"><ele>839.0</ele><time>2026-04-29T14:18:22.001Z</time></trkpt><trkpt lat="37.42976686892619" lon="14.39992715271383"><ele>839.0</ele><time>2026-04-29T14:18:23.001Z</time></trkpt><trkpt lat="37.429656339744355" lon="14.400028061129209"><ele>839.0</ele><time>2026-04-29T14:18:24.001Z</time></trkpt><trkpt lat="37.4295413043308" lon="14.40011902649661"><ele>837.0</ele><time>2026-04-29T14:18:25.001Z</time></trkpt><trkpt lat="37.42943004253287" lon="14.400202141211917"><ele>835.0</ele><time>2026-04-29T14:18:26.001Z</time></trkpt><trkpt lat="37.42929471717428" lon="14.40030323197603"><ele>833.0</ele><time>2026-04-29T14:18:27.001Z</time></trkpt><trkpt lat="37.429146863927784" lon="14.400413681345697"><ele>832.3333333333334</ele><time>2026-04-29T14:18:28.001Z</time></trkpt><trkpt lat="37.42901223633492" lon="14.400512782855705"><ele>831.6666666666667</ele><time>2026-04-29T14:18:29.001Z</time></trkpt><trkpt lat="37.428880944441886" lon="14.400609192788961"><ele>831.0</ele><time>2026-04-29T14:18:30.001Z</time></trkpt><trkpt lat="37.428746075236" lon="14.400705089434267"><ele>830.25</ele><time>2026-04-29T14:18:31.001Z</time></trkpt><trkpt lat="37.42860855835403" lon="14.400800680437737"><ele>829.5</ele><time>2026-04-29T14:18:32.001Z</time></trkpt><trkpt lat="37.42847611385258" lon="14.40088858510282"><ele>828.75</ele><time>2026-04-29T14:18:33.001Z</time></trkpt><trkpt lat="37.428351718322446" lon="14.400970916674218"><ele>828.0</ele><time>2026-04-29T14:18:34.001Z</time></trkpt><trkpt lat="37.42823051232422" lon="14.401048175787125"><ele>828.0</ele><time>2026-04-29T14:18:35.001Z</time></trkpt><trkpt lat="37.428097187290504" lon="14.401133171028153"><ele>828.0</ele><time>2026-04-29T14:18:36.001Z</time></trkpt><trkpt lat="37.42797300398643" lon="14.401212718666109"><ele>828.0</ele><time>2026-04-29T14:18:37.001Z</time></trkpt><trkpt lat="37.42785017410897" lon="14.401292310565108"><ele>828.0</ele><time>2026-04-29T14:18:38.001Z</time></trkpt><trkpt lat="37.427717547913055" lon="14.401378250337743"><ele>827.0</ele><time>2026-04-29T14:18:39.001Z</time></trkpt><trkpt lat="37.42758424924336" lon="14.40146641411041"><ele>826.0</ele><time>2026-04-29T14:18:40.001Z</time></trkpt><trkpt lat="37.42745899185322" lon="14.401553681008016"><ele>825.0</ele><time>2026-04-29T14:18:41.001Z</time></trkpt><trkpt lat="37.427332012970965" lon="14.401647329965224"><ele>824.0</ele><time>2026-04-29T14:18:42.001Z</time></trkpt><trkpt lat="37.4272091159529" lon="14.401746651393472"><ele>823.75</ele><time>2026-04-29T14:18:43.001Z</time></trkpt><trkpt lat="37.42709190787227" lon="14.401845814789226"><ele>823.5</ele><time>2026-04-29T14:18:44.001Z</time></trkpt><trkpt lat="37.426977872255875" lon="14.401953360530115"><ele>823.25</ele><time>2026-04-29T14:18:45.001Z</time></trkpt><trkpt lat="37.42687341656046" lon="14.402051942587223"><ele>823.0</ele><time>2026-04-29T14:18:46.001Z</time></trkpt><trkpt lat="37.4267721510226" lon="14.40212735477527"><ele>821.4</ele><time>2026-04-29T14:18:47.001Z</time></trkpt><trkpt lat="37.42667437962441" lon="14.402175029526493"><ele>819.8</ele><time>2026-04-29T14:18:48.001Z</time></trkpt><trkpt lat="37.42658337998694" lon="14.402188065976267"><ele>818.2</ele><time>2026-04-29T14:18:49.001Z</time></trkpt><trkpt lat="37.426478674110356" lon="14.402201685691809"><ele>816.6</ele><time>2026-04-29T14:18:50.001Z</time></trkpt><trkpt lat="37.42638780114183" lon="14.402203991556469"><ele>815.0</ele><time>2026-04-29T14:18:51.001Z</time></trkpt><trkpt lat="37.4263159760756" lon="14.402194879917353"><ele>815.1666666666667</ele><time>2026-04-29T14:18:52.001Z</time></trkpt><trkpt lat="37.426249519183294" lon="14.402190319543745"><ele>815.3333333333334</ele><time>2026-04-29T14:18:53.001Z</time></trkpt><trkpt lat="37.4261940016708" lon="14.40213186265175"><ele>815.5</ele><time>2026-04-29T14:18:54.001Z</time></trkpt><trkpt lat="37.42613833873574" lon="14.402093356954456"><ele>815.6666666666667</ele><time>2026-04-29T14:18:57.001Z</time></trkpt><trkpt lat="37.42606133168576" lon="14.402164072988693"><ele>815.8333333333334</ele><time>2026-04-29T14:18:58.001Z</time></trkpt><trkpt lat="37.426051385995656" lon="14.402265817340336"><ele>816.0</ele><time>2026-04-29T14:19:02.001Z</time></trkpt><trkpt lat="37.42611550583628" lon="14.402336122555377"><ele>816.0</ele><time>2026-04-29T14:19:03.001Z</time></trkpt><trkpt lat="37.4260335423395" lon="14.402426473133046"><ele>816.0</ele><time>2026-04-29T14:19:04.001Z</time></trkpt><trkpt lat="37.42602894993955" lon="14.402524243102707"><ele>816.0</ele><time>2026-04-29T14:19:05.001Z</time></trkpt><trkpt lat="37.42602422544685" lon="14.40260568210596"><ele>816.0</ele><time>2026-04-29T14:19:06.001Z</time></trkpt><trkpt lat="37.42600730631962" lon="14.402758480239902"><ele>816.0</ele><time>2026-04-29T14:19:08.001Z</time></trkpt><trkpt lat="37.42597587818759" lon="14.402899346428685"><ele>815.5999999999999</ele><time>2026-04-29T14:19:10.001Z</time></trkpt><trkpt lat="37.425937734475134" lon="14.403034833714246"><ele>815.2</ele><time>2026-04-29T14:19:12.001Z</time></trkpt><trkpt lat="37.42586053539725" lon="14.40318305384791"><ele>814.8</ele><time>2026-04-29T14:19:14.001Z</time></trkpt><trkpt lat="37.42580023895786" lon="14.403276551383028"><ele>814.4000000000001</ele><time>2026-04-29T14:19:15.001Z</time></trkpt><trkpt lat="37.42574823515677" lon="14.403371631763582"><ele>814.0</ele><time>2026-04-29T14:19:16.001Z</time></trkpt><trkpt lat="37.425702338599464" lon="14.403476507391828"><ele>813.9999999999999</ele><time>2026-04-29T14:19:17.001Z</time></trkpt><trkpt lat="37.425659793976195" lon="14.403574489519178"><ele>814.0</ele><time>2026-04-29T14:19:18.001Z</time></trkpt><trkpt lat="37.42561871515516" lon="14.403670195434225"><ele>814.0</ele><time>2026-04-29T14:19:19.001Z</time></trkpt><trkpt lat="37.42558146323907" lon="14.403760973776212"><ele>814.0</ele><time>2026-04-29T14:19:20.001Z</time></trkpt><trkpt lat="37.42554476943611" lon="14.403853544993122"><ele>813.9999999999999</ele><time>2026-04-29T14:19:21Z</time></trkpt><trkpt lat="37.42551233457858" lon="14.403945427915364"><ele>814.0</ele><time>2026-04-29T14:19:22Z</time></trkpt><trkpt lat="37.425486082885755" lon="14.404046979518041"><ele>813.6666666666666</ele><time>2026-04-29T14:19:23Z</time></trkpt><trkpt lat="37.42546234450985" lon="14.404157825978455"><ele>813.3333333333333</ele><time>2026-04-29T14:19:24Z</time></trkpt><trkpt lat="37.42544175003086" lon="14.404269616807548"><ele>813.0</ele><time>2026-04-29T14:19:25Z</time></trkpt><trkpt lat="37.42542325174818" lon="14.404372822449558"><ele>812.6666666666667</ele><time>2026-04-29T14:19:26Z</time></trkpt><trkpt lat="37.425406638438744" lon="14.404469464650225"><ele>812.3333333333334</ele><time>2026-04-29T14:19:27Z</time></trkpt><trkpt lat="37.425389892649946" lon="14.404566877383258"><ele>812.0</ele><time>2026-04-29T14:19:28Z</time></trkpt><trkpt lat="37.4253734224693" lon="14.404662687010998"><ele>812.5000000000001</ele><time>2026-04-29T14:19:29Z</time></trkpt><trkpt lat="37.4253540298899" lon="14.404760350279542"><ele>813.0</ele><time>2026-04-29T14:19:30Z</time></trkpt><trkpt lat="37.42533412041064" lon="14.404850941523298"><ele>813.5</ele><time>2026-04-29T14:19:31Z</time></trkpt><trkpt lat="37.425312031191716" lon="14.404951508757183"><ele>814.0</ele><time>2026-04-29T14:19:32Z</time></trkpt><trkpt lat="37.42528835623373" lon="14.405063524208586"><ele>814.5000000000001</ele><time>2026-04-29T14:19:33Z</time></trkpt><trkpt lat="37.42526348616446" lon="14.405181194171947"><ele>815.0</ele><time>2026-04-29T14:19:34Z</time></trkpt><trkpt lat="37.4252350303701" lon="14.405297023047542"><ele>815.0</ele><time>2026-04-29T14:19:35Z</time></trkpt><trkpt lat="37.425198767745414" lon="14.405406854570737"><ele>815.0</ele><time>2026-04-29T14:19:36Z</time></trkpt><trkpt lat="37.42514837377305" lon="14.40550260552252"><ele>815.0</ele><time>2026-04-29T14:19:37Z</time></trkpt><trkpt lat="37.425104466958146" lon="14.405616211531802"><ele>815.0</ele><time>2026-04-29T14:19:38Z</time></trkpt><trkpt lat="37.42506832740829" lon="14.405731634952623"><ele>815.0</ele><time>2026-04-29T14:19:39Z</time></trkpt><trkpt lat="37.42503852621952" lon="14.405843142047262"><ele>815.0000000000001</ele><time>2026-04-29T14:19:40Z</time></trkpt><trkpt lat="37.42501349524454" lon="14.405953884990431"><ele>815.0</ele><time>2026-04-29T14:19:41Z</time></trkpt><trkpt lat="37.42499464564086" lon="14.406057056906931"><ele>815.0</ele><time>2026-04-29T14:19:42Z</time></trkpt><trkpt lat="37.42497930415843" lon="14.406161895458768"><ele>815.0</ele><time>2026-04-29T14:19:43Z</time></trkpt><trkpt lat="37.42496468509617" lon="14.406270732961948"><ele>815.0000000000001</ele><time>2026-04-29T14:19:44Z</time></trkpt><trkpt lat="37.42495105206097" lon="14.406356447198513"><ele>815.0</ele><time>2026-04-29T14:19:45.001Z</time></trkpt><trkpt lat="37.42493510479274" lon="14.406434776895171"><ele>815.6</ele><time>2026-04-29T14:19:46.001Z</time></trkpt><trkpt lat="37.42491555538115" lon="14.406533827229822"><ele>816.2</ele><time>2026-04-29T14:19:47.001Z</time></trkpt><trkpt lat="37.424895676433984" lon="14.406653364724018"><ele>816.8</ele><time>2026-04-29T14:19:48.001Z</time></trkpt><trkpt lat="37.424872757161694" lon="14.406764892472614"><ele>817.4</ele><time>2026-04-29T14:19:49.001Z</time></trkpt><trkpt lat="37.42483574684361" lon="14.406868010555309"><ele>818.0</ele><time>2026-04-29T14:19:50.001Z</time></trkpt><trkpt lat="37.424808305412995" lon="14.40697732924277"><ele>818.0</ele><time>2026-04-29T14:19:51.001Z</time></trkpt><trkpt lat="37.42479215914846" lon="14.4070940754855"><ele>818.0</ele><time>2026-04-29T14:19:52.001Z</time></trkpt><trkpt lat="37.4247885104134" lon="14.407201096045645"><ele>818.0</ele><time>2026-04-29T14:19:53.001Z</time></trkpt><trkpt lat="37.424789833308274" lon="14.407288960509858"><ele>818.0</ele><time>2026-04-29T14:19:54.001Z</time></trkpt><trkpt lat="37.4247937468391" lon="14.407430707886835"><ele>818.0</ele><time>2026-04-29T14:19:56.001Z</time></trkpt><trkpt lat="37.4248010210872" lon="14.407592659730298"><ele>818.0</ele><time>2026-04-29T14:19:58.001Z</time></trkpt><trkpt lat="37.42481096438623" lon="14.407723323943591"><ele>818.0</ele><time>2026-04-29T14:19:59.001Z</time></trkpt><trkpt lat="37.42481433331282" lon="14.40783410259862"><ele>818.0</ele><time>2026-04-29T14:20:00.001Z</time></trkpt><trkpt lat="37.42480676518276" lon="14.407935264975928"><ele>818.0</ele><time>2026-04-29T14:20:01.001Z</time></trkpt><trkpt lat="37.42480384418948" lon="14.408023350222068"><ele>818.0</ele><time>2026-04-29T14:20:02.001Z</time></trkpt><trkpt lat="37.42481205306995" lon="14.40819086572832"><ele>818.0000000000001</ele><time>2026-04-29T14:20:04.001Z</time></trkpt><trkpt lat="37.42481753331434" lon="14.408289421317564"><ele>818.0</ele><time>2026-04-29T14:20:05.001Z</time></trkpt><trkpt lat="37.424796437062874" lon="14.40842329135749"><ele>818.0</ele><time>2026-04-29T14:20:07.001Z</time></trkpt><trkpt lat="37.42478175018325" lon="14.408508095526356"><ele>818.0</ele><time>2026-04-29T14:20:08.001Z</time></trkpt><trkpt lat="37.424762128627" lon="14.408637370195615"><ele>818.0000000000001</ele><time>2026-04-29T14:20:10.001Z</time></trkpt><trkpt lat="37.42477731646927" lon="14.408717111542282"><ele>818.0</ele><time>2026-04-29T14:21:37.001Z</time></trkpt><trkpt lat="37.424770164618465" lon="14.408827446682828"><ele>818.3333333333334</ele><time>2026-04-29T14:21:41.001Z</time></trkpt><trkpt lat="37.42475330612991" lon="14.408961800962375"><ele>818.6666666666667</ele><time>2026-04-29T14:21:43.001Z</time></trkpt><trkpt lat="37.42471751152671" lon="14.409037939034315"><ele>819.0</ele><time>2026-04-29T14:21:44.001Z</time></trkpt><trkpt lat="37.424670033125416" lon="14.409108226148037"><ele>819.3333333333333</ele><time>2026-04-29T14:21:45.001Z</time></trkpt><trkpt lat="37.42457868981911" lon="14.409151958428088"><ele>819.6666666666666</ele><time>2026-04-29T14:21:46.001Z</time></trkpt><trkpt lat="37.424516147365246" lon="14.409239512780864"><ele>820.0</ele><time>2026-04-29T14:21:47.001Z</time></trkpt><trkpt lat="37.4244493830274" lon="14.409331527815661"><ele>820.0</ele><time>2026-04-29T14:21:48.001Z</time></trkpt><trkpt lat="37.424378141025244" lon="14.409424954595647"><ele>820.0</ele><time>2026-04-29T14:21:49.001Z</time></trkpt><trkpt lat="37.42430690953852" lon="14.40951874936341"><ele>820.0</ele><time>2026-04-29T14:21:50.001Z</time></trkpt><trkpt lat="37.42423772582701" lon="14.409609847667111"><ele>820.0</ele><time>2026-04-29T14:21:51.001Z</time></trkpt><trkpt lat="37.42417468602438" lon="14.40969662213269"><ele>820.0</ele><time>2026-04-29T14:21:52.001Z</time></trkpt><trkpt lat="37.424119613312165" lon="14.409778873715819"><ele>820.4</ele><time>2026-04-29T14:21:53.001Z</time></trkpt><trkpt lat="37.42406186974738" lon="14.409868201920824"><ele>820.8</ele><time>2026-04-29T14:21:54.001Z</time></trkpt><trkpt lat="37.424001543401346" lon="14.409971272076044"><ele>821.2</ele><time>2026-04-29T14:21:55.001Z</time></trkpt><trkpt lat="37.42394833261696" lon="14.410072587573957"><ele>821.6</ele><time>2026-04-29T14:21:56.001Z</time></trkpt><trkpt lat="37.4238988796517" lon="14.410181701877312"><ele>822.0</ele><time>2026-04-29T14:21:57.001Z</time></trkpt><trkpt lat="37.423859018118726" lon="14.410294338343022"><ele>822.0</ele><time>2026-04-29T14:21:58.001Z</time></trkpt><trkpt lat="37.42383245038782" lon="14.410421383329654"><ele>822.0</ele><time>2026-04-29T14:21:59.001Z</time></trkpt><trkpt lat="37.423803450327604" lon="14.410534464215013"><ele>822.0</ele><time>2026-04-29T14:22:00.001Z</time></trkpt><trkpt lat="37.42377122736633" lon="14.410644829689318"><ele>822.0</ele><time>2026-04-29T14:22:01.001Z</time></trkpt><trkpt lat="37.42375146110416" lon="14.4107639001932"><ele>822.0</ele><time>2026-04-29T14:22:02.001Z</time></trkpt><trkpt lat="37.423699833711574" lon="14.410880319627383"><ele>821.0</ele><time>2026-04-29T14:22:03.001Z</time></trkpt><trkpt lat="37.423656191447826" lon="14.411021377519765"><ele>820.0</ele><time>2026-04-29T14:22:04.001Z</time></trkpt><trkpt lat="37.42361091667107" lon="14.411154349535018"><ele>819.0</ele><time>2026-04-29T14:22:05.001Z</time></trkpt><trkpt lat="37.42355875196795" lon="14.411270417689693"><ele>818.0</ele><time>2026-04-29T14:22:06.001Z</time></trkpt><trkpt lat="37.42350676842824" lon="14.411371502851072"><ele>817.0</ele><time>2026-04-29T14:22:07.001Z</time></trkpt><trkpt lat="37.42345778999394" lon="14.411473619157942"><ele>817.0</ele><time>2026-04-29T14:22:08.001Z</time></trkpt><trkpt lat="37.423412045981266" lon="14.411590440482396"><ele>817.0</ele><time>2026-04-29T14:22:09.001Z</time></trkpt><trkpt lat="37.42336915689683" lon="14.411718874712022"><ele>817.0</ele><time>2026-04-29T14:22:10.001Z</time></trkpt><trkpt lat="37.42333065214731" lon="14.411835208379847"><ele>817.0</ele><time>2026-04-29T14:22:11.001Z</time></trkpt><trkpt lat="37.42328666683604" lon="14.411953299181405"><ele>817.0</ele><time>2026-04-29T14:22:12.001Z</time></trkpt><trkpt lat="37.423238422215476" lon="14.412080302375625"><ele>817.0</ele><time>2026-04-29T14:22:13.001Z</time></trkpt><trkpt lat="37.423188794029016" lon="14.412204472483447"><ele>817.0</ele><time>2026-04-29T14:22:14.001Z</time></trkpt><trkpt lat="37.42314220382015" lon="14.412311184399215"><ele>817.0</ele><time>2026-04-29T14:22:15.001Z</time></trkpt><trkpt lat="37.42309449475697" lon="14.412397945551142"><ele>817.0</ele><time>2026-04-29T14:22:16.001Z</time></trkpt><trkpt lat="37.42303383279045" lon="14.412485411335233"><ele>817.0</ele><time>2026-04-29T14:22:17.001Z</time></trkpt><trkpt lat="37.42296455527232" lon="14.41254314761148"><ele>816.2</ele><time>2026-04-29T14:22:18.001Z</time></trkpt><trkpt lat="37.42288252503922" lon="14.412593513965948"><ele>815.4000000000001</ele><time>2026-04-29T14:22:19.001Z</time></trkpt><trkpt lat="37.422783996244995" lon="14.412657933697199"><ele>814.5999999999999</ele><time>2026-04-29T14:22:20.001Z</time></trkpt><trkpt lat="37.42269355563657" lon="14.412724892561009"><ele>813.8</ele><time>2026-04-29T14:22:21.001Z</time></trkpt><trkpt lat="37.422616100610995" lon="14.412790919143234"><ele>813.0</ele><time>2026-04-29T14:22:22.001Z</time></trkpt><trkpt lat="37.42254800098742" lon="14.412850031496788"><ele>813.0</ele><time>2026-04-29T14:22:23.001Z</time></trkpt><trkpt lat="37.42248618202992" lon="14.412907411579871"><ele>813.0</ele><time>2026-04-29T14:22:24.001Z</time></trkpt><trkpt lat="37.42238145530699" lon="14.412940765170994"><ele>813.0</ele><time>2026-04-29T14:22:26.001Z</time></trkpt><trkpt lat="37.42230332464911" lon="14.412956593794354"><ele>813.0</ele><time>2026-04-29T14:22:28.001Z</time></trkpt><trkpt lat="37.42226014517822" lon="14.412888552330811"><ele>813.0</ele><time>2026-04-29T14:22:29.001Z</time></trkpt><trkpt lat="37.42221254056857" lon="14.412799327642412"><ele>813.0</ele><time>2026-04-29T14:22:30.001Z</time></trkpt><trkpt lat="37.422156596085685" lon="14.412683217690109"><ele>813.5999999999999</ele><time>2026-04-29T14:22:31.001Z</time></trkpt><trkpt lat="37.42210494953203" lon="14.41257476012517"><ele>814.1999999999999</ele><time>2026-04-29T14:22:32.001Z</time></trkpt><trkpt lat="37.422051294138285" lon="14.412478224091775"><ele>814.8</ele><time>2026-04-29T14:22:33.001Z</time></trkpt><trkpt lat="37.421987907370415" lon="14.412361314701828"><ele>815.4</ele><time>2026-04-29T14:22:34.001Z</time></trkpt><trkpt lat="37.4219180874948" lon="14.412229847450444"><ele>816.0</ele><time>2026-04-29T14:22:35.001Z</time></trkpt><trkpt lat="37.421836023274224" lon="14.41210128919112"><ele>816.0</ele><time>2026-04-29T14:22:36.001Z</time></trkpt><trkpt lat="37.42175751456925" lon="14.411988658331595"><ele>816.0</ele><time>2026-04-29T14:22:37.001Z</time></trkpt><trkpt lat="37.42167903827451" lon="14.411885916449467"><ele>816.0</ele><time>2026-04-29T14:22:38.001Z</time></trkpt><trkpt lat="37.42160003919011" lon="14.411794082797062"><ele>816.0</ele><time>2026-04-29T14:22:39.001Z</time></trkpt><trkpt lat="37.421505740496926" lon="14.411718533537325"><ele>816.0</ele><time>2026-04-29T14:22:40.001Z</time></trkpt><trkpt lat="37.42140378543208" lon="14.411661467817932"><ele>816.0</ele><time>2026-04-29T14:22:41.001Z</time></trkpt><trkpt lat="37.42129819885746" lon="14.411609845633794"><ele>816.0</ele><time>2026-04-29T14:22:42.001Z</time></trkpt><trkpt lat="37.421183596662104" lon="14.411552965977835"><ele>816.0</ele><time>2026-04-29T14:22:43.001Z</time></trkpt><trkpt lat="37.4210698377608" lon="14.411476587459521"><ele>815.5</ele><time>2026-04-29T14:22:44.001Z</time></trkpt><trkpt lat="37.42094308410207" lon="14.411398228140648"><ele>815.0</ele><time>2026-04-29T14:22:45.001Z</time></trkpt><trkpt lat="37.42081832933723" lon="14.411333043317766"><ele>814.5</ele><time>2026-04-29T14:22:46.001Z</time></trkpt><trkpt lat="37.42069614323911" lon="14.411265064784288"><ele>814.0</ele><time>2026-04-29T14:22:47.001Z</time></trkpt><trkpt lat="37.42057834233971" lon="14.411198891336499"><ele>814.0</ele><time>2026-04-29T14:22:48.001Z</time></trkpt><trkpt lat="37.42045666582929" lon="14.411129977792196"><ele>814.0</ele><time>2026-04-29T14:22:49.001Z</time></trkpt><trkpt lat="37.42031938545836" lon="14.411037709556638"><ele>814.0</ele><time>2026-04-29T14:22:50.001Z</time></trkpt><trkpt lat="37.420185019601426" lon="14.410949281283285"><ele>814.0</ele><time>2026-04-29T14:22:51.001Z</time></trkpt><trkpt lat="37.42005018301211" lon="14.410873392493079"><ele>814.0</ele><time>2026-04-29T14:22:52.001Z</time></trkpt><trkpt lat="37.41991584068886" lon="14.410803343346982"><ele>814.0</ele><time>2026-04-29T14:22:53.001Z</time></trkpt><trkpt lat="37.41979674258586" lon="14.410709105077029"><ele>814.0</ele><time>2026-04-29T14:22:54.001Z</time></trkpt><trkpt lat="37.41966065066431" lon="14.41064885658567"><ele>814.0</ele><time>2026-04-29T14:22:55.001Z</time></trkpt><trkpt lat="37.41952430480505" lon="14.410559412408624"><ele>813.0</ele><time>2026-04-29T14:22:56.001Z</time></trkpt><trkpt lat="37.41938424061877" lon="14.410487313633812"><ele>812.0</ele><time>2026-04-29T14:22:57.001Z</time></trkpt><trkpt lat="37.41924882320342" lon="14.410434703075813"><ele>811.0</ele><time>2026-04-29T14:22:58.001Z</time></trkpt><trkpt lat="37.41910141162688" lon="14.41037274127003"><ele>810.0</ele><time>2026-04-29T14:22:59.001Z</time></trkpt><trkpt lat="37.41897274069887" lon="14.410307731699444"><ele>810.0</ele><time>2026-04-29T14:23:00.001Z</time></trkpt><trkpt lat="37.41886454659592" lon="14.410208800248157"><ele>810.0</ele><time>2026-04-29T14:23:01.001Z</time></trkpt><trkpt lat="37.41874125494152" lon="14.41011926310867"><ele>810.0</ele><time>2026-04-29T14:23:02.001Z</time></trkpt><trkpt lat="37.41861571140795" lon="14.410000879527257"><ele>810.0</ele><time>2026-04-29T14:23:03.001Z</time></trkpt><trkpt lat="37.418490656065174" lon="14.409888792816293"><ele>810.5</ele><time>2026-04-29T14:23:04.001Z</time></trkpt><trkpt lat="37.418388538944065" lon="14.409763421470807"><ele>811.0</ele><time>2026-04-29T14:23:05.001Z</time></trkpt><trkpt lat="37.41830181373646" lon="14.409670187310828"><ele>811.5</ele><time>2026-04-29T14:23:06.001Z</time></trkpt><trkpt lat="37.418213324570736" lon="14.409585697874672"><ele>812.0</ele><time>2026-04-29T14:23:07.001Z</time></trkpt><trkpt lat="37.41812556512216" lon="14.409521184280127"><ele>812.2</ele><time>2026-04-29T14:23:08.001Z</time></trkpt><trkpt lat="37.4180289588964" lon="14.409474011151127"><ele>812.4000000000001</ele><time>2026-04-29T14:23:09.001Z</time></trkpt><trkpt lat="37.41795041901897" lon="14.409438171441044"><ele>812.5999999999999</ele><time>2026-04-29T14:23:10.001Z</time></trkpt><trkpt lat="37.41783662357169" lon="14.409570553466649"><ele>812.8</ele><time>2026-04-29T14:23:11.001Z</time></trkpt><trkpt lat="37.41773482112671" lon="14.409610458116019"><ele>813.0</ele><time>2026-04-29T14:23:12.001Z</time></trkpt><trkpt lat="37.41760642187259" lon="14.409709755806936"><ele>811.5</ele><time>2026-04-29T14:23:13.001Z</time></trkpt><trkpt lat="37.41751078291445" lon="14.409849646040822"><ele>810.0</ele><time>2026-04-29T14:23:14.001Z</time></trkpt><trkpt lat="37.41744210419785" lon="14.409973257726715"><ele>808.5</ele><time>2026-04-29T14:23:15.001Z</time></trkpt><trkpt lat="37.41737216898092" lon="14.410093595859571"><ele>807.0</ele><time>2026-04-29T14:23:16.001Z</time></trkpt><trkpt lat="37.4172904970977" lon="14.410228870378184"><ele>807.0</ele><time>2026-04-29T14:23:17.001Z</time></trkpt><trkpt lat="37.41720814030181" lon="14.410357458261059"><ele>807.0</ele><time>2026-04-29T14:23:18.001Z</time></trkpt><trkpt lat="37.4171113323381" lon="14.410472412849266"><ele>807.0</ele><time>2026-04-29T14:23:19.001Z</time></trkpt><trkpt lat="37.4170201079586" lon="14.410570667030004"><ele>807.0</ele><time>2026-04-29T14:23:20.001Z</time></trkpt><trkpt lat="37.41692929264874" lon="14.41067677301944"><ele>804.5</ele><time>2026-04-29T14:23:21.001Z</time></trkpt><trkpt lat="37.41682424334824" lon="14.410800906383658"><ele>802.0</ele><time>2026-04-29T14:23:22.001Z</time></trkpt><trkpt lat="37.41673595379293" lon="14.41090523538168"><ele>799.5</ele><time>2026-04-29T14:23:23.001Z</time></trkpt><trkpt lat="37.41666027751214" lon="14.410994659638906"><ele>797.0</ele><time>2026-04-29T14:23:24.001Z</time></trkpt><trkpt lat="37.4165943297536" lon="14.411069038428543"><ele>797.0</ele><time>2026-04-29T14:23:25.001Z</time></trkpt><trkpt lat="37.41652669275331" lon="14.411138669053157"><ele>797.0</ele><time>2026-04-29T14:23:26.001Z</time></trkpt><trkpt lat="37.416456595957285" lon="14.411205454751958"><ele>797.0</ele><time>2026-04-29T14:23:27.001Z</time></trkpt><trkpt lat="37.41636498020028" lon="14.41128244141064"><ele>797.0</ele><time>2026-04-29T14:23:28.001Z</time></trkpt><trkpt lat="37.416284885508" lon="14.411340433170874"><ele>797.0</ele><time>2026-04-29T14:23:29.001Z</time></trkpt><trkpt lat="37.416204405991635" lon="14.411395558570247"><ele>797.3333333333334</ele><time>2026-04-29T14:23:30.001Z</time></trkpt><trkpt lat="37.41613375268136" lon="14.411444164588254"><ele>797.6666666666667</ele><time>2026-04-29T14:23:31.001Z</time></trkpt><trkpt lat="37.41607001113501" lon="14.411489926396074"><ele>798.0</ele><time>2026-04-29T14:23:32.001Z</time></trkpt><trkpt lat="37.41600742661005" lon="14.411534857503026"><ele>798.3333333333333</ele><time>2026-04-29T14:23:33.001Z</time></trkpt><trkpt lat="37.41594985282148" lon="14.411576191269873"><ele>798.6666666666666</ele><time>2026-04-29T14:23:34.001Z</time></trkpt><trkpt lat="37.41585668759383" lon="14.411639222352605"><ele>799.0</ele><time>2026-04-29T14:23:36.001Z</time></trkpt><trkpt lat="37.41578801393474" lon="14.411681112619066"><ele>799.0</ele><time>2026-04-29T14:23:38.001Z</time></trkpt><trkpt lat="37.41571444376676" lon="14.411724832812006"><ele>799.0</ele><time>2026-04-29T14:23:40.001Z</time></trkpt><trkpt lat="37.41560939227617" lon="14.411787259936037"><ele>799.0</ele><time>2026-04-29T14:23:42.001Z</time></trkpt><trkpt lat="37.41552122265182" lon="14.411839654937552"><ele>799.0</ele><time>2026-04-29T14:23:44.001Z</time></trkpt><trkpt lat="37.41542283630497" lon="14.411879768727177"><ele>799.0</ele><time>2026-04-29T14:23:46.001Z</time></trkpt><trkpt lat="37.41533443684825" lon="14.411860002904293"><ele>799.4000000000001</ele><time>2026-04-29T14:23:48.001Z</time></trkpt><trkpt lat="37.4152190274805" lon="14.411799676916637"><ele>799.8</ele><time>2026-04-29T14:23:50.001Z</time></trkpt><trkpt lat="37.415134556514374" lon="14.411761406775835"><ele>800.2</ele><time>2026-04-29T14:23:51.001Z</time></trkpt><trkpt lat="37.415042199345464" lon="14.411719476104432"><ele>800.5999999999999</ele><time>2026-04-29T14:23:52.001Z</time></trkpt><trkpt lat="37.41496591053565" lon="14.411696393154019"><ele>801.0</ele><time>2026-04-29T14:23:53.001Z</time></trkpt><trkpt lat="37.414891117630184" lon="14.411685013803693"><ele>801.0</ele><time>2026-04-29T14:23:54.001Z</time></trkpt><trkpt lat="37.41482473540373" lon="14.41165976981542"><ele>801.0</ele><time>2026-04-29T14:23:55.001Z</time></trkpt><trkpt lat="37.41476298530501" lon="14.411622365967013"><ele>801.0</ele><time>2026-04-29T14:23:56.001Z</time></trkpt><trkpt lat="37.414706081194126" lon="14.411485468455027"><ele>801.0</ele><time>2026-04-29T14:23:58.001Z</time></trkpt><trkpt lat="37.41467037818933" lon="14.411392888312882"><ele>801.0</ele><time>2026-04-29T14:23:59.001Z</time></trkpt><trkpt lat="37.41462505944581" lon="14.411302447422218"><ele>801.0</ele><time>2026-04-29T14:24:00.001Z</time></trkpt><trkpt lat="37.41457571912448" lon="14.411220079758813"><ele>802.0</ele><time>2026-04-29T14:24:01.001Z</time></trkpt><trkpt lat="37.41453417067546" lon="14.411132536664093"><ele>803.0</ele><time>2026-04-29T14:24:02.001Z</time></trkpt><trkpt lat="37.41445731555981" lon="14.411062448769536"><ele>804.0</ele><time>2026-04-29T14:24:04.001Z</time></trkpt><trkpt lat="37.41439010955233" lon="14.411108465756685"><ele>805.0</ele><time>2026-04-29T14:24:05.001Z</time></trkpt><trkpt lat="37.41432046839146" lon="14.411176991701527"><ele>806.0</ele><time>2026-04-29T14:24:06.001Z</time></trkpt><trkpt lat="37.41426255062713" lon="14.411232402314003"><ele>807.0</ele><time>2026-04-29T14:24:07.001Z</time></trkpt><trkpt lat="37.41418552822452" lon="14.411238792416473"><ele>807.0</ele><time>2026-04-29T14:24:08.001Z</time></trkpt><trkpt lat="37.41411005182004" lon="14.411217011437616"><ele>807.0</ele><time>2026-04-29T14:24:09.001Z</time></trkpt><trkpt lat="37.41402296743771" lon="14.411154112648404"><ele>807.0</ele><time>2026-04-29T14:24:10.001Z</time></trkpt><trkpt lat="37.41392850586641" lon="14.41108637955707"><ele>807.0</ele><time>2026-04-29T14:24:11.001Z</time></trkpt><trkpt lat="37.41383775446516" lon="14.411041242366569"><ele>807.0</ele><time>2026-04-29T14:24:12.001Z</time></trkpt><trkpt lat="37.41375377085326" lon="14.410994889218546"><ele>808.6666666666666</ele><time>2026-04-29T14:24:13.001Z</time></trkpt><trkpt lat="37.413646559102794" lon="14.410979341446668"><ele>810.3333333333333</ele><time>2026-04-29T14:24:15.001Z</time></trkpt><trkpt lat="37.41359101922389" lon="14.411093480230395"><ele>812.0</ele><time>2026-04-29T14:24:18.001Z</time></trkpt><trkpt lat="37.413558278103636" lon="14.411168771664858"><ele>813.6666666666666</ele><time>2026-04-29T14:24:19.001Z</time></trkpt><trkpt lat="37.41350937049652" lon="14.411236227212184"><ele>815.3333333333333</ele><time>2026-04-29T14:24:20.001Z</time></trkpt><trkpt lat="37.4134959307369" lon="14.411329526970016"><ele>817.0</ele><time>2026-04-29T14:24:21.001Z</time></trkpt><trkpt lat="37.41349671727148" lon="14.411440792592517"><ele>818.75</ele><time>2026-04-29T14:24:22.001Z</time></trkpt><trkpt lat="37.41349175750235" lon="14.411556610693914"><ele>820.5</ele><time>2026-04-29T14:24:23.001Z</time></trkpt><trkpt lat="37.41347535066932" lon="14.411699167956453"><ele>822.25</ele><time>2026-04-29T14:24:24.001Z</time></trkpt><trkpt lat="37.41345186276103" lon="14.411870654799598"><ele>824.0</ele><time>2026-04-29T14:24:25.001Z</time></trkpt><trkpt lat="37.413427930050325" lon="14.412012616494133"><ele>824.0</ele><time>2026-04-29T14:24:26.001Z</time></trkpt><trkpt lat="37.41340636986095" lon="14.412145855244017"><ele>824.0</ele><time>2026-04-29T14:24:27.001Z</time></trkpt><trkpt lat="37.413384598003574" lon="14.412291205792753"><ele>824.0</ele><time>2026-04-29T14:24:28.001Z</time></trkpt><trkpt lat="37.413359206349156" lon="14.412427408480674"><ele>824.0</ele><time>2026-04-29T14:24:29.001Z</time></trkpt><trkpt lat="37.413324627485856" lon="14.412551012867025"><ele>824.0</ele><time>2026-04-29T14:24:30.001Z</time></trkpt><trkpt lat="37.41329103148089" lon="14.41264868077445"><ele>824.4000000000001</ele><time>2026-04-29T14:24:31.001Z</time></trkpt><trkpt lat="37.41324245258091" lon="14.412713588923692"><ele>824.8</ele><time>2026-04-29T14:24:32.001Z</time></trkpt><trkpt lat="37.413161648140566" lon="14.412812208092955"><ele>825.2</ele><time>2026-04-29T14:24:33.001Z</time></trkpt><trkpt lat="37.41305917374048" lon="14.41290551656327"><ele>825.5999999999999</ele><time>2026-04-29T14:24:34.001Z</time></trkpt><trkpt lat="37.41296800982812" lon="14.412991174339155"><ele>826.0</ele><time>2026-04-29T14:24:35.001Z</time></trkpt><trkpt lat="37.41288784953578" lon="14.413097125486118"><ele>830.25</ele><time>2026-04-29T14:24:36.001Z</time></trkpt><trkpt lat="37.412783300782166" lon="14.41323525330314"><ele>834.5</ele><time>2026-04-29T14:24:37.001Z</time></trkpt><trkpt lat="37.41268231881956" lon="14.413351600186294"><ele>838.75</ele><time>2026-04-29T14:24:38.001Z</time></trkpt><trkpt lat="37.41257975387924" lon="14.413458720884192"><ele>843.0</ele><time>2026-04-29T14:24:39.001Z</time></trkpt><trkpt lat="37.412484884595415" lon="14.41356410995667"><ele>843.0</ele><time>2026-04-29T14:24:40.001Z</time></trkpt><trkpt lat="37.412377731653436" lon="14.413634083519321"><ele>843.0</ele><time>2026-04-29T14:24:41.001Z</time></trkpt><trkpt lat="37.41225522890504" lon="14.413716407870934"><ele>843.0</ele><time>2026-04-29T14:24:42.001Z</time></trkpt><trkpt lat="37.41213943030972" lon="14.413811255524205"><ele>843.0</ele><time>2026-04-29T14:24:43.001Z</time></trkpt><trkpt lat="37.41202828522151" lon="14.413911952712986"><ele>845.25</ele><time>2026-04-29T14:24:44.001Z</time></trkpt><trkpt lat="37.41191952016919" lon="14.41400230689921"><ele>847.5</ele><time>2026-04-29T14:24:45.001Z</time></trkpt><trkpt lat="37.41180715740204" lon="14.414077181027398"><ele>849.75</ele><time>2026-04-29T14:24:46.001Z</time></trkpt><trkpt lat="37.411692341245136" lon="14.414153678455502"><ele>852.0</ele><time>2026-04-29T14:24:47.001Z</time></trkpt><trkpt lat="37.411583352680076" lon="14.414223093290214"><ele>852.0</ele><time>2026-04-29T14:24:48.001Z</time></trkpt><trkpt lat="37.411457753877656" lon="14.41429457763082"><ele>852.0</ele><time>2026-04-29T14:24:49.001Z</time></trkpt><trkpt lat="37.41132560075892" lon="14.414363182503129"><ele>852.0</ele><time>2026-04-29T14:24:50.001Z</time></trkpt><trkpt lat="37.41120910858244" lon="14.4144177343799"><ele>852.0</ele><time>2026-04-29T14:24:51.001Z</time></trkpt><trkpt lat="37.41111293397471" lon="14.414459158240046"><ele>851.4000000000001</ele><time>2026-04-29T14:24:52.001Z</time></trkpt><trkpt lat="37.41103564271904" lon="14.414495744200737"><ele>850.8000000000001</ele><time>2026-04-29T14:24:53.001Z</time></trkpt><trkpt lat="37.41098225391508" lon="14.41455467059114"><ele>850.2</ele><time>2026-04-29T14:24:54.001Z</time></trkpt><trkpt lat="37.410938516471305" lon="14.414640947501468"><ele>849.6</ele><time>2026-04-29T14:24:55.001Z</time></trkpt><trkpt lat="37.410896179253015" lon="14.414761046777484"><ele>849.0</ele><time>2026-04-29T14:24:56.001Z</time></trkpt><trkpt lat="37.410854397145364" lon="14.414913854671395"><ele>848.5</ele><time>2026-04-29T14:24:57.001Z</time></trkpt><trkpt lat="37.410814567591196" lon="14.41506290085494"><ele>848.0</ele><time>2026-04-29T14:24:58.001Z</time></trkpt><trkpt lat="37.4107734075604" lon="14.41519944201074"><ele>847.5</ele><time>2026-04-29T14:24:59.001Z</time></trkpt><trkpt lat="37.41072527644492" lon="14.415342005681543"><ele>847.0</ele><time>2026-04-29T14:25:00.001Z</time></trkpt><trkpt lat="37.41067970249024" lon="14.41547740662739"><ele>847.2</ele><time>2026-04-29T14:25:01.001Z</time></trkpt><trkpt lat="37.410647390282946" lon="14.4155982080893"><ele>847.4000000000001</ele><time>2026-04-29T14:25:02.001Z</time></trkpt><trkpt lat="37.4106304999271" lon="14.415700108668894"><ele>847.5999999999999</ele><time>2026-04-29T14:25:03.001Z</time></trkpt><trkpt lat="37.410633450212565" lon="14.415791243366618"><ele>847.8</ele><time>2026-04-29T14:25:05.001Z</time></trkpt><trkpt lat="37.41065080039146" lon="14.415922012512144"><ele>848.0</ele><time>2026-04-29T14:25:07.001Z</time></trkpt><trkpt lat="37.410665449257145" lon="14.41608315782074"><ele>848.0000000000001</ele><time>2026-04-29T14:25:09.001Z</time></trkpt><trkpt lat="37.41069076647087" lon="14.416180425648557"><ele>848.0</ele><time>2026-04-29T14:25:10.001Z</time></trkpt><trkpt lat="37.410755576903476" lon="14.416295583307841"><ele>848.0</ele><time>2026-04-29T14:25:12.001Z</time></trkpt><trkpt lat="37.410805241677195" lon="14.416346489887884"><ele>848.0</ele><time>2026-04-29T14:25:13.001Z</time></trkpt><trkpt lat="37.41085658884575" lon="14.416402909934078"><ele>848.0000000000001</ele><time>2026-04-29T14:25:14.001Z</time></trkpt><trkpt lat="37.410903788294725" lon="14.416525533936575"><ele>848.0</ele><time>2026-04-29T14:25:16.001Z</time></trkpt><trkpt lat="37.41092325492908" lon="14.416607743447065"><ele>847.2</ele><time>2026-04-29T14:25:17.001Z</time></trkpt><trkpt lat="37.41095683014742" lon="14.416743585445403"><ele>846.4</ele><time>2026-04-29T14:25:19.001Z</time></trkpt><trkpt lat="37.4109805966988" lon="14.416854554819416"><ele>845.6</ele><time>2026-04-29T14:25:21.001Z</time></trkpt><trkpt lat="37.41099699963834" lon="14.416958364919596"><ele>844.8000000000001</ele><time>2026-04-29T14:25:23.001Z</time></trkpt><trkpt lat="37.411012227783836" lon="14.417082175392558"><ele>844.0</ele><time>2026-04-29T14:25:25.001Z</time></trkpt><trkpt lat="37.41101727705097" lon="14.417184968519921"><ele>846.0</ele><time>2026-04-29T14:25:26.001Z</time></trkpt><trkpt lat="37.411025665646726" lon="14.417278015892634"><ele>848.0</ele><time>2026-04-29T14:25:27.001Z</time></trkpt><trkpt lat="37.41104376384558" lon="14.41736305879407"><ele>850.0</ele><time>2026-04-29T14:25:28.001Z</time></trkpt><trkpt lat="37.41107374193077" lon="14.417449111432878"><ele>852.0</ele><time>2026-04-29T14:25:29.001Z</time></trkpt><trkpt lat="37.411093746350964" lon="14.4175305586444"><ele>854.0</ele><time>2026-04-29T14:25:30.001Z</time></trkpt><trkpt lat="37.41111191665639" lon="14.417624929850257"><ele>856.0</ele><time>2026-04-29T14:25:31Z</time></trkpt><trkpt lat="37.4111166945864" lon="14.417712775795554"><ele>858.0</ele><time>2026-04-29T14:25:32Z</time></trkpt><trkpt lat="37.41110500202945" lon="14.41779411052332"><ele>858.0</ele><time>2026-04-29T14:25:33Z</time></trkpt><trkpt lat="37.41108133561937" lon="14.417874714880599"><ele>858.0</ele><time>2026-04-29T14:25:34Z</time></trkpt><trkpt lat="37.41103874285976" lon="14.417971096026056"><ele>858.0</ele><time>2026-04-29T14:25:35Z</time></trkpt><trkpt lat="37.411012120677256" lon="14.418046748326448"><ele>858.0</ele><time>2026-04-29T14:25:36Z</time></trkpt><trkpt lat="37.41097996480698" lon="14.418163013137244"><ele>858.0</ele><time>2026-04-29T14:25:38Z</time></trkpt><trkpt lat="37.41093049035731" lon="14.418297439043686"><ele>858.0</ele><time>2026-04-29T14:25:40Z</time></trkpt><trkpt lat="37.41088929129068" lon="14.418359965957205"><ele>856.6666666666666</ele><time>2026-04-29T14:25:41Z</time></trkpt><trkpt lat="37.41083182598097" lon="14.418407514211962"><ele>855.3333333333333</ele><time>2026-04-29T14:25:42Z</time></trkpt><trkpt lat="37.4107654582045" lon="14.418473078708622"><ele>854.0</ele><time>2026-04-29T14:25:43Z</time></trkpt><trkpt lat="37.410699608178874" lon="14.418547201100969"><ele>852.6666666666666</ele><time>2026-04-29T14:25:44Z</time></trkpt><trkpt lat="37.410637660609545" lon="14.418611375587362"><ele>851.3333333333333</ele><time>2026-04-29T14:25:45Z</time></trkpt><trkpt lat="37.41057975060202" lon="14.418678224542067"><ele>850.0</ele><time>2026-04-29T14:25:46Z</time></trkpt><trkpt lat="37.41050704101153" lon="14.418755201946286"><ele>850.0</ele><time>2026-04-29T14:25:47Z</time></trkpt><trkpt lat="37.41043447798516" lon="14.418836819428865"><ele>850.0</ele><time>2026-04-29T14:25:48Z</time></trkpt><trkpt lat="37.41035118775171" lon="14.418941100642638"><ele>850.0</ele><time>2026-04-29T14:25:49Z</time></trkpt><trkpt lat="37.410275368680644" lon="14.419044570591032"><ele>850.0</ele><time>2026-04-29T14:25:50Z</time></trkpt><trkpt lat="37.41021085379217" lon="14.41914531661266"><ele>850.0</ele><time>2026-04-29T14:25:51Z</time></trkpt><trkpt lat="37.41015598704817" lon="14.41924194819612"><ele>849.9999999999999</ele><time>2026-04-29T14:25:52Z</time></trkpt><trkpt lat="37.41011414008283" lon="14.419330726073113"><ele>850.0</ele><time>2026-04-29T14:25:53Z</time></trkpt><trkpt lat="37.410079242040084" lon="14.419430954911192"><ele>850.0</ele><time>2026-04-29T14:25:54Z</time></trkpt><trkpt lat="37.41005188609216" lon="14.419531058294405"><ele>850.0</ele><time>2026-04-29T14:25:55Z</time></trkpt><trkpt lat="37.41003321942453" lon="14.419627108351651"><ele>849.9999999999999</ele><time>2026-04-29T14:25:56Z</time></trkpt><trkpt lat="37.41001622329021" lon="14.419744238514237"><ele>850.0</ele><time>2026-04-29T14:25:57Z</time></trkpt><trkpt lat="37.41000716111667" lon="14.419888503745842"><ele>848.4</ele><time>2026-04-29T14:25:58Z</time></trkpt><trkpt lat="37.41000183018551" lon="14.420041928016536"><ele>846.8</ele><time>2026-04-29T14:25:59Z</time></trkpt><trkpt lat="37.410000546808455" lon="14.420183449070942"><ele>845.2</ele><time>2026-04-29T14:26:00Z</time></trkpt><trkpt lat="37.41000721624462" lon="14.420306577974042"><ele>843.6</ele><time>2026-04-29T14:26:01Z</time></trkpt><trkpt lat="37.41001085071796" lon="14.420429694653881"><ele>842.0</ele><time>2026-04-29T14:26:02Z</time></trkpt><trkpt lat="37.410010404747624" lon="14.420550743765585"><ele>841.4000000000001</ele><time>2026-04-29T14:26:03Z</time></trkpt><trkpt lat="37.410012917134274" lon="14.42066705972202"><ele>840.8000000000001</ele><time>2026-04-29T14:26:04Z</time></trkpt><trkpt lat="37.410015605923796" lon="14.420783208832134"><ele>840.2</ele><time>2026-04-29T14:26:05Z</time></trkpt><trkpt lat="37.410022750081545" lon="14.42089791875574"><ele>839.6</ele><time>2026-04-29T14:26:06Z</time></trkpt><trkpt lat="37.41002532280224" lon="14.421033882777621"><ele>839.0</ele><time>2026-04-29T14:26:07Z</time></trkpt><trkpt lat="37.41004004827205" lon="14.421170315492903"><ele>839.0</ele><time>2026-04-29T14:26:08Z</time></trkpt><trkpt lat="37.410071968342066" lon="14.421276042114835"><ele>839.0</ele><time>2026-04-29T14:26:09Z</time></trkpt><trkpt lat="37.41012006763618" lon="14.421388786703446"><ele>839.0</ele><time>2026-04-29T14:26:10Z</time></trkpt><trkpt lat="37.41012312037281" lon="14.421486772187652"><ele>839.0</ele><time>2026-04-29T14:26:11Z</time></trkpt><trkpt lat="37.41013486900392" lon="14.421646447144823"><ele>839.0</ele><time>2026-04-29T14:26:13Z</time></trkpt><trkpt lat="37.41012066618005" lon="14.421730666778705"><ele>839.0</ele><time>2026-04-29T14:26:14Z</time></trkpt><trkpt lat="37.41008689496949" lon="14.421863666262883"><ele>839.0</ele><time>2026-04-29T14:26:15Z</time></trkpt><trkpt lat="37.41004907282496" lon="14.422041792164041"><ele>839.0</ele><time>2026-04-29T14:26:16Z</time></trkpt><trkpt lat="37.410019691730504" lon="14.422219089481493"><ele>839.0</ele><time>2026-04-29T14:26:17Z</time></trkpt><trkpt lat="37.40999746276085" lon="14.422391462188308"><ele>839.0</ele><time>2026-04-29T14:26:18Z</time></trkpt><trkpt lat="37.409987833304" lon="14.422555742643423"><ele>839.0</ele><time>2026-04-29T14:26:19Z</time></trkpt><trkpt lat="37.410007465006544" lon="14.422721096037627"><ele>839.0</ele><time>2026-04-29T14:26:20Z</time></trkpt><trkpt lat="37.41000814534218" lon="14.42287772252881"><ele>839.0</ele><time>2026-04-29T14:26:21Z</time></trkpt><trkpt lat="37.410046644379754" lon="14.42303262653905"><ele>838.2</ele><time>2026-04-29T14:26:22Z</time></trkpt><trkpt lat="37.410065497872246" lon="14.423184011109116"><ele>837.4000000000001</ele><time>2026-04-29T14:26:23Z</time></trkpt><trkpt lat="37.41010227140625" lon="14.423316859785416"><ele>836.6</ele><time>2026-04-29T14:26:24Z</time></trkpt><trkpt lat="37.41012726586083" lon="14.42339720742366"><ele>835.8</ele><time>2026-04-29T14:26:25Z</time></trkpt><trkpt lat="37.410104699843934" lon="14.423487866309065"><ele>835.0</ele><time>2026-04-29T14:26:28Z</time></trkpt><trkpt lat="37.41009445746551" lon="14.423594876642442"><ele>835.0</ele><time>2026-04-29T14:26:30Z</time></trkpt><trkpt lat="37.41017480736035" lon="14.423753487027167"><ele>835.0</ele><time>2026-04-29T14:26:32Z</time></trkpt><trkpt lat="37.410281103069934" lon="14.423835469763823"><ele>835.0</ele><time>2026-04-29T14:26:33Z</time></trkpt><trkpt lat="37.41033741219755" lon="14.423965702501194"><ele>835.0</ele><time>2026-04-29T14:26:34Z</time></trkpt><trkpt lat="37.41041070780407" lon="14.424123541857035"><ele>835.0</ele><time>2026-04-29T14:26:35Z</time></trkpt><trkpt lat="37.41047512009864" lon="14.424258634155606"><ele>835.0</ele><time>2026-04-29T14:26:36Z</time></trkpt><trkpt lat="37.4105324645787" lon="14.424373885583794"><ele>835.0</ele><time>2026-04-29T14:26:37Z</time></trkpt><trkpt lat="37.41059498618953" lon="14.42449971062192"><ele>835.0</ele><time>2026-04-29T14:26:38Z</time></trkpt><trkpt lat="37.41065152414587" lon="14.424628543353398"><ele>837.0</ele><time>2026-04-29T14:26:39Z</time></trkpt><trkpt lat="37.41070009237125" lon="14.424772842691215"><ele>839.0</ele><time>2026-04-29T14:26:40Z</time></trkpt><trkpt lat="37.41073001109334" lon="14.424938164152229"><ele>841.0</ele><time>2026-04-29T14:26:41Z</time></trkpt><trkpt lat="37.410739045389974" lon="14.4250718576714"><ele>843.0</ele><time>2026-04-29T14:26:42Z</time></trkpt><trkpt lat="37.41073792625985" lon="14.425193950813494"><ele>843.0</ele><time>2026-04-29T14:26:43Z</time></trkpt><trkpt lat="37.4107336680994" lon="14.425328766600167"><ele>843.0</ele><time>2026-04-29T14:26:44Z</time></trkpt><trkpt lat="37.41072363029864" lon="14.42550122959086"><ele>843.0</ele><time>2026-04-29T14:26:45Z</time></trkpt><trkpt lat="37.410704805238545" lon="14.425677367129172"><ele>843.0</ele><time>2026-04-29T14:26:46Z</time></trkpt><trkpt lat="37.41067682764088" lon="14.425838298725495"><ele>844.0</ele><time>2026-04-29T14:26:47Z</time></trkpt><trkpt lat="37.410643582726884" lon="14.426007224060408"><ele>845.0</ele><time>2026-04-29T14:26:48.001Z</time></trkpt><trkpt lat="37.41060596529036" lon="14.426180310655178"><ele>846.0</ele><time>2026-04-29T14:26:49.001Z</time></trkpt><trkpt lat="37.410569147140436" lon="14.426342455280707"><ele>847.0</ele><time>2026-04-29T14:26:50.001Z</time></trkpt><trkpt lat="37.41054022724037" lon="14.426473144467964"><ele>848.8</ele><time>2026-04-29T14:26:51.001Z</time></trkpt><trkpt lat="37.41051491388273" lon="14.426599229289918"><ele>850.6</ele><time>2026-04-29T14:26:52.001Z</time></trkpt><trkpt lat="37.41047911689569" lon="14.426723306772072"><ele>852.3999999999999</ele><time>2026-04-29T14:26:53.001Z</time></trkpt><trkpt lat="37.410468853662564" lon="14.426850231979582"><ele>854.1999999999999</ele><time>2026-04-29T14:26:54.001Z</time></trkpt><trkpt lat="37.41045382988295" lon="14.427002583117732"><ele>856.0</ele><time>2026-04-29T14:26:55.001Z</time></trkpt><trkpt lat="37.41043545314344" lon="14.427141902658615"><ele>857.8</ele><time>2026-04-29T14:26:56.001Z</time></trkpt><trkpt lat="37.410415111046724" lon="14.427273010467585"><ele>859.5999999999999</ele><time>2026-04-29T14:26:57.001Z</time></trkpt><trkpt lat="37.41038719723019" lon="14.427388447607806"><ele>861.4</ele><time>2026-04-29T14:26:58.001Z</time></trkpt><trkpt lat="37.41036343927505" lon="14.427511267342412"><ele>863.2</ele><time>2026-04-29T14:26:59.001Z</time></trkpt><trkpt lat="37.4103456805926" lon="14.427639701931076"><ele>865.0</ele><time>2026-04-29T14:27:00.001Z</time></trkpt><trkpt lat="37.410327094986464" lon="14.42779040896595"><ele>865.0</ele><time>2026-04-29T14:27:01.001Z</time></trkpt><trkpt lat="37.410307852538864" lon="14.427945010832595"><ele>865.0</ele><time>2026-04-29T14:27:02.001Z</time></trkpt><trkpt lat="37.41027077131532" lon="14.428087960028249"><ele>865.0</ele><time>2026-04-29T14:27:03.001Z</time></trkpt><trkpt lat="37.41022249202415" lon="14.428240441976948"><ele>865.0</ele><time>2026-04-29T14:27:04.001Z</time></trkpt><trkpt lat="37.41017179966725" lon="14.428398187870117"><ele>864.75</ele><time>2026-04-29T14:27:05.001Z</time></trkpt><trkpt lat="37.410106722248905" lon="14.42853253625032"><ele>864.5</ele><time>2026-04-29T14:27:06.001Z</time></trkpt><trkpt lat="37.41005330405912" lon="14.428672279883552"><ele>864.25</ele><time>2026-04-29T14:27:07.001Z</time></trkpt><trkpt lat="37.40999656514772" lon="14.428832085257067"><ele>864.0</ele><time>2026-04-29T14:27:08.001Z</time></trkpt><trkpt lat="37.40994042868056" lon="14.428993336857285"><ele>863.6</ele><time>2026-04-29T14:27:09.001Z</time></trkpt><trkpt lat="37.40988855137755" lon="14.429142354133273"><ele>863.2</ele><time>2026-04-29T14:27:10.001Z</time></trkpt><trkpt lat="37.40984059504891" lon="14.429268591412988"><ele>862.8000000000001</ele><time>2026-04-29T14:27:11.001Z</time></trkpt><trkpt lat="37.40979859780876" lon="14.429371883815426"><ele>862.4000000000001</ele><time>2026-04-29T14:27:12.001Z</time></trkpt><trkpt lat="37.4097550864246" lon="14.429470340091548"><ele>862.0</ele><time>2026-04-29T14:27:13.001Z</time></trkpt><trkpt lat="37.40969616879226" lon="14.429596243587827"><ele>862.2</ele><time>2026-04-29T14:27:14.001Z</time></trkpt><trkpt lat="37.40962809021009" lon="14.429736198673092"><ele>862.4000000000001</ele><time>2026-04-29T14:27:15.001Z</time></trkpt><trkpt lat="37.40957080447953" lon="14.429853965941838"><ele>862.5999999999999</ele><time>2026-04-29T14:27:16.001Z</time></trkpt><trkpt lat="37.40951951663386" lon="14.429959402875234"><ele>862.8</ele><time>2026-04-29T14:27:17.001Z</time></trkpt><trkpt lat="37.40945440767947" lon="14.430036042942316"><ele>863.0</ele><time>2026-04-29T14:27:18.001Z</time></trkpt><trkpt lat="37.40937584237527" lon="14.430130545236523"><ele>863.0</ele><time>2026-04-29T14:27:19.001Z</time></trkpt><trkpt lat="37.40929966101757" lon="14.430219365501198"><ele>863.0</ele><time>2026-04-29T14:27:20.001Z</time></trkpt><trkpt lat="37.40922395205017" lon="14.430295513291757"><ele>863.0</ele><time>2026-04-29T14:27:21.001Z</time></trkpt><trkpt lat="37.40914670665494" lon="14.43035944848365"><ele>863.0</ele><time>2026-04-29T14:27:22.001Z</time></trkpt><trkpt lat="37.40906472655637" lon="14.430424864395254"><ele>863.0</ele><time>2026-04-29T14:27:23.001Z</time></trkpt><trkpt lat="37.40898672811244" lon="14.430487103149474"><ele>861.8333333333334</ele><time>2026-04-29T14:27:24.001Z</time></trkpt><trkpt lat="37.40890983919309" lon="14.430545008602529"><ele>860.6666666666667</ele><time>2026-04-29T14:27:25.001Z</time></trkpt><trkpt lat="37.40883837624876" lon="14.43059640240599"><ele>859.5</ele><time>2026-04-29T14:27:26.001Z</time></trkpt><trkpt lat="37.40876383864409" lon="14.430644229527571"><ele>858.3333333333333</ele><time>2026-04-29T14:27:27.001Z</time></trkpt><trkpt lat="37.408693501701016" lon="14.430685760542143"><ele>857.1666666666666</ele><time>2026-04-29T14:27:28.001Z</time></trkpt><trkpt lat="37.40861789188657" lon="14.43071965590877"><ele>856.0</ele><time>2026-04-29T14:27:29.001Z</time></trkpt><trkpt lat="37.40852481975559" lon="14.430740278055087"><ele>855.5999999999999</ele><time>2026-04-29T14:27:30.001Z</time></trkpt><trkpt lat="37.408413107093864" lon="14.430764427073512"><ele>855.1999999999999</ele><time>2026-04-29T14:27:31.001Z</time></trkpt><trkpt lat="37.40830507696759" lon="14.43080770770289"><ele>854.8000000000001</ele><time>2026-04-29T14:27:32.001Z</time></trkpt><trkpt lat="37.408201479511156" lon="14.430859496584361"><ele>854.4000000000001</ele><time>2026-04-29T14:27:33.001Z</time></trkpt><trkpt lat="37.40810251828616" lon="14.430922532890001"><ele>854.0</ele><time>2026-04-29T14:27:34Z</time></trkpt><trkpt lat="37.408009309201" lon="14.430983927872548"><ele>854.4000000000001</ele><time>2026-04-29T14:27:35Z</time></trkpt><trkpt lat="37.407914362063366" lon="14.431046467659897"><ele>854.8000000000001</ele><time>2026-04-29T14:27:36Z</time></trkpt><trkpt lat="37.40781733721053" lon="14.431104104355674"><ele>855.1999999999999</ele><time>2026-04-29T14:27:37Z</time></trkpt><trkpt lat="37.40771322243619" lon="14.431160414664985"><ele>855.5999999999999</ele><time>2026-04-29T14:27:38Z</time></trkpt><trkpt lat="37.40760609599015" lon="14.431206518937366"><ele>856.0</ele><time>2026-04-29T14:27:39Z</time></trkpt><trkpt lat="37.407493281763735" lon="14.431244769025257"><ele>856.0</ele><time>2026-04-29T14:27:40Z</time></trkpt><trkpt lat="37.407377727501846" lon="14.431273531640217"><ele>856.0</ele><time>2026-04-29T14:27:41Z</time></trkpt><trkpt lat="37.40726892981951" lon="14.431286367226216"><ele>856.0</ele><time>2026-04-29T14:27:42Z</time></trkpt><trkpt lat="37.40715842823072" lon="14.431278743616094"><ele>856.0</ele><time>2026-04-29T14:27:43Z</time></trkpt><trkpt lat="37.407036964495674" lon="14.43126502686382"><ele>852.1999999999999</ele><time>2026-04-29T14:27:44Z</time></trkpt><trkpt lat="37.40692105050568" lon="14.431264783051487"><ele>848.3999999999999</ele><time>2026-04-29T14:27:45Z</time></trkpt><trkpt lat="37.40680845698846" lon="14.431269292173553"><ele>844.6</ele><time>2026-04-29T14:27:46Z</time></trkpt><trkpt lat="37.406697255588874" lon="14.431264874793328"><ele>840.8</ele><time>2026-04-29T14:27:47Z</time></trkpt><trkpt lat="37.40659921054177" lon="14.431248310161454"><ele>837.0</ele><time>2026-04-29T14:27:48Z</time></trkpt><trkpt lat="37.40653748450117" lon="14.431163592084902"><ele>837.0</ele><time>2026-04-29T14:27:49Z</time></trkpt><trkpt lat="37.40650442497351" lon="14.431038318406094"><ele>837.0</ele><time>2026-04-29T14:27:50Z</time></trkpt><trkpt lat="37.40647613007048" lon="14.430887995157475"><ele>837.0</ele><time>2026-04-29T14:27:51Z</time></trkpt><trkpt lat="37.40642855719008" lon="14.430756725408973"><ele>837.0</ele><time>2026-04-29T14:27:52Z</time></trkpt><trkpt lat="37.406389393514694" lon="14.430634290889557"><ele>837.0</ele><time>2026-04-29T14:27:53Z</time></trkpt><trkpt lat="37.406435774516055" lon="14.430471415792548"><ele>839.0</ele><time>2026-04-29T14:27:54Z</time></trkpt><trkpt lat="37.40645142767521" lon="14.430319225778142"><ele>841.0</ele><time>2026-04-29T14:27:55Z</time></trkpt><trkpt lat="37.4064856454663" lon="14.430157008625972"><ele>843.0</ele><time>2026-04-29T14:27:56Z</time></trkpt><trkpt lat="37.40650852212218" lon="14.429990600705166"><ele>845.0</ele><time>2026-04-29T14:27:57Z</time></trkpt><trkpt lat="37.4064985334263" lon="14.429819517872689"><ele>845.0</ele><time>2026-04-29T14:27:58Z</time></trkpt><trkpt lat="37.40649836979124" lon="14.429644870123857"><ele>845.0</ele><time>2026-04-29T14:27:59Z</time></trkpt><trkpt lat="37.40650196852656" lon="14.429487282119764"><ele>845.0</ele><time>2026-04-29T14:28:00Z</time></trkpt><trkpt lat="37.406484734824176" lon="14.429355603252255"><ele>845.0</ele><time>2026-04-29T14:28:01Z</time></trkpt><trkpt lat="37.40634987059455" lon="14.429277660222846"><ele>843.75</ele><time>2026-04-29T14:28:02Z</time></trkpt><trkpt lat="37.40624746287335" lon="14.429226145156994"><ele>842.5</ele><time>2026-04-29T14:28:03Z</time></trkpt><trkpt lat="37.406116002309425" lon="14.429214238040615"><ele>841.25</ele><time>2026-04-29T14:28:04Z</time></trkpt><trkpt lat="37.40597137308078" lon="14.429228198179189"><ele>840.0</ele><time>2026-04-29T14:28:05Z</time></trkpt><trkpt lat="37.40582970258838" lon="14.429236844212644"><ele>840.0</ele><time>2026-04-29T14:28:06Z</time></trkpt><trkpt lat="37.40568537604315" lon="14.42924855713864"><ele>840.0</ele><time>2026-04-29T14:28:07Z</time></trkpt><trkpt lat="37.40553352591022" lon="14.429247266371688"><ele>840.0</ele><time>2026-04-29T14:28:08Z</time></trkpt><trkpt lat="37.40538190403762" lon="14.429272041093972"><ele>840.0</ele><time>2026-04-29T14:28:09Z</time></trkpt><trkpt lat="37.40524650973365" lon="14.429304069763173"><ele>841.25</ele><time>2026-04-29T14:28:10Z</time></trkpt><trkpt lat="37.405123961571945" lon="14.429359648548068"><ele>842.5</ele><time>2026-04-29T14:28:11Z</time></trkpt><trkpt lat="37.40500520005941" lon="14.42944609705221"><ele>843.75</ele><time>2026-04-29T14:28:12Z</time></trkpt><trkpt lat="37.40489706956304" lon="14.42956609374585"><ele>845.0</ele><time>2026-04-29T14:28:13Z</time></trkpt><trkpt lat="37.40480439914246" lon="14.429704557296011"><ele>844.0</ele><time>2026-04-29T14:28:14Z</time></trkpt><trkpt lat="37.4047154053987" lon="14.429822057261532"><ele>843.0</ele><time>2026-04-29T14:28:15Z</time></trkpt><trkpt lat="37.40462144675532" lon="14.429910756329956"><ele>842.0</ele><time>2026-04-29T14:28:16Z</time></trkpt><trkpt lat="37.40451775166668" lon="14.429970091158033"><ele>841.0</ele><time>2026-04-29T14:28:17Z</time></trkpt><trkpt lat="37.404406747853784" lon="14.429997566935747"><ele>841.0</ele><time>2026-04-29T14:28:18Z</time></trkpt><trkpt lat="37.404285200038" lon="14.42999386783262"><ele>841.0</ele><time>2026-04-29T14:28:19Z</time></trkpt><trkpt lat="37.40415400818274" lon="14.430019400068414"><ele>841.0</ele><time>2026-04-29T14:28:20Z</time></trkpt><trkpt lat="37.404025665409605" lon="14.429994395940435"><ele>841.0</ele><time>2026-04-29T14:28:21Z</time></trkpt><trkpt lat="37.40390396545418" lon="14.430037382909324"><ele>842.5</ele><time>2026-04-29T14:28:22Z</time></trkpt><trkpt lat="37.40379638963724" lon="14.430128481125623"><ele>844.0</ele><time>2026-04-29T14:28:23Z</time></trkpt><trkpt lat="37.40371640053977" lon="14.430274882185934"><ele>845.5</ele><time>2026-04-29T14:28:24Z</time></trkpt><trkpt lat="37.403630324588164" lon="14.430420643841328"><ele>847.0</ele><time>2026-04-29T14:28:25Z</time></trkpt><trkpt lat="37.403542092371865" lon="14.430562485615411"><ele>847.0</ele><time>2026-04-29T14:28:26Z</time></trkpt><trkpt lat="37.40345032170857" lon="14.430688990127491"><ele>847.0</ele><time>2026-04-29T14:28:27Z</time></trkpt><trkpt lat="37.4033657072834" lon="14.430803958797137"><ele>847.0</ele><time>2026-04-29T14:28:28Z</time></trkpt><trkpt lat="37.40328841860115" lon="14.430921434432506"><ele>847.0</ele><time>2026-04-29T14:28:29Z</time></trkpt><trkpt lat="37.40321695784111" lon="14.43104440626051"><ele>847.0</ele><time>2026-04-29T14:28:30Z</time></trkpt><trkpt lat="37.40315749445284" lon="14.431185196805824"><ele>847.0</ele><time>2026-04-29T14:28:31Z</time></trkpt><trkpt lat="37.40314324761987" lon="14.431339354920565"><ele>847.0</ele><time>2026-04-29T14:28:32Z</time></trkpt><trkpt lat="37.403201928714445" lon="14.431486384690828"><ele>847.0</ele><time>2026-04-29T14:28:33Z</time></trkpt><trkpt lat="37.40328071570835" lon="14.431622196455866"><ele>847.8</ele><time>2026-04-29T14:28:34Z</time></trkpt><trkpt lat="37.40333595540588" lon="14.431761017836932"><ele>848.6</ele><time>2026-04-29T14:28:35Z</time></trkpt><trkpt lat="37.40338947534894" lon="14.431885544373257"><ele>849.4</ele><time>2026-04-29T14:28:36Z</time></trkpt><trkpt lat="37.403436210236805" lon="14.432007325384157"><ele>850.1999999999999</ele><time>2026-04-29T14:28:37Z</time></trkpt><trkpt lat="37.40346909170526" lon="14.432125164623805"><ele>851.0</ele><time>2026-04-29T14:28:38Z</time></trkpt><trkpt lat="37.40348379349149" lon="14.432257397538326"><ele>851.0</ele><time>2026-04-29T14:28:39Z</time></trkpt><trkpt lat="37.403465054784824" lon="14.43239712428591"><ele>851.0</ele><time>2026-04-29T14:28:40Z</time></trkpt><trkpt lat="37.40343083721374" lon="14.432556003484375"><ele>851.0</ele><time>2026-04-29T14:28:41Z</time></trkpt><trkpt lat="37.40340816298766" lon="14.432721088474601"><ele>851.0</ele><time>2026-04-29T14:28:42Z</time></trkpt><trkpt lat="37.40340809928635" lon="14.432898901546443"><ele>850.25</ele><time>2026-04-29T14:28:43Z</time></trkpt><trkpt lat="37.40341594515016" lon="14.433064847126245"><ele>849.5</ele><time>2026-04-29T14:28:44Z</time></trkpt><trkpt lat="37.40341071395695" lon="14.43320812699989"><ele>848.75</ele><time>2026-04-29T14:28:45Z</time></trkpt><trkpt lat="37.4033958564569" lon="14.433352672010276"><ele>848.0</ele><time>2026-04-29T14:28:46Z</time></trkpt><trkpt lat="37.40343235399109" lon="14.433512226394248"><ele>848.0</ele><time>2026-04-29T14:28:47Z</time></trkpt><trkpt lat="37.40331953070897" lon="14.433616271390187"><ele>848.0</ele><time>2026-04-29T14:28:48Z</time></trkpt><trkpt lat="37.40326108036824" lon="14.433736591379589"><ele>848.0</ele><time>2026-04-29T14:28:49Z</time></trkpt><trkpt lat="37.403193317879115" lon="14.433846821103513"><ele>848.0</ele><time>2026-04-29T14:28:50Z</time></trkpt><trkpt lat="37.40311335799677" lon="14.43395328453369"><ele>845.75</ele><time>2026-04-29T14:28:51Z</time></trkpt><trkpt lat="37.40302448471322" lon="14.434051331229192"><ele>843.5</ele><time>2026-04-29T14:28:52Z</time></trkpt><trkpt lat="37.4029287770472" lon="14.43414707839786"><ele>841.25</ele><time>2026-04-29T14:28:53Z</time></trkpt><trkpt lat="37.40282604448868" lon="14.434246079145959"><ele>839.0</ele><time>2026-04-29T14:28:54Z</time></trkpt><trkpt lat="37.40272025162655" lon="14.434347858703603"><ele>845.25</ele><time>2026-04-29T14:28:55Z</time></trkpt><trkpt lat="37.4026097067263" lon="14.434448640752734"><ele>851.5</ele><time>2026-04-29T14:28:56Z</time></trkpt><trkpt lat="37.4024919627672" lon="14.434540433351287"><ele>857.75</ele><time>2026-04-29T14:28:57Z</time></trkpt><trkpt lat="37.40236395384219" lon="14.434596027907714"><ele>864.0</ele><time>2026-04-29T14:28:58Z</time></trkpt><trkpt lat="37.4022217774353" lon="14.434628068836002"><ele>860.0</ele><time>2026-04-29T14:28:59Z</time></trkpt><trkpt lat="37.40207257942761" lon="14.434646742997115"><ele>856.0</ele><time>2026-04-29T14:29:00Z</time></trkpt><trkpt lat="37.401918860366685" lon="14.43466429011111"><ele>852.0</ele><time>2026-04-29T14:29:01Z</time></trkpt><trkpt lat="37.4017656062489" lon="14.434680183664932"><ele>852.0</ele><time>2026-04-29T14:29:02Z</time></trkpt><trkpt lat="37.401616357733694" lon="14.434695661817457"><ele>852.0</ele><time>2026-04-29T14:29:03Z</time></trkpt><trkpt lat="37.40146814996207" lon="14.434709317024486"><ele>852.0</ele><time>2026-04-29T14:29:04Z</time></trkpt><trkpt lat="37.401317601635036" lon="14.43472119562232"><ele>852.0</ele><time>2026-04-29T14:29:05Z</time></trkpt><trkpt lat="37.401163372554606" lon="14.434733364638321"><ele>852.0</ele><time>2026-04-29T14:29:06Z</time></trkpt><trkpt lat="37.401007682177635" lon="14.434744214778625"><ele>852.0</ele><time>2026-04-29T14:29:07Z</time></trkpt><trkpt lat="37.400862989659956" lon="14.434747185358658"><ele>852.0</ele><time>2026-04-29T14:29:08Z</time></trkpt><trkpt lat="37.40072435385059" lon="14.43476891708562"><ele>852.0</ele><time>2026-04-29T14:29:09Z</time></trkpt><trkpt lat="37.40059171353497" lon="14.434735502154838"><ele>852.3333333333333</ele><time>2026-04-29T14:29:10Z</time></trkpt><trkpt lat="37.40045409439543" lon="14.434661515700302"><ele>852.6666666666666</ele><time>2026-04-29T14:29:11Z</time></trkpt><trkpt lat="37.400317796325524" lon="14.434555802122166"><ele>853.0</ele><time>2026-04-29T14:29:12.001Z</time></trkpt><trkpt lat="37.40017564617043" lon="14.434446022856916"><ele>854.25</ele><time>2026-04-29T14:29:13.001Z</time></trkpt><trkpt lat="37.40005253375338" lon="14.434333291729503"><ele>855.5</ele><time>2026-04-29T14:29:14.001Z</time></trkpt><trkpt lat="37.399922986709235" lon="14.434259393282776"><ele>856.75</ele><time>2026-04-29T14:29:15.001Z</time></trkpt><trkpt lat="37.3998151546142" lon="14.43413810062013"><ele>858.0</ele><time>2026-04-29T14:29:16.001Z</time></trkpt><trkpt lat="37.39971512989444" lon="14.433988124266783"><ele>855.6666666666667</ele><time>2026-04-29T14:29:17.001Z</time></trkpt><trkpt lat="37.399629520218056" lon="14.433808748186575"><ele>853.3333333333334</ele><time>2026-04-29T14:29:18.001Z</time></trkpt><trkpt lat="37.39956162032845" lon="14.433605031977095"><ele>851.0</ele><time>2026-04-29T14:29:19.001Z</time></trkpt><trkpt lat="37.3994893137967" lon="14.43339903523018"><ele>851.0</ele><time>2026-04-29T14:29:20.001Z</time></trkpt><trkpt lat="37.399411683733575" lon="14.433206112448321"><ele>851.0</ele><time>2026-04-29T14:29:21.001Z</time></trkpt><trkpt lat="37.39933851397265" lon="14.43301813090337"><ele>851.0</ele><time>2026-04-29T14:29:22.001Z</time></trkpt><trkpt lat="37.39922258936377" lon="14.432864851441293"><ele>852.0</ele><time>2026-04-29T14:29:23.001Z</time></trkpt><trkpt lat="37.399105397471935" lon="14.432713236949644"><ele>853.0</ele><time>2026-04-29T14:29:24.001Z</time></trkpt><trkpt lat="37.39897254462395" lon="14.432576093333813"><ele>854.0</ele><time>2026-04-29T14:29:25.001Z</time></trkpt><trkpt lat="37.398831788171634" lon="14.432451213785107"><ele>853.0</ele><time>2026-04-29T14:29:26.001Z</time></trkpt><trkpt lat="37.3987030711714" lon="14.432335671609923"><ele>852.0</ele><time>2026-04-29T14:29:27.001Z</time></trkpt><trkpt lat="37.39858314562461" lon="14.432223730158999"><ele>851.0</ele><time>2026-04-29T14:29:28.001Z</time></trkpt><trkpt lat="37.39848706281965" lon="14.432092375329827"><ele>850.0</ele><time>2026-04-29T14:29:29.001Z</time></trkpt><trkpt lat="37.39838326363247" lon="14.431964881063891"><ele>850.0</ele><time>2026-04-29T14:29:30.001Z</time></trkpt><trkpt lat="37.39830775997362" lon="14.431793789267827"><ele>850.0</ele><time>2026-04-29T14:29:31.001Z</time></trkpt><trkpt lat="37.398241624408016" lon="14.431606884123855"><ele>850.0</ele><time>2026-04-29T14:29:32.001Z</time></trkpt><trkpt lat="37.398177480580614" lon="14.431416929870863"><ele>852.6666666666666</ele><time>2026-04-29T14:29:33.001Z</time></trkpt><trkpt lat="37.39811287691516" lon="14.43122770121302"><ele>855.3333333333333</ele><time>2026-04-29T14:29:34.001Z</time></trkpt><trkpt lat="37.39804696323162" lon="14.431041273980098"><ele>858.0</ele><time>2026-04-29T14:29:35.001Z</time></trkpt><trkpt lat="37.39798266755825" lon="14.430861413925584"><ele>851.3333333333333</ele><time>2026-04-29T14:29:36.001Z</time></trkpt><trkpt lat="37.39792647908103" lon="14.430687517006625"><ele>844.6666666666666</ele><time>2026-04-29T14:29:37.001Z</time></trkpt><trkpt lat="37.39786622113477" lon="14.430507730473497"><ele>838.0</ele><time>2026-04-29T14:29:38.001Z</time></trkpt><trkpt lat="37.397810502007985" lon="14.430328631326903"><ele>837.3333333333333</ele><time>2026-04-29T14:29:39.001Z</time></trkpt><trkpt lat="37.397763608618" lon="14.430141842306039"><ele>836.6666666666667</ele><time>2026-04-29T14:29:40Z</time></trkpt><trkpt lat="37.397718843599684" lon="14.429957230336239"><ele>836.0</ele><time>2026-04-29T14:29:41Z</time></trkpt><trkpt lat="37.397680670404306" lon="14.429779649526669"><ele>835.5</ele><time>2026-04-29T14:29:42Z</time></trkpt><trkpt lat="37.39764792585281" lon="14.429608497146143"><ele>835.0</ele><time>2026-04-29T14:29:43Z</time></trkpt><trkpt lat="37.39762116694722" lon="14.429437464696504"><ele>834.5</ele><time>2026-04-29T14:29:44Z</time></trkpt><trkpt lat="37.39760170240328" lon="14.429259445595811"><ele>834.0</ele><time>2026-04-29T14:29:45Z</time></trkpt><trkpt lat="37.39760342846151" lon="14.429084622355155"><ele>834.0</ele><time>2026-04-29T14:29:46Z</time></trkpt><trkpt lat="37.39761808066266" lon="14.428915926241313"><ele>834.0</ele><time>2026-04-29T14:29:47Z</time></trkpt><trkpt lat="37.397652730994864" lon="14.42875525260249"><ele>834.0</ele><time>2026-04-29T14:29:48Z</time></trkpt><trkpt lat="37.397717347329674" lon="14.42860279970819"><ele>834.0</ele><time>2026-04-29T14:29:49Z</time></trkpt><trkpt lat="37.39781944766332" lon="14.428462810352144"><ele>834.25</ele><time>2026-04-29T14:29:50Z</time></trkpt><trkpt lat="37.39793859565376" lon="14.428330175530231"><ele>834.5</ele><time>2026-04-29T14:29:51Z</time></trkpt><trkpt lat="37.398049095694375" lon="14.428209629714233"><ele>834.75</ele><time>2026-04-29T14:29:52Z</time></trkpt><trkpt lat="37.398125551044146" lon="14.428077256897812"><ele>835.0</ele><time>2026-04-29T14:29:53Z</time></trkpt><trkpt lat="37.39821489445885" lon="14.427974879210709"><ele>834.5</ele><time>2026-04-29T14:29:54Z</time></trkpt><trkpt lat="37.398273538772216" lon="14.427848220898722"><ele>834.0</ele><time>2026-04-29T14:29:55Z</time></trkpt><trkpt lat="37.398300808772134" lon="14.427713137021975"><ele>833.5</ele><time>2026-04-29T14:29:56Z</time></trkpt><trkpt lat="37.398293498942195" lon="14.427573650950643"><ele>833.0</ele><time>2026-04-29T14:29:57Z</time></trkpt><trkpt lat="37.39823978551398" lon="14.427443376038662"><ele>833.0</ele><time>2026-04-29T14:29:58Z</time></trkpt><trkpt lat="37.39814658044812" lon="14.427335223284143"><ele>833.0</ele><time>2026-04-29T14:29:59Z</time></trkpt><trkpt lat="37.39803132628066" lon="14.427232620937563"><ele>833.0</ele><time>2026-04-29T14:30:00Z</time></trkpt><trkpt lat="37.39788810525552" lon="14.42716991830776"><ele>833.0</ele><time>2026-04-29T14:30:01Z</time></trkpt><trkpt lat="37.397734735072554" lon="14.427136178730075"><ele>836.3333333333334</ele><time>2026-04-29T14:30:02Z</time></trkpt><trkpt lat="37.39757668015628" lon="14.427107703929993"><ele>839.6666666666667</ele><time>2026-04-29T14:30:03Z</time></trkpt><trkpt lat="37.3974149536604" lon="14.427078567675842"><ele>843.0</ele><time>2026-04-29T14:30:04Z</time></trkpt><trkpt lat="37.397249533680764" lon="14.427048765974341"><ele>840.3333333333333</ele><time>2026-04-29T14:30:05Z</time></trkpt><trkpt lat="37.39708204724242" lon="14.427014788425026"><ele>837.6666666666666</ele><time>2026-04-29T14:30:06Z</time></trkpt><trkpt lat="37.39691118654622" lon="14.426985129876877"><ele>835.0</ele><time>2026-04-29T14:30:07Z</time></trkpt><trkpt lat="37.39673676100797" lon="14.426980593196639"><ele>835.0</ele><time>2026-04-29T14:30:08Z</time></trkpt><trkpt lat="37.39657652258313" lon="14.426988767791919"><ele>835.0</ele><time>2026-04-29T14:30:09Z</time></trkpt><trkpt lat="37.39642773596492" lon="14.426994577184729"><ele>835.0</ele><time>2026-04-29T14:30:10Z</time></trkpt><trkpt lat="37.39628504805712" lon="14.426995608813527"><ele>833.0</ele><time>2026-04-29T14:30:11Z</time></trkpt><trkpt lat="37.39614241049723" lon="14.426979581387132"><ele>831.0</ele><time>2026-04-29T14:30:12Z</time></trkpt><trkpt lat="37.39599485783944" lon="14.426936002003458"><ele>829.0</ele><time>2026-04-29T14:30:13Z</time></trkpt><trkpt lat="37.39583460575858" lon="14.426878089815625"><ele>829.0</ele><time>2026-04-29T14:30:14Z</time></trkpt><trkpt lat="37.39566316119267" lon="14.426813615366495"><ele>829.0</ele><time>2026-04-29T14:30:15Z</time></trkpt><trkpt lat="37.39550147735874" lon="14.426751969908212"><ele>829.0</ele><time>2026-04-29T14:30:16Z</time></trkpt><trkpt lat="37.39534596280639" lon="14.426686451460357"><ele>823.6666666666666</ele><time>2026-04-29T14:30:17Z</time></trkpt><trkpt lat="37.3951947798611" lon="14.426619157214157"><ele>818.3333333333333</ele><time>2026-04-29T14:30:18Z</time></trkpt><trkpt lat="37.395047798994334" lon="14.426548212899782"><ele>813.0</ele><time>2026-04-29T14:30:19Z</time></trkpt><trkpt lat="37.39490352804733" lon="14.4264679536288"><ele>813.0</ele><time>2026-04-29T14:30:20Z</time></trkpt><trkpt lat="37.394769928625514" lon="14.426365847316438"><ele>813.0</ele><time>2026-04-29T14:30:21Z</time></trkpt><trkpt lat="37.394662513173095" lon="14.426230796816316"><ele>813.0</ele><time>2026-04-29T14:30:22Z</time></trkpt><trkpt lat="37.39457024331494" lon="14.426084342614711"><ele>811.0</ele><time>2026-04-29T14:30:23Z</time></trkpt><trkpt lat="37.39448209874486" lon="14.42593167903756"><ele>809.0</ele><time>2026-04-29T14:30:24Z</time></trkpt><trkpt lat="37.394424997810134" lon="14.425751095026763"><ele>807.0</ele><time>2026-04-29T14:30:25Z</time></trkpt><trkpt lat="37.39437772823692" lon="14.425560470848765"><ele>806.6666666666667</ele><time>2026-04-29T14:30:26Z</time></trkpt><trkpt lat="37.39433349814687" lon="14.425376926250706"><ele>806.3333333333334</ele><time>2026-04-29T14:30:27Z</time></trkpt><trkpt lat="37.39430858720695" lon="14.425192620788122"><ele>806.0</ele><time>2026-04-29T14:30:28Z</time></trkpt><trkpt lat="37.39431235301748" lon="14.42499873006499"><ele>806.0</ele><time>2026-04-29T14:30:29Z</time></trkpt><trkpt lat="37.39434225101627" lon="14.424798041994293"><ele>806.0</ele><time>2026-04-29T14:30:30Z</time></trkpt><trkpt lat="37.394370322760956" lon="14.424599422790957"><ele>806.0</ele><time>2026-04-29T14:30:31Z</time></trkpt><trkpt lat="37.39439365648644" lon="14.424417581314346"><ele>805.25</ele><time>2026-04-29T14:30:32Z</time></trkpt><trkpt lat="37.3944077630547" lon="14.424255227256188"><ele>804.5</ele><time>2026-04-29T14:30:33Z</time></trkpt><trkpt lat="37.39440014368935" lon="14.424115013215244"><ele>803.75</ele><time>2026-04-29T14:30:34Z</time></trkpt><trkpt lat="37.394344997871336" lon="14.423993227550339"><ele>803.0</ele><time>2026-04-29T14:30:35Z</time></trkpt><trkpt lat="37.39425217440203" lon="14.423903952441329"><ele>803.0</ele><time>2026-04-29T14:30:36Z</time></trkpt><trkpt lat="37.39412864977081" lon="14.423884954444276"><ele>803.0</ele><time>2026-04-29T14:30:37Z</time></trkpt><trkpt lat="37.393987169323864" lon="14.423847957055262"><ele>803.0</ele><time>2026-04-29T14:30:38Z</time></trkpt><trkpt lat="37.393834727248866" lon="14.423821855134273"><ele>803.0</ele><time>2026-04-29T14:30:39Z</time></trkpt><trkpt lat="37.39368614319778" lon="14.42379656892783"><ele>803.0</ele><time>2026-04-29T14:30:40Z</time></trkpt><trkpt lat="37.39353207270506" lon="14.42377034901049"><ele>803.0</ele><time>2026-04-29T14:30:41Z</time></trkpt><trkpt lat="37.3933747565004" lon="14.423743576725986"><ele>803.0</ele><time>2026-04-29T14:30:42Z</time></trkpt><trkpt lat="37.39322181125245" lon="14.423717548300123"><ele>803.0</ele><time>2026-04-29T14:30:43Z</time></trkpt><trkpt lat="37.39306762690292" lon="14.423691309017965"><ele>803.0</ele><time>2026-04-29T14:30:44Z</time></trkpt><trkpt lat="37.39290501599602" lon="14.42366363565584"><ele>803.0</ele><time>2026-04-29T14:30:45Z</time></trkpt><trkpt lat="37.39273646642749" lon="14.423634951672424"><ele>800.3333333333334</ele><time>2026-04-29T14:30:46Z</time></trkpt><trkpt lat="37.39257360277251" lon="14.423609284493752"><ele>797.6666666666667</ele><time>2026-04-29T14:30:47Z</time></trkpt><trkpt lat="37.39240422590777" lon="14.423583334643833"><ele>795.0</ele><time>2026-04-29T14:30:48Z</time></trkpt><trkpt lat="37.39223075905084" lon="14.423556758113632"><ele>793.6666666666667</ele><time>2026-04-29T14:30:49Z</time></trkpt><trkpt lat="37.39205358294268" lon="14.423528950818246"><ele>792.3333333333334</ele><time>2026-04-29T14:30:50Z</time></trkpt><trkpt lat="37.391875535451305" lon="14.423500472421475"><ele>791.0</ele><time>2026-04-29T14:30:51Z</time></trkpt><trkpt lat="37.39169193286764" lon="14.423470573870972"><ele>791.0</ele><time>2026-04-29T14:30:52Z</time></trkpt><trkpt lat="37.39150384573533" lon="14.423439822575904"><ele>791.0</ele><time>2026-04-29T14:30:53Z</time></trkpt><trkpt lat="37.3913158794665" lon="14.423409091053774"><ele>791.0</ele><time>2026-04-29T14:30:54Z</time></trkpt><trkpt lat="37.39113689889083" lon="14.423379828691395"><ele>789.6666666666667</ele><time>2026-04-29T14:30:55Z</time></trkpt><trkpt lat="37.390958170466774" lon="14.423350608794065"><ele>788.3333333333333</ele><time>2026-04-29T14:30:56Z</time></trkpt><trkpt lat="37.39077741751151" lon="14.423321056612913"><ele>787.0</ele><time>2026-04-29T14:30:57Z</time></trkpt><trkpt lat="37.390596718615704" lon="14.42329335003242"><ele>785.6666666666666</ele><time>2026-04-29T14:30:58Z</time></trkpt><trkpt lat="37.390417261697046" lon="14.423265857698649"><ele>784.3333333333333</ele><time>2026-04-29T14:30:59Z</time></trkpt><trkpt lat="37.39024194091483" lon="14.423238999002354"><ele>783.0</ele><time>2026-04-29T14:31:00Z</time></trkpt><trkpt lat="37.39006883973697" lon="14.423212480352827"><ele>783.0</ele><time>2026-04-29T14:31:01Z</time></trkpt><trkpt lat="37.389897806065065" lon="14.423186278432846"><ele>783.0</ele><time>2026-04-29T14:31:02Z</time></trkpt><trkpt lat="37.38972766624952" lon="14.423159806423246"><ele>783.0</ele><time>2026-04-29T14:31:03Z</time></trkpt><trkpt lat="37.38955893520776" lon="14.423133336783545"><ele>781.3333333333333</ele><time>2026-04-29T14:31:04Z</time></trkpt><trkpt lat="37.38939318415097" lon="14.423105784569028"><ele>779.6666666666666</ele><time>2026-04-29T14:31:05Z</time></trkpt><trkpt lat="37.38923217893079" lon="14.423079547117704"><ele>778.0</ele><time>2026-04-29T14:31:06Z</time></trkpt><trkpt lat="37.38906832408532" lon="14.42305835197631"><ele>778.0</ele><time>2026-04-29T14:31:07Z</time></trkpt><trkpt lat="37.3888997414218" lon="14.423043669897746"><ele>778.0</ele><time>2026-04-29T14:31:08Z</time></trkpt><trkpt lat="37.38872362616657" lon="14.423052380617444"><ele>778.0</ele><time>2026-04-29T14:31:09Z</time></trkpt><trkpt lat="37.388538618086066" lon="14.423091936705466"><ele>777.3333333333333</ele><time>2026-04-29T14:31:10Z</time></trkpt><trkpt lat="37.38836068772743" lon="14.423143171895079"><ele>776.6666666666667</ele><time>2026-04-29T14:31:11Z</time></trkpt><trkpt lat="37.388185082698534" lon="14.423193673818142"><ele>776.0</ele><time>2026-04-29T14:31:12Z</time></trkpt><trkpt lat="37.38801450729986" lon="14.423240931083381"><ele>775.0</ele><time>2026-04-29T14:31:13Z</time></trkpt><trkpt lat="37.38784933127903" lon="14.423286122795492"><ele>774.0</ele><time>2026-04-29T14:31:14Z</time></trkpt><trkpt lat="37.38768965048355" lon="14.423329789426889"><ele>773.0</ele><time>2026-04-29T14:31:15Z</time></trkpt><trkpt lat="37.3875351968318" lon="14.42337033251728"><ele>773.0</ele><time>2026-04-29T14:31:16Z</time></trkpt><trkpt lat="37.387384127106124" lon="14.423405118797621"><ele>773.0</ele><time>2026-04-29T14:31:17Z</time></trkpt><trkpt lat="37.3872320725479" lon="14.423445506681187"><ele>773.0</ele><time>2026-04-29T14:31:18Z</time></trkpt><trkpt lat="37.387078360171195" lon="14.423514208639403"><ele>773.6666666666667</ele><time>2026-04-29T14:31:19Z</time></trkpt><trkpt lat="37.38692919970903" lon="14.42359582186389"><ele>774.3333333333333</ele><time>2026-04-29T14:31:20Z</time></trkpt><trkpt lat="37.386778176887326" lon="14.423658872878066"><ele>775.0</ele><time>2026-04-29T14:31:21Z</time></trkpt><trkpt lat="37.38662336570773" lon="14.423698659895503"><ele>775.0</ele><time>2026-04-29T14:31:22Z</time></trkpt><trkpt lat="37.38646338970733" lon="14.423714644606589"><ele>775.0</ele><time>2026-04-29T14:31:23Z</time></trkpt><trkpt lat="37.386295032487524" lon="14.42372963601396"><ele>775.0</ele><time>2026-04-29T14:31:24Z</time></trkpt><trkpt lat="37.3861230120657" lon="14.423746071817089"><ele>772.0</ele><time>2026-04-29T14:31:25Z</time></trkpt><trkpt lat="37.385944890715585" lon="14.423766879268406"><ele>769.0</ele><time>2026-04-29T14:31:26Z</time></trkpt><trkpt lat="37.385774540181494" lon="14.42378700864935"><ele>766.0</ele><time>2026-04-29T14:31:27Z</time></trkpt><trkpt lat="37.38560948115782" lon="14.423800850921786"><ele>763.6666666666667</ele><time>2026-04-29T14:31:28Z</time></trkpt><trkpt lat="37.385449587070966" lon="14.42381561882024"><ele>761.3333333333334</ele><time>2026-04-29T14:31:29Z</time></trkpt><trkpt lat="37.38529113620507" lon="14.423831478867456"><ele>759.0</ele><time>2026-04-29T14:31:30Z</time></trkpt><trkpt lat="37.385130571479706" lon="14.423847813262125"><ele>759.0</ele><time>2026-04-29T14:31:31Z</time></trkpt><trkpt lat="37.38496354165957" lon="14.42386544586204"><ele>759.0</ele><time>2026-04-29T14:31:32Z</time></trkpt><trkpt lat="37.38479864291872" lon="14.42388304004641"><ele>759.0</ele><time>2026-04-29T14:31:33.001Z</time></trkpt><trkpt lat="37.38464040278366" lon="14.4238999237673"><ele>759.0</ele><time>2026-04-29T14:31:34.001Z</time></trkpt><trkpt lat="37.384485766681216" lon="14.423920713585725"><ele>759.0</ele><time>2026-04-29T14:31:35.001Z</time></trkpt><trkpt lat="37.384346913026306" lon="14.423947234477733"><ele>759.0</ele><time>2026-04-29T14:31:36.001Z</time></trkpt><trkpt lat="37.384224071401" lon="14.423983580652408"><ele>759.0</ele><time>2026-04-29T14:31:37.001Z</time></trkpt><trkpt lat="37.38412346835814" lon="14.42403734698989"><ele>759.0</ele><time>2026-04-29T14:31:38.001Z</time></trkpt><trkpt lat="37.384051523916284" lon="14.424185950852525"><ele>759.0</ele><time>2026-04-29T14:31:39.001Z</time></trkpt><trkpt lat="37.384050253874676" lon="14.424361989902131"><ele>759.0</ele><time>2026-04-29T14:31:40.001Z</time></trkpt><trkpt lat="37.38406228422037" lon="14.424523378237817"><ele>759.0</ele><time>2026-04-29T14:31:41.001Z</time></trkpt><trkpt lat="37.38407053063039" lon="14.424661988949106"><ele>757.8000000000001</ele><time>2026-04-29T14:31:42.001Z</time></trkpt><trkpt lat="37.384059627886884" lon="14.424784944339665"><ele>756.6</ele><time>2026-04-29T14:31:43.001Z</time></trkpt><trkpt lat="37.384019552593735" lon="14.424901409410815"><ele>755.4</ele><time>2026-04-29T14:31:44.001Z</time></trkpt><trkpt lat="37.3839536817602" lon="14.425014143772563"><ele>754.2</ele><time>2026-04-29T14:31:45.001Z</time></trkpt><trkpt lat="37.383864567498506" lon="14.42513321265515"><ele>753.0</ele><time>2026-04-29T14:31:46Z</time></trkpt><trkpt lat="37.38376511301523" lon="14.425241764814723"><ele>753.0</ele><time>2026-04-29T14:31:47Z</time></trkpt><trkpt lat="37.3836517063622" lon="14.425351541404622"><ele>753.0</ele><time>2026-04-29T14:31:48Z</time></trkpt><trkpt lat="37.383539665569906" lon="14.425453562579047"><ele>753.0</ele><time>2026-04-29T14:31:49Z</time></trkpt><trkpt lat="37.38342530911068" lon="14.425542136092144"><ele>753.0</ele><time>2026-04-29T14:31:50Z</time></trkpt><trkpt lat="37.38329906590572" lon="14.425624557569519"><ele>748.3333333333334</ele><time>2026-04-29T14:31:51Z</time></trkpt><trkpt lat="37.38315600044754" lon="14.425685006280997"><ele>743.6666666666667</ele><time>2026-04-29T14:31:52Z</time></trkpt><trkpt lat="37.38300347332758" lon="14.425741644976585"><ele>739.0</ele><time>2026-04-29T14:31:53Z</time></trkpt><trkpt lat="37.382863933166384" lon="14.425793427063002"><ele>739.0</ele><time>2026-04-29T14:31:54Z</time></trkpt><trkpt lat="37.38273673668862" lon="14.425833033857094"><ele>739.0</ele><time>2026-04-29T14:31:55Z</time></trkpt><trkpt lat="37.38260631807018" lon="14.425818075478645"><ele>739.0</ele><time>2026-04-29T14:31:56Z</time></trkpt><trkpt lat="37.38246482611096" lon="14.425771511735716"><ele>739.0</ele><time>2026-04-29T14:31:57Z</time></trkpt><trkpt lat="37.382310790083" lon="14.425718770276866"><ele>736.6666666666667</ele><time>2026-04-29T14:31:58Z</time></trkpt><trkpt lat="37.382147331369325" lon="14.425689548820595"><ele>734.3333333333334</ele><time>2026-04-29T14:31:59Z</time></trkpt><trkpt lat="37.38197827954589" lon="14.425667525452534"><ele>732.0</ele><time>2026-04-29T14:32:00Z</time></trkpt><trkpt lat="37.381810973795154" lon="14.425643095900446"><ele>732.0</ele><time>2026-04-29T14:32:01Z</time></trkpt><trkpt lat="37.38165487652867" lon="14.425650524137449"><ele>732.0</ele><time>2026-04-29T14:32:02Z</time></trkpt><trkpt lat="37.38150640308106" lon="14.425663584896574"><ele>732.0</ele><time>2026-04-29T14:32:03Z</time></trkpt><trkpt lat="37.381369783398085" lon="14.425659631282267"><ele>732.0</ele><time>2026-04-29T14:32:04Z</time></trkpt><trkpt lat="37.3812365311107" lon="14.425623451874205"><ele>732.6666666666666</ele><time>2026-04-29T14:32:05Z</time></trkpt><trkpt lat="37.381113656849294" lon="14.425531116934852"><ele>733.3333333333333</ele><time>2026-04-29T14:32:06Z</time></trkpt><trkpt lat="37.380977914444145" lon="14.425405213183955"><ele>734.0</ele><time>2026-04-29T14:32:07Z</time></trkpt><trkpt lat="37.380831788446415" lon="14.42528257298872"><ele>734.0</ele><time>2026-04-29T14:32:08Z</time></trkpt><trkpt lat="37.380699481574105" lon="14.425158780816526"><ele>734.0</ele><time>2026-04-29T14:32:09Z</time></trkpt><trkpt lat="37.380570482054836" lon="14.425053613068473"><ele>734.0</ele><time>2026-04-29T14:32:10Z</time></trkpt><trkpt lat="37.38044974329269" lon="14.424948086660217"><ele>729.75</ele><time>2026-04-29T14:32:11Z</time></trkpt><trkpt lat="37.38033970577137" lon="14.424855465932138"><ele>725.5</ele><time>2026-04-29T14:32:12Z</time></trkpt><trkpt lat="37.3802326720842" lon="14.424787410702507"><ele>721.25</ele><time>2026-04-29T14:32:13Z</time></trkpt><trkpt lat="37.380135308213326" lon="14.424751008866194"><ele>717.0</ele><time>2026-04-29T14:32:14Z</time></trkpt><trkpt lat="37.38001204761406" lon="14.424791793930714"><ele>717.0</ele><time>2026-04-29T14:32:15Z</time></trkpt><trkpt lat="37.37987028226431" lon="14.424854831426478"><ele>717.0</ele><time>2026-04-29T14:32:16Z</time></trkpt><trkpt lat="37.37972981126714" lon="14.42492659764805"><ele>717.0</ele><time>2026-04-29T14:32:17Z</time></trkpt><trkpt lat="37.37960413381952" lon="14.424999166638694"><ele>717.0</ele><time>2026-04-29T14:32:18Z</time></trkpt><trkpt lat="37.3794825474766" lon="14.425092482883022"><ele>716.6666666666666</ele><time>2026-04-29T14:32:19Z</time></trkpt><trkpt lat="37.379376997522094" lon="14.425234116674153"><ele>716.3333333333333</ele><time>2026-04-29T14:32:20Z</time></trkpt><trkpt lat="37.37929783398253" lon="14.425415688148536"><ele>716.0</ele><time>2026-04-29T14:32:21Z</time></trkpt><trkpt lat="37.379223860492765" lon="14.425594189421023"><ele>716.0</ele><time>2026-04-29T14:32:22Z</time></trkpt><trkpt lat="37.37915862961634" lon="14.425759266034516"><ele>716.0</ele><time>2026-04-29T14:32:23Z</time></trkpt><trkpt lat="37.379094921707576" lon="14.425915176738457"><ele>716.0</ele><time>2026-04-29T14:32:24Z</time></trkpt><trkpt lat="37.37903012118226" lon="14.426059601175437"><ele>716.0</ele><time>2026-04-29T14:32:25Z</time></trkpt><trkpt lat="37.37895148086928" lon="14.426177658168738"><ele>717.5</ele><time>2026-04-29T14:32:26Z</time></trkpt><trkpt lat="37.37884885637823" lon="14.426248672978979"><ele>719.0</ele><time>2026-04-29T14:32:27Z</time></trkpt><trkpt lat="37.37871475330205" lon="14.426301843490153"><ele>720.5</ele><time>2026-04-29T14:32:28Z</time></trkpt><trkpt lat="37.37856929314954" lon="14.426365091110538"><ele>722.0</ele><time>2026-04-29T14:32:29Z</time></trkpt><trkpt lat="37.378429548229164" lon="14.426426062944081"><ele>717.5</ele><time>2026-04-29T14:32:30Z</time></trkpt><trkpt lat="37.378299890096216" lon="14.42648263386373"><ele>713.0</ele><time>2026-04-29T14:32:31Z</time></trkpt><trkpt lat="37.37817252501238" lon="14.426528890728633"><ele>708.5</ele><time>2026-04-29T14:32:32Z</time></trkpt><trkpt lat="37.37804498671396" lon="14.426557122672497"><ele>704.0</ele><time>2026-04-29T14:32:33Z</time></trkpt><trkpt lat="37.37791609270014" lon="14.426541632083463"><ele>702.5</ele><time>2026-04-29T14:32:34Z</time></trkpt><trkpt lat="37.37777574946782" lon="14.426518299393958"><ele>701.0</ele><time>2026-04-29T14:32:35Z</time></trkpt><trkpt lat="37.377628772939815" lon="14.426495022834057"><ele>699.5</ele><time>2026-04-29T14:32:36Z</time></trkpt><trkpt lat="37.3774827047802" lon="14.426476596948428"><ele>698.0</ele><time>2026-04-29T14:32:37Z</time></trkpt><trkpt lat="37.37734316179897" lon="14.426467731930163"><ele>698.0</ele><time>2026-04-29T14:32:38Z</time></trkpt><trkpt lat="37.377209588758596" lon="14.426485717873827"><ele>698.0</ele><time>2026-04-29T14:32:39Z</time></trkpt><trkpt lat="37.37708980466828" lon="14.426461009608204"><ele>698.0</ele><time>2026-04-29T14:32:40Z</time></trkpt><trkpt lat="37.37696612118973" lon="14.42645691502019"><ele>698.0</ele><time>2026-04-29T14:32:41Z</time></trkpt><trkpt lat="37.37684964357471" lon="14.426471007945285"><ele>699.0</ele><time>2026-04-29T14:32:42Z</time></trkpt><trkpt lat="37.37673880250085" lon="14.426443670869864"><ele>700.0</ele><time>2026-04-29T14:32:43Z</time></trkpt><trkpt lat="37.376638938374974" lon="14.426355309918021"><ele>701.0</ele><time>2026-04-29T14:32:44Z</time></trkpt><trkpt lat="37.37652247147698" lon="14.426251320585717"><ele>702.0</ele><time>2026-04-29T14:32:45Z</time></trkpt><trkpt lat="37.37640843039339" lon="14.426103740088314"><ele>696.6666666666666</ele><time>2026-04-29T14:32:46Z</time></trkpt><trkpt lat="37.37628337401752" lon="14.425956036500043"><ele>691.3333333333333</ele><time>2026-04-29T14:32:47Z</time></trkpt><trkpt lat="37.37616340538973" lon="14.425816294732497"><ele>686.0</ele><time>2026-04-29T14:32:48Z</time></trkpt><trkpt lat="37.37605320429008" lon="14.425682879817739"><ele>686.0</ele><time>2026-04-29T14:32:49Z</time></trkpt><trkpt lat="37.37594647031895" lon="14.425549728054683"><ele>686.0</ele><time>2026-04-29T14:32:50Z</time></trkpt><trkpt lat="37.37584351724287" lon="14.425426707126709"><ele>686.0</ele><time>2026-04-29T14:32:51Z</time></trkpt><trkpt lat="37.375749080619954" lon="14.425316389457972"><ele>686.0</ele><time>2026-04-29T14:32:52Z</time></trkpt><trkpt lat="37.375673171158354" lon="14.425238355190038"><ele>687.0</ele><time>2026-04-29T14:32:53Z</time></trkpt><trkpt lat="37.375612390882615" lon="14.42517862283812"><ele>688.0</ele><time>2026-04-29T14:32:54Z</time></trkpt><trkpt lat="37.37557262118685" lon="14.42510797773675"><ele>689.0</ele><time>2026-04-29T14:32:55Z</time></trkpt><trkpt lat="37.37556360480383" lon="14.424994417679276"><ele>690.0</ele><time>2026-04-29T14:32:56Z</time></trkpt><trkpt lat="37.37552562269027" lon="14.424883449121294"><ele>691.0</ele><time>2026-04-29T14:32:57Z</time></trkpt><trkpt lat="37.375505414872165" lon="14.424764853177221"><ele>692.0</ele><time>2026-04-29T14:32:58Z</time></trkpt><trkpt lat="37.37548095347555" lon="14.424642709106577"><ele>692.8</ele><time>2026-04-29T14:32:59Z</time></trkpt><trkpt lat="37.375447459173785" lon="14.424519779092734"><ele>693.6</ele><time>2026-04-29T14:33:00Z</time></trkpt><trkpt lat="37.3754252013469" lon="14.424392792317207"><ele>694.4</ele><time>2026-04-29T14:33:01Z</time></trkpt><trkpt lat="37.37541605609394" lon="14.424263313377185"><ele>695.1999999999999</ele><time>2026-04-29T14:33:02Z</time></trkpt><trkpt lat="37.37540166013609" lon="14.424142247159324"><ele>696.0</ele><time>2026-04-29T14:33:03Z</time></trkpt><trkpt lat="37.37538427259839" lon="14.424027278432135"><ele>696.0</ele><time>2026-04-29T14:33:04Z</time></trkpt><trkpt lat="37.37536520634354" lon="14.423911736300543"><ele>696.0</ele><time>2026-04-29T14:33:05Z</time></trkpt><trkpt lat="37.37534041252091" lon="14.423804190041293"><ele>696.0</ele><time>2026-04-29T14:33:06Z</time></trkpt><trkpt lat="37.375301333294416" lon="14.42369033212054"><ele>696.0</ele><time>2026-04-29T14:33:07Z</time></trkpt><trkpt lat="37.375262940169634" lon="14.423583371413711"><ele>696.0</ele><time>2026-04-29T14:33:08Z</time></trkpt><trkpt lat="37.375223637536486" lon="14.423475853502653"><ele>693.1999999999999</ele><time>2026-04-29T14:33:09Z</time></trkpt><trkpt lat="37.37518468622116" lon="14.423362565495411"><ele>690.4</ele><time>2026-04-29T14:33:10Z</time></trkpt><trkpt lat="37.375130018975035" lon="14.423255527146468"><ele>687.6</ele><time>2026-04-29T14:33:11Z</time></trkpt><trkpt lat="37.375059630598685" lon="14.423156851566203"><ele>684.8</ele><time>2026-04-29T14:33:12Z</time></trkpt><trkpt lat="37.3749789068827" lon="14.423051421455447"><ele>682.0</ele><time>2026-04-29T14:33:13Z</time></trkpt><trkpt lat="37.374902533485646" lon="14.422945017393376"><ele>680.6</ele><time>2026-04-29T14:33:14Z</time></trkpt><trkpt lat="37.37483622316795" lon="14.422833568465096"><ele>679.2</ele><time>2026-04-29T14:33:15Z</time></trkpt><trkpt lat="37.37477227597438" lon="14.422725078743227"><ele>677.8</ele><time>2026-04-29T14:33:16Z</time></trkpt><trkpt lat="37.37472068678556" lon="14.422606691984155"><ele>676.4</ele><time>2026-04-29T14:33:17Z</time></trkpt><trkpt lat="37.374648640379725" lon="14.422509617414532"><ele>675.0</ele><time>2026-04-29T14:33:18Z</time></trkpt><trkpt lat="37.37458995255187" lon="14.422403989188272"><ele>674.6</ele><time>2026-04-29T14:33:19Z</time></trkpt><trkpt lat="37.374536114358484" lon="14.422295668725907"><ele>674.2</ele><time>2026-04-29T14:33:20Z</time></trkpt><trkpt lat="37.374477119559764" lon="14.422193873246384"><ele>673.8</ele><time>2026-04-29T14:33:21Z</time></trkpt><trkpt lat="37.37441030421479" lon="14.422097275687618"><ele>673.4</ele><time>2026-04-29T14:33:22Z</time></trkpt><trkpt lat="37.37436207247721" lon="14.422015681673956"><ele>673.0</ele><time>2026-04-29T14:33:23Z</time></trkpt><trkpt lat="37.37435872870672" lon="14.421901996442102"><ele>671.6666666666667</ele><time>2026-04-29T14:33:24Z</time></trkpt><trkpt lat="37.37433358653923" lon="14.421813016162236"><ele>670.3333333333334</ele><time>2026-04-29T14:33:25Z</time></trkpt><trkpt lat="37.37428978917974" lon="14.421717077565534"><ele>669.0</ele><time>2026-04-29T14:33:26Z</time></trkpt><trkpt lat="37.374227044685036" lon="14.421623174383502"><ele>667.6666666666666</ele><time>2026-04-29T14:33:27Z</time></trkpt><trkpt lat="37.3741713979777" lon="14.421544285367704"><ele>666.3333333333333</ele><time>2026-04-29T14:33:28Z</time></trkpt><trkpt lat="37.37411936783941" lon="14.421484542287814"><ele>665.0</ele><time>2026-04-29T14:33:29Z</time></trkpt><trkpt lat="37.37408166011674" lon="14.421421021045589"><ele>665.0</ele><time>2026-04-29T14:33:30Z</time></trkpt><trkpt lat="37.37404676189705" lon="14.421351632204269"><ele>665.0</ele><time>2026-04-29T14:33:31Z</time></trkpt><trkpt lat="37.37400948067719" lon="14.421263426090047"><ele>665.0</ele><time>2026-04-29T14:33:32Z</time></trkpt><trkpt lat="37.37396914951427" lon="14.421172642352765"><ele>665.0</ele><time>2026-04-29T14:33:33Z</time></trkpt><trkpt lat="37.37390845874146" lon="14.421087767517305"><ele>665.0</ele><time>2026-04-29T14:33:34Z</time></trkpt><trkpt lat="37.373853379607205" lon="14.420974842055253"><ele>665.0</ele><time>2026-04-29T14:33:35Z</time></trkpt><trkpt lat="37.37381950676359" lon="14.420863688989279"><ele>663.8</ele><time>2026-04-29T14:33:36Z</time></trkpt><trkpt lat="37.37377440820452" lon="14.42077091259604"><ele>662.6</ele><time>2026-04-29T14:33:37Z</time></trkpt><trkpt lat="37.37373509041904" lon="14.42067319231627"><ele>661.4000000000001</ele><time>2026-04-29T14:33:38Z</time></trkpt><trkpt lat="37.37371102032174" lon="14.420566308534804"><ele>660.2</ele><time>2026-04-29T14:33:39Z</time></trkpt><trkpt lat="37.37367150824786" lon="14.420451577818564"><ele>659.0</ele><time>2026-04-29T14:33:40Z</time></trkpt><trkpt lat="37.373652783885" lon="14.420332745648171"><ele>657.6666666666666</ele><time>2026-04-29T14:33:41Z</time></trkpt><trkpt lat="37.3736451381327" lon="14.420216617957202"><ele>656.3333333333333</ele><time>2026-04-29T14:33:42Z</time></trkpt><trkpt lat="37.373641829232064" lon="14.420105192768194"><ele>655.0</ele><time>2026-04-29T14:33:43Z</time></trkpt><trkpt lat="37.37364236729687" lon="14.419997167607233"><ele>653.6666666666666</ele><time>2026-04-29T14:33:44Z</time></trkpt><trkpt lat="37.37363901433841" lon="14.419892664566863"><ele>652.3333333333334</ele><time>2026-04-29T14:33:45Z</time></trkpt><trkpt lat="37.373656540035924" lon="14.419783273153776"><ele>651.0</ele><time>2026-04-29T14:33:46Z</time></trkpt><trkpt lat="37.37366947419401" lon="14.41968410068809"><ele>649.5999999999999</ele><time>2026-04-29T14:33:47Z</time></trkpt><trkpt lat="37.37367646399187" lon="14.419587160402884"><ele>648.2</ele><time>2026-04-29T14:33:48Z</time></trkpt><trkpt lat="37.37364324199986" lon="14.419485616279198"><ele>646.8</ele><time>2026-04-29T14:33:49Z</time></trkpt><trkpt lat="37.37361300266978" lon="14.419368983632886"><ele>645.4000000000001</ele><time>2026-04-29T14:33:50Z</time></trkpt><trkpt lat="37.37356253363304" lon="14.4192664102774"><ele>644.0</ele><time>2026-04-29T14:33:51Z</time></trkpt><trkpt lat="37.37341347662709" lon="14.419230731876628"><ele>644.0</ele><time>2026-04-29T14:33:52Z</time></trkpt><trkpt lat="37.3734030201745" lon="14.419076310343145"><ele>644.0</ele><time>2026-04-29T14:33:53Z</time></trkpt><trkpt lat="37.37338637223634" lon="14.418979276383217"><ele>644.0</ele><time>2026-04-29T14:33:54Z</time></trkpt><trkpt lat="37.373365336656775" lon="14.418881397062172"><ele>644.0</ele><time>2026-04-29T14:33:55Z</time></trkpt><trkpt lat="37.37334403046914" lon="14.4187799877456"><ele>644.0</ele><time>2026-04-29T14:33:56Z</time></trkpt><trkpt lat="37.37332939610428" lon="14.418691022528897"><ele>644.0</ele><time>2026-04-29T14:33:57Z</time></trkpt><trkpt lat="37.37329144747988" lon="14.418552621181162"><ele>643.5</ele><time>2026-04-29T14:33:59Z</time></trkpt><trkpt lat="37.3732698536291" lon="14.418447156283667"><ele>643.0</ele><time>2026-04-29T14:34:01Z</time></trkpt><trkpt lat="37.373227850117814" lon="14.418338571309652"><ele>642.5</ele><time>2026-04-29T14:34:04Z</time></trkpt><trkpt lat="37.37319577439068" lon="14.418237678819091"><ele>642.0</ele><time>2026-04-29T14:34:05Z</time></trkpt><trkpt lat="37.373139032121614" lon="14.418152460214372"><ele>641.5</ele><time>2026-04-29T14:34:06Z</time></trkpt><trkpt lat="37.37307460289532" lon="14.41809190563006"><ele>641.0</ele><time>2026-04-29T14:34:07Z</time></trkpt><trkpt lat="37.37302214449911" lon="14.418017810280361"><ele>640.0</ele><time>2026-04-29T14:34:08Z</time></trkpt><trkpt lat="37.37296644571566" lon="14.41794246644035"><ele>639.0</ele><time>2026-04-29T14:34:09Z</time></trkpt><trkpt lat="37.372900987176045" lon="14.417862477152573"><ele>638.0</ele><time>2026-04-29T14:34:10Z</time></trkpt><trkpt lat="37.37285290176179" lon="14.417767470868727"><ele>637.0</ele><time>2026-04-29T14:34:11Z</time></trkpt><trkpt lat="37.37279905725573" lon="14.417683800697196"><ele>636.0</ele><time>2026-04-29T14:34:12Z</time></trkpt><trkpt lat="37.37274203590489" lon="14.41759551733189"><ele>635.0</ele><time>2026-04-29T14:34:13Z</time></trkpt><trkpt lat="37.37269772485376" lon="14.41751027626493"><ele>635.0</ele><time>2026-04-29T14:34:14Z</time></trkpt><trkpt lat="37.372663239331956" lon="14.417422585162365"><ele>635.0</ele><time>2026-04-29T14:34:15Z</time></trkpt><trkpt lat="37.37261453503285" lon="14.417341917964633"><ele>635.0</ele><time>2026-04-29T14:34:16Z</time></trkpt><trkpt lat="37.37259152211713" lon="14.41722688325482"><ele>635.0</ele><time>2026-04-29T14:34:17Z</time></trkpt><trkpt lat="37.3725455302223" lon="14.417096492811146"><ele>635.0</ele><time>2026-04-29T14:34:18Z</time></trkpt><trkpt lat="37.37249807237404" lon="14.416952617986498"><ele>635.5</ele><time>2026-04-29T14:34:19Z</time></trkpt><trkpt lat="37.37243911765534" lon="14.416809574487313"><ele>636.0</ele><time>2026-04-29T14:34:20Z</time></trkpt><trkpt lat="37.37239801025035" lon="14.416660114863264"><ele>636.5</ele><time>2026-04-29T14:34:21Z</time></trkpt><trkpt lat="37.372357313888386" lon="14.416506389746727"><ele>637.0</ele><time>2026-04-29T14:34:22Z</time></trkpt><trkpt lat="37.372314547558375" lon="14.416355723188094"><ele>637.25</ele><time>2026-04-29T14:34:23Z</time></trkpt><trkpt lat="37.37227459659625" lon="14.41620455248014"><ele>637.5</ele><time>2026-04-29T14:34:24Z</time></trkpt><trkpt lat="37.37223634749333" lon="14.416060704749643"><ele>637.75</ele><time>2026-04-29T14:34:25Z</time></trkpt><trkpt lat="37.372193236352885" lon="14.415923309687589"><ele>638.0</ele><time>2026-04-29T14:34:26Z</time></trkpt><trkpt lat="37.3721589784424" lon="14.4157734838809"><ele>636.5</ele><time>2026-04-29T14:34:27Z</time></trkpt><trkpt lat="37.37211320969711" lon="14.415625771085955"><ele>635.0</ele><time>2026-04-29T14:34:28Z</time></trkpt><trkpt lat="37.37206228452973" lon="14.41547185963708"><ele>633.5</ele><time>2026-04-29T14:34:29Z</time></trkpt><trkpt lat="37.372006571592394" lon="14.41532034076023"><ele>632.0</ele><time>2026-04-29T14:34:30Z</time></trkpt><trkpt lat="37.3719495904347" lon="14.415169044126571"><ele>632.75</ele><time>2026-04-29T14:34:31Z</time></trkpt><trkpt lat="37.37189453085655" lon="14.415027408475238"><ele>633.5</ele><time>2026-04-29T14:34:32Z</time></trkpt><trkpt lat="37.37183491732323" lon="14.414882402311262"><ele>634.25</ele><time>2026-04-29T14:34:33Z</time></trkpt><trkpt lat="37.37176534773611" lon="14.41473416399996"><ele>635.0</ele><time>2026-04-29T14:34:34Z</time></trkpt><trkpt lat="37.37169518184206" lon="14.414596934244182"><ele>635.0</ele><time>2026-04-29T14:34:35Z</time></trkpt><trkpt lat="37.37162958832251" lon="14.41447035635126"><ele>635.0</ele><time>2026-04-29T14:34:36Z</time></trkpt><trkpt lat="37.37156838705985" lon="14.41435049843198"><ele>635.0</ele><time>2026-04-29T14:34:37Z</time></trkpt><trkpt lat="37.37150301568409" lon="14.414213735690723"><ele>635.0</ele><time>2026-04-29T14:34:38Z</time></trkpt><trkpt lat="37.37143084459451" lon="14.414047880232369"><ele>632.3333333333333</ele><time>2026-04-29T14:34:39Z</time></trkpt><trkpt lat="37.371356376646496" lon="14.413873220945826"><ele>629.6666666666666</ele><time>2026-04-29T14:34:40Z</time></trkpt><trkpt lat="37.37128852686385" lon="14.413698147070383"><ele>627.0</ele><time>2026-04-29T14:34:41Z</time></trkpt><trkpt lat="37.37121880239696" lon="14.413525436166264"><ele>627.0</ele><time>2026-04-29T14:34:42Z</time></trkpt><trkpt lat="37.37114956870006" lon="14.413367550404143"><ele>627.0</ele><time>2026-04-29T14:34:43Z</time></trkpt><trkpt lat="37.371073009372296" lon="14.41321146179287"><ele>627.0</ele><time>2026-04-29T14:34:44Z</time></trkpt><trkpt lat="37.37097805089566" lon="14.413046758231417"><ele>629.3333333333334</ele><time>2026-04-29T14:34:45Z</time></trkpt><trkpt lat="37.37087901677448" lon="14.412882103313473"><ele>631.6666666666667</ele><time>2026-04-29T14:34:46Z</time></trkpt><trkpt lat="37.3707713144738" lon="14.412714822694912"><ele>634.0</ele><time>2026-04-29T14:34:47Z</time></trkpt><trkpt lat="37.37067734854786" lon="14.412567207207356"><ele>634.0</ele><time>2026-04-29T14:34:48Z</time></trkpt><trkpt lat="37.37058706097083" lon="14.4124169026799"><ele>634.0</ele><time>2026-04-29T14:34:49Z</time></trkpt><trkpt lat="37.37050229291293" lon="14.412263178537364"><ele>634.0</ele><time>2026-04-29T14:34:50Z</time></trkpt><trkpt lat="37.37041668895712" lon="14.412115750870399"><ele>634.0</ele><time>2026-04-29T14:34:51Z</time></trkpt><trkpt lat="37.37035680760539" lon="14.411954805100834"><ele>632.25</ele><time>2026-04-29T14:34:52Z</time></trkpt><trkpt lat="37.370313569449124" lon="14.411793853171355"><ele>630.5</ele><time>2026-04-29T14:34:53Z</time></trkpt><trkpt lat="37.370294095820896" lon="14.411624614044827"><ele>628.75</ele><time>2026-04-29T14:34:54Z</time></trkpt><trkpt lat="37.37029780336178" lon="14.411447192277505"><ele>627.0</ele><time>2026-04-29T14:34:55Z</time></trkpt><trkpt lat="37.37031604671502" lon="14.411243225921897"><ele>626.3333333333334</ele><time>2026-04-29T14:34:56Z</time></trkpt><trkpt lat="37.37033917017862" lon="14.411031410163018"><ele>625.6666666666667</ele><time>2026-04-29T14:34:57Z</time></trkpt><trkpt lat="37.37037001600024" lon="14.410826279044207"><ele>625.0</ele><time>2026-04-29T14:34:58Z</time></trkpt><trkpt lat="37.37039489871451" lon="14.410641542928627"><ele>624.5</ele><time>2026-04-29T14:34:59Z</time></trkpt><trkpt lat="37.370412235476934" lon="14.410469405123866"><ele>624.0</ele><time>2026-04-29T14:35:00Z</time></trkpt><trkpt lat="37.370411505353445" lon="14.410300588485601"><ele>623.5</ele><time>2026-04-29T14:35:01Z</time></trkpt><trkpt lat="37.3703896292122" lon="14.410124867942299"><ele>623.0</ele><time>2026-04-29T14:35:02Z</time></trkpt><trkpt lat="37.37036049831313" lon="14.409952524882895"><ele>623.0</ele><time>2026-04-29T14:35:03Z</time></trkpt><trkpt lat="37.370316597005015" lon="14.409778283161407"><ele>623.0</ele><time>2026-04-29T14:35:04Z</time></trkpt><trkpt lat="37.37026029407656" lon="14.409609237168187"><ele>623.0</ele><time>2026-04-29T14:35:05Z</time></trkpt><trkpt lat="37.37020973404203" lon="14.409449007770172"><ele>623.0</ele><time>2026-04-29T14:35:06Z</time></trkpt><trkpt lat="37.37016213890117" lon="14.409292635077179"><ele>622.75</ele><time>2026-04-29T14:35:07Z</time></trkpt><trkpt lat="37.37011548962402" lon="14.409139432567049"><ele>622.5</ele><time>2026-04-29T14:35:08Z</time></trkpt><trkpt lat="37.37007439915334" lon="14.408994033423344"><ele>622.25</ele><time>2026-04-29T14:35:09Z</time></trkpt><trkpt lat="37.3700523204864" lon="14.408837361300968"><ele>622.0</ele><time>2026-04-29T14:35:10Z</time></trkpt><trkpt lat="37.37004313257594" lon="14.408667716788349"><ele>622.0</ele><time>2026-04-29T14:35:11Z</time></trkpt><trkpt lat="37.37004126618707" lon="14.408503979113744"><ele>622.0</ele><time>2026-04-29T14:35:12Z</time></trkpt><trkpt lat="37.37004558134779" lon="14.408338768630271"><ele>622.0</ele><time>2026-04-29T14:35:13Z</time></trkpt><trkpt lat="37.37005383693387" lon="14.408167936516014"><ele>622.0</ele><time>2026-04-29T14:35:14Z</time></trkpt><trkpt lat="37.3700723951196" lon="14.4079969672905"><ele>620.5</ele><time>2026-04-29T14:35:15Z</time></trkpt><trkpt lat="37.37010710700653" lon="14.407831621114537"><ele>619.0</ele><time>2026-04-29T14:35:16Z</time></trkpt><trkpt lat="37.37014960621355" lon="14.407679773586242"><ele>617.5</ele><time>2026-04-29T14:35:17Z</time></trkpt><trkpt lat="37.37018958215967" lon="14.407526191940889"><ele>616.0</ele><time>2026-04-29T14:35:18Z</time></trkpt><trkpt lat="37.37022983797193" lon="14.407375178758102"><ele>616.0</ele><time>2026-04-29T14:35:19Z</time></trkpt><trkpt lat="37.37027505961501" lon="14.407232157370624"><ele>616.0</ele><time>2026-04-29T14:35:20Z</time></trkpt><trkpt lat="37.37033098895172" lon="14.4070914037063"><ele>616.0</ele><time>2026-04-29T14:35:21Z</time></trkpt><trkpt lat="37.37040171622463" lon="14.406943903077336"><ele>616.0</ele><time>2026-04-29T14:35:22Z</time></trkpt><trkpt lat="37.370472272575654" lon="14.406803310192602"><ele>616.75</ele><time>2026-04-29T14:35:23Z</time></trkpt><trkpt lat="37.37054251087575" lon="14.406658289133487"><ele>617.5</ele><time>2026-04-29T14:35:24Z</time></trkpt><trkpt lat="37.37058809292245" lon="14.4064891418624"><ele>618.25</ele><time>2026-04-29T14:35:25Z</time></trkpt><trkpt lat="37.37059642704652" lon="14.406314875445341"><ele>619.0</ele><time>2026-04-29T14:35:26Z</time></trkpt><trkpt lat="37.370581356421134" lon="14.406143210172884"><ele>617.5</ele><time>2026-04-29T14:35:27Z</time></trkpt><trkpt lat="37.37056854147687" lon="14.40595770153438"><ele>616.0</ele><time>2026-04-29T14:35:28Z</time></trkpt><trkpt lat="37.3705655122361" lon="14.405783366727773"><ele>614.5</ele><time>2026-04-29T14:35:29Z</time></trkpt><trkpt lat="37.37056581786026" lon="14.405621026662693"><ele>613.0</ele><time>2026-04-29T14:35:30Z</time></trkpt><trkpt lat="37.37056421979872" lon="14.40546039408592"><ele>613.0</ele><time>2026-04-29T14:35:31Z</time></trkpt><trkpt lat="37.370559046073986" lon="14.405295673028736"><ele>613.0</ele><time>2026-04-29T14:35:32Z</time></trkpt><trkpt lat="37.37055048306136" lon="14.40513735025161"><ele>613.0</ele><time>2026-04-29T14:35:33Z</time></trkpt><trkpt lat="37.370545556861856" lon="14.404990280670967"><ele>613.0</ele><time>2026-04-29T14:35:34Z</time></trkpt><trkpt lat="37.370542588413166" lon="14.404854315512795"><ele>613.0</ele><time>2026-04-29T14:35:35Z</time></trkpt><trkpt lat="37.370546546956064" lon="14.404725907866954"><ele>613.0</ele><time>2026-04-29T14:35:36Z</time></trkpt><trkpt lat="37.37054966111919" lon="14.404607904895899"><ele>613.0</ele><time>2026-04-29T14:35:37Z</time></trkpt><trkpt lat="37.37055273125432" lon="14.404501121766353"><ele>613.0</ele><time>2026-04-29T14:35:38Z</time></trkpt><trkpt lat="37.37054361355105" lon="14.404399368603961"><ele>613.0</ele><time>2026-04-29T14:35:39Z</time></trkpt><trkpt lat="37.37054317131021" lon="14.404295119332755"><ele>613.0</ele><time>2026-04-29T14:35:40Z</time></trkpt><trkpt lat="37.37055437847213" lon="14.404177844595832"><ele>613.75</ele><time>2026-04-29T14:35:41Z</time></trkpt><trkpt lat="37.370578759657995" lon="14.40404500859685"><ele>614.5</ele><time>2026-04-29T14:35:42Z</time></trkpt><trkpt lat="37.37061623374173" lon="14.403894359314407"><ele>615.25</ele><time>2026-04-29T14:35:43Z</time></trkpt><trkpt lat="37.37064854658398" lon="14.403737456390285"><ele>616.0</ele><time>2026-04-29T14:35:44Z</time></trkpt><trkpt lat="37.37067656544214" lon="14.4035832996102"><ele>616.0</ele><time>2026-04-29T14:35:45Z</time></trkpt><trkpt lat="37.37070451219424" lon="14.403449208084899"><ele>616.0</ele><time>2026-04-29T14:35:46Z</time></trkpt><trkpt lat="37.370734366510085" lon="14.40331797501787"><ele>616.0</ele><time>2026-04-29T14:35:47Z</time></trkpt><trkpt lat="37.370759334314904" lon="14.403178047077095"><ele>616.0</ele><time>2026-04-29T14:35:48Z</time></trkpt><trkpt lat="37.37078512002783" lon="14.403027211121337"><ele>616.75</ele><time>2026-04-29T14:35:49Z</time></trkpt><trkpt lat="37.370814287393586" lon="14.402864770846469"><ele>617.5</ele><time>2026-04-29T14:35:50Z</time></trkpt><trkpt lat="37.37084071056051" lon="14.402706260812717"><ele>618.25</ele><time>2026-04-29T14:35:51Z</time></trkpt><trkpt lat="37.370858109197854" lon="14.402568672794642"><ele>619.0</ele><time>2026-04-29T14:35:52Z</time></trkpt><trkpt lat="37.37087662459066" lon="14.402442026595967"><ele>619.0</ele><time>2026-04-29T14:35:53Z</time></trkpt><trkpt lat="37.37088685188783" lon="14.402309435018518"><ele>619.0</ele><time>2026-04-29T14:35:54Z</time></trkpt><trkpt lat="37.37089728036032" lon="14.40216949803673"><ele>619.0</ele><time>2026-04-29T14:35:55Z</time></trkpt><trkpt lat="37.37091985337832" lon="14.402012499378321"><ele>619.0</ele><time>2026-04-29T14:35:56Z</time></trkpt><trkpt lat="37.37094590825182" lon="14.401839919821827"><ele>621.6666666666667</ele><time>2026-04-29T14:35:57Z</time></trkpt><trkpt lat="37.370965389983034" lon="14.401651671270509"><ele>624.3333333333334</ele><time>2026-04-29T14:35:58Z</time></trkpt><trkpt lat="37.37098202512857" lon="14.401450469880372"><ele>627.0</ele><time>2026-04-29T14:35:59Z</time></trkpt><trkpt lat="37.37100231121878" lon="14.4012619473761"><ele>629.5</ele><time>2026-04-29T14:36:00Z</time></trkpt><trkpt lat="37.37102296930856" lon="14.401096859285293"><ele>632.0</ele><time>2026-04-29T14:36:01Z</time></trkpt><trkpt lat="37.371039983539994" lon="14.400934236859394"><ele>634.5</ele><time>2026-04-29T14:36:02Z</time></trkpt><trkpt lat="37.37105364775823" lon="14.400768387200277"><ele>637.0</ele><time>2026-04-29T14:36:03Z</time></trkpt><trkpt lat="37.37106659530681" lon="14.40060060342368"><ele>638.5</ele><time>2026-04-29T14:36:04Z</time></trkpt><trkpt lat="37.371082091421265" lon="14.400435865323615"><ele>640.0</ele><time>2026-04-29T14:36:05Z</time></trkpt><trkpt lat="37.37110231620455" lon="14.40027091816229"><ele>641.5</ele><time>2026-04-29T14:36:06Z</time></trkpt><trkpt lat="37.37111041958858" lon="14.400100138504278"><ele>643.0</ele><time>2026-04-29T14:36:07Z</time></trkpt><trkpt lat="37.37109691135519" lon="14.399927745927638"><ele>643.0</ele><time>2026-04-29T14:36:08Z</time></trkpt><trkpt lat="37.3710759832171" lon="14.399752765170797"><ele>643.0</ele><time>2026-04-29T14:36:09Z</time></trkpt><trkpt lat="37.371050659912385" lon="14.399568847431848"><ele>643.0</ele><time>2026-04-29T14:36:10Z</time></trkpt><trkpt lat="37.371026269555976" lon="14.399386202883372"><ele>643.0</ele><time>2026-04-29T14:36:11Z</time></trkpt><trkpt lat="37.37100244583435" lon="14.399204408554974"><ele>646.25</ele><time>2026-04-29T14:36:12Z</time></trkpt><trkpt lat="37.37098004305979" lon="14.39902515696444"><ele>649.5</ele><time>2026-04-29T14:36:13Z</time></trkpt><trkpt lat="37.37095520522708" lon="14.398851622160269"><ele>652.75</ele><time>2026-04-29T14:36:14Z</time></trkpt><trkpt lat="37.37093489931029" lon="14.3986782784937"><ele>656.0</ele><time>2026-04-29T14:36:15Z</time></trkpt><trkpt lat="37.37091752321467" lon="14.39850211549595"><ele>658.0</ele><time>2026-04-29T14:36:16Z</time></trkpt><trkpt lat="37.37089886687155" lon="14.39833085370668"><ele>660.0</ele><time>2026-04-29T14:36:17Z</time></trkpt><trkpt lat="37.37088856173618" lon="14.398173231438689"><ele>662.0</ele><time>2026-04-29T14:36:18Z</time></trkpt><trkpt lat="37.37087616031742" lon="14.398014368791074"><ele>664.0</ele><time>2026-04-29T14:36:19Z</time></trkpt><trkpt lat="37.370860591246476" lon="14.397856447893385"><ele>665.0</ele><time>2026-04-29T14:36:20Z</time></trkpt><trkpt lat="37.37084470625919" lon="14.397704419985141"><ele>666.0</ele><time>2026-04-29T14:36:21Z</time></trkpt><trkpt lat="37.370828788085646" lon="14.397560606393958"><ele>667.0</ele><time>2026-04-29T14:36:22Z</time></trkpt><trkpt lat="37.37081328934627" lon="14.397432694369538"><ele>668.0</ele><time>2026-04-29T14:36:23Z</time></trkpt><trkpt lat="37.37080412016431" lon="14.397327079338165"><ele>669.0</ele><time>2026-04-29T14:36:24Z</time></trkpt><trkpt lat="37.37079053541887" lon="14.397242521960987"><ele>668.8000000000001</ele><time>2026-04-29T14:36:25Z</time></trkpt><trkpt lat="37.3707713049093" lon="14.397164091051891"><ele>668.6</ele><time>2026-04-29T14:36:26Z</time></trkpt><trkpt lat="37.37075491717617" lon="14.397036027070698"><ele>668.4</ele><time>2026-04-29T14:36:27Z</time></trkpt><trkpt lat="37.37075278259836" lon="14.396871184739203"><ele>668.2</ele><time>2026-04-29T14:36:28Z</time></trkpt><trkpt lat="37.37075994322196" lon="14.3967002316534"><ele>668.0</ele><time>2026-04-29T14:36:29Z</time></trkpt><trkpt lat="37.370772759505805" lon="14.396538550088394"><ele>668.0</ele><time>2026-04-29T14:36:30Z</time></trkpt><trkpt lat="37.370786716271844" lon="14.396385654945556"><ele>668.0</ele><time>2026-04-29T14:36:31Z</time></trkpt><trkpt lat="37.37079785405903" lon="14.39623143848877"><ele>668.0</ele><time>2026-04-29T14:36:32Z</time></trkpt><trkpt lat="37.3708117886618" lon="14.396077619258444"><ele>668.0</ele><time>2026-04-29T14:36:33Z</time></trkpt><trkpt lat="37.37082960883398" lon="14.395926688796727"><ele>666.25</ele><time>2026-04-29T14:36:34Z</time></trkpt><trkpt lat="37.37084766435075" lon="14.395776822241578"><ele>664.5</ele><time>2026-04-29T14:36:35Z</time></trkpt><trkpt lat="37.37087128026134" lon="14.395630725719114"><ele>662.75</ele><time>2026-04-29T14:36:36Z</time></trkpt><trkpt lat="37.370919664391145" lon="14.395478690514887"><ele>661.0</ele><time>2026-04-29T14:36:37Z</time></trkpt><trkpt lat="37.37098464383067" lon="14.395333063465326"><ele>657.25</ele><time>2026-04-29T14:36:38Z</time></trkpt><trkpt lat="37.37105038624975" lon="14.395196718381113"><ele>653.5</ele><time>2026-04-29T14:36:39Z</time></trkpt><trkpt lat="37.3711162770634" lon="14.395073445823916"><ele>649.75</ele><time>2026-04-29T14:36:40Z</time></trkpt><trkpt lat="37.37118696205368" lon="14.394953956731678"><ele>646.0</ele><time>2026-04-29T14:36:41Z</time></trkpt><trkpt lat="37.37125899731166" lon="14.39484551404432"><ele>646.0</ele><time>2026-04-29T14:36:42Z</time></trkpt><trkpt lat="37.371343668378024" lon="14.39476396726261"><ele>646.0</ele><time>2026-04-29T14:36:43Z</time></trkpt><trkpt lat="37.37145467658958" lon="14.394704558290671"><ele>646.0</ele><time>2026-04-29T14:36:44Z</time></trkpt><trkpt lat="37.3715835844903" lon="14.394653213459655"><ele>646.0</ele><time>2026-04-29T14:36:45Z</time></trkpt><trkpt lat="37.37171662576414" lon="14.394595170462964"><ele>644.75</ele><time>2026-04-29T14:36:46Z</time></trkpt><trkpt lat="37.37183518349052" lon="14.39453562744891"><ele>643.5</ele><time>2026-04-29T14:36:47Z</time></trkpt><trkpt lat="37.371947270857966" lon="14.394479552383999"><ele>642.25</ele><time>2026-04-29T14:36:48Z</time></trkpt><trkpt lat="37.37206381128631" lon="14.39443094896541"><ele>641.0</ele><time>2026-04-29T14:36:49Z</time></trkpt><trkpt lat="37.37218229283925" lon="14.39439063228435"><ele>641.75</ele><time>2026-04-29T14:36:50Z</time></trkpt><trkpt lat="37.37229859778401" lon="14.394364582694553"><ele>642.5</ele><time>2026-04-29T14:36:51Z</time></trkpt><trkpt lat="37.372408699864664" lon="14.394346331576854"><ele>643.25</ele><time>2026-04-29T14:36:52Z</time></trkpt><trkpt lat="37.37252144082025" lon="14.394345202248617"><ele>644.0</ele><time>2026-04-29T14:36:53Z</time></trkpt><trkpt lat="37.3726303471103" lon="14.394362460294996"><ele>644.0</ele><time>2026-04-29T14:36:54Z</time></trkpt><trkpt lat="37.37273070028097" lon="14.394374684299766"><ele>644.0</ele><time>2026-04-29T14:36:55Z</time></trkpt><trkpt lat="37.37282167904717" lon="14.394335900799987"><ele>644.0</ele><time>2026-04-29T14:36:56Z</time></trkpt><trkpt lat="37.372893820535985" lon="14.394255261196312"><ele>644.0</ele><time>2026-04-29T14:36:57Z</time></trkpt><trkpt lat="37.37295044399185" lon="14.394169698803763"><ele>644.0</ele><time>2026-04-29T14:36:58Z</time></trkpt><trkpt lat="37.373000185211275" lon="14.394093528947636"><ele>644.0</ele><time>2026-04-29T14:36:59Z</time></trkpt><trkpt lat="37.37302401507202" lon="14.394011415162014"><ele>644.0</ele><time>2026-04-29T14:37:00Z</time></trkpt><trkpt lat="37.37301118468918" lon="14.393916949282232"><ele>644.0</ele><time>2026-04-29T14:37:01Z</time></trkpt><trkpt lat="37.372968641229924" lon="14.393826247801137"><ele>644.0</ele><time>2026-04-29T14:37:02Z</time></trkpt><trkpt lat="37.37295036117543" lon="14.393739271305064"><ele>644.0</ele><time>2026-04-29T14:37:03Z</time></trkpt><trkpt lat="37.372986280470215" lon="14.393637079384968"><ele>644.0</ele><time>2026-04-29T14:37:04Z</time></trkpt><trkpt lat="37.37304026116691" lon="14.393534128953945"><ele>644.0</ele><time>2026-04-29T14:37:05Z</time></trkpt><trkpt lat="37.37305680811232" lon="14.393430663013557"><ele>644.0</ele><time>2026-04-29T14:37:06Z</time></trkpt><trkpt lat="37.3730687904894" lon="14.393307132780771"><ele>644.0</ele><time>2026-04-29T14:37:07Z</time></trkpt><trkpt lat="37.373079768826365" lon="14.39318909357751"><ele>644.0</ele><time>2026-04-29T14:37:08Z</time></trkpt><trkpt lat="37.37308759605618" lon="14.393091578521712"><ele>644.0</ele><time>2026-04-29T14:37:09Z</time></trkpt><trkpt lat="37.37310864000163" lon="14.39300315580389"><ele>644.0</ele><time>2026-04-29T14:37:10Z</time></trkpt><trkpt lat="37.37312490016472" lon="14.392926506859803"><ele>641.8000000000001</ele><time>2026-04-29T14:37:11Z</time></trkpt><trkpt lat="37.37306234357159" lon="14.392796521834619"><ele>639.6</ele><time>2026-04-29T14:37:13Z</time></trkpt><trkpt lat="37.373008731517146" lon="14.392742653307057"><ele>637.4</ele><time>2026-04-29T14:37:15Z</time></trkpt><trkpt lat="37.372881028113014" lon="14.392792668533291"><ele>635.2</ele><time>2026-04-29T14:37:16Z</time></trkpt><trkpt lat="37.37278340598669" lon="14.39278132744133"><ele>633.0</ele><time>2026-04-29T14:37:18Z</time></trkpt><trkpt lat="37.372789400256345" lon="14.39266596676908"><ele>632.75</ele><time>2026-04-29T14:37:19Z</time></trkpt><trkpt lat="37.37278181042479" lon="14.39253732220742"><ele>632.5</ele><time>2026-04-29T14:37:20Z</time></trkpt><trkpt lat="37.372784795471205" lon="14.392404673686077"><ele>632.25</ele><time>2026-04-29T14:37:21Z</time></trkpt><trkpt lat="37.37276622899891" lon="14.392244294342758"><ele>632.0</ele><time>2026-04-29T14:37:22Z</time></trkpt><trkpt lat="37.37274565636752" lon="14.39208588278852"><ele>632.0</ele><time>2026-04-29T14:37:23Z</time></trkpt><trkpt lat="37.3726926653612" lon="14.391933112398975"><ele>632.0</ele><time>2026-04-29T14:37:24Z</time></trkpt><trkpt lat="37.372616867362765" lon="14.391797602724186"><ele>632.0</ele><time>2026-04-29T14:37:25Z</time></trkpt><trkpt lat="37.37251384578824" lon="14.39166127985218"><ele>632.0</ele><time>2026-04-29T14:37:26Z</time></trkpt><trkpt lat="37.37239103374534" lon="14.391541932618921"><ele>632.0</ele><time>2026-04-29T14:37:27Z</time></trkpt><trkpt lat="37.37227211564128" lon="14.391445562460657"><ele>632.0</ele><time>2026-04-29T14:37:28Z</time></trkpt><trkpt lat="37.37216172163917" lon="14.391339045922319"><ele>632.0</ele><time>2026-04-29T14:37:29Z</time></trkpt><trkpt lat="37.37205157218247" lon="14.391231726996075"><ele>632.0</ele><time>2026-04-29T14:37:30Z</time></trkpt><trkpt lat="37.37193562513842" lon="14.391129899040608"><ele>634.25</ele><time>2026-04-29T14:37:31Z</time></trkpt><trkpt lat="37.37180994967646" lon="14.391026318922087"><ele>636.5</ele><time>2026-04-29T14:37:32Z</time></trkpt><trkpt lat="37.37168122697855" lon="14.390934803633701"><ele>638.75</ele><time>2026-04-29T14:37:33Z</time></trkpt><trkpt lat="37.371550887005434" lon="14.390854640782523"><ele>641.0</ele><time>2026-04-29T14:37:34Z</time></trkpt><trkpt lat="37.37142018821825" lon="14.390796681443783"><ele>640.5</ele><time>2026-04-29T14:37:35Z</time></trkpt><trkpt lat="37.37129199414144" lon="14.390712966241454"><ele>640.0</ele><time>2026-04-29T14:37:36Z</time></trkpt><trkpt lat="37.371158859629105" lon="14.390654900499067"><ele>639.5</ele><time>2026-04-29T14:37:37Z</time></trkpt><trkpt lat="37.37103360178746" lon="14.390619405252181"><ele>639.0</ele><time>2026-04-29T14:37:38Z</time></trkpt><trkpt lat="37.37092927953589" lon="14.390573700911734"><ele>639.0</ele><time>2026-04-29T14:37:39Z</time></trkpt><trkpt lat="37.37083996458061" lon="14.390520397092896"><ele>639.0</ele><time>2026-04-29T14:37:40Z</time></trkpt><trkpt lat="37.37076064605708" lon="14.39046336005154"><ele>639.0</ele><time>2026-04-29T14:37:41Z</time></trkpt><trkpt lat="37.370686871752206" lon="14.390391785447438"><ele>639.0</ele><time>2026-04-29T14:37:42Z</time></trkpt><trkpt lat="37.3706223017937" lon="14.390301225056387"><ele>639.0</ele><time>2026-04-29T14:37:43Z</time></trkpt><trkpt lat="37.37056095401221" lon="14.390198210784432"><ele>639.8333333333334</ele><time>2026-04-29T14:37:44Z</time></trkpt><trkpt lat="37.37051999405033" lon="14.390125172453288"><ele>640.6666666666666</ele><time>2026-04-29T14:37:45Z</time></trkpt><trkpt lat="37.37050860099641" lon="14.390042952849036"><ele>641.5</ele><time>2026-04-29T14:37:49Z</time></trkpt><trkpt lat="37.37054075762388" lon="14.389953557635884"><ele>642.3333333333333</ele><time>2026-04-29T14:37:50Z</time></trkpt><trkpt lat="37.370605874679185" lon="14.389905260368229"><ele>643.1666666666666</ele><time>2026-04-29T14:37:51Z</time></trkpt><trkpt lat="37.370678992258775" lon="14.389860420423325"><ele>644.0</ele><time>2026-04-29T14:37:52Z</time></trkpt><trkpt lat="37.37076101074366" lon="14.389814177703341"><ele>645.3333333333333</ele><time>2026-04-29T14:37:53Z</time></trkpt><trkpt lat="37.3708567785623" lon="14.38978541983417"><ele>646.6666666666666</ele><time>2026-04-29T14:37:54Z</time></trkpt><trkpt lat="37.370918091554714" lon="14.389755749949252"><ele>648.0</ele><time>2026-04-29T14:37:55Z</time></trkpt><trkpt lat="37.37101338606702" lon="14.389776977948367"><ele>649.3333333333334</ele><time>2026-04-29T14:37:58Z</time></trkpt><trkpt lat="37.371069940218696" lon="14.389733882643247"><ele>650.6666666666667</ele><time>2026-04-29T14:38:01Z</time></trkpt><trkpt lat="37.37112622657346" lon="14.38969333363196"><ele>652.0</ele><time>2026-04-29T14:38:13Z</time></trkpt><trkpt lat="37.37121217229377" lon="14.389645402266586"><ele>652.5</ele><time>2026-04-29T14:38:15Z</time></trkpt><trkpt lat="37.37128403274727" lon="14.389621598328196"><ele>653.0</ele><time>2026-04-29T14:38:17Z</time></trkpt><trkpt lat="37.37135397705813" lon="14.389597044153785"><ele>653.5</ele><time>2026-04-29T14:38:26Z</time></trkpt><trkpt lat="37.37141975828892" lon="14.389570421474088"><ele>654.0</ele><time>2026-04-29T14:38:30Z</time></trkpt><trkpt lat="37.37148420263866" lon="14.38952301425035"><ele>654.5</ele><time>2026-04-29T14:38:34Z</time></trkpt><trkpt lat="37.371552540108205" lon="14.389483295093793"><ele>655.0</ele><time>2026-04-29T14:38:38Z</time></trkpt><trkpt lat="37.37163507973907" lon="14.389410410853603"><ele>656.6666666666667</ele><time>2026-04-29T14:38:41Z</time></trkpt><trkpt lat="37.37169223719664" lon="14.389342075403718"><ele>658.3333333333334</ele><time>2026-04-29T14:38:42Z</time></trkpt><trkpt lat="37.371765357470665" lon="14.389282955454945"><ele>660.0</ele><time>2026-04-29T14:38:43Z</time></trkpt><trkpt lat="37.37181658606483" lon="14.389181960091754"><ele>661.6666666666666</ele><time>2026-04-29T14:38:44Z</time></trkpt><trkpt lat="37.37188239663624" lon="14.38912787438248"><ele>663.3333333333333</ele><time>2026-04-29T14:38:45Z</time></trkpt><trkpt lat="37.371948632884006" lon="14.38907870132201"><ele>665.0</ele><time>2026-04-29T14:38:46Z</time></trkpt><trkpt lat="37.37203311929952" lon="14.389031706507339"><ele>665.0</ele><time>2026-04-29T14:38:47Z</time></trkpt><trkpt lat="37.3721336176996" lon="14.388989016143926"><ele>665.0</ele><time>2026-04-29T14:38:48Z</time></trkpt><trkpt lat="37.37222619259306" lon="14.38894982922364"><ele>665.0</ele><time>2026-04-29T14:38:49Z</time></trkpt><trkpt lat="37.372311557033235" lon="14.38891179925485"><ele>665.0</ele><time>2026-04-29T14:38:50Z</time></trkpt><trkpt lat="37.37239088539419" lon="14.388875327049378"><ele>665.0</ele><time>2026-04-29T14:38:51Z</time></trkpt><trkpt lat="37.372465056071036" lon="14.388838454625523"><ele>666.8</ele><time>2026-04-29T14:38:52Z</time></trkpt><trkpt lat="37.372534796840775" lon="14.38879318257414"><ele>668.6</ele><time>2026-04-29T14:38:53Z</time></trkpt><trkpt lat="37.37259469864293" lon="14.3887242058045"><ele>670.4000000000001</ele><time>2026-04-29T14:38:54Z</time></trkpt><trkpt lat="37.372652310777696" lon="14.388632060858296"><ele>672.2</ele><time>2026-04-29T14:38:55Z</time></trkpt><trkpt lat="37.37271104800659" lon="14.388530832706438"><ele>674.0</ele><time>2026-04-29T14:38:56Z</time></trkpt><trkpt lat="37.372779637489536" lon="14.388434491883267"><ele>674.0</ele><time>2026-04-29T14:38:57Z</time></trkpt><trkpt lat="37.37284335501393" lon="14.388330324353692"><ele>674.0</ele><time>2026-04-29T14:38:58Z</time></trkpt><trkpt lat="37.372923689729554" lon="14.388226314536334"><ele>674.0</ele><time>2026-04-29T14:38:59Z</time></trkpt><trkpt lat="37.37301234838187" lon="14.388137995470087"><ele>674.0</ele><time>2026-04-29T14:39:00Z</time></trkpt><trkpt lat="37.37307908221202" lon="14.388039458661433"><ele>674.0</ele><time>2026-04-29T14:39:01Z</time></trkpt><trkpt lat="37.37315458622778" lon="14.38795458026109"><ele>677.75</ele><time>2026-04-29T14:39:02Z</time></trkpt><trkpt lat="37.37323783726406" lon="14.387864359758701"><ele>681.5</ele><time>2026-04-29T14:39:03Z</time></trkpt><trkpt lat="37.37331412330524" lon="14.387749189609563"><ele>685.25</ele><time>2026-04-29T14:39:04Z</time></trkpt><trkpt lat="37.373388228258435" lon="14.387622561716087"><ele>689.0</ele><time>2026-04-29T14:39:05Z</time></trkpt><trkpt lat="37.37345570576186" lon="14.387487406605839"><ele>689.0</ele><time>2026-04-29T14:39:06Z</time></trkpt><trkpt lat="37.37350868633318" lon="14.38734582197388"><ele>689.0</ele><time>2026-04-29T14:39:07Z</time></trkpt><trkpt lat="37.37355714013178" lon="14.387203130744108"><ele>689.0</ele><time>2026-04-29T14:39:08Z</time></trkpt><trkpt lat="37.37361409251737" lon="14.387061020272082"><ele>689.0</ele><time>2026-04-29T14:39:09Z</time></trkpt><trkpt lat="37.37367783838235" lon="14.38692993721222"><ele>689.0</ele><time>2026-04-29T14:39:10Z</time></trkpt><trkpt lat="37.37374619363188" lon="14.38680529296327"><ele>689.0</ele><time>2026-04-29T14:39:11Z</time></trkpt><trkpt lat="37.37381727110064" lon="14.386684598381935"><ele>689.0</ele><time>2026-04-29T14:39:12Z</time></trkpt><trkpt lat="37.37388682118233" lon="14.386565445237412"><ele>689.0</ele><time>2026-04-29T14:39:13Z</time></trkpt><trkpt lat="37.37395108139125" lon="14.386445463873631"><ele>694.5</ele><time>2026-04-29T14:39:14Z</time></trkpt><trkpt lat="37.37400514559997" lon="14.386317472321311"><ele>700.0</ele><time>2026-04-29T14:39:15Z</time></trkpt><trkpt lat="37.374075639623335" lon="14.38619817365397"><ele>705.5</ele><time>2026-04-29T14:39:16Z</time></trkpt><trkpt lat="37.374149861855855" lon="14.386072812955"><ele>711.0</ele><time>2026-04-29T14:39:17Z</time></trkpt><trkpt lat="37.37422849038633" lon="14.385951752363168"><ele>711.0</ele><time>2026-04-29T14:39:18Z</time></trkpt><trkpt lat="37.37431489595362" lon="14.385834366783074"><ele>711.0</ele><time>2026-04-29T14:39:19Z</time></trkpt><trkpt lat="37.374399422291404" lon="14.38570914278242"><ele>711.0</ele><time>2026-04-29T14:39:20Z</time></trkpt><trkpt lat="37.374483579904734" lon="14.385579303572658"><ele>711.0</ele><time>2026-04-29T14:39:21Z</time></trkpt><trkpt lat="37.374566419152984" lon="14.385446376563346"><ele>710.5</ele><time>2026-04-29T14:39:22Z</time></trkpt><trkpt lat="37.37464905487394" lon="14.385316042284385"><ele>710.0</ele><time>2026-04-29T14:39:23Z</time></trkpt><trkpt lat="37.37472718009322" lon="14.385206590104085"><ele>709.5</ele><time>2026-04-29T14:39:24Z</time></trkpt><trkpt lat="37.374795660067065" lon="14.385094212193243"><ele>709.0</ele><time>2026-04-29T14:39:25Z</time></trkpt><trkpt lat="37.374848635023305" lon="14.384961144328795"><ele>713.25</ele><time>2026-04-29T14:39:26Z</time></trkpt><trkpt lat="37.37491112771586" lon="14.384817847774926"><ele>717.5</ele><time>2026-04-29T14:39:27Z</time></trkpt><trkpt lat="37.37498096424707" lon="14.384668169631093"><ele>721.75</ele><time>2026-04-29T14:39:28Z</time></trkpt><trkpt lat="37.375044546572866" lon="14.384517424300286"><ele>726.0</ele><time>2026-04-29T14:39:29Z</time></trkpt><trkpt lat="37.37510521719195" lon="14.384378957101688"><ele>726.5999999999999</ele><time>2026-04-29T14:39:30Z</time></trkpt><trkpt lat="37.37516134633257" lon="14.38424322833921"><ele>727.2</ele><time>2026-04-29T14:39:31Z</time></trkpt><trkpt lat="37.37521639014406" lon="14.384130672898088"><ele>727.8</ele><time>2026-04-29T14:39:32Z</time></trkpt><trkpt lat="37.37525404938062" lon="14.384059107305196"><ele>728.4000000000001</ele><time>2026-04-29T14:39:33Z</time></trkpt><trkpt lat="37.37530832870908" lon="14.383938090261942"><ele>729.0</ele><time>2026-04-29T14:39:35Z</time></trkpt><trkpt lat="37.375359053719535" lon="14.383851451611607"><ele>727.8000000000001</ele><time>2026-04-29T14:39:36Z</time></trkpt><trkpt lat="37.37541496071053" lon="14.383758609543616"><ele>726.6</ele><time>2026-04-29T14:39:37Z</time></trkpt><trkpt lat="37.375472508663606" lon="14.383655488817956"><ele>725.4</ele><time>2026-04-29T14:39:38Z</time></trkpt><trkpt lat="37.375541746257966" lon="14.383552346009296"><ele>724.2</ele><time>2026-04-29T14:39:39Z</time></trkpt><trkpt lat="37.37561567402499" lon="14.383435986600976"><ele>723.0</ele><time>2026-04-29T14:39:40Z</time></trkpt><trkpt lat="37.37570102981246" lon="14.383299542985554"><ele>726.3333333333334</ele><time>2026-04-29T14:39:41Z</time></trkpt><trkpt lat="37.37579682455953" lon="14.383152632859408"><ele>729.6666666666667</ele><time>2026-04-29T14:39:42Z</time></trkpt><trkpt lat="37.3759000142844" lon="14.3830058148701"><ele>733.0</ele><time>2026-04-29T14:39:43Z</time></trkpt><trkpt lat="37.37600472460271" lon="14.382861210057357"><ele>733.0</ele><time>2026-04-29T14:39:44Z</time></trkpt><trkpt lat="37.37611094779312" lon="14.382721243623086"><ele>733.0</ele><time>2026-04-29T14:39:45Z</time></trkpt><trkpt lat="37.37623268759808" lon="14.382586665193001"><ele>733.0</ele><time>2026-04-29T14:39:46Z</time></trkpt><trkpt lat="37.37635529716278" lon="14.382470822641293"><ele>735.5</ele><time>2026-04-29T14:39:47Z</time></trkpt><trkpt lat="37.376470599472725" lon="14.382361993780632"><ele>738.0</ele><time>2026-04-29T14:39:48Z</time></trkpt><trkpt lat="37.3765670314155" lon="14.382272771721201"><ele>740.5</ele><time>2026-04-29T14:39:49Z</time></trkpt><trkpt lat="37.37666787514095" lon="14.382185946593387"><ele>743.0</ele><time>2026-04-29T14:39:50Z</time></trkpt><trkpt lat="37.37678025652342" lon="14.382068957644721"><ele>743.0</ele><time>2026-04-29T14:39:51Z</time></trkpt><trkpt lat="37.37688481609308" lon="14.381962944677065"><ele>743.0</ele><time>2026-04-29T14:39:52Z</time></trkpt><trkpt lat="37.37696979728243" lon="14.381871950805222"><ele>743.0</ele><time>2026-04-29T14:39:53Z</time></trkpt><trkpt lat="37.37705731492933" lon="14.381803232705325"><ele>743.0</ele><time>2026-04-29T14:39:54Z</time></trkpt><trkpt lat="37.37714121756024" lon="14.38171888539716"><ele>747.0</ele><time>2026-04-29T14:39:55Z</time></trkpt><trkpt lat="37.37723888384957" lon="14.381625519209019"><ele>751.0</ele><time>2026-04-29T14:39:56Z</time></trkpt><trkpt lat="37.37734765337551" lon="14.381524936667553"><ele>755.0</ele><time>2026-04-29T14:39:57Z</time></trkpt><trkpt lat="37.377464269070394" lon="14.381433028360902"><ele>759.0</ele><time>2026-04-29T14:39:58Z</time></trkpt><trkpt lat="37.377597848242544" lon="14.38137183760895"><ele>760.5</ele><time>2026-04-29T14:39:59Z</time></trkpt><trkpt lat="37.37773516543763" lon="14.381332402792511"><ele>762.0</ele><time>2026-04-29T14:40:00Z</time></trkpt><trkpt lat="37.37786261674924" lon="14.381300670306981"><ele>763.5</ele><time>2026-04-29T14:40:01Z</time></trkpt><trkpt lat="37.37798932787905" lon="14.381266726870566"><ele>765.0</ele><time>2026-04-29T14:40:02Z</time></trkpt><trkpt lat="37.37812403923279" lon="14.381231785079091"><ele>765.0</ele><time>2026-04-29T14:40:03Z</time></trkpt><trkpt lat="37.37824795810641" lon="14.3811973789372"><ele>765.0</ele><time>2026-04-29T14:40:04Z</time></trkpt><trkpt lat="37.378347534822296" lon="14.381171209214887"><ele>765.0</ele><time>2026-04-29T14:40:05Z</time></trkpt><trkpt lat="37.37841795825853" lon="14.381112496294461"><ele>765.0</ele><time>2026-04-29T14:40:06Z</time></trkpt><trkpt lat="37.37848232351373" lon="14.381047182834855"><ele>765.0</ele><time>2026-04-29T14:40:07Z</time></trkpt><trkpt lat="37.378540885582396" lon="14.380960014278298"><ele>765.0</ele><time>2026-04-29T14:40:08Z</time></trkpt><trkpt lat="37.37858648696579" lon="14.380855658607299"><ele>765.0</ele><time>2026-04-29T14:40:09Z</time></trkpt><trkpt lat="37.37865775603547" lon="14.380773235813152"><ele>765.0</ele><time>2026-04-29T14:40:10Z</time></trkpt><trkpt lat="37.37874514371498" lon="14.380740221247114"><ele>765.0</ele><time>2026-04-29T14:40:11Z</time></trkpt><trkpt lat="37.37882425173302" lon="14.38067097105176"><ele>765.0</ele><time>2026-04-29T14:40:12Z</time></trkpt><trkpt lat="37.37889852671196" lon="14.380609532433624"><ele>766.0</ele><time>2026-04-29T14:40:13Z</time></trkpt><trkpt lat="37.378970778922834" lon="14.380564733516588"><ele>767.0</ele><time>2026-04-29T14:40:14Z</time></trkpt><trkpt lat="37.37901987936984" lon="14.380513450973563"><ele>768.0</ele><time>2026-04-29T14:40:15Z</time></trkpt><trkpt lat="37.37910259640885" lon="14.380444745244338"><ele>769.0</ele><time>2026-04-29T14:40:17Z</time></trkpt><trkpt lat="37.379136015146926" lon="14.380374563826033"><ele>770.0</ele><time>2026-04-29T14:40:19Z</time></trkpt><trkpt lat="37.379103627982566" lon="14.380237994369994"><ele>771.0</ele><time>2026-04-29T14:40:21Z</time></trkpt><trkpt lat="37.379085802567914" lon="14.380148787832422"><ele>771.0</ele><time>2026-04-29T14:40:22Z</time></trkpt><trkpt lat="37.379080529579" lon="14.380045344814917"><ele>771.0</ele><time>2026-04-29T14:40:23Z</time></trkpt><trkpt lat="37.37906272797658" lon="14.379947193689445"><ele>771.0</ele><time>2026-04-29T14:40:24Z</time></trkpt><trkpt lat="37.37904353262942" lon="14.379844869113915"><ele>771.0</ele><time>2026-04-29T14:40:25Z</time></trkpt><trkpt lat="37.379021937697075" lon="14.379740152783118"><ele>771.0</ele><time>2026-04-29T14:40:26Z</time></trkpt><trkpt lat="37.37900212143646" lon="14.379640166387968"><ele>771.0</ele><time>2026-04-29T14:40:27Z</time></trkpt><trkpt lat="37.37898632320096" lon="14.379542470366124"><ele>770.5999999999999</ele><time>2026-04-29T14:40:28Z</time></trkpt><trkpt lat="37.37896999184016" lon="14.379441320857946"><ele>770.2</ele><time>2026-04-29T14:40:29Z</time></trkpt><trkpt lat="37.378940856892584" lon="14.379309900465781"><ele>769.8</ele><time>2026-04-29T14:40:30Z</time></trkpt><trkpt lat="37.3789127169166" lon="14.37915946452677"><ele>769.4000000000001</ele><time>2026-04-29T14:40:31Z</time></trkpt><trkpt lat="37.37888737109743" lon="14.379023123914624"><ele>769.0</ele><time>2026-04-29T14:40:32Z</time></trkpt><trkpt lat="37.37886116702053" lon="14.378901724025607"><ele>767.8000000000001</ele><time>2026-04-29T14:40:33Z</time></trkpt><trkpt lat="37.378836591936185" lon="14.378782197541616"><ele>766.6</ele><time>2026-04-29T14:40:34Z</time></trkpt><trkpt lat="37.3788055992418" lon="14.378669272759648"><ele>765.4</ele><time>2026-04-29T14:40:35Z</time></trkpt><trkpt lat="37.37879394066632" lon="14.378549575954485"><ele>764.2</ele><time>2026-04-29T14:40:36Z</time></trkpt><trkpt lat="37.378793761404445" lon="14.378430238590836"><ele>763.0</ele><time>2026-04-29T14:40:37Z</time></trkpt><trkpt lat="37.37881398246876" lon="14.378314493013578"><ele>763.0</ele><time>2026-04-29T14:40:38Z</time></trkpt><trkpt lat="37.37883503586321" lon="14.378206424241064"><ele>763.0</ele><time>2026-04-29T14:40:39Z</time></trkpt><trkpt lat="37.37885103089259" lon="14.378103382211368"><ele>763.0</ele><time>2026-04-29T14:40:40Z</time></trkpt><trkpt lat="37.378866526033576" lon="14.378003560453951"><ele>763.0</ele><time>2026-04-29T14:40:41Z</time></trkpt><trkpt lat="37.37888137514757" lon="14.377907900579212"><ele>763.0</ele><time>2026-04-29T14:40:42Z</time></trkpt><trkpt lat="37.37889641766732" lon="14.377810994725998"><ele>763.0</ele><time>2026-04-29T14:40:43Z</time></trkpt><trkpt lat="37.37891032119249" lon="14.377721426391084"><ele>762.2857142857143</ele><time>2026-04-29T14:40:44Z</time></trkpt><trkpt lat="37.37892490604473" lon="14.377628982401673"><ele>761.5714285714286</ele><time>2026-04-29T14:40:45Z</time></trkpt><trkpt lat="37.37895455835705" lon="14.37754525607166"><ele>760.8571428571429</ele><time>2026-04-29T14:40:46Z</time></trkpt><trkpt lat="37.37895401093631" lon="14.377451682868864"><ele>760.1428571428571</ele><time>2026-04-29T14:40:47Z</time></trkpt><trkpt lat="37.37896854545487" lon="14.377363142677774"><ele>759.4285714285714</ele><time>2026-04-29T14:40:48Z</time></trkpt><trkpt lat="37.37898012036118" lon="14.37727157763747"><ele>758.7142857142858</ele><time>2026-04-29T14:40:49Z</time></trkpt><trkpt lat="37.37898840739776" lon="14.377178195585943"><ele>758.0</ele><time>2026-04-29T14:40:50Z</time></trkpt><trkpt lat="37.37899747071274" lon="14.377078429268009"><ele>757.1666666666666</ele><time>2026-04-29T14:40:51Z</time></trkpt><trkpt lat="37.379002134707335" lon="14.376984010436232"><ele>756.3333333333333</ele><time>2026-04-29T14:40:52Z</time></trkpt><trkpt lat="37.37900851768937" lon="14.376885263888646"><ele>755.5</ele><time>2026-04-29T14:40:53Z</time></trkpt><trkpt lat="37.37901451138724" lon="14.376787977510608"><ele>754.6666666666666</ele><time>2026-04-29T14:40:54Z</time></trkpt><trkpt lat="37.379019724009325" lon="14.376693906851523"><ele>753.8333333333334</ele><time>2026-04-29T14:40:55Z</time></trkpt><trkpt lat="37.37903911176794" lon="14.376597029785694"><ele>753.0</ele><time>2026-04-29T14:40:56Z</time></trkpt><trkpt lat="37.37904165238381" lon="14.376496079320212"><ele>753.0</ele><time>2026-04-29T14:40:57Z</time></trkpt><trkpt lat="37.37903672575716" lon="14.37637508321989"><ele>753.0</ele><time>2026-04-29T14:40:58Z</time></trkpt><trkpt lat="37.37902768856625" lon="14.376256316346284"><ele>753.0</ele><time>2026-04-29T14:40:59Z</time></trkpt><trkpt lat="37.37902832784881" lon="14.376146369474098"><ele>753.0</ele><time>2026-04-29T14:41:00Z</time></trkpt><trkpt lat="37.379033818996206" lon="14.376051373413125"><ele>753.0</ele><time>2026-04-29T14:41:01Z</time></trkpt><trkpt lat="37.37904025147533" lon="14.375918556419647"><ele>752.6666666666666</ele><time>2026-04-29T14:41:03Z</time></trkpt><trkpt lat="37.37907130315764" lon="14.375849045591176"><ele>752.3333333333334</ele><time>2026-04-29T14:41:04Z</time></trkpt><trkpt lat="37.3790953134659" lon="14.375709615858971"><ele>752.0</ele><time>2026-04-29T14:41:06Z</time></trkpt><trkpt lat="37.37910791663164" lon="14.37561716965814"><ele>751.6666666666667</ele><time>2026-04-29T14:41:07Z</time></trkpt><trkpt lat="37.37912285880467" lon="14.375528259263914"><ele>751.3333333333334</ele><time>2026-04-29T14:41:08Z</time></trkpt><trkpt lat="37.379149473007956" lon="14.375390745932473"><ele>751.0</ele><time>2026-04-29T14:41:10Z</time></trkpt><trkpt lat="37.37917197026692" lon="14.375275766795095"><ele>751.0</ele><time>2026-04-29T14:41:12Z</time></trkpt><trkpt lat="37.37921119746644" lon="14.375166835786949"><ele>751.0</ele><time>2026-04-29T14:41:14Z</time></trkpt><trkpt lat="37.37931798869937" lon="14.375102725999879"><ele>751.0</ele><time>2026-04-29T14:41:16Z</time></trkpt><trkpt lat="37.3793886662693" lon="14.375089246839057"><ele>751.0</ele><time>2026-04-29T14:41:17Z</time></trkpt><trkpt lat="37.37945377589344" lon="14.37507422541334"><ele>751.0</ele><time>2026-04-29T14:41:18Z</time></trkpt><trkpt lat="37.379552446582814" lon="14.375055420629502"><ele>751.0</ele><time>2026-04-29T14:41:20Z</time></trkpt><trkpt lat="37.37966654679374" lon="14.375028710287657"><ele>751.0</ele><time>2026-04-29T14:41:22Z</time></trkpt><trkpt lat="37.3797674171408" lon="14.375003395549745"><ele>751.0</ele><time>2026-04-29T14:41:24Z</time></trkpt><trkpt lat="37.37985514434091" lon="14.374986828896695"><ele>751.0</ele><time>2026-04-29T14:41:26Z</time></trkpt><trkpt lat="37.37992313944386" lon="14.374972073247513"><ele>751.0</ele><time>2026-04-29T14:41:28Z</time></trkpt><trkpt lat="37.38003847755536" lon="14.374969048792696"><ele>750.0</ele><time>2026-04-29T14:41:31Z</time></trkpt><trkpt lat="37.38010591550072" lon="14.37490075481885"><ele>749.0</ele><time>2026-04-29T14:41:32Z</time></trkpt><trkpt lat="37.38021814914771" lon="14.374938127331019"><ele>748.0</ele><time>2026-04-29T14:41:33Z</time></trkpt><trkpt lat="37.38032881466456" lon="14.374897115969896"><ele>747.0</ele><time>2026-04-29T14:41:34Z</time></trkpt><trkpt lat="37.38045892567934" lon="14.374850153263218"><ele>746.25</ele><time>2026-04-29T14:41:35Z</time></trkpt><trkpt lat="37.38058197940753" lon="14.374810124968675"><ele>745.5</ele><time>2026-04-29T14:41:36Z</time></trkpt><trkpt lat="37.38069996530298" lon="14.374782482328431"><ele>744.75</ele><time>2026-04-29T14:41:37Z</time></trkpt><trkpt lat="37.38081967718916" lon="14.374785363263747"><ele>744.0</ele><time>2026-04-29T14:41:38Z</time></trkpt><trkpt lat="37.38097333753958" lon="14.37480591850746"><ele>744.0</ele><time>2026-04-29T14:41:39Z</time></trkpt><trkpt lat="37.381137177065725" lon="14.374791121186728"><ele>744.0</ele><time>2026-04-29T14:41:40Z</time></trkpt><trkpt lat="37.38128696175867" lon="14.374792759198252"><ele>744.0</ele><time>2026-04-29T14:41:41Z</time></trkpt><trkpt lat="37.38139925321646" lon="14.374799353375657"><ele>744.0</ele><time>2026-04-29T14:41:42Z</time></trkpt><trkpt lat="37.38148348783212" lon="14.374843019977853"><ele>742.8000000000001</ele><time>2026-04-29T14:41:43Z</time></trkpt><trkpt lat="37.381558474826164" lon="14.37487986706879"><ele>741.6</ele><time>2026-04-29T14:41:44Z</time></trkpt><trkpt lat="37.381620351669426" lon="14.374953540540517"><ele>740.4</ele><time>2026-04-29T14:41:45Z</time></trkpt><trkpt lat="37.38168602855942" lon="14.375067060895601"><ele>739.2</ele><time>2026-04-29T14:41:46Z</time></trkpt><trkpt lat="37.38176283417919" lon="14.375179599159141"><ele>738.0</ele><time>2026-04-29T14:41:47Z</time></trkpt><trkpt lat="37.38186922075805" lon="14.375256031225971"><ele>738.0</ele><time>2026-04-29T14:41:48Z</time></trkpt><trkpt lat="37.38197823326073" lon="14.375308793266992"><ele>738.0</ele><time>2026-04-29T14:41:49Z</time></trkpt><trkpt lat="37.38208389314565" lon="14.375319277571132"><ele>738.0</ele><time>2026-04-29T14:41:50Z</time></trkpt><trkpt lat="37.38216687956373" lon="14.375353632573317"><ele>738.0</ele><time>2026-04-29T14:41:51Z</time></trkpt><trkpt lat="37.38224103851464" lon="14.37538471317726"><ele>738.0</ele><time>2026-04-29T14:41:52Z</time></trkpt><trkpt lat="37.38232415069879" lon="14.375411534381906"><ele>735.2</ele><time>2026-04-29T14:41:54Z</time></trkpt><trkpt lat="37.38235014370366" lon="14.375277599912682"><ele>732.4</ele><time>2026-04-29T14:41:56Z</time></trkpt><trkpt lat="37.38237124294361" lon="14.37513725935237"><ele>729.6</ele><time>2026-04-29T14:41:58Z</time></trkpt><trkpt lat="37.382437994645656" lon="14.375071988819665"><ele>726.8000000000001</ele><time>2026-04-29T14:41:59Z</time></trkpt><trkpt lat="37.38253273277911" lon="14.375011860321955"><ele>724.0</ele><time>2026-04-29T14:42:00Z</time></trkpt><trkpt lat="37.382632672481904" lon="14.374922860555666"><ele>724.0</ele><time>2026-04-29T14:42:01Z</time></trkpt><trkpt lat="37.382708434334454" lon="14.374825876605712"><ele>724.0</ele><time>2026-04-29T14:42:02Z</time></trkpt><trkpt lat="37.382771462773135" lon="14.374719929413596"><ele>724.0</ele><time>2026-04-29T14:42:03Z</time></trkpt><trkpt lat="37.382798437720744" lon="14.374593966248513"><ele>724.0</ele><time>2026-04-29T14:42:04Z</time></trkpt><trkpt lat="37.38282531875893" lon="14.374470500115924"><ele>724.0</ele><time>2026-04-29T14:42:05Z</time></trkpt><trkpt lat="37.3828533811823" lon="14.374351244102032"><ele>724.0</ele><time>2026-04-29T14:42:06Z</time></trkpt><trkpt lat="37.38288190346911" lon="14.374224471047388"><ele>724.0</ele><time>2026-04-29T14:42:07Z</time></trkpt><trkpt lat="37.38290769004938" lon="14.374100112871712"><ele>724.0</ele><time>2026-04-29T14:42:08Z</time></trkpt><trkpt lat="37.38293687384192" lon="14.37397948007987"><ele>724.0</ele><time>2026-04-29T14:42:09Z</time></trkpt><trkpt lat="37.382977136807284" lon="14.373871631108917"><ele>724.0</ele><time>2026-04-29T14:42:10Z</time></trkpt><trkpt lat="37.38300747434414" lon="14.373766803902939"><ele>721.1666666666667</ele><time>2026-04-29T14:42:11Z</time></trkpt><trkpt lat="37.3830388000716" lon="14.373666967808024"><ele>718.3333333333334</ele><time>2026-04-29T14:42:12Z</time></trkpt><trkpt lat="37.38307835753778" lon="14.373575892389127"><ele>715.5</ele><time>2026-04-29T14:42:13Z</time></trkpt><trkpt lat="37.383164465235424" lon="14.373534398016096"><ele>712.6666666666666</ele><time>2026-04-29T14:42:14Z</time></trkpt><trkpt lat="37.38322165611955" lon="14.373478186202838"><ele>709.8333333333333</ele><time>2026-04-29T14:42:15Z</time></trkpt><trkpt lat="37.38327043104796" lon="14.373408099809373"><ele>707.0</ele><time>2026-04-29T14:42:16Z</time></trkpt><trkpt lat="37.38332526931959" lon="14.373341031249863"><ele>707.0</ele><time>2026-04-29T14:42:17Z</time></trkpt><trkpt lat="37.38337652357595" lon="14.373280772871345"><ele>707.0</ele><time>2026-04-29T14:42:18Z</time></trkpt><trkpt lat="37.38340331261806" lon="14.373197902679182"><ele>707.0</ele><time>2026-04-29T14:42:19Z</time></trkpt><trkpt lat="37.3834289452239" lon="14.37311831469958"><ele>707.0</ele><time>2026-04-29T14:42:20Z</time></trkpt><trkpt lat="37.38350217860246" lon="14.37301107023141"><ele>707.0</ele><time>2026-04-29T14:42:22Z</time></trkpt><trkpt lat="37.38362450977537" lon="14.37297552600355"><ele>707.0</ele><time>2026-04-29T14:42:24Z</time></trkpt><trkpt lat="37.38369757527738" lon="14.3729682632305"><ele>706.5</ele><time>2026-04-29T14:42:25Z</time></trkpt><trkpt lat="37.38376411940277" lon="14.372945750739463"><ele>706.0</ele><time>2026-04-29T14:42:26Z</time></trkpt><trkpt lat="37.38382013365181" lon="14.372816213640228"><ele>705.5</ele><time>2026-04-29T14:42:29Z</time></trkpt><trkpt lat="37.383674227163084" lon="14.37258274685241"><ele>705.0</ele><time>2026-04-29T14:42:33Z</time></trkpt><trkpt lat="37.3836548855918" lon="14.372474493626862"><ele>705.0</ele><time>2026-04-29T14:42:35Z</time></trkpt><trkpt lat="37.383703953597205" lon="14.37236780269297"><ele>705.0</ele><time>2026-04-29T14:42:36Z</time></trkpt><trkpt lat="37.38370219139637" lon="14.37228759912669"><ele>705.0</ele><time>2026-04-29T14:42:37Z</time></trkpt><trkpt lat="37.383718874535646" lon="14.372142058685803"><ele>705.0</ele><time>2026-04-29T14:42:39Z</time></trkpt><trkpt lat="37.38370546429539" lon="14.371993070979595"><ele>705.0</ele><time>2026-04-29T14:42:41Z</time></trkpt><trkpt lat="37.38370178078789" lon="14.371853959701856"><ele>704.4</ele><time>2026-04-29T14:42:43Z</time></trkpt><trkpt lat="37.38370452454667" lon="14.371730628166022"><ele>703.8</ele><time>2026-04-29T14:42:45Z</time></trkpt><trkpt lat="37.3836900724546" lon="14.37161001505973"><ele>703.2</ele><time>2026-04-29T14:42:47Z</time></trkpt><trkpt lat="37.383670543178816" lon="14.37149979801212"><ele>702.6</ele><time>2026-04-29T14:42:49Z</time></trkpt><trkpt lat="37.38365721837536" lon="14.37140785055843"><ele>702.0</ele><time>2026-04-29T14:42:51Z</time></trkpt><trkpt lat="37.38372569176854" lon="14.371312600885547"><ele>701.6</ele><time>2026-04-29T14:42:52Z</time></trkpt><trkpt lat="37.383812330715" lon="14.371221875236072"><ele>701.2</ele><time>2026-04-29T14:42:54Z</time></trkpt><trkpt lat="37.383879985688004" lon="14.3711876553344"><ele>700.8</ele><time>2026-04-29T14:42:55Z</time></trkpt><trkpt lat="37.38392487705699" lon="14.371129364256513"><ele>700.4</ele><time>2026-04-29T14:42:56Z</time></trkpt><trkpt lat="37.38401858177381" lon="14.371028070785432"><ele>700.0</ele><time>2026-04-29T14:42:58Z</time></trkpt><trkpt lat="37.38404338955943" lon="14.370934251280985"><ele>700.0</ele><time>2026-04-29T14:42:59Z</time></trkpt><trkpt lat="37.38410035620704" lon="14.370876720314486"><ele>700.0</ele><time>2026-04-29T14:43:00Z</time></trkpt><trkpt lat="37.38415722400357" lon="14.370821937435094"><ele>700.0</ele><time>2026-04-29T14:43:01Z</time></trkpt><trkpt lat="37.38420916862419" lon="14.370771897829906"><ele>700.0</ele><time>2026-04-29T14:43:02Z</time></trkpt><trkpt lat="37.38427338674705" lon="14.370747467282303"><ele>700.0</ele><time>2026-04-29T14:43:03Z</time></trkpt><trkpt lat="37.38437719154644" lon="14.37071932952439"><ele>700.0</ele><time>2026-04-29T14:43:05Z</time></trkpt><trkpt lat="37.38446054316115" lon="14.370726268902443"><ele>700.0</ele><time>2026-04-29T14:43:07Z</time></trkpt><trkpt lat="37.38457364594548" lon="14.370696791975645"><ele>700.0</ele><time>2026-04-29T14:43:09Z</time></trkpt><trkpt lat="37.384657585802266" lon="14.370681911856048"><ele>700.0</ele><time>2026-04-29T14:43:10Z</time></trkpt><trkpt lat="37.38475972040342" lon="14.370680247775857"><ele>700.0</ele><time>2026-04-29T14:43:11Z</time></trkpt><trkpt lat="37.38485127197701" lon="14.370675060418126"><ele>700.0</ele><time>2026-04-29T14:43:12Z</time></trkpt><trkpt lat="37.38493995092409" lon="14.37068385989464"><ele>700.3333333333334</ele><time>2026-04-29T14:43:13Z</time></trkpt><trkpt lat="37.38502567296913" lon="14.370703194351202"><ele>700.6666666666667</ele><time>2026-04-29T14:43:14Z</time></trkpt><trkpt lat="37.38510236215578" lon="14.370706209283934"><ele>701.0</ele><time>2026-04-29T14:43:15Z</time></trkpt><trkpt lat="37.38518184826085" lon="14.37072462896687"><ele>701.3333333333334</ele><time>2026-04-29T14:43:16Z</time></trkpt><trkpt lat="37.3852533870697" lon="14.370736492169524"><ele>701.6666666666666</ele><time>2026-04-29T14:43:17Z</time></trkpt><trkpt lat="37.3853235027045" lon="14.37075135158381"><ele>702.0</ele><time>2026-04-29T14:43:18Z</time></trkpt><trkpt lat="37.38544320866118" lon="14.370784556335858"><ele>701.1666666666666</ele><time>2026-04-29T14:43:20Z</time></trkpt><trkpt lat="37.38552944168642" lon="14.370779777719958"><ele>700.3333333333334</ele><time>2026-04-29T14:43:22Z</time></trkpt><trkpt lat="37.385594017491144" lon="14.37079513633475"><ele>699.5</ele><time>2026-04-29T14:43:24Z</time></trkpt><trkpt lat="37.3856509538153" lon="14.37073406218366"><ele>698.6666666666667</ele><time>2026-04-29T14:43:27Z</time></trkpt><trkpt lat="37.38571927455394" lon="14.370793763582514"><ele>697.8333333333334</ele><time>2026-04-29T14:43:29Z</time></trkpt><trkpt lat="37.38577579094879" lon="14.370868640616516"><ele>697.0</ele><time>2026-04-29T14:43:32Z</time></trkpt><trkpt lat="37.385837976008766" lon="14.370931020610447"><ele>697.0</ele><time>2026-04-29T14:43:35Z</time></trkpt><trkpt lat="37.385895544136815" lon="14.3709635015045"><ele>697.0</ele><time>2026-04-29T14:43:37Z</time></trkpt><trkpt lat="37.38596449190269" lon="14.37101806287223"><ele>697.0</ele><time>2026-04-29T14:43:39Z</time></trkpt><trkpt lat="37.38608868245556" lon="14.37107443073801"><ele>697.0</ele><time>2026-04-29T14:44:08Z</time></trkpt><trkpt lat="37.38614785089843" lon="14.37110686497818"><ele>697.0</ele><time>2026-04-29T14:44:10Z</time></trkpt><trkpt lat="37.38620911301977" lon="14.371126999720039"><ele>697.0</ele><time>2026-04-29T14:44:12Z</time></trkpt><trkpt lat="37.38628648747962" lon="14.371169604318583"><ele>695.8333333333334</ele><time>2026-04-29T14:44:15Z</time></trkpt><trkpt lat="37.386371717401595" lon="14.37120166919073"><ele>694.6666666666667</ele><time>2026-04-29T14:44:18Z</time></trkpt><trkpt lat="37.38644043919953" lon="14.3712505259755"><ele>693.5</ele><time>2026-04-29T14:44:21Z</time></trkpt><trkpt lat="37.386565090598076" lon="14.371258485025816"><ele>692.3333333333334</ele><time>2026-04-29T14:45:28Z</time></trkpt><trkpt lat="37.38664080445982" lon="14.371274409904833"><ele>691.1666666666666</ele><time>2026-04-29T14:45:32Z</time></trkpt><trkpt lat="37.38670851722978" lon="14.371302108755545"><ele>690.0</ele><time>2026-04-29T14:45:34Z</time></trkpt><trkpt lat="37.38677528626644" lon="14.37134534509267"><ele>690.4285714285714</ele><time>2026-04-29T14:45:36Z</time></trkpt><trkpt lat="37.38684894075487" lon="14.37137319151528"><ele>690.8571428571429</ele><time>2026-04-29T14:46:21Z</time></trkpt><trkpt lat="37.386923977207196" lon="14.371396365088268"><ele>691.2857142857142</ele><time>2026-04-29T14:46:23Z</time></trkpt><trkpt lat="37.386989206302005" lon="14.371428953951709"><ele>691.7142857142858</ele><time>2026-04-29T14:46:25Z</time></trkpt><trkpt lat="37.38706350900908" lon="14.371459941966728"><ele>692.1428571428571</ele><time>2026-04-29T14:46:27Z</time></trkpt><trkpt lat="37.38712932785268" lon="14.371473330984363"><ele>692.5714285714286</ele><time>2026-04-29T14:46:29Z</time></trkpt><trkpt lat="37.38720547523968" lon="14.371499630447213"><ele>693.0</ele><time>2026-04-29T14:46:31Z</time></trkpt><trkpt lat="37.38727287460204" lon="14.371518211993964"><ele>693.0</ele><time>2026-04-29T14:46:33Z</time></trkpt><trkpt lat="37.38733570380519" lon="14.371537085896556"><ele>693.0</ele><time>2026-04-29T14:46:35Z</time></trkpt><trkpt lat="37.38740139290926" lon="14.371560712377079"><ele>693.0</ele><time>2026-04-29T14:46:37Z</time></trkpt><trkpt lat="37.38748986781507" lon="14.371578773077944"><ele>693.0</ele><time>2026-04-29T14:46:39Z</time></trkpt><trkpt lat="37.387587629739926" lon="14.371604913004449"><ele>693.0</ele><time>2026-04-29T14:46:41Z</time></trkpt><trkpt lat="37.387685838041634" lon="14.371626631836817"><ele>693.0</ele><time>2026-04-29T14:46:43Z</time></trkpt><trkpt lat="37.38777572666877" lon="14.371661597999555"><ele>693.0</ele><time>2026-04-29T14:46:45Z</time></trkpt><trkpt lat="37.387866554575666" lon="14.371684388528434"><ele>693.0</ele><time>2026-04-29T14:46:47Z</time></trkpt><trkpt lat="37.38796589752949" lon="14.371701548553203"><ele>693.0</ele><time>2026-04-29T14:46:49Z</time></trkpt><trkpt lat="37.38804885203728" lon="14.371680129365203"><ele>693.0</ele><time>2026-04-29T14:46:51Z</time></trkpt><trkpt lat="37.38811552566217" lon="14.371644169718548"><ele>693.0</ele><time>2026-04-29T14:46:54Z</time></trkpt><trkpt lat="37.38810698342597" lon="14.371535602613806"><ele>693.0</ele><time>2026-04-29T14:46:56Z</time></trkpt><trkpt lat="37.38813600667307" lon="14.371460131837903"><ele>694.25</ele><time>2026-04-29T14:46:58Z</time></trkpt><trkpt lat="37.38814055264541" lon="14.3713473700198"><ele>695.5</ele><time>2026-04-29T14:47:01Z</time></trkpt><trkpt lat="37.388161135218894" lon="14.37123611908775"><ele>696.75</ele><time>2026-04-29T14:47:04Z</time></trkpt><trkpt lat="37.38818884065159" lon="14.371009756289675"><ele>698.0</ele><time>2026-04-29T14:47:16Z</time></trkpt><trkpt lat="37.38821110678572" lon="14.370884349025925"><ele>698.0</ele><time>2026-04-29T14:47:18Z</time></trkpt><trkpt lat="37.38824045078395" lon="14.370765385635856"><ele>698.0</ele><time>2026-04-29T14:47:20Z</time></trkpt><trkpt lat="37.38826185507128" lon="14.370641235775555"><ele>698.0</ele><time>2026-04-29T14:47:22Z</time></trkpt><trkpt lat="37.3882734830925" lon="14.370547821450016"><ele>698.0</ele><time>2026-04-29T14:47:24Z</time></trkpt><trkpt lat="37.38828786053315" lon="14.370464634746835"><ele>698.0</ele><time>2026-04-29T14:47:28Z</time></trkpt><trkpt lat="37.38834666241473" lon="14.370420426621457"><ele>698.0</ele><time>2026-04-29T14:47:51Z</time></trkpt><trkpt lat="37.38842811191619" lon="14.3704320699518"><ele>698.0</ele><time>2026-04-29T14:47:57Z</time></trkpt><trkpt lat="37.38850871924227" lon="14.37044775167754"><ele>698.0</ele><time>2026-04-29T14:48:00Z</time></trkpt><trkpt lat="37.388730539329" lon="14.370472012217963"><ele>698.0</ele><time>2026-04-29T14:48:20Z</time></trkpt><trkpt lat="37.38884752998501" lon="14.370505727218173"><ele>698.0</ele><time>2026-04-29T14:48:21Z</time></trkpt><trkpt lat="37.38911143239804" lon="14.370498445575583"><ele>698.0</ele><time>2026-04-29T14:48:23Z</time></trkpt><trkpt lat="37.38920343004085" lon="14.3705139507894"><ele>698.0</ele><time>2026-04-29T14:48:24Z</time></trkpt><trkpt lat="37.38927717848098" lon="14.37052500084917"><ele>698.0</ele><time>2026-04-29T14:48:25Z</time></trkpt><trkpt lat="37.38936383290786" lon="14.370549834328992"><ele>698.0</ele><time>2026-04-29T14:48:27Z</time></trkpt><trkpt lat="37.38935345245614" lon="14.370404577904342"><ele>698.0</ele><time>2026-04-29T14:48:30Z</time></trkpt><trkpt lat="37.3892688791563" lon="14.370356350565661"><ele>698.0</ele><time>2026-04-29T14:48:32Z</time></trkpt><trkpt lat="37.38918537260826" lon="14.370308731753392"><ele>698.0</ele><time>2026-04-29T14:48:34Z</time></trkpt><trkpt lat="37.38910520621873" lon="14.370260517621919"><ele>698.0</ele><time>2026-04-29T14:48:36Z</time></trkpt><trkpt lat="37.38902045473062" lon="14.370209898936913"><ele>698.0</ele><time>2026-04-29T14:48:39Z</time></trkpt><trkpt lat="37.38893214861594" lon="14.37015716283302"><ele>698.0</ele><time>2026-04-29T14:48:42Z</time></trkpt><trkpt lat="37.388861536925205" lon="14.370115439427718"><ele>697.5</ele><time>2026-04-29T14:48:44Z</time></trkpt><trkpt lat="37.38878321151986" lon="14.37007044151522"><ele>697.0</ele><time>2026-04-29T14:48:46Z</time></trkpt><trkpt lat="37.388702949163594" lon="14.370025544098691"><ele>696.5</ele><time>2026-04-29T14:48:48Z</time></trkpt><trkpt lat="37.388615138116336" lon="14.370023246728806"><ele>696.0</ele><time>2026-04-29T14:48:50Z</time></trkpt><trkpt lat="37.38854455323024" lon="14.369976817916474"><ele>695.5</ele><time>2026-04-29T14:48:52Z</time></trkpt><trkpt lat="37.38847998308425" lon="14.369940890190298"><ele>695.0</ele><time>2026-04-29T14:48:54Z</time></trkpt><trkpt lat="37.38840153949813" lon="14.369892428738787"><ele>695.0</ele><time>2026-04-29T14:48:56Z</time></trkpt><trkpt lat="37.3883230063267" lon="14.36984188646745"><ele>695.0</ele><time>2026-04-29T14:48:58Z</time></trkpt><trkpt lat="37.38824671305823" lon="14.369796170805781"><ele>695.0</ele><time>2026-04-29T14:49:00Z</time></trkpt><trkpt lat="37.388155212348245" lon="14.369740237789625"><ele>695.0</ele><time>2026-04-29T14:49:02Z</time></trkpt><trkpt lat="37.388075481373974" lon="14.369704536291318"><ele>695.0</ele><time>2026-04-29T14:49:04Z</time></trkpt><trkpt lat="37.38799959324469" lon="14.369668531881702"><ele>695.0</ele><time>2026-04-29T14:49:06Z</time></trkpt><trkpt lat="37.38793464516998" lon="14.369628674844563"><ele>694.0</ele><time>2026-04-29T14:49:08Z</time></trkpt><trkpt lat="37.387874180104674" lon="14.369602478722296"><ele>693.0</ele><time>2026-04-29T14:49:11Z</time></trkpt><trkpt lat="37.38778950222607" lon="14.369555089164356"><ele>692.0</ele><time>2026-04-29T14:49:14Z</time></trkpt><trkpt lat="37.38771268316021" lon="14.369510213995378"><ele>691.0</ele><time>2026-04-29T14:49:16Z</time></trkpt><trkpt lat="37.38763583872617" lon="14.36947471790631"><ele>690.0</ele><time>2026-04-29T14:49:18Z</time></trkpt><trkpt lat="37.387550798521744" lon="14.369424080965256"><ele>689.0</ele><time>2026-04-29T14:49:21Z</time></trkpt><trkpt lat="37.38748953405292" lon="14.3693621104341"><ele>689.0</ele><time>2026-04-29T14:49:23Z</time></trkpt><trkpt lat="37.387427408977956" lon="14.369327654765701"><ele>689.0</ele><time>2026-04-29T14:49:25Z</time></trkpt><trkpt lat="37.38736072020603" lon="14.369321951429663"><ele>689.0</ele><time>2026-04-29T14:49:27Z</time></trkpt><trkpt lat="37.38730303211193" lon="14.369413496820401"><ele>689.0</ele><time>2026-04-29T14:49:30Z</time></trkpt><trkpt lat="37.38729312626816" lon="14.369503086608361"><ele>689.0</ele><time>2026-04-29T14:49:32Z</time></trkpt><trkpt lat="37.38727808489009" lon="14.369624997901663"><ele>689.0</ele><time>2026-04-29T14:49:34Z</time></trkpt><trkpt lat="37.38726901623815" lon="14.369715079264623"><ele>689.1666666666666</ele><time>2026-04-29T14:49:36Z</time></trkpt><trkpt lat="37.38725268930421" lon="14.369843583146876"><ele>689.3333333333333</ele><time>2026-04-29T14:49:39Z</time></trkpt><trkpt lat="37.387248184245834" lon="14.369938238118568"><ele>689.5</ele><time>2026-04-29T14:49:41Z</time></trkpt><trkpt lat="37.38724179294608" lon="14.370025260303652"><ele>689.6666666666666</ele><time>2026-04-29T14:49:43Z</time></trkpt><trkpt lat="37.38722473208573" lon="14.370122435195096"><ele>689.8333333333334</ele><time>2026-04-29T14:49:45Z</time></trkpt><trkpt lat="37.38721319524778" lon="14.370227792931503"><ele>690.0</ele><time>2026-04-29T14:49:47Z</time></trkpt><trkpt lat="37.38720660777372" lon="14.37033263137621"><ele>690.0</ele><time>2026-04-29T14:49:49Z</time></trkpt><trkpt lat="37.387192155336294" lon="14.370435101842943"><ele>690.0</ele><time>2026-04-29T14:49:51Z</time></trkpt><trkpt lat="37.38718861447083" lon="14.370526065830163"><ele>690.0</ele><time>2026-04-29T14:49:58Z</time></trkpt><trkpt lat="37.38717072947846" lon="14.370605595321745"><ele>690.0</ele><time>2026-04-29T14:50:01Z</time></trkpt><trkpt lat="37.38715809354922" lon="14.370693577360232"><ele>690.0</ele><time>2026-04-29T14:50:04Z</time></trkpt><trkpt lat="37.387152837957146" lon="14.37078345832304"><ele>690.0</ele><time>2026-04-29T14:50:08Z</time></trkpt><trkpt lat="37.38711108659286" lon="14.370861720340256"><ele>690.0</ele><time>2026-04-29T14:50:11Z</time></trkpt><trkpt lat="37.38700830811208" lon="14.3708570618291"><ele>690.0</ele><time>2026-04-29T14:50:13Z</time></trkpt><trkpt lat="37.38690693403376" lon="14.370839782930608"><ele>690.0</ele><time>2026-04-29T14:50:15Z</time></trkpt><trkpt lat="37.38683839556933" lon="14.370831191659157"><ele>690.0</ele><time>2026-04-29T14:50:17Z</time></trkpt><trkpt lat="37.38677022097654" lon="14.370825489963703"><ele>690.0</ele><time>2026-04-29T14:50:19Z</time></trkpt><trkpt lat="37.386683779260366" lon="14.370816998440906"><ele>690.0</ele><time>2026-04-29T14:50:21Z</time></trkpt><trkpt lat="37.38661492154154" lon="14.37079853142353"><ele>690.0</ele><time>2026-04-29T14:50:23Z</time></trkpt><trkpt lat="37.38653622829849" lon="14.37079076709606"><ele>690.0</ele><time>2026-04-29T14:50:26Z</time></trkpt><trkpt lat="37.38645652691891" lon="14.37078240922147"><ele>690.0</ele><time>2026-04-29T14:50:29Z</time></trkpt><trkpt lat="37.38634804848508" lon="14.370752816856035"><ele>690.0</ele><time>2026-04-29T14:50:32Z</time></trkpt><trkpt lat="37.386248350474375" lon="14.370735926653566"><ele>690.0</ele><time>2026-04-29T14:50:34Z</time></trkpt><trkpt lat="37.38616212896095" lon="14.370727414380895"><ele>690.0</ele><time>2026-04-29T14:50:36Z</time></trkpt><trkpt lat="37.386086792322466" lon="14.370714786196329"><ele>691.4</ele><time>2026-04-29T14:50:38Z</time></trkpt><trkpt lat="37.38602288042474" lon="14.370704423462032"><ele>692.8</ele><time>2026-04-29T14:50:39Z</time></trkpt><trkpt lat="37.38591913809595" lon="14.370640224836142"><ele>694.2</ele><time>2026-04-29T14:50:41Z</time></trkpt><trkpt lat="37.38579791628975" lon="14.370683754029612"><ele>695.6</ele><time>2026-04-29T14:50:43Z</time></trkpt><trkpt lat="37.385780167728335" lon="14.370805874653216"><ele>697.0</ele><time>2026-04-29T14:50:44Z</time></trkpt><trkpt lat="37.38591991981859" lon="14.37091428282325"><ele>697.0</ele><time>2026-04-29T14:50:46Z</time></trkpt><trkpt lat="37.386036831680606" lon="14.371005270718335"><ele>697.0</ele><time>2026-04-29T14:50:48Z</time></trkpt><trkpt lat="37.3861082532647" lon="14.371045704923203"><ele>697.0</ele><time>2026-04-29T14:50:49Z</time></trkpt><trkpt lat="37.38616872077727" lon="14.371089871428968"><ele>697.0</ele><time>2026-04-29T14:50:50Z</time></trkpt><trkpt lat="37.38623194915789" lon="14.371123915929134"><ele>697.0</ele><time>2026-04-29T14:50:51Z</time></trkpt><trkpt lat="37.38629132075953" lon="14.371154004710032"><ele>697.0</ele><time>2026-04-29T14:50:52Z</time></trkpt><trkpt lat="37.38639421612341" lon="14.371208040803637"><ele>697.0</ele><time>2026-04-29T14:50:54Z</time></trkpt><trkpt lat="37.38644557542782" lon="14.371257961357005"><ele>697.0</ele><time>2026-04-29T14:54:18Z</time></trkpt><trkpt lat="37.38651193085072" lon="14.371293030331564"><ele>697.0</ele><time>2026-04-29T14:54:42Z</time></trkpt><trkpt lat="37.386596303566904" lon="14.37133444928959"><ele>697.0</ele><time>2026-04-29T14:54:45Z</time></trkpt><trkpt lat="37.386672957724976" lon="14.371367467478816"><ele>697.0</ele><time>2026-04-29T14:54:47Z</time></trkpt><trkpt lat="37.386755531260505" lon="14.371400640963529"><ele>697.0</ele><time>2026-04-29T14:54:49Z</time></trkpt><trkpt lat="37.3868426824771" lon="14.371445951357881"><ele>697.0</ele><time>2026-04-29T14:54:51Z</time></trkpt><trkpt lat="37.38693866156828" lon="14.371478625106135"><ele>697.0</ele><time>2026-04-29T14:54:53Z</time></trkpt><trkpt lat="37.38704311250483" lon="14.371476707799474"><ele>697.0</ele><time>2026-04-29T14:54:55Z</time></trkpt><trkpt lat="37.387120272239756" lon="14.371493328979769"><ele>697.0</ele><time>2026-04-29T14:54:57Z</time></trkpt><trkpt lat="37.38720521542887" lon="14.37151039588719"><ele>697.0</ele><time>2026-04-29T14:54:59Z</time></trkpt><trkpt lat="37.3872890516869" lon="14.371527300961933"><ele>696.4285714285714</ele><time>2026-04-29T14:55:01Z</time></trkpt><trkpt lat="37.38735715751318" lon="14.371541196393146"><ele>695.8571428571429</ele><time>2026-04-29T14:55:03Z</time></trkpt><trkpt lat="37.387432391115986" lon="14.371556546107621"><ele>695.2857142857142</ele><time>2026-04-29T14:55:05Z</time></trkpt><trkpt lat="37.38750162783283" lon="14.371570672289849"><ele>694.7142857142858</ele><time>2026-04-29T14:55:07Z</time></trkpt><trkpt lat="37.387595632067296" lon="14.371589278447406"><ele>694.1428571428571</ele><time>2026-04-29T14:55:09Z</time></trkpt><trkpt lat="37.387661719880775" lon="14.371602518364808"><ele>693.5714285714286</ele><time>2026-04-29T14:55:11Z</time></trkpt><trkpt lat="37.38773235628386" lon="14.371616679326292"><ele>693.0</ele><time>2026-04-29T14:55:12Z</time></trkpt><trkpt lat="37.38779524831739" lon="14.371629287711915"><ele>693.0</ele><time>2026-04-29T14:55:13Z</time></trkpt><trkpt lat="37.387874015269496" lon="14.371645078671312"><ele>693.0</ele><time>2026-04-29T14:55:15Z</time></trkpt><trkpt lat="37.38794307044835" lon="14.371658922625844"><ele>693.0</ele><time>2026-04-29T14:55:17Z</time></trkpt><trkpt lat="37.38800865198769" lon="14.37167207020317"><ele>693.0</ele><time>2026-04-29T14:55:19Z</time></trkpt><trkpt lat="37.38808317194138" lon="14.371677231092931"><ele>693.0</ele><time>2026-04-29T14:55:22Z</time></trkpt><trkpt lat="37.38810992787442" lon="14.371584861635702"><ele>693.0</ele><time>2026-04-29T14:55:24Z</time></trkpt><trkpt lat="37.3881232307959" lon="14.371466532273827"><ele>694.25</ele><time>2026-04-29T14:55:26Z</time></trkpt><trkpt lat="37.388137627639495" lon="14.3713522629403"><ele>695.5</ele><time>2026-04-29T14:55:28Z</time></trkpt><trkpt lat="37.38815596650327" lon="14.37125369932606"><ele>696.75</ele><time>2026-04-29T14:55:30Z</time></trkpt><trkpt lat="37.38817081161459" lon="14.37100079437788"><ele>698.0</ele><time>2026-04-29T14:55:44Z</time></trkpt><trkpt lat="37.38818429104106" lon="14.370895532189135"><ele>698.0</ele><time>2026-04-29T14:55:45Z</time></trkpt><trkpt lat="37.38822267944814" lon="14.370791459269034"><ele>698.0</ele><time>2026-04-29T14:55:46Z</time></trkpt><trkpt lat="37.388240561017284" lon="14.370692457783216"><ele>698.0</ele><time>2026-04-29T14:55:47Z</time></trkpt><trkpt lat="37.38826313849268" lon="14.370567457477982"><ele>698.0</ele><time>2026-04-29T14:55:49Z</time></trkpt><trkpt lat="37.38829463281022" lon="14.370475177198712"><ele>698.0</ele><time>2026-04-29T14:55:53Z</time></trkpt><trkpt lat="37.38840928791232" lon="14.370428931715502"><ele>695.0</ele><time>2026-04-29T14:56:17Z</time></trkpt><trkpt lat="37.38837306477242" lon="14.3703071816033"><ele>695.0</ele><time>2026-04-29T14:59:11Z</time></trkpt></trkseg></trk></gpx>